﻿<?xml version="1.0" encoding="utf-8"?><gpx creator="Garmin Desktop App" version="1.1" xsi:schemaLocation="http://www.topografix.com/GPX/1/1 http://www.topografix.com/GPX/1/1/gpx.xsd http://www.garmin.com/xmlschemas/WaypointExtension/v1 http://www8.garmin.com/xmlschemas/WaypointExtensionv1.xsd http://www.garmin.com/xmlschemas/TrackPointExtension/v1 http://www.garmin.com/xmlschemas/TrackPointExtensionv1.xsd http://www.garmin.com/xmlschemas/GpxExtensions/v3 http://www8.garmin.com/xmlschemas/GpxExtensionsv3.xsd http://www.garmin.com/xmlschemas/ActivityExtension/v1 http://www8.garmin.com/xmlschemas/ActivityExtensionv1.xsd http://www.garmin.com/xmlschemas/AdventuresExtensions/v1 http://www8.garmin.com/xmlschemas/AdventuresExtensionv1.xsd http://www.garmin.com/xmlschemas/PressureExtension/v1 http://www.garmin.com/xmlschemas/PressureExtensionv1.xsd http://www.garmin.com/xmlschemas/TripExtensions/v1 http://www.garmin.com/xmlschemas/TripExtensionsv1.xsd http://www.garmin.com/xmlschemas/TripMetaDataExtensions/v1 http://www.garmin.com/xmlschemas/TripMetaDataExtensionsv1.xsd http://www.garmin.com/xmlschemas/ViaPointTransportationModeExtensions/v1 http://www.garmin.com/xmlschemas/ViaPointTransportationModeExtensionsv1.xsd http://www.garmin.com/xmlschemas/CreationTimeExtension/v1 http://www.garmin.com/xmlschemas/CreationTimeExtensionsv1.xsd http://www.garmin.com/xmlschemas/AccelerationExtension/v1 http://www.garmin.com/xmlschemas/AccelerationExtensionv1.xsd http://www.garmin.com/xmlschemas/PowerExtension/v1 http://www.garmin.com/xmlschemas/PowerExtensionv1.xsd http://www.garmin.com/xmlschemas/VideoExtension/v1 http://www.garmin.com/xmlschemas/VideoExtensionv1.xsd" xmlns="http://www.topografix.com/GPX/1/1" xmlns:xsi="http://www.w3.org/2001/XMLSchema-instance" xmlns:wptx1="http://www.garmin.com/xmlschemas/WaypointExtension/v1" xmlns:gpxtrx="http://www.garmin.com/xmlschemas/GpxExtensions/v3" xmlns:gpxtpx="http://www.garmin.com/xmlschemas/TrackPointExtension/v1" xmlns:gpxx="http://www.garmin.com/xmlschemas/GpxExtensions/v3" xmlns:trp="http://www.garmin.com/xmlschemas/TripExtensions/v1" xmlns:adv="http://www.garmin.com/xmlschemas/AdventuresExtensions/v1" xmlns:prs="http://www.garmin.com/xmlschemas/PressureExtension/v1" xmlns:tmd="http://www.garmin.com/xmlschemas/TripMetaDataExtensions/v1" xmlns:vptm="http://www.garmin.com/xmlschemas/ViaPointTransportationModeExtensions/v1" xmlns:ctx="http://www.garmin.com/xmlschemas/CreationTimeExtension/v1" xmlns:gpxacc="http://www.garmin.com/xmlschemas/AccelerationExtension/v1" xmlns:gpxpx="http://www.garmin.com/xmlschemas/PowerExtension/v1" xmlns:vidx1="http://www.garmin.com/xmlschemas/VideoExtension/v1">

  <metadata>
    <link href="http://www.garmin.com">
      <text>Garmin International</text>
    </link>
    <time>2024-09-16T18:21:50Z</time>
    <bounds maxlat="54.316544970497489" maxlon="14.192791990935802" minlat="53.167928019538522" minlon="13.073567021638155" />
  </metadata>

  <trk>
    <name>Track 240916</name>
    <extensions>
      <gpxx:TrackExtension>
        <gpxx:DisplayColor>DarkGray</gpxx:DisplayColor>
      </gpxx:TrackExtension>
    </extensions>
    <trkseg>
      <trkpt lat="54.314813017845154" lon="13.097950983792543">
        <ele>6.39</ele>
        <time>2024-09-16T06:55:48Z</time>
      </trkpt>
      <trkpt lat="54.314774964004755" lon="13.098030025139451">
        <ele>6.39</ele>
        <time>2024-09-16T06:55:50Z</time>
      </trkpt>
      <trkpt lat="54.314788961783051" lon="13.098075035959482">
        <ele>6.39</ele>
        <time>2024-09-16T06:55:51Z</time>
      </trkpt>
      <trkpt lat="54.31480698287487" lon="13.098133960738778">
        <ele>5.91</ele>
        <time>2024-09-16T06:55:52Z</time>
      </trkpt>
      <trkpt lat="54.314883006736636" lon="13.098380975425243">
        <ele>4.46</ele>
        <time>2024-09-16T06:55:58Z</time>
      </trkpt>
      <trkpt lat="54.314883006736636" lon="13.098380975425243">
        <ele>4.94</ele>
        <time>2024-09-16T06:56:04Z</time>
      </trkpt>
      <trkpt lat="54.314904967322946" lon="13.098449958488345">
        <ele>5.42</ele>
        <time>2024-09-16T06:56:05Z</time>
      </trkpt>
      <trkpt lat="54.314904967322946" lon="13.098449958488345">
        <ele>5.42</ele>
        <time>2024-09-16T06:56:06Z</time>
      </trkpt>
      <trkpt lat="54.314889963716269" lon="13.098461022600532">
        <ele>4.94</ele>
        <time>2024-09-16T06:56:07Z</time>
      </trkpt>
      <trkpt lat="54.314904967322946" lon="13.098449958488345">
        <ele>4.94</ele>
        <time>2024-09-16T06:56:08Z</time>
      </trkpt>
      <trkpt lat="54.315030025318265" lon="13.098350968211889">
        <ele>3.02</ele>
        <time>2024-09-16T06:56:11Z</time>
      </trkpt>
      <trkpt lat="54.315352980047464" lon="13.098089033737779">
        <ele>-2.27</ele>
        <time>2024-09-16T06:56:21Z</time>
      </trkpt>
      <trkpt lat="54.315352980047464" lon="13.098089033737779">
        <ele>8.310000000000001</ele>
        <time>2024-09-16T06:56:47Z</time>
      </trkpt>
      <trkpt lat="54.315318027511239" lon="13.098121974617243">
        <ele>9.75</ele>
        <time>2024-09-16T06:56:59Z</time>
      </trkpt>
      <trkpt lat="54.315331019461155" lon="13.098109988495708">
        <ele>9.75</ele>
        <time>2024-09-16T06:57:00Z</time>
      </trkpt>
      <trkpt lat="54.315312998369336" lon="13.098128009587526">
        <ele>8.789999999999999</ele>
        <time>2024-09-16T06:57:01Z</time>
      </trkpt>
      <trkpt lat="54.315312998369336" lon="13.098128009587526">
        <ele>7.83</ele>
        <time>2024-09-16T06:57:02Z</time>
      </trkpt>
      <trkpt lat="54.315312998369336" lon="13.098128009587526">
        <ele>6.87</ele>
        <time>2024-09-16T06:57:03Z</time>
      </trkpt>
      <trkpt lat="54.315312998369336" lon="13.098128009587526">
        <ele>5.91</ele>
        <time>2024-09-16T06:57:04Z</time>
      </trkpt>
      <trkpt lat="54.31530000641942" lon="13.098084004595876">
        <ele>4.94</ele>
        <time>2024-09-16T06:57:05Z</time>
      </trkpt>
      <trkpt lat="54.315286008641124" lon="13.098035976290703">
        <ele>3.98</ele>
        <time>2024-09-16T06:57:06Z</time>
      </trkpt>
      <trkpt lat="54.315273016691208" lon="13.097989959642291">
        <ele>3.02</ele>
        <time>2024-09-16T06:57:07Z</time>
      </trkpt>
      <trkpt lat="54.315258013084531" lon="13.097937991842628">
        <ele>2.54</ele>
        <time>2024-09-16T06:57:08Z</time>
      </trkpt>
      <trkpt lat="54.315239991992712" lon="13.097874959930778">
        <ele>1.58</ele>
        <time>2024-09-16T06:57:09Z</time>
      </trkpt>
      <trkpt lat="54.315219959244132" lon="13.097803965210915">
        <ele>1.1</ele>
        <time>2024-09-16T06:57:10Z</time>
      </trkpt>
      <trkpt lat="54.315199004486203" lon="13.097729030996561">
        <ele>0.62</ele>
        <time>2024-09-16T06:57:11Z</time>
      </trkpt>
      <trkpt lat="54.315113006159663" lon="13.097428036853671">
        <ele>-1.3</ele>
        <time>2024-09-16T06:57:15Z</time>
      </trkpt>
      <trkpt lat="54.315092973411083" lon="13.097360981628299">
        <ele>-1.79</ele>
        <time>2024-09-16T06:57:16Z</time>
      </trkpt>
      <trkpt lat="54.315073024481535" lon="13.097290992736816">
        <ele>-2.27</ele>
        <time>2024-09-16T06:57:17Z</time>
      </trkpt>
      <trkpt lat="54.315035976469517" lon="13.097160989418626">
        <ele>-3.23</ele>
        <time>2024-09-16T06:57:19Z</time>
      </trkpt>
      <trkpt lat="54.314969005063176" lon="13.096925960853696">
        <ele>-4.19</ele>
        <time>2024-09-16T06:57:23Z</time>
      </trkpt>
      <trkpt lat="54.314969005063176" lon="13.096925960853696">
        <ele>-4.19</ele>
        <time>2024-09-16T06:57:24Z</time>
      </trkpt>
      <trkpt lat="54.315062966197729" lon="13.096837028861046">
        <ele>-4.67</ele>
        <time>2024-09-16T06:57:25Z</time>
      </trkpt>
      <trkpt lat="54.315086016431451" lon="13.096814984455705">
        <ele>-5.15</ele>
        <time>2024-09-16T06:57:26Z</time>
      </trkpt>
      <trkpt lat="54.315119041129947" lon="13.09678397141397">
        <ele>-5.63</ele>
        <time>2024-09-16T06:57:27Z</time>
      </trkpt>
      <trkpt lat="54.315157011151314" lon="13.096747007220984">
        <ele>-6.11</ele>
        <time>2024-09-16T06:57:28Z</time>
      </trkpt>
      <trkpt lat="54.315205961465836" lon="13.096700990572572">
        <ele>-6.59</ele>
        <time>2024-09-16T06:57:29Z</time>
      </trkpt>
      <trkpt lat="54.315489018335938" lon="13.096431009471416">
        <ele>-8.029999999999999</ele>
        <time>2024-09-16T06:57:34Z</time>
      </trkpt>
      <trkpt lat="54.315548026934266" lon="13.096375018358231">
        <ele>-8.029999999999999</ele>
        <time>2024-09-16T06:57:35Z</time>
      </trkpt>
      <trkpt lat="54.31560100056231" lon="13.096323972567916">
        <ele>-8.51</ele>
        <time>2024-09-16T06:57:36Z</time>
      </trkpt>
      <trkpt lat="54.315785989165306" lon="13.096148036420345">
        <ele>-9.48</ele>
        <time>2024-09-16T06:57:40Z</time>
      </trkpt>
      <trkpt lat="54.315824965015054" lon="13.096109982579947">
        <ele>-9.48</ele>
        <time>2024-09-16T06:57:41Z</time>
      </trkpt>
      <trkpt lat="54.315876010805368" lon="13.095991965383291">
        <ele>-9</ele>
        <time>2024-09-16T06:57:42Z</time>
      </trkpt>
      <trkpt lat="54.31585899554193" lon="13.095933962613344">
        <ele>-9</ele>
        <time>2024-09-16T06:57:43Z</time>
      </trkpt>
      <trkpt lat="54.315838040784001" lon="13.095861040055752">
        <ele>-9</ele>
        <time>2024-09-16T06:57:44Z</time>
      </trkpt>
      <trkpt lat="54.31581599637866" lon="13.095786022022367">
        <ele>-9</ele>
        <time>2024-09-16T06:57:45Z</time>
      </trkpt>
      <trkpt lat="54.315797975286841" lon="13.095722990110517">
        <ele>-9</ele>
        <time>2024-09-16T06:57:46Z</time>
      </trkpt>
      <trkpt lat="54.315757993608713" lon="13.095587035641074">
        <ele>-9</ele>
        <time>2024-09-16T06:57:49Z</time>
      </trkpt>
      <trkpt lat="54.315798981115222" lon="13.095485027879477">
        <ele>-9.48</ele>
        <time>2024-09-16T06:57:50Z</time>
      </trkpt>
      <trkpt lat="54.315834017470479" lon="13.095456026494503">
        <ele>-9.48</ele>
        <time>2024-09-16T06:57:51Z</time>
      </trkpt>
      <trkpt lat="54.316069968044758" lon="13.095262991264462">
        <ele>-9</ele>
        <time>2024-09-16T06:57:59Z</time>
      </trkpt>
      <trkpt lat="54.316209023818374" lon="13.095147991552949">
        <ele>-8.029999999999999</ele>
        <time>2024-09-16T06:58:03Z</time>
      </trkpt>
      <trkpt lat="54.31626501493156" lon="13.095101974904537">
        <ele>-8.029999999999999</ele>
        <time>2024-09-16T06:58:04Z</time>
      </trkpt>
      <trkpt lat="54.316318994387984" lon="13.095057969912887">
        <ele>-7.55</ele>
        <time>2024-09-16T06:58:05Z</time>
      </trkpt>
      <trkpt lat="54.316414967179298" lon="13.094979012385011">
        <ele>-7.07</ele>
        <time>2024-09-16T06:58:07Z</time>
      </trkpt>
      <trkpt lat="54.316457966342568" lon="13.094943976029754">
        <ele>-6.59</ele>
        <time>2024-09-16T06:58:08Z</time>
      </trkpt>
      <trkpt lat="54.316544970497489" lon="13.094740966334939">
        <ele>-6.11</ele>
        <time>2024-09-16T06:58:09Z</time>
      </trkpt>
      <trkpt lat="54.31652401573956" lon="13.09467600658536">
        <ele>-5.63</ele>
        <time>2024-09-16T06:58:10Z</time>
      </trkpt>
      <trkpt lat="54.316498031839728" lon="13.094596965238452">
        <ele>-5.63</ele>
        <time>2024-09-16T06:58:11Z</time>
      </trkpt>
      <trkpt lat="54.316472969949245" lon="13.094519013538957">
        <ele>-5.63</ele>
        <time>2024-09-16T06:58:12Z</time>
      </trkpt>
      <trkpt lat="54.316451009362936" lon="13.094451036304235">
        <ele>-5.63</ele>
        <time>2024-09-16T06:58:13Z</time>
      </trkpt>
      <trkpt lat="54.316432988271117" lon="13.094394039362669">
        <ele>-5.63</ele>
        <time>2024-09-16T06:58:14Z</time>
      </trkpt>
      <trkpt lat="54.31641798466444" lon="13.094350034371018">
        <ele>-6.11</ele>
        <time>2024-09-16T06:58:15Z</time>
      </trkpt>
      <trkpt lat="54.316409016028047" lon="13.094320027157664">
        <ele>-6.11</ele>
        <time>2024-09-16T06:58:16Z</time>
      </trkpt>
      <trkpt lat="54.316398035734892" lon="13.094288008287549">
        <ele>-6.11</ele>
        <time>2024-09-16T06:58:17Z</time>
      </trkpt>
      <trkpt lat="54.316384959965944" lon="13.09424601495266">
        <ele>-6.11</ele>
        <time>2024-09-16T06:58:18Z</time>
      </trkpt>
      <trkpt lat="54.316370040178299" lon="13.094201004132628">
        <ele>-6.11</ele>
        <time>2024-09-16T06:58:19Z</time>
      </trkpt>
      <trkpt lat="54.316317988559604" lon="13.094143001362681">
        <ele>-6.59</ele>
        <time>2024-09-16T06:58:20Z</time>
      </trkpt>
      <trkpt lat="54.316292004659772" lon="13.094172002747655">
        <ele>-6.59</ele>
        <time>2024-09-16T06:58:21Z</time>
      </trkpt>
      <trkpt lat="54.316261997446418" lon="13.094205027446151">
        <ele>-7.07</ele>
        <time>2024-09-16T06:58:22Z</time>
      </trkpt>
      <trkpt lat="54.316221009939909" lon="13.094250960275531">
        <ele>-7.07</ele>
        <time>2024-09-16T06:58:23Z</time>
      </trkpt>
      <trkpt lat="54.316178010776639" lon="13.094298988580704">
        <ele>-7.55</ele>
        <time>2024-09-16T06:58:24Z</time>
      </trkpt>
      <trkpt lat="54.316062005236745" lon="13.094427986070514">
        <ele>-8.51</ele>
        <time>2024-09-16T06:58:27Z</time>
      </trkpt>
      <trkpt lat="54.315976006910205" lon="13.094523958861828">
        <ele>-8.51</ele>
        <time>2024-09-16T06:58:29Z</time>
      </trkpt>
      <trkpt lat="54.315890008583665" lon="13.094619009643793">
        <ele>-8.51</ele>
        <time>2024-09-16T06:58:31Z</time>
      </trkpt>
      <trkpt lat="54.315849021077156" lon="13.094666032120585">
        <ele>-8.51</ele>
        <time>2024-09-16T06:58:32Z</time>
      </trkpt>
      <trkpt lat="54.315807027742267" lon="13.094711964949965">
        <ele>-8.51</ele>
        <time>2024-09-16T06:58:33Z</time>
      </trkpt>
      <trkpt lat="54.315736033022404" lon="13.094791006296873">
        <ele>-8.51</ele>
        <time>2024-09-16T06:58:35Z</time>
      </trkpt>
      <trkpt lat="54.315698985010386" lon="13.094832999631763">
        <ele>-8.029999999999999</ele>
        <time>2024-09-16T06:58:36Z</time>
      </trkpt>
      <trkpt lat="54.315660009160638" lon="13.094874992966652">
        <ele>-8.029999999999999</ele>
        <time>2024-09-16T06:58:37Z</time>
      </trkpt>
      <trkpt lat="54.315552972257137" lon="13.094984041526914">
        <ele>-8.029999999999999</ele>
        <time>2024-09-16T06:58:40Z</time>
      </trkpt>
      <trkpt lat="54.315509973093867" lon="13.09501999989152">
        <ele>-8.029999999999999</ele>
        <time>2024-09-16T06:58:41Z</time>
      </trkpt>
      <trkpt lat="54.315509973093867" lon="13.09501999989152">
        <ele>-8.029999999999999</ele>
        <time>2024-09-16T06:58:42Z</time>
      </trkpt>
      <trkpt lat="54.315436966717243" lon="13.095081020146608">
        <ele>-8.029999999999999</ele>
        <time>2024-09-16T06:58:43Z</time>
      </trkpt>
      <trkpt lat="54.315403020009398" lon="13.095109015703201">
        <ele>-8.029999999999999</ele>
        <time>2024-09-16T06:58:44Z</time>
      </trkpt>
      <trkpt lat="54.315361026674509" lon="13.095143968239427">
        <ele>-8.029999999999999</ele>
        <time>2024-09-16T06:58:45Z</time>
      </trkpt>
      <trkpt lat="54.315316015854478" lon="13.095182022079825">
        <ele>-8.029999999999999</ele>
        <time>2024-09-16T06:58:46Z</time>
      </trkpt>
      <trkpt lat="54.315269999206066" lon="13.095219992101192">
        <ele>-8.029999999999999</ele>
        <time>2024-09-16T06:58:47Z</time>
      </trkpt>
      <trkpt lat="54.315223982557654" lon="13.09525796212256">
        <ele>-8.029999999999999</ele>
        <time>2024-09-16T06:58:48Z</time>
      </trkpt>
      <trkpt lat="54.315185006707907" lon="13.095290986821055">
        <ele>-8.029999999999999</ele>
        <time>2024-09-16T06:58:49Z</time>
      </trkpt>
      <trkpt lat="54.315153993666172" lon="13.095316970720887">
        <ele>-7.55</ele>
        <time>2024-09-16T06:58:50Z</time>
      </trkpt>
      <trkpt lat="54.315116023644805" lon="13.095347983762622">
        <ele>-7.55</ele>
        <time>2024-09-16T06:58:51Z</time>
      </trkpt>
      <trkpt lat="54.315075958147645" lon="13.095382014289498">
        <ele>-7.55</ele>
        <time>2024-09-16T06:58:52Z</time>
      </trkpt>
      <trkpt lat="54.315034970641136" lon="13.095415960997343">
        <ele>-8.029999999999999</ele>
        <time>2024-09-16T06:58:53Z</time>
      </trkpt>
      <trkpt lat="54.314839001744986" lon="13.09557898901403">
        <ele>-8.51</ele>
        <time>2024-09-16T06:58:58Z</time>
      </trkpt>
      <trkpt lat="54.314317982643843" lon="13.095786022022367">
        <ele>-8.029999999999999</ele>
        <time>2024-09-16T06:59:06Z</time>
      </trkpt>
      <trkpt lat="54.314188985154033" lon="13.095814017578959">
        <ele>-8.029999999999999</ele>
        <time>2024-09-16T06:59:08Z</time>
      </trkpt>
      <trkpt lat="54.314133999869227" lon="13.095827009528875">
        <ele>-8.029999999999999</ele>
        <time>2024-09-16T06:59:09Z</time>
      </trkpt>
      <trkpt lat="54.314084965735674" lon="13.09583798982203">
        <ele>-8.029999999999999</ele>
        <time>2024-09-16T06:59:10Z</time>
      </trkpt>
      <trkpt lat="54.314040038734674" lon="13.095847964286804">
        <ele>-7.55</ele>
        <time>2024-09-16T06:59:11Z</time>
      </trkpt>
      <trkpt lat="54.313999973237514" lon="13.095857016742229">
        <ele>-7.55</ele>
        <time>2024-09-16T06:59:12Z</time>
      </trkpt>
      <trkpt lat="54.31396602652967" lon="13.095863973721862">
        <ele>-8.029999999999999</ele>
        <time>2024-09-16T06:59:13Z</time>
      </trkpt>
      <trkpt lat="54.313914980739355" lon="13.095814017578959">
        <ele>-8.51</ele>
        <time>2024-09-16T06:59:14Z</time>
      </trkpt>
      <trkpt lat="54.313912969082594" lon="13.095752997323871">
        <ele>-8.51</ele>
        <time>2024-09-16T06:59:15Z</time>
      </trkpt>
      <trkpt lat="54.313910035416484" lon="13.095683008432388">
        <ele>-8.51</ele>
        <time>2024-09-16T06:59:16Z</time>
      </trkpt>
      <trkpt lat="54.313908023759723" lon="13.095627017319202">
        <ele>-8.51</ele>
        <time>2024-09-16T06:59:17Z</time>
      </trkpt>
      <trkpt lat="54.313908023759723" lon="13.095627017319202">
        <ele>-8.029999999999999</ele>
        <time>2024-09-16T06:59:28Z</time>
      </trkpt>
      <trkpt lat="54.313908023759723" lon="13.095627017319202">
        <ele>-8.029999999999999</ele>
        <time>2024-09-16T06:59:43Z</time>
      </trkpt>
      <trkpt lat="54.313964014872909" lon="13.095346977934241">
        <ele>3.98</ele>
        <time>2024-09-16T07:17:59Z</time>
      </trkpt>
      <trkpt lat="54.313920009881258" lon="13.095330968499184">
        <ele>11.67</ele>
        <time>2024-09-16T07:18:12Z</time>
      </trkpt>
      <trkpt lat="54.313852032646537" lon="13.095351001247764">
        <ele>14.56</ele>
        <time>2024-09-16T07:18:48Z</time>
      </trkpt>
      <trkpt lat="54.313921015709639" lon="13.095356030389667">
        <ele>20.32</ele>
        <time>2024-09-16T07:19:26Z</time>
      </trkpt>
      <trkpt lat="54.313927972689271" lon="13.095343038439751">
        <ele>20.809999999999999</ele>
        <time>2024-09-16T07:20:09Z</time>
      </trkpt>
      <trkpt lat="54.31392596103251" lon="13.0953439604491">
        <ele>20.32</ele>
        <time>2024-09-16T07:20:51Z</time>
      </trkpt>
      <trkpt lat="54.313925039023161" lon="13.095345972105861">
        <ele>19.84</ele>
        <time>2024-09-16T07:21:13Z</time>
      </trkpt>
      <trkpt lat="54.31392403319478" lon="13.095351001247764">
        <ele>19.359999999999999</ele>
        <time>2024-09-16T07:21:47Z</time>
      </trkpt>
      <trkpt lat="54.3139230273664" lon="13.095355024561286">
        <ele>18.879999999999999</ele>
        <time>2024-09-16T07:22:23Z</time>
      </trkpt>
      <trkpt lat="54.3139230273664" lon="13.095355024561286">
        <ele>18.879999999999999</ele>
        <time>2024-09-16T07:22:39Z</time>
      </trkpt>
      <trkpt lat="54.313916992396116" lon="13.095415960997343">
        <ele>18.399999999999999</ele>
        <time>2024-09-16T07:22:56Z</time>
      </trkpt>
      <trkpt lat="54.313913974910975" lon="13.095417972654104">
        <ele>17.920000000000002</ele>
        <time>2024-09-16T07:23:33Z</time>
      </trkpt>
      <trkpt lat="54.313853960484266" lon="13.095888029783964">
        <ele>9.27</ele>
        <time>2024-09-16T07:23:52Z</time>
      </trkpt>
      <trkpt lat="54.313821019604802" lon="13.095893980935216">
        <ele>8.789999999999999</ele>
        <time>2024-09-16T07:23:53Z</time>
      </trkpt>
      <trkpt lat="54.313781037926674" lon="13.095902027562261">
        <ele>8.310000000000001</ele>
        <time>2024-09-16T07:23:54Z</time>
      </trkpt>
      <trkpt lat="54.313738960772753" lon="13.095910996198654">
        <ele>7.83</ele>
        <time>2024-09-16T07:23:55Z</time>
      </trkpt>
      <trkpt lat="54.313692022114992" lon="13.095919964835048">
        <ele>6.87</ele>
        <time>2024-09-16T07:23:56Z</time>
      </trkpt>
      <trkpt lat="54.31347300298512" lon="13.095963969826698">
        <ele>2.54</ele>
        <time>2024-09-16T07:24:01Z</time>
      </trkpt>
      <trkpt lat="54.313391027972102" lon="13.096036976203322">
        <ele>1.58</ele>
        <time>2024-09-16T07:24:02Z</time>
      </trkpt>
      <trkpt lat="54.313401002436876" lon="13.096090033650398">
        <ele>0.62</ele>
        <time>2024-09-16T07:24:03Z</time>
      </trkpt>
      <trkpt lat="54.313411982730031" lon="13.096151975914836">
        <ele>0.14</ele>
        <time>2024-09-16T07:24:04Z</time>
      </trkpt>
      <trkpt lat="54.313423968851566" lon="13.096219031140208">
        <ele>-0.34</ele>
        <time>2024-09-16T07:24:05Z</time>
      </trkpt>
      <trkpt lat="54.313436960801482" lon="13.096289020031691">
        <ele>-0.82</ele>
        <time>2024-09-16T07:24:06Z</time>
      </trkpt>
      <trkpt lat="54.313449030742049" lon="13.096355991438031">
        <ele>-1.3</ele>
        <time>2024-09-16T07:24:07Z</time>
      </trkpt>
      <trkpt lat="54.313461016863585" lon="13.096422962844372">
        <ele>-2.27</ele>
        <time>2024-09-16T07:24:08Z</time>
      </trkpt>
      <trkpt lat="54.313586996868253" lon="13.097028974443674">
        <ele>-5.63</ele>
        <time>2024-09-16T07:24:18Z</time>
      </trkpt>
      <trkpt lat="54.313609963282943" lon="13.097129976376891">
        <ele>-5.63</ele>
        <time>2024-09-16T07:24:20Z</time>
      </trkpt>
      <trkpt lat="54.313623961061239" lon="13.09719099663198">
        <ele>-6.11</ele>
        <time>2024-09-16T07:24:21Z</time>
      </trkpt>
      <trkpt lat="54.313701996579766" lon="13.09772802516818">
        <ele>-7.55</ele>
        <time>2024-09-16T07:24:28Z</time>
      </trkpt>
      <trkpt lat="54.313676012679935" lon="13.097787033766508">
        <ele>-7.55</ele>
        <time>2024-09-16T07:24:29Z</time>
      </trkpt>
      <trkpt lat="54.313647011294961" lon="13.097852999344468">
        <ele>-7.55</ele>
        <time>2024-09-16T07:24:30Z</time>
      </trkpt>
      <trkpt lat="54.313588002696633" lon="13.0979860201478">
        <ele>-8.029999999999999</ele>
        <time>2024-09-16T07:24:32Z</time>
      </trkpt>
      <trkpt lat="54.313487000763416" lon="13.098363038152456">
        <ele>-9</ele>
        <time>2024-09-16T07:24:37Z</time>
      </trkpt>
      <trkpt lat="54.313470991328359" lon="13.098434032872319">
        <ele>-9</ele>
        <time>2024-09-16T07:24:38Z</time>
      </trkpt>
      <trkpt lat="54.313454981893301" lon="13.098505027592182">
        <ele>-9</ele>
        <time>2024-09-16T07:24:39Z</time>
      </trkpt>
      <trkpt lat="54.313439978286624" lon="13.098570993170142">
        <ele>-9</ele>
        <time>2024-09-16T07:24:40Z</time>
      </trkpt>
      <trkpt lat="54.313424974679947" lon="13.098640982061625">
        <ele>-8.51</ele>
        <time>2024-09-16T07:24:41Z</time>
      </trkpt>
      <trkpt lat="54.313399996608496" lon="13.098677024245262">
        <ele>-9</ele>
        <time>2024-09-16T07:24:42Z</time>
      </trkpt>
      <trkpt lat="54.313364960253239" lon="13.098725974559784">
        <ele>-8.51</ele>
        <time>2024-09-16T07:24:43Z</time>
      </trkpt>
      <trkpt lat="54.313317015767097" lon="13.098793029785156">
        <ele>-9</ele>
        <time>2024-09-16T07:24:44Z</time>
      </trkpt>
      <trkpt lat="54.313288014382124" lon="13.098817002028227">
        <ele>-9</ele>
        <time>2024-09-16T07:24:45Z</time>
      </trkpt>
      <trkpt lat="54.31323797442019" lon="13.098856983706355">
        <ele>-8.51</ele>
        <time>2024-09-16T07:24:46Z</time>
      </trkpt>
      <trkpt lat="54.313185000792146" lon="13.098898977041245">
        <ele>-8.51</ele>
        <time>2024-09-16T07:24:47Z</time>
      </trkpt>
      <trkpt lat="54.313133032992482" lon="13.098941976204515">
        <ele>-8.51</ele>
        <time>2024-09-16T07:24:48Z</time>
      </trkpt>
      <trkpt lat="54.313077041879296" lon="13.098985981196165">
        <ele>-9</ele>
        <time>2024-09-16T07:24:49Z</time>
      </trkpt>
      <trkpt lat="54.313021972775459" lon="13.099030992016196">
        <ele>-8.51</ele>
        <time>2024-09-16T07:24:50Z</time>
      </trkpt>
      <trkpt lat="54.312624000012875" lon="13.099373979493976">
        <ele>-9.48</ele>
        <time>2024-09-16T07:24:57Z</time>
      </trkpt>
      <trkpt lat="54.312577983364463" lon="13.099445980042219">
        <ele>-9.48</ele>
        <time>2024-09-16T07:24:58Z</time>
      </trkpt>
      <trkpt lat="54.312497014179826" lon="13.099574977532029">
        <ele>-10.44</ele>
        <time>2024-09-16T07:25:00Z</time>
      </trkpt>
      <trkpt lat="54.312382014468312" lon="13.099758960306644">
        <ele>-11.4</ele>
        <time>2024-09-16T07:25:03Z</time>
      </trkpt>
      <trkpt lat="54.312249999493361" lon="13.099971022456884">
        <ele>-12.359999999999999</ele>
        <time>2024-09-16T07:25:06Z</time>
      </trkpt>
      <trkpt lat="54.312214963138103" lon="13.100031036883593">
        <ele>-12.359999999999999</ele>
        <time>2024-09-16T07:25:07Z</time>
      </trkpt>
      <trkpt lat="54.312187973409891" lon="13.100075963884592">
        <ele>-12.84</ele>
        <time>2024-09-16T07:25:08Z</time>
      </trkpt>
      <trkpt lat="54.312055958434939" lon="13.100299006327987">
        <ele>-11.880000000000001</ele>
        <time>2024-09-16T07:25:14Z</time>
      </trkpt>
      <trkpt lat="54.311958979815245" lon="13.100463962182403">
        <ele>-12.359999999999999</ele>
        <time>2024-09-16T07:25:16Z</time>
      </trkpt>
      <trkpt lat="54.311845991760492" lon="13.100653979927301">
        <ele>-12.359999999999999</ele>
        <time>2024-09-16T07:25:19Z</time>
      </trkpt>
      <trkpt lat="54.311728980392218" lon="13.100852966308594">
        <ele>-11.880000000000001</ele>
        <time>2024-09-16T07:25:25Z</time>
      </trkpt>
      <trkpt lat="54.31175597012043" lon="13.10086595825851">
        <ele>-10.44</ele>
        <time>2024-09-16T07:25:26Z</time>
      </trkpt>
      <trkpt lat="54.311760999262333" lon="13.100868975743651">
        <ele>-9.48</ele>
        <time>2024-09-16T07:25:27Z</time>
      </trkpt>
      <trkpt lat="54.311771979555488" lon="13.100875010713935">
        <ele>-9</ele>
        <time>2024-09-16T07:25:28Z</time>
      </trkpt>
      <trkpt lat="54.311771979555488" lon="13.100875010713935">
        <ele>-9</ele>
        <time>2024-09-16T07:25:41Z</time>
      </trkpt>
      <trkpt lat="54.311771979555488" lon="13.100875010713935">
        <ele>-8.51</ele>
        <time>2024-09-16T07:26:28Z</time>
      </trkpt>
      <trkpt lat="54.311771979555488" lon="13.100875010713935">
        <ele>-8.029999999999999</ele>
        <time>2024-09-16T07:27:15Z</time>
      </trkpt>
      <trkpt lat="54.31173300370574" lon="13.100847015157342">
        <ele>-7.55</ele>
        <time>2024-09-16T07:27:16Z</time>
      </trkpt>
      <trkpt lat="54.311740966513753" lon="13.100832011550665">
        <ele>-7.55</ele>
        <time>2024-09-16T07:27:17Z</time>
      </trkpt>
      <trkpt lat="54.311787988990545" lon="13.100882973521948">
        <ele>-7.07</ele>
        <time>2024-09-16T07:27:18Z</time>
      </trkpt>
      <trkpt lat="54.311787988990545" lon="13.100882973521948">
        <ele>-6.59</ele>
        <time>2024-09-16T07:27:20Z</time>
      </trkpt>
      <trkpt lat="54.311728980392218" lon="13.100852966308594">
        <ele>-6.59</ele>
        <time>2024-09-16T07:27:21Z</time>
      </trkpt>
      <trkpt lat="54.311722023412585" lon="13.100862018764019">
        <ele>-6.59</ele>
        <time>2024-09-16T07:27:22Z</time>
      </trkpt>
      <trkpt lat="54.311696039512753" lon="13.100894959643483">
        <ele>-6.59</ele>
        <time>2024-09-16T07:27:23Z</time>
      </trkpt>
      <trkpt lat="54.311656979843974" lon="13.100942987948656">
        <ele>-6.59</ele>
        <time>2024-09-16T07:27:24Z</time>
      </trkpt>
      <trkpt lat="54.311535023152828" lon="13.101029992103577">
        <ele>-6.11</ele>
        <time>2024-09-16T07:27:26Z</time>
      </trkpt>
      <trkpt lat="54.310730025172234" lon="13.101544976234436">
        <ele>-7.55</ele>
        <time>2024-09-16T07:27:36Z</time>
      </trkpt>
      <trkpt lat="54.310215963050723" lon="13.101909002289176">
        <ele>-7.55</ele>
        <time>2024-09-16T07:27:42Z</time>
      </trkpt>
      <trkpt lat="54.31014396250248" lon="13.10200204141438">
        <ele>-7.07</ele>
        <time>2024-09-16T07:27:43Z</time>
      </trkpt>
      <trkpt lat="54.3100790027529" lon="13.102094996720552">
        <ele>-6.59</ele>
        <time>2024-09-16T07:27:44Z</time>
      </trkpt>
      <trkpt lat="54.310013959184289" lon="13.102208990603685">
        <ele>-6.59</ele>
        <time>2024-09-16T07:27:45Z</time>
      </trkpt>
      <trkpt lat="54.30997003801167" lon="13.102312004193664">
        <ele>-6.11</ele>
        <time>2024-09-16T07:27:46Z</time>
      </trkpt>
      <trkpt lat="54.309889990836382" lon="13.102423986420035">
        <ele>-6.11</ele>
        <time>2024-09-16T07:27:47Z</time>
      </trkpt>
      <trkpt lat="54.309815978631377" lon="13.102525994181633">
        <ele>-5.63</ele>
        <time>2024-09-16T07:27:48Z</time>
      </trkpt>
      <trkpt lat="54.309741966426373" lon="13.102620039135218">
        <ele>-5.63</ele>
        <time>2024-09-16T07:27:49Z</time>
      </trkpt>
      <trkpt lat="54.308860022574663" lon="13.103179028257728">
        <ele>-4.19</ele>
        <time>2024-09-16T07:27:59Z</time>
      </trkpt>
      <trkpt lat="54.308704035356641" lon="13.103340966627002">
        <ele>-4.19</ele>
        <time>2024-09-16T07:28:01Z</time>
      </trkpt>
      <trkpt lat="54.307776996865869" lon="13.104121992364526">
        <ele>-2.75</ele>
        <time>2024-09-16T07:28:11Z</time>
      </trkpt>
      <trkpt lat="54.307321021333337" lon="13.104461040347815">
        <ele>-3.23</ele>
        <time>2024-09-16T07:28:16Z</time>
      </trkpt>
      <trkpt lat="54.307232005521655" lon="13.104527005925775">
        <ele>-3.71</ele>
        <time>2024-09-16T07:28:17Z</time>
      </trkpt>
      <trkpt lat="54.307146007195115" lon="13.104590959846973">
        <ele>-3.71</ele>
        <time>2024-09-16T07:28:18Z</time>
      </trkpt>
      <trkpt lat="54.307047016918659" lon="13.104639993980527">
        <ele>-3.71</ele>
        <time>2024-09-16T07:28:19Z</time>
      </trkpt>
      <trkpt lat="54.306952971965075" lon="13.104661032557487">
        <ele>-3.71</ele>
        <time>2024-09-16T07:28:20Z</time>
      </trkpt>
      <trkpt lat="54.306868985295296" lon="13.104708977043629">
        <ele>-3.71</ele>
        <time>2024-09-16T07:28:21Z</time>
      </trkpt>
      <trkpt lat="54.30679002776742" lon="13.10479799285531">
        <ele>-3.23</ele>
        <time>2024-09-16T07:28:22Z</time>
      </trkpt>
      <trkpt lat="54.306712998077273" lon="13.104886002838612">
        <ele>-3.23</ele>
        <time>2024-09-16T07:28:23Z</time>
      </trkpt>
      <trkpt lat="54.30664099752903" lon="13.104966972023249">
        <ele>-2.75</ele>
        <time>2024-09-16T07:28:24Z</time>
      </trkpt>
      <trkpt lat="54.30657503195107" lon="13.105041990056634">
        <ele>-2.75</ele>
        <time>2024-09-16T07:28:25Z</time>
      </trkpt>
      <trkpt lat="54.306516023352742" lon="13.105108961462975">
        <ele>-2.27</ele>
        <time>2024-09-16T07:28:26Z</time>
      </trkpt>
      <trkpt lat="54.305990980938077" lon="13.105637021362782">
        <ele>-0.82</ele>
        <time>2024-09-16T07:28:36Z</time>
      </trkpt>
      <trkpt lat="54.305727034807205" lon="13.105812035501003">
        <ele>-1.79</ele>
        <time>2024-09-16T07:28:44Z</time>
      </trkpt>
      <trkpt lat="54.305727034807205" lon="13.105812035501003">
        <ele>-1.79</ele>
        <time>2024-09-16T07:28:58Z</time>
      </trkpt>
      <trkpt lat="54.305570963770151" lon="13.105896022170782">
        <ele>-0.82</ele>
        <time>2024-09-16T07:29:21Z</time>
      </trkpt>
      <trkpt lat="54.305526958778501" lon="13.105930974707007">
        <ele>-0.34</ele>
        <time>2024-09-16T07:29:22Z</time>
      </trkpt>
      <trkpt lat="54.305463004857302" lon="13.105982020497322">
        <ele>-0.34</ele>
        <time>2024-09-16T07:29:23Z</time>
      </trkpt>
      <trkpt lat="54.305370971560478" lon="13.106012027710676">
        <ele>-0.34</ele>
        <time>2024-09-16T07:29:24Z</time>
      </trkpt>
      <trkpt lat="54.305286984890699" lon="13.106040023267269">
        <ele>-0.82</ele>
        <time>2024-09-16T07:29:25Z</time>
      </trkpt>
      <trkpt lat="54.305206015706062" lon="13.106067012995481">
        <ele>-0.82</ele>
        <time>2024-09-16T07:29:26Z</time>
      </trkpt>
      <trkpt lat="54.305109037086368" lon="13.106030970811844">
        <ele>-0.82</ele>
        <time>2024-09-16T07:29:27Z</time>
      </trkpt>
      <trkpt lat="54.305034019052982" lon="13.106002975255251">
        <ele>-1.3</ele>
        <time>2024-09-16T07:29:28Z</time>
      </trkpt>
      <trkpt lat="54.304924970492721" lon="13.105942038819194">
        <ele>-1.3</ele>
        <time>2024-09-16T07:29:29Z</time>
      </trkpt>
      <trkpt lat="54.304817011579871" lon="13.10589300468564">
        <ele>-1.79</ele>
        <time>2024-09-16T07:29:30Z</time>
      </trkpt>
      <trkpt lat="54.304716009646654" lon="13.105883030220866">
        <ele>-1.79</ele>
        <time>2024-09-16T07:29:31Z</time>
      </trkpt>
      <trkpt lat="54.304603021591902" lon="13.105885041877627">
        <ele>-2.27</ele>
        <time>2024-09-16T07:29:32Z</time>
      </trkpt>
      <trkpt lat="54.304502019658685" lon="13.105930974707007">
        <ele>-2.27</ele>
        <time>2024-09-16T07:29:33Z</time>
      </trkpt>
      <trkpt lat="54.304401017725468" lon="13.1059779971838">
        <ele>-2.27</ele>
        <time>2024-09-16T07:29:34Z</time>
      </trkpt>
      <trkpt lat="54.304310996085405" lon="13.106018984690309">
        <ele>-3.23</ele>
        <time>2024-09-16T07:29:35Z</time>
      </trkpt>
      <trkpt lat="54.304233966395259" lon="13.106054021045566">
        <ele>-5.15</ele>
        <time>2024-09-16T07:29:36Z</time>
      </trkpt>
      <trkpt lat="54.303954010829329" lon="13.106183018535376">
        <ele>-12.84</ele>
        <time>2024-09-16T07:29:40Z</time>
      </trkpt>
      <trkpt lat="54.303893996402621" lon="13.106210008263588">
        <ele>-14.279999999999999</ele>
        <time>2024-09-16T07:29:41Z</time>
      </trkpt>
      <trkpt lat="54.303778996691108" lon="13.106185030192137">
        <ele>-15.720000000000001</ele>
        <time>2024-09-16T07:29:42Z</time>
      </trkpt>
      <trkpt lat="54.303705990314484" lon="13.106105988845229">
        <ele>-17.170000000000002</ele>
        <time>2024-09-16T07:29:43Z</time>
      </trkpt>
      <trkpt lat="54.303626026958227" lon="13.106016973033547">
        <ele>-18.609999999999999</ele>
        <time>2024-09-16T07:29:44Z</time>
      </trkpt>
      <trkpt lat="54.302811976522207" lon="13.105147015303373">
        <ele>-18.129999999999999</ele>
        <time>2024-09-16T07:29:53Z</time>
      </trkpt>
      <trkpt lat="54.302216023206711" lon="13.10453999787569">
        <ele>-14.76</ele>
        <time>2024-09-16T07:29:59Z</time>
      </trkpt>
      <trkpt lat="54.301011962816119" lon="13.103590998798609">
        <ele>-10.44</ele>
        <time>2024-09-16T07:30:10Z</time>
      </trkpt>
      <trkpt lat="54.298881031572819" lon="13.102143025025725">
        <ele>-4.67</ele>
        <time>2024-09-16T07:30:27Z</time>
      </trkpt>
      <trkpt lat="54.297159975394607" lon="13.101328974589705">
        <ele>-1.3</ele>
        <time>2024-09-16T07:30:40Z</time>
      </trkpt>
      <trkpt lat="54.295701021328568" lon="13.100514002144337">
        <ele>1.58</ele>
        <time>2024-09-16T07:30:52Z</time>
      </trkpt>
      <trkpt lat="54.294622018933296" lon="13.099371967837214">
        <ele>4.94</ele>
        <time>2024-09-16T07:31:01Z</time>
      </trkpt>
      <trkpt lat="54.293703027069569" lon="13.097816035151482">
        <ele>7.35</ele>
        <time>2024-09-16T07:31:11Z</time>
      </trkpt>
      <trkpt lat="54.293012022972107" lon="13.095819968730211">
        <ele>7.35</ele>
        <time>2024-09-16T07:31:21Z</time>
      </trkpt>
      <trkpt lat="54.292152961716056" lon="13.094125986099243">
        <ele>9.75</ele>
        <time>2024-09-16T07:31:31Z</time>
      </trkpt>
      <trkpt lat="54.292076015844941" lon="13.094069994986057">
        <ele>9.75</ele>
        <time>2024-09-16T07:31:32Z</time>
      </trkpt>
      <trkpt lat="54.291992029175162" lon="13.094065971672535">
        <ele>10.710000000000001</ele>
        <time>2024-09-16T07:31:33Z</time>
      </trkpt>
      <trkpt lat="54.291909970343113" lon="13.094061026349664">
        <ele>11.67</ele>
        <time>2024-09-16T07:31:34Z</time>
      </trkpt>
      <trkpt lat="54.291831012815237" lon="13.094057003036141">
        <ele>11.67</ele>
        <time>2024-09-16T07:31:35Z</time>
      </trkpt>
      <trkpt lat="54.291755994781852" lon="13.094051973894238">
        <ele>12.15</ele>
        <time>2024-09-16T07:31:36Z</time>
      </trkpt>
      <trkpt lat="54.291704026982188" lon="13.09398801997304">
        <ele>12.630000000000001</ele>
        <time>2024-09-16T07:31:37Z</time>
      </trkpt>
      <trkpt lat="54.291675025597215" lon="13.093921970576048">
        <ele>12.630000000000001</ele>
        <time>2024-09-16T07:31:38Z</time>
      </trkpt>
      <trkpt lat="54.291653987020254" lon="13.093873020261526">
        <ele>13.119999999999999</ele>
        <time>2024-09-16T07:31:39Z</time>
      </trkpt>
      <trkpt lat="54.291639989241958" lon="13.09383999556303">
        <ele>13.6</ele>
        <time>2024-09-16T07:31:40Z</time>
      </trkpt>
      <trkpt lat="54.291602019220591" lon="13.093578983098269">
        <ele>15.52</ele>
        <time>2024-09-16T07:31:48Z</time>
      </trkpt>
      <trkpt lat="54.291583998128772" lon="13.093551993370056">
        <ele>16</ele>
        <time>2024-09-16T07:31:49Z</time>
      </trkpt>
      <trkpt lat="54.291473021730781" lon="13.093643020838499">
        <ele>16.48</ele>
        <time>2024-09-16T07:31:50Z</time>
      </trkpt>
      <trkpt lat="54.291473021730781" lon="13.093643020838499">
        <ele>16.48</ele>
        <time>2024-09-16T07:31:51Z</time>
      </trkpt>
      <trkpt lat="54.291398003697395" lon="13.093692976981401">
        <ele>16.48</ele>
        <time>2024-09-16T07:31:52Z</time>
      </trkpt>
      <trkpt lat="54.291313011199236" lon="13.093749973922968">
        <ele>16</ele>
        <time>2024-09-16T07:31:53Z</time>
      </trkpt>
      <trkpt lat="54.291220977902412" lon="13.093812000006437">
        <ele>16</ele>
        <time>2024-09-16T07:31:54Z</time>
      </trkpt>
      <trkpt lat="54.291120981797576" lon="13.093877965584397">
        <ele>16</ele>
        <time>2024-09-16T07:31:55Z</time>
      </trkpt>
      <trkpt lat="54.29102199152112" lon="13.093944014981389">
        <ele>15.52</ele>
        <time>2024-09-16T07:31:56Z</time>
      </trkpt>
      <trkpt lat="54.290914032608271" lon="13.094019033014774">
        <ele>15.52</ele>
        <time>2024-09-16T07:31:57Z</time>
      </trkpt>
      <trkpt lat="54.290457973256707" lon="13.094328995794058">
        <ele>16</ele>
        <time>2024-09-16T07:32:01Z</time>
      </trkpt>
      <trkpt lat="54.29033299908042" lon="13.094402002170682">
        <ele>16.48</ele>
        <time>2024-09-16T07:32:02Z</time>
      </trkpt>
      <trkpt lat="54.28887396119535" lon="13.095361981540918">
        <ele>15.52</ele>
        <time>2024-09-16T07:32:14Z</time>
      </trkpt>
      <trkpt lat="54.287251979112625" lon="13.096462022513151">
        <ele>12.630000000000001</ele>
        <time>2024-09-16T07:32:28Z</time>
      </trkpt>
      <trkpt lat="54.286802038550377" lon="13.096758993342519">
        <ele>11.67</ele>
        <time>2024-09-16T07:32:32Z</time>
      </trkpt>
      <trkpt lat="54.285234035924077" lon="13.09779399074614">
        <ele>9.75</ele>
        <time>2024-09-16T07:32:46Z</time>
      </trkpt>
      <trkpt lat="54.284581001847982" lon="13.098252983763814">
        <ele>7.83</ele>
        <time>2024-09-16T07:32:52Z</time>
      </trkpt>
      <trkpt lat="54.283598978072405" lon="13.099050018936396">
        <ele>6.39</ele>
        <time>2024-09-16T07:33:01Z</time>
      </trkpt>
      <trkpt lat="54.282982992008328" lon="13.099664999172091">
        <ele>5.42</ele>
        <time>2024-09-16T07:33:07Z</time>
      </trkpt>
      <trkpt lat="54.282564986497164" lon="13.100084010511637">
        <ele>4.46</ele>
        <time>2024-09-16T07:33:11Z</time>
      </trkpt>
      <trkpt lat="54.281728975474834" lon="13.100920021533966">
        <ele>5.42</ele>
        <time>2024-09-16T07:33:19Z</time>
      </trkpt>
      <trkpt lat="54.281628979369998" lon="13.101020017638803">
        <ele>5.42</ele>
        <time>2024-09-16T07:33:20Z</time>
      </trkpt>
      <trkpt lat="54.281527977436781" lon="13.10112101957202">
        <ele>5.91</ele>
        <time>2024-09-16T07:33:21Z</time>
      </trkpt>
      <trkpt lat="54.280513012781739" lon="13.102188035845757">
        <ele>8.789999999999999</ele>
        <time>2024-09-16T07:33:31Z</time>
      </trkpt>
      <trkpt lat="54.279472986236215" lon="13.103613965213299">
        <ele>11.19</ele>
        <time>2024-09-16T07:33:42Z</time>
      </trkpt>
      <trkpt lat="54.279283974319696" lon="13.103866009041667">
        <ele>12.15</ele>
        <time>2024-09-16T07:33:44Z</time>
      </trkpt>
      <trkpt lat="54.279190013185143" lon="13.103991989046335">
        <ele>12.630000000000001</ele>
        <time>2024-09-16T07:33:45Z</time>
      </trkpt>
      <trkpt lat="54.278130959719419" lon="13.105430994182825">
        <ele>15.52</ele>
        <time>2024-09-16T07:33:57Z</time>
      </trkpt>
      <trkpt lat="54.278076980262995" lon="13.105502994731069">
        <ele>16</ele>
        <time>2024-09-16T07:33:58Z</time>
      </trkpt>
      <trkpt lat="54.27802300080657" lon="13.105574995279312">
        <ele>16</ele>
        <time>2024-09-16T07:33:59Z</time>
      </trkpt>
      <trkpt lat="54.27791696973145" lon="13.10572000220418">
        <ele>16.960000000000001</ele>
        <time>2024-09-16T07:34:01Z</time>
      </trkpt>
      <trkpt lat="54.27774396724999" lon="13.105953019112349">
        <ele>17.440000000000001</ele>
        <time>2024-09-16T07:34:04Z</time>
      </trkpt>
      <trkpt lat="54.277319004759192" lon="13.10651502572">
        <ele>17.440000000000001</ele>
        <time>2024-09-16T07:34:11Z</time>
      </trkpt>
      <trkpt lat="54.277258990332484" lon="13.106593983247876">
        <ele>17.440000000000001</ele>
        <time>2024-09-16T07:34:12Z</time>
      </trkpt>
      <trkpt lat="54.277198975905776" lon="13.106675958260894">
        <ele>17.440000000000001</ele>
        <time>2024-09-16T07:34:13Z</time>
      </trkpt>
      <trkpt lat="54.277140973135829" lon="13.106753993779421">
        <ele>17.440000000000001</ele>
        <time>2024-09-16T07:34:14Z</time>
      </trkpt>
      <trkpt lat="54.277084982022643" lon="13.106831023469567">
        <ele>16.960000000000001</ele>
        <time>2024-09-16T07:34:15Z</time>
      </trkpt>
      <trkpt lat="54.277024967595935" lon="13.106910986825824">
        <ele>16.960000000000001</ele>
        <time>2024-09-16T07:34:16Z</time>
      </trkpt>
      <trkpt lat="54.276963025331497" lon="13.106994973495603">
        <ele>16.48</ele>
        <time>2024-09-16T07:34:17Z</time>
      </trkpt>
      <trkpt lat="54.276895970106125" lon="13.107078038156033">
        <ele>16.48</ele>
        <time>2024-09-16T07:34:18Z</time>
      </trkpt>
      <trkpt lat="54.276831010356545" lon="13.107156995683908">
        <ele>16.48</ele>
        <time>2024-09-16T07:34:19Z</time>
      </trkpt>
      <trkpt lat="54.276708969846368" lon="13.107306025922298">
        <ele>16.48</ele>
        <time>2024-09-16T07:34:21Z</time>
      </trkpt>
      <trkpt lat="54.276653984561563" lon="13.107371991500258">
        <ele>16</ele>
        <time>2024-09-16T07:34:22Z</time>
      </trkpt>
      <trkpt lat="54.276594975963235" lon="13.107442986220121">
        <ele>16</ele>
        <time>2024-09-16T07:34:23Z</time>
      </trkpt>
      <trkpt lat="54.276534961536527" lon="13.107515992596745">
        <ele>16</ele>
        <time>2024-09-16T07:34:24Z</time>
      </trkpt>
      <trkpt lat="54.276471007615328" lon="13.107593022286892">
        <ele>16.48</ele>
        <time>2024-09-16T07:34:25Z</time>
      </trkpt>
      <trkpt lat="54.276417028158903" lon="13.107658987864852">
        <ele>16.48</ele>
        <time>2024-09-16T07:34:26Z</time>
      </trkpt>
      <trkpt lat="54.27636899985373" lon="13.107716990634799">
        <ele>16.48</ele>
        <time>2024-09-16T07:34:27Z</time>
      </trkpt>
      <trkpt lat="54.276320971548557" lon="13.107757978141308">
        <ele>16.48</ele>
        <time>2024-09-16T07:34:28Z</time>
      </trkpt>
      <trkpt lat="54.275975972414017" lon="13.108048997819424">
        <ele>16.960000000000001</ele>
        <time>2024-09-16T07:34:35Z</time>
      </trkpt>
      <trkpt lat="54.275975972414017" lon="13.108048997819424">
        <ele>16.960000000000001</ele>
        <time>2024-09-16T07:34:36Z</time>
      </trkpt>
      <trkpt lat="54.274964025244117" lon="13.108660960569978">
        <ele>16.960000000000001</ele>
        <time>2024-09-16T07:34:55Z</time>
      </trkpt>
      <trkpt lat="54.274305962026119" lon="13.109015012159944">
        <ele>16.960000000000001</ele>
        <time>2024-09-16T07:34:58Z</time>
      </trkpt>
      <trkpt lat="54.274228010326624" lon="13.109054993838072">
        <ele>17.440000000000001</ele>
        <time>2024-09-16T07:34:59Z</time>
      </trkpt>
      <trkpt lat="54.273250009864569" lon="13.109495965763927">
        <ele>17.440000000000001</ele>
        <time>2024-09-16T07:35:09Z</time>
      </trkpt>
      <trkpt lat="54.271977972239256" lon="13.110041040927172">
        <ele>16</ele>
        <time>2024-09-16T07:35:21Z</time>
      </trkpt>
      <trkpt lat="54.271111031994224" lon="13.110573962330818">
        <ele>16.48</ele>
        <time>2024-09-16T07:35:32Z</time>
      </trkpt>
      <trkpt lat="54.270926965400577" lon="13.110685022547841">
        <ele>17.440000000000001</ele>
        <time>2024-09-16T07:35:34Z</time>
      </trkpt>
      <trkpt lat="54.27082403562963" lon="13.110747970640659">
        <ele>17.440000000000001</ele>
        <time>2024-09-16T07:35:35Z</time>
      </trkpt>
      <trkpt lat="54.269487038254738" lon="13.11156403273344">
        <ele>19.359999999999999</ele>
        <time>2024-09-16T07:35:46Z</time>
      </trkpt>
      <trkpt lat="54.26768995821476" lon="13.11268100515008">
        <ele>18.399999999999999</ele>
        <time>2024-09-16T07:36:00Z</time>
      </trkpt>
      <trkpt lat="54.266009973362088" lon="13.113706028088927">
        <ele>16.48</ele>
        <time>2024-09-16T07:36:12Z</time>
      </trkpt>
      <trkpt lat="54.263889016583562" lon="13.11497999355197">
        <ele>16</ele>
        <time>2024-09-16T07:36:24Z</time>
      </trkpt>
      <trkpt lat="54.26137201488018" lon="13.116512037813663">
        <ele>15.039999999999999</ele>
        <time>2024-09-16T07:36:37Z</time>
      </trkpt>
      <trkpt lat="54.258964983746409" lon="13.117978032678366">
        <ele>13.6</ele>
        <time>2024-09-16T07:36:49Z</time>
      </trkpt>
      <trkpt lat="54.2573750205338" lon="13.11895502731204">
        <ele>13.6</ele>
        <time>2024-09-16T07:36:58Z</time>
      </trkpt>
      <trkpt lat="54.255853034555912" lon="13.120036041364074">
        <ele>11.67</ele>
        <time>2024-09-16T07:37:07Z</time>
      </trkpt>
      <trkpt lat="54.254773026332259" lon="13.121148990467191">
        <ele>10.710000000000001</ele>
        <time>2024-09-16T07:37:14Z</time>
      </trkpt>
      <trkpt lat="54.254313027486205" lon="13.121557021513581">
        <ele>10.710000000000001</ele>
        <time>2024-09-16T07:37:17Z</time>
      </trkpt>
      <trkpt lat="54.254162991419435" lon="13.121648970991373">
        <ele>10.710000000000001</ele>
        <time>2024-09-16T07:37:18Z</time>
      </trkpt>
      <trkpt lat="54.254014967009425" lon="13.121729018166661">
        <ele>11.19</ele>
        <time>2024-09-16T07:37:19Z</time>
      </trkpt>
      <trkpt lat="54.253865014761686" lon="13.12170404009521">
        <ele>11.67</ele>
        <time>2024-09-16T07:37:20Z</time>
      </trkpt>
      <trkpt lat="54.253713972866535" lon="13.121678978204727">
        <ele>12.15</ele>
        <time>2024-09-16T07:37:21Z</time>
      </trkpt>
      <trkpt lat="54.253570977598429" lon="13.121600020676851">
        <ele>13.6</ele>
        <time>2024-09-16T07:37:22Z</time>
      </trkpt>
      <trkpt lat="54.25344499759376" lon="13.121483009308577">
        <ele>14.56</ele>
        <time>2024-09-16T07:37:23Z</time>
      </trkpt>
      <trkpt lat="54.253324968740344" lon="13.121349988505244">
        <ele>16</ele>
        <time>2024-09-16T07:37:24Z</time>
      </trkpt>
      <trkpt lat="54.253238970413804" lon="13.121170029044151">
        <ele>16.960000000000001</ele>
        <time>2024-09-16T07:37:25Z</time>
      </trkpt>
      <trkpt lat="54.253153977915645" lon="13.120991997420788">
        <ele>18.399999999999999</ele>
        <time>2024-09-16T07:37:26Z</time>
      </trkpt>
      <trkpt lat="54.253089018166065" lon="13.120789993554354">
        <ele>19.84</ele>
        <time>2024-09-16T07:37:27Z</time>
      </trkpt>
      <trkpt lat="54.253041995689273" lon="13.120563011616468">
        <ele>20.809999999999999</ele>
        <time>2024-09-16T07:37:28Z</time>
      </trkpt>
      <trkpt lat="54.253041995689273" lon="13.120347009971738">
        <ele>22.25</ele>
        <time>2024-09-16T07:37:29Z</time>
      </trkpt>
      <trkpt lat="54.253041995689273" lon="13.120121033862233">
        <ele>23.210000000000001</ele>
        <time>2024-09-16T07:37:30Z</time>
      </trkpt>
      <trkpt lat="54.253049958497286" lon="13.119872007519007">
        <ele>24.649999999999999</ele>
        <time>2024-09-16T07:37:31Z</time>
      </trkpt>
      <trkpt lat="54.253087006509304" lon="13.119613006711006">
        <ele>25.609999999999999</ele>
        <time>2024-09-16T07:37:32Z</time>
      </trkpt>
      <trkpt lat="54.253539964556694" lon="13.117078989744186">
        <ele>28.5</ele>
        <time>2024-09-16T07:37:40Z</time>
      </trkpt>
      <trkpt lat="54.254393996670842" lon="13.112569022923708">
        <ele>23.210000000000001</ele>
        <time>2024-09-16T07:37:52Z</time>
      </trkpt>
      <trkpt lat="54.255429999902844" lon="13.108171038329601">
        <ele>17.920000000000002</ele>
        <time>2024-09-16T07:38:04Z</time>
      </trkpt>
      <trkpt lat="54.256893983110785" lon="13.103756038472056">
        <ele>19.84</ele>
        <time>2024-09-16T07:38:17Z</time>
      </trkpt>
      <trkpt lat="54.258566005155444" lon="13.09992098249495">
        <ele>22.25</ele>
        <time>2024-09-16T07:38:29Z</time>
      </trkpt>
      <trkpt lat="54.2607700265944" lon="13.096157005056739">
        <ele>20.32</ele>
        <time>2024-09-16T07:38:42Z</time>
      </trkpt>
      <trkpt lat="54.263532031327486" lon="13.092241985723376">
        <ele>17.440000000000001</ele>
        <time>2024-09-16T07:38:56Z</time>
      </trkpt>
      <trkpt lat="54.265230037271976" lon="13.089079996570945">
        <ele>21.77</ele>
        <time>2024-09-16T07:39:06Z</time>
      </trkpt>
      <trkpt lat="54.267167011275887" lon="13.085176963359118">
        <ele>27.050000000000001</ele>
        <time>2024-09-16T07:39:18Z</time>
      </trkpt>
      <trkpt lat="54.268975993618369" lon="13.082805974408984">
        <ele>27.050000000000001</ele>
        <time>2024-09-16T07:39:27Z</time>
      </trkpt>
      <trkpt lat="54.270772989839315" lon="13.081267978996038">
        <ele>24.649999999999999</ele>
        <time>2024-09-16T07:39:35Z</time>
      </trkpt>
      <trkpt lat="54.272540984675288" lon="13.080359967425466">
        <ele>22.25</ele>
        <time>2024-09-16T07:39:43Z</time>
      </trkpt>
      <trkpt lat="54.275150019675493" lon="13.079599980264902">
        <ele>20.32</ele>
        <time>2024-09-16T07:39:55Z</time>
      </trkpt>
      <trkpt lat="54.277406008914113" lon="13.078515026718378">
        <ele>21.77</ele>
        <time>2024-09-16T07:40:05Z</time>
      </trkpt>
      <trkpt lat="54.279643977060914" lon="13.076628008857369">
        <ele>23.690000000000001</ele>
        <time>2024-09-16T07:40:16Z</time>
      </trkpt>
      <trkpt lat="54.281946988776326" lon="13.074706960469484">
        <ele>28.5</ele>
        <time>2024-09-16T07:40:28Z</time>
      </trkpt>
      <trkpt lat="54.284050008282065" lon="13.073824010789394">
        <ele>30.899999999999999</ele>
        <time>2024-09-16T07:40:38Z</time>
      </trkpt>
      <trkpt lat="54.285835018381476" lon="13.073762990534306">
        <ele>27.530000000000001</ele>
        <time>2024-09-16T07:40:46Z</time>
      </trkpt>
      <trkpt lat="54.287919010967016" lon="13.074521971866488">
        <ele>23.210000000000001</ele>
        <time>2024-09-16T07:40:56Z</time>
      </trkpt>
      <trkpt lat="54.289588015526533" lon="13.075798032805324">
        <ele>21.289999999999999</ele>
        <time>2024-09-16T07:41:04Z</time>
      </trkpt>
      <trkpt lat="54.292241977527738" lon="13.07864704169333">
        <ele>18.879999999999999</ele>
        <time>2024-09-16T07:41:18Z</time>
      </trkpt>
      <trkpt lat="54.293538993224502" lon="13.080040030181408">
        <ele>16.48</ele>
        <time>2024-09-16T07:41:27Z</time>
      </trkpt>
      <trkpt lat="54.293658016249537" lon="13.080169027671218">
        <ele>16.48</ele>
        <time>2024-09-16T07:41:28Z</time>
      </trkpt>
      <trkpt lat="54.293697997927666" lon="13.080429034307599">
        <ele>16</ele>
        <time>2024-09-16T07:41:29Z</time>
      </trkpt>
      <trkpt lat="54.2937480378896" lon="13.080618968233466">
        <ele>15.52</ele>
        <time>2024-09-16T07:41:30Z</time>
      </trkpt>
      <trkpt lat="54.2937480378896" lon="13.080810997635126">
        <ele>15.039999999999999</ele>
        <time>2024-09-16T07:41:31Z</time>
      </trkpt>
      <trkpt lat="54.2937480378896" lon="13.08101199567318">
        <ele>14.56</ele>
        <time>2024-09-16T07:41:32Z</time>
      </trkpt>
      <trkpt lat="54.2937480378896" lon="13.081213999539614">
        <ele>14.08</ele>
        <time>2024-09-16T07:41:33Z</time>
      </trkpt>
      <trkpt lat="54.2937480378896" lon="13.081414997577667">
        <ele>13.6</ele>
        <time>2024-09-16T07:41:34Z</time>
      </trkpt>
      <trkpt lat="54.2937480378896" lon="13.081619013100863">
        <ele>13.6</ele>
        <time>2024-09-16T07:41:35Z</time>
      </trkpt>
      <trkpt lat="54.293781984597445" lon="13.081810036674142">
        <ele>13.119999999999999</ele>
        <time>2024-09-16T07:41:36Z</time>
      </trkpt>
      <trkpt lat="54.293826995417476" lon="13.081997036933899">
        <ele>12.630000000000001</ele>
        <time>2024-09-16T07:41:37Z</time>
      </trkpt>
      <trkpt lat="54.293908970430493" lon="13.082141038030386">
        <ele>12.15</ele>
        <time>2024-09-16T07:41:38Z</time>
      </trkpt>
      <trkpt lat="54.293991029262543" lon="13.082285039126873">
        <ele>11.67</ele>
        <time>2024-09-16T07:41:39Z</time>
      </trkpt>
      <trkpt lat="54.294070992618799" lon="13.082427028566599">
        <ele>11.19</ele>
        <time>2024-09-16T07:41:40Z</time>
      </trkpt>
      <trkpt lat="54.294275008141994" lon="13.082786025479436">
        <ele>9.75</ele>
        <time>2024-09-16T07:41:43Z</time>
      </trkpt>
      <trkpt lat="54.2943299934268" lon="13.08288199827075">
        <ele>9.27</ele>
        <time>2024-09-16T07:41:44Z</time>
      </trkpt>
      <trkpt lat="54.294367963448167" lon="13.083154996857047">
        <ele>8.789999999999999</ele>
        <time>2024-09-16T07:41:46Z</time>
      </trkpt>
      <trkpt lat="54.294427977874875" lon="13.083183998242021">
        <ele>8.789999999999999</ele>
        <time>2024-09-16T07:41:47Z</time>
      </trkpt>
      <trkpt lat="54.294477012008429" lon="13.083172012120485">
        <ele>8.310000000000001</ele>
        <time>2024-09-16T07:41:48Z</time>
      </trkpt>
      <trkpt lat="54.29450299590826" lon="13.083087019622326">
        <ele>8.310000000000001</ele>
        <time>2024-09-16T07:41:49Z</time>
      </trkpt>
      <trkpt lat="54.294537026435137" lon="13.082972019910812">
        <ele>8.310000000000001</ele>
        <time>2024-09-16T07:41:50Z</time>
      </trkpt>
      <trkpt lat="54.294625958427787" lon="13.082855008542538">
        <ele>7.83</ele>
        <time>2024-09-16T07:41:51Z</time>
      </trkpt>
      <trkpt lat="54.294710028916597" lon="13.08275300078094">
        <ele>7.83</ele>
        <time>2024-09-16T07:41:52Z</time>
      </trkpt>
      <trkpt lat="54.29480399005115" lon="13.082639006897807">
        <ele>7.83</ele>
        <time>2024-09-16T07:41:53Z</time>
      </trkpt>
      <trkpt lat="54.295314028859138" lon="13.081969963386655">
        <ele>7.35</ele>
        <time>2024-09-16T07:41:59Z</time>
      </trkpt>
      <trkpt lat="54.295400027185678" lon="13.081820011138916">
        <ele>6.87</ele>
        <time>2024-09-16T07:42:00Z</time>
      </trkpt>
      <trkpt lat="54.295451994985342" lon="13.081753039732575">
        <ele>6.87</ele>
        <time>2024-09-16T07:42:01Z</time>
      </trkpt>
      <trkpt lat="54.295819960534573" lon="13.081275019794703">
        <ele>5.42</ele>
        <time>2024-09-16T07:42:09Z</time>
      </trkpt>
      <trkpt lat="54.295935966074467" lon="13.081125989556313">
        <ele>5.42</ele>
        <time>2024-09-16T07:42:19Z</time>
      </trkpt>
      <trkpt lat="54.295971002429724" lon="13.081079972907901">
        <ele>5.91</ele>
        <time>2024-09-16T07:42:20Z</time>
      </trkpt>
      <trkpt lat="54.295958010479808" lon="13.081028005108237">
        <ele>5.91</ele>
        <time>2024-09-16T07:42:21Z</time>
      </trkpt>
      <trkpt lat="54.29591903463006" lon="13.08094896376133">
        <ele>5.91</ele>
        <time>2024-09-16T07:42:22Z</time>
      </trkpt>
      <trkpt lat="54.295874023810029" lon="13.080858020111918">
        <ele>6.39</ele>
        <time>2024-09-16T07:42:23Z</time>
      </trkpt>
      <trkpt lat="54.295820966362953" lon="13.08075400069356">
        <ele>6.39</ele>
        <time>2024-09-16T07:42:24Z</time>
      </trkpt>
      <trkpt lat="54.295651987195015" lon="13.080446971580386">
        <ele>7.83</ele>
        <time>2024-09-16T07:42:27Z</time>
      </trkpt>
      <trkpt lat="54.295562971383333" lon="13.080375976860523">
        <ele>11.19</ele>
        <time>2024-09-16T07:42:35Z</time>
      </trkpt>
      <trkpt lat="54.294818993657827" lon="13.080697003751993">
        <ele>11.67</ele>
        <time>2024-09-16T07:42:36Z</time>
      </trkpt>
      <trkpt lat="54.294729977846146" lon="13.080769004300237">
        <ele>11.67</ele>
        <time>2024-09-16T07:42:37Z</time>
      </trkpt>
      <trkpt lat="54.294634005054832" lon="13.080769004300237">
        <ele>11.67</ele>
        <time>2024-09-16T07:42:38Z</time>
      </trkpt>
      <trkpt lat="54.294536020606756" lon="13.080730028450489">
        <ele>11.19</ele>
        <time>2024-09-16T07:42:39Z</time>
      </trkpt>
      <trkpt lat="54.29443996399641" lon="13.080676971003413">
        <ele>11.19</ele>
        <time>2024-09-16T07:42:40Z</time>
      </trkpt>
      <trkpt lat="54.294338962063193" lon="13.080619974061847">
        <ele>11.67</ele>
        <time>2024-09-16T07:42:41Z</time>
      </trkpt>
      <trkpt lat="54.294219017028809" lon="13.080554008483887">
        <ele>11.67</ele>
        <time>2024-09-16T07:42:42Z</time>
      </trkpt>
      <trkpt lat="54.293431034311652" lon="13.079724032431841">
        <ele>13.6</ele>
        <time>2024-09-16T07:42:47Z</time>
      </trkpt>
      <trkpt lat="54.292388996109366" lon="13.078590966761112">
        <ele>16.48</ele>
        <time>2024-09-16T07:42:52Z</time>
      </trkpt>
      <trkpt lat="54.290086990222335" lon="13.076111013069749">
        <ele>19.84</ele>
        <time>2024-09-16T07:43:04Z</time>
      </trkpt>
      <trkpt lat="54.288198966532946" lon="13.074472015723586">
        <ele>22.25</ele>
        <time>2024-09-16T07:43:13Z</time>
      </trkpt>
      <trkpt lat="54.286511018872261" lon="13.073709011077881">
        <ele>24.170000000000002</ele>
        <time>2024-09-16T07:43:20Z</time>
      </trkpt>
      <trkpt lat="54.284587958827615" lon="13.073567021638155">
        <ele>28.5</ele>
        <time>2024-09-16T07:43:28Z</time>
      </trkpt>
      <trkpt lat="54.282454010099173" lon="13.074212009087205">
        <ele>29.940000000000001</ele>
        <time>2024-09-16T07:43:37Z</time>
      </trkpt>
      <trkpt lat="54.280468001961708" lon="13.075655959546566">
        <ele>25.609999999999999</ele>
        <time>2024-09-16T07:43:46Z</time>
      </trkpt>
      <trkpt lat="54.277253039181232" lon="13.078394997864962">
        <ele>19.84</ele>
        <time>2024-09-16T07:44:01Z</time>
      </trkpt>
      <trkpt lat="54.274721033871174" lon="13.079536026343703">
        <ele>17.440000000000001</ele>
        <time>2024-09-16T07:44:12Z</time>
      </trkpt>
      <trkpt lat="54.271931033581495" lon="13.080427022650838">
        <ele>16</ele>
        <time>2024-09-16T07:44:24Z</time>
      </trkpt>
      <trkpt lat="54.269701028242707" lon="13.081854041665792">
        <ele>17.920000000000002</ele>
        <time>2024-09-16T07:44:34Z</time>
      </trkpt>
      <trkpt lat="54.26788198761642" lon="13.083838960155845">
        <ele>20.32</ele>
        <time>2024-09-16T07:44:43Z</time>
      </trkpt>
      <trkpt lat="54.266351033002138" lon="13.086413964629173">
        <ele>21.289999999999999</ele>
        <time>2024-09-16T07:44:52Z</time>
      </trkpt>
      <trkpt lat="54.264527969062328" lon="13.090226976200938">
        <ele>16.960000000000001</ele>
        <time>2024-09-16T07:45:04Z</time>
      </trkpt>
      <trkpt lat="54.262803979218006" lon="13.093018988147378">
        <ele>12.630000000000001</ele>
        <time>2024-09-16T07:45:14Z</time>
      </trkpt>
      <trkpt lat="54.260530974715948" lon="13.096261024475098">
        <ele>14.08</ele>
        <time>2024-09-16T07:45:26Z</time>
      </trkpt>
      <trkpt lat="54.258323013782501" lon="13.100162968039513">
        <ele>16.48</ele>
        <time>2024-09-16T07:45:39Z</time>
      </trkpt>
      <trkpt lat="54.256706982851028" lon="13.103889981284738">
        <ele>15.039999999999999</ele>
        <time>2024-09-16T07:45:50Z</time>
      </trkpt>
      <trkpt lat="54.255274012684822" lon="13.108315961435437">
        <ele>12.15</ele>
        <time>2024-09-16T07:46:02Z</time>
      </trkpt>
      <trkpt lat="54.254200961440802" lon="13.112989962100983">
        <ele>15.039999999999999</ele>
        <time>2024-09-16T07:46:14Z</time>
      </trkpt>
      <trkpt lat="54.252891959622502" lon="13.119778968393803">
        <ele>27.050000000000001</ele>
        <time>2024-09-16T07:46:31Z</time>
      </trkpt>
      <trkpt lat="54.251710027456284" lon="13.1244139932096">
        <ele>23.690000000000001</ele>
        <time>2024-09-16T07:46:43Z</time>
      </trkpt>
      <trkpt lat="54.25030798651278" lon="13.127330979332328">
        <ele>19.359999999999999</ele>
        <time>2024-09-16T07:46:52Z</time>
      </trkpt>
      <trkpt lat="54.24792299978435" lon="13.13096797093749">
        <ele>17.440000000000001</ele>
        <time>2024-09-16T07:47:05Z</time>
      </trkpt>
      <trkpt lat="54.244721028953791" lon="13.136191992089152">
        <ele>19.359999999999999</ele>
        <time>2024-09-16T07:47:23Z</time>
      </trkpt>
      <trkpt lat="54.242484988644719" lon="13.140549995005131">
        <ele>22.25</ele>
        <time>2024-09-16T07:47:37Z</time>
      </trkpt>
      <trkpt lat="54.241673033684492" lon="13.141819015145302">
        <ele>22.73</ele>
        <time>2024-09-16T07:47:43Z</time>
      </trkpt>
      <trkpt lat="54.24152098596096" lon="13.141978019848466">
        <ele>22.25</ele>
        <time>2024-09-16T07:47:44Z</time>
      </trkpt>
      <trkpt lat="54.241366004571319" lon="13.14213995821774">
        <ele>22.25</ele>
        <time>2024-09-16T07:47:45Z</time>
      </trkpt>
      <trkpt lat="54.241200964897871" lon="13.142237020656466">
        <ele>21.77</ele>
        <time>2024-09-16T07:47:46Z</time>
      </trkpt>
      <trkpt lat="54.241023017093539" lon="13.1423319876194">
        <ele>21.77</ele>
        <time>2024-09-16T07:47:47Z</time>
      </trkpt>
      <trkpt lat="54.240846997126937" lon="13.142426032572985">
        <ele>21.77</ele>
        <time>2024-09-16T07:47:48Z</time>
      </trkpt>
      <trkpt lat="54.240673994645476" lon="13.142507001757622">
        <ele>21.77</ele>
        <time>2024-09-16T07:47:49Z</time>
      </trkpt>
      <trkpt lat="54.240492023527622" lon="13.142534997314215">
        <ele>21.77</ele>
        <time>2024-09-16T07:47:50Z</time>
      </trkpt>
      <trkpt lat="54.240309968590736" lon="13.142562992870808">
        <ele>21.77</ele>
        <time>2024-09-16T07:47:51Z</time>
      </trkpt>
      <trkpt lat="54.239410003647208" lon="13.142796009778976">
        <ele>22.73</ele>
        <time>2024-09-16T07:47:56Z</time>
      </trkpt>
      <trkpt lat="54.239240018650889" lon="13.142912015318871">
        <ele>22.73</ele>
        <time>2024-09-16T07:47:57Z</time>
      </trkpt>
      <trkpt lat="54.239090988412499" lon="13.143085017800331">
        <ele>23.210000000000001</ele>
        <time>2024-09-16T07:47:58Z</time>
      </trkpt>
      <trkpt lat="54.238951010629535" lon="13.143289033323526">
        <ele>23.210000000000001</ele>
        <time>2024-09-16T07:47:59Z</time>
      </trkpt>
      <trkpt lat="54.238825030624866" lon="13.143501011654735">
        <ele>23.690000000000001</ele>
        <time>2024-09-16T07:48:00Z</time>
      </trkpt>
      <trkpt lat="54.238712964579463" lon="13.143753977492452">
        <ele>23.690000000000001</ele>
        <time>2024-09-16T07:48:01Z</time>
      </trkpt>
      <trkpt lat="54.238600982353091" lon="13.14400602132082">
        <ele>23.690000000000001</ele>
        <time>2024-09-16T07:48:02Z</time>
      </trkpt>
      <trkpt lat="54.238509032875299" lon="13.144282959401608">
        <ele>24.170000000000002</ele>
        <time>2024-09-16T07:48:03Z</time>
      </trkpt>
      <trkpt lat="54.238444995135069" lon="13.144573979079723">
        <ele>24.170000000000002</ele>
        <time>2024-09-16T07:48:04Z</time>
      </trkpt>
      <trkpt lat="54.238399984315038" lon="13.144878996536136">
        <ele>24.649999999999999</ele>
        <time>2024-09-16T07:48:05Z</time>
      </trkpt>
      <trkpt lat="54.238386992365122" lon="13.145184013992548">
        <ele>25.129999999999999</ele>
        <time>2024-09-16T07:48:06Z</time>
      </trkpt>
      <trkpt lat="54.238386992365122" lon="13.145500011742115">
        <ele>25.609999999999999</ele>
        <time>2024-09-16T07:48:07Z</time>
      </trkpt>
      <trkpt lat="54.238391015678644" lon="13.14581198617816">
        <ele>25.609999999999999</ele>
        <time>2024-09-16T07:48:08Z</time>
      </trkpt>
      <trkpt lat="54.238443989306688" lon="13.146114991977811">
        <ele>26.09</ele>
        <time>2024-09-16T07:48:09Z</time>
      </trkpt>
      <trkpt lat="54.238497968763113" lon="13.146425038576126">
        <ele>27.050000000000001</ele>
        <time>2024-09-16T07:48:10Z</time>
      </trkpt>
      <trkpt lat="54.238557983189821" lon="13.146772971376777">
        <ele>27.530000000000001</ele>
        <time>2024-09-16T07:48:11Z</time>
      </trkpt>
      <trkpt lat="54.239047989249229" lon="13.1490149628371">
        <ele>26.09</ele>
        <time>2024-09-16T07:48:19Z</time>
      </trkpt>
      <trkpt lat="54.239052012562752" lon="13.149619968608022">
        <ele>24.649999999999999</ele>
        <time>2024-09-16T07:48:21Z</time>
      </trkpt>
      <trkpt lat="54.239052012562752" lon="13.149932026863098">
        <ele>23.690000000000001</ele>
        <time>2024-09-16T07:48:22Z</time>
      </trkpt>
      <trkpt lat="54.239045977592468" lon="13.150246012955904">
        <ele>23.210000000000001</ele>
        <time>2024-09-16T07:48:23Z</time>
      </trkpt>
      <trkpt lat="54.239003984257579" lon="13.15055999904871">
        <ele>22.25</ele>
        <time>2024-09-16T07:48:24Z</time>
      </trkpt>
      <trkpt lat="54.238936007022858" lon="13.15086199901998">
        <ele>21.77</ele>
        <time>2024-09-16T07:48:25Z</time>
      </trkpt>
      <trkpt lat="54.238936007022858" lon="13.150863004848361">
        <ele>20.809999999999999</ele>
        <time>2024-09-16T07:48:26Z</time>
      </trkpt>
      <trkpt lat="54.237705040723085" lon="13.15595299936831">
        <ele>17.440000000000001</ele>
        <time>2024-09-16T07:48:41Z</time>
      </trkpt>
      <trkpt lat="54.236634001135826" lon="13.161886967718601">
        <ele>17.920000000000002</ele>
        <time>2024-09-16T07:48:59Z</time>
      </trkpt>
      <trkpt lat="54.236079035326838" lon="13.166095018386841">
        <ele>18.399999999999999</ele>
        <time>2024-09-16T07:49:12Z</time>
      </trkpt>
      <trkpt lat="54.235771000385284" lon="13.169890008866787">
        <ele>16.960000000000001</ele>
        <time>2024-09-16T07:49:23Z</time>
      </trkpt>
      <trkpt lat="54.235648959875107" lon="13.172623012214899">
        <ele>14.56</ele>
        <time>2024-09-16T07:49:30Z</time>
      </trkpt>
      <trkpt lat="54.235635967925191" lon="13.173026014119387">
        <ele>14.08</ele>
        <time>2024-09-16T07:49:31Z</time>
      </trkpt>
      <trkpt lat="54.235676033422351" lon="13.176627969369292">
        <ele>9.75</ele>
        <time>2024-09-16T07:49:40Z</time>
      </trkpt>
      <trkpt lat="54.235935034230351" lon="13.18061700090766">
        <ele>7.83</ele>
        <time>2024-09-16T07:49:50Z</time>
      </trkpt>
      <trkpt lat="54.235883988440037" lon="13.183981999754906">
        <ele>13.6</ele>
        <time>2024-09-16T07:49:59Z</time>
      </trkpt>
      <trkpt lat="54.235394988209009" lon="13.187263011932373">
        <ele>17.920000000000002</ele>
        <time>2024-09-16T07:50:08Z</time>
      </trkpt>
      <trkpt lat="54.234469961374998" lon="13.190530026331544">
        <ele>15.039999999999999</ele>
        <time>2024-09-16T07:50:17Z</time>
      </trkpt>
      <trkpt lat="54.232832975685596" lon="13.195244008675218">
        <ele>7.35</ele>
        <time>2024-09-16T07:50:30Z</time>
      </trkpt>
      <trkpt lat="54.230705983936787" lon="13.201336981728673">
        <ele>3.5</ele>
        <time>2024-09-16T07:50:47Z</time>
      </trkpt>
      <trkpt lat="54.229651037603617" lon="13.204347006976604">
        <ele>7.35</ele>
        <time>2024-09-16T07:50:57Z</time>
      </trkpt>
      <trkpt lat="54.228505985811353" lon="13.207640005275607">
        <ele>15.039999999999999</ele>
        <time>2024-09-16T07:51:09Z</time>
      </trkpt>
      <trkpt lat="54.227644996717572" lon="13.210118031129241">
        <ele>16.48</ele>
        <time>2024-09-16T07:51:16Z</time>
      </trkpt>
      <trkpt lat="54.227010989561677" lon="13.211946962401271">
        <ele>16.960000000000001</ele>
        <time>2024-09-16T07:51:22Z</time>
      </trkpt>
      <trkpt lat="54.226613016799092" lon="13.213096037507057">
        <ele>16.960000000000001</ele>
        <time>2024-09-16T07:51:26Z</time>
      </trkpt>
      <trkpt lat="54.226498017087579" lon="13.213429972529411">
        <ele>16.960000000000001</ele>
        <time>2024-09-16T07:51:27Z</time>
      </trkpt>
      <trkpt lat="54.226381005719304" lon="13.213767008855939">
        <ele>16.960000000000001</ele>
        <time>2024-09-16T07:51:28Z</time>
      </trkpt>
      <trkpt lat="54.225614983588457" lon="13.215977987274528">
        <ele>16.960000000000001</ele>
        <time>2024-09-16T07:51:35Z</time>
      </trkpt>
      <trkpt lat="54.224571017548442" lon="13.218978038057685">
        <ele>16.960000000000001</ele>
        <time>2024-09-16T07:51:46Z</time>
      </trkpt>
      <trkpt lat="54.223565021529794" lon="13.221869962289929">
        <ele>17.920000000000002</ele>
        <time>2024-09-16T07:51:57Z</time>
      </trkpt>
      <trkpt lat="54.222475038841367" lon="13.224993981420994">
        <ele>17.920000000000002</ele>
        <time>2024-09-16T07:52:08Z</time>
      </trkpt>
      <trkpt lat="54.221539031714201" lon="13.227677028626204">
        <ele>15.52</ele>
        <time>2024-09-16T07:52:17Z</time>
      </trkpt>
      <trkpt lat="54.220551978796721" lon="13.230501981452107">
        <ele>12.630000000000001</ele>
        <time>2024-09-16T07:52:24Z</time>
      </trkpt>
      <trkpt lat="54.219330986961722" lon="13.234003018587828">
        <ele>13.6</ele>
        <time>2024-09-16T07:52:34Z</time>
      </trkpt>
      <trkpt lat="54.21838098205626" lon="13.236730992794037">
        <ele>13.6</ele>
        <time>2024-09-16T07:52:42Z</time>
      </trkpt>
      <trkpt lat="54.216971984133124" lon="13.240650035440922">
        <ele>10.710000000000001</ele>
        <time>2024-09-16T07:52:54Z</time>
      </trkpt>
      <trkpt lat="54.216160029172897" lon="13.242421969771385">
        <ele>9.75</ele>
        <time>2024-09-16T07:53:02Z</time>
      </trkpt>
      <trkpt lat="54.21610202640295" lon="13.242528000846505">
        <ele>9.75</ele>
        <time>2024-09-16T07:53:03Z</time>
      </trkpt>
      <trkpt lat="54.216052992269397" lon="13.242617016658187">
        <ele>9.75</ele>
        <time>2024-09-16T07:53:04Z</time>
      </trkpt>
      <trkpt lat="54.216086016967893" lon="13.242709971964359">
        <ele>9.75</ele>
        <time>2024-09-16T07:53:05Z</time>
      </trkpt>
      <trkpt lat="54.216128010302782" lon="13.242808040231466">
        <ele>9.75</ele>
        <time>2024-09-16T07:53:06Z</time>
      </trkpt>
      <trkpt lat="54.216177966445684" lon="13.242923961952329">
        <ele>9.75</ele>
        <time>2024-09-16T07:53:07Z</time>
      </trkpt>
      <trkpt lat="54.216216020286083" lon="13.243107022717595">
        <ele>9.75</ele>
        <time>2024-09-16T07:53:08Z</time>
      </trkpt>
      <trkpt lat="54.216249966993928" lon="13.24326703324914">
        <ele>9.27</ele>
        <time>2024-09-16T07:53:09Z</time>
      </trkpt>
      <trkpt lat="54.216245021671057" lon="13.243437018245459">
        <ele>9.27</ele>
        <time>2024-09-16T07:53:10Z</time>
      </trkpt>
      <trkpt lat="54.216215014457703" lon="13.24361203238368">
        <ele>9.27</ele>
        <time>2024-09-16T07:53:11Z</time>
      </trkpt>
      <trkpt lat="54.21616698615253" lon="13.243789980188012">
        <ele>8.789999999999999</ele>
        <time>2024-09-16T07:53:12Z</time>
      </trkpt>
      <trkpt lat="54.216105965897441" lon="13.243960971012712">
        <ele>8.789999999999999</ele>
        <time>2024-09-16T07:53:13Z</time>
      </trkpt>
      <trkpt lat="54.215577989816666" lon="13.245462002232671">
        <ele>8.310000000000001</ele>
        <time>2024-09-16T07:53:22Z</time>
      </trkpt>
      <trkpt lat="54.214893020689487" lon="13.247463013976812">
        <ele>7.35</ele>
        <time>2024-09-16T07:53:34Z</time>
      </trkpt>
      <trkpt lat="54.214246021583676" lon="13.249283982440829">
        <ele>7.35</ele>
        <time>2024-09-16T07:53:45Z</time>
      </trkpt>
      <trkpt lat="54.213772024959326" lon="13.250590972602367">
        <ele>7.83</ele>
        <time>2024-09-16T07:53:54Z</time>
      </trkpt>
      <trkpt lat="54.213735982775688" lon="13.250690968707204">
        <ele>7.83</ele>
        <time>2024-09-16T07:53:55Z</time>
      </trkpt>
      <trkpt lat="54.213700024411082" lon="13.25079096481204">
        <ele>7.83</ele>
        <time>2024-09-16T07:53:56Z</time>
      </trkpt>
      <trkpt lat="54.213648978620768" lon="13.250865982845426">
        <ele>7.83</ele>
        <time>2024-09-16T07:53:57Z</time>
      </trkpt>
      <trkpt lat="54.213532973080873" lon="13.250997997820377">
        <ele>8.310000000000001</ele>
        <time>2024-09-16T07:53:59Z</time>
      </trkpt>
      <trkpt lat="54.213469019159675" lon="13.251071004197001">
        <ele>8.310000000000001</ele>
        <time>2024-09-16T07:54:00Z</time>
      </trkpt>
      <trkpt lat="54.213283024728298" lon="13.251281976699829">
        <ele>8.310000000000001</ele>
        <time>2024-09-16T07:54:03Z</time>
      </trkpt>
      <trkpt lat="54.212699979543686" lon="13.251560004428029">
        <ele>7.83</ele>
        <time>2024-09-16T07:54:12Z</time>
      </trkpt>
      <trkpt lat="54.212615992873907" lon="13.251593029126525">
        <ele>7.35</ele>
        <time>2024-09-16T07:54:13Z</time>
      </trkpt>
      <trkpt lat="54.212536029517651" lon="13.251552963629365">
        <ele>7.35</ele>
        <time>2024-09-16T07:54:14Z</time>
      </trkpt>
      <trkpt lat="54.212075024843216" lon="13.251322964206338">
        <ele>5.91</ele>
        <time>2024-09-16T07:54:20Z</time>
      </trkpt>
      <trkpt lat="54.211708987131715" lon="13.251177035272121">
        <ele>3.5</ele>
        <time>2024-09-16T07:54:25Z</time>
      </trkpt>
      <trkpt lat="54.211626006290317" lon="13.251169994473457">
        <ele>3.5</ele>
        <time>2024-09-16T07:54:26Z</time>
      </trkpt>
      <trkpt lat="54.211537996307015" lon="13.251172006130219">
        <ele>3.5</ele>
        <time>2024-09-16T07:54:27Z</time>
      </trkpt>
      <trkpt lat="54.211195008829236" lon="13.251280970871449">
        <ele>3.5</ele>
        <time>2024-09-16T07:54:31Z</time>
      </trkpt>
      <trkpt lat="54.210328990593553" lon="13.251673998311162">
        <ele>0.62</ele>
        <time>2024-09-16T07:54:39Z</time>
      </trkpt>
      <trkpt lat="54.209470013156533" lon="13.252086974680424">
        <ele>-0.34</ele>
        <time>2024-09-16T07:54:46Z</time>
      </trkpt>
      <trkpt lat="54.209347972646356" lon="13.252144977450371">
        <ele>-0.34</ele>
        <time>2024-09-16T07:54:47Z</time>
      </trkpt>
      <trkpt lat="54.20819403603673" lon="13.252714024856687">
        <ele>1.1</ele>
        <time>2024-09-16T07:54:57Z</time>
      </trkpt>
      <trkpt lat="54.2075290158391" lon="13.253275025635958">
        <ele>2.54</ele>
        <time>2024-09-16T07:55:03Z</time>
      </trkpt>
      <trkpt lat="54.206770034506917" lon="13.254230981692672">
        <ele>4.94</ele>
        <time>2024-09-16T07:55:11Z</time>
      </trkpt>
      <trkpt lat="54.206511033698916" lon="13.254556031897664">
        <ele>6.39</ele>
        <time>2024-09-16T07:55:14Z</time>
      </trkpt>
      <trkpt lat="54.206331996247172" lon="13.254786031320691">
        <ele>7.35</ele>
        <time>2024-09-16T07:55:16Z</time>
      </trkpt>
      <trkpt lat="54.205396994948387" lon="13.256007023155689">
        <ele>8.789999999999999</ele>
        <time>2024-09-16T07:55:26Z</time>
      </trkpt>
      <trkpt lat="54.205222986638546" lon="13.256225036457181">
        <ele>8.789999999999999</ele>
        <time>2024-09-16T07:55:28Z</time>
      </trkpt>
      <trkpt lat="54.205130031332374" lon="13.256341964006424">
        <ele>8.789999999999999</ele>
        <time>2024-09-16T07:55:29Z</time>
      </trkpt>
      <trkpt lat="54.204555032774806" lon="13.257066998630762">
        <ele>7.35</ele>
        <time>2024-09-16T07:55:36Z</time>
      </trkpt>
      <trkpt lat="54.203885989263654" lon="13.257908960804343">
        <ele>7.35</ele>
        <time>2024-09-16T07:55:44Z</time>
      </trkpt>
      <trkpt lat="54.20308300293982" lon="13.258918980136514">
        <ele>8.789999999999999</ele>
        <time>2024-09-16T07:55:53Z</time>
      </trkpt>
      <trkpt lat="54.2029959987849" lon="13.259029034525156">
        <ele>8.789999999999999</ele>
        <time>2024-09-16T07:55:54Z</time>
      </trkpt>
      <trkpt lat="54.202121011912823" lon="13.260129997506738">
        <ele>8.789999999999999</ele>
        <time>2024-09-16T07:56:04Z</time>
      </trkpt>
      <trkpt lat="54.201162960380316" lon="13.261335985735059">
        <ele>12.15</ele>
        <time>2024-09-16T07:56:13Z</time>
      </trkpt>
      <trkpt lat="54.20106103643775" lon="13.261463977396488">
        <ele>12.15</ele>
        <time>2024-09-16T07:56:14Z</time>
      </trkpt>
      <trkpt lat="54.199911039322615" lon="13.262915974482894">
        <ele>16.48</ele>
        <time>2024-09-16T07:56:25Z</time>
      </trkpt>
      <trkpt lat="54.199796039611101" lon="13.263062993064523">
        <ele>16.960000000000001</ele>
        <time>2024-09-16T07:56:26Z</time>
      </trkpt>
      <trkpt lat="54.199682967737317" lon="13.263205988332629">
        <ele>16.960000000000001</ele>
        <time>2024-09-16T07:56:27Z</time>
      </trkpt>
      <trkpt lat="54.19917200691998" lon="13.263856004923582">
        <ele>17.440000000000001</ele>
        <time>2024-09-16T07:56:32Z</time>
      </trkpt>
      <trkpt lat="54.199069999158382" lon="13.263987014070153">
        <ele>17.440000000000001</ele>
        <time>2024-09-16T07:56:33Z</time>
      </trkpt>
      <trkpt lat="54.198965979740024" lon="13.264119029045105">
        <ele>17.920000000000002</ele>
        <time>2024-09-16T07:56:34Z</time>
      </trkpt>
      <trkpt lat="54.197823023423553" lon="13.265573959797621">
        <ele>20.809999999999999</ele>
        <time>2024-09-16T07:56:44Z</time>
      </trkpt>
      <trkpt lat="54.196782996878028" lon="13.266897965222597">
        <ele>23.210000000000001</ele>
        <time>2024-09-16T07:56:53Z</time>
      </trkpt>
      <trkpt lat="54.195722015574574" lon="13.268248960375786">
        <ele>23.690000000000001</ele>
        <time>2024-09-16T07:57:02Z</time>
      </trkpt>
      <trkpt lat="54.194522984325886" lon="13.269770024344325">
        <ele>22.73</ele>
        <time>2024-09-16T07:57:13Z</time>
      </trkpt>
      <trkpt lat="54.1933289822191" lon="13.271278012543917">
        <ele>20.809999999999999</ele>
        <time>2024-09-16T07:57:24Z</time>
      </trkpt>
      <trkpt lat="54.192011011764407" lon="13.272922039031982">
        <ele>20.809999999999999</ele>
        <time>2024-09-16T07:57:36Z</time>
      </trkpt>
      <trkpt lat="54.191196039319038" lon="13.273977991193533">
        <ele>20.809999999999999</ele>
        <time>2024-09-16T07:57:44Z</time>
      </trkpt>
      <trkpt lat="54.191082967445254" lon="13.274124003946781">
        <ele>20.809999999999999</ele>
        <time>2024-09-16T07:57:45Z</time>
      </trkpt>
      <trkpt lat="54.190970985218883" lon="13.274270016700029">
        <ele>20.32</ele>
        <time>2024-09-16T07:57:46Z</time>
      </trkpt>
      <trkpt lat="54.190047970041633" lon="13.275465024635196">
        <ele>17.440000000000001</ele>
        <time>2024-09-16T07:57:55Z</time>
      </trkpt>
      <trkpt lat="54.188899984583259" lon="13.276952980086207">
        <ele>15.039999999999999</ele>
        <time>2024-09-16T07:58:06Z</time>
      </trkpt>
      <trkpt lat="54.187685027718544" lon="13.27852601185441">
        <ele>14.08</ele>
        <time>2024-09-16T07:58:17Z</time>
      </trkpt>
      <trkpt lat="54.187577990815043" lon="13.278665989637375">
        <ele>14.56</ele>
        <time>2024-09-16T07:58:18Z</time>
      </trkpt>
      <trkpt lat="54.187471037730575" lon="13.27880403958261">
        <ele>14.56</ele>
        <time>2024-09-16T07:58:19Z</time>
      </trkpt>
      <trkpt lat="54.186147032305598" lon="13.280518976971507">
        <ele>13.6</ele>
        <time>2024-09-16T07:58:31Z</time>
      </trkpt>
      <trkpt lat="54.185215970501304" lon="13.281724965199828">
        <ele>14.08</ele>
        <time>2024-09-16T07:58:40Z</time>
      </trkpt>
      <trkpt lat="54.184284992516041" lon="13.282923996448517">
        <ele>14.56</ele>
        <time>2024-09-16T07:58:49Z</time>
      </trkpt>
      <trkpt lat="54.18282201513648" lon="13.284787964075804">
        <ele>16.48</ele>
        <time>2024-09-16T07:59:02Z</time>
      </trkpt>
      <trkpt lat="54.182205023244023" lon="13.285575024783611">
        <ele>17.920000000000002</ele>
        <time>2024-09-16T07:59:08Z</time>
      </trkpt>
      <trkpt lat="54.181264992803335" lon="13.286772966384888">
        <ele>17.920000000000002</ele>
        <time>2024-09-16T07:59:17Z</time>
      </trkpt>
      <trkpt lat="54.180956035852432" lon="13.287166999652982">
        <ele>18.879999999999999</ele>
        <time>2024-09-16T07:59:20Z</time>
      </trkpt>
      <trkpt lat="54.179826993495226" lon="13.288608016446233">
        <ele>20.32</ele>
        <time>2024-09-16T07:59:31Z</time>
      </trkpt>
      <trkpt lat="54.178790990263224" lon="13.289927998557687">
        <ele>22.73</ele>
        <time>2024-09-16T07:59:41Z</time>
      </trkpt>
      <trkpt lat="54.178307019174099" lon="13.290542978793383">
        <ele>21.77</ele>
        <time>2024-09-16T07:59:47Z</time>
      </trkpt>
      <trkpt lat="54.178252033889294" lon="13.290611039847136">
        <ele>21.77</ele>
        <time>2024-09-16T07:59:48Z</time>
      </trkpt>
      <trkpt lat="54.178211968392134" lon="13.290562005713582">
        <ele>21.77</ele>
        <time>2024-09-16T07:59:49Z</time>
      </trkpt>
      <trkpt lat="54.178194031119347" lon="13.290525041520596">
        <ele>21.289999999999999</ele>
        <time>2024-09-16T07:59:50Z</time>
      </trkpt>
      <trkpt lat="54.178176010027528" lon="13.290484976023436">
        <ele>20.809999999999999</ele>
        <time>2024-09-16T07:59:51Z</time>
      </trkpt>
      <trkpt lat="54.178163018077612" lon="13.290456980466843">
        <ele>20.809999999999999</ele>
        <time>2024-09-16T07:59:52Z</time>
      </trkpt>
      <trkpt lat="54.178163018077612" lon="13.290456980466843">
        <ele>20.32</ele>
        <time>2024-09-16T08:00:06Z</time>
      </trkpt>
      <trkpt lat="54.178148014470935" lon="13.290424961596727">
        <ele>20.32</ele>
        <time>2024-09-16T08:00:08Z</time>
      </trkpt>
      <trkpt lat="54.178036032244563" lon="13.290370982140303">
        <ele>19.84</ele>
        <time>2024-09-16T08:00:09Z</time>
      </trkpt>
      <trkpt lat="54.177983980625868" lon="13.290435019880533">
        <ele>19.359999999999999</ele>
        <time>2024-09-16T08:00:10Z</time>
      </trkpt>
      <trkpt lat="54.17734201066196" lon="13.291235994547606">
        <ele>16.48</ele>
        <time>2024-09-16T08:00:17Z</time>
      </trkpt>
      <trkpt lat="54.176219003275037" lon="13.292653961107135">
        <ele>15.039999999999999</ele>
        <time>2024-09-16T08:00:25Z</time>
      </trkpt>
      <trkpt lat="54.174404991790652" lon="13.294997038319707">
        <ele>14.08</ele>
        <time>2024-09-16T08:00:36Z</time>
      </trkpt>
      <trkpt lat="54.173085009679198" lon="13.296670988202095">
        <ele>13.119999999999999</ele>
        <time>2024-09-16T08:00:43Z</time>
      </trkpt>
      <trkpt lat="54.169811038300395" lon="13.300826987251639">
        <ele>9.27</ele>
        <time>2024-09-16T08:01:01Z</time>
      </trkpt>
      <trkpt lat="54.167112987488508" lon="13.304271027445793">
        <ele>3.98</ele>
        <time>2024-09-16T08:01:17Z</time>
      </trkpt>
      <trkpt lat="54.165834998711944" lon="13.305802987888455">
        <ele>2.06</ele>
        <time>2024-09-16T08:01:25Z</time>
      </trkpt>
      <trkpt lat="54.16387103497982" lon="13.307507028803229">
        <ele>1.1</ele>
        <time>2024-09-16T08:01:36Z</time>
      </trkpt>
      <trkpt lat="54.161772960796952" lon="13.308397019281983">
        <ele>-1.3</ele>
        <time>2024-09-16T08:01:47Z</time>
      </trkpt>
      <trkpt lat="54.159598024562001" lon="13.308975035324693">
        <ele>-5.15</ele>
        <time>2024-09-16T08:01:58Z</time>
      </trkpt>
      <trkpt lat="54.157409006729722" lon="13.309512985870242">
        <ele>-6.59</ele>
        <time>2024-09-16T08:02:09Z</time>
      </trkpt>
      <trkpt lat="54.154818998649716" lon="13.310145987197757">
        <ele>-5.63</ele>
        <time>2024-09-16T08:02:22Z</time>
      </trkpt>
      <trkpt lat="54.15282997302711" lon="13.310714028775692">
        <ele>-4.19</ele>
        <time>2024-09-16T08:02:33Z</time>
      </trkpt>
      <trkpt lat="54.15057297796011" lon="13.311887998133898">
        <ele>-1.3</ele>
        <time>2024-09-16T08:02:45Z</time>
      </trkpt>
      <trkpt lat="54.148702975362539" lon="13.313514003530145">
        <ele>-0.82</ele>
        <time>2024-09-16T08:02:56Z</time>
      </trkpt>
      <trkpt lat="54.146934980526567" lon="13.315748032182455">
        <ele>-0.34</ele>
        <time>2024-09-16T08:03:08Z</time>
      </trkpt>
      <trkpt lat="54.145300006493926" lon="13.318739030510187">
        <ele>-0.34</ele>
        <time>2024-09-16T08:03:20Z</time>
      </trkpt>
      <trkpt lat="54.14382403716445" lon="13.3227429818362">
        <ele>1.1</ele>
        <time>2024-09-16T08:03:34Z</time>
      </trkpt>
      <trkpt lat="54.142061993479729" lon="13.327906988561153">
        <ele>1.1</ele>
        <time>2024-09-16T08:03:52Z</time>
      </trkpt>
      <trkpt lat="54.141063038259745" lon="13.330257022753358">
        <ele>0.62</ele>
        <time>2024-09-16T08:04:02Z</time>
      </trkpt>
      <trkpt lat="54.140215963125229" lon="13.332010013982654">
        <ele>-0.82</ele>
        <time>2024-09-16T08:04:12Z</time>
      </trkpt>
      <trkpt lat="54.139809021726251" lon="13.332727001979947">
        <ele>-1.79</ele>
        <time>2024-09-16T08:04:19Z</time>
      </trkpt>
      <trkpt lat="54.139740038663149" lon="13.332844013348222">
        <ele>-1.79</ele>
        <time>2024-09-16T08:04:20Z</time>
      </trkpt>
      <trkpt lat="54.139002012088895" lon="13.334111021831632">
        <ele>-2.27</ele>
        <time>2024-09-16T08:04:29Z</time>
      </trkpt>
      <trkpt lat="54.138146974146366" lon="13.335577016696334">
        <ele>-2.75</ele>
        <time>2024-09-16T08:04:37Z</time>
      </trkpt>
      <trkpt lat="54.137492012232542" lon="13.336701029911637">
        <ele>-4.19</ele>
        <time>2024-09-16T08:04:41Z</time>
      </trkpt>
      <trkpt lat="54.137347005307674" lon="13.336948966607451">
        <ele>-4.19</ele>
        <time>2024-09-16T08:04:42Z</time>
      </trkpt>
      <trkpt lat="54.136030040681362" lon="13.339205039665103">
        <ele>-2.75</ele>
        <time>2024-09-16T08:04:52Z</time>
      </trkpt>
      <trkpt lat="54.135503992438316" lon="13.340088995173573">
        <ele>-1.3</ele>
        <time>2024-09-16T08:04:58Z</time>
      </trkpt>
      <trkpt lat="54.135054973885417" lon="13.340844037011266">
        <ele>0.62</ele>
        <time>2024-09-16T08:05:08Z</time>
      </trkpt>
      <trkpt lat="54.134747022762895" lon="13.341361032798886">
        <ele>1.58</ele>
        <time>2024-09-16T08:05:18Z</time>
      </trkpt>
      <trkpt lat="54.134192978963256" lon="13.34229402244091">
        <ele>2.54</ele>
        <time>2024-09-16T08:05:26Z</time>
      </trkpt>
      <trkpt lat="54.133597025647759" lon="13.343315022066236">
        <ele>2.54</ele>
        <time>2024-09-16T08:05:34Z</time>
      </trkpt>
      <trkpt lat="54.132575020194054" lon="13.345032976940274">
        <ele>2.06</ele>
        <time>2024-09-16T08:05:43Z</time>
      </trkpt>
      <trkpt lat="54.131865995004773" lon="13.346221027895808">
        <ele>1.1</ele>
        <time>2024-09-16T08:05:49Z</time>
      </trkpt>
      <trkpt lat="54.131762981414795" lon="13.346395036205649">
        <ele>1.1</ele>
        <time>2024-09-16T08:05:50Z</time>
      </trkpt>
      <trkpt lat="54.131659967824817" lon="13.346567032858729">
        <ele>1.58</ele>
        <time>2024-09-16T08:05:51Z</time>
      </trkpt>
      <trkpt lat="54.131041970103979" lon="13.347590966150165">
        <ele>3.02</ele>
        <time>2024-09-16T08:05:57Z</time>
      </trkpt>
      <trkpt lat="54.13093401119113" lon="13.347766986116767">
        <ele>3.02</ele>
        <time>2024-09-16T08:05:58Z</time>
      </trkpt>
      <trkpt lat="54.13082798011601" lon="13.347938982769847">
        <ele>3.5</ele>
        <time>2024-09-16T08:05:59Z</time>
      </trkpt>
      <trkpt lat="54.130723960697651" lon="13.348108967766166">
        <ele>3.5</ele>
        <time>2024-09-16T08:06:00Z</time>
      </trkpt>
      <trkpt lat="54.130621030926704" lon="13.348276019096375">
        <ele>3.5</ele>
        <time>2024-09-16T08:06:01Z</time>
      </trkpt>
      <trkpt lat="54.130514999851584" lon="13.348447009921074">
        <ele>3.5</ele>
        <time>2024-09-16T08:06:02Z</time>
      </trkpt>
      <trkpt lat="54.129619980230927" lon="13.349853996187449">
        <ele>4.94</ele>
        <time>2024-09-16T08:06:10Z</time>
      </trkpt>
      <trkpt lat="54.128304021432996" lon="13.351268023252487">
        <ele>4.46</ele>
        <time>2024-09-16T08:06:20Z</time>
      </trkpt>
      <trkpt lat="54.12652999162674" lon="13.352688001468778">
        <ele>3.98</ele>
        <time>2024-09-16T08:06:32Z</time>
      </trkpt>
      <trkpt lat="54.126382973045111" lon="13.35280098952353">
        <ele>3.98</ele>
        <time>2024-09-16T08:06:33Z</time>
      </trkpt>
      <trkpt lat="54.126236038282514" lon="13.352914983406663">
        <ele>3.98</ele>
        <time>2024-09-16T08:06:34Z</time>
      </trkpt>
      <trkpt lat="54.125333977863193" lon="13.353599030524492">
        <ele>3.5</ele>
        <time>2024-09-16T08:06:40Z</time>
      </trkpt>
      <trkpt lat="54.124264027923346" lon="13.354434035718441">
        <ele>-0.82</ele>
        <time>2024-09-16T08:06:47Z</time>
      </trkpt>
      <trkpt lat="54.122236026450992" lon="13.355813026428223">
        <ele>-0.82</ele>
        <time>2024-09-16T08:06:59Z</time>
      </trkpt>
      <trkpt lat="54.121004976332188" lon="13.355901958420873">
        <ele>3.02</ele>
        <time>2024-09-16T08:07:06Z</time>
      </trkpt>
      <trkpt lat="54.119939971715212" lon="13.35533500649035">
        <ele>6.87</ele>
        <time>2024-09-16T08:07:14Z</time>
      </trkpt>
      <trkpt lat="54.119865037500858" lon="13.355167033150792">
        <ele>7.35</ele>
        <time>2024-09-16T08:07:15Z</time>
      </trkpt>
      <trkpt lat="54.119813991710544" lon="13.355022026225924">
        <ele>7.83</ele>
        <time>2024-09-16T08:07:16Z</time>
      </trkpt>
      <trkpt lat="54.119785996153951" lon="13.354881964623928">
        <ele>7.83</ele>
        <time>2024-09-16T08:07:17Z</time>
      </trkpt>
      <trkpt lat="54.119779039174318" lon="13.35473301820457">
        <ele>7.83</ele>
        <time>2024-09-16T08:07:18Z</time>
      </trkpt>
      <trkpt lat="54.119770992547274" lon="13.354591028764844">
        <ele>8.310000000000001</ele>
        <time>2024-09-16T08:07:19Z</time>
      </trkpt>
      <trkpt lat="54.11980502307415" lon="13.354479968547821">
        <ele>8.310000000000001</ele>
        <time>2024-09-16T08:07:20Z</time>
      </trkpt>
      <trkpt lat="54.119865037500858" lon="13.35436899214983">
        <ele>8.310000000000001</ele>
        <time>2024-09-16T08:07:21Z</time>
      </trkpt>
      <trkpt lat="54.119919016957283" lon="13.354267990216613">
        <ele>8.789999999999999</ele>
        <time>2024-09-16T08:07:22Z</time>
      </trkpt>
      <trkpt lat="54.120005015283823" lon="13.354228008538485">
        <ele>8.789999999999999</ele>
        <time>2024-09-16T08:07:23Z</time>
      </trkpt>
      <trkpt lat="54.120005015283823" lon="13.354228008538485">
        <ele>8.789999999999999</ele>
        <time>2024-09-16T08:07:24Z</time>
      </trkpt>
      <trkpt lat="54.120197966694832" lon="13.354138992726803">
        <ele>8.789999999999999</ele>
        <time>2024-09-16T08:07:25Z</time>
      </trkpt>
      <trkpt lat="54.120298968628049" lon="13.354167994111776">
        <ele>8.789999999999999</ele>
        <time>2024-09-16T08:07:26Z</time>
      </trkpt>
      <trkpt lat="54.120400976389647" lon="13.354231026023626">
        <ele>8.310000000000001</ele>
        <time>2024-09-16T08:07:27Z</time>
      </trkpt>
      <trkpt lat="54.120495021343231" lon="13.354317024350166">
        <ele>8.310000000000001</ele>
        <time>2024-09-16T08:07:28Z</time>
      </trkpt>
      <trkpt lat="54.120587976649404" lon="13.354402016848326">
        <ele>7.83</ele>
        <time>2024-09-16T08:07:29Z</time>
      </trkpt>
      <trkpt lat="54.120659977197647" lon="13.354553980752826">
        <ele>7.35</ele>
        <time>2024-09-16T08:07:30Z</time>
      </trkpt>
      <trkpt lat="54.120722003281116" lon="13.354708040133119">
        <ele>6.87</ele>
        <time>2024-09-16T08:07:31Z</time>
      </trkpt>
      <trkpt lat="54.120784029364586" lon="13.354907026514411">
        <ele>6.39</ele>
        <time>2024-09-16T08:07:32Z</time>
      </trkpt>
      <trkpt lat="54.120806995779276" lon="13.355112969875336">
        <ele>5.91</ele>
        <time>2024-09-16T08:07:33Z</time>
      </trkpt>
      <trkpt lat="54.120842032134533" lon="13.355708001181483">
        <ele>4.94</ele>
        <time>2024-09-16T08:07:36Z</time>
      </trkpt>
      <trkpt lat="54.120842032134533" lon="13.355856025591493">
        <ele>4.94</ele>
        <time>2024-09-16T08:07:37Z</time>
      </trkpt>
      <trkpt lat="54.120842032134533" lon="13.356013018637896">
        <ele>4.46</ele>
        <time>2024-09-16T08:07:38Z</time>
      </trkpt>
      <trkpt lat="54.120842032134533" lon="13.35671198554337">
        <ele>3.98</ele>
        <time>2024-09-16T08:07:44Z</time>
      </trkpt>
      <trkpt lat="54.120756033807993" lon="13.356865039095283">
        <ele>3.98</ele>
        <time>2024-09-16T08:07:45Z</time>
      </trkpt>
      <trkpt lat="54.120756033807993" lon="13.356865039095283">
        <ele>3.98</ele>
        <time>2024-09-16T08:07:46Z</time>
      </trkpt>
      <trkpt lat="54.120726026594639" lon="13.356943996623158">
        <ele>3.98</ele>
        <time>2024-09-16T08:07:48Z</time>
      </trkpt>
      <trkpt lat="54.120701970532537" lon="13.357007028535008">
        <ele>3.98</ele>
        <time>2024-09-16T08:07:49Z</time>
      </trkpt>
      <trkpt lat="54.120690990239382" lon="13.357070982456207">
        <ele>4.46</ele>
        <time>2024-09-16T08:07:50Z</time>
      </trkpt>
      <trkpt lat="54.120690990239382" lon="13.357153041288257">
        <ele>4.46</ele>
        <time>2024-09-16T08:07:51Z</time>
      </trkpt>
      <trkpt lat="54.120719991624355" lon="13.3572699688375">
        <ele>4.46</ele>
        <time>2024-09-16T08:07:52Z</time>
      </trkpt>
      <trkpt lat="54.120768019929528" lon="13.357301987707615">
        <ele>4.94</ele>
        <time>2024-09-16T08:07:53Z</time>
      </trkpt>
      <trkpt lat="54.120819987729192" lon="13.357337024062872">
        <ele>4.94</ele>
        <time>2024-09-16T08:07:54Z</time>
      </trkpt>
      <trkpt lat="54.120819987729192" lon="13.357337024062872">
        <ele>5.42</ele>
        <time>2024-09-16T08:07:55Z</time>
      </trkpt>
      <trkpt lat="54.120967006310821" lon="13.357354961335659">
        <ele>5.42</ele>
        <time>2024-09-16T08:07:56Z</time>
      </trkpt>
      <trkpt lat="54.121014028787613" lon="13.357434002682567">
        <ele>5.42</ele>
        <time>2024-09-16T08:07:57Z</time>
      </trkpt>
      <trkpt lat="54.121068008244038" lon="13.35752603597939">
        <ele>5.42</ele>
        <time>2024-09-16T08:07:58Z</time>
      </trkpt>
      <trkpt lat="54.121122993528843" lon="13.357639024034142">
        <ele>5.42</ele>
        <time>2024-09-16T08:07:59Z</time>
      </trkpt>
      <trkpt lat="54.121139002963901" lon="13.357774978503585">
        <ele>5.91</ele>
        <time>2024-09-16T08:08:00Z</time>
      </trkpt>
      <trkpt lat="54.121157024055719" lon="13.357921997085214">
        <ele>5.91</ele>
        <time>2024-09-16T08:08:01Z</time>
      </trkpt>
      <trkpt lat="54.121145037934184" lon="13.358091982081532">
        <ele>5.91</ele>
        <time>2024-09-16T08:08:02Z</time>
      </trkpt>
      <trkpt lat="54.121120981872082" lon="13.358237994834781">
        <ele>5.91</ele>
        <time>2024-09-16T08:08:03Z</time>
      </trkpt>
      <trkpt lat="54.121090974658728" lon="13.358405968174338">
        <ele>5.91</ele>
        <time>2024-09-16T08:08:04Z</time>
      </trkpt>
      <trkpt lat="54.121062979102135" lon="13.358570002019405">
        <ele>5.91</ele>
        <time>2024-09-16T08:08:05Z</time>
      </trkpt>
      <trkpt lat="54.120752010494471" lon="13.360377978533506">
        <ele>7.83</ele>
        <time>2024-09-16T08:08:15Z</time>
      </trkpt>
      <trkpt lat="54.120497032999992" lon="13.362030973657966">
        <ele>9.27</ele>
        <time>2024-09-16T08:08:24Z</time>
      </trkpt>
      <trkpt lat="54.120440036058426" lon="13.36240497417748">
        <ele>9.27</ele>
        <time>2024-09-16T08:08:26Z</time>
      </trkpt>
      <trkpt lat="54.120411034673452" lon="13.362591974437237">
        <ele>9.27</ele>
        <time>2024-09-16T08:08:27Z</time>
      </trkpt>
      <trkpt lat="54.120241971686482" lon="13.3643570356071">
        <ele>9.27</ele>
        <time>2024-09-16T08:08:37Z</time>
      </trkpt>
      <trkpt lat="54.120191009715199" lon="13.364473963156343">
        <ele>9.75</ele>
        <time>2024-09-16T08:08:38Z</time>
      </trkpt>
      <trkpt lat="54.120140969753265" lon="13.364588962867856">
        <ele>9.75</ele>
        <time>2024-09-16T08:08:39Z</time>
      </trkpt>
      <trkpt lat="54.120081039145589" lon="13.364660041406751">
        <ele>10.23</ele>
        <time>2024-09-16T08:08:40Z</time>
      </trkpt>
      <trkpt lat="54.120007026940584" lon="13.364674961194396">
        <ele>11.19</ele>
        <time>2024-09-16T08:08:41Z</time>
      </trkpt>
      <trkpt lat="54.119917005300522" lon="13.364692982286215">
        <ele>12.15</ele>
        <time>2024-09-16T08:08:42Z</time>
      </trkpt>
      <trkpt lat="54.119824972003698" lon="13.364711003378034">
        <ele>13.119999999999999</ele>
        <time>2024-09-16T08:08:43Z</time>
      </trkpt>
      <trkpt lat="54.118576990440488" lon="13.364628022536635">
        <ele>14.08</ele>
        <time>2024-09-16T08:08:55Z</time>
      </trkpt>
      <trkpt lat="54.117397991940379" lon="13.364604972302914">
        <ele>13.6</ele>
        <time>2024-09-16T08:09:07Z</time>
      </trkpt>
      <trkpt lat="54.116331981495023" lon="13.364548981189728">
        <ele>12.15</ele>
        <time>2024-09-16T08:09:18Z</time>
      </trkpt>
      <trkpt lat="54.116163002327085" lon="13.364545963704586">
        <ele>12.15</ele>
        <time>2024-09-16T08:09:20Z</time>
      </trkpt>
      <trkpt lat="54.116035010665655" lon="13.364374972879887">
        <ele>11.67</ele>
        <time>2024-09-16T08:09:21Z</time>
      </trkpt>
      <trkpt lat="54.116035010665655" lon="13.364374972879887">
        <ele>11.67</ele>
        <time>2024-09-16T08:09:22Z</time>
      </trkpt>
      <trkpt lat="54.11600399762392" lon="13.364301966503263">
        <ele>12.15</ele>
        <time>2024-09-16T08:09:23Z</time>
      </trkpt>
      <trkpt lat="54.115939037874341" lon="13.364234995096922">
        <ele>12.15</ele>
        <time>2024-09-16T08:09:24Z</time>
      </trkpt>
      <trkpt lat="54.115882040932775" lon="13.364254022017121">
        <ele>12.15</ele>
        <time>2024-09-16T08:09:25Z</time>
      </trkpt>
      <trkpt lat="54.115812974050641" lon="13.364304983988404">
        <ele>12.15</ele>
        <time>2024-09-16T08:09:26Z</time>
      </trkpt>
      <trkpt lat="54.115778021514416" lon="13.364353012293577">
        <ele>12.15</ele>
        <time>2024-09-16T08:09:27Z</time>
      </trkpt>
      <trkpt lat="54.115743990987539" lon="13.364558033645153">
        <ele>11.67</ele>
        <time>2024-09-16T08:09:28Z</time>
      </trkpt>
      <trkpt lat="54.115671990439296" lon="13.364630034193397">
        <ele>10.710000000000001</ele>
        <time>2024-09-16T08:09:29Z</time>
      </trkpt>
      <trkpt lat="54.115592027083039" lon="13.364709997549653">
        <ele>10.23</ele>
        <time>2024-09-16T08:09:30Z</time>
      </trkpt>
      <trkpt lat="54.114923989400268" lon="13.365976000204682">
        <ele>8.789999999999999</ele>
        <time>2024-09-16T08:09:39Z</time>
      </trkpt>
      <trkpt lat="54.113740967586637" lon="13.367921020835638">
        <ele>6.87</ele>
        <time>2024-09-16T08:09:51Z</time>
      </trkpt>
      <trkpt lat="54.112415034323931" lon="13.369866963475943">
        <ele>4.94</ele>
        <time>2024-09-16T08:10:05Z</time>
      </trkpt>
      <trkpt lat="54.111007964238524" lon="13.371965959668159">
        <ele>3.5</ele>
        <time>2024-09-16T08:10:18Z</time>
      </trkpt>
      <trkpt lat="54.110348979011178" lon="13.372947983443737">
        <ele>3.98</ele>
        <time>2024-09-16T08:10:27Z</time>
      </trkpt>
      <trkpt lat="54.110082015395164" lon="13.373236991465092">
        <ele>3.5</ele>
        <time>2024-09-16T08:10:37Z</time>
      </trkpt>
      <trkpt lat="54.110044967383146" lon="13.373275967314839">
        <ele>3.5</ele>
        <time>2024-09-16T08:10:46Z</time>
      </trkpt>
      <trkpt lat="54.110044967383146" lon="13.373275967314839">
        <ele>3.5</ele>
        <time>2024-09-16T08:11:32Z</time>
      </trkpt>
      <trkpt lat="54.110044967383146" lon="13.373275967314839">
        <ele>3.5</ele>
        <time>2024-09-16T08:12:23Z</time>
      </trkpt>
      <trkpt lat="54.109898032620549" lon="13.373430026695132">
        <ele>2.06</ele>
        <time>2024-09-16T08:12:51Z</time>
      </trkpt>
      <trkpt lat="54.109745984897017" lon="13.373567992821336">
        <ele>0.62</ele>
        <time>2024-09-16T08:12:55Z</time>
      </trkpt>
      <trkpt lat="54.109241981059313" lon="13.374012988060713">
        <ele>-3.23</ele>
        <time>2024-09-16T08:13:04Z</time>
      </trkpt>
      <trkpt lat="54.109119018539786" lon="13.374106027185917">
        <ele>-3.71</ele>
        <time>2024-09-16T08:13:07Z</time>
      </trkpt>
      <trkpt lat="54.108449975028634" lon="13.374510034918785">
        <ele>-3.23</ele>
        <time>2024-09-16T08:13:17Z</time>
      </trkpt>
      <trkpt lat="54.108368000015616" lon="13.374554961919785">
        <ele>-3.23</ele>
        <time>2024-09-16T08:13:18Z</time>
      </trkpt>
      <trkpt lat="54.107331996783614" lon="13.375128032639623">
        <ele>-1.79</ele>
        <time>2024-09-16T08:13:28Z</time>
      </trkpt>
      <trkpt lat="54.106144029647112" lon="13.375786012038589">
        <ele>-4.19</ele>
        <time>2024-09-16T08:13:38Z</time>
      </trkpt>
      <trkpt lat="54.105180026963353" lon="13.376325974240899">
        <ele>-4.67</ele>
        <time>2024-09-16T08:13:48Z</time>
      </trkpt>
      <trkpt lat="54.105018004775047" lon="13.376417001709342">
        <ele>-4.67</ele>
        <time>2024-09-16T08:13:50Z</time>
      </trkpt>
      <trkpt lat="54.10493602976203" lon="13.376463018357754">
        <ele>-5.15</ele>
        <time>2024-09-16T08:13:51Z</time>
      </trkpt>
      <trkpt lat="54.103818973526359" lon="13.377084033563733">
        <ele>-4.67</ele>
        <time>2024-09-16T08:14:02Z</time>
      </trkpt>
      <trkpt lat="54.103615041822195" lon="13.377195009961724">
        <ele>-5.15</ele>
        <time>2024-09-16T08:14:04Z</time>
      </trkpt>
      <trkpt lat="54.103516973555088" lon="13.377247983589768">
        <ele>-5.15</ele>
        <time>2024-09-16T08:14:05Z</time>
      </trkpt>
      <trkpt lat="54.102720022201538" lon="13.377697002142668">
        <ele>-4.67</ele>
        <time>2024-09-16T08:14:15Z</time>
      </trkpt>
      <trkpt lat="54.102324983105063" lon="13.377906968817115">
        <ele>-3.71</ele>
        <time>2024-09-16T08:14:22Z</time>
      </trkpt>
      <trkpt lat="54.102261029183865" lon="13.377939993515611">
        <ele>-3.71</ele>
        <time>2024-09-16T08:14:23Z</time>
      </trkpt>
      <trkpt lat="54.101539012044668" lon="13.378310976549983">
        <ele>-3.23</ele>
        <time>2024-09-16T08:14:34Z</time>
      </trkpt>
      <trkpt lat="54.101340025663376" lon="13.378412984311581">
        <ele>-3.23</ele>
        <time>2024-09-16T08:14:37Z</time>
      </trkpt>
      <trkpt lat="54.101276993751526" lon="13.378446009010077">
        <ele>-2.75</ele>
        <time>2024-09-16T08:14:38Z</time>
      </trkpt>
      <trkpt lat="54.101213961839676" lon="13.378478027880192">
        <ele>-2.75</ele>
        <time>2024-09-16T08:14:39Z</time>
      </trkpt>
      <trkpt lat="54.100342998281121" lon="13.378731999546289">
        <ele>-0.82</ele>
        <time>2024-09-16T08:14:52Z</time>
      </trkpt>
      <trkpt lat="54.100206037983298" lon="13.378766030073166">
        <ele>-0.34</ele>
        <time>2024-09-16T08:14:54Z</time>
      </trkpt>
      <trkpt lat="54.099822985008359" lon="13.378768963739276">
        <ele>0.62</ele>
        <time>2024-09-16T08:15:03Z</time>
      </trkpt>
      <trkpt lat="54.099784009158611" lon="13.378768041729927">
        <ele>0.62</ele>
        <time>2024-09-16T08:15:04Z</time>
      </trkpt>
      <trkpt lat="54.099735980853438" lon="13.378766030073166">
        <ele>0.62</ele>
        <time>2024-09-16T08:15:05Z</time>
      </trkpt>
      <trkpt lat="54.099070960655808" lon="13.378754965960979">
        <ele>1.1</ele>
        <time>2024-09-16T08:15:15Z</time>
      </trkpt>
      <trkpt lat="54.098940035328269" lon="13.378763012588024">
        <ele>1.58</ele>
        <time>2024-09-16T08:15:17Z</time>
      </trkpt>
      <trkpt lat="54.098871974274516" lon="13.378767035901546">
        <ele>1.58</ele>
        <time>2024-09-16T08:15:18Z</time>
      </trkpt>
      <trkpt lat="54.098810032010078" lon="13.378770975396037">
        <ele>2.06</ele>
        <time>2024-09-16T08:15:19Z</time>
      </trkpt>
      <trkpt lat="54.098781030625105" lon="13.378883041441441">
        <ele>2.06</ele>
        <time>2024-09-16T08:15:20Z</time>
      </trkpt>
      <trkpt lat="54.098778013139963" lon="13.378980020061135">
        <ele>2.54</ele>
        <time>2024-09-16T08:15:21Z</time>
      </trkpt>
      <trkpt lat="54.098776001483202" lon="13.379079010337591">
        <ele>2.54</ele>
        <time>2024-09-16T08:15:22Z</time>
      </trkpt>
      <trkpt lat="54.09877298399806" lon="13.379185041412711">
        <ele>3.02</ele>
        <time>2024-09-16T08:15:23Z</time>
      </trkpt>
      <trkpt lat="54.098770972341299" lon="13.379302974790335">
        <ele>3.02</ele>
        <time>2024-09-16T08:15:24Z</time>
      </trkpt>
      <trkpt lat="54.098767032846808" lon="13.379431972280145">
        <ele>3.02</ele>
        <time>2024-09-16T08:15:25Z</time>
      </trkpt>
      <trkpt lat="54.098810032010078" lon="13.381249001249671">
        <ele>2.54</ele>
        <time>2024-09-16T08:15:39Z</time>
      </trkpt>
      <trkpt lat="54.098880020901561" lon="13.382120970636606">
        <ele>3.98</ele>
        <time>2024-09-16T08:15:50Z</time>
      </trkpt>
      <trkpt lat="54.098940035328269" lon="13.382747014984488">
        <ele>5.91</ele>
        <time>2024-09-16T08:16:00Z</time>
      </trkpt>
      <trkpt lat="54.099121000617743" lon="13.384170010685921">
        <ele>6.87</ele>
        <time>2024-09-16T08:16:12Z</time>
      </trkpt>
      <trkpt lat="54.099169028922915" lon="13.384565971791744">
        <ele>7.35</ele>
        <time>2024-09-16T08:16:16Z</time>
      </trkpt>
      <trkpt lat="54.099169028922915" lon="13.384765964001417">
        <ele>7.35</ele>
        <time>2024-09-16T08:16:17Z</time>
      </trkpt>
      <trkpt lat="54.099169028922915" lon="13.384890016168356">
        <ele>7.35</ele>
        <time>2024-09-16T08:16:18Z</time>
      </trkpt>
      <trkpt lat="54.099169028922915" lon="13.384997975081205">
        <ele>7.35</ele>
        <time>2024-09-16T08:16:19Z</time>
      </trkpt>
      <trkpt lat="54.099155031144619" lon="13.385125966742635">
        <ele>7.35</ele>
        <time>2024-09-16T08:16:20Z</time>
      </trkpt>
      <trkpt lat="54.099141033366323" lon="13.385257981717587">
        <ele>7.83</ele>
        <time>2024-09-16T08:16:21Z</time>
      </trkpt>
      <trkpt lat="54.099127035588026" lon="13.385387985035777">
        <ele>7.83</ele>
        <time>2024-09-16T08:16:22Z</time>
      </trkpt>
      <trkpt lat="54.09911303780973" lon="13.385516982525587">
        <ele>7.83</ele>
        <time>2024-09-16T08:16:23Z</time>
      </trkpt>
      <trkpt lat="54.099099040031433" lon="13.385647991672158">
        <ele>7.83</ele>
        <time>2024-09-16T08:16:24Z</time>
      </trkpt>
      <trkpt lat="54.098807014524937" lon="13.386654993519187">
        <ele>8.789999999999999</ele>
        <time>2024-09-16T08:16:32Z</time>
      </trkpt>
      <trkpt lat="54.098265962675214" lon="13.387525035068393">
        <ele>9.27</ele>
        <time>2024-09-16T08:16:39Z</time>
      </trkpt>
      <trkpt lat="54.098167978227139" lon="13.387604998424649">
        <ele>8.789999999999999</ele>
        <time>2024-09-16T08:16:40Z</time>
      </trkpt>
      <trkpt lat="54.098063036799431" lon="13.387680016458035">
        <ele>8.789999999999999</ele>
        <time>2024-09-16T08:16:41Z</time>
      </trkpt>
      <trkpt lat="54.097958011552691" lon="13.38775503449142">
        <ele>8.310000000000001</ele>
        <time>2024-09-16T08:16:42Z</time>
      </trkpt>
      <trkpt lat="54.097852986305952" lon="13.387829968705773">
        <ele>8.310000000000001</ele>
        <time>2024-09-16T08:16:43Z</time>
      </trkpt>
      <trkpt lat="54.096827041357756" lon="13.387793004512787">
        <ele>8.310000000000001</ele>
        <time>2024-09-16T08:16:52Z</time>
      </trkpt>
      <trkpt lat="54.095029961317778" lon="13.387439958751202">
        <ele>9.75</ele>
        <time>2024-09-16T08:17:08Z</time>
      </trkpt>
      <trkpt lat="54.094853019341826" lon="13.387422021478415">
        <ele>9.75</ele>
        <time>2024-09-16T08:17:10Z</time>
      </trkpt>
      <trkpt lat="54.094785964116454" lon="13.387415986508131">
        <ele>10.23</ele>
        <time>2024-09-16T08:17:11Z</time>
      </trkpt>
      <trkpt lat="54.094731984660029" lon="13.387410035356879">
        <ele>10.710000000000001</ele>
        <time>2024-09-16T08:17:12Z</time>
      </trkpt>
      <trkpt lat="54.094620002433658" lon="13.387398971244693">
        <ele>10.710000000000001</ele>
        <time>2024-09-16T08:17:13Z</time>
      </trkpt>
      <trkpt lat="54.094584966078401" lon="13.38775503449142">
        <ele>10.710000000000001</ele>
        <time>2024-09-16T08:17:14Z</time>
      </trkpt>
      <trkpt lat="54.094611033797264" lon="13.38786399923265">
        <ele>11.19</ele>
        <time>2024-09-16T08:17:15Z</time>
      </trkpt>
      <trkpt lat="54.094642968848348" lon="13.387998025864363">
        <ele>10.710000000000001</ele>
        <time>2024-09-16T08:17:16Z</time>
      </trkpt>
      <trkpt lat="54.094673981890082" lon="13.388144038617611">
        <ele>10.710000000000001</ele>
        <time>2024-09-16T08:17:17Z</time>
      </trkpt>
      <trkpt lat="54.094758974388242" lon="13.388653993606567">
        <ele>10.710000000000001</ele>
        <time>2024-09-16T08:17:20Z</time>
      </trkpt>
      <trkpt lat="54.095006994903088" lon="13.390595996752381">
        <ele>7.35</ele>
        <time>2024-09-16T08:17:30Z</time>
      </trkpt>
      <trkpt lat="54.095134986564517" lon="13.392815021798015">
        <ele>8.789999999999999</ele>
        <time>2024-09-16T08:17:41Z</time>
      </trkpt>
      <trkpt lat="54.095052005723119" lon="13.394601037725806">
        <ele>6.87</ele>
        <time>2024-09-16T08:17:50Z</time>
      </trkpt>
      <trkpt lat="54.094902975484729" lon="13.397029023617506">
        <ele>7.83</ele>
        <time>2024-09-16T08:18:02Z</time>
      </trkpt>
      <trkpt lat="54.094816977158189" lon="13.398572970181704">
        <ele>6.87</ele>
        <time>2024-09-16T08:18:10Z</time>
      </trkpt>
      <trkpt lat="54.094809014350176" lon="13.39871596544981">
        <ele>6.87</ele>
        <time>2024-09-16T08:18:11Z</time>
      </trkpt>
      <trkpt lat="54.094802979379892" lon="13.398826019838452">
        <ele>6.87</ele>
        <time>2024-09-16T08:18:12Z</time>
      </trkpt>
      <trkpt lat="54.094790993258357" lon="13.399032969027758">
        <ele>7.35</ele>
        <time>2024-09-16T08:18:19Z</time>
      </trkpt>
      <trkpt lat="54.094765009358525" lon="13.399517023935914">
        <ele>7.83</ele>
        <time>2024-09-16T08:18:27Z</time>
      </trkpt>
      <trkpt lat="54.094727039337158" lon="13.400316992774606">
        <ele>7.35</ele>
        <time>2024-09-16T08:18:33Z</time>
      </trkpt>
      <trkpt lat="54.094722010195255" lon="13.400417994707823">
        <ele>6.87</ele>
        <time>2024-09-16T08:18:34Z</time>
      </trkpt>
      <trkpt lat="54.094716981053352" lon="13.400512961670756">
        <ele>6.87</ele>
        <time>2024-09-16T08:18:35Z</time>
      </trkpt>
      <trkpt lat="54.094713963568211" lon="13.400586973875761">
        <ele>6.39</ele>
        <time>2024-09-16T08:18:36Z</time>
      </trkpt>
      <trkpt lat="54.094712035730481" lon="13.400633996352553">
        <ele>5.91</ele>
        <time>2024-09-16T08:18:37Z</time>
      </trkpt>
      <trkpt lat="54.094709018245339" lon="13.40069099329412">
        <ele>5.42</ele>
        <time>2024-09-16T08:18:38Z</time>
      </trkpt>
      <trkpt lat="54.094709018245339" lon="13.40069099329412">
        <ele>4.46</ele>
        <time>2024-09-16T08:18:44Z</time>
      </trkpt>
      <trkpt lat="54.094697032123804" lon="13.400940019637346">
        <ele>5.91</ele>
        <time>2024-09-16T08:19:11Z</time>
      </trkpt>
      <trkpt lat="54.094644980505109" lon="13.401866974309087">
        <ele>5.91</ele>
        <time>2024-09-16T08:19:18Z</time>
      </trkpt>
      <trkpt lat="54.094479018822312" lon="13.403762960806489">
        <ele>6.87</ele>
        <time>2024-09-16T08:19:29Z</time>
      </trkpt>
      <trkpt lat="54.094238039106131" lon="13.405432971194386">
        <ele>13.6</ele>
        <time>2024-09-16T08:19:38Z</time>
      </trkpt>
      <trkpt lat="54.094207026064396" lon="13.40561100281775">
        <ele>15.039999999999999</ele>
        <time>2024-09-16T08:19:39Z</time>
      </trkpt>
      <trkpt lat="54.093950036913157" lon="13.407041039317846">
        <ele>21.77</ele>
        <time>2024-09-16T08:19:47Z</time>
      </trkpt>
      <trkpt lat="54.093573018908501" lon="13.408791013062">
        <ele>22.25</ele>
        <time>2024-09-16T08:19:57Z</time>
      </trkpt>
      <trkpt lat="54.093189965933561" lon="13.410718012601137">
        <ele>18.879999999999999</ele>
        <time>2024-09-16T08:20:08Z</time>
      </trkpt>
      <trkpt lat="54.093155013397336" lon="13.410883974283934">
        <ele>18.879999999999999</ele>
        <time>2024-09-16T08:20:09Z</time>
      </trkpt>
      <trkpt lat="54.093119977042079" lon="13.411050019785762">
        <ele>18.399999999999999</ele>
        <time>2024-09-16T08:20:10Z</time>
      </trkpt>
      <trkpt lat="54.092708006501198" lon="13.413052037358284">
        <ele>17.440000000000001</ele>
        <time>2024-09-16T08:20:21Z</time>
      </trkpt>
      <trkpt lat="54.092279020696878" lon="13.415131000801921">
        <ele>16.960000000000001</ele>
        <time>2024-09-16T08:20:32Z</time>
      </trkpt>
      <trkpt lat="54.092239961028099" lon="13.415325041860342">
        <ele>16.960000000000001</ele>
        <time>2024-09-16T08:20:33Z</time>
      </trkpt>
      <trkpt lat="54.091819021850824" lon="13.417453961446881">
        <ele>21.289999999999999</ele>
        <time>2024-09-16T08:20:44Z</time>
      </trkpt>
      <trkpt lat="54.091515010222793" lon="13.419181974604726">
        <ele>21.289999999999999</ele>
        <time>2024-09-16T08:20:53Z</time>
      </trkpt>
      <trkpt lat="54.09116598777473" lon="13.421280970796943">
        <ele>20.32</ele>
        <time>2024-09-16T08:21:04Z</time>
      </trkpt>
      <trkpt lat="54.090814031660557" lon="13.423200007528067">
        <ele>18.879999999999999</ele>
        <time>2024-09-16T08:21:14Z</time>
      </trkpt>
      <trkpt lat="54.090467020869255" lon="13.425115020945668">
        <ele>17.920000000000002</ele>
        <time>2024-09-16T08:21:24Z</time>
      </trkpt>
      <trkpt lat="54.090198967605829" lon="13.427468994632363">
        <ele>17.920000000000002</ele>
        <time>2024-09-16T08:21:36Z</time>
      </trkpt>
      <trkpt lat="54.090182958170772" lon="13.427820028737187">
        <ele>18.399999999999999</ele>
        <time>2024-09-16T08:21:38Z</time>
      </trkpt>
      <trkpt lat="54.090125961229205" lon="13.429300021380186">
        <ele>20.32</ele>
        <time>2024-09-16T08:21:47Z</time>
      </trkpt>
      <trkpt lat="54.090072987601161" lon="13.431247975677252">
        <ele>19.359999999999999</ele>
        <time>2024-09-16T08:21:57Z</time>
      </trkpt>
      <trkpt lat="54.089998975396156" lon="13.434053985401988">
        <ele>15.52</ele>
        <time>2024-09-16T08:22:11Z</time>
      </trkpt>
      <trkpt lat="54.08992001786828" lon="13.436671989038587">
        <ele>13.119999999999999</ele>
        <time>2024-09-16T08:22:24Z</time>
      </trkpt>
      <trkpt lat="54.089983971789479" lon="13.43925504013896">
        <ele>9.27</ele>
        <time>2024-09-16T08:22:37Z</time>
      </trkpt>
      <trkpt lat="54.090236015617847" lon="13.44082698225975">
        <ele>8.310000000000001</ele>
        <time>2024-09-16T08:22:46Z</time>
      </trkpt>
      <trkpt lat="54.090318996459246" lon="13.44119100831449">
        <ele>7.35</ele>
        <time>2024-09-16T08:22:49Z</time>
      </trkpt>
      <trkpt lat="54.090704983100295" lon="13.44308003783226">
        <ele>4.46</ele>
        <time>2024-09-16T08:23:04Z</time>
      </trkpt>
      <trkpt lat="54.09071403555572" lon="13.443219009786844">
        <ele>4.46</ele>
        <time>2024-09-16T08:23:05Z</time>
      </trkpt>
      <trkpt lat="54.090723004192114" lon="13.443358987569809">
        <ele>4.46</ele>
        <time>2024-09-16T08:23:06Z</time>
      </trkpt>
      <trkpt lat="54.090731972828507" lon="13.443499971181154">
        <ele>4.46</ele>
        <time>2024-09-16T08:23:07Z</time>
      </trkpt>
      <trkpt lat="54.090729961171746" lon="13.443641038611531">
        <ele>3.98</ele>
        <time>2024-09-16T08:23:08Z</time>
      </trkpt>
      <trkpt lat="54.09071403555572" lon="13.443785961717367">
        <ele>3.98</ele>
        <time>2024-09-16T08:23:09Z</time>
      </trkpt>
      <trkpt lat="54.090699031949043" lon="13.443930968642235">
        <ele>3.98</ele>
        <time>2024-09-16T08:23:10Z</time>
      </trkpt>
      <trkpt lat="54.090590989217162" lon="13.444510996341705">
        <ele>3.5</ele>
        <time>2024-09-16T08:23:14Z</time>
      </trkpt>
      <trkpt lat="54.09028697758913" lon="13.445750009268522">
        <ele>-0.82</ele>
        <time>2024-09-16T08:23:24Z</time>
      </trkpt>
      <trkpt lat="54.090010961517692" lon="13.446835968643427">
        <ele>-0.34</ele>
        <time>2024-09-16T08:23:34Z</time>
      </trkpt>
      <trkpt lat="54.0896409843117" lon="13.448584014549851">
        <ele>2.06</ele>
        <time>2024-09-16T08:23:47Z</time>
      </trkpt>
      <trkpt lat="54.089607037603855" lon="13.448745030909777">
        <ele>2.06</ele>
        <time>2024-09-16T08:23:48Z</time>
      </trkpt>
      <trkpt lat="54.089573007076979" lon="13.448906969279051">
        <ele>2.06</ele>
        <time>2024-09-16T08:23:49Z</time>
      </trkpt>
      <trkpt lat="54.089161036536098" lon="13.450941005721688">
        <ele>3.98</ele>
        <time>2024-09-16T08:24:02Z</time>
      </trkpt>
      <trkpt lat="54.089118037372828" lon="13.451070003211498">
        <ele>4.46</ele>
        <time>2024-09-16T08:24:03Z</time>
      </trkpt>
      <trkpt lat="54.088954003527761" lon="13.451421959325671">
        <ele>4.94</ele>
        <time>2024-09-16T08:24:06Z</time>
      </trkpt>
      <trkpt lat="54.088292000815272" lon="13.452807990834117">
        <ele>4.94</ele>
        <time>2024-09-16T08:24:18Z</time>
      </trkpt>
      <trkpt lat="54.088080022484064" lon="13.453463958576322">
        <ele>3.5</ele>
        <time>2024-09-16T08:24:23Z</time>
      </trkpt>
      <trkpt lat="54.087841976433992" lon="13.454587971791625">
        <ele>4.46</ele>
        <time>2024-09-16T08:24:31Z</time>
      </trkpt>
      <trkpt lat="54.087637038901448" lon="13.455624980852008">
        <ele>6.39</ele>
        <time>2024-09-16T08:24:38Z</time>
      </trkpt>
      <trkpt lat="54.087279969826341" lon="13.457274958491325">
        <ele>6.87</ele>
        <time>2024-09-16T08:24:47Z</time>
      </trkpt>
      <trkpt lat="54.086874034255743" lon="13.45917597413063">
        <ele>5.42</ele>
        <time>2024-09-16T08:24:57Z</time>
      </trkpt>
      <trkpt lat="54.086711006239057" lon="13.459955994039774">
        <ele>6.39</ele>
        <time>2024-09-16T08:25:01Z</time>
      </trkpt>
      <trkpt lat="54.086671024560928" lon="13.460146011784673">
        <ele>6.39</ele>
        <time>2024-09-16T08:25:02Z</time>
      </trkpt>
      <trkpt lat="54.086228962987661" lon="13.462199997156858">
        <ele>8.310000000000001</ele>
        <time>2024-09-16T08:25:11Z</time>
      </trkpt>
      <trkpt lat="54.08549596555531" lon="13.465616963803768">
        <ele>8.789999999999999</ele>
        <time>2024-09-16T08:25:22Z</time>
      </trkpt>
      <trkpt lat="54.084633970633149" lon="13.469638014212251">
        <ele>8.789999999999999</ele>
        <time>2024-09-16T08:25:33Z</time>
      </trkpt>
      <trkpt lat="54.08409995958209" lon="13.472132971510291">
        <ele>7.35</ele>
        <time>2024-09-16T08:25:40Z</time>
      </trkpt>
      <trkpt lat="54.083084994927049" lon="13.476864974945784">
        <ele>7.35</ele>
        <time>2024-09-16T08:25:54Z</time>
      </trkpt>
      <trkpt lat="54.082032982259989" lon="13.480697013437748">
        <ele>9.75</ele>
        <time>2024-09-16T08:26:05Z</time>
      </trkpt>
      <trkpt lat="54.080672012642026" lon="13.484832979738712">
        <ele>9.27</ele>
        <time>2024-09-16T08:26:18Z</time>
      </trkpt>
      <trkpt lat="54.080017972737551" lon="13.488282971084118">
        <ele>7.35</ele>
        <time>2024-09-16T08:26:29Z</time>
      </trkpt>
      <trkpt lat="54.07906997948885" lon="13.493717964738607">
        <ele>8.310000000000001</ele>
        <time>2024-09-16T08:26:45Z</time>
      </trkpt>
      <trkpt lat="54.078557007014751" lon="13.498000027611852">
        <ele>4.46</ele>
        <time>2024-09-16T08:26:57Z</time>
      </trkpt>
      <trkpt lat="54.078390961512923" lon="13.50291701965034">
        <ele>2.06</ele>
        <time>2024-09-16T08:27:11Z</time>
      </trkpt>
      <trkpt lat="54.078040011227131" lon="13.506432976573706">
        <ele>3.5</ele>
        <time>2024-09-16T08:27:21Z</time>
      </trkpt>
      <trkpt lat="54.07720198854804" lon="13.509631007909775">
        <ele>5.91</ele>
        <time>2024-09-16T08:27:31Z</time>
      </trkpt>
      <trkpt lat="54.076132038608193" lon="13.513860013335943">
        <ele>8.789999999999999</ele>
        <time>2024-09-16T08:27:45Z</time>
      </trkpt>
      <trkpt lat="54.075922993943095" lon="13.517016973346472">
        <ele>8.789999999999999</ele>
        <time>2024-09-16T08:27:56Z</time>
      </trkpt>
      <trkpt lat="54.075643038377166" lon="13.522012000903487">
        <ele>6.87</ele>
        <time>2024-09-16T08:28:12Z</time>
      </trkpt>
      <trkpt lat="54.075672039762139" lon="13.525148006156087">
        <ele>6.39</ele>
        <time>2024-09-16T08:28:22Z</time>
      </trkpt>
      <trkpt lat="54.076034976169467" lon="13.527547996491194">
        <ele>6.39</ele>
        <time>2024-09-16T08:28:30Z</time>
      </trkpt>
      <trkpt lat="54.076911974698305" lon="13.530285023152828">
        <ele>5.91</ele>
        <time>2024-09-16T08:28:40Z</time>
      </trkpt>
      <trkpt lat="54.078045962378383" lon="13.532324004918337">
        <ele>6.87</ele>
        <time>2024-09-16T08:28:49Z</time>
      </trkpt>
      <trkpt lat="54.078887002542615" lon="13.533278033137321">
        <ele>5.91</ele>
        <time>2024-09-16T08:28:55Z</time>
      </trkpt>
      <trkpt lat="54.080414017662406" lon="13.534298026934266">
        <ele>5.42</ele>
        <time>2024-09-16T08:29:05Z</time>
      </trkpt>
      <trkpt lat="54.082474960014224" lon="13.534966986626387">
        <ele>4.46</ele>
        <time>2024-09-16T08:29:17Z</time>
      </trkpt>
      <trkpt lat="54.08371296711266" lon="13.535775002092123">
        <ele>4.46</ele>
        <time>2024-09-16T08:29:25Z</time>
      </trkpt>
      <trkpt lat="54.084973018616438" lon="13.537402013316751">
        <ele>5.42</ele>
        <time>2024-09-16T08:29:35Z</time>
      </trkpt>
      <trkpt lat="54.086184035986662" lon="13.539779959246516">
        <ele>8.789999999999999</ele>
        <time>2024-09-16T08:29:45Z</time>
      </trkpt>
      <trkpt lat="54.087973991408944" lon="13.543333970010281">
        <ele>16</ele>
        <time>2024-09-16T08:29:59Z</time>
      </trkpt>
      <trkpt lat="54.089419031515718" lon="13.545934958383441">
        <ele>16</ele>
        <time>2024-09-16T08:30:09Z</time>
      </trkpt>
      <trkpt lat="54.090898018330336" lon="13.547453004866838">
        <ele>16</ele>
        <time>2024-09-16T08:30:17Z</time>
      </trkpt>
      <trkpt lat="54.09290598705411" lon="13.549240026623011">
        <ele>20.809999999999999</ele>
        <time>2024-09-16T08:30:27Z</time>
      </trkpt>
      <trkpt lat="54.094442976638675" lon="13.550608037039638">
        <ele>25.609999999999999</ele>
        <time>2024-09-16T08:30:35Z</time>
      </trkpt>
      <trkpt lat="54.096463015303016" lon="13.552579041570425">
        <ele>26.57</ele>
        <time>2024-09-16T08:30:46Z</time>
      </trkpt>
      <trkpt lat="54.096620008349419" lon="13.552818009629846">
        <ele>26.57</ele>
        <time>2024-09-16T08:30:47Z</time>
      </trkpt>
      <trkpt lat="54.098495962098241" lon="13.55568596161902">
        <ele>26.57</ele>
        <time>2024-09-16T08:30:59Z</time>
      </trkpt>
      <trkpt lat="54.100658996030688" lon="13.558991029858589">
        <ele>25.609999999999999</ele>
        <time>2024-09-16T08:31:13Z</time>
      </trkpt>
      <trkpt lat="54.102419028058648" lon="13.561766026541591">
        <ele>24.170000000000002</ele>
        <time>2024-09-16T08:31:25Z</time>
      </trkpt>
      <trkpt lat="54.103122018277645" lon="13.563506025820971">
        <ele>23.690000000000001</ele>
        <time>2024-09-16T08:31:33Z</time>
      </trkpt>
      <trkpt lat="54.103527031838894" lon="13.565459009259939">
        <ele>21.289999999999999</ele>
        <time>2024-09-16T08:31:43Z</time>
      </trkpt>
      <trkpt lat="54.104038998484612" lon="13.567322976887226">
        <ele>21.289999999999999</ele>
        <time>2024-09-16T08:31:52Z</time>
      </trkpt>
      <trkpt lat="54.104943992570043" lon="13.568884022533894">
        <ele>20.32</ele>
        <time>2024-09-16T08:31:59Z</time>
      </trkpt>
      <trkpt lat="54.106137994676828" lon="13.569913990795612">
        <ele>19.84</ele>
        <time>2024-09-16T08:32:05Z</time>
      </trkpt>
      <trkpt lat="54.108028030022979" lon="13.570610024034977">
        <ele>18.879999999999999</ele>
        <time>2024-09-16T08:32:13Z</time>
      </trkpt>
      <trkpt lat="54.109976990148425" lon="13.571452992036939">
        <ele>17.920000000000002</ele>
        <time>2024-09-16T08:32:22Z</time>
      </trkpt>
      <trkpt lat="54.111569970846176" lon="13.572802981361747">
        <ele>19.84</ele>
        <time>2024-09-16T08:32:30Z</time>
      </trkpt>
      <trkpt lat="54.112937981262803" lon="13.573575038462877">
        <ele>21.77</ele>
        <time>2024-09-16T08:32:38Z</time>
      </trkpt>
      <trkpt lat="54.114643028005958" lon="13.574563013389707">
        <ele>19.84</ele>
        <time>2024-09-16T08:32:49Z</time>
      </trkpt>
      <trkpt lat="54.115849016234279" lon="13.575823986902833">
        <ele>21.77</ele>
        <time>2024-09-16T08:32:59Z</time>
      </trkpt>
      <trkpt lat="54.116822993382812" lon="13.577446974813938">
        <ele>23.690000000000001</ele>
        <time>2024-09-16T08:33:09Z</time>
      </trkpt>
      <trkpt lat="54.117783978581429" lon="13.579013971611857">
        <ele>23.210000000000001</ele>
        <time>2024-09-16T08:33:19Z</time>
      </trkpt>
      <trkpt lat="54.118628036230803" lon="13.580432021990418">
        <ele>22.25</ele>
        <time>2024-09-16T08:33:24Z</time>
      </trkpt>
      <trkpt lat="54.119651969522238" lon="13.582119969651103">
        <ele>21.289999999999999</ele>
        <time>2024-09-16T08:33:31Z</time>
      </trkpt>
      <trkpt lat="54.120854018256068" lon="13.584409989416599">
        <ele>21.289999999999999</ele>
        <time>2024-09-16T08:33:42Z</time>
      </trkpt>
      <trkpt lat="54.121340001001954" lon="13.586038006469607">
        <ele>20.809999999999999</ele>
        <time>2024-09-16T08:33:50Z</time>
      </trkpt>
      <trkpt lat="54.121778961271048" lon="13.588244961574674">
        <ele>21.77</ele>
        <time>2024-09-16T08:34:00Z</time>
      </trkpt>
      <trkpt lat="54.122581025585532" lon="13.59186502173543">
        <ele>20.809999999999999</ele>
        <time>2024-09-16T08:34:13Z</time>
      </trkpt>
      <trkpt lat="54.123486019670963" lon="13.593859998509288">
        <ele>21.289999999999999</ele>
        <time>2024-09-16T08:34:21Z</time>
      </trkpt>
      <trkpt lat="54.124817987903953" lon="13.5961630102247">
        <ele>21.289999999999999</ele>
        <time>2024-09-16T08:34:31Z</time>
      </trkpt>
      <trkpt lat="54.126696959137917" lon="13.599409991875291">
        <ele>20.809999999999999</ele>
        <time>2024-09-16T08:34:43Z</time>
      </trkpt>
      <trkpt lat="54.128352971747518" lon="13.602410964667797">
        <ele>19.84</ele>
        <time>2024-09-16T08:34:54Z</time>
      </trkpt>
      <trkpt lat="54.128967029973865" lon="13.604389009997249">
        <ele>19.359999999999999</ele>
        <time>2024-09-16T08:35:01Z</time>
      </trkpt>
      <trkpt lat="54.12902201525867" lon="13.604685980826616">
        <ele>19.359999999999999</ele>
        <time>2024-09-16T08:35:02Z</time>
      </trkpt>
      <trkpt lat="54.12906501442194" lon="13.604992004111409">
        <ele>19.359999999999999</ele>
        <time>2024-09-16T08:35:03Z</time>
      </trkpt>
      <trkpt lat="54.129018997773528" lon="13.607273977249861">
        <ele>19.359999999999999</ele>
        <time>2024-09-16T08:35:10Z</time>
      </trkpt>
      <trkpt lat="54.128467971459031" lon="13.609772035852075">
        <ele>17.440000000000001</ele>
        <time>2024-09-16T08:35:18Z</time>
      </trkpt>
      <trkpt lat="54.127873023971915" lon="13.611942026764154">
        <ele>16.960000000000001</ele>
        <time>2024-09-16T08:35:26Z</time>
      </trkpt>
      <trkpt lat="54.12782097235322" lon="13.612168002873659">
        <ele>16.960000000000001</ele>
        <time>2024-09-16T08:35:28Z</time>
      </trkpt>
      <trkpt lat="54.127664985135198" lon="13.613240970298648">
        <ele>17.920000000000002</ele>
        <time>2024-09-16T08:35:33Z</time>
      </trkpt>
      <trkpt lat="54.127534981817007" lon="13.613381031900644">
        <ele>17.920000000000002</ele>
        <time>2024-09-16T08:35:34Z</time>
      </trkpt>
      <trkpt lat="54.127521989867091" lon="13.613513968884945">
        <ele>17.920000000000002</ele>
        <time>2024-09-16T08:35:35Z</time>
      </trkpt>
      <trkpt lat="54.127515032887459" lon="13.613584041595459">
        <ele>18.399999999999999</ele>
        <time>2024-09-16T08:35:36Z</time>
      </trkpt>
      <trkpt lat="54.127634977921844" lon="13.613833989948034">
        <ele>18.399999999999999</ele>
        <time>2024-09-16T08:35:37Z</time>
      </trkpt>
      <trkpt lat="54.127618968486786" lon="13.613988971337676">
        <ele>17.920000000000002</ele>
        <time>2024-09-16T08:35:38Z</time>
      </trkpt>
      <trkpt lat="54.127600025385618" lon="13.614161973819137">
        <ele>18.399999999999999</ele>
        <time>2024-09-16T08:35:39Z</time>
      </trkpt>
      <trkpt lat="54.127578986808658" lon="13.614357020705938">
        <ele>18.399999999999999</ele>
        <time>2024-09-16T08:35:40Z</time>
      </trkpt>
      <trkpt lat="54.127751989290118" lon="13.616396002471447">
        <ele>19.84</ele>
        <time>2024-09-16T08:35:48Z</time>
      </trkpt>
      <trkpt lat="54.12829396314919" lon="13.618459962308407">
        <ele>21.289999999999999</ele>
        <time>2024-09-16T08:35:55Z</time>
      </trkpt>
      <trkpt lat="54.129264000803232" lon="13.620287971571088">
        <ele>20.809999999999999</ele>
        <time>2024-09-16T08:36:02Z</time>
      </trkpt>
      <trkpt lat="54.129412025213242" lon="13.620532974600792">
        <ele>20.809999999999999</ele>
        <time>2024-09-16T08:36:03Z</time>
      </trkpt>
      <trkpt lat="54.129704972729087" lon="13.621035972610116">
        <ele>21.289999999999999</ele>
        <time>2024-09-16T08:36:05Z</time>
      </trkpt>
      <trkpt lat="54.130513994023204" lon="13.623230019584298">
        <ele>20.809999999999999</ele>
        <time>2024-09-16T08:36:12Z</time>
      </trkpt>
      <trkpt lat="54.130592029541731" lon="13.623583987355232">
        <ele>20.809999999999999</ele>
        <time>2024-09-16T08:36:13Z</time>
      </trkpt>
      <trkpt lat="54.131223019212484" lon="13.626507008448243">
        <ele>22.25</ele>
        <time>2024-09-16T08:36:21Z</time>
      </trkpt>
      <trkpt lat="54.132075039669871" lon="13.629339002072811">
        <ele>23.690000000000001</ele>
        <time>2024-09-16T08:36:29Z</time>
      </trkpt>
      <trkpt lat="54.133015992119908" lon="13.6320870090276">
        <ele>23.690000000000001</ele>
        <time>2024-09-16T08:36:37Z</time>
      </trkpt>
      <trkpt lat="54.134169006720185" lon="13.635439015924931">
        <ele>22.25</ele>
        <time>2024-09-16T08:36:47Z</time>
      </trkpt>
      <trkpt lat="54.135323027148843" lon="13.638749029487371">
        <ele>19.359999999999999</ele>
        <time>2024-09-16T08:36:57Z</time>
      </trkpt>
      <trkpt lat="54.136376967653632" lon="13.641757965087891">
        <ele>17.440000000000001</ele>
        <time>2024-09-16T08:37:07Z</time>
      </trkpt>
      <trkpt lat="54.137233011424541" lon="13.644177988171577">
        <ele>13.6</ele>
        <time>2024-09-16T08:37:17Z</time>
      </trkpt>
      <trkpt lat="54.138034991919994" lon="13.646886013448238">
        <ele>4.94</ele>
        <time>2024-09-16T08:37:27Z</time>
      </trkpt>
      <trkpt lat="54.13849800825119" lon="13.649917999282479">
        <ele>-1.3</ele>
        <time>2024-09-16T08:37:37Z</time>
      </trkpt>
      <trkpt lat="54.138565985485911" lon="13.651708038523793">
        <ele>-1.79</ele>
        <time>2024-09-16T08:37:44Z</time>
      </trkpt>
      <trkpt lat="54.138422990217805" lon="13.654217999428511">
        <ele>3.02</ele>
        <time>2024-09-16T08:37:56Z</time>
      </trkpt>
      <trkpt lat="54.138315031304955" lon="13.655494982376695">
        <ele>3.98</ele>
        <time>2024-09-16T08:38:02Z</time>
      </trkpt>
      <trkpt lat="54.138102969154716" lon="13.657624991610646">
        <ele>4.46</ele>
        <time>2024-09-16T08:38:11Z</time>
      </trkpt>
      <trkpt lat="54.13778998889029" lon="13.66085596382618">
        <ele>7.35</ele>
        <time>2024-09-16T08:38:23Z</time>
      </trkpt>
      <trkpt lat="54.13753098808229" lon="13.663745960220695">
        <ele>10.23</ele>
        <time>2024-09-16T08:38:34Z</time>
      </trkpt>
      <trkpt lat="54.13725396618247" lon="13.66680895909667">
        <ele>10.710000000000001</ele>
        <time>2024-09-16T08:38:46Z</time>
      </trkpt>
      <trkpt lat="54.136982979252934" lon="13.66996499709785">
        <ele>12.15</ele>
        <time>2024-09-16T08:38:58Z</time>
      </trkpt>
      <trkpt lat="54.136720038950443" lon="13.673343993723392">
        <ele>14.56</ele>
        <time>2024-09-16T08:39:10Z</time>
      </trkpt>
      <trkpt lat="54.136548964306712" lon="13.67639098316431">
        <ele>21.289999999999999</ele>
        <time>2024-09-16T08:39:20Z</time>
      </trkpt>
      <trkpt lat="54.136351989582181" lon="13.679702002555132">
        <ele>25.609999999999999</ele>
        <time>2024-09-16T08:39:29Z</time>
      </trkpt>
      <trkpt lat="54.136130958795547" lon="13.683594977483153">
        <ele>28.02</ele>
        <time>2024-09-16T08:39:39Z</time>
      </trkpt>
      <trkpt lat="54.13602702319622" lon="13.687234986573458">
        <ele>27.050000000000001</ele>
        <time>2024-09-16T08:39:49Z</time>
      </trkpt>
      <trkpt lat="54.136075973510742" lon="13.687565987929702">
        <ele>27.050000000000001</ele>
        <time>2024-09-16T08:39:50Z</time>
      </trkpt>
      <trkpt lat="54.136154009029269" lon="13.687878968194127">
        <ele>27.050000000000001</ele>
        <time>2024-09-16T08:39:51Z</time>
      </trkpt>
      <trkpt lat="54.136356012895703" lon="13.688444998115301">
        <ele>26.57</ele>
        <time>2024-09-16T08:39:53Z</time>
      </trkpt>
      <trkpt lat="54.136469000950456" lon="13.688702993094921">
        <ele>26.57</ele>
        <time>2024-09-16T08:39:54Z</time>
      </trkpt>
      <trkpt lat="54.136621970683336" lon="13.688910026103258">
        <ele>26.09</ele>
        <time>2024-09-16T08:39:55Z</time>
      </trkpt>
      <trkpt lat="54.136768989264965" lon="13.689099960029125">
        <ele>26.09</ele>
        <time>2024-09-16T08:39:56Z</time>
      </trkpt>
      <trkpt lat="54.136932017281651" lon="13.689261982217431">
        <ele>25.609999999999999</ele>
        <time>2024-09-16T08:39:57Z</time>
      </trkpt>
      <trkpt lat="54.137098984792829" lon="13.689392991364002">
        <ele>25.609999999999999</ele>
        <time>2024-09-16T08:39:58Z</time>
      </trkpt>
      <trkpt lat="54.137281039729714" lon="13.689506985247135">
        <ele>25.609999999999999</ele>
        <time>2024-09-16T08:39:59Z</time>
      </trkpt>
      <trkpt lat="54.137460999190807" lon="13.689603041857481">
        <ele>25.609999999999999</ele>
        <time>2024-09-16T08:40:00Z</time>
      </trkpt>
      <trkpt lat="54.1376599855721" lon="13.689659032970667">
        <ele>26.09</ele>
        <time>2024-09-16T08:40:01Z</time>
      </trkpt>
      <trkpt lat="54.137858971953392" lon="13.689716029912233">
        <ele>26.09</ele>
        <time>2024-09-16T08:40:02Z</time>
      </trkpt>
      <trkpt lat="54.139268975704908" lon="13.690390018746257">
        <ele>26.57</ele>
        <time>2024-09-16T08:40:09Z</time>
      </trkpt>
      <trkpt lat="54.139456981793046" lon="13.690580036491156">
        <ele>26.57</ele>
        <time>2024-09-16T08:40:10Z</time>
      </trkpt>
      <trkpt lat="54.140808982774615" lon="13.692206041887403">
        <ele>22.73</ele>
        <time>2024-09-16T08:40:18Z</time>
      </trkpt>
      <trkpt lat="54.141326984390616" lon="13.693107012659311">
        <ele>20.32</ele>
        <time>2024-09-16T08:40:22Z</time>
      </trkpt>
      <trkpt lat="54.141421029344201" lon="13.693390991538763">
        <ele>19.84</ele>
        <time>2024-09-16T08:40:23Z</time>
      </trkpt>
      <trkpt lat="54.141517002135515" lon="13.693678993731737">
        <ele>19.84</ele>
        <time>2024-09-16T08:40:24Z</time>
      </trkpt>
      <trkpt lat="54.141584979370236" lon="13.693975964561105">
        <ele>19.359999999999999</ele>
        <time>2024-09-16T08:40:25Z</time>
      </trkpt>
      <trkpt lat="54.141642982140183" lon="13.694299003109336">
        <ele>19.359999999999999</ele>
        <time>2024-09-16T08:40:26Z</time>
      </trkpt>
      <trkpt lat="54.141661003232002" lon="13.694619024172425">
        <ele>18.879999999999999</ele>
        <time>2024-09-16T08:40:27Z</time>
      </trkpt>
      <trkpt lat="54.141667960211635" lon="13.694961005821824">
        <ele>18.399999999999999</ele>
        <time>2024-09-16T08:40:28Z</time>
      </trkpt>
      <trkpt lat="54.141675001010299" lon="13.695304999127984">
        <ele>18.399999999999999</ele>
        <time>2024-09-16T08:40:29Z</time>
      </trkpt>
      <trkpt lat="54.141586991026998" lon="13.698697993531823">
        <ele>14.56</ele>
        <time>2024-09-16T08:40:40Z</time>
      </trkpt>
      <trkpt lat="54.141519013792276" lon="13.699575997889042">
        <ele>14.08</ele>
        <time>2024-09-16T08:40:43Z</time>
      </trkpt>
      <trkpt lat="54.141470985487103" lon="13.699856037274003">
        <ele>14.08</ele>
        <time>2024-09-16T08:40:44Z</time>
      </trkpt>
      <trkpt lat="54.141404014080763" lon="13.700132975354791">
        <ele>13.6</ele>
        <time>2024-09-16T08:40:45Z</time>
      </trkpt>
      <trkpt lat="54.141325978562236" lon="13.700406979769468">
        <ele>13.119999999999999</ele>
        <time>2024-09-16T08:40:46Z</time>
      </trkpt>
      <trkpt lat="54.141219025477767" lon="13.700656006112695">
        <ele>12.630000000000001</ele>
        <time>2024-09-16T08:40:47Z</time>
      </trkpt>
      <trkpt lat="54.141109976917505" lon="13.700909977778792">
        <ele>12.15</ele>
        <time>2024-09-16T08:40:48Z</time>
      </trkpt>
      <trkpt lat="54.140983996912837" lon="13.701141988858581">
        <ele>12.15</ele>
        <time>2024-09-16T08:40:49Z</time>
      </trkpt>
      <trkpt lat="54.140853993594646" lon="13.701366959139705">
        <ele>12.15</ele>
        <time>2024-09-16T08:40:50Z</time>
      </trkpt>
      <trkpt lat="54.140321994200349" lon="13.70227999985218">
        <ele>12.630000000000001</ele>
        <time>2024-09-16T08:40:54Z</time>
      </trkpt>
      <trkpt lat="54.140233984217048" lon="13.702564984560013">
        <ele>13.119999999999999</ele>
        <time>2024-09-16T08:40:55Z</time>
      </trkpt>
      <trkpt lat="54.139639958739281" lon="13.705034041777253">
        <ele>14.56</ele>
        <time>2024-09-16T08:41:03Z</time>
      </trkpt>
      <trkpt lat="54.138963958248496" lon="13.707885984331369">
        <ele>16</ele>
        <time>2024-09-16T08:41:12Z</time>
      </trkpt>
      <trkpt lat="54.13828200660646" lon="13.710759971290827">
        <ele>16</ele>
        <time>2024-09-16T08:41:21Z</time>
      </trkpt>
      <trkpt lat="54.137841034680605" lon="13.712680013850331">
        <ele>16</ele>
        <time>2024-09-16T08:41:27Z</time>
      </trkpt>
      <trkpt lat="54.137800969183445" lon="13.713014032691717">
        <ele>16</ele>
        <time>2024-09-16T08:41:28Z</time>
      </trkpt>
      <trkpt lat="54.137560995295644" lon="13.71585700660944">
        <ele>16.48</ele>
        <time>2024-09-16T08:41:36Z</time>
      </trkpt>
      <trkpt lat="54.137406013906002" lon="13.717561969533563">
        <ele>15.52</ele>
        <time>2024-09-16T08:41:41Z</time>
      </trkpt>
      <trkpt lat="54.137378018349409" lon="13.717871010303497">
        <ele>15.52</ele>
        <time>2024-09-16T08:41:42Z</time>
      </trkpt>
      <trkpt lat="54.137239968404174" lon="13.719416968524456">
        <ele>14.56</ele>
        <time>2024-09-16T08:41:48Z</time>
      </trkpt>
      <trkpt lat="54.137140978127718" lon="13.720844993367791">
        <ele>12.630000000000001</ele>
        <time>2024-09-16T08:41:57Z</time>
      </trkpt>
      <trkpt lat="54.137046011164784" lon="13.722595972940326">
        <ele>13.119999999999999</ele>
        <time>2024-09-16T08:42:07Z</time>
      </trkpt>
      <trkpt lat="54.136746022850275" lon="13.724794965237379">
        <ele>11.19</ele>
        <time>2024-09-16T08:42:18Z</time>
      </trkpt>
      <trkpt lat="54.136720038950443" lon="13.724986994639039">
        <ele>10.710000000000001</ele>
        <time>2024-09-16T08:42:19Z</time>
      </trkpt>
      <trkpt lat="54.136720038950443" lon="13.725164020434022">
        <ele>10.710000000000001</ele>
        <time>2024-09-16T08:42:20Z</time>
      </trkpt>
      <trkpt lat="54.136720038950443" lon="13.725336017087102">
        <ele>10.23</ele>
        <time>2024-09-16T08:42:21Z</time>
      </trkpt>
      <trkpt lat="54.136738982051611" lon="13.725479012355208">
        <ele>10.23</ele>
        <time>2024-09-16T08:42:22Z</time>
      </trkpt>
      <trkpt lat="54.136759014800191" lon="13.725636005401611">
        <ele>10.23</ele>
        <time>2024-09-16T08:42:23Z</time>
      </trkpt>
      <trkpt lat="54.136802013963461" lon="13.725966000929475">
        <ele>10.23</ele>
        <time>2024-09-16T08:42:25Z</time>
      </trkpt>
      <trkpt lat="54.136806037276983" lon="13.726142020896077">
        <ele>10.710000000000001</ele>
        <time>2024-09-16T08:42:26Z</time>
      </trkpt>
      <trkpt lat="54.136806037276983" lon="13.726344024762511">
        <ele>10.710000000000001</ele>
        <time>2024-09-16T08:42:27Z</time>
      </trkpt>
      <trkpt lat="54.136806037276983" lon="13.726559020578861">
        <ele>10.710000000000001</ele>
        <time>2024-09-16T08:42:28Z</time>
      </trkpt>
      <trkpt lat="54.136787010356784" lon="13.726704027503729">
        <ele>10.710000000000001</ele>
        <time>2024-09-16T08:42:29Z</time>
      </trkpt>
      <trkpt lat="54.136759014800191" lon="13.726895973086357">
        <ele>11.19</ele>
        <time>2024-09-16T08:42:30Z</time>
      </trkpt>
      <trkpt lat="54.136268002912402" lon="13.72827404178679">
        <ele>8.310000000000001</ele>
        <time>2024-09-16T08:42:39Z</time>
      </trkpt>
      <trkpt lat="54.13619801402092" lon="13.728406978771091">
        <ele>8.310000000000001</ele>
        <time>2024-09-16T08:42:40Z</time>
      </trkpt>
      <trkpt lat="54.135350016877055" lon="13.729998031631112">
        <ele>6.39</ele>
        <time>2024-09-16T08:42:51Z</time>
      </trkpt>
      <trkpt lat="54.134922958910465" lon="13.730698004364967">
        <ele>5.91</ele>
        <time>2024-09-16T08:42:56Z</time>
      </trkpt>
      <trkpt lat="54.134825980290771" lon="13.730822978541255">
        <ele>5.91</ele>
        <time>2024-09-16T08:42:57Z</time>
      </trkpt>
      <trkpt lat="54.133493006229401" lon="13.732559960335493">
        <ele>5.91</ele>
        <time>2024-09-16T08:43:11Z</time>
      </trkpt>
      <trkpt lat="54.132472006604075" lon="13.733988991007209">
        <ele>3.5</ele>
        <time>2024-09-16T08:43:22Z</time>
      </trkpt>
      <trkpt lat="54.132377961650491" lon="13.734126035124063">
        <ele>3.02</ele>
        <time>2024-09-16T08:43:23Z</time>
      </trkpt>
      <trkpt lat="54.132282994687557" lon="13.734264001250267">
        <ele>2.54</ele>
        <time>2024-09-16T08:43:24Z</time>
      </trkpt>
      <trkpt lat="54.132190961390734" lon="13.734399033710361">
        <ele>2.06</ele>
        <time>2024-09-16T08:43:25Z</time>
      </trkpt>
      <trkpt lat="54.131928021088243" lon="13.734780997037888">
        <ele>2.06</ele>
        <time>2024-09-16T08:43:28Z</time>
      </trkpt>
      <trkpt lat="54.131843028590083" lon="13.734905971214175">
        <ele>1.58</ele>
        <time>2024-09-16T08:43:29Z</time>
      </trkpt>
      <trkpt lat="54.131748983636498" lon="13.735042009502649">
        <ele>1.58</ele>
        <time>2024-09-16T08:43:30Z</time>
      </trkpt>
      <trkpt lat="54.130628993734717" lon="13.736700033769011">
        <ele>1.1</ele>
        <time>2024-09-16T08:43:42Z</time>
      </trkpt>
      <trkpt lat="54.129980988800526" lon="13.737654983997345">
        <ele>2.54</ele>
        <time>2024-09-16T08:43:49Z</time>
      </trkpt>
      <trkpt lat="54.129050010815263" lon="13.739026011899114">
        <ele>4.46</ele>
        <time>2024-09-16T08:43:59Z</time>
      </trkpt>
      <trkpt lat="54.127598013728857" lon="13.740600971505046">
        <ele>2.54</ele>
        <time>2024-09-16T08:44:10Z</time>
      </trkpt>
      <trkpt lat="54.125979971140623" lon="13.742255978286266">
        <ele>3.02</ele>
        <time>2024-09-16T08:44:20Z</time>
      </trkpt>
      <trkpt lat="54.12446896545589" lon="13.743757009506226">
        <ele>1.1</ele>
        <time>2024-09-16T08:44:29Z</time>
      </trkpt>
      <trkpt lat="54.123639995232224" lon="13.744697039946914">
        <ele>0.62</ele>
        <time>2024-09-16T08:44:36Z</time>
      </trkpt>
      <trkpt lat="54.123552991077304" lon="13.744821008294821">
        <ele>0.62</ele>
        <time>2024-09-16T08:44:37Z</time>
      </trkpt>
      <trkpt lat="54.123096009716392" lon="13.745540007948875">
        <ele>1.58</ele>
        <time>2024-09-16T08:44:43Z</time>
      </trkpt>
      <trkpt lat="54.123023003339767" lon="13.745660958811641">
        <ele>1.58</ele>
        <time>2024-09-16T08:44:44Z</time>
      </trkpt>
      <trkpt lat="54.122948991134763" lon="13.745784005150199">
        <ele>1.58</ele>
        <time>2024-09-16T08:44:45Z</time>
      </trkpt>
      <trkpt lat="54.122874978929758" lon="13.745908979326487">
        <ele>2.06</ele>
        <time>2024-09-16T08:44:46Z</time>
      </trkpt>
      <trkpt lat="54.122799038887024" lon="13.746034037321806">
        <ele>1.58</ele>
        <time>2024-09-16T08:44:47Z</time>
      </trkpt>
      <trkpt lat="54.122722009196877" lon="13.746163034811616">
        <ele>1.58</ele>
        <time>2024-09-16T08:44:48Z</time>
      </trkpt>
      <trkpt lat="54.122645985335112" lon="13.746290020644665">
        <ele>1.58</ele>
        <time>2024-09-16T08:44:49Z</time>
      </trkpt>
      <trkpt lat="54.122572978958488" lon="13.746426980942488">
        <ele>1.58</ele>
        <time>2024-09-16T08:44:50Z</time>
      </trkpt>
      <trkpt lat="54.122510030865669" lon="13.746564025059342">
        <ele>2.06</ele>
        <time>2024-09-16T08:44:51Z</time>
      </trkpt>
      <trkpt lat="54.121801005676389" lon="13.74812800437212">
        <ele>3.02</ele>
        <time>2024-09-16T08:45:03Z</time>
      </trkpt>
      <trkpt lat="54.12124696187675" lon="13.749337010085583">
        <ele>2.54</ele>
        <time>2024-09-16T08:45:13Z</time>
      </trkpt>
      <trkpt lat="54.120489992201328" lon="13.750824965536594">
        <ele>5.42</ele>
        <time>2024-09-16T08:45:26Z</time>
      </trkpt>
      <trkpt lat="54.120249012485147" lon="13.751076003536582">
        <ele>6.39</ele>
        <time>2024-09-16T08:45:29Z</time>
      </trkpt>
      <trkpt lat="54.120175000280142" lon="13.751150015741587">
        <ele>6.39</ele>
        <time>2024-09-16T08:45:30Z</time>
      </trkpt>
      <trkpt lat="54.120097970589995" lon="13.751209024339914">
        <ele>6.87</ele>
        <time>2024-09-16T08:45:31Z</time>
      </trkpt>
      <trkpt lat="54.119394980370998" lon="13.751528961583972">
        <ele>5.91</ele>
        <time>2024-09-16T08:45:39Z</time>
      </trkpt>
      <trkpt lat="54.119305964559317" lon="13.751554023474455">
        <ele>6.39</ele>
        <time>2024-09-16T08:45:40Z</time>
      </trkpt>
      <trkpt lat="54.119023997336626" lon="13.751634992659092">
        <ele>6.87</ele>
        <time>2024-09-16T08:45:43Z</time>
      </trkpt>
      <trkpt lat="54.118932969868183" lon="13.751705987378955">
        <ele>6.87</ele>
        <time>2024-09-16T08:45:44Z</time>
      </trkpt>
      <trkpt lat="54.118845965713263" lon="13.75180296599865">
        <ele>6.87</ele>
        <time>2024-09-16T08:45:45Z</time>
      </trkpt>
      <trkpt lat="54.11868603900075" lon="13.752031959593296">
        <ele>6.87</ele>
        <time>2024-09-16T08:45:47Z</time>
      </trkpt>
      <trkpt lat="54.118594005703926" lon="13.752143019810319">
        <ele>6.87</ele>
        <time>2024-09-16T08:45:48Z</time>
      </trkpt>
      <trkpt lat="54.11849501542747" lon="13.752184007316828">
        <ele>6.87</ele>
        <time>2024-09-16T08:45:49Z</time>
      </trkpt>
      <trkpt lat="54.118398036807775" lon="13.752224994823337">
        <ele>6.87</ele>
        <time>2024-09-16T08:45:50Z</time>
      </trkpt>
      <trkpt lat="54.118294017389417" lon="13.752259025350213">
        <ele>6.39</ele>
        <time>2024-09-16T08:45:51Z</time>
      </trkpt>
      <trkpt lat="54.118085978552699" lon="13.752315016463399">
        <ele>6.39</ele>
        <time>2024-09-16T08:45:53Z</time>
      </trkpt>
      <trkpt lat="54.117985982447863" lon="13.752362038940191">
        <ele>6.39</ele>
        <time>2024-09-16T08:45:54Z</time>
      </trkpt>
      <trkpt lat="54.117492958903313" lon="13.752668984234333">
        <ele>6.87</ele>
        <time>2024-09-16T08:45:59Z</time>
      </trkpt>
      <trkpt lat="54.117383994162083" lon="13.752663033083081">
        <ele>7.35</ele>
        <time>2024-09-16T08:46:00Z</time>
      </trkpt>
      <trkpt lat="54.117277041077614" lon="13.752656998112798">
        <ele>7.35</ele>
        <time>2024-09-16T08:46:01Z</time>
      </trkpt>
      <trkpt lat="54.116301974281669" lon="13.752742996439338">
        <ele>8.310000000000001</ele>
        <time>2024-09-16T08:46:11Z</time>
      </trkpt>
      <trkpt lat="54.115393962711096" lon="13.752742996439338">
        <ele>7.35</ele>
        <time>2024-09-16T08:46:21Z</time>
      </trkpt>
      <trkpt lat="54.114107005298138" lon="13.75242498703301">
        <ele>7.35</ele>
        <time>2024-09-16T08:46:34Z</time>
      </trkpt>
      <trkpt lat="54.11351096816361" lon="13.75227302312851">
        <ele>6.87</ele>
        <time>2024-09-16T08:46:39Z</time>
      </trkpt>
      <trkpt lat="54.113395968452096" lon="13.752244021743536">
        <ele>6.87</ele>
        <time>2024-09-16T08:46:40Z</time>
      </trkpt>
      <trkpt lat="54.113282980397344" lon="13.752299007028341">
        <ele>6.39</ele>
        <time>2024-09-16T08:46:41Z</time>
      </trkpt>
      <trkpt lat="54.11316798068583" lon="13.752354998141527">
        <ele>6.39</ele>
        <time>2024-09-16T08:46:42Z</time>
      </trkpt>
      <trkpt lat="54.113050969317555" lon="13.752413000911474">
        <ele>6.87</ele>
        <time>2024-09-16T08:46:43Z</time>
      </trkpt>
      <trkpt lat="54.111679019406438" lon="13.753116996958852">
        <ele>6.87</ele>
        <time>2024-09-16T08:46:55Z</time>
      </trkpt>
      <trkpt lat="54.1105239931494" lon="13.753729965537786">
        <ele>8.310000000000001</ele>
        <time>2024-09-16T08:47:05Z</time>
      </trkpt>
      <trkpt lat="54.110406981781125" lon="13.753789979964495">
        <ele>8.789999999999999</ele>
        <time>2024-09-16T08:47:06Z</time>
      </trkpt>
      <trkpt lat="54.109002007171512" lon="13.754534041509032">
        <ele>10.710000000000001</ele>
        <time>2024-09-16T08:47:17Z</time>
      </trkpt>
      <trkpt lat="54.108327012509108" lon="13.754817014560103">
        <ele>12.15</ele>
        <time>2024-09-16T08:47:21Z</time>
      </trkpt>
      <trkpt lat="54.108136994764209" lon="13.754805028438568">
        <ele>12.630000000000001</ele>
        <time>2024-09-16T08:47:22Z</time>
      </trkpt>
      <trkpt lat="54.10641803406179" lon="13.754649963229895">
        <ele>15.52</ele>
        <time>2024-09-16T08:47:30Z</time>
      </trkpt>
      <trkpt lat="54.103511022403836" lon="13.754363972693682">
        <ele>13.119999999999999</ele>
        <time>2024-09-16T08:47:42Z</time>
      </trkpt>
      <trkpt lat="54.101058980450034" lon="13.754113018512726">
        <ele>9.27</ele>
        <time>2024-09-16T08:47:52Z</time>
      </trkpt>
      <trkpt lat="54.100825041532516" lon="13.754068007692695">
        <ele>8.789999999999999</ele>
        <time>2024-09-16T08:47:53Z</time>
      </trkpt>
      <trkpt lat="54.100595964118838" lon="13.753944039344788">
        <ele>8.310000000000001</ele>
        <time>2024-09-16T08:47:54Z</time>
      </trkpt>
      <trkpt lat="54.097813004627824" lon="13.752373019233346">
        <ele>7.83</ele>
        <time>2024-09-16T08:48:06Z</time>
      </trkpt>
      <trkpt lat="54.094782024621964" lon="13.750613993033767">
        <ele>9.27</ele>
        <time>2024-09-16T08:48:19Z</time>
      </trkpt>
      <trkpt lat="54.092076011002064" lon="13.749049007892609">
        <ele>9.75</ele>
        <time>2024-09-16T08:48:31Z</time>
      </trkpt>
      <trkpt lat="54.090982005000114" lon="13.748439978808165">
        <ele>10.710000000000001</ele>
        <time>2024-09-16T08:48:38Z</time>
      </trkpt>
      <trkpt lat="54.090841021388769" lon="13.748368984088302">
        <ele>10.710000000000001</ele>
        <time>2024-09-16T08:48:39Z</time>
      </trkpt>
      <trkpt lat="54.090695008635521" lon="13.748329002410173">
        <ele>11.19</ele>
        <time>2024-09-16T08:48:40Z</time>
      </trkpt>
      <trkpt lat="54.09054203890264" lon="13.748310981318355">
        <ele>11.19</ele>
        <time>2024-09-16T08:48:41Z</time>
      </trkpt>
      <trkpt lat="54.089028015732765" lon="13.748401002958417">
        <ele>12.630000000000001</ele>
        <time>2024-09-16T08:48:51Z</time>
      </trkpt>
      <trkpt lat="54.08723303116858" lon="13.748311987146735">
        <ele>14.56</ele>
        <time>2024-09-16T08:49:03Z</time>
      </trkpt>
      <trkpt lat="54.086187975481153" lon="13.747996995225549">
        <ele>13.6</ele>
        <time>2024-09-16T08:49:08Z</time>
      </trkpt>
      <trkpt lat="54.084171960130334" lon="13.747373968362808">
        <ele>11.19</ele>
        <time>2024-09-16T08:49:17Z</time>
      </trkpt>
      <trkpt lat="54.082213025540113" lon="13.746755970641971">
        <ele>12.630000000000001</ele>
        <time>2024-09-16T08:49:27Z</time>
      </trkpt>
      <trkpt lat="54.081217003986239" lon="13.746429998427629">
        <ele>14.56</ele>
        <time>2024-09-16T08:49:35Z</time>
      </trkpt>
      <trkpt lat="54.080063989385962" lon="13.746061027050018">
        <ele>14.08</ele>
        <time>2024-09-16T08:49:46Z</time>
      </trkpt>
      <trkpt lat="54.079952007159591" lon="13.746016016229987">
        <ele>13.6</ele>
        <time>2024-09-16T08:49:48Z</time>
      </trkpt>
      <trkpt lat="54.079905990511179" lon="13.745996989309788">
        <ele>13.119999999999999</ele>
        <time>2024-09-16T08:49:49Z</time>
      </trkpt>
      <trkpt lat="54.079809011891484" lon="13.745959019288421">
        <ele>12.630000000000001</ele>
        <time>2024-09-16T08:49:51Z</time>
      </trkpt>
      <trkpt lat="54.079730976372957" lon="13.745942004024982">
        <ele>12.630000000000001</ele>
        <time>2024-09-16T08:49:52Z</time>
      </trkpt>
      <trkpt lat="54.07964900135994" lon="13.745972011238337">
        <ele>12.15</ele>
        <time>2024-09-16T08:49:53Z</time>
      </trkpt>
      <trkpt lat="54.079555040225387" lon="13.746006041765213">
        <ele>12.15</ele>
        <time>2024-09-16T08:49:54Z</time>
      </trkpt>
      <trkpt lat="54.07945403829217" lon="13.746033031493425">
        <ele>11.67</ele>
        <time>2024-09-16T08:49:55Z</time>
      </trkpt>
      <trkpt lat="54.078398002311587" lon="13.746232017874718">
        <ele>13.119999999999999</ele>
        <time>2024-09-16T08:50:03Z</time>
      </trkpt>
      <trkpt lat="54.076612992212176" lon="13.746566958725452">
        <ele>12.15</ele>
        <time>2024-09-16T08:50:14Z</time>
      </trkpt>
      <trkpt lat="54.076315015554428" lon="13.746638037264347">
        <ele>12.15</ele>
        <time>2024-09-16T08:50:16Z</time>
      </trkpt>
      <trkpt lat="54.076181994751096" lon="13.746736021712422">
        <ele>12.15</ele>
        <time>2024-09-16T08:50:17Z</time>
      </trkpt>
      <trkpt lat="54.076059032231569" lon="13.746836017817259">
        <ele>12.630000000000001</ele>
        <time>2024-09-16T08:50:18Z</time>
      </trkpt>
      <trkpt lat="54.07595501281321" lon="13.747057970613241">
        <ele>12.630000000000001</ele>
        <time>2024-09-16T08:50:19Z</time>
      </trkpt>
      <trkpt lat="54.075851999223232" lon="13.747275983914733">
        <ele>12.630000000000001</ele>
        <time>2024-09-16T08:50:20Z</time>
      </trkpt>
      <trkpt lat="54.075744962319732" lon="13.747501960024238">
        <ele>13.119999999999999</ele>
        <time>2024-09-16T08:50:21Z</time>
      </trkpt>
      <trkpt lat="54.075645972043276" lon="13.747746963053942">
        <ele>13.119999999999999</ele>
        <time>2024-09-16T08:50:22Z</time>
      </trkpt>
      <trkpt lat="54.074549032375216" lon="13.750832006335258">
        <ele>16.960000000000001</ele>
        <time>2024-09-16T08:50:34Z</time>
      </trkpt>
      <trkpt lat="54.073619982227683" lon="13.752730004489422">
        <ele>21.77</ele>
        <time>2024-09-16T08:50:42Z</time>
      </trkpt>
      <trkpt lat="54.072729991748929" lon="13.754226006567478">
        <ele>21.289999999999999</ele>
        <time>2024-09-16T08:50:51Z</time>
      </trkpt>
      <trkpt lat="54.071687031537294" lon="13.755397964268923">
        <ele>22.73</ele>
        <time>2024-09-16T08:50:59Z</time>
      </trkpt>
      <trkpt lat="54.070652034133673" lon="13.756448971107602">
        <ele>21.77</ele>
        <time>2024-09-16T08:51:07Z</time>
      </trkpt>
      <trkpt lat="54.069726001471281" lon="13.757353965193033">
        <ele>19.359999999999999</ele>
        <time>2024-09-16T08:51:14Z</time>
      </trkpt>
      <trkpt lat="54.068504003807902" lon="13.758545033633709">
        <ele>16.960000000000001</ele>
        <time>2024-09-16T08:51:21Z</time>
      </trkpt>
      <trkpt lat="54.066637018695474" lon="13.760309005156159">
        <ele>18.399999999999999</ele>
        <time>2024-09-16T08:51:30Z</time>
      </trkpt>
      <trkpt lat="54.064702978357673" lon="13.762126034125686">
        <ele>15.52</ele>
        <time>2024-09-16T08:51:40Z</time>
      </trkpt>
      <trkpt lat="54.063234971836209" lon="13.76338298432529">
        <ele>12.15</ele>
        <time>2024-09-16T08:51:48Z</time>
      </trkpt>
      <trkpt lat="54.061580970883369" lon="13.764511020854115">
        <ele>9.75</ele>
        <time>2024-09-16T08:51:59Z</time>
      </trkpt>
      <trkpt lat="54.060712018981576" lon="13.765215016901493">
        <ele>7.35</ele>
        <time>2024-09-16T08:52:08Z</time>
      </trkpt>
      <trkpt lat="54.060610011219978" lon="13.765333034098148">
        <ele>6.87</ele>
        <time>2024-09-16T08:52:09Z</time>
      </trkpt>
      <trkpt lat="54.060511020943522" lon="13.765669986605644">
        <ele>5.91</ele>
        <time>2024-09-16T08:52:11Z</time>
      </trkpt>
      <trkpt lat="54.060461986809969" lon="13.765836032107472">
        <ele>5.42</ele>
        <time>2024-09-16T08:52:12Z</time>
      </trkpt>
      <trkpt lat="54.060415970161557" lon="13.765995036810637">
        <ele>4.94</ele>
        <time>2024-09-16T08:52:13Z</time>
      </trkpt>
      <trkpt lat="54.060238022357225" lon="13.766601970419288">
        <ele>3.02</ele>
        <time>2024-09-16T08:52:17Z</time>
      </trkpt>
      <trkpt lat="54.060188988223672" lon="13.766768015921116">
        <ele>2.54</ele>
        <time>2024-09-16T08:52:18Z</time>
      </trkpt>
      <trkpt lat="54.060030989348888" lon="13.767306972295046">
        <ele>0.62</ele>
        <time>2024-09-16T08:52:21Z</time>
      </trkpt>
      <trkpt lat="54.059943985193968" lon="13.76746597699821">
        <ele>-0.34</ele>
        <time>2024-09-16T08:52:22Z</time>
      </trkpt>
      <trkpt lat="54.059857986867428" lon="13.76759497448802">
        <ele>-0.82</ele>
        <time>2024-09-16T08:52:23Z</time>
      </trkpt>
      <trkpt lat="54.059762014076114" lon="13.767707962542772">
        <ele>-1.3</ele>
        <time>2024-09-16T08:52:24Z</time>
      </trkpt>
      <trkpt lat="54.059659000486135" lon="13.767823968082666">
        <ele>-1.79</ele>
        <time>2024-09-16T08:52:25Z</time>
      </trkpt>
      <trkpt lat="54.059536959975958" lon="13.767867973074317">
        <ele>-2.27</ele>
        <time>2024-09-16T08:52:26Z</time>
      </trkpt>
      <trkpt lat="54.059415003284812" lon="13.767910972237587">
        <ele>-2.75</ele>
        <time>2024-09-16T08:52:27Z</time>
      </trkpt>
      <trkpt lat="54.059284999966621" lon="13.767906026914716">
        <ele>-3.23</ele>
        <time>2024-09-16T08:52:28Z</time>
      </trkpt>
      <trkpt lat="54.059164971113205" lon="13.767870990559459">
        <ele>-3.23</ele>
        <time>2024-09-16T08:52:29Z</time>
      </trkpt>
      <trkpt lat="54.059043014422059" lon="13.767835032194853">
        <ele>-3.71</ele>
        <time>2024-09-16T08:52:30Z</time>
      </trkpt>
      <trkpt lat="54.058098960667849" lon="13.767457008361816">
        <ele>-2.27</ele>
        <time>2024-09-16T08:52:39Z</time>
      </trkpt>
      <trkpt lat="54.057866027578712" lon="13.767408980056643">
        <ele>-1.3</ele>
        <time>2024-09-16T08:52:42Z</time>
      </trkpt>
      <trkpt lat="54.057795032858849" lon="13.767389031127095">
        <ele>-0.82</ele>
        <time>2024-09-16T08:52:43Z</time>
      </trkpt>
      <trkpt lat="54.057719008997083" lon="13.767367992550135">
        <ele>-0.34</ele>
        <time>2024-09-16T08:52:44Z</time>
      </trkpt>
      <trkpt lat="54.057330004870892" lon="13.767333040013909">
        <ele>1.58</ele>
        <time>2024-09-16T08:52:49Z</time>
      </trkpt>
      <trkpt lat="54.057091036811471" lon="13.767371010035276">
        <ele>2.06</ele>
        <time>2024-09-16T08:52:52Z</time>
      </trkpt>
      <trkpt lat="54.057029010728002" lon="13.767409985885024">
        <ele>2.54</ele>
        <time>2024-09-16T08:52:53Z</time>
      </trkpt>
      <trkpt lat="54.056954998522997" lon="13.767456002533436">
        <ele>2.54</ele>
        <time>2024-09-16T08:52:54Z</time>
      </trkpt>
      <trkpt lat="54.056422999128699" lon="13.767798990011215">
        <ele>3.5</ele>
        <time>2024-09-16T08:53:01Z</time>
      </trkpt>
      <trkpt lat="54.056243039667606" lon="13.767657000571489">
        <ele>3.98</ele>
        <time>2024-09-16T08:53:03Z</time>
      </trkpt>
      <trkpt lat="54.056239016354084" lon="13.767558010295033">
        <ele>4.46</ele>
        <time>2024-09-16T08:53:04Z</time>
      </trkpt>
      <trkpt lat="54.056233987212181" lon="13.767444016411901">
        <ele>4.94</ele>
        <time>2024-09-16T08:53:05Z</time>
      </trkpt>
      <trkpt lat="54.056241028010845" lon="13.767307978123426">
        <ele>4.94</ele>
        <time>2024-09-16T08:53:06Z</time>
      </trkpt>
      <trkpt lat="54.056251002475619" lon="13.767180992290378">
        <ele>5.42</ele>
        <time>2024-09-16T08:53:07Z</time>
      </trkpt>
      <trkpt lat="54.056386034935713" lon="13.765737963840365">
        <ele>10.710000000000001</ele>
        <time>2024-09-16T08:53:18Z</time>
      </trkpt>
      <trkpt lat="54.056664984673262" lon="13.763501001521945">
        <ele>18.399999999999999</ele>
        <time>2024-09-16T08:53:34Z</time>
      </trkpt>
      <trkpt lat="54.056878974661231" lon="13.761801989749074">
        <ele>19.84</ele>
        <time>2024-09-16T08:53:46Z</time>
      </trkpt>
      <trkpt lat="54.057157002389431" lon="13.759460002183914">
        <ele>19.84</ele>
        <time>2024-09-16T08:54:03Z</time>
      </trkpt>
      <trkpt lat="54.057440981268883" lon="13.757326975464821">
        <ele>19.84</ele>
        <time>2024-09-16T08:54:18Z</time>
      </trkpt>
      <trkpt lat="54.057543994858861" lon="13.756604958325624">
        <ele>19.84</ele>
        <time>2024-09-16T08:54:23Z</time>
      </trkpt>
      <trkpt lat="54.057592023164034" lon="13.756072036921978">
        <ele>20.32</ele>
        <time>2024-09-16T08:54:27Z</time>
      </trkpt>
      <trkpt lat="54.057576013728976" lon="13.755957959219813">
        <ele>20.32</ele>
        <time>2024-09-16T08:54:28Z</time>
      </trkpt>
      <trkpt lat="54.05756302177906" lon="13.755870033055544">
        <ele>20.32</ele>
        <time>2024-09-16T08:54:29Z</time>
      </trkpt>
      <trkpt lat="54.057529997080564" lon="13.755853017792106">
        <ele>20.32</ele>
        <time>2024-09-16T08:54:30Z</time>
      </trkpt>
      <trkpt lat="54.05745699070394" lon="13.755813958123326">
        <ele>20.32</ele>
        <time>2024-09-16T08:54:31Z</time>
      </trkpt>
      <trkpt lat="54.057376021519303" lon="13.755771964788437">
        <ele>20.32</ele>
        <time>2024-09-16T08:54:32Z</time>
      </trkpt>
      <trkpt lat="54.056352004408836" lon="13.755239965394139">
        <ele>23.690000000000001</ele>
        <time>2024-09-16T08:54:43Z</time>
      </trkpt>
      <trkpt lat="54.05483303591609" lon="13.754577040672302">
        <ele>22.25</ele>
        <time>2024-09-16T08:54:56Z</time>
      </trkpt>
      <trkpt lat="54.053788986057043" lon="13.754620039835572">
        <ele>22.73</ele>
        <time>2024-09-16T08:55:05Z</time>
      </trkpt>
      <trkpt lat="54.053675998002291" lon="13.754649963229895">
        <ele>22.73</ele>
        <time>2024-09-16T08:55:06Z</time>
      </trkpt>
      <trkpt lat="54.052892960608006" lon="13.755032010376453">
        <ele>21.77</ele>
        <time>2024-09-16T08:55:15Z</time>
      </trkpt>
      <trkpt lat="54.052181001752615" lon="13.755446998402476">
        <ele>22.25</ele>
        <time>2024-09-16T08:55:24Z</time>
      </trkpt>
      <trkpt lat="54.05210698954761" lon="13.755489997565746">
        <ele>22.25</ele>
        <time>2024-09-16T08:55:25Z</time>
      </trkpt>
      <trkpt lat="54.051973968744278" lon="13.755568033084273">
        <ele>21.77</ele>
        <time>2024-09-16T08:55:27Z</time>
      </trkpt>
      <trkpt lat="54.051920995116234" lon="13.755598962306976">
        <ele>21.289999999999999</ele>
        <time>2024-09-16T08:55:28Z</time>
      </trkpt>
      <trkpt lat="54.05186802148819" lon="13.755631987005472">
        <ele>21.289999999999999</ele>
        <time>2024-09-16T08:55:29Z</time>
      </trkpt>
      <trkpt lat="54.051708010956645" lon="13.755730977281928">
        <ele>20.809999999999999</ele>
        <time>2024-09-16T08:55:32Z</time>
      </trkpt>
      <trkpt lat="54.051663000136614" lon="13.755759978666902">
        <ele>20.809999999999999</ele>
        <time>2024-09-16T08:55:33Z</time>
      </trkpt>
      <trkpt lat="54.051625030115247" lon="13.755783028900623">
        <ele>20.809999999999999</ele>
        <time>2024-09-16T08:55:34Z</time>
      </trkpt>
      <trkpt lat="54.051595022901893" lon="13.755802977830172">
        <ele>20.809999999999999</ele>
        <time>2024-09-16T08:55:35Z</time>
      </trkpt>
      <trkpt lat="54.051573984324932" lon="13.755815969780087">
        <ele>20.809999999999999</ele>
        <time>2024-09-16T08:55:36Z</time>
      </trkpt>
      <trkpt lat="54.051573984324932" lon="13.755815969780087">
        <ele>20.809999999999999</ele>
        <time>2024-09-16T08:55:43Z</time>
      </trkpt>
      <trkpt lat="54.051538025960326" lon="13.755838014185429">
        <ele>20.809999999999999</ele>
        <time>2024-09-16T08:55:44Z</time>
      </trkpt>
      <trkpt lat="54.051506007090211" lon="13.755857963114977">
        <ele>20.809999999999999</ele>
        <time>2024-09-16T08:55:45Z</time>
      </trkpt>
      <trkpt lat="54.051458984613419" lon="13.755887970328331">
        <ele>20.809999999999999</ele>
        <time>2024-09-16T08:55:46Z</time>
      </trkpt>
      <trkpt lat="54.051400981843472" lon="13.755924012511969">
        <ele>20.809999999999999</ele>
        <time>2024-09-16T08:55:47Z</time>
      </trkpt>
      <trkpt lat="54.050556002184749" lon="13.756475038826466">
        <ele>21.289999999999999</ele>
        <time>2024-09-16T08:55:58Z</time>
      </trkpt>
      <trkpt lat="54.049688978120685" lon="13.757137963548303">
        <ele>21.77</ele>
        <time>2024-09-16T08:56:10Z</time>
      </trkpt>
      <trkpt lat="54.04920500703156" lon="13.757482040673494">
        <ele>21.77</ele>
        <time>2024-09-16T08:56:18Z</time>
      </trkpt>
      <trkpt lat="54.049039967358112" lon="13.757606009021401">
        <ele>21.77</ele>
        <time>2024-09-16T08:56:21Z</time>
      </trkpt>
      <trkpt lat="54.04899001121521" lon="13.757642973214388">
        <ele>22.25</ele>
        <time>2024-09-16T08:56:22Z</time>
      </trkpt>
      <trkpt lat="54.048949023708701" lon="13.757675997912884">
        <ele>22.25</ele>
        <time>2024-09-16T08:56:23Z</time>
      </trkpt>
      <trkpt lat="54.048918010666966" lon="13.757701981812716">
        <ele>22.73</ele>
        <time>2024-09-16T08:56:24Z</time>
      </trkpt>
      <trkpt lat="54.048892026767135" lon="13.757724026218057">
        <ele>22.73</ele>
        <time>2024-09-16T08:56:25Z</time>
      </trkpt>
      <trkpt lat="54.048835029825568" lon="13.757769959047437">
        <ele>22.73</ele>
        <time>2024-09-16T08:56:35Z</time>
      </trkpt>
      <trkpt lat="54.048624979332089" lon="13.757942961528897">
        <ele>24.649999999999999</ele>
        <time>2024-09-16T08:56:42Z</time>
      </trkpt>
      <trkpt lat="54.048627996817231" lon="13.757999958470464">
        <ele>24.170000000000002</ele>
        <time>2024-09-16T08:56:43Z</time>
      </trkpt>
      <trkpt lat="54.048649035394192" lon="13.758080005645752">
        <ele>24.170000000000002</ele>
        <time>2024-09-16T08:56:44Z</time>
      </trkpt>
      <trkpt lat="54.048676025122404" lon="13.758185030892491">
        <ele>24.170000000000002</ele>
        <time>2024-09-16T08:56:45Z</time>
      </trkpt>
      <trkpt lat="54.048705026507378" lon="13.758298018947244">
        <ele>24.170000000000002</ele>
        <time>2024-09-16T08:56:46Z</time>
      </trkpt>
      <trkpt lat="54.048734027892351" lon="13.758407989516854">
        <ele>24.170000000000002</ele>
        <time>2024-09-16T08:56:47Z</time>
      </trkpt>
      <trkpt lat="54.048765040934086" lon="13.758519971743226">
        <ele>24.170000000000002</ele>
        <time>2024-09-16T08:56:48Z</time>
      </trkpt>
      <trkpt lat="54.048798987641931" lon="13.758637988939881">
        <ele>24.170000000000002</ele>
        <time>2024-09-16T08:56:49Z</time>
      </trkpt>
      <trkpt lat="54.048968972638249" lon="13.759263027459383">
        <ele>22.73</ele>
        <time>2024-09-16T08:56:54Z</time>
      </trkpt>
      <trkpt lat="54.048995040357113" lon="13.759361011907458">
        <ele>22.25</ele>
        <time>2024-09-16T08:56:55Z</time>
      </trkpt>
      <trkpt lat="54.049021024256945" lon="13.759454973042011">
        <ele>22.25</ele>
        <time>2024-09-16T08:56:56Z</time>
      </trkpt>
      <trkpt lat="54.049044996500015" lon="13.759546000510454">
        <ele>21.77</ele>
        <time>2024-09-16T08:56:57Z</time>
      </trkpt>
      <trkpt lat="54.049069974571466" lon="13.759636022150517">
        <ele>21.289999999999999</ele>
        <time>2024-09-16T08:56:58Z</time>
      </trkpt>
      <trkpt lat="54.049094030633569" lon="13.759727971628308">
        <ele>21.289999999999999</ele>
        <time>2024-09-16T08:56:59Z</time>
      </trkpt>
      <trkpt lat="54.049210958182812" lon="13.760166009888053">
        <ele>20.32</ele>
        <time>2024-09-16T08:57:03Z</time>
      </trkpt>
      <trkpt lat="54.049273990094662" lon="13.760399026796222">
        <ele>19.84</ele>
        <time>2024-09-16T08:57:05Z</time>
      </trkpt>
      <trkpt lat="54.049307014793158" lon="13.760524000972509">
        <ele>19.359999999999999</ele>
        <time>2024-09-16T08:57:06Z</time>
      </trkpt>
      <trkpt lat="54.049340039491653" lon="13.760646041482687">
        <ele>19.359999999999999</ele>
        <time>2024-09-16T08:57:07Z</time>
      </trkpt>
      <trkpt lat="54.049401981756091" lon="13.760872017592192">
        <ele>18.879999999999999</ele>
        <time>2024-09-16T08:57:09Z</time>
      </trkpt>
      <trkpt lat="54.049432994797826" lon="13.760986011475325">
        <ele>18.399999999999999</ele>
        <time>2024-09-16T08:57:10Z</time>
      </trkpt>
      <trkpt lat="54.049647990614176" lon="13.761829985305667">
        <ele>16</ele>
        <time>2024-09-16T08:57:19Z</time>
      </trkpt>
      <trkpt lat="54.049740023910999" lon="13.762150006368756">
        <ele>15.039999999999999</ele>
        <time>2024-09-16T08:57:23Z</time>
      </trkpt>
      <trkpt lat="54.049758967012167" lon="13.762217983603477">
        <ele>15.039999999999999</ele>
        <time>2024-09-16T08:57:24Z</time>
      </trkpt>
      <trkpt lat="54.04980800114572" lon="13.762401966378093">
        <ele>15.039999999999999</ele>
        <time>2024-09-16T08:57:33Z</time>
      </trkpt>
      <trkpt lat="54.049899028614163" lon="13.762744031846523">
        <ele>13.6</ele>
        <time>2024-09-16T08:57:49Z</time>
      </trkpt>
      <trkpt lat="54.050105977803469" lon="13.763557998463511">
        <ele>13.6</ele>
        <time>2024-09-16T08:57:57Z</time>
      </trkpt>
      <trkpt lat="54.050195999443531" lon="13.763886988162994">
        <ele>13.6</ele>
        <time>2024-09-16T08:58:00Z</time>
      </trkpt>
      <trkpt lat="54.050511997193098" lon="13.765052994713187">
        <ele>14.08</ele>
        <time>2024-09-16T08:58:11Z</time>
      </trkpt>
      <trkpt lat="54.050809973850846" lon="13.766254959627986">
        <ele>16.48</ele>
        <time>2024-09-16T08:58:22Z</time>
      </trkpt>
      <trkpt lat="54.050916004925966" lon="13.766665002331138">
        <ele>16.960000000000001</ele>
        <time>2024-09-16T08:58:26Z</time>
      </trkpt>
      <trkpt lat="54.050936959683895" lon="13.766746977344155">
        <ele>16.960000000000001</ele>
        <time>2024-09-16T08:58:27Z</time>
      </trkpt>
      <trkpt lat="54.050952969118953" lon="13.766810009256005">
        <ele>16.960000000000001</ele>
        <time>2024-09-16T08:58:28Z</time>
      </trkpt>
      <trkpt lat="54.05096503905952" lon="13.766855020076036">
        <ele>17.440000000000001</ele>
        <time>2024-09-16T08:58:29Z</time>
      </trkpt>
      <trkpt lat="54.050979036837816" lon="13.766910005360842">
        <ele>17.440000000000001</ele>
        <time>2024-09-16T08:58:30Z</time>
      </trkpt>
      <trkpt lat="54.050998985767365" lon="13.766988962888718">
        <ele>17.440000000000001</ele>
        <time>2024-09-16T08:58:31Z</time>
      </trkpt>
      <trkpt lat="54.051022036001086" lon="13.767077978700399">
        <ele>17.440000000000001</ele>
        <time>2024-09-16T08:58:32Z</time>
      </trkpt>
      <trkpt lat="54.051046008244157" lon="13.767172023653984">
        <ele>17.440000000000001</ele>
        <time>2024-09-16T08:58:33Z</time>
      </trkpt>
      <trkpt lat="54.051070986315608" lon="13.767267996445298">
        <ele>17.440000000000001</ele>
        <time>2024-09-16T08:58:34Z</time>
      </trkpt>
      <trkpt lat="54.051222028210759" lon="13.767903009429574">
        <ele>18.399999999999999</ele>
        <time>2024-09-16T08:58:41Z</time>
      </trkpt>
      <trkpt lat="54.051234014332294" lon="13.767954977229238">
        <ele>18.399999999999999</ele>
        <time>2024-09-16T08:58:42Z</time>
      </trkpt>
      <trkpt lat="54.051241977140307" lon="13.767985990270972">
        <ele>18.399999999999999</ele>
        <time>2024-09-16T08:58:43Z</time>
      </trkpt>
      <trkpt lat="54.051060006022453" lon="13.768126973882318">
        <ele>17.920000000000002</ele>
        <time>2024-09-16T08:58:45Z</time>
      </trkpt>
      <trkpt lat="54.051233008503914" lon="13.767951037734747">
        <ele>17.920000000000002</ele>
        <time>2024-09-16T08:58:47Z</time>
      </trkpt>
      <trkpt lat="54.051008960232139" lon="13.768300982192159">
        <ele>17.440000000000001</ele>
        <time>2024-09-16T08:58:55Z</time>
      </trkpt>
      <trkpt lat="54.051008960232139" lon="13.768300982192159">
        <ele>17.440000000000001</ele>
        <time>2024-09-16T08:59:05Z</time>
      </trkpt>
      <trkpt lat="54.051025975495577" lon="13.768307017162442">
        <ele>17.440000000000001</ele>
        <time>2024-09-16T08:59:21Z</time>
      </trkpt>
      <trkpt lat="54.050960009917617" lon="13.768317997455597">
        <ele>10.710000000000001</ele>
        <time>2024-09-16T09:37:40Z</time>
      </trkpt>
      <trkpt lat="54.051020024344325" lon="13.768288996070623">
        <ele>19.84</ele>
        <time>2024-09-16T09:38:08Z</time>
      </trkpt>
      <trkpt lat="54.050944000482559" lon="13.768348004668951">
        <ele>10.23</ele>
        <time>2024-09-16T09:38:42Z</time>
      </trkpt>
      <trkpt lat="54.050976019352674" lon="13.768325038254261">
        <ele>16.48</ele>
        <time>2024-09-16T09:39:35Z</time>
      </trkpt>
      <trkpt lat="54.050978031009436" lon="13.768317997455597">
        <ele>16.48</ele>
        <time>2024-09-16T09:40:30Z</time>
      </trkpt>
      <trkpt lat="54.050978031009436" lon="13.768317997455597">
        <ele>16.48</ele>
        <time>2024-09-16T09:40:31Z</time>
      </trkpt>
      <trkpt lat="54.051285982131958" lon="13.768164021894336">
        <ele>15.52</ele>
        <time>2024-09-16T09:40:39Z</time>
      </trkpt>
      <trkpt lat="54.05126603320241" lon="13.768081963062286">
        <ele>15.039999999999999</ele>
        <time>2024-09-16T09:40:40Z</time>
      </trkpt>
      <trkpt lat="54.051242982968688" lon="13.767990013584495">
        <ele>15.039999999999999</ele>
        <time>2024-09-16T09:40:41Z</time>
      </trkpt>
      <trkpt lat="54.051222028210759" lon="13.767902003601193">
        <ele>14.56</ele>
        <time>2024-09-16T09:40:42Z</time>
      </trkpt>
      <trkpt lat="54.051199983805418" lon="13.767802007496357">
        <ele>14.08</ele>
        <time>2024-09-16T09:40:43Z</time>
      </trkpt>
      <trkpt lat="54.051124965772033" lon="13.767477041110396">
        <ele>12.15</ele>
        <time>2024-09-16T09:40:46Z</time>
      </trkpt>
      <trkpt lat="54.05107500962913" lon="13.767283000051975">
        <ele>11.19</ele>
        <time>2024-09-16T09:40:48Z</time>
      </trkpt>
      <trkpt lat="54.050997979938984" lon="13.766984017565846">
        <ele>9.27</ele>
        <time>2024-09-16T09:40:52Z</time>
      </trkpt>
      <trkpt lat="54.050982976332307" lon="13.766928026452661">
        <ele>7.83</ele>
        <time>2024-09-16T09:40:56Z</time>
      </trkpt>
      <trkpt lat="54.050995968282223" lon="13.766974965110421">
        <ele>7.35</ele>
        <time>2024-09-16T09:40:57Z</time>
      </trkpt>
      <trkpt lat="54.051019018515944" lon="13.767064986750484">
        <ele>7.35</ele>
        <time>2024-09-16T09:40:58Z</time>
      </trkpt>
      <trkpt lat="54.051046008244157" lon="13.767172023653984">
        <ele>7.35</ele>
        <time>2024-09-16T09:40:59Z</time>
      </trkpt>
      <trkpt lat="54.051076015457511" lon="13.767287023365498">
        <ele>7.35</ele>
        <time>2024-09-16T09:41:00Z</time>
      </trkpt>
      <trkpt lat="54.051107028499246" lon="13.767408980056643">
        <ele>7.35</ele>
        <time>2024-09-16T09:41:01Z</time>
      </trkpt>
      <trkpt lat="54.051454961299896" lon="13.768802974373102">
        <ele>8.789999999999999</ele>
        <time>2024-09-16T09:41:12Z</time>
      </trkpt>
      <trkpt lat="54.051846982911229" lon="13.770395033061504">
        <ele>6.87</ele>
        <time>2024-09-16T09:41:23Z</time>
      </trkpt>
      <trkpt lat="54.05223598703742" lon="13.771973010152578">
        <ele>5.91</ele>
        <time>2024-09-16T09:41:33Z</time>
      </trkpt>
      <trkpt lat="54.052726998925209" lon="13.773961029946804">
        <ele>5.42</ele>
        <time>2024-09-16T09:41:45Z</time>
      </trkpt>
      <trkpt lat="54.052905030548573" lon="13.774859989061952">
        <ele>5.42</ele>
        <time>2024-09-16T09:41:50Z</time>
      </trkpt>
      <trkpt lat="54.052894972264767" lon="13.775042966008186">
        <ele>5.42</ele>
        <time>2024-09-16T09:41:51Z</time>
      </trkpt>
      <trkpt lat="54.052884997799993" lon="13.775227032601833">
        <ele>5.42</ele>
        <time>2024-09-16T09:41:52Z</time>
      </trkpt>
      <trkpt lat="54.052849039435387" lon="13.775615030899644">
        <ele>5.42</ele>
        <time>2024-09-16T09:41:54Z</time>
      </trkpt>
      <trkpt lat="54.052873011678457" lon="13.775792978703976">
        <ele>5.42</ele>
        <time>2024-09-16T09:41:55Z</time>
      </trkpt>
      <trkpt lat="54.052896983921528" lon="13.7759730219841">
        <ele>5.42</ele>
        <time>2024-09-16T09:41:56Z</time>
      </trkpt>
      <trkpt lat="54.052930008620024" lon="13.776150969788432">
        <ele>4.94</ele>
        <time>2024-09-16T09:41:57Z</time>
      </trkpt>
      <trkpt lat="54.052968984469771" lon="13.776331013068557">
        <ele>4.94</ele>
        <time>2024-09-16T09:41:58Z</time>
      </trkpt>
      <trkpt lat="54.053036961704493" lon="13.776681041345">
        <ele>4.94</ele>
        <time>2024-09-16T09:42:00Z</time>
      </trkpt>
      <trkpt lat="54.053042996674776" lon="13.776863012462854">
        <ele>4.94</ele>
        <time>2024-09-16T09:42:01Z</time>
      </trkpt>
      <trkpt lat="54.053056994453073" lon="13.777702962979674">
        <ele>5.91</ele>
        <time>2024-09-16T09:42:08Z</time>
      </trkpt>
      <trkpt lat="54.053056994453073" lon="13.778579039499164">
        <ele>5.91</ele>
        <time>2024-09-16T09:42:15Z</time>
      </trkpt>
      <trkpt lat="54.053056994453073" lon="13.778725974261761">
        <ele>5.91</ele>
        <time>2024-09-16T09:42:16Z</time>
      </trkpt>
      <trkpt lat="54.053056994453073" lon="13.778996961191297">
        <ele>5.42</ele>
        <time>2024-09-16T09:42:18Z</time>
      </trkpt>
      <trkpt lat="54.053074009716511" lon="13.779097963124514">
        <ele>5.42</ele>
        <time>2024-09-16T09:42:19Z</time>
      </trkpt>
      <trkpt lat="54.053102005273104" lon="13.779220003634691">
        <ele>4.94</ele>
        <time>2024-09-16T09:42:20Z</time>
      </trkpt>
      <trkpt lat="54.053130000829697" lon="13.77932402305305">
        <ele>4.94</ele>
        <time>2024-09-16T09:42:21Z</time>
      </trkpt>
      <trkpt lat="54.053170988336205" lon="13.779436005279422">
        <ele>4.46</ele>
        <time>2024-09-16T09:42:22Z</time>
      </trkpt>
      <trkpt lat="54.053209964185953" lon="13.779502976685762">
        <ele>3.98</ele>
        <time>2024-09-16T09:42:23Z</time>
      </trkpt>
      <trkpt lat="54.053270984441042" lon="13.779581012204289">
        <ele>3.98</ele>
        <time>2024-09-16T09:42:24Z</time>
      </trkpt>
      <trkpt lat="54.053335022181273" lon="13.779626023024321">
        <ele>3.02</ele>
        <time>2024-09-16T09:42:25Z</time>
      </trkpt>
      <trkpt lat="54.053408028557897" lon="13.779677990823984">
        <ele>2.54</ele>
        <time>2024-09-16T09:42:26Z</time>
      </trkpt>
      <trkpt lat="54.053542977198958" lon="13.779748985543847">
        <ele>2.06</ele>
        <time>2024-09-16T09:42:28Z</time>
      </trkpt>
      <trkpt lat="54.053675998002291" lon="13.77984001301229">
        <ele>0.62</ele>
        <time>2024-09-16T09:42:30Z</time>
      </trkpt>
      <trkpt lat="54.053735006600618" lon="13.779887035489082">
        <ele>0.14</ele>
        <time>2024-09-16T09:42:31Z</time>
      </trkpt>
      <trkpt lat="54.053812958300114" lon="13.779966998845339">
        <ele>-0.34</ele>
        <time>2024-09-16T09:42:32Z</time>
      </trkpt>
      <trkpt lat="54.053841037675738" lon="13.780078981071711">
        <ele>-1.3</ele>
        <time>2024-09-16T09:42:33Z</time>
      </trkpt>
      <trkpt lat="54.053864004090428" lon="13.780212001875043">
        <ele>-1.3</ele>
        <time>2024-09-16T09:42:34Z</time>
      </trkpt>
      <trkpt lat="54.053882025182247" lon="13.780336976051331">
        <ele>-1.79</ele>
        <time>2024-09-16T09:42:35Z</time>
      </trkpt>
      <trkpt lat="54.053981015458703" lon="13.780833017081022">
        <ele>-2.75</ele>
        <time>2024-09-16T09:42:39Z</time>
      </trkpt>
      <trkpt lat="54.054282009601593" lon="13.781876983121037">
        <ele>-2.27</ele>
        <time>2024-09-16T09:42:47Z</time>
      </trkpt>
      <trkpt lat="54.054591972380877" lon="13.78280402161181">
        <ele>-0.82</ele>
        <time>2024-09-16T09:42:53Z</time>
      </trkpt>
      <trkpt lat="54.054627008736134" lon="13.782989010214806">
        <ele>-0.34</ele>
        <time>2024-09-16T09:42:54Z</time>
      </trkpt>
      <trkpt lat="54.054662967100739" lon="13.783178022131324">
        <ele>-0.34</ele>
        <time>2024-09-16T09:42:55Z</time>
      </trkpt>
      <trkpt lat="54.054698003455997" lon="13.783365022391081">
        <ele>0.14</ele>
        <time>2024-09-16T09:42:56Z</time>
      </trkpt>
      <trkpt lat="54.054715018719435" lon="13.783554034307599">
        <ele>0.62</ele>
        <time>2024-09-16T09:42:57Z</time>
      </trkpt>
      <trkpt lat="54.054722981527448" lon="13.783746985718608">
        <ele>1.1</ele>
        <time>2024-09-16T09:42:58Z</time>
      </trkpt>
      <trkpt lat="54.05487603507936" lon="13.786707976832986">
        <ele>7.83</ele>
        <time>2024-09-16T09:43:13Z</time>
      </trkpt>
      <trkpt lat="54.055152973160148" lon="13.788833962753415">
        <ele>7.35</ele>
        <time>2024-09-16T09:43:24Z</time>
      </trkpt>
      <trkpt lat="54.05519999563694" lon="13.789017023518682">
        <ele>6.87</ele>
        <time>2024-09-16T09:43:25Z</time>
      </trkpt>
      <trkpt lat="54.055312983691692" lon="13.789350958541036">
        <ele>5.42</ele>
        <time>2024-09-16T09:43:27Z</time>
      </trkpt>
      <trkpt lat="54.055374003946781" lon="13.789494037628174">
        <ele>4.94</ele>
        <time>2024-09-16T09:43:28Z</time>
      </trkpt>
      <trkpt lat="54.055472994223237" lon="13.789625968784094">
        <ele>4.46</ele>
        <time>2024-09-16T09:43:29Z</time>
      </trkpt>
      <trkpt lat="54.05556402169168" lon="13.789747003465891">
        <ele>3.5</ele>
        <time>2024-09-16T09:43:30Z</time>
      </trkpt>
      <trkpt lat="54.055656976997852" lon="13.789870971813798">
        <ele>3.02</ele>
        <time>2024-09-16T09:43:31Z</time>
      </trkpt>
      <trkpt lat="54.055754039436579" lon="13.789974991232157">
        <ele>2.54</ele>
        <time>2024-09-16T09:43:32Z</time>
      </trkpt>
      <trkpt lat="54.055863004177809" lon="13.790070964023471">
        <ele>2.06</ele>
        <time>2024-09-16T09:43:33Z</time>
      </trkpt>
      <trkpt lat="54.055975992232561" lon="13.790142964571714">
        <ele>1.58</ele>
        <time>2024-09-16T09:43:34Z</time>
      </trkpt>
      <trkpt lat="54.056097026914358" lon="13.790209013968706">
        <ele>1.1</ele>
        <time>2024-09-16T09:43:35Z</time>
      </trkpt>
      <trkpt lat="54.056476978585124" lon="13.790418980643153">
        <ele>1.1</ele>
        <time>2024-09-16T09:43:38Z</time>
      </trkpt>
      <trkpt lat="54.056603964418173" lon="13.790542026981711">
        <ele>1.1</ele>
        <time>2024-09-16T09:43:39Z</time>
      </trkpt>
      <trkpt lat="54.056719969958067" lon="13.790689967572689">
        <ele>1.1</ele>
        <time>2024-09-16T09:43:40Z</time>
      </trkpt>
      <trkpt lat="54.056822983548045" lon="13.790852995589375">
        <ele>1.58</ele>
        <time>2024-09-16T09:43:41Z</time>
      </trkpt>
      <trkpt lat="54.056929014623165" lon="13.791020968928933">
        <ele>2.06</ele>
        <time>2024-09-16T09:43:42Z</time>
      </trkpt>
      <trkpt lat="54.057002020999789" lon="13.791234036907554">
        <ele>2.54</ele>
        <time>2024-09-16T09:43:43Z</time>
      </trkpt>
      <trkpt lat="54.057071004062891" lon="13.791453978046775">
        <ele>2.54</ele>
        <time>2024-09-16T09:43:44Z</time>
      </trkpt>
      <trkpt lat="54.057139987125993" lon="13.791672997176647">
        <ele>3.02</ele>
        <time>2024-09-16T09:43:45Z</time>
      </trkpt>
      <trkpt lat="54.057193966582417" lon="13.791908025741577">
        <ele>3.5</ele>
        <time>2024-09-16T09:43:46Z</time>
      </trkpt>
      <trkpt lat="54.057303015142679" lon="13.792674969881773">
        <ele>3.98</ele>
        <time>2024-09-16T09:43:49Z</time>
      </trkpt>
      <trkpt lat="54.057360012084246" lon="13.792916033416986">
        <ele>4.46</ele>
        <time>2024-09-16T09:43:50Z</time>
      </trkpt>
      <trkpt lat="54.057453973218799" lon="13.793131029233336">
        <ele>4.46</ele>
        <time>2024-09-16T09:43:51Z</time>
      </trkpt>
      <trkpt lat="54.057550029829144" lon="13.793347030878067">
        <ele>4.46</ele>
        <time>2024-09-16T09:43:52Z</time>
      </trkpt>
      <trkpt lat="54.0576490201056" lon="13.793570995330811">
        <ele>4.46</ele>
        <time>2024-09-16T09:43:53Z</time>
      </trkpt>
      <trkpt lat="54.058544961735606" lon="13.795557003468275">
        <ele>3.98</ele>
        <time>2024-09-16T09:44:02Z</time>
      </trkpt>
      <trkpt lat="54.05882902443409" lon="13.797531025484204">
        <ele>6.87</ele>
        <time>2024-09-16T09:44:09Z</time>
      </trkpt>
      <trkpt lat="54.05882902443409" lon="13.797815004363656">
        <ele>7.35</ele>
        <time>2024-09-16T09:44:10Z</time>
      </trkpt>
      <trkpt lat="54.058821983635426" lon="13.798099989071488">
        <ele>8.310000000000001</ele>
        <time>2024-09-16T09:44:11Z</time>
      </trkpt>
      <trkpt lat="54.058793988078833" lon="13.798377010971308">
        <ele>8.789999999999999</ele>
        <time>2024-09-16T09:44:12Z</time>
      </trkpt>
      <trkpt lat="54.05876699835062" lon="13.798641040921211">
        <ele>9.27</ele>
        <time>2024-09-16T09:44:13Z</time>
      </trkpt>
      <trkpt lat="54.058739002794027" lon="13.798894006758928">
        <ele>9.75</ele>
        <time>2024-09-16T09:44:14Z</time>
      </trkpt>
      <trkpt lat="54.058696003630757" lon="13.799132974818349">
        <ele>9.75</ele>
        <time>2024-09-16T09:44:15Z</time>
      </trkpt>
      <trkpt lat="54.058383023366332" lon="13.801550986245275">
        <ele>14.08</ele>
        <time>2024-09-16T09:44:25Z</time>
      </trkpt>
      <trkpt lat="54.05865803360939" lon="13.803373966366053">
        <ele>14.56</ele>
        <time>2024-09-16T09:44:33Z</time>
      </trkpt>
      <trkpt lat="54.059274019673467" lon="13.806656990200281">
        <ele>12.630000000000001</ele>
        <time>2024-09-16T09:44:48Z</time>
      </trkpt>
      <trkpt lat="54.059827979654074" lon="13.809585040435195">
        <ele>8.310000000000001</ele>
        <time>2024-09-16T09:45:00Z</time>
      </trkpt>
      <trkpt lat="54.060537004843354" lon="13.813326973468065">
        <ele>4.46</ele>
        <time>2024-09-16T09:45:12Z</time>
      </trkpt>
      <trkpt lat="54.061368992552161" lon="13.817685982212424">
        <ele>5.42</ele>
        <time>2024-09-16T09:45:25Z</time>
      </trkpt>
      <trkpt lat="54.061920018866658" lon="13.821641989052296">
        <ele>5.42</ele>
        <time>2024-09-16T09:45:36Z</time>
      </trkpt>
      <trkpt lat="54.061954971402884" lon="13.825327008962631">
        <ele>5.91</ele>
        <time>2024-09-16T09:45:46Z</time>
      </trkpt>
      <trkpt lat="54.061964023858309" lon="13.828889988362789">
        <ele>5.42</ele>
        <time>2024-09-16T09:45:57Z</time>
      </trkpt>
      <trkpt lat="54.062101989984512" lon="13.831717036664486">
        <ele>4.46</ele>
        <time>2024-09-16T09:46:07Z</time>
      </trkpt>
      <trkpt lat="54.062265018001199" lon="13.832794027402997">
        <ele>4.46</ele>
        <time>2024-09-16T09:46:11Z</time>
      </trkpt>
      <trkpt lat="54.062306005507708" lon="13.833057973533869">
        <ele>4.46</ele>
        <time>2024-09-16T09:46:12Z</time>
      </trkpt>
      <trkpt lat="54.062346993014216" lon="13.833324015140533">
        <ele>4.46</ele>
        <time>2024-09-16T09:46:13Z</time>
      </trkpt>
      <trkpt lat="54.062556037679315" lon="13.834557998925447">
        <ele>3.98</ele>
        <time>2024-09-16T09:46:18Z</time>
      </trkpt>
      <trkpt lat="54.06291302293539" lon="13.836581977084279">
        <ele>3.98</ele>
        <time>2024-09-16T09:46:27Z</time>
      </trkpt>
      <trkpt lat="54.063347037881613" lon="13.83909797295928">
        <ele>-0.34</ele>
        <time>2024-09-16T09:46:38Z</time>
      </trkpt>
      <trkpt lat="54.063433958217502" lon="13.839602982625365">
        <ele>-1.3</ele>
        <time>2024-09-16T09:46:40Z</time>
      </trkpt>
      <trkpt lat="54.063482992351055" lon="13.839865000918508">
        <ele>-1.79</ele>
        <time>2024-09-16T09:46:41Z</time>
      </trkpt>
      <trkpt lat="54.064004011452198" lon="13.842860022559762">
        <ele>-5.15</ele>
        <time>2024-09-16T09:46:52Z</time>
      </trkpt>
      <trkpt lat="54.064574986696243" lon="13.846254022791982">
        <ele>-7.07</ele>
        <time>2024-09-16T09:47:04Z</time>
      </trkpt>
      <trkpt lat="54.065070021897554" lon="13.849042011424899">
        <ele>-4.67</ele>
        <time>2024-09-16T09:47:15Z</time>
      </trkpt>
      <trkpt lat="54.06551199965179" lon="13.850858034566045">
        <ele>-2.75</ele>
        <time>2024-09-16T09:47:25Z</time>
      </trkpt>
      <trkpt lat="54.066556971520185" lon="13.85325500741601">
        <ele>-2.75</ele>
        <time>2024-09-16T09:47:40Z</time>
      </trkpt>
      <trkpt lat="54.067168012261391" lon="13.854699041694403">
        <ele>-2.27</ele>
        <time>2024-09-16T09:47:49Z</time>
      </trkpt>
      <trkpt lat="54.067230960354209" lon="13.854859974235296">
        <ele>-1.79</ele>
        <time>2024-09-16T09:47:50Z</time>
      </trkpt>
      <trkpt lat="54.067969992756844" lon="13.856795020401478">
        <ele>-0.34</ele>
        <time>2024-09-16T09:48:00Z</time>
      </trkpt>
      <trkpt lat="54.068070994690061" lon="13.85699400678277">
        <ele>-0.82</ele>
        <time>2024-09-16T09:48:01Z</time>
      </trkpt>
      <trkpt lat="54.069498013705015" lon="13.859331971034408">
        <ele>-1.3</ele>
        <time>2024-09-16T09:48:14Z</time>
      </trkpt>
      <trkpt lat="54.070033030584455" lon="13.860412985086441">
        <ele>-1.3</ele>
        <time>2024-09-16T09:48:23Z</time>
      </trkpt>
      <trkpt lat="54.070149036124349" lon="13.860704004764557">
        <ele>-1.79</ele>
        <time>2024-09-16T09:48:30Z</time>
      </trkpt>
      <trkpt lat="54.070183988660574" lon="13.860809030011296">
        <ele>-2.27</ele>
        <time>2024-09-16T09:48:37Z</time>
      </trkpt>
      <trkpt lat="54.070207960903645" lon="13.86088103055954">
        <ele>-2.27</ele>
        <time>2024-09-16T09:48:38Z</time>
      </trkpt>
      <trkpt lat="54.070264035835862" lon="13.860896034166217">
        <ele>-2.75</ele>
        <time>2024-09-16T09:48:39Z</time>
      </trkpt>
      <trkpt lat="54.070318015292287" lon="13.860855968669057">
        <ele>-3.23</ele>
        <time>2024-09-16T09:48:40Z</time>
      </trkpt>
      <trkpt lat="54.070394961163402" lon="13.86079796589911">
        <ele>-3.23</ele>
        <time>2024-09-16T09:48:41Z</time>
      </trkpt>
      <trkpt lat="54.070479031652212" lon="13.860759995877743">
        <ele>-3.71</ele>
        <time>2024-09-16T09:48:42Z</time>
      </trkpt>
      <trkpt lat="54.07137799076736" lon="13.860893016681075">
        <ele>-6.11</ele>
        <time>2024-09-16T09:48:49Z</time>
      </trkpt>
      <trkpt lat="54.072511978447437" lon="13.861429039388895">
        <ele>-7.55</ele>
        <time>2024-09-16T09:48:56Z</time>
      </trkpt>
      <trkpt lat="54.073878983035684" lon="13.862208975479007">
        <ele>-8.51</ele>
        <time>2024-09-16T09:49:05Z</time>
      </trkpt>
      <trkpt lat="54.075341038405895" lon="13.863039035350084">
        <ele>-9.48</ele>
        <time>2024-09-16T09:49:15Z</time>
      </trkpt>
      <trkpt lat="54.077252028509974" lon="13.864160031080246">
        <ele>-9</ele>
        <time>2024-09-16T09:49:28Z</time>
      </trkpt>
      <trkpt lat="54.078651973977685" lon="13.865051027387381">
        <ele>-7.55</ele>
        <time>2024-09-16T09:49:38Z</time>
      </trkpt>
      <trkpt lat="54.080001963302493" lon="13.86595300398767">
        <ele>-7.07</ele>
        <time>2024-09-16T09:49:48Z</time>
      </trkpt>
      <trkpt lat="54.080132972449064" lon="13.866047970950603">
        <ele>-7.07</ele>
        <time>2024-09-16T09:49:49Z</time>
      </trkpt>
      <trkpt lat="54.081272995099425" lon="13.866934021934867">
        <ele>-7.07</ele>
        <time>2024-09-16T09:49:58Z</time>
      </trkpt>
      <trkpt lat="54.082384016364813" lon="13.867771960794926">
        <ele>-8.029999999999999</ele>
        <time>2024-09-16T09:50:07Z</time>
      </trkpt>
      <trkpt lat="54.082499016076326" lon="13.867855025455356">
        <ele>-8.029999999999999</ele>
        <time>2024-09-16T09:50:08Z</time>
      </trkpt>
      <trkpt lat="54.082613009959459" lon="13.867912022396922">
        <ele>-8.029999999999999</ele>
        <time>2024-09-16T09:50:09Z</time>
      </trkpt>
      <trkpt lat="54.082737984135747" lon="13.867938006296754">
        <ele>-8.51</ele>
        <time>2024-09-16T09:50:10Z</time>
      </trkpt>
      <trkpt lat="54.082877961918712" lon="13.867955021560192">
        <ele>-8.029999999999999</ele>
        <time>2024-09-16T09:50:11Z</time>
      </trkpt>
      <trkpt lat="54.083004025742412" lon="13.867880003526807">
        <ele>-8.029999999999999</ele>
        <time>2024-09-16T09:50:12Z</time>
      </trkpt>
      <trkpt lat="54.08313000574708" lon="13.867765003815293">
        <ele>-7.55</ele>
        <time>2024-09-16T09:50:13Z</time>
      </trkpt>
      <trkpt lat="54.083222961053252" lon="13.867640029639006">
        <ele>-7.07</ele>
        <time>2024-09-16T09:50:14Z</time>
      </trkpt>
      <trkpt lat="54.083999963477254" lon="13.866355000063777">
        <ele>-6.59</ele>
        <time>2024-09-16T09:50:23Z</time>
      </trkpt>
      <trkpt lat="54.084798004478216" lon="13.864937033504248">
        <ele>-5.15</ele>
        <time>2024-09-16T09:50:33Z</time>
      </trkpt>
      <trkpt lat="54.085870971903205" lon="13.863457040861249">
        <ele>-5.63</ele>
        <time>2024-09-16T09:50:45Z</time>
      </trkpt>
      <trkpt lat="54.087294973433018" lon="13.861775966361165">
        <ele>-6.11</ele>
        <time>2024-09-16T09:51:00Z</time>
      </trkpt>
      <trkpt lat="54.087707027792931" lon="13.861294006928802">
        <ele>-6.11</ele>
        <time>2024-09-16T09:51:06Z</time>
      </trkpt>
      <trkpt lat="54.088463997468352" lon="13.860839959233999">
        <ele>-8.51</ele>
        <time>2024-09-16T09:51:14Z</time>
      </trkpt>
      <trkpt lat="54.089491032063961" lon="13.86025900952518">
        <ele>-10.92</ele>
        <time>2024-09-16T09:51:23Z</time>
      </trkpt>
      <trkpt lat="54.09056500531733" lon="13.859605975449085">
        <ele>-12.359999999999999</ele>
        <time>2024-09-16T09:51:33Z</time>
      </trkpt>
      <trkpt lat="54.091607965528965" lon="13.858737023547292">
        <ele>-9.48</ele>
        <time>2024-09-16T09:51:43Z</time>
      </trkpt>
      <trkpt lat="54.093073960393667" lon="13.85746699757874">
        <ele>-3.23</ele>
        <time>2024-09-16T09:51:57Z</time>
      </trkpt>
      <trkpt lat="54.094281038269401" lon="13.856421019881964">
        <ele>0.14</ele>
        <time>2024-09-16T09:52:08Z</time>
      </trkpt>
      <trkpt lat="54.094765009358525" lon="13.85600502602756">
        <ele>1.58</ele>
        <time>2024-09-16T09:52:12Z</time>
      </trkpt>
      <trkpt lat="54.096033023670316" lon="13.855003975331783">
        <ele>6.87</ele>
        <time>2024-09-16T09:52:22Z</time>
      </trkpt>
      <trkpt lat="54.096552031114697" lon="13.854595022276044">
        <ele>8.310000000000001</ele>
        <time>2024-09-16T09:52:26Z</time>
      </trkpt>
      <trkpt lat="54.096683040261269" lon="13.854491002857685">
        <ele>8.789999999999999</ele>
        <time>2024-09-16T09:52:27Z</time>
      </trkpt>
      <trkpt lat="54.097586022689939" lon="13.853620961308479">
        <ele>9.75</ele>
        <time>2024-09-16T09:52:34Z</time>
      </trkpt>
      <trkpt lat="54.098941963165998" lon="13.852199977263808">
        <ele>11.67</ele>
        <time>2024-09-16T09:52:44Z</time>
      </trkpt>
      <trkpt lat="54.100502002984285" lon="13.850660976022482">
        <ele>12.630000000000001</ele>
        <time>2024-09-16T09:52:56Z</time>
      </trkpt>
      <trkpt lat="54.10246898420155" lon="13.848535995930433">
        <ele>14.56</ele>
        <time>2024-09-16T09:53:11Z</time>
      </trkpt>
      <trkpt lat="54.10362996160984" lon="13.847164968028665">
        <ele>14.08</ele>
        <time>2024-09-16T09:53:21Z</time>
      </trkpt>
      <trkpt lat="54.105206010863185" lon="13.845322960987687">
        <ele>15.039999999999999</ele>
        <time>2024-09-16T09:53:35Z</time>
      </trkpt>
      <trkpt lat="54.106074962764978" lon="13.84440103545785">
        <ele>15.039999999999999</ele>
        <time>2024-09-16T09:53:44Z</time>
      </trkpt>
      <trkpt lat="54.10702102817595" lon="13.843381041660905">
        <ele>15.039999999999999</ele>
        <time>2024-09-16T09:53:54Z</time>
      </trkpt>
      <trkpt lat="54.108041021972895" lon="13.842072039842606">
        <ele>14.08</ele>
        <time>2024-09-16T09:54:05Z</time>
      </trkpt>
      <trkpt lat="54.10910896025598" lon="13.840516023337841">
        <ele>11.67</ele>
        <time>2024-09-16T09:54:17Z</time>
      </trkpt>
      <trkpt lat="54.109538029879332" lon="13.839860977604985">
        <ele>11.19</ele>
        <time>2024-09-16T09:54:22Z</time>
      </trkpt>
      <trkpt lat="54.109640959650278" lon="13.839704990386963">
        <ele>10.710000000000001</ele>
        <time>2024-09-16T09:54:23Z</time>
      </trkpt>
      <trkpt lat="54.11020296625793" lon="13.838777029886842">
        <ele>9.75</ele>
        <time>2024-09-16T09:54:30Z</time>
      </trkpt>
      <trkpt lat="54.110290976241231" lon="13.838653983548284">
        <ele>9.27</ele>
        <time>2024-09-16T09:54:31Z</time>
      </trkpt>
      <trkpt lat="54.110378986224532" lon="13.838532026857138">
        <ele>9.27</ele>
        <time>2024-09-16T09:54:32Z</time>
      </trkpt>
      <trkpt lat="54.110468002036214" lon="13.838407974690199">
        <ele>8.789999999999999</ele>
        <time>2024-09-16T09:54:33Z</time>
      </trkpt>
      <trkpt lat="54.110558023676276" lon="13.838281994685531">
        <ele>8.789999999999999</ele>
        <time>2024-09-16T09:54:34Z</time>
      </trkpt>
      <trkpt lat="54.111505011096597" lon="13.836817005649209">
        <ele>5.91</ele>
        <time>2024-09-16T09:54:45Z</time>
      </trkpt>
      <trkpt lat="54.112323001027107" lon="13.835477996617556">
        <ele>3.98</ele>
        <time>2024-09-16T09:54:55Z</time>
      </trkpt>
      <trkpt lat="54.112997995689511" lon="13.834383990615606">
        <ele>2.54</ele>
        <time>2024-09-16T09:55:04Z</time>
      </trkpt>
      <trkpt lat="54.113283986225724" lon="13.833918962627649">
        <ele>1.58</ele>
        <time>2024-09-16T09:55:14Z</time>
      </trkpt>
      <trkpt lat="54.113418012857437" lon="13.833728022873402">
        <ele>1.1</ele>
        <time>2024-09-16T09:55:21Z</time>
      </trkpt>
      <trkpt lat="54.113957975059748" lon="13.832916989922523">
        <ele>0.14</ele>
        <time>2024-09-16T09:55:30Z</time>
      </trkpt>
      <trkpt lat="54.114028969779611" lon="13.832804001867771">
        <ele>0.14</ele>
        <time>2024-09-16T09:55:31Z</time>
      </trkpt>
      <trkpt lat="54.114873027428985" lon="13.831630032509565">
        <ele>-2.75</ele>
        <time>2024-09-16T09:55:41Z</time>
      </trkpt>
      <trkpt lat="54.114966988563538" lon="13.831516960635781">
        <ele>-2.75</ele>
        <time>2024-09-16T09:55:42Z</time>
      </trkpt>
      <trkpt lat="54.116342961788177" lon="13.83003001101315">
        <ele>-3.23</ele>
        <time>2024-09-16T09:55:56Z</time>
      </trkpt>
      <trkpt lat="54.116802038624883" lon="13.829604964703321">
        <ele>-3.23</ele>
        <time>2024-09-16T09:56:01Z</time>
      </trkpt>
      <trkpt lat="54.116872027516365" lon="13.829548973590136">
        <ele>-3.23</ele>
        <time>2024-09-16T09:56:02Z</time>
      </trkpt>
      <trkpt lat="54.117136979475617" lon="13.829429028555751">
        <ele>-2.75</ele>
        <time>2024-09-16T09:56:06Z</time>
      </trkpt>
      <trkpt lat="54.1172069683671" lon="13.829418970271945">
        <ele>-2.75</ele>
        <time>2024-09-16T09:56:07Z</time>
      </trkpt>
      <trkpt lat="54.117277041077614" lon="13.829408995807171">
        <ele>-2.75</ele>
        <time>2024-09-16T09:56:08Z</time>
      </trkpt>
      <trkpt lat="54.117317022755742" lon="13.829503040760756">
        <ele>-2.75</ele>
        <time>2024-09-16T09:56:09Z</time>
      </trkpt>
      <trkpt lat="54.11733697168529" lon="13.829626003280282">
        <ele>-2.75</ele>
        <time>2024-09-16T09:56:10Z</time>
      </trkpt>
      <trkpt lat="54.11735599860549" lon="13.829742008820176">
        <ele>-3.23</ele>
        <time>2024-09-16T09:56:11Z</time>
      </trkpt>
      <trkpt lat="54.117466975003481" lon="13.830381967127323">
        <ele>-4.67</ele>
        <time>2024-09-16T09:56:18Z</time>
      </trkpt>
      <trkpt lat="54.117490025237203" lon="13.83045899681747">
        <ele>-4.67</ele>
        <time>2024-09-16T09:56:19Z</time>
      </trkpt>
      <trkpt lat="54.117513997480273" lon="13.830539966002107">
        <ele>-4.67</ele>
        <time>2024-09-16T09:56:20Z</time>
      </trkpt>
      <trkpt lat="54.117535036057234" lon="13.830612972378731">
        <ele>-5.15</ele>
        <time>2024-09-16T09:56:21Z</time>
      </trkpt>
      <trkpt lat="54.117609970271587" lon="13.830653037875891">
        <ele>-5.15</ele>
        <time>2024-09-16T09:56:22Z</time>
      </trkpt>
      <trkpt lat="54.117660010233521" lon="13.830613978207111">
        <ele>-5.15</ele>
        <time>2024-09-16T09:56:23Z</time>
      </trkpt>
      <trkpt lat="54.117716001346707" lon="13.830569973215461">
        <ele>-5.15</ele>
        <time>2024-09-16T09:56:24Z</time>
      </trkpt>
      <trkpt lat="54.117774004116654" lon="13.830508030951023">
        <ele>-5.15</ele>
        <time>2024-09-16T09:56:25Z</time>
      </trkpt>
      <trkpt lat="54.117823038250208" lon="13.830431001260877">
        <ele>-5.15</ele>
        <time>2024-09-16T09:56:26Z</time>
      </trkpt>
      <trkpt lat="54.117961004376411" lon="13.830214999616146">
        <ele>-5.15</ele>
        <time>2024-09-16T09:56:29Z</time>
      </trkpt>
      <trkpt lat="54.117990005761385" lon="13.830169988796115">
        <ele>-5.63</ele>
        <time>2024-09-16T09:56:30Z</time>
      </trkpt>
      <trkpt lat="54.118018001317978" lon="13.830125983804464">
        <ele>-5.63</ele>
        <time>2024-09-16T09:56:31Z</time>
      </trkpt>
      <trkpt lat="54.118051026016474" lon="13.830074016004801">
        <ele>-5.63</ele>
        <time>2024-09-16T09:56:32Z</time>
      </trkpt>
      <trkpt lat="54.118090001866221" lon="13.830012995749712">
        <ele>-5.63</ele>
        <time>2024-09-16T09:56:33Z</time>
      </trkpt>
      <trkpt lat="54.118134006857872" lon="13.829945018514991">
        <ele>-5.15</ele>
        <time>2024-09-16T09:56:34Z</time>
      </trkpt>
      <trkpt lat="54.118299968540668" lon="13.829699009656906">
        <ele>-5.15</ele>
        <time>2024-09-16T09:56:37Z</time>
      </trkpt>
      <trkpt lat="54.118374986574054" lon="13.829601025208831">
        <ele>-4.67</ele>
        <time>2024-09-16T09:56:38Z</time>
      </trkpt>
      <trkpt lat="54.119170010089874" lon="13.828670969232917">
        <ele>-4.67</ele>
        <time>2024-09-16T09:56:46Z</time>
      </trkpt>
      <trkpt lat="54.119877023622394" lon="13.828095970675349">
        <ele>-7.07</ele>
        <time>2024-09-16T09:56:53Z</time>
      </trkpt>
      <trkpt lat="54.120596023276448" lon="13.827609987929463">
        <ele>-4.19</ele>
        <time>2024-09-16T09:57:01Z</time>
      </trkpt>
      <trkpt lat="54.121922962367535" lon="13.826704993844032">
        <ele>-2.75</ele>
        <time>2024-09-16T09:57:12Z</time>
      </trkpt>
      <trkpt lat="54.122822005301714" lon="13.826121026650071">
        <ele>-3.71</ele>
        <time>2024-09-16T09:57:19Z</time>
      </trkpt>
      <trkpt lat="54.122953014448285" lon="13.826037039980292">
        <ele>-3.71</ele>
        <time>2024-09-16T09:57:20Z</time>
      </trkpt>
      <trkpt lat="54.123349981382489" lon="13.825778961181641">
        <ele>-3.71</ele>
        <time>2024-09-16T09:57:23Z</time>
      </trkpt>
      <trkpt lat="54.123865971341729" lon="13.825442008674145">
        <ele>-5.15</ele>
        <time>2024-09-16T09:57:27Z</time>
      </trkpt>
      <trkpt lat="54.12399597465992" lon="13.825349975377321">
        <ele>-5.63</ele>
        <time>2024-09-16T09:57:28Z</time>
      </trkpt>
      <trkpt lat="54.125453000888228" lon="13.824302991852164">
        <ele>-4.67</ele>
        <time>2024-09-16T09:57:39Z</time>
      </trkpt>
      <trkpt lat="54.125710995867848" lon="13.824115991592407">
        <ele>-3.71</ele>
        <time>2024-09-16T09:57:41Z</time>
      </trkpt>
      <trkpt lat="54.126888988539577" lon="13.82339003495872">
        <ele>0.62</ele>
        <time>2024-09-16T09:57:50Z</time>
      </trkpt>
      <trkpt lat="54.12702402099967" lon="13.823315016925335">
        <ele>1.1</ele>
        <time>2024-09-16T09:57:51Z</time>
      </trkpt>
      <trkpt lat="54.127318980172276" lon="13.823226001113653">
        <ele>2.06</ele>
        <time>2024-09-16T09:57:53Z</time>
      </trkpt>
      <trkpt lat="54.127477984875441" lon="13.823228012770414">
        <ele>2.06</ele>
        <time>2024-09-16T09:57:54Z</time>
      </trkpt>
      <trkpt lat="54.128467971459031" lon="13.823940977454185">
        <ele>3.02</ele>
        <time>2024-09-16T09:58:01Z</time>
      </trkpt>
      <trkpt lat="54.128584982827306" lon="13.824127977713943">
        <ele>3.02</ele>
        <time>2024-09-16T09:58:02Z</time>
      </trkpt>
      <trkpt lat="54.128680033609271" lon="13.824332999065518">
        <ele>3.5</ele>
        <time>2024-09-16T09:58:03Z</time>
      </trkpt>
      <trkpt lat="54.128772988915443" lon="13.824535002931952">
        <ele>3.5</ele>
        <time>2024-09-16T09:58:04Z</time>
      </trkpt>
      <trkpt lat="54.128868039697409" lon="13.824739018455148">
        <ele>3.98</ele>
        <time>2024-09-16T09:58:05Z</time>
      </trkpt>
      <trkpt lat="54.129418982192874" lon="13.826018013060093">
        <ele>3.98</ele>
        <time>2024-09-16T09:58:11Z</time>
      </trkpt>
      <trkpt lat="54.129500035196543" lon="13.82622797973454">
        <ele>3.98</ele>
        <time>2024-09-16T09:58:12Z</time>
      </trkpt>
      <trkpt lat="54.130223980173469" lon="13.828104017302394">
        <ele>3.02</ele>
        <time>2024-09-16T09:58:21Z</time>
      </trkpt>
      <trkpt lat="54.130889000371099" lon="13.829733962193131">
        <ele>0.14</ele>
        <time>2024-09-16T09:58:30Z</time>
      </trkpt>
      <trkpt lat="54.130952032282948" lon="13.829848039895296">
        <ele>0.14</ele>
        <time>2024-09-16T09:58:31Z</time>
      </trkpt>
      <trkpt lat="54.131010035052896" lon="13.829949963837862">
        <ele>0.62</ele>
        <time>2024-09-16T09:58:32Z</time>
      </trkpt>
      <trkpt lat="54.131077006459236" lon="13.830070998519659">
        <ele>0.62</ele>
        <time>2024-09-16T09:58:33Z</time>
      </trkpt>
      <trkpt lat="54.131077006459236" lon="13.830070998519659">
        <ele>0.62</ele>
        <time>2024-09-16T09:58:34Z</time>
      </trkpt>
      <trkpt lat="54.131108019500971" lon="13.83009497076273">
        <ele>0.62</ele>
        <time>2024-09-16T09:58:35Z</time>
      </trkpt>
      <trkpt lat="54.131126962602139" lon="13.830109974369407">
        <ele>0.14</ele>
        <time>2024-09-16T09:58:36Z</time>
      </trkpt>
      <trkpt lat="54.131126962602139" lon="13.830109974369407">
        <ele>1.1</ele>
        <time>2024-09-16T09:58:48Z</time>
      </trkpt>
      <trkpt lat="54.130812976509333" lon="13.830570979043841">
        <ele>6.87</ele>
        <time>2024-09-16T10:01:45Z</time>
      </trkpt>
      <trkpt lat="54.131014980375767" lon="13.830428989604115">
        <ele>2.06</ele>
        <time>2024-09-16T10:02:16Z</time>
      </trkpt>
      <trkpt lat="54.131376994773746" lon="13.83030703291297">
        <ele>3.02</ele>
        <time>2024-09-16T10:02:33Z</time>
      </trkpt>
      <trkpt lat="54.131936989724636" lon="13.830448016524315">
        <ele>1.1</ele>
        <time>2024-09-16T10:02:38Z</time>
      </trkpt>
      <trkpt lat="54.13207202218473" lon="13.83041700348258">
        <ele>0.14</ele>
        <time>2024-09-16T10:02:39Z</time>
      </trkpt>
      <trkpt lat="54.132227003574371" lon="13.830380961298943">
        <ele>0.14</ele>
        <time>2024-09-16T10:02:40Z</time>
      </trkpt>
      <trkpt lat="54.132407968863845" lon="13.830300997942686">
        <ele>0.14</ele>
        <time>2024-09-16T10:02:41Z</time>
      </trkpt>
      <trkpt lat="54.132552975788713" lon="13.830136964097619">
        <ele>-0.34</ele>
        <time>2024-09-16T10:02:42Z</time>
      </trkpt>
      <trkpt lat="54.132693037390709" lon="13.829979971051216">
        <ele>-0.34</ele>
        <time>2024-09-16T10:02:43Z</time>
      </trkpt>
      <trkpt lat="54.132824968546629" lon="13.829832030460238">
        <ele>-0.82</ele>
        <time>2024-09-16T10:02:44Z</time>
      </trkpt>
      <trkpt lat="54.132956983521581" lon="13.829701021313667">
        <ele>-1.3</ele>
        <time>2024-09-16T10:02:45Z</time>
      </trkpt>
      <trkpt lat="54.133240962401032" lon="13.829446965828538">
        <ele>-2.75</ele>
        <time>2024-09-16T10:02:47Z</time>
      </trkpt>
      <trkpt lat="54.133389992639422" lon="13.829314028844237">
        <ele>-3.71</ele>
        <time>2024-09-16T10:02:48Z</time>
      </trkpt>
      <trkpt lat="54.134418033063412" lon="13.828394031152129">
        <ele>-7.55</ele>
        <time>2024-09-16T10:02:55Z</time>
      </trkpt>
      <trkpt lat="54.135560989379883" lon="13.82745299488306">
        <ele>-10.92</ele>
        <time>2024-09-16T10:03:02Z</time>
      </trkpt>
      <trkpt lat="54.137004017829895" lon="13.826281959190965">
        <ele>-14.76</ele>
        <time>2024-09-16T10:03:11Z</time>
      </trkpt>
      <trkpt lat="54.138311007991433" lon="13.825237993150949">
        <ele>-13.32</ele>
        <time>2024-09-16T10:03:19Z</time>
      </trkpt>
      <trkpt lat="54.139697961509228" lon="13.824129989370704">
        <ele>-12.359999999999999</ele>
        <time>2024-09-16T10:03:27Z</time>
      </trkpt>
      <trkpt lat="54.141657985746861" lon="13.822666006162763">
        <ele>-11.4</ele>
        <time>2024-09-16T10:03:38Z</time>
      </trkpt>
      <trkpt lat="54.141840962693095" lon="13.822555029764771">
        <ele>-11.4</ele>
        <time>2024-09-16T10:03:39Z</time>
      </trkpt>
      <trkpt lat="54.142033997923136" lon="13.822438018396497">
        <ele>-10.92</ele>
        <time>2024-09-16T10:03:40Z</time>
      </trkpt>
      <trkpt lat="54.142786022275686" lon="13.822090001776814">
        <ele>-11.4</ele>
        <time>2024-09-16T10:03:44Z</time>
      </trkpt>
      <trkpt lat="54.142965981736779" lon="13.82201699540019">
        <ele>-11.4</ele>
        <time>2024-09-16T10:03:45Z</time>
      </trkpt>
      <trkpt lat="54.143148958683014" lon="13.821943989023566">
        <ele>-11.880000000000001</ele>
        <time>2024-09-16T10:03:46Z</time>
      </trkpt>
      <trkpt lat="54.143340988084674" lon="13.821866037324071">
        <ele>-11.880000000000001</ele>
        <time>2024-09-16T10:03:47Z</time>
      </trkpt>
      <trkpt lat="54.143522959202528" lon="13.821793030947447">
        <ele>-12.359999999999999</ele>
        <time>2024-09-16T10:03:48Z</time>
      </trkpt>
      <trkpt lat="54.143678024411201" lon="13.821729999035597">
        <ele>-12.359999999999999</ele>
        <time>2024-09-16T10:03:49Z</time>
      </trkpt>
      <trkpt lat="54.14382797665894" lon="13.821661015972495">
        <ele>-12.84</ele>
        <time>2024-09-16T10:03:50Z</time>
      </trkpt>
      <trkpt lat="54.143979018554091" lon="13.821548027917743">
        <ele>-12.84</ele>
        <time>2024-09-16T10:03:51Z</time>
      </trkpt>
      <trkpt lat="54.144122013822198" lon="13.82139396853745">
        <ele>-13.32</ele>
        <time>2024-09-16T10:03:52Z</time>
      </trkpt>
      <trkpt lat="54.144250005483627" lon="13.821207974106073">
        <ele>-14.279999999999999</ele>
        <time>2024-09-16T10:03:53Z</time>
      </trkpt>
      <trkpt lat="54.144381014630198" lon="13.821016028523445">
        <ele>-14.76</ele>
        <time>2024-09-16T10:03:54Z</time>
      </trkpt>
      <trkpt lat="54.144466007128358" lon="13.820793991908431">
        <ele>-15.720000000000001</ele>
        <time>2024-09-16T10:03:55Z</time>
      </trkpt>
      <trkpt lat="54.14455602876842" lon="13.820560975000262">
        <ele>-16.210000000000001</ele>
        <time>2024-09-16T10:03:56Z</time>
      </trkpt>
      <trkpt lat="54.14464202709496" lon="13.820312032476068">
        <ele>-16.690000000000001</ele>
        <time>2024-09-16T10:03:57Z</time>
      </trkpt>
      <trkpt lat="54.144668010994792" lon="13.820053031668067">
        <ele>-17.170000000000002</ele>
        <time>2024-09-16T10:03:58Z</time>
      </trkpt>
      <trkpt lat="54.144675973802805" lon="13.819796964526176">
        <ele>-17.170000000000002</ele>
        <time>2024-09-16T10:03:59Z</time>
      </trkpt>
      <trkpt lat="54.144662981852889" lon="13.819518014788628">
        <ele>-17.170000000000002</ele>
        <time>2024-09-16T10:04:00Z</time>
      </trkpt>
      <trkpt lat="54.144649989902973" lon="13.819226995110512">
        <ele>-17.170000000000002</ele>
        <time>2024-09-16T10:04:01Z</time>
      </trkpt>
      <trkpt lat="54.144265009090304" lon="13.817120958119631">
        <ele>-19.57</ele>
        <time>2024-09-16T10:04:08Z</time>
      </trkpt>
      <trkpt lat="54.143711971119046" lon="13.814586019143462">
        <ele>-21.489999999999998</ele>
        <time>2024-09-16T10:04:16Z</time>
      </trkpt>
      <trkpt lat="54.143636031076312" lon="13.81428100168705">
        <ele>-21.969999999999999</ele>
        <time>2024-09-16T10:04:17Z</time>
      </trkpt>
      <trkpt lat="54.143434027209878" lon="13.813346000388265">
        <ele>-21.969999999999999</ele>
        <time>2024-09-16T10:04:20Z</time>
      </trkpt>
      <trkpt lat="54.143393961712718" lon="13.812968982383609">
        <ele>-21.969999999999999</ele>
        <time>2024-09-16T10:04:21Z</time>
      </trkpt>
      <trkpt lat="54.143415000289679" lon="13.812389960512519">
        <ele>-21.010000000000002</ele>
        <time>2024-09-16T10:04:23Z</time>
      </trkpt>
      <trkpt lat="54.143511978909373" lon="13.812089972198009">
        <ele>-21.010000000000002</ele>
        <time>2024-09-16T10:04:24Z</time>
      </trkpt>
      <trkpt lat="54.143608035519719" lon="13.81178897805512">
        <ele>-21.010000000000002</ele>
        <time>2024-09-16T10:04:25Z</time>
      </trkpt>
      <trkpt lat="54.14382697083056" lon="13.811398968100548">
        <ele>-20.050000000000001</ele>
        <time>2024-09-16T10:04:27Z</time>
      </trkpt>
      <trkpt lat="54.14395596832037" lon="13.811239041388035">
        <ele>-20.050000000000001</ele>
        <time>2024-09-16T10:04:28Z</time>
      </trkpt>
      <trkpt lat="54.144517974928021" lon="13.810534961521626">
        <ele>-17.170000000000002</ele>
        <time>2024-09-16T10:04:33Z</time>
      </trkpt>
      <trkpt lat="54.144620988518" lon="13.810382997617126">
        <ele>-16.210000000000001</ele>
        <time>2024-09-16T10:04:34Z</time>
      </trkpt>
      <trkpt lat="54.144695000723004" lon="13.81019901484251">
        <ele>-15.24</ele>
        <time>2024-09-16T10:04:35Z</time>
      </trkpt>
      <trkpt lat="54.144808994606137" lon="13.809809004887938">
        <ele>-14.76</ele>
        <time>2024-09-16T10:04:37Z</time>
      </trkpt>
      <trkpt lat="54.144966993480921" lon="13.809238029643893">
        <ele>-13.800000000000001</ele>
        <time>2024-09-16T10:04:40Z</time>
      </trkpt>
      <trkpt lat="54.145046034827828" lon="13.809077013283968">
        <ele>-13.800000000000001</ele>
        <time>2024-09-16T10:04:41Z</time>
      </trkpt>
      <trkpt lat="54.14533001370728" lon="13.808521963655949">
        <ele>-13.800000000000001</ele>
        <time>2024-09-16T10:04:44Z</time>
      </trkpt>
      <trkpt lat="54.145397990942001" lon="13.808290036395192">
        <ele>-13.32</ele>
        <time>2024-09-16T10:04:45Z</time>
      </trkpt>
      <trkpt lat="54.145421041175723" lon="13.808019971475005">
        <ele>-13.32</ele>
        <time>2024-09-16T10:04:46Z</time>
      </trkpt>
      <trkpt lat="54.145434033125639" lon="13.807752002030611">
        <ele>-12.84</ele>
        <time>2024-09-16T10:04:47Z</time>
      </trkpt>
      <trkpt lat="54.145446019247174" lon="13.807477997615933">
        <ele>-12.84</ele>
        <time>2024-09-16T10:04:48Z</time>
      </trkpt>
      <trkpt lat="54.145443001762033" lon="13.807197958230972">
        <ele>-12.359999999999999</ele>
        <time>2024-09-16T10:04:49Z</time>
      </trkpt>
      <trkpt lat="54.145326996222138" lon="13.805764988064766">
        <ele>-12.84</ele>
        <time>2024-09-16T10:04:54Z</time>
      </trkpt>
      <trkpt lat="54.145302018150687" lon="13.805457958951592">
        <ele>-12.84</ele>
        <time>2024-09-16T10:04:55Z</time>
      </trkpt>
      <trkpt lat="54.145066989585757" lon="13.802687991410494">
        <ele>-12.359999999999999</ele>
        <time>2024-09-16T10:05:04Z</time>
      </trkpt>
      <trkpt lat="54.145018961280584" lon="13.802398983389139">
        <ele>-11.880000000000001</ele>
        <time>2024-09-16T10:05:05Z</time>
      </trkpt>
      <trkpt lat="54.144919971004128" lon="13.801804035902023">
        <ele>-11.4</ele>
        <time>2024-09-16T10:05:07Z</time>
      </trkpt>
      <trkpt lat="54.144324017688632" lon="13.799509992823005">
        <ele>-10.44</ele>
        <time>2024-09-16T10:05:15Z</time>
      </trkpt>
      <trkpt lat="54.143957979977131" lon="13.797489032149315">
        <ele>-10.92</ele>
        <time>2024-09-16T10:05:22Z</time>
      </trkpt>
      <trkpt lat="54.14387097582221" lon="13.796910010278225">
        <ele>-11.4</ele>
        <time>2024-09-16T10:05:24Z</time>
      </trkpt>
      <trkpt lat="54.143828982487321" lon="13.796630976721644">
        <ele>-10.92</ele>
        <time>2024-09-16T10:05:25Z</time>
      </trkpt>
      <trkpt lat="54.143777014687657" lon="13.796364013105631">
        <ele>-10.44</ele>
        <time>2024-09-16T10:05:26Z</time>
      </trkpt>
      <trkpt lat="54.143146025016904" lon="13.794248001649976">
        <ele>-5.63</ele>
        <time>2024-09-16T10:05:34Z</time>
      </trkpt>
      <trkpt lat="54.142424007877707" lon="13.792508002370596">
        <ele>-1.3</ele>
        <time>2024-09-16T10:05:41Z</time>
      </trkpt>
      <trkpt lat="54.141662009060383" lon="13.790493998676538">
        <ele>2.06</ele>
        <time>2024-09-16T10:05:49Z</time>
      </trkpt>
      <trkpt lat="54.141392027959228" lon="13.78970299847424">
        <ele>1.58</ele>
        <time>2024-09-16T10:05:52Z</time>
      </trkpt>
      <trkpt lat="54.140897998586297" lon="13.78699597902596">
        <ele>1.1</ele>
        <time>2024-09-16T10:06:01Z</time>
      </trkpt>
      <trkpt lat="54.14036700502038" lon="13.783630980178714">
        <ele>-0.34</ele>
        <time>2024-09-16T10:06:12Z</time>
      </trkpt>
      <trkpt lat="54.139854032546282" lon="13.780644005164504">
        <ele>-2.75</ele>
        <time>2024-09-16T10:06:23Z</time>
      </trkpt>
      <trkpt lat="54.139410965144634" lon="13.779327040538192">
        <ele>-4.67</ele>
        <time>2024-09-16T10:06:30Z</time>
      </trkpt>
      <trkpt lat="54.1389499604702" lon="13.778278967365623">
        <ele>-5.15</ele>
        <time>2024-09-16T10:06:39Z</time>
      </trkpt>
      <trkpt lat="54.138865973800421" lon="13.77807897515595">
        <ele>-5.63</ele>
        <time>2024-09-16T10:06:43Z</time>
      </trkpt>
      <trkpt lat="54.13886396214366" lon="13.778044022619724">
        <ele>-5.63</ele>
        <time>2024-09-16T10:06:44Z</time>
      </trkpt>
      <trkpt lat="54.138860022649169" lon="13.777991971001029">
        <ele>-5.63</ele>
        <time>2024-09-16T10:06:45Z</time>
      </trkpt>
      <trkpt lat="54.138857005164027" lon="13.777941009029746">
        <ele>-5.15</ele>
        <time>2024-09-16T10:06:46Z</time>
      </trkpt>
      <trkpt lat="54.138852981850505" lon="13.77788501791656">
        <ele>-5.15</ele>
        <time>2024-09-16T10:06:47Z</time>
      </trkpt>
      <trkpt lat="54.138843007385731" lon="13.777747973799706">
        <ele>-5.15</ele>
        <time>2024-09-16T10:06:49Z</time>
      </trkpt>
      <trkpt lat="54.138820040971041" lon="13.777426024898887">
        <ele>-4.67</ele>
        <time>2024-09-16T10:06:52Z</time>
      </trkpt>
      <trkpt lat="54.138744017109275" lon="13.776605017483234">
        <ele>-4.19</ele>
        <time>2024-09-16T10:06:57Z</time>
      </trkpt>
      <trkpt lat="54.138743011280894" lon="13.77642598003149">
        <ele>-3.71</ele>
        <time>2024-09-16T10:06:58Z</time>
      </trkpt>
      <trkpt lat="54.138751979917288" lon="13.776245014742017">
        <ele>-3.23</ele>
        <time>2024-09-16T10:06:59Z</time>
      </trkpt>
      <trkpt lat="54.138846024870872" lon="13.774420022964478">
        <ele>2.06</ele>
        <time>2024-09-16T10:07:10Z</time>
      </trkpt>
      <trkpt lat="54.138975022360682" lon="13.772581033408642">
        <ele>3.5</ele>
        <time>2024-09-16T10:07:21Z</time>
      </trkpt>
      <trkpt lat="54.139063032343984" lon="13.771423995494843">
        <ele>2.06</ele>
        <time>2024-09-16T10:07:29Z</time>
      </trkpt>
      <trkpt lat="54.139073006808758" lon="13.771298015490174">
        <ele>2.06</ele>
        <time>2024-09-16T10:07:30Z</time>
      </trkpt>
      <trkpt lat="54.139124974608421" lon="13.770684041082859">
        <ele>2.54</ele>
        <time>2024-09-16T10:07:38Z</time>
      </trkpt>
      <trkpt lat="54.139218013733625" lon="13.770223958417773">
        <ele>2.54</ele>
        <time>2024-09-16T10:07:47Z</time>
      </trkpt>
      <trkpt lat="54.139229999855161" lon="13.770184982568026">
        <ele>2.54</ele>
        <time>2024-09-16T10:07:48Z</time>
      </trkpt>
      <trkpt lat="54.139231005683541" lon="13.770181965082884">
        <ele>2.54</ele>
        <time>2024-09-16T10:07:49Z</time>
      </trkpt>
      <trkpt lat="54.138966975733638" lon="13.770033018663526">
        <ele>3.02</ele>
        <time>2024-09-16T10:07:56Z</time>
      </trkpt>
      <trkpt lat="54.138939986005425" lon="13.769968980923295">
        <ele>3.02</ele>
        <time>2024-09-16T10:07:57Z</time>
      </trkpt>
      <trkpt lat="54.138909978792071" lon="13.769888011738658">
        <ele>3.02</ele>
        <time>2024-09-16T10:07:58Z</time>
      </trkpt>
      <trkpt lat="54.138886006549001" lon="13.769819028675556">
        <ele>3.02</ele>
        <time>2024-09-16T10:07:59Z</time>
      </trkpt>
      <trkpt lat="54.138865973800421" lon="13.769763959571719">
        <ele>3.02</ele>
        <time>2024-09-16T10:08:00Z</time>
      </trkpt>
      <trkpt lat="54.138802019879222" lon="13.769580982625484">
        <ele>2.54</ele>
        <time>2024-09-16T10:08:01Z</time>
      </trkpt>
      <trkpt lat="54.139062026515603" lon="13.769407980144024">
        <ele>2.54</ele>
        <time>2024-09-16T10:08:03Z</time>
      </trkpt>
      <trkpt lat="54.139093039557338" lon="13.769450979307294">
        <ele>1.1</ele>
        <time>2024-09-16T10:08:09Z</time>
      </trkpt>
      <trkpt lat="54.138902015984058" lon="13.769866973161697">
        <ele>0.14</ele>
        <time>2024-09-16T10:08:14Z</time>
      </trkpt>
      <trkpt lat="54.13892699405551" lon="13.769936040043831">
        <ele>0.14</ele>
        <time>2024-09-16T10:08:15Z</time>
      </trkpt>
      <trkpt lat="54.138930011540651" lon="13.769946014508605">
        <ele>-0.34</ele>
        <time>2024-09-16T10:08:16Z</time>
      </trkpt>
      <trkpt lat="54.138989020138979" lon="13.77008699811995">
        <ele>-0.34</ele>
        <time>2024-09-16T10:08:17Z</time>
      </trkpt>
      <trkpt lat="54.139015004038811" lon="13.770148018375039">
        <ele>-0.82</ele>
        <time>2024-09-16T10:08:18Z</time>
      </trkpt>
      <trkpt lat="54.139178032055497" lon="13.770353961735964">
        <ele>-2.27</ele>
        <time>2024-09-16T10:08:23Z</time>
      </trkpt>
      <trkpt lat="54.13916202262044" lon="13.770406013354659">
        <ele>-2.27</ele>
        <time>2024-09-16T10:08:24Z</time>
      </trkpt>
      <trkpt lat="54.139016009867191" lon="13.770353961735964">
        <ele>-2.75</ele>
        <time>2024-09-16T10:08:25Z</time>
      </trkpt>
      <trkpt lat="54.139016009867191" lon="13.770353961735964">
        <ele>-2.75</ele>
        <time>2024-09-16T10:08:26Z</time>
      </trkpt>
      <trkpt lat="54.139016009867191" lon="13.770353961735964">
        <ele>-3.23</ele>
        <time>2024-09-16T10:08:27Z</time>
      </trkpt>
      <trkpt lat="54.138962030410767" lon="13.77036502584815">
        <ele>-3.23</ele>
        <time>2024-09-16T10:08:28Z</time>
      </trkpt>
      <trkpt lat="54.138908972963691" lon="13.770375000312924">
        <ele>-3.23</ele>
        <time>2024-09-16T10:08:29Z</time>
      </trkpt>
      <trkpt lat="54.138848958536983" lon="13.77040802501142">
        <ele>-3.23</ele>
        <time>2024-09-16T10:08:30Z</time>
      </trkpt>
      <trkpt lat="54.138436987996101" lon="13.770632995292544">
        <ele>-2.75</ele>
        <time>2024-09-16T10:08:39Z</time>
      </trkpt>
      <trkpt lat="54.138366999104619" lon="13.770642969757318">
        <ele>-2.75</ele>
        <time>2024-09-16T10:08:40Z</time>
      </trkpt>
      <trkpt lat="54.138317964971066" lon="13.770650010555983">
        <ele>-2.75</ele>
        <time>2024-09-16T10:08:41Z</time>
      </trkpt>
      <trkpt lat="54.138287035748363" lon="13.770654033869505">
        <ele>-3.23</ele>
        <time>2024-09-16T10:08:42Z</time>
      </trkpt>
      <trkpt lat="54.138232972472906" lon="13.77062201499939">
        <ele>-3.23</ele>
        <time>2024-09-16T10:08:43Z</time>
      </trkpt>
      <trkpt lat="54.138183016330004" lon="13.770592007786036">
        <ele>-3.23</ele>
        <time>2024-09-16T10:08:44Z</time>
      </trkpt>
      <trkpt lat="54.13817304186523" lon="13.770567029714584">
        <ele>-3.71</ele>
        <time>2024-09-16T10:08:45Z</time>
      </trkpt>
      <trkpt lat="54.13815401494503" lon="13.770503997802734">
        <ele>-4.19</ele>
        <time>2024-09-16T10:08:46Z</time>
      </trkpt>
      <trkpt lat="54.138138005509973" lon="13.77045102417469">
        <ele>-4.19</ele>
        <time>2024-09-16T10:08:47Z</time>
      </trkpt>
      <trkpt lat="54.138101963326335" lon="13.770328983664513">
        <ele>-5.15</ele>
        <time>2024-09-16T10:08:50Z</time>
      </trkpt>
      <trkpt lat="54.138094000518322" lon="13.770304005593061">
        <ele>-5.15</ele>
        <time>2024-09-16T10:08:51Z</time>
      </trkpt>
      <trkpt lat="54.138099029660225" lon="13.77032202668488">
        <ele>-5.15</ele>
        <time>2024-09-16T10:08:54Z</time>
      </trkpt>
      <trkpt lat="54.138099029660225" lon="13.77032202668488">
        <ele>-5.63</ele>
        <time>2024-09-16T10:08:55Z</time>
      </trkpt>
      <trkpt lat="54.138099029660225" lon="13.77032202668488">
        <ele>-5.63</ele>
        <time>2024-09-16T10:08:56Z</time>
      </trkpt>
      <trkpt lat="54.138115961104631" lon="13.770378017798066">
        <ele>-5.63</ele>
        <time>2024-09-16T10:08:57Z</time>
      </trkpt>
      <trkpt lat="54.138115961104631" lon="13.770378017798066">
        <ele>-6.11</ele>
        <time>2024-09-16T10:09:07Z</time>
      </trkpt>
      <trkpt lat="54.138115961104631" lon="13.770378017798066">
        <ele>-6.11</ele>
        <time>2024-09-16T10:09:46Z</time>
      </trkpt>
      <trkpt lat="54.138115961104631" lon="13.770378017798066">
        <ele>-6.11</ele>
        <time>2024-09-16T10:10:28Z</time>
      </trkpt>
      <trkpt lat="54.138178993016481" lon="13.770589996129274">
        <ele>-6.11</ele>
        <time>2024-09-16T10:10:33Z</time>
      </trkpt>
      <trkpt lat="54.138178993016481" lon="13.770589996129274">
        <ele>-5.63</ele>
        <time>2024-09-16T10:10:34Z</time>
      </trkpt>
      <trkpt lat="54.138115961104631" lon="13.770378017798066">
        <ele>-5.63</ele>
        <time>2024-09-16T10:10:35Z</time>
      </trkpt>
      <trkpt lat="54.138094000518322" lon="13.770302999764681">
        <ele>-5.15</ele>
        <time>2024-09-16T10:10:36Z</time>
      </trkpt>
      <trkpt lat="54.138063993304968" lon="13.770204009488225">
        <ele>-5.15</ele>
        <time>2024-09-16T10:10:37Z</time>
      </trkpt>
      <trkpt lat="54.137876993045211" lon="13.769576959311962">
        <ele>-4.19</ele>
        <time>2024-09-16T10:10:47Z</time>
      </trkpt>
      <trkpt lat="54.137817984446883" lon="13.76937897875905">
        <ele>-3.71</ele>
        <time>2024-09-16T10:10:55Z</time>
      </trkpt>
      <trkpt lat="54.137957962229848" lon="13.769473023712635">
        <ele>-4.19</ele>
        <time>2024-09-16T10:11:05Z</time>
      </trkpt>
      <trkpt lat="54.137990986928344" lon="13.769466988742352">
        <ele>-5.15</ele>
        <time>2024-09-16T10:11:12Z</time>
      </trkpt>
      <trkpt lat="54.138041026890278" lon="13.76941803842783">
        <ele>-5.63</ele>
        <time>2024-09-16T10:11:23Z</time>
      </trkpt>
      <trkpt lat="54.138063993304968" lon="13.769620964303613">
        <ele>0.14</ele>
        <time>2024-09-16T10:29:55Z</time>
      </trkpt>
      <trkpt lat="54.138070028275251" lon="13.76944100484252">
        <ele>1.58</ele>
        <time>2024-09-16T10:30:16Z</time>
      </trkpt>
      <trkpt lat="54.138057958334684" lon="13.769414015114307">
        <ele>-5.63</ele>
        <time>2024-09-16T10:30:54Z</time>
      </trkpt>
      <trkpt lat="54.138071034103632" lon="13.769489033147693">
        <ele>-5.15</ele>
        <time>2024-09-16T10:31:43Z</time>
      </trkpt>
      <trkpt lat="54.138070028275251" lon="13.769494984298944">
        <ele>-5.15</ele>
        <time>2024-09-16T10:32:31Z</time>
      </trkpt>
      <trkpt lat="54.138064999133348" lon="13.769491966813803">
        <ele>-5.15</ele>
        <time>2024-09-16T10:33:15Z</time>
      </trkpt>
      <trkpt lat="54.13804697804153" lon="13.769477969035506">
        <ele>-4.19</ele>
        <time>2024-09-16T10:33:33Z</time>
      </trkpt>
      <trkpt lat="54.137883028015494" lon="13.769597997888923">
        <ele>-3.23</ele>
        <time>2024-09-16T10:33:35Z</time>
      </trkpt>
      <trkpt lat="54.137879004701972" lon="13.769582994282246">
        <ele>-3.23</ele>
        <time>2024-09-16T10:33:36Z</time>
      </trkpt>
      <trkpt lat="54.137844974175096" lon="13.769471012055874">
        <ele>-2.75</ele>
        <time>2024-09-16T10:33:40Z</time>
      </trkpt>
      <trkpt lat="54.137750007212162" lon="13.769151996821165">
        <ele>-3.23</ele>
        <time>2024-09-16T10:33:41Z</time>
      </trkpt>
      <trkpt lat="54.137750007212162" lon="13.769151996821165">
        <ele>-3.23</ele>
        <time>2024-09-16T10:33:42Z</time>
      </trkpt>
      <trkpt lat="54.137827036902308" lon="13.769408985972404">
        <ele>-2.75</ele>
        <time>2024-09-16T10:33:43Z</time>
      </trkpt>
      <trkpt lat="54.137842040508986" lon="13.769459025934339">
        <ele>-3.23</ele>
        <time>2024-09-16T10:33:44Z</time>
      </trkpt>
      <trkpt lat="54.137860983610153" lon="13.769521974027157">
        <ele>-2.75</ele>
        <time>2024-09-16T10:33:45Z</time>
      </trkpt>
      <trkpt lat="54.137884033843875" lon="13.769601015374064">
        <ele>-2.75</ele>
        <time>2024-09-16T10:33:46Z</time>
      </trkpt>
      <trkpt lat="54.137909011915326" lon="13.769685002043843">
        <ele>-2.75</ele>
        <time>2024-09-16T10:33:47Z</time>
      </trkpt>
      <trkpt lat="54.137958968058228" lon="13.769850041717291">
        <ele>-2.75</ele>
        <time>2024-09-16T10:33:49Z</time>
      </trkpt>
      <trkpt lat="54.137984029948711" lon="13.76993503421545">
        <ele>-2.75</ele>
        <time>2024-09-16T10:33:50Z</time>
      </trkpt>
      <trkpt lat="54.138009008020163" lon="13.77002002671361">
        <ele>-3.23</ele>
        <time>2024-09-16T10:33:51Z</time>
      </trkpt>
      <trkpt lat="54.138150997459888" lon="13.770496034994721">
        <ele>-4.19</ele>
        <time>2024-09-16T10:33:56Z</time>
      </trkpt>
      <trkpt lat="54.138178993016481" lon="13.770589996129274">
        <ele>-4.67</ele>
        <time>2024-09-16T10:33:57Z</time>
      </trkpt>
      <trkpt lat="54.138227021321654" lon="13.770617991685867">
        <ele>-5.15</ele>
        <time>2024-09-16T10:33:58Z</time>
      </trkpt>
      <trkpt lat="54.138287035748363" lon="13.770654033869505">
        <ele>-5.63</ele>
        <time>2024-09-16T10:33:59Z</time>
      </trkpt>
      <trkpt lat="54.138334980234504" lon="13.770647998899221">
        <ele>-5.63</ele>
        <time>2024-09-16T10:34:00Z</time>
      </trkpt>
      <trkpt lat="54.138401029631495" lon="13.770638024434447">
        <ele>-6.11</ele>
        <time>2024-09-16T10:34:01Z</time>
      </trkpt>
      <trkpt lat="54.138461966067553" lon="13.770618997514248">
        <ele>-6.11</ele>
        <time>2024-09-16T10:34:02Z</time>
      </trkpt>
      <trkpt lat="54.138529021292925" lon="13.770583039149642">
        <ele>-6.59</ele>
        <time>2024-09-16T10:34:03Z</time>
      </trkpt>
      <trkpt lat="54.138918025419116" lon="13.770373994484544">
        <ele>-7.07</ele>
        <time>2024-09-16T10:34:09Z</time>
      </trkpt>
      <trkpt lat="54.138976028189063" lon="13.770362008363008">
        <ele>-7.07</ele>
        <time>2024-09-16T10:34:10Z</time>
      </trkpt>
      <trkpt lat="54.139082981273532" lon="13.770409030839801">
        <ele>-7.07</ele>
        <time>2024-09-16T10:34:12Z</time>
      </trkpt>
      <trkpt lat="54.139136038720608" lon="13.770454041659832">
        <ele>-7.55</ele>
        <time>2024-09-16T10:34:13Z</time>
      </trkpt>
      <trkpt lat="54.139145007357001" lon="13.770460998639464">
        <ele>-7.55</ele>
        <time>2024-09-16T10:34:14Z</time>
      </trkpt>
      <trkpt lat="54.139138972386718" lon="13.770531993359327">
        <ele>-7.55</ele>
        <time>2024-09-16T10:34:15Z</time>
      </trkpt>
      <trkpt lat="54.139130003750324" lon="13.770630983635783">
        <ele>-8.029999999999999</ele>
        <time>2024-09-16T10:34:16Z</time>
      </trkpt>
      <trkpt lat="54.13911902345717" lon="13.770755035802722">
        <ele>-8.029999999999999</ele>
        <time>2024-09-16T10:34:17Z</time>
      </trkpt>
      <trkpt lat="54.139106031507254" lon="13.770900964736938">
        <ele>-7.55</ele>
        <time>2024-09-16T10:34:18Z</time>
      </trkpt>
      <trkpt lat="54.139092033728957" lon="13.771057035773993">
        <ele>-7.55</ele>
        <time>2024-09-16T10:34:19Z</time>
      </trkpt>
      <trkpt lat="54.138929005712271" lon="13.773198025301099">
        <ele>-8.029999999999999</ele>
        <time>2024-09-16T10:34:31Z</time>
      </trkpt>
      <trkpt lat="54.13877796381712" lon="13.77573799341917">
        <ele>-8.029999999999999</ele>
        <time>2024-09-16T10:34:44Z</time>
      </trkpt>
      <trkpt lat="54.138828003779054" lon="13.777529960498214">
        <ele>-8.029999999999999</ele>
        <time>2024-09-16T10:34:54Z</time>
      </trkpt>
      <trkpt lat="54.13884200155735" lon="13.777722995728254">
        <ele>-7.55</ele>
        <time>2024-09-16T10:35:00Z</time>
      </trkpt>
      <trkpt lat="54.138844013214111" lon="13.77775501459837">
        <ele>-7.55</ele>
        <time>2024-09-16T10:35:01Z</time>
      </trkpt>
      <trkpt lat="54.138846024870872" lon="13.777790972962976">
        <ele>-7.55</ele>
        <time>2024-09-16T10:35:02Z</time>
      </trkpt>
      <trkpt lat="54.138850970193744" lon="13.777857022359967">
        <ele>-7.55</ele>
        <time>2024-09-16T10:35:03Z</time>
      </trkpt>
      <trkpt lat="54.138786010444164" lon="13.777958024293184">
        <ele>-7.55</ele>
        <time>2024-09-16T10:35:04Z</time>
      </trkpt>
      <trkpt lat="54.138834960758686" lon="13.778032958507538">
        <ele>-7.55</ele>
        <time>2024-09-16T10:35:05Z</time>
      </trkpt>
      <trkpt lat="54.138893969357014" lon="13.778146030381322">
        <ele>-8.029999999999999</ele>
        <time>2024-09-16T10:35:06Z</time>
      </trkpt>
      <trkpt lat="54.1389499604702" lon="13.778279973194003">
        <ele>-8.51</ele>
        <time>2024-09-16T10:35:07Z</time>
      </trkpt>
      <trkpt lat="54.139611963182688" lon="13.779741022735834">
        <ele>-9.48</ele>
        <time>2024-09-16T10:35:15Z</time>
      </trkpt>
      <trkpt lat="54.139751018956304" lon="13.780237985774875">
        <ele>-9.48</ele>
        <time>2024-09-16T10:35:17Z</time>
      </trkpt>
      <trkpt lat="54.139885967597365" lon="13.780769985169172">
        <ele>-9</ele>
        <time>2024-09-16T10:35:19Z</time>
      </trkpt>
      <trkpt lat="54.140305984765291" lon="13.783250022679567">
        <ele>-7.55</ele>
        <time>2024-09-16T10:35:28Z</time>
      </trkpt>
      <trkpt lat="54.140663975849748" lon="13.785511963069439">
        <ele>-9</ele>
        <time>2024-09-16T10:35:36Z</time>
      </trkpt>
      <trkpt lat="54.141131015494466" lon="13.788467003032565">
        <ele>-9.960000000000001</ele>
        <time>2024-09-16T10:35:47Z</time>
      </trkpt>
      <trkpt lat="54.141494035720825" lon="13.790007010102272">
        <ele>-9.960000000000001</ele>
        <time>2024-09-16T10:35:53Z</time>
      </trkpt>
      <trkpt lat="54.142659958451986" lon="13.793092975392938">
        <ele>-7.55</ele>
        <time>2024-09-16T10:36:06Z</time>
      </trkpt>
      <trkpt lat="54.143604012206197" lon="13.795784991234541">
        <ele>-5.15</ele>
        <time>2024-09-16T10:36:17Z</time>
      </trkpt>
      <trkpt lat="54.143861001357436" lon="13.796845972537994">
        <ele>-3.23</ele>
        <time>2024-09-16T10:36:21Z</time>
      </trkpt>
      <trkpt lat="54.143901988863945" lon="13.797115031629801">
        <ele>-2.75</ele>
        <time>2024-09-16T10:36:22Z</time>
      </trkpt>
      <trkpt lat="54.144369028508663" lon="13.799672015011311">
        <ele>0.62</ele>
        <time>2024-09-16T10:36:32Z</time>
      </trkpt>
      <trkpt lat="54.144913014024496" lon="13.801761958748102">
        <ele>-1.79</ele>
        <time>2024-09-16T10:36:40Z</time>
      </trkpt>
      <trkpt lat="54.145187018439174" lon="13.804037980735302">
        <ele>-0.82</ele>
        <time>2024-09-16T10:36:48Z</time>
      </trkpt>
      <trkpt lat="54.145371001213789" lon="13.806301010772586">
        <ele>0.14</ele>
        <time>2024-09-16T10:36:56Z</time>
      </trkpt>
      <trkpt lat="54.145448030903935" lon="13.807445978745818">
        <ele>0.14</ele>
        <time>2024-09-16T10:37:00Z</time>
      </trkpt>
      <trkpt lat="54.14543503895402" lon="13.80772702395916">
        <ele>0.14</ele>
        <time>2024-09-16T10:37:01Z</time>
      </trkpt>
      <trkpt lat="54.145421963185072" lon="13.807995999231935">
        <ele>-0.34</ele>
        <time>2024-09-16T10:37:02Z</time>
      </trkpt>
      <trkpt lat="54.145398996770382" lon="13.80828701891005">
        <ele>-0.82</ele>
        <time>2024-09-16T10:37:03Z</time>
      </trkpt>
      <trkpt lat="54.1453290078789" lon="13.808525986969471">
        <ele>-1.3</ele>
        <time>2024-09-16T10:37:04Z</time>
      </trkpt>
      <trkpt lat="54.145233035087585" lon="13.80873997695744">
        <ele>-1.79</ele>
        <time>2024-09-16T10:37:05Z</time>
      </trkpt>
      <trkpt lat="54.145134966820478" lon="13.808917002752423">
        <ele>-1.79</ele>
        <time>2024-09-16T10:37:06Z</time>
      </trkpt>
      <trkpt lat="54.145038994029164" lon="13.809088999405503">
        <ele>-2.27</ele>
        <time>2024-09-16T10:37:07Z</time>
      </trkpt>
      <trkpt lat="54.144956013187766" lon="13.809273988008499">
        <ele>-2.75</ele>
        <time>2024-09-16T10:37:08Z</time>
      </trkpt>
      <trkpt lat="54.144888035953045" lon="13.809492001309991">
        <ele>-3.23</ele>
        <time>2024-09-16T10:37:09Z</time>
      </trkpt>
      <trkpt lat="54.144828021526337" lon="13.809729963541031">
        <ele>-3.71</ele>
        <time>2024-09-16T10:37:10Z</time>
      </trkpt>
      <trkpt lat="54.144688965752721" lon="13.810213012620807">
        <ele>-4.67</ele>
        <time>2024-09-16T10:37:12Z</time>
      </trkpt>
      <trkpt lat="54.144581006839871" lon="13.810445023700595">
        <ele>-5.15</ele>
        <time>2024-09-16T10:37:13Z</time>
      </trkpt>
      <trkpt lat="54.144467012956738" lon="13.81060897372663">
        <ele>-5.63</ele>
        <time>2024-09-16T10:37:14Z</time>
      </trkpt>
      <trkpt lat="54.144313037395477" lon="13.810797985643148">
        <ele>-6.11</ele>
        <time>2024-09-16T10:37:15Z</time>
      </trkpt>
      <trkpt lat="54.1441719699651" lon="13.81097199395299">
        <ele>-6.11</ele>
        <time>2024-09-16T10:37:16Z</time>
      </trkpt>
      <trkpt lat="54.143737033009529" lon="13.81150902248919">
        <ele>-7.07</ele>
        <time>2024-09-16T10:37:19Z</time>
      </trkpt>
      <trkpt lat="54.143625972792506" lon="13.811751008033752">
        <ele>-7.55</ele>
        <time>2024-09-16T10:37:20Z</time>
      </trkpt>
      <trkpt lat="54.143537962809205" lon="13.812007997184992">
        <ele>-8.029999999999999</ele>
        <time>2024-09-16T10:37:21Z</time>
      </trkpt>
      <trkpt lat="54.143455987796187" lon="13.812261968851089">
        <ele>-9</ele>
        <time>2024-09-16T10:37:22Z</time>
      </trkpt>
      <trkpt lat="54.143408965319395" lon="13.812560029327869">
        <ele>-9.48</ele>
        <time>2024-09-16T10:37:23Z</time>
      </trkpt>
      <trkpt lat="54.14339798502624" lon="13.812863035127521">
        <ele>-9.960000000000001</ele>
        <time>2024-09-16T10:37:24Z</time>
      </trkpt>
      <trkpt lat="54.143416006118059" lon="13.813172997906804">
        <ele>-10.44</ele>
        <time>2024-09-16T10:37:25Z</time>
      </trkpt>
      <trkpt lat="54.143448024988174" lon="13.813477009534836">
        <ele>-10.92</ele>
        <time>2024-09-16T10:37:26Z</time>
      </trkpt>
      <trkpt lat="54.143511978909373" lon="13.813784960657358">
        <ele>-10.92</ele>
        <time>2024-09-16T10:37:27Z</time>
      </trkpt>
      <trkpt lat="54.143664026632905" lon="13.814392983913422">
        <ele>-11.880000000000001</ele>
        <time>2024-09-16T10:37:29Z</time>
      </trkpt>
      <trkpt lat="54.1437419783324" lon="13.814704958349466">
        <ele>-11.880000000000001</ele>
        <time>2024-09-16T10:37:30Z</time>
      </trkpt>
      <trkpt lat="54.143900983035564" lon="13.815341982990503">
        <ele>-12.359999999999999</ele>
        <time>2024-09-16T10:37:32Z</time>
      </trkpt>
      <trkpt lat="54.143973989412189" lon="13.815673990175128">
        <ele>-12.359999999999999</ele>
        <time>2024-09-16T10:37:33Z</time>
      </trkpt>
      <trkpt lat="54.144172975793481" lon="13.816664982587099">
        <ele>-12.84</ele>
        <time>2024-09-16T10:37:36Z</time>
      </trkpt>
      <trkpt lat="54.144646972417831" lon="13.819179972633719">
        <ele>-12.359999999999999</ele>
        <time>2024-09-16T10:37:44Z</time>
      </trkpt>
      <trkpt lat="54.144661976024508" lon="13.819506028667092">
        <ele>-12.359999999999999</ele>
        <time>2024-09-16T10:37:45Z</time>
      </trkpt>
      <trkpt lat="54.144681002944708" lon="13.819921016693115">
        <ele>-11.880000000000001</ele>
        <time>2024-09-16T10:37:46Z</time>
      </trkpt>
      <trkpt lat="54.144657030701637" lon="13.820161996409297">
        <ele>-11.4</ele>
        <time>2024-09-16T10:37:47Z</time>
      </trkpt>
      <trkpt lat="54.144494002684951" lon="13.820721991360188">
        <ele>-10.92</ele>
        <time>2024-09-16T10:37:49Z</time>
      </trkpt>
      <trkpt lat="54.144391994923353" lon="13.820988032966852">
        <ele>-10.44</ele>
        <time>2024-09-16T10:37:50Z</time>
      </trkpt>
      <trkpt lat="54.144259979948401" lon="13.821192970499396">
        <ele>-9.960000000000001</ele>
        <time>2024-09-16T10:37:51Z</time>
      </trkpt>
      <trkpt lat="54.144114973023534" lon="13.821405032649636">
        <ele>-9</ele>
        <time>2024-09-16T10:37:52Z</time>
      </trkpt>
      <trkpt lat="54.144058981910348" lon="13.821488013491035">
        <ele>-8.51</ele>
        <time>2024-09-16T10:37:53Z</time>
      </trkpt>
      <trkpt lat="54.14382403716445" lon="13.821664033457637">
        <ele>-8.029999999999999</ele>
        <time>2024-09-16T10:37:54Z</time>
      </trkpt>
      <trkpt lat="54.143681963905692" lon="13.821728993207216">
        <ele>-7.55</ele>
        <time>2024-09-16T10:37:55Z</time>
      </trkpt>
      <trkpt lat="54.143514996394515" lon="13.821795964613557">
        <ele>-7.07</ele>
        <time>2024-09-16T10:37:56Z</time>
      </trkpt>
      <trkpt lat="54.143337970599532" lon="13.82186695933342">
        <ele>-6.11</ele>
        <time>2024-09-16T10:37:57Z</time>
      </trkpt>
      <trkpt lat="54.141822019591928" lon="13.822566010057926">
        <ele>-6.59</ele>
        <time>2024-09-16T10:38:05Z</time>
      </trkpt>
      <trkpt lat="54.139987975358963" lon="13.823897978290915">
        <ele>-10.92</ele>
        <time>2024-09-16T10:38:15Z</time>
      </trkpt>
      <trkpt lat="54.13856397382915" lon="13.825035989284515">
        <ele>-13.800000000000001</ele>
        <time>2024-09-16T10:38:23Z</time>
      </trkpt>
      <trkpt lat="54.136923970654607" lon="13.826345996931195">
        <ele>-15.24</ele>
        <time>2024-09-16T10:38:32Z</time>
      </trkpt>
      <trkpt lat="54.134983979165554" lon="13.827923974022269">
        <ele>-12.84</ele>
        <time>2024-09-16T10:38:43Z</time>
      </trkpt>
      <trkpt lat="54.133775979280472" lon="13.828968023881316">
        <ele>-13.32</ele>
        <time>2024-09-16T10:38:50Z</time>
      </trkpt>
      <trkpt lat="54.132695971056819" lon="13.829977037385106">
        <ele>-14.279999999999999</ele>
        <time>2024-09-16T10:38:56Z</time>
      </trkpt>
      <trkpt lat="54.132539983838797" lon="13.830151967704296">
        <ele>-14.279999999999999</ele>
        <time>2024-09-16T10:38:57Z</time>
      </trkpt>
      <trkpt lat="54.132363963872194" lon="13.83035003207624">
        <ele>-14.279999999999999</ele>
        <time>2024-09-16T10:38:58Z</time>
      </trkpt>
      <trkpt lat="54.132187021896243" lon="13.830390013754368">
        <ele>-14.279999999999999</ele>
        <time>2024-09-16T10:38:59Z</time>
      </trkpt>
      <trkpt lat="54.131994992494583" lon="13.830435024574399">
        <ele>-13.800000000000001</ele>
        <time>2024-09-16T10:39:00Z</time>
      </trkpt>
      <trkpt lat="54.131761975586414" lon="13.830461008474231">
        <ele>-13.32</ele>
        <time>2024-09-16T10:39:01Z</time>
      </trkpt>
      <trkpt lat="54.131569024175406" lon="13.830382972955704">
        <ele>-12.84</ele>
        <time>2024-09-16T10:39:02Z</time>
      </trkpt>
      <trkpt lat="54.131374983116984" lon="13.830305021256208">
        <ele>-11.880000000000001</ele>
        <time>2024-09-16T10:39:03Z</time>
      </trkpt>
      <trkpt lat="54.131208015605807" lon="13.830174012109637">
        <ele>-10.92</ele>
        <time>2024-09-16T10:39:04Z</time>
      </trkpt>
      <trkpt lat="54.131019003689289" lon="13.829967984929681">
        <ele>-9.960000000000001</ele>
        <time>2024-09-16T10:39:05Z</time>
      </trkpt>
      <trkpt lat="54.130883971229196" lon="13.829725999385118">
        <ele>-8.51</ele>
        <time>2024-09-16T10:39:06Z</time>
      </trkpt>
      <trkpt lat="54.130744999274611" lon="13.829451994970441">
        <ele>-7.55</ele>
        <time>2024-09-16T10:39:07Z</time>
      </trkpt>
      <trkpt lat="54.12996900267899" lon="13.827444026246667">
        <ele>-5.63</ele>
        <time>2024-09-16T10:39:14Z</time>
      </trkpt>
      <trkpt lat="54.129021009430289" lon="13.825071025639772">
        <ele>-4.19</ele>
        <time>2024-09-16T10:39:22Z</time>
      </trkpt>
      <trkpt lat="54.128897963091731" lon="13.824803978204727">
        <ele>-3.71</ele>
        <time>2024-09-16T10:39:23Z</time>
      </trkpt>
      <trkpt lat="54.128779023885727" lon="13.824546989053488">
        <ele>-2.75</ele>
        <time>2024-09-16T10:39:24Z</time>
      </trkpt>
      <trkpt lat="54.128558998927474" lon="13.824071986600757">
        <ele>-1.79</ele>
        <time>2024-09-16T10:39:26Z</time>
      </trkpt>
      <trkpt lat="54.128436036407948" lon="13.823899989947677">
        <ele>-1.79</ele>
        <time>2024-09-16T10:39:27Z</time>
      </trkpt>
      <trkpt lat="54.128283988684416" lon="13.823703015223145">
        <ele>-1.79</ele>
        <time>2024-09-16T10:39:28Z</time>
      </trkpt>
      <trkpt lat="54.128179969266057" lon="13.823568988591433">
        <ele>-2.27</ele>
        <time>2024-09-16T10:39:29Z</time>
      </trkpt>
      <trkpt lat="54.12797000259161" lon="13.823466980829835">
        <ele>-2.75</ele>
        <time>2024-09-16T10:39:30Z</time>
      </trkpt>
      <trkpt lat="54.127793982625008" lon="13.823380982503295">
        <ele>-3.23</ele>
        <time>2024-09-16T10:39:31Z</time>
      </trkpt>
      <trkpt lat="54.127617962658405" lon="13.823295990005136">
        <ele>-3.71</ele>
        <time>2024-09-16T10:39:32Z</time>
      </trkpt>
      <trkpt lat="54.127429034560919" lon="13.823204040527344">
        <ele>-3.71</ele>
        <time>2024-09-16T10:39:33Z</time>
      </trkpt>
      <trkpt lat="54.127257959917188" lon="13.823237987235188">
        <ele>-4.19</ele>
        <time>2024-09-16T10:39:34Z</time>
      </trkpt>
      <trkpt lat="54.127107001841068" lon="13.823269000276923">
        <ele>-4.19</ele>
        <time>2024-09-16T10:39:35Z</time>
      </trkpt>
      <trkpt lat="54.126927964389324" lon="13.823367990553379">
        <ele>-3.71</ele>
        <time>2024-09-16T10:39:36Z</time>
      </trkpt>
      <trkpt lat="54.126750016584992" lon="13.823466980829835">
        <ele>-3.71</ele>
        <time>2024-09-16T10:39:37Z</time>
      </trkpt>
      <trkpt lat="54.126581959426403" lon="13.82356102578342">
        <ele>-3.23</ele>
        <time>2024-09-16T10:39:38Z</time>
      </trkpt>
      <trkpt lat="54.125819960609078" lon="13.824037034064531">
        <ele>-1.3</ele>
        <time>2024-09-16T10:39:44Z</time>
      </trkpt>
      <trkpt lat="54.125020997598767" lon="13.82461303845048">
        <ele>-1.79</ele>
        <time>2024-09-16T10:39:52Z</time>
      </trkpt>
      <trkpt lat="54.123936966061592" lon="13.825391968712211">
        <ele>-0.82</ele>
        <time>2024-09-16T10:39:59Z</time>
      </trkpt>
      <trkpt lat="54.122378015890718" lon="13.826409028843045">
        <ele>-0.82</ele>
        <time>2024-09-16T10:40:09Z</time>
      </trkpt>
      <trkpt lat="54.121150989085436" lon="13.827233975753188">
        <ele>2.54</ele>
        <time>2024-09-16T10:40:18Z</time>
      </trkpt>
      <trkpt lat="54.120030999183655" lon="13.827992035076022">
        <ele>4.94</ele>
        <time>2024-09-16T10:40:28Z</time>
      </trkpt>
      <trkpt lat="54.119210997596383" lon="13.828638028353453">
        <ele>3.02</ele>
        <time>2024-09-16T10:40:36Z</time>
      </trkpt>
      <trkpt lat="54.118240959942341" lon="13.829776961356401">
        <ele>1.58</ele>
        <time>2024-09-16T10:40:46Z</time>
      </trkpt>
      <trkpt lat="54.11810701712966" lon="13.82998701184988">
        <ele>2.06</ele>
        <time>2024-09-16T10:40:48Z</time>
      </trkpt>
      <trkpt lat="54.117646012455225" lon="13.830624958500266">
        <ele>2.06</ele>
        <time>2024-09-16T10:40:55Z</time>
      </trkpt>
      <trkpt lat="54.117587003856897" lon="13.830670975148678">
        <ele>2.06</ele>
        <time>2024-09-16T10:40:56Z</time>
      </trkpt>
      <trkpt lat="54.117559008300304" lon="13.830693019554019">
        <ele>1.58</ele>
        <time>2024-09-16T10:40:57Z</time>
      </trkpt>
      <trkpt lat="54.11752799525857" lon="13.83058799430728">
        <ele>1.1</ele>
        <time>2024-09-16T10:40:58Z</time>
      </trkpt>
      <trkpt lat="54.117497988045216" lon="13.830486992374063">
        <ele>0.62</ele>
        <time>2024-09-16T10:40:59Z</time>
      </trkpt>
      <trkpt lat="54.117464041337371" lon="13.830369981005788">
        <ele>0.14</ele>
        <time>2024-09-16T10:41:00Z</time>
      </trkpt>
      <trkpt lat="54.117437973618507" lon="13.830247018486261">
        <ele>-0.34</ele>
        <time>2024-09-16T10:41:01Z</time>
      </trkpt>
      <trkpt lat="54.117415007203817" lon="13.830103017389774">
        <ele>-1.3</ele>
        <time>2024-09-16T10:41:02Z</time>
      </trkpt>
      <trkpt lat="54.117344012483954" lon="13.829666990786791">
        <ele>-2.75</ele>
        <time>2024-09-16T10:41:05Z</time>
      </trkpt>
      <trkpt lat="54.117322973906994" lon="13.829538999125361">
        <ele>-3.23</ele>
        <time>2024-09-16T10:41:06Z</time>
      </trkpt>
      <trkpt lat="54.117209985852242" lon="13.829417964443564">
        <ele>-3.23</ele>
        <time>2024-09-16T10:41:07Z</time>
      </trkpt>
      <trkpt lat="54.117137985303998" lon="13.829429028555751">
        <ele>-3.71</ele>
        <time>2024-09-16T10:41:08Z</time>
      </trkpt>
      <trkpt lat="54.117062967270613" lon="13.829439003020525">
        <ele>-3.71</ele>
        <time>2024-09-16T10:41:09Z</time>
      </trkpt>
      <trkpt lat="54.116981998085976" lon="13.829462975263596">
        <ele>-3.71</ele>
        <time>2024-09-16T10:41:10Z</time>
      </trkpt>
      <trkpt lat="54.116904968395829" lon="13.829522989690304">
        <ele>-3.71</ele>
        <time>2024-09-16T10:41:11Z</time>
      </trkpt>
      <trkpt lat="54.116021012887359" lon="13.830361012369394">
        <ele>-5.15</ele>
        <time>2024-09-16T10:41:21Z</time>
      </trkpt>
      <trkpt lat="54.114995989948511" lon="13.831478990614414">
        <ele>-4.67</ele>
        <time>2024-09-16T10:41:33Z</time>
      </trkpt>
      <trkpt lat="54.114250000566244" lon="13.832449028268456">
        <ele>-1.79</ele>
        <time>2024-09-16T10:41:42Z</time>
      </trkpt>
      <trkpt lat="54.113423964008689" lon="13.833718970417976">
        <ele>-0.34</ele>
        <time>2024-09-16T10:41:52Z</time>
      </trkpt>
      <trkpt lat="54.112362982705235" lon="13.835413036867976">
        <ele>-1.3</ele>
        <time>2024-09-16T10:42:05Z</time>
      </trkpt>
      <trkpt lat="54.11144700832665" lon="13.836909960955381">
        <ele>-2.75</ele>
        <time>2024-09-16T10:42:16Z</time>
      </trkpt>
      <trkpt lat="54.110326012596488" lon="13.838605033233762">
        <ele>-4.67</ele>
        <time>2024-09-16T10:42:29Z</time>
      </trkpt>
      <trkpt lat="54.109154976904392" lon="13.840445028617978">
        <ele>-3.23</ele>
        <time>2024-09-16T10:42:42Z</time>
      </trkpt>
      <trkpt lat="54.107911018654704" lon="13.842257028445601">
        <ele>-5.15</ele>
        <time>2024-09-16T10:42:55Z</time>
      </trkpt>
      <trkpt lat="54.106701007112861" lon="13.843760993331671">
        <ele>-5.15</ele>
        <time>2024-09-16T10:43:07Z</time>
      </trkpt>
      <trkpt lat="54.105398962274194" lon="13.845102014020085">
        <ele>-6.11</ele>
        <time>2024-09-16T10:43:19Z</time>
      </trkpt>
      <trkpt lat="54.104362959042192" lon="13.846302973106503">
        <ele>-7.07</ele>
        <time>2024-09-16T10:43:26Z</time>
      </trkpt>
      <trkpt lat="54.103053035214543" lon="13.847851026803255">
        <ele>-7.07</ele>
        <time>2024-09-16T10:43:35Z</time>
      </trkpt>
      <trkpt lat="54.101599026471376" lon="13.849476026371121">
        <ele>-6.59</ele>
        <time>2024-09-16T10:43:46Z</time>
      </trkpt>
      <trkpt lat="54.099756013602018" lon="13.851389028131962">
        <ele>-5.63</ele>
        <time>2024-09-16T10:43:59Z</time>
      </trkpt>
      <trkpt lat="54.097699010744691" lon="13.853502022102475">
        <ele>-5.15</ele>
        <time>2024-09-16T10:44:12Z</time>
      </trkpt>
      <trkpt lat="54.0966019872576" lon="13.854555962607265">
        <ele>-5.63</ele>
        <time>2024-09-16T10:44:20Z</time>
      </trkpt>
      <trkpt lat="54.095403961837292" lon="13.855501022189856">
        <ele>-3.71</ele>
        <time>2024-09-16T10:44:31Z</time>
      </trkpt>
      <trkpt lat="54.094113986939192" lon="13.856566026806831">
        <ele>-2.75</ele>
        <time>2024-09-16T10:44:43Z</time>
      </trkpt>
      <trkpt lat="54.092599041759968" lon="13.857877962291241">
        <ele>-2.75</ele>
        <time>2024-09-16T10:44:58Z</time>
      </trkpt>
      <trkpt lat="54.09125198610127" lon="13.859044974669814">
        <ele>-0.34</ele>
        <time>2024-09-16T10:45:11Z</time>
      </trkpt>
      <trkpt lat="54.08996301703155" lon="13.859991040080786">
        <ele>-0.34</ele>
        <time>2024-09-16T10:45:23Z</time>
      </trkpt>
      <trkpt lat="54.088958026841283" lon="13.86056100949645">
        <ele>-0.82</ele>
        <time>2024-09-16T10:45:32Z</time>
      </trkpt>
      <trkpt lat="54.088458968326449" lon="13.86084197089076">
        <ele>-0.82</ele>
        <time>2024-09-16T10:45:37Z</time>
      </trkpt>
      <trkpt lat="54.088379004970193" lon="13.860891005024314">
        <ele>-0.82</ele>
        <time>2024-09-16T10:45:38Z</time>
      </trkpt>
      <trkpt lat="54.088057978078723" lon="13.861083034425974">
        <ele>0.62</ele>
        <time>2024-09-16T10:45:45Z</time>
      </trkpt>
      <trkpt lat="54.087970973923802" lon="13.861135002225637">
        <ele>1.1</ele>
        <time>2024-09-16T10:45:54Z</time>
      </trkpt>
      <trkpt lat="54.087649025022984" lon="13.861332982778549">
        <ele>2.06</ele>
        <time>2024-09-16T10:46:00Z</time>
      </trkpt>
      <trkpt lat="54.086855007335544" lon="13.86232296936214">
        <ele>3.5</ele>
        <time>2024-09-16T10:46:10Z</time>
      </trkpt>
      <trkpt lat="54.085745997726917" lon="13.863614033907652">
        <ele>2.06</ele>
        <time>2024-09-16T10:46:22Z</time>
      </trkpt>
      <trkpt lat="54.084647968411446" lon="13.865203997120261">
        <ele>2.54</ele>
        <time>2024-09-16T10:46:32Z</time>
      </trkpt>
      <trkpt lat="54.08325900323689" lon="13.867593007162213">
        <ele>2.54</ele>
        <time>2024-09-16T10:46:47Z</time>
      </trkpt>
      <trkpt lat="54.083038978278637" lon="13.867857959121466">
        <ele>2.54</ele>
        <time>2024-09-16T10:46:49Z</time>
      </trkpt>
      <trkpt lat="54.082920039072633" lon="13.867929959669709">
        <ele>2.54</ele>
        <time>2024-09-16T10:46:50Z</time>
      </trkpt>
      <trkpt lat="54.082862036302686" lon="13.867964996024966">
        <ele>2.54</ele>
        <time>2024-09-16T10:46:51Z</time>
      </trkpt>
      <trkpt lat="54.082665983587503" lon="13.867923002690077">
        <ele>2.54</ele>
        <time>2024-09-16T10:46:52Z</time>
      </trkpt>
      <trkpt lat="54.082540003582835" lon="13.86788503266871">
        <ele>2.54</ele>
        <time>2024-09-16T10:46:53Z</time>
      </trkpt>
      <trkpt lat="54.082410000264645" lon="13.867790987715125">
        <ele>2.54</ele>
        <time>2024-09-16T10:46:54Z</time>
      </trkpt>
      <trkpt lat="54.082279996946454" lon="13.867696020752192">
        <ele>2.54</ele>
        <time>2024-09-16T10:46:55Z</time>
      </trkpt>
      <trkpt lat="54.082160973921418" lon="13.867610022425652">
        <ele>2.54</ele>
        <time>2024-09-16T10:46:56Z</time>
      </trkpt>
      <trkpt lat="54.082052009180188" lon="13.867532992735505">
        <ele>2.54</ele>
        <time>2024-09-16T10:46:57Z</time>
      </trkpt>
      <trkpt lat="54.081943966448307" lon="13.867460992187262">
        <ele>2.54</ele>
        <time>2024-09-16T10:46:58Z</time>
      </trkpt>
      <trkpt lat="54.081430993974209" lon="13.867043992504478">
        <ele>2.06</ele>
        <time>2024-09-16T10:47:03Z</time>
      </trkpt>
      <trkpt lat="54.080354003235698" lon="13.866208987310529">
        <ele>1.58</ele>
        <time>2024-09-16T10:47:11Z</time>
      </trkpt>
      <trkpt lat="54.079278018325567" lon="13.865447994321585">
        <ele>1.1</ele>
        <time>2024-09-16T10:47:18Z</time>
      </trkpt>
      <trkpt lat="54.078934025019407" lon="13.865228975191712">
        <ele>0.62</ele>
        <time>2024-09-16T10:47:23Z</time>
      </trkpt>
      <trkpt lat="54.078581985086203" lon="13.86500702239573">
        <ele>-1.79</ele>
        <time>2024-09-16T10:47:32Z</time>
      </trkpt>
      <trkpt lat="54.078025007620454" lon="13.864652970805764">
        <ele>-0.82</ele>
        <time>2024-09-16T10:47:42Z</time>
      </trkpt>
      <trkpt lat="54.07778000459075" lon="13.864496983587742">
        <ele>-1.3</ele>
        <time>2024-09-16T10:47:51Z</time>
      </trkpt>
      <trkpt lat="54.077454032376409" lon="13.864289028570056">
        <ele>-0.34</ele>
        <time>2024-09-16T10:48:03Z</time>
      </trkpt>
      <trkpt lat="54.077282035723329" lon="13.864178974181414">
        <ele>0.14</ele>
        <time>2024-09-16T10:48:06Z</time>
      </trkpt>
      <trkpt lat="54.077205006033182" lon="13.864130023866892">
        <ele>0.62</ele>
        <time>2024-09-16T10:48:07Z</time>
      </trkpt>
      <trkpt lat="54.07623597420752" lon="13.86354697868228">
        <ele>3.5</ele>
        <time>2024-09-16T10:48:15Z</time>
      </trkpt>
      <trkpt lat="54.074439983814955" lon="13.862528996542096">
        <ele>2.54</ele>
        <time>2024-09-16T10:48:26Z</time>
      </trkpt>
      <trkpt lat="54.072809033095837" lon="13.861596006900072">
        <ele>4.46</ele>
        <time>2024-09-16T10:48:36Z</time>
      </trkpt>
      <trkpt lat="54.071648977696896" lon="13.860974991694093">
        <ele>5.42</ele>
        <time>2024-09-16T10:48:45Z</time>
      </trkpt>
      <trkpt lat="54.070737026631832" lon="13.860742980614305">
        <ele>3.98</ele>
        <time>2024-09-16T10:48:53Z</time>
      </trkpt>
      <trkpt lat="54.07049797475338" lon="13.86075203306973">
        <ele>1.58</ele>
        <time>2024-09-16T10:48:58Z</time>
      </trkpt>
      <trkpt lat="54.070414993911982" lon="13.860788997262716">
        <ele>-0.34</ele>
        <time>2024-09-16T10:49:09Z</time>
      </trkpt>
      <trkpt lat="54.070394961163402" lon="13.86079796589911">
        <ele>-0.82</ele>
        <time>2024-09-16T10:49:10Z</time>
      </trkpt>
      <trkpt lat="54.070316003635526" lon="13.860856974497437">
        <ele>-1.3</ele>
        <time>2024-09-16T10:49:11Z</time>
      </trkpt>
      <trkpt lat="54.070152975618839" lon="13.860716996714473">
        <ele>-1.79</ele>
        <time>2024-09-16T10:49:12Z</time>
      </trkpt>
      <trkpt lat="54.070093967020512" lon="13.86054097674787">
        <ele>-2.27</ele>
        <time>2024-09-16T10:49:13Z</time>
      </trkpt>
      <trkpt lat="54.070060020312667" lon="13.860469982028008">
        <ele>-2.27</ele>
        <time>2024-09-16T10:49:14Z</time>
      </trkpt>
      <trkpt lat="54.069991037249565" lon="13.860323969274759">
        <ele>-2.75</ele>
        <time>2024-09-16T10:49:15Z</time>
      </trkpt>
      <trkpt lat="54.069913001731038" lon="13.860163958743215">
        <ele>-3.23</ele>
        <time>2024-09-16T10:49:16Z</time>
      </trkpt>
      <trkpt lat="54.068999961018562" lon="13.858501994982362">
        <ele>-4.19</ele>
        <time>2024-09-16T10:49:25Z</time>
      </trkpt>
      <trkpt lat="54.067914001643658" lon="13.856670968234539">
        <ele>-4.19</ele>
        <time>2024-09-16T10:49:35Z</time>
      </trkpt>
      <trkpt lat="54.067829009145498" lon="13.856482962146401">
        <ele>-4.19</ele>
        <time>2024-09-16T10:49:36Z</time>
      </trkpt>
      <trkpt lat="54.067286029458046" lon="13.854998024180532">
        <ele>-4.19</ele>
        <time>2024-09-16T10:49:44Z</time>
      </trkpt>
      <trkpt lat="54.066588990390301" lon="13.85332097299397">
        <ele>-3.71</ele>
        <time>2024-09-16T10:49:54Z</time>
      </trkpt>
      <trkpt lat="54.065796984359622" lon="13.851583991199732">
        <ele>-2.27</ele>
        <time>2024-09-16T10:50:05Z</time>
      </trkpt>
      <trkpt lat="54.065182004123926" lon="13.849734021350741">
        <ele>-0.82</ele>
        <time>2024-09-16T10:50:14Z</time>
      </trkpt>
      <trkpt lat="54.064733991399407" lon="13.847157005220652">
        <ele>0.14</ele>
        <time>2024-09-16T10:50:23Z</time>
      </trkpt>
      <trkpt lat="54.064125968143344" lon="13.843516996130347">
        <ele>-1.79</ele>
        <time>2024-09-16T10:50:33Z</time>
      </trkpt>
      <trkpt lat="54.063720032572746" lon="13.841175008565187">
        <ele>-2.27</ele>
        <time>2024-09-16T10:50:40Z</time>
      </trkpt>
      <trkpt lat="54.063324993476272" lon="13.838964030146599">
        <ele>-0.82</ele>
        <time>2024-09-16T10:50:48Z</time>
      </trkpt>
      <trkpt lat="54.063195995986462" lon="13.838201025500894">
        <ele>-0.34</ele>
        <time>2024-09-16T10:50:52Z</time>
      </trkpt>
      <trkpt lat="54.06317001208663" lon="13.838048977777362">
        <ele>-0.82</ele>
        <time>2024-09-16T10:50:53Z</time>
      </trkpt>
      <trkpt lat="54.063147967681289" lon="13.837915034964681">
        <ele>-0.82</ele>
        <time>2024-09-16T10:50:54Z</time>
      </trkpt>
      <trkpt lat="54.063125001266599" lon="13.837797017768025">
        <ele>-1.3</ele>
        <time>2024-09-16T10:50:55Z</time>
      </trkpt>
      <trkpt lat="54.063105974346399" lon="13.83769903331995">
        <ele>-1.79</ele>
        <time>2024-09-16T10:50:56Z</time>
      </trkpt>
      <trkpt lat="54.063090970739722" lon="13.837626026943326">
        <ele>-2.27</ele>
        <time>2024-09-16T10:50:57Z</time>
      </trkpt>
      <trkpt lat="54.063012013211846" lon="13.837603982537985">
        <ele>-2.75</ele>
        <time>2024-09-16T10:50:58Z</time>
      </trkpt>
      <trkpt lat="54.062944035977125" lon="13.837649999186397">
        <ele>-3.23</ele>
        <time>2024-09-16T10:50:59Z</time>
      </trkpt>
      <trkpt lat="54.062893996015191" lon="13.837684029713273">
        <ele>-3.23</ele>
        <time>2024-09-16T10:51:00Z</time>
      </trkpt>
      <trkpt lat="54.062835993245244" lon="13.837724011391401">
        <ele>-3.71</ele>
        <time>2024-09-16T10:51:01Z</time>
      </trkpt>
      <trkpt lat="54.062729962170124" lon="13.837796011939645">
        <ele>-3.71</ele>
        <time>2024-09-16T10:51:02Z</time>
      </trkpt>
      <trkpt lat="54.062361996620893" lon="13.83804596029222">
        <ele>-4.19</ele>
        <time>2024-09-16T10:51:05Z</time>
      </trkpt>
      <trkpt lat="54.062240039929748" lon="13.83812902495265">
        <ele>-4.19</ele>
        <time>2024-09-16T10:51:06Z</time>
      </trkpt>
      <trkpt lat="54.061032962054014" lon="13.838950032368302">
        <ele>-4.67</ele>
        <time>2024-09-16T10:51:15Z</time>
      </trkpt>
      <trkpt lat="54.059622958302498" lon="13.839910011738539">
        <ele>-3.71</ele>
        <time>2024-09-16T10:51:24Z</time>
      </trkpt>
      <trkpt lat="54.057543994858861" lon="13.841264024376869">
        <ele>0.14</ele>
        <time>2024-09-16T10:51:37Z</time>
      </trkpt>
      <trkpt lat="54.055869961157441" lon="13.842120990157127">
        <ele>-1.3</ele>
        <time>2024-09-16T10:51:47Z</time>
      </trkpt>
      <trkpt lat="54.054386029019952" lon="13.842880977317691">
        <ele>-6.11</ele>
        <time>2024-09-16T10:51:56Z</time>
      </trkpt>
      <trkpt lat="54.052913999184966" lon="13.843635013327003">
        <ele>-7.07</ele>
        <time>2024-09-16T10:52:05Z</time>
      </trkpt>
      <trkpt lat="54.051641961559653" lon="13.844307996332645">
        <ele>-6.11</ele>
        <time>2024-09-16T10:52:14Z</time>
      </trkpt>
      <trkpt lat="54.051555041223764" lon="13.844383014366031">
        <ele>-6.59</ele>
        <time>2024-09-16T10:52:15Z</time>
      </trkpt>
      <trkpt lat="54.051459990441799" lon="13.84453296661377">
        <ele>-6.59</ele>
        <time>2024-09-16T10:52:16Z</time>
      </trkpt>
      <trkpt lat="54.05137499794364" lon="13.844666993245482">
        <ele>-6.59</ele>
        <time>2024-09-16T10:52:17Z</time>
      </trkpt>
      <trkpt lat="54.050460029393435" lon="13.84610197506845">
        <ele>-7.07</ele>
        <time>2024-09-16T10:52:27Z</time>
      </trkpt>
      <trkpt lat="54.049845971167088" lon="13.846671022474766">
        <ele>-7.55</ele>
        <time>2024-09-16T10:52:35Z</time>
      </trkpt>
      <trkpt lat="54.049234008416533" lon="13.847381975501776">
        <ele>-9</ele>
        <time>2024-09-16T10:52:47Z</time>
      </trkpt>
      <trkpt lat="54.048888003453612" lon="13.847770979627967">
        <ele>-9.48</ele>
        <time>2024-09-16T10:52:54Z</time>
      </trkpt>
      <trkpt lat="54.048693962395191" lon="13.847771985456347">
        <ele>-9.960000000000001</ele>
        <time>2024-09-16T10:53:02Z</time>
      </trkpt>
      <trkpt lat="54.048508973792195" lon="13.847682969644666">
        <ele>-9</ele>
        <time>2024-09-16T10:53:18Z</time>
      </trkpt>
      <trkpt lat="54.048292972147465" lon="13.847579034045339">
        <ele>-8.51</ele>
        <time>2024-09-16T10:53:27Z</time>
      </trkpt>
      <trkpt lat="54.048221977427602" lon="13.847479959949851">
        <ele>-8.51</ele>
        <time>2024-09-16T10:53:48Z</time>
      </trkpt>
      <trkpt lat="54.04819599352777" lon="13.847407037392259">
        <ele>-8.51</ele>
        <time>2024-09-16T10:53:49Z</time>
      </trkpt>
      <trkpt lat="54.048101026564837" lon="13.847140995785594">
        <ele>-7.55</ele>
        <time>2024-09-16T10:53:52Z</time>
      </trkpt>
      <trkpt lat="54.048071019351482" lon="13.847054997459054">
        <ele>-7.07</ele>
        <time>2024-09-16T10:53:53Z</time>
      </trkpt>
      <trkpt lat="54.048043023794889" lon="13.846976961940527">
        <ele>-7.07</ele>
        <time>2024-09-16T10:53:54Z</time>
      </trkpt>
      <trkpt lat="54.048016034066677" lon="13.846901021897793">
        <ele>-7.07</ele>
        <time>2024-09-16T10:53:55Z</time>
      </trkpt>
      <trkpt lat="54.047988960519433" lon="13.846828015521169">
        <ele>-7.07</ele>
        <time>2024-09-16T10:53:56Z</time>
      </trkpt>
      <trkpt lat="54.04796096496284" lon="13.846748974174261">
        <ele>-7.07</ele>
        <time>2024-09-16T10:53:57Z</time>
      </trkpt>
      <trkpt lat="54.047928024083376" lon="13.846657024696469">
        <ele>-7.07</ele>
        <time>2024-09-16T10:53:58Z</time>
      </trkpt>
      <trkpt lat="54.047499960288405" lon="13.845767034217715">
        <ele>-8.51</ele>
        <time>2024-09-16T10:54:07Z</time>
      </trkpt>
      <trkpt lat="54.047323018312454" lon="13.845388004556298">
        <ele>-8.51</ele>
        <time>2024-09-16T10:54:10Z</time>
      </trkpt>
      <trkpt lat="54.046933008357882" lon="13.844473036006093">
        <ele>-9</ele>
        <time>2024-09-16T10:54:17Z</time>
      </trkpt>
      <trkpt lat="54.046403020620346" lon="13.843227988108993">
        <ele>-1.79</ele>
        <time>2024-09-16T10:54:27Z</time>
      </trkpt>
      <trkpt lat="54.046287015080452" lon="13.842847030609846">
        <ele>0.62</ele>
        <time>2024-09-16T10:54:32Z</time>
      </trkpt>
      <trkpt lat="54.046319033950567" lon="13.84281300008297">
        <ele>1.1</ele>
        <time>2024-09-16T10:54:33Z</time>
      </trkpt>
      <trkpt lat="54.046371001750231" lon="13.842759020626545">
        <ele>1.58</ele>
        <time>2024-09-16T10:54:34Z</time>
      </trkpt>
      <trkpt lat="54.046430010348558" lon="13.842695988714695">
        <ele>1.58</ele>
        <time>2024-09-16T10:54:35Z</time>
      </trkpt>
      <trkpt lat="54.046491030603647" lon="13.842632034793496">
        <ele>2.06</ele>
        <time>2024-09-16T10:54:36Z</time>
      </trkpt>
      <trkpt lat="54.047193014994264" lon="13.8418909907341">
        <ele>1.58</ele>
        <time>2024-09-16T10:54:46Z</time>
      </trkpt>
      <trkpt lat="54.047462996095419" lon="13.841758975759149">
        <ele>0.62</ele>
        <time>2024-09-16T10:54:53Z</time>
      </trkpt>
      <trkpt lat="54.047504989430308" lon="13.841845979914069">
        <ele>0.62</ele>
        <time>2024-09-16T10:54:54Z</time>
      </trkpt>
      <trkpt lat="54.048011004924774" lon="13.842743011191487">
        <ele>-0.34</ele>
        <time>2024-09-16T10:55:02Z</time>
      </trkpt>
      <trkpt lat="54.048079987987876" lon="13.842805037274957">
        <ele>-0.34</ele>
        <time>2024-09-16T10:55:03Z</time>
      </trkpt>
      <trkpt lat="54.048157017678022" lon="13.842842001467943">
        <ele>-0.34</ele>
        <time>2024-09-16T10:55:04Z</time>
      </trkpt>
      <trkpt lat="54.048321973532438" lon="13.84292003698647">
        <ele>-0.82</ele>
        <time>2024-09-16T10:55:06Z</time>
      </trkpt>
      <trkpt lat="54.048406966030598" lon="13.842960018664598">
        <ele>-1.3</ele>
        <time>2024-09-16T10:55:07Z</time>
      </trkpt>
      <trkpt lat="54.048477960750461" lon="13.843064038082957">
        <ele>-1.3</ele>
        <time>2024-09-16T10:55:08Z</time>
      </trkpt>
      <trkpt lat="54.04853998683393" lon="13.843173002824187">
        <ele>-1.79</ele>
        <time>2024-09-16T10:55:09Z</time>
      </trkpt>
      <trkpt lat="54.048602012917399" lon="13.843291020020843">
        <ele>-2.27</ele>
        <time>2024-09-16T10:55:10Z</time>
      </trkpt>
      <trkpt lat="54.048650963231921" lon="13.843429991975427">
        <ele>-2.27</ele>
        <time>2024-09-16T10:55:11Z</time>
      </trkpt>
      <trkpt lat="54.048747019842267" lon="13.843707013875246">
        <ele>-3.23</ele>
        <time>2024-09-16T10:55:13Z</time>
      </trkpt>
      <trkpt lat="54.049096964299679" lon="13.845446007326245">
        <ele>-3.71</ele>
        <time>2024-09-16T10:55:24Z</time>
      </trkpt>
      <trkpt lat="54.049428971484303" lon="13.846708992496133">
        <ele>-1.79</ele>
        <time>2024-09-16T10:55:34Z</time>
      </trkpt>
      <trkpt lat="54.049470964819193" lon="13.846866991370916">
        <ele>-2.27</ele>
        <time>2024-09-16T10:55:36Z</time>
      </trkpt>
      <trkpt lat="54.049486974254251" lon="13.846927005797625">
        <ele>-2.27</ele>
        <time>2024-09-16T10:55:37Z</time>
      </trkpt>
      <trkpt lat="54.049543971195817" lon="13.84691895917058">
        <ele>-2.27</ele>
        <time>2024-09-16T10:55:38Z</time>
      </trkpt>
      <trkpt lat="54.049585964530706" lon="13.846885012462735">
        <ele>-2.27</ele>
        <time>2024-09-16T10:55:39Z</time>
      </trkpt>
      <trkpt lat="54.049641033634543" lon="13.846841007471085">
        <ele>-2.75</ele>
        <time>2024-09-16T10:55:40Z</time>
      </trkpt>
      <trkpt lat="54.049712028354406" lon="13.846784010529518">
        <ele>-2.75</ele>
        <time>2024-09-16T10:55:41Z</time>
      </trkpt>
      <trkpt lat="54.05045298859477" lon="13.846109015867114">
        <ele>-2.75</ele>
        <time>2024-09-16T10:55:48Z</time>
      </trkpt>
      <trkpt lat="54.051305009052157" lon="13.844777969643474">
        <ele>-0.34</ele>
        <time>2024-09-16T10:55:56Z</time>
      </trkpt>
      <trkpt lat="54.05161002650857" lon="13.844335991889238">
        <ele>-0.34</ele>
        <time>2024-09-16T10:55:59Z</time>
      </trkpt>
      <trkpt lat="54.051735000684857" lon="13.844239013269544">
        <ele>0.14</ele>
        <time>2024-09-16T10:56:00Z</time>
      </trkpt>
      <trkpt lat="54.05187196098268" lon="13.844169024378061">
        <ele>0.14</ele>
        <time>2024-09-16T10:56:01Z</time>
      </trkpt>
      <trkpt lat="54.052011016756296" lon="13.844097023829818">
        <ele>-0.34</ele>
        <time>2024-09-16T10:56:02Z</time>
      </trkpt>
      <trkpt lat="54.052159041166306" lon="13.844022005796432">
        <ele>-0.34</ele>
        <time>2024-09-16T10:56:03Z</time>
      </trkpt>
      <trkpt lat="54.053689995780587" lon="13.843237962573767">
        <ele>-0.82</ele>
        <time>2024-09-16T10:56:12Z</time>
      </trkpt>
      <trkpt lat="54.054893972352147" lon="13.84262097068131">
        <ele>-1.3</ele>
        <time>2024-09-16T10:56:19Z</time>
      </trkpt>
      <trkpt lat="54.056669007986784" lon="13.841712037101388">
        <ele>0.62</ele>
        <time>2024-09-16T10:56:30Z</time>
      </trkpt>
      <trkpt lat="54.057983038946986" lon="13.841025978326797">
        <ele>3.5</ele>
        <time>2024-09-16T10:56:38Z</time>
      </trkpt>
      <trkpt lat="54.059844994917512" lon="13.839758969843388">
        <ele>0.62</ele>
        <time>2024-09-16T10:56:49Z</time>
      </trkpt>
      <trkpt lat="54.061377961188555" lon="13.838716009631753">
        <ele>-4.67</ele>
        <time>2024-09-16T10:56:59Z</time>
      </trkpt>
      <trkpt lat="54.062548996880651" lon="13.837918974459171">
        <ele>-4.67</ele>
        <time>2024-09-16T10:57:08Z</time>
      </trkpt>
      <trkpt lat="54.062939006835222" lon="13.837654022499919">
        <ele>-4.67</ele>
        <time>2024-09-16T10:57:13Z</time>
      </trkpt>
      <trkpt lat="54.06308401376009" lon="13.837589984759688">
        <ele>-4.19</ele>
        <time>2024-09-16T10:57:16Z</time>
      </trkpt>
      <trkpt lat="54.063103040680289" lon="13.837686963379383">
        <ele>-4.19</ele>
        <time>2024-09-16T10:57:17Z</time>
      </trkpt>
      <trkpt lat="54.063129024580121" lon="13.837815960869193">
        <ele>-3.71</ele>
        <time>2024-09-16T10:57:18Z</time>
      </trkpt>
      <trkpt lat="54.063157020136714" lon="13.837968008592725">
        <ele>-3.23</ele>
        <time>2024-09-16T10:57:19Z</time>
      </trkpt>
      <trkpt lat="54.063185015693307" lon="13.838138999417424">
        <ele>-2.75</ele>
        <time>2024-09-16T10:57:20Z</time>
      </trkpt>
      <trkpt lat="54.063218040391803" lon="13.838330022990704">
        <ele>-2.27</ele>
        <time>2024-09-16T10:57:21Z</time>
      </trkpt>
      <trkpt lat="54.063487015664577" lon="13.839890984818339">
        <ele>0.62</ele>
        <time>2024-09-16T10:57:27Z</time>
      </trkpt>
      <trkpt lat="54.06396503560245" lon="13.842625999823213">
        <ele>2.06</ele>
        <time>2024-09-16T10:57:35Z</time>
      </trkpt>
      <trkpt lat="54.064512960612774" lon="13.845897037535906">
        <ele>2.06</ele>
        <time>2024-09-16T10:57:44Z</time>
      </trkpt>
      <trkpt lat="54.065025011077523" lon="13.848784016445279">
        <ele>2.54</ele>
        <time>2024-09-16T10:57:53Z</time>
      </trkpt>
      <trkpt lat="54.065402029082179" lon="13.850516974925995">
        <ele>1.1</ele>
        <time>2024-09-16T10:58:01Z</time>
      </trkpt>
      <trkpt lat="54.066073000431061" lon="13.852194026112556">
        <ele>-0.82</ele>
        <time>2024-09-16T10:58:11Z</time>
      </trkpt>
      <trkpt lat="54.067147979512811" lon="13.854649001732469">
        <ele>-1.79</ele>
        <time>2024-09-16T10:58:26Z</time>
      </trkpt>
      <trkpt lat="54.06768299639225" lon="13.8560910243541">
        <ele>-1.3</ele>
        <time>2024-09-16T10:58:34Z</time>
      </trkpt>
      <trkpt lat="54.067931016907096" lon="13.856707010418177">
        <ele>-1.3</ele>
        <time>2024-09-16T10:58:37Z</time>
      </trkpt>
      <trkpt lat="54.068999961018562" lon="13.858501994982362">
        <ele>-4.19</ele>
        <time>2024-09-16T10:58:47Z</time>
      </trkpt>
      <trkpt lat="54.070093967020512" lon="13.86054097674787">
        <ele>-2.75</ele>
        <time>2024-09-16T10:58:58Z</time>
      </trkpt>
      <trkpt lat="54.070755969733" lon="13.863121010363102">
        <ele>-3.71</ele>
        <time>2024-09-16T10:59:08Z</time>
      </trkpt>
      <trkpt lat="54.070908017456532" lon="13.865875974297523">
        <ele>-3.23</ele>
        <time>2024-09-16T10:59:16Z</time>
      </trkpt>
      <trkpt lat="54.071046989411116" lon="13.870888017117977">
        <ele>-1.79</ele>
        <time>2024-09-16T10:59:29Z</time>
      </trkpt>
      <trkpt lat="54.071124019101262" lon="13.87551499530673">
        <ele>-1.3</ele>
        <time>2024-09-16T10:59:41Z</time>
      </trkpt>
      <trkpt lat="54.070771979168057" lon="13.878117995336652">
        <ele>-0.82</ele>
        <time>2024-09-16T10:59:48Z</time>
      </trkpt>
      <trkpt lat="54.070151969790459" lon="13.881703019142151">
        <ele>-0.34</ele>
        <time>2024-09-16T10:59:58Z</time>
      </trkpt>
      <trkpt lat="54.069721978157759" lon="13.884190013632178">
        <ele>0.62</ele>
        <time>2024-09-16T11:00:06Z</time>
      </trkpt>
      <trkpt lat="54.069296009838581" lon="13.886648006737232">
        <ele>1.58</ele>
        <time>2024-09-16T11:00:16Z</time>
      </trkpt>
      <trkpt lat="54.068905999884009" lon="13.888896033167839">
        <ele>1.1</ele>
        <time>2024-09-16T11:00:25Z</time>
      </trkpt>
      <trkpt lat="54.06854297965765" lon="13.891580002382398">
        <ele>-1.3</ele>
        <time>2024-09-16T11:00:35Z</time>
      </trkpt>
      <trkpt lat="54.068335024639964" lon="13.893897011876106">
        <ele>-2.27</ele>
        <time>2024-09-16T11:00:43Z</time>
      </trkpt>
      <trkpt lat="54.067973010241985" lon="13.896940983831882">
        <ele>-1.79</ele>
        <time>2024-09-16T11:00:54Z</time>
      </trkpt>
      <trkpt lat="54.067926993593574" lon="13.898670002818108">
        <ele>-0.82</ele>
        <time>2024-09-16T11:01:02Z</time>
      </trkpt>
      <trkpt lat="54.068208038806915" lon="13.900667997077107">
        <ele>0.14</ele>
        <time>2024-09-16T11:01:12Z</time>
      </trkpt>
      <trkpt lat="54.068396966904402" lon="13.901631999760866">
        <ele>-0.82</ele>
        <time>2024-09-16T11:01:17Z</time>
      </trkpt>
      <trkpt lat="54.068435020744801" lon="13.901827968657017">
        <ele>-0.82</ele>
        <time>2024-09-16T11:01:18Z</time>
      </trkpt>
      <trkpt lat="54.068566029891372" lon="13.902518972754478">
        <ele>-0.82</ele>
        <time>2024-09-16T11:01:22Z</time>
      </trkpt>
      <trkpt lat="54.068597964942455" lon="13.902663979679346">
        <ele>-0.82</ele>
        <time>2024-09-16T11:01:23Z</time>
      </trkpt>
      <trkpt lat="54.068998033180833" lon="13.904682006686926">
        <ele>-0.82</ele>
        <time>2024-09-16T11:01:35Z</time>
      </trkpt>
      <trkpt lat="54.069073973223567" lon="13.905065981671214">
        <ele>-0.82</ele>
        <time>2024-09-16T11:01:37Z</time>
      </trkpt>
      <trkpt lat="54.069415032863617" lon="13.907471001148224">
        <ele>-0.82</ele>
        <time>2024-09-16T11:01:49Z</time>
      </trkpt>
      <trkpt lat="54.06927396543324" lon="13.909356007352471">
        <ele>-0.34</ele>
        <time>2024-09-16T11:01:58Z</time>
      </trkpt>
      <trkpt lat="54.068824024870992" lon="13.911004979163408">
        <ele>-0.34</ele>
        <time>2024-09-16T11:02:08Z</time>
      </trkpt>
      <trkpt lat="54.068635012954473" lon="13.911651978269219">
        <ele>-0.82</ele>
        <time>2024-09-16T11:02:17Z</time>
      </trkpt>
      <trkpt lat="54.068274004384875" lon="13.91334998421371">
        <ele>0.14</ele>
        <time>2024-09-16T11:02:30Z</time>
      </trkpt>
      <trkpt lat="54.067916013300419" lon="13.915379997342825">
        <ele>0.62</ele>
        <time>2024-09-16T11:02:43Z</time>
      </trkpt>
      <trkpt lat="54.067530026659369" lon="13.917541019618511">
        <ele>-0.34</ele>
        <time>2024-09-16T11:02:55Z</time>
      </trkpt>
      <trkpt lat="54.067195001989603" lon="13.919587964192033">
        <ele>0.14</ele>
        <time>2024-09-16T11:03:06Z</time>
      </trkpt>
      <trkpt lat="54.066959973424673" lon="13.921972028911114">
        <ele>2.06</ele>
        <time>2024-09-16T11:03:17Z</time>
      </trkpt>
      <trkpt lat="54.066987968981266" lon="13.924244027584791">
        <ele>2.06</ele>
        <time>2024-09-16T11:03:25Z</time>
      </trkpt>
      <trkpt lat="54.067363981157541" lon="13.92634998075664">
        <ele>0.62</ele>
        <time>2024-09-16T11:03:32Z</time>
      </trkpt>
      <trkpt lat="54.068166967481375" lon="13.928869999945164">
        <ele>-3.23</ele>
        <time>2024-09-16T11:03:41Z</time>
      </trkpt>
      <trkpt lat="54.068827964365482" lon="13.932015979662538">
        <ele>-5.15</ele>
        <time>2024-09-16T11:03:51Z</time>
      </trkpt>
      <trkpt lat="54.068978000432253" lon="13.93434296362102">
        <ele>-5.63</ele>
        <time>2024-09-16T11:03:58Z</time>
      </trkpt>
      <trkpt lat="54.068838022649288" lon="13.937000026926398">
        <ele>-5.15</ele>
        <time>2024-09-16T11:04:06Z</time>
      </trkpt>
      <trkpt lat="54.068469973281026" lon="13.939677961170673">
        <ele>0.14</ele>
        <time>2024-09-16T11:04:15Z</time>
      </trkpt>
      <trkpt lat="54.068127991631627" lon="13.942134026437998">
        <ele>5.42</ele>
        <time>2024-09-16T11:04:24Z</time>
      </trkpt>
      <trkpt lat="54.067991031333804" lon="13.944326983764768">
        <ele>5.91</ele>
        <time>2024-09-16T11:04:33Z</time>
      </trkpt>
      <trkpt lat="54.067807970568538" lon="13.947443040087819">
        <ele>3.02</ele>
        <time>2024-09-16T11:04:45Z</time>
      </trkpt>
      <trkpt lat="54.067690959200263" lon="13.949306001886725">
        <ele>1.1</ele>
        <time>2024-09-16T11:04:53Z</time>
      </trkpt>
      <trkpt lat="54.067592974752188" lon="13.951118001714349">
        <ele>-1.3</ele>
        <time>2024-09-16T11:05:03Z</time>
      </trkpt>
      <trkpt lat="54.067518962547183" lon="13.952523982152343">
        <ele>-0.34</ele>
        <time>2024-09-16T11:05:15Z</time>
      </trkpt>
      <trkpt lat="54.067432964220643" lon="13.953931974247098">
        <ele>1.58</ele>
        <time>2024-09-16T11:05:28Z</time>
      </trkpt>
      <trkpt lat="54.067304972559214" lon="13.95558999851346">
        <ele>3.5</ele>
        <time>2024-09-16T11:05:37Z</time>
      </trkpt>
      <trkpt lat="54.067264990881085" lon="13.95599702373147">
        <ele>3.5</ele>
        <time>2024-09-16T11:05:39Z</time>
      </trkpt>
      <trkpt lat="54.067055024206638" lon="13.959250962361693">
        <ele>2.54</ele>
        <time>2024-09-16T11:05:55Z</time>
      </trkpt>
      <trkpt lat="54.067136999219656" lon="13.961565038189292">
        <ele>1.58</ele>
        <time>2024-09-16T11:06:05Z</time>
      </trkpt>
      <trkpt lat="54.067257028073072" lon="13.963805017992854">
        <ele>1.1</ele>
        <time>2024-09-16T11:06:15Z</time>
      </trkpt>
      <trkpt lat="54.067283011972904" lon="13.965005977079272">
        <ele>1.1</ele>
        <time>2024-09-16T11:06:20Z</time>
      </trkpt>
      <trkpt lat="54.067283011972904" lon="13.965252991765738">
        <ele>1.1</ele>
        <time>2024-09-16T11:06:21Z</time>
      </trkpt>
      <trkpt lat="54.067283011972904" lon="13.965506963431835">
        <ele>1.1</ele>
        <time>2024-09-16T11:06:22Z</time>
      </trkpt>
      <trkpt lat="54.067140016704798" lon="13.96779497154057">
        <ele>2.54</ele>
        <time>2024-09-16T11:06:31Z</time>
      </trkpt>
      <trkpt lat="54.066684041172266" lon="13.969809981063008">
        <ele>2.54</ele>
        <time>2024-09-16T11:06:38Z</time>
      </trkpt>
      <trkpt lat="54.065956994891167" lon="13.972618002444506">
        <ele>2.54</ele>
        <time>2024-09-16T11:06:48Z</time>
      </trkpt>
      <trkpt lat="54.065092988312244" lon="13.976075034588575">
        <ele>3.02</ele>
        <time>2024-09-16T11:07:00Z</time>
      </trkpt>
      <trkpt lat="54.06426896341145" lon="13.978910967707634">
        <ele>3.5</ele>
        <time>2024-09-16T11:07:11Z</time>
      </trkpt>
      <trkpt lat="54.063284005969763" lon="13.980514006689191">
        <ele>1.58</ele>
        <time>2024-09-16T11:07:19Z</time>
      </trkpt>
      <trkpt lat="54.061868973076344" lon="13.982027024030685">
        <ele>-0.34</ele>
        <time>2024-09-16T11:07:28Z</time>
      </trkpt>
      <trkpt lat="54.060719981789589" lon="13.983139973133802">
        <ele>-1.79</ele>
        <time>2024-09-16T11:07:35Z</time>
      </trkpt>
      <trkpt lat="54.059193972498178" lon="13.984651984646916">
        <ele>-3.23</ele>
        <time>2024-09-16T11:07:44Z</time>
      </trkpt>
      <trkpt lat="54.057216010987759" lon="13.986565992236137">
        <ele>-5.15</ele>
        <time>2024-09-16T11:07:56Z</time>
      </trkpt>
      <trkpt lat="54.055363023653626" lon="13.988357037305832">
        <ele>-10.44</ele>
        <time>2024-09-16T11:08:06Z</time>
      </trkpt>
      <trkpt lat="54.053083984181285" lon="13.990584025159478">
        <ele>-10.44</ele>
        <time>2024-09-16T11:08:19Z</time>
      </trkpt>
      <trkpt lat="54.051111973822117" lon="13.992509013041854">
        <ele>-8.51</ele>
        <time>2024-09-16T11:08:31Z</time>
      </trkpt>
      <trkpt lat="54.049518993124366" lon="13.994065029546618">
        <ele>-6.59</ele>
        <time>2024-09-16T11:08:42Z</time>
      </trkpt>
      <trkpt lat="54.047467019408941" lon="13.996163019910455">
        <ele>-4.67</ele>
        <time>2024-09-16T11:08:56Z</time>
      </trkpt>
      <trkpt lat="54.046357003971934" lon="13.997997986152768">
        <ele>-3.71</ele>
        <time>2024-09-16T11:09:05Z</time>
      </trkpt>
      <trkpt lat="54.045697012916207" lon="13.999930014833808">
        <ele>-3.71</ele>
        <time>2024-09-16T11:09:13Z</time>
      </trkpt>
      <trkpt lat="54.045648984611034" lon="14.000039985403419">
        <ele>-3.71</ele>
        <time>2024-09-16T11:09:14Z</time>
      </trkpt>
      <trkpt lat="54.045185968279839" lon="14.002348026260734">
        <ele>-3.23</ele>
        <time>2024-09-16T11:09:24Z</time>
      </trkpt>
      <trkpt lat="54.045026963576674" lon="14.003130979835987">
        <ele>-3.23</ele>
        <time>2024-09-16T11:09:30Z</time>
      </trkpt>
      <trkpt lat="54.044971978291869" lon="14.003386963158846">
        <ele>-2.27</ele>
        <time>2024-09-16T11:09:35Z</time>
      </trkpt>
      <trkpt lat="54.044954041019082" lon="14.00345703586936">
        <ele>-1.79</ele>
        <time>2024-09-16T11:09:36Z</time>
      </trkpt>
      <trkpt lat="54.044795958325267" lon="14.003587961196899">
        <ele>-1.79</ele>
        <time>2024-09-16T11:09:38Z</time>
      </trkpt>
      <trkpt lat="54.044795958325267" lon="14.003677982836962">
        <ele>-1.79</ele>
        <time>2024-09-16T11:09:39Z</time>
      </trkpt>
      <trkpt lat="54.044795958325267" lon="14.003771021962166">
        <ele>-1.79</ele>
        <time>2024-09-16T11:09:40Z</time>
      </trkpt>
      <trkpt lat="54.044811967760324" lon="14.004001021385193">
        <ele>-1.3</ele>
        <time>2024-09-16T11:09:42Z</time>
      </trkpt>
      <trkpt lat="54.04477802105248" lon="14.004104034975171">
        <ele>-1.79</ele>
        <time>2024-09-16T11:09:43Z</time>
      </trkpt>
      <trkpt lat="54.044738039374352" lon="14.004222974181175">
        <ele>-1.79</ele>
        <time>2024-09-16T11:09:44Z</time>
      </trkpt>
      <trkpt lat="54.044691016897559" lon="14.004363035783172">
        <ele>-1.79</ele>
        <time>2024-09-16T11:09:45Z</time>
      </trkpt>
      <trkpt lat="54.044637037441134" lon="14.004513993859291">
        <ele>-1.79</ele>
        <time>2024-09-16T11:09:46Z</time>
      </trkpt>
      <trkpt lat="54.04402800835669" lon="14.005848979577422">
        <ele>-1.3</ele>
        <time>2024-09-16T11:09:54Z</time>
      </trkpt>
      <trkpt lat="54.042857978492975" lon="14.007805986329913">
        <ele>-1.3</ele>
        <time>2024-09-16T11:10:07Z</time>
      </trkpt>
      <trkpt lat="54.041490973904729" lon="14.009830970317125">
        <ele>-0.82</ele>
        <time>2024-09-16T11:10:19Z</time>
      </trkpt>
      <trkpt lat="54.039843007922173" lon="14.012073967605829">
        <ele>-1.79</ele>
        <time>2024-09-16T11:10:32Z</time>
      </trkpt>
      <trkpt lat="54.039474036544561" lon="14.01267503388226">
        <ele>-2.75</ele>
        <time>2024-09-16T11:10:35Z</time>
      </trkpt>
      <trkpt lat="54.038680018857121" lon="14.014315959066153">
        <ele>-5.15</ele>
        <time>2024-09-16T11:10:43Z</time>
      </trkpt>
      <trkpt lat="54.037886001169682" lon="14.016171963885427">
        <ele>-7.07</ele>
        <time>2024-09-16T11:10:52Z</time>
      </trkpt>
      <trkpt lat="54.037533039227128" lon="14.016989031806588">
        <ele>-7.55</ele>
        <time>2024-09-16T11:10:56Z</time>
      </trkpt>
      <trkpt lat="54.037450980395079" lon="14.017177959904075">
        <ele>-8.029999999999999</ele>
        <time>2024-09-16T11:10:57Z</time>
      </trkpt>
      <trkpt lat="54.037364982068539" lon="14.017376024276018">
        <ele>-8.51</ele>
        <time>2024-09-16T11:10:58Z</time>
      </trkpt>
      <trkpt lat="54.037276972085238" lon="14.017580961808562">
        <ele>-9</ele>
        <time>2024-09-16T11:10:59Z</time>
      </trkpt>
      <trkpt lat="54.037186028435826" lon="14.017792018130422">
        <ele>-9.960000000000001</ele>
        <time>2024-09-16T11:11:00Z</time>
      </trkpt>
      <trkpt lat="54.037100030109286" lon="14.017994021996856">
        <ele>-10.44</ele>
        <time>2024-09-16T11:11:01Z</time>
      </trkpt>
      <trkpt lat="54.036256978288293" lon="14.019667971879244">
        <ele>-19.09</ele>
        <time>2024-09-16T11:11:10Z</time>
      </trkpt>
      <trkpt lat="54.03605698607862" lon="14.01998003013432">
        <ele>-21.489999999999998</ele>
        <time>2024-09-16T11:11:12Z</time>
      </trkpt>
      <trkpt lat="54.035965036600828" lon="14.020123025402427">
        <ele>-22.449999999999999</ele>
        <time>2024-09-16T11:11:13Z</time>
      </trkpt>
      <trkpt lat="54.035881971940398" lon="14.020251017063856">
        <ele>-23.41</ele>
        <time>2024-09-16T11:11:14Z</time>
      </trkpt>
      <trkpt lat="54.035566980019212" lon="14.020715039223433">
        <ele>-28.219999999999999</ele>
        <time>2024-09-16T11:11:19Z</time>
      </trkpt>
      <trkpt lat="54.035460026934743" lon="14.020881000906229">
        <ele>-31.109999999999999</ele>
        <time>2024-09-16T11:11:26Z</time>
      </trkpt>
      <trkpt lat="54.035419039428234" lon="14.020946966484189">
        <ele>-31.109999999999999</ele>
        <time>2024-09-16T11:11:53Z</time>
      </trkpt>
      <trkpt lat="54.035390960052609" lon="14.02099197730422">
        <ele>-31.109999999999999</ele>
        <time>2024-09-16T11:11:54Z</time>
      </trkpt>
      <trkpt lat="54.034942025318742" lon="14.021712988615036">
        <ele>-31.59</ele>
        <time>2024-09-16T11:12:01Z</time>
      </trkpt>
      <trkpt lat="54.034102996811271" lon="14.02305300347507">
        <ele>-29.18</ele>
        <time>2024-09-16T11:12:10Z</time>
      </trkpt>
      <trkpt lat="54.033079985529184" lon="14.025235986337066">
        <ele>-24.379999999999999</ele>
        <time>2024-09-16T11:12:20Z</time>
      </trkpt>
      <trkpt lat="54.031463032588363" lon="14.028676003217697">
        <ele>-18.129999999999999</ele>
        <time>2024-09-16T11:12:34Z</time>
      </trkpt>
      <trkpt lat="54.030583016574383" lon="14.029858019202948">
        <ele>-15.24</ele>
        <time>2024-09-16T11:12:41Z</time>
      </trkpt>
      <trkpt lat="54.029656983911991" lon="14.030620018020272">
        <ele>-12.359999999999999</ele>
        <time>2024-09-16T11:12:50Z</time>
      </trkpt>
      <trkpt lat="54.029186004772782" lon="14.031007010489702">
        <ele>-11.4</ele>
        <time>2024-09-16T11:12:55Z</time>
      </trkpt>
      <trkpt lat="54.02900998480618" lon="14.03115201741457">
        <ele>-10.92</ele>
        <time>2024-09-16T11:12:57Z</time>
      </trkpt>
      <trkpt lat="54.027994014322758" lon="14.031987022608519">
        <ele>-8.51</ele>
        <time>2024-09-16T11:13:07Z</time>
      </trkpt>
      <trkpt lat="54.027951015159488" lon="14.032030021771789">
        <ele>-8.51</ele>
        <time>2024-09-16T11:13:08Z</time>
      </trkpt>
      <trkpt lat="54.027393031865358" lon="14.032569983974099">
        <ele>-6.59</ele>
        <time>2024-09-16T11:13:14Z</time>
      </trkpt>
      <trkpt lat="54.026994975283742" lon="14.032996958121657">
        <ele>-6.59</ele>
        <time>2024-09-16T11:13:18Z</time>
      </trkpt>
      <trkpt lat="54.02688198722899" lon="14.033123021945357">
        <ele>-7.07</ele>
        <time>2024-09-16T11:13:19Z</time>
      </trkpt>
      <trkpt lat="54.025602992624044" lon="14.034620029851794">
        <ele>-9.960000000000001</ele>
        <time>2024-09-16T11:13:29Z</time>
      </trkpt>
      <trkpt lat="54.024825990200043" lon="14.035522006452084">
        <ele>-11.880000000000001</ele>
        <time>2024-09-16T11:13:34Z</time>
      </trkpt>
      <trkpt lat="54.023325964808464" lon="14.037260999903083">
        <ele>-12.84</ele>
        <time>2024-09-16T11:13:43Z</time>
      </trkpt>
      <trkpt lat="54.022145038470626" lon="14.03863001614809">
        <ele>-13.800000000000001</ele>
        <time>2024-09-16T11:13:51Z</time>
      </trkpt>
      <trkpt lat="54.020857997238636" lon="14.04009098187089">
        <ele>-15.24</ele>
        <time>2024-09-16T11:14:00Z</time>
      </trkpt>
      <trkpt lat="54.019407005980611" lon="14.041734002530575">
        <ele>-9.960000000000001</ele>
        <time>2024-09-16T11:14:10Z</time>
      </trkpt>
      <trkpt lat="54.017342962324619" lon="14.044071966782212">
        <ele>-6.59</ele>
        <time>2024-09-16T11:14:24Z</time>
      </trkpt>
      <trkpt lat="54.016039995476604" lon="14.04554801993072">
        <ele>-4.19</ele>
        <time>2024-09-16T11:14:34Z</time>
      </trkpt>
      <trkpt lat="54.015589971095324" lon="14.046054035425186">
        <ele>-1.3</ele>
        <time>2024-09-16T11:14:40Z</time>
      </trkpt>
      <trkpt lat="54.015543032437563" lon="14.046104997396469">
        <ele>-0.34</ele>
        <time>2024-09-16T11:14:41Z</time>
      </trkpt>
      <trkpt lat="54.015389978885651" lon="14.04627900570631">
        <ele>2.54</ele>
        <time>2024-09-16T11:14:50Z</time>
      </trkpt>
      <trkpt lat="54.01525997556746" lon="14.04643096961081">
        <ele>6.87</ele>
        <time>2024-09-16T11:15:22Z</time>
      </trkpt>
      <trkpt lat="54.01467802003026" lon="14.047093978151679">
        <ele>9.27</ele>
        <time>2024-09-16T11:15:30Z</time>
      </trkpt>
      <trkpt lat="54.013643022626638" lon="14.048237018287182">
        <ele>12.15</ele>
        <time>2024-09-16T11:15:42Z</time>
      </trkpt>
      <trkpt lat="54.013243960216641" lon="14.048730041831732">
        <ele>13.119999999999999</ele>
        <time>2024-09-16T11:15:47Z</time>
      </trkpt>
      <trkpt lat="54.013180006295443" lon="14.048810005187988">
        <ele>13.119999999999999</ele>
        <time>2024-09-16T11:15:48Z</time>
      </trkpt>
      <trkpt lat="54.012797037139535" lon="14.049284001812339">
        <ele>12.630000000000001</ele>
        <time>2024-09-16T11:15:54Z</time>
      </trkpt>
      <trkpt lat="54.012084994465113" lon="14.050501976162195">
        <ele>10.23</ele>
        <time>2024-09-16T11:16:04Z</time>
      </trkpt>
      <trkpt lat="54.011593982577324" lon="14.051657002419233">
        <ele>6.39</ele>
        <time>2024-09-16T11:16:12Z</time>
      </trkpt>
      <trkpt lat="54.011527011170983" lon="14.051812989637256">
        <ele>5.91</ele>
        <time>2024-09-16T11:16:13Z</time>
      </trkpt>
      <trkpt lat="54.01128401979804" lon="14.052373990416527">
        <ele>4.46</ele>
        <time>2024-09-16T11:16:17Z</time>
      </trkpt>
      <trkpt lat="54.011035999283195" lon="14.052944965660572">
        <ele>3.02</ele>
        <time>2024-09-16T11:16:22Z</time>
      </trkpt>
      <trkpt lat="54.010986965149641" lon="14.053058037534356">
        <ele>3.02</ele>
        <time>2024-09-16T11:16:23Z</time>
      </trkpt>
      <trkpt lat="54.010938014835119" lon="14.053172031417489">
        <ele>3.02</ele>
        <time>2024-09-16T11:16:24Z</time>
      </trkpt>
      <trkpt lat="54.010885041207075" lon="14.053292982280254">
        <ele>3.5</ele>
        <time>2024-09-16T11:16:25Z</time>
      </trkpt>
      <trkpt lat="54.01083399541676" lon="14.05341200530529">
        <ele>3.5</ele>
        <time>2024-09-16T11:16:26Z</time>
      </trkpt>
      <trkpt lat="54.010785967111588" lon="14.053522981703281">
        <ele>3.5</ele>
        <time>2024-09-16T11:16:27Z</time>
      </trkpt>
      <trkpt lat="54.010736010968685" lon="14.053634963929653">
        <ele>3.5</ele>
        <time>2024-09-16T11:16:28Z</time>
      </trkpt>
      <trkpt lat="54.010246004909277" lon="14.054717989638448">
        <ele>7.35</ele>
        <time>2024-09-16T11:16:36Z</time>
      </trkpt>
      <trkpt lat="54.010141985490918" lon="14.054946983233094">
        <ele>7.83</ele>
        <time>2024-09-16T11:16:37Z</time>
      </trkpt>
      <trkpt lat="54.009453998878598" lon="14.056109972298145">
        <ele>7.35</ele>
        <time>2024-09-16T11:16:45Z</time>
      </trkpt>
      <trkpt lat="54.009331036359072" lon="14.056254979223013">
        <ele>6.87</ele>
        <time>2024-09-16T11:16:46Z</time>
      </trkpt>
      <trkpt lat="54.009240008890629" lon="14.056363021954894">
        <ele>5.91</ele>
        <time>2024-09-16T11:16:47Z</time>
      </trkpt>
      <trkpt lat="54.008641960099339" lon="14.05684900470078">
        <ele>2.06</ele>
        <time>2024-09-16T11:16:51Z</time>
      </trkpt>
      <trkpt lat="54.008495025336742" lon="14.056974984705448">
        <ele>1.1</ele>
        <time>2024-09-16T11:16:52Z</time>
      </trkpt>
      <trkpt lat="54.007159033790231" lon="14.058004030957818">
        <ele>-4.67</ele>
        <time>2024-09-16T11:17:01Z</time>
      </trkpt>
      <trkpt lat="54.006735999137163" lon="14.058325979858637">
        <ele>-5.63</ele>
        <time>2024-09-16T11:17:04Z</time>
      </trkpt>
      <trkpt lat="54.00659903883934" lon="14.058429999276996">
        <ele>-6.11</ele>
        <time>2024-09-16T11:17:05Z</time>
      </trkpt>
      <trkpt lat="54.005228010937572" lon="14.059431971982121">
        <ele>-14.76</ele>
        <time>2024-09-16T11:17:15Z</time>
      </trkpt>
      <trkpt lat="54.003731003031135" lon="14.060107972472906">
        <ele>-26.780000000000001</ele>
        <time>2024-09-16T11:17:25Z</time>
      </trkpt>
      <trkpt lat="54.003300005570054" lon="14.060288015753031">
        <ele>-30.140000000000001</ele>
        <time>2024-09-16T11:17:28Z</time>
      </trkpt>
      <trkpt lat="54.003175031393766" lon="14.060336966067553">
        <ele>-31.109999999999999</ele>
        <time>2024-09-16T11:17:29Z</time>
      </trkpt>
      <trkpt lat="54.003052990883589" lon="14.060384994372725">
        <ele>-32.07</ele>
        <time>2024-09-16T11:17:30Z</time>
      </trkpt>
      <trkpt lat="54.002760965377092" lon="14.060534024611115">
        <ele>-34.469999999999999</ele>
        <time>2024-09-16T11:17:32Z</time>
      </trkpt>
      <trkpt lat="54.002628028392792" lon="14.060618011280894">
        <ele>-35.43</ele>
        <time>2024-09-16T11:17:33Z</time>
      </trkpt>
      <trkpt lat="54.002371961250901" lon="14.06077902764082">
        <ele>-36.869999999999997</ele>
        <time>2024-09-16T11:17:35Z</time>
      </trkpt>
      <trkpt lat="54.002229971811175" lon="14.060906013473868">
        <ele>-37.350000000000001</ele>
        <time>2024-09-16T11:17:36Z</time>
      </trkpt>
      <trkpt lat="54.001752035692334" lon="14.061513030901551">
        <ele>-37.829999999999998</ele>
        <time>2024-09-16T11:17:40Z</time>
      </trkpt>
      <trkpt lat="54.001677017658949" lon="14.061670023947954">
        <ele>-37.829999999999998</ele>
        <time>2024-09-16T11:17:41Z</time>
      </trkpt>
      <trkpt lat="54.001591019332409" lon="14.061853000894189">
        <ele>-38.32</ele>
        <time>2024-09-16T11:17:42Z</time>
      </trkpt>
      <trkpt lat="54.001364959403872" lon="14.062329009175301">
        <ele>-39.759999999999998</ele>
        <time>2024-09-16T11:17:44Z</time>
      </trkpt>
      <trkpt lat="54.001259012147784" lon="14.062752965837717">
        <ele>-41.68</ele>
        <time>2024-09-16T11:17:46Z</time>
      </trkpt>
      <trkpt lat="54.000958018004894" lon="14.064581980928779">
        <ele>-44.079999999999998</ele>
        <time>2024-09-16T11:17:53Z</time>
      </trkpt>
      <trkpt lat="54.000645959749818" lon="14.066122993826866">
        <ele>-46.969999999999999</ele>
        <time>2024-09-16T11:17:59Z</time>
      </trkpt>
      <trkpt lat="54.000549986958504" lon="14.066470004618168">
        <ele>-47.450000000000003</ele>
        <time>2024-09-16T11:18:00Z</time>
      </trkpt>
      <trkpt lat="54.000301966443658" lon="14.066899996250868">
        <ele>-47.93</ele>
        <time>2024-09-16T11:18:02Z</time>
      </trkpt>
      <trkpt lat="53.999768039211631" lon="14.067434007301927">
        <ele>-49.369999999999997</ele>
        <time>2024-09-16T11:18:05Z</time>
      </trkpt>
      <trkpt lat="53.998077996075153" lon="14.068342018872499">
        <ele>-46.490000000000002</ele>
        <time>2024-09-16T11:18:14Z</time>
      </trkpt>
      <trkpt lat="53.995424034073949" lon="14.06969896517694">
        <ele>-25.82</ele>
        <time>2024-09-16T11:18:29Z</time>
      </trkpt>
      <trkpt lat="53.992715002968907" lon="14.07109597697854">
        <ele>-21.489999999999998</ele>
        <time>2024-09-16T11:18:45Z</time>
      </trkpt>
      <trkpt lat="53.991385968402028" lon="14.071777006611228">
        <ele>-20.050000000000001</ele>
        <time>2024-09-16T11:18:52Z</time>
      </trkpt>
      <trkpt lat="53.988957982510328" lon="14.073020964860916">
        <ele>-18.609999999999999</ele>
        <time>2024-09-16T11:19:04Z</time>
      </trkpt>
      <trkpt lat="53.986179968342185" lon="14.074443960562348">
        <ele>-16.690000000000001</ele>
        <time>2024-09-16T11:19:18Z</time>
      </trkpt>
      <trkpt lat="53.984960988163948" lon="14.07519799657166">
        <ele>-15.24</ele>
        <time>2024-09-16T11:19:25Z</time>
      </trkpt>
      <trkpt lat="53.98436201736331" lon="14.075706023722887">
        <ele>-13.800000000000001</ele>
        <time>2024-09-16T11:19:29Z</time>
      </trkpt>
      <trkpt lat="53.983561964705586" lon="14.07685300335288">
        <ele>-12.359999999999999</ele>
        <time>2024-09-16T11:19:37Z</time>
      </trkpt>
      <trkpt lat="53.983189975842834" lon="14.07756102271378">
        <ele>-11.4</ele>
        <time>2024-09-16T11:19:44Z</time>
      </trkpt>
      <trkpt lat="53.983159968629479" lon="14.077632017433643">
        <ele>-10.92</ele>
        <time>2024-09-16T11:19:45Z</time>
      </trkpt>
      <trkpt lat="53.983132978901267" lon="14.077694965526462">
        <ele>-10.92</ele>
        <time>2024-09-16T11:19:46Z</time>
      </trkpt>
      <trkpt lat="53.983112024143338" lon="14.077746011316776">
        <ele>-10.92</ele>
        <time>2024-09-16T11:19:47Z</time>
      </trkpt>
      <trkpt lat="53.983097020536661" lon="14.077780041843653">
        <ele>-10.92</ele>
        <time>2024-09-16T11:19:48Z</time>
      </trkpt>
      <trkpt lat="53.983086040243506" lon="14.077807031571865">
        <ele>-10.92</ele>
        <time>2024-09-16T11:19:49Z</time>
      </trkpt>
      <trkpt lat="53.983073970302939" lon="14.077834021300077">
        <ele>-11.4</ele>
        <time>2024-09-16T11:19:50Z</time>
      </trkpt>
      <trkpt lat="53.983039017766714" lon="14.077921025454998">
        <ele>-10.92</ele>
        <time>2024-09-16T11:19:52Z</time>
      </trkpt>
      <trkpt lat="53.983003981411457" lon="14.078008029609919">
        <ele>-10.92</ele>
        <time>2024-09-16T11:19:53Z</time>
      </trkpt>
      <trkpt lat="53.982549011707306" lon="14.07936598174274">
        <ele>-6.59</ele>
        <time>2024-09-16T11:20:02Z</time>
      </trkpt>
      <trkpt lat="53.981940988451242" lon="14.081998988986015">
        <ele>-1.79</ele>
        <time>2024-09-16T11:20:14Z</time>
      </trkpt>
      <trkpt lat="53.981308992952108" lon="14.084929972887039">
        <ele>-0.82</ele>
        <time>2024-09-16T11:20:25Z</time>
      </trkpt>
      <trkpt lat="53.980733994394541" lon="14.088812973350286">
        <ele>-0.34</ele>
        <time>2024-09-16T11:20:37Z</time>
      </trkpt>
      <trkpt lat="53.980209035798907" lon="14.092540992423892">
        <ele>1.1</ele>
        <time>2024-09-16T11:20:47Z</time>
      </trkpt>
      <trkpt lat="53.979714000597596" lon="14.095915965735912">
        <ele>1.58</ele>
        <time>2024-09-16T11:20:56Z</time>
      </trkpt>
      <trkpt lat="53.979102959856391" lon="14.098216965794563">
        <ele>1.58</ele>
        <time>2024-09-16T11:21:03Z</time>
      </trkpt>
      <trkpt lat="53.977957991883159" lon="14.100740002468228">
        <ele>0.62</ele>
        <time>2024-09-16T11:21:12Z</time>
      </trkpt>
      <trkpt lat="53.976874966174364" lon="14.103321963921189">
        <ele>-0.34</ele>
        <time>2024-09-16T11:21:22Z</time>
      </trkpt>
      <trkpt lat="53.976798020303249" lon="14.103608960285783">
        <ele>-0.34</ele>
        <time>2024-09-16T11:21:23Z</time>
      </trkpt>
      <trkpt lat="53.976354030892253" lon="14.105992019176483">
        <ele>-0.82</ele>
        <time>2024-09-16T11:21:31Z</time>
      </trkpt>
      <trkpt lat="53.975963015109301" lon="14.108889978379011">
        <ele>2.06</ele>
        <time>2024-09-16T11:21:41Z</time>
      </trkpt>
      <trkpt lat="53.975564958527684" lon="14.110353961586952">
        <ele>5.91</ele>
        <time>2024-09-16T11:21:46Z</time>
      </trkpt>
      <trkpt lat="53.97458796389401" lon="14.112169984728098">
        <ele>10.710000000000001</ele>
        <time>2024-09-16T11:21:53Z</time>
      </trkpt>
      <trkpt lat="53.973312992602587" lon="14.114486994221807">
        <ele>15.039999999999999</ele>
        <time>2024-09-16T11:22:02Z</time>
      </trkpt>
      <trkpt lat="53.972143968567252" lon="14.116594959050417">
        <ele>19.84</ele>
        <time>2024-09-16T11:22:11Z</time>
      </trkpt>
      <trkpt lat="53.971078963950276" lon="14.117932040244341">
        <ele>21.289999999999999</ele>
        <time>2024-09-16T11:22:18Z</time>
      </trkpt>
      <trkpt lat="53.969526970759034" lon="14.119294015690684">
        <ele>20.32</ele>
        <time>2024-09-16T11:22:27Z</time>
      </trkpt>
      <trkpt lat="53.968910984694958" lon="14.120072023943067">
        <ele>18.879999999999999</ele>
        <time>2024-09-16T11:22:31Z</time>
      </trkpt>
      <trkpt lat="53.968774024397135" lon="14.120282996445894">
        <ele>18.399999999999999</ele>
        <time>2024-09-16T11:22:32Z</time>
      </trkpt>
      <trkpt lat="53.967499975115061" lon="14.122838973999023">
        <ele>17.440000000000001</ele>
        <time>2024-09-16T11:22:42Z</time>
      </trkpt>
      <trkpt lat="53.966410998255014" lon="14.125113990157843">
        <ele>20.32</ele>
        <time>2024-09-16T11:22:52Z</time>
      </trkpt>
      <trkpt lat="53.965857960283756" lon="14.126436989754438">
        <ele>23.690000000000001</ele>
        <time>2024-09-16T11:22:59Z</time>
      </trkpt>
      <trkpt lat="53.965451018884778" lon="14.127564020454884">
        <ele>25.609999999999999</ele>
        <time>2024-09-16T11:23:06Z</time>
      </trkpt>
      <trkpt lat="53.965315986424685" lon="14.128053020685911">
        <ele>25.609999999999999</ele>
        <time>2024-09-16T11:23:09Z</time>
      </trkpt>
      <trkpt lat="53.965269969776273" lon="14.128191992640495">
        <ele>26.09</ele>
        <time>2024-09-16T11:23:10Z</time>
      </trkpt>
      <trkpt lat="53.96470402367413" lon="14.130123015493155">
        <ele>29.460000000000001</ele>
        <time>2024-09-16T11:23:22Z</time>
      </trkpt>
      <trkpt lat="53.964438987895846" lon="14.130996996536851">
        <ele>28.02</ele>
        <time>2024-09-16T11:23:30Z</time>
      </trkpt>
      <trkpt lat="53.964190967381001" lon="14.131800988689065">
        <ele>26.57</ele>
        <time>2024-09-16T11:23:42Z</time>
      </trkpt>
      <trkpt lat="53.96386600099504" lon="14.13297101855278">
        <ele>25.129999999999999</ele>
        <time>2024-09-16T11:23:51Z</time>
      </trkpt>
      <trkpt lat="53.96382300183177" lon="14.133118037134409">
        <ele>25.129999999999999</ele>
        <time>2024-09-16T11:23:52Z</time>
      </trkpt>
      <trkpt lat="53.963778996840119" lon="14.133270001038909">
        <ele>24.649999999999999</ele>
        <time>2024-09-16T11:23:53Z</time>
      </trkpt>
      <trkpt lat="53.963182037696242" lon="14.135201023891568">
        <ele>23.690000000000001</ele>
        <time>2024-09-16T11:24:06Z</time>
      </trkpt>
      <trkpt lat="53.962596980854869" lon="14.13724897429347">
        <ele>22.73</ele>
        <time>2024-09-16T11:24:17Z</time>
      </trkpt>
      <trkpt lat="53.961927015334368" lon="14.14047097787261">
        <ele>17.440000000000001</ele>
        <time>2024-09-16T11:24:31Z</time>
      </trkpt>
      <trkpt lat="53.961544968187809" lon="14.142915979027748">
        <ele>14.56</ele>
        <time>2024-09-16T11:24:41Z</time>
      </trkpt>
      <trkpt lat="53.961218995973468" lon="14.145169034600258">
        <ele>10.23</ele>
        <time>2024-09-16T11:24:52Z</time>
      </trkpt>
      <trkpt lat="53.960684984922409" lon="14.146490022540092">
        <ele>7.35</ele>
        <time>2024-09-16T11:25:02Z</time>
      </trkpt>
      <trkpt lat="53.96031903102994" lon="14.147303989157081">
        <ele>6.87</ele>
        <time>2024-09-16T11:25:09Z</time>
      </trkpt>
      <trkpt lat="53.960268991068006" lon="14.147413959726691">
        <ele>7.35</ele>
        <time>2024-09-16T11:25:10Z</time>
      </trkpt>
      <trkpt lat="53.959643030539155" lon="14.148813989013433">
        <ele>7.35</ele>
        <time>2024-09-16T11:25:23Z</time>
      </trkpt>
      <trkpt lat="53.95890299230814" lon="14.150472013279796">
        <ele>6.39</ele>
        <time>2024-09-16T11:25:37Z</time>
      </trkpt>
      <trkpt lat="53.958735018968582" lon="14.150844002142549">
        <ele>6.39</ele>
        <time>2024-09-16T11:25:40Z</time>
      </trkpt>
      <trkpt lat="53.958121966570616" lon="14.152229027822614">
        <ele>4.94</ele>
        <time>2024-09-16T11:25:50Z</time>
      </trkpt>
      <trkpt lat="53.957376983016729" lon="14.154016971588135">
        <ele>3.98</ele>
        <time>2024-09-16T11:26:01Z</time>
      </trkpt>
      <trkpt lat="53.957087974995375" lon="14.155583968386054">
        <ele>4.94</ele>
        <time>2024-09-16T11:26:11Z</time>
      </trkpt>
      <trkpt lat="53.956768037751317" lon="14.157457994297147">
        <ele>4.94</ele>
        <time>2024-09-16T11:26:22Z</time>
      </trkpt>
      <trkpt lat="53.956630993634462" lon="14.158155033364892">
        <ele>5.42</ele>
        <time>2024-09-16T11:26:26Z</time>
      </trkpt>
      <trkpt lat="53.956596963107586" lon="14.158220998942852">
        <ele>5.42</ele>
        <time>2024-09-16T11:26:27Z</time>
      </trkpt>
      <trkpt lat="53.956543989479542" lon="14.158295011147857">
        <ele>5.42</ele>
        <time>2024-09-16T11:26:28Z</time>
      </trkpt>
      <trkpt lat="53.956503001973033" lon="14.158352008089423">
        <ele>4.94</ele>
        <time>2024-09-16T11:26:29Z</time>
      </trkpt>
      <trkpt lat="53.956472994759679" lon="14.158394001424313">
        <ele>4.94</ele>
        <time>2024-09-16T11:26:30Z</time>
      </trkpt>
      <trkpt lat="53.956446005031466" lon="14.158430965617299">
        <ele>4.94</ele>
        <time>2024-09-16T11:26:31Z</time>
      </trkpt>
      <trkpt lat="53.95641197450459" lon="14.158479999750853">
        <ele>4.46</ele>
        <time>2024-09-16T11:26:41Z</time>
      </trkpt>
      <trkpt lat="53.956147022545338" lon="14.158616960048676">
        <ele>3.02</ele>
        <time>2024-09-16T11:26:51Z</time>
      </trkpt>
      <trkpt lat="53.955742008984089" lon="14.158843019977212">
        <ele>2.54</ele>
        <time>2024-09-16T11:27:02Z</time>
      </trkpt>
      <trkpt lat="53.955638995394111" lon="14.158931029960513">
        <ele>2.54</ele>
        <time>2024-09-16T11:27:03Z</time>
      </trkpt>
      <trkpt lat="53.955396004021168" lon="14.159331014379859">
        <ele>1.1</ele>
        <time>2024-09-16T11:27:09Z</time>
      </trkpt>
      <trkpt lat="53.955338001251221" lon="14.159421036019921">
        <ele>0.62</ele>
        <time>2024-09-16T11:27:10Z</time>
      </trkpt>
      <trkpt lat="53.954693013802171" lon="14.160419991239905">
        <ele>0.62</ele>
        <time>2024-09-16T11:27:18Z</time>
      </trkpt>
      <trkpt lat="53.95426201634109" lon="14.161105966195464">
        <ele>1.1</ele>
        <time>2024-09-16T11:27:24Z</time>
      </trkpt>
      <trkpt lat="53.954036962240934" lon="14.161488013342023">
        <ele>0.62</ele>
        <time>2024-09-16T11:27:28Z</time>
      </trkpt>
      <trkpt lat="53.953986000269651" lon="14.161579962819815">
        <ele>0.62</ele>
        <time>2024-09-16T11:27:29Z</time>
      </trkpt>
      <trkpt lat="53.953845016658306" lon="14.161835024133325">
        <ele>-0.82</ele>
        <time>2024-09-16T11:27:32Z</time>
      </trkpt>
      <trkpt lat="53.953800005838275" lon="14.161914987489581">
        <ele>-1.3</ele>
        <time>2024-09-16T11:27:33Z</time>
      </trkpt>
      <trkpt lat="53.953708978369832" lon="14.162110034376383">
        <ele>-2.27</ele>
        <time>2024-09-16T11:27:35Z</time>
      </trkpt>
      <trkpt lat="53.953676037490368" lon="14.162221010774374">
        <ele>-3.23</ele>
        <time>2024-09-16T11:27:36Z</time>
      </trkpt>
      <trkpt lat="53.95363999530673" lon="14.16234103962779">
        <ele>-4.19</ele>
        <time>2024-09-16T11:27:37Z</time>
      </trkpt>
      <trkpt lat="53.953566988930106" lon="14.162584031000733">
        <ele>-6.11</ele>
        <time>2024-09-16T11:27:39Z</time>
      </trkpt>
      <trkpt lat="53.953345958143473" lon="14.163431022316217">
        <ele>-7.55</ele>
        <time>2024-09-16T11:27:45Z</time>
      </trkpt>
      <trkpt lat="53.953111013397574" lon="14.164279019460082">
        <ele>-8.029999999999999</ele>
        <time>2024-09-16T11:27:51Z</time>
      </trkpt>
      <trkpt lat="53.953054016456008" lon="14.164408016949892">
        <ele>-8.51</ele>
        <time>2024-09-16T11:27:52Z</time>
      </trkpt>
      <trkpt lat="53.952996013686061" lon="14.164542965590954">
        <ele>-8.029999999999999</ele>
        <time>2024-09-16T11:27:53Z</time>
      </trkpt>
      <trkpt lat="53.952813958749175" lon="14.164935993030667">
        <ele>-8.029999999999999</ele>
        <time>2024-09-16T11:27:56Z</time>
      </trkpt>
      <trkpt lat="53.952224962413311" lon="14.165897984057665">
        <ele>-13.800000000000001</ele>
        <time>2024-09-16T11:28:05Z</time>
      </trkpt>
      <trkpt lat="53.952163020148873" lon="14.16599303483963">
        <ele>-14.76</ele>
        <time>2024-09-16T11:28:06Z</time>
      </trkpt>
      <trkpt lat="53.952096970751882" lon="14.166093030944467">
        <ele>-15.24</ele>
        <time>2024-09-16T11:28:07Z</time>
      </trkpt>
      <trkpt lat="53.951505040749907" lon="14.166927030310035">
        <ele>-16.690000000000001</ele>
        <time>2024-09-16T11:28:15Z</time>
      </trkpt>
      <trkpt lat="53.951428011059761" lon="14.167021997272968">
        <ele>-16.690000000000001</ele>
        <time>2024-09-16T11:28:16Z</time>
      </trkpt>
      <trkpt lat="53.95097597502172" lon="14.167633960023522">
        <ele>-17.649999999999999</ele>
        <time>2024-09-16T11:28:22Z</time>
      </trkpt>
      <trkpt lat="53.950895005837083" lon="14.167732028290629">
        <ele>-17.649999999999999</ele>
        <time>2024-09-16T11:28:23Z</time>
      </trkpt>
      <trkpt lat="53.950752010568976" lon="14.167981976643205">
        <ele>-17.649999999999999</ele>
        <time>2024-09-16T11:28:25Z</time>
      </trkpt>
      <trkpt lat="53.950684033334255" lon="14.16812002658844">
        <ele>-17.649999999999999</ele>
        <time>2024-09-16T11:28:26Z</time>
      </trkpt>
      <trkpt lat="53.950397958979011" lon="14.168939022347331">
        <ele>-16.690000000000001</ele>
        <time>2024-09-16T11:28:31Z</time>
      </trkpt>
      <trkpt lat="53.950324030593038" lon="14.169112024828792">
        <ele>-16.690000000000001</ele>
        <time>2024-09-16T11:28:32Z</time>
      </trkpt>
      <trkpt lat="53.94955700263381" lon="14.170779017731547">
        <ele>-16.690000000000001</ele>
        <time>2024-09-16T11:28:42Z</time>
      </trkpt>
      <trkpt lat="53.948560981079936" lon="14.172683972865343">
        <ele>-15.24</ele>
        <time>2024-09-16T11:28:51Z</time>
      </trkpt>
      <trkpt lat="53.947779033333063" lon="14.174179974943399">
        <ele>-16.210000000000001</ele>
        <time>2024-09-16T11:28:58Z</time>
      </trkpt>
      <trkpt lat="53.946796003729105" lon="14.175523007288575">
        <ele>-15.24</ele>
        <time>2024-09-16T11:29:06Z</time>
      </trkpt>
      <trkpt lat="53.945910036563873" lon="14.176535038277507">
        <ele>-13.32</ele>
        <time>2024-09-16T11:29:15Z</time>
      </trkpt>
      <trkpt lat="53.945095986127853" lon="14.177585039287806">
        <ele>-10.44</ele>
        <time>2024-09-16T11:29:24Z</time>
      </trkpt>
      <trkpt lat="53.944371035322547" lon="14.178621964529157">
        <ele>-11.880000000000001</ele>
        <time>2024-09-16T11:29:33Z</time>
      </trkpt>
      <trkpt lat="53.943409966304898" lon="14.179914034903049">
        <ele>-11.880000000000001</ele>
        <time>2024-09-16T11:29:43Z</time>
      </trkpt>
      <trkpt lat="53.942332975566387" lon="14.18088398873806">
        <ele>-9.960000000000001</ele>
        <time>2024-09-16T11:29:53Z</time>
      </trkpt>
      <trkpt lat="53.94223197363317" lon="14.180984990671277">
        <ele>-9.960000000000001</ele>
        <time>2024-09-16T11:29:54Z</time>
      </trkpt>
      <trkpt lat="53.942143963649869" lon="14.181081969290972">
        <ele>-9.960000000000001</ele>
        <time>2024-09-16T11:29:55Z</time>
      </trkpt>
      <trkpt lat="53.941879011690617" lon="14.181470973417163">
        <ele>-9.960000000000001</ele>
        <time>2024-09-16T11:30:00Z</time>
      </trkpt>
      <trkpt lat="53.941830983385444" lon="14.181544985622168">
        <ele>-9.960000000000001</ele>
        <time>2024-09-16T11:30:01Z</time>
      </trkpt>
      <trkpt lat="53.941385988146067" lon="14.182320982217789">
        <ele>-10.92</ele>
        <time>2024-09-16T11:30:11Z</time>
      </trkpt>
      <trkpt lat="53.941250033676624" lon="14.182557016611099">
        <ele>-10.92</ele>
        <time>2024-09-16T11:30:21Z</time>
      </trkpt>
      <trkpt lat="53.940993966534734" lon="14.183087004348636">
        <ele>-9.48</ele>
        <time>2024-09-16T11:30:32Z</time>
      </trkpt>
      <trkpt lat="53.94096496514976" lon="14.183173002675176">
        <ele>-9</ele>
        <time>2024-09-16T11:30:33Z</time>
      </trkpt>
      <trkpt lat="53.940738989040256" lon="14.183841962367296">
        <ele>-9.48</ele>
        <time>2024-09-16T11:30:42Z</time>
      </trkpt>
      <trkpt lat="53.940570009872317" lon="14.18423599563539">
        <ele>-8.029999999999999</ele>
        <time>2024-09-16T11:30:52Z</time>
      </trkpt>
      <trkpt lat="53.940458027645946" lon="14.184498013928533">
        <ele>-6.11</ele>
        <time>2024-09-16T11:31:02Z</time>
      </trkpt>
      <trkpt lat="53.940360965207219" lon="14.184722984209657">
        <ele>-4.67</ele>
        <time>2024-09-16T11:31:17Z</time>
      </trkpt>
      <trkpt lat="53.940285025164485" lon="14.18490001000464">
        <ele>-4.67</ele>
        <time>2024-09-16T11:31:33Z</time>
      </trkpt>
      <trkpt lat="53.940285025164485" lon="14.18490001000464">
        <ele>-4.19</ele>
        <time>2024-09-16T11:32:16Z</time>
      </trkpt>
      <trkpt lat="53.940285025164485" lon="14.18490001000464">
        <ele>-4.67</ele>
        <time>2024-09-16T11:33:09Z</time>
      </trkpt>
      <trkpt lat="53.940285025164485" lon="14.18490001000464">
        <ele>-4.19</ele>
        <time>2024-09-16T11:34:03Z</time>
      </trkpt>
      <trkpt lat="53.940285025164485" lon="14.18490001000464">
        <ele>-3.71</ele>
        <time>2024-09-16T11:34:41Z</time>
      </trkpt>
      <trkpt lat="53.940083021298051" lon="14.18535003438592">
        <ele>0.62</ele>
        <time>2024-09-16T11:34:54Z</time>
      </trkpt>
      <trkpt lat="53.939859978854656" lon="14.185934001579881">
        <ele>-0.34</ele>
        <time>2024-09-16T11:35:05Z</time>
      </trkpt>
      <trkpt lat="53.939838018268347" lon="14.185988986864686">
        <ele>-0.34</ele>
        <time>2024-09-16T11:35:06Z</time>
      </trkpt>
      <trkpt lat="53.939822008833289" lon="14.186027962714434">
        <ele>-0.34</ele>
        <time>2024-09-16T11:35:07Z</time>
      </trkpt>
      <trkpt lat="53.939736010506749" lon="14.186013964936137">
        <ele>-0.34</ele>
        <time>2024-09-16T11:35:08Z</time>
      </trkpt>
      <trkpt lat="53.939698040485382" lon="14.185979012399912">
        <ele>-0.82</ele>
        <time>2024-09-16T11:35:09Z</time>
      </trkpt>
      <trkpt lat="53.939655041322112" lon="14.185939030721784">
        <ele>-0.82</ele>
        <time>2024-09-16T11:35:10Z</time>
      </trkpt>
      <trkpt lat="53.939611036330462" lon="14.185898965224624">
        <ele>-0.82</ele>
        <time>2024-09-16T11:35:11Z</time>
      </trkpt>
      <trkpt lat="53.93956895917654" lon="14.185860995203257">
        <ele>-0.82</ele>
        <time>2024-09-16T11:35:12Z</time>
      </trkpt>
      <trkpt lat="53.939526965841651" lon="14.18582302518189">
        <ele>-1.3</ele>
        <time>2024-09-16T11:35:13Z</time>
      </trkpt>
      <trkpt lat="53.939484972506762" lon="14.18578396551311">
        <ele>-1.3</ele>
        <time>2024-09-16T11:35:14Z</time>
      </trkpt>
      <trkpt lat="53.939443985000253" lon="14.185747001320124">
        <ele>-1.79</ele>
        <time>2024-09-16T11:35:15Z</time>
      </trkpt>
      <trkpt lat="53.939404003322124" lon="14.185710037127137">
        <ele>-1.79</ele>
        <time>2024-09-16T11:35:16Z</time>
      </trkpt>
      <trkpt lat="53.939396040514112" lon="14.185302006080747">
        <ele>-1.79</ele>
        <time>2024-09-16T11:35:19Z</time>
      </trkpt>
      <trkpt lat="53.939358992502093" lon="14.185299994423985">
        <ele>-2.27</ele>
        <time>2024-09-16T11:35:20Z</time>
      </trkpt>
      <trkpt lat="53.939322028309107" lon="14.185297982767224">
        <ele>-2.27</ele>
        <time>2024-09-16T11:35:21Z</time>
      </trkpt>
      <trkpt lat="53.938735965639353" lon="14.18526504188776">
        <ele>0.14</ele>
        <time>2024-09-16T11:35:29Z</time>
      </trkpt>
      <trkpt lat="53.938093995675445" lon="14.185228999704123">
        <ele>3.5</ele>
        <time>2024-09-16T11:35:37Z</time>
      </trkpt>
      <trkpt lat="53.937932979315519" lon="14.185220031067729">
        <ele>3.5</ele>
        <time>2024-09-16T11:35:39Z</time>
      </trkpt>
      <trkpt lat="53.937855027616024" lon="14.185240985825658">
        <ele>3.5</ele>
        <time>2024-09-16T11:35:40Z</time>
      </trkpt>
      <trkpt lat="53.937797024846077" lon="14.185322960838675">
        <ele>3.5</ele>
        <time>2024-09-16T11:35:41Z</time>
      </trkpt>
      <trkpt lat="53.937737010419369" lon="14.185408959165215">
        <ele>3.5</ele>
        <time>2024-09-16T11:35:42Z</time>
      </trkpt>
      <trkpt lat="53.937674984335899" lon="14.185495963320136">
        <ele>3.5</ele>
        <time>2024-09-16T11:35:43Z</time>
      </trkpt>
      <trkpt lat="53.937614969909191" lon="14.185581961646676">
        <ele>3.98</ele>
        <time>2024-09-16T11:35:44Z</time>
      </trkpt>
      <trkpt lat="53.936998983845115" lon="14.186455020681024">
        <ele>3.5</ele>
        <time>2024-09-16T11:35:55Z</time>
      </trkpt>
      <trkpt lat="53.936922037974" lon="14.186562979593873">
        <ele>3.02</ele>
        <time>2024-09-16T11:35:57Z</time>
      </trkpt>
      <trkpt lat="53.936880966648459" lon="14.186617964878678">
        <ele>3.02</ele>
        <time>2024-09-16T11:35:58Z</time>
      </trkpt>
      <trkpt lat="53.936834027990699" lon="14.186680996790528">
        <ele>2.54</ele>
        <time>2024-09-16T11:35:59Z</time>
      </trkpt>
      <trkpt lat="53.936783988028765" lon="14.186747968196869">
        <ele>2.06</ele>
        <time>2024-09-16T11:36:00Z</time>
      </trkpt>
      <trkpt lat="53.93673000857234" lon="14.186820974573493">
        <ele>2.06</ele>
        <time>2024-09-16T11:36:01Z</time>
      </trkpt>
      <trkpt lat="53.936673011630774" lon="14.186896998435259">
        <ele>2.06</ele>
        <time>2024-09-16T11:36:02Z</time>
      </trkpt>
      <trkpt lat="53.936373023316264" lon="14.187302011996508">
        <ele>1.58</ele>
        <time>2024-09-16T11:36:07Z</time>
      </trkpt>
      <trkpt lat="53.936308985576034" lon="14.187389016151428">
        <ele>1.58</ele>
        <time>2024-09-16T11:36:08Z</time>
      </trkpt>
      <trkpt lat="53.935961974784732" lon="14.187855971977115">
        <ele>0.62</ele>
        <time>2024-09-16T11:36:14Z</time>
      </trkpt>
      <trkpt lat="53.935884023085237" lon="14.187977006658912">
        <ele>0.14</ele>
        <time>2024-09-16T11:36:16Z</time>
      </trkpt>
      <trkpt lat="53.935790983960032" lon="14.188120001927018">
        <ele>-0.82</ele>
        <time>2024-09-16T11:36:18Z</time>
      </trkpt>
      <trkpt lat="53.935661986470222" lon="14.188348995521665">
        <ele>-2.27</ele>
        <time>2024-09-16T11:36:26Z</time>
      </trkpt>
      <trkpt lat="53.935672966763377" lon="14.188405992463231">
        <ele>-1.79</ele>
        <time>2024-09-16T11:36:34Z</time>
      </trkpt>
      <trkpt lat="53.935685036703944" lon="14.188466006889939">
        <ele>-1.79</ele>
        <time>2024-09-16T11:36:35Z</time>
      </trkpt>
      <trkpt lat="53.935704985633492" lon="14.188563991338015">
        <ele>-1.79</ele>
        <time>2024-09-16T11:36:36Z</time>
      </trkpt>
      <trkpt lat="53.935729041695595" lon="14.188603973016143">
        <ele>-1.3</ele>
        <time>2024-09-16T11:36:37Z</time>
      </trkpt>
      <trkpt lat="53.93576399423182" lon="14.18866298161447">
        <ele>-0.82</ele>
        <time>2024-09-16T11:36:38Z</time>
      </trkpt>
      <trkpt lat="53.935800958424807" lon="14.188724001869559">
        <ele>-0.34</ele>
        <time>2024-09-16T11:36:39Z</time>
      </trkpt>
      <trkpt lat="53.936004973948002" lon="14.189063971862197">
        <ele>2.06</ele>
        <time>2024-09-16T11:36:48Z</time>
      </trkpt>
      <trkpt lat="53.936116034165025" lon="14.189243009313941">
        <ele>2.54</ele>
        <time>2024-09-16T11:36:59Z</time>
      </trkpt>
      <trkpt lat="53.936116034165025" lon="14.189243009313941">
        <ele>2.54</ele>
        <time>2024-09-16T11:37:46Z</time>
      </trkpt>
      <trkpt lat="53.936116034165025" lon="14.189243009313941">
        <ele>2.54</ele>
        <time>2024-09-16T11:38:24Z</time>
      </trkpt>
      <trkpt lat="53.936160039156675" lon="14.189312998205423">
        <ele>3.98</ele>
        <time>2024-09-16T11:38:38Z</time>
      </trkpt>
      <trkpt lat="53.936241008341312" lon="14.189444007351995">
        <ele>3.98</ele>
        <time>2024-09-16T11:38:48Z</time>
      </trkpt>
      <trkpt lat="53.936288030818105" lon="14.189683981239796">
        <ele>3.98</ele>
        <time>2024-09-16T11:38:49Z</time>
      </trkpt>
      <trkpt lat="53.936251988634467" lon="14.189738966524601">
        <ele>3.98</ele>
        <time>2024-09-16T11:38:50Z</time>
      </trkpt>
      <trkpt lat="53.936199015006423" lon="14.189818007871509">
        <ele>3.5</ele>
        <time>2024-09-16T11:38:51Z</time>
      </trkpt>
      <trkpt lat="53.936137994751334" lon="14.189910041168332">
        <ele>3.5</ele>
        <time>2024-09-16T11:38:52Z</time>
      </trkpt>
      <trkpt lat="53.935320004820824" lon="14.191135978326201">
        <ele>3.98</ele>
        <time>2024-09-16T11:39:03Z</time>
      </trkpt>
      <trkpt lat="53.934487011283636" lon="14.192403992637992">
        <ele>4.46</ele>
        <time>2024-09-16T11:39:15Z</time>
      </trkpt>
      <trkpt lat="53.934305040165782" lon="14.192691994830966">
        <ele>4.94</ele>
        <time>2024-09-16T11:39:18Z</time>
      </trkpt>
      <trkpt lat="53.93425801768899" lon="14.19276500120759">
        <ele>4.94</ele>
        <time>2024-09-16T11:39:19Z</time>
      </trkpt>
      <trkpt lat="53.934090966358781" lon="14.192791990935802">
        <ele>4.94</ele>
        <time>2024-09-16T11:39:20Z</time>
      </trkpt>
      <trkpt lat="53.934051990509033" lon="14.192719990387559">
        <ele>4.94</ele>
        <time>2024-09-16T11:39:21Z</time>
      </trkpt>
      <trkpt lat="53.934006979689002" lon="14.192637009546161">
        <ele>5.42</ele>
        <time>2024-09-16T11:39:22Z</time>
      </trkpt>
      <trkpt lat="53.93396096304059" lon="14.192556040361524">
        <ele>5.42</ele>
        <time>2024-09-16T11:39:23Z</time>
      </trkpt>
      <trkpt lat="53.93391796387732" lon="14.192482028156519">
        <ele>5.42</ele>
        <time>2024-09-16T11:39:24Z</time>
      </trkpt>
      <trkpt lat="53.933876976370811" lon="14.192411033436656">
        <ele>5.91</ele>
        <time>2024-09-16T11:39:25Z</time>
      </trkpt>
      <trkpt lat="53.93374202772975" lon="14.192172987386584">
        <ele>6.39</ele>
        <time>2024-09-16T11:39:33Z</time>
      </trkpt>
      <trkpt lat="53.93374202772975" lon="14.192172987386584">
        <ele>6.39</ele>
        <time>2024-09-16T11:40:18Z</time>
      </trkpt>
      <trkpt lat="53.933690981939435" lon="14.192073997110128">
        <ele>6.39</ele>
        <time>2024-09-16T11:40:29Z</time>
      </trkpt>
      <trkpt lat="53.933652006089687" lon="14.191997973248363">
        <ele>6.39</ele>
        <time>2024-09-16T11:40:30Z</time>
      </trkpt>
      <trkpt lat="53.933365009725094" lon="14.191451976075768">
        <ele>5.42</ele>
        <time>2024-09-16T11:40:38Z</time>
      </trkpt>
      <trkpt lat="53.933286974206567" lon="14.191352985799313">
        <ele>4.94</ele>
        <time>2024-09-16T11:40:40Z</time>
      </trkpt>
      <trkpt lat="53.933239029720426" lon="14.191295988857746">
        <ele>4.94</ele>
        <time>2024-09-16T11:40:41Z</time>
      </trkpt>
      <trkpt lat="53.93318697810173" lon="14.191244021058083">
        <ele>4.94</ele>
        <time>2024-09-16T11:40:42Z</time>
      </trkpt>
      <trkpt lat="53.93312101252377" lon="14.191191969439387">
        <ele>4.94</ele>
        <time>2024-09-16T11:40:43Z</time>
      </trkpt>
      <trkpt lat="53.933050017803907" lon="14.191134972497821">
        <ele>4.94</ele>
        <time>2024-09-16T11:40:44Z</time>
      </trkpt>
      <trkpt lat="53.932967036962509" lon="14.191071018576622">
        <ele>4.94</ele>
        <time>2024-09-16T11:40:45Z</time>
      </trkpt>
      <trkpt lat="53.932871986180544" lon="14.19100203551352">
        <ele>4.94</ele>
        <time>2024-09-16T11:40:46Z</time>
      </trkpt>
      <trkpt lat="53.932774001732469" lon="14.190931040793657">
        <ele>4.94</ele>
        <time>2024-09-16T11:40:47Z</time>
      </trkpt>
      <trkpt lat="53.932401007041335" lon="14.190634991973639">
        <ele>5.42</ele>
        <time>2024-09-16T11:40:51Z</time>
      </trkpt>
      <trkpt lat="53.932357002049685" lon="14.190581012517214">
        <ele>5.42</ele>
        <time>2024-09-16T11:40:52Z</time>
      </trkpt>
      <trkpt lat="53.932305034250021" lon="14.19042200781405">
        <ele>5.91</ele>
        <time>2024-09-16T11:40:53Z</time>
      </trkpt>
      <trkpt lat="53.932272009551525" lon="14.190324023365974">
        <ele>5.91</ele>
        <time>2024-09-16T11:40:54Z</time>
      </trkpt>
      <trkpt lat="53.93226102925837" lon="14.190162001177669">
        <ele>5.91</ele>
        <time>2024-09-16T11:40:55Z</time>
      </trkpt>
      <trkpt lat="53.932248037308455" lon="14.189975000917912">
        <ele>5.42</ele>
        <time>2024-09-16T11:40:56Z</time>
      </trkpt>
      <trkpt lat="53.932235967367887" lon="14.189782971516252">
        <ele>4.94</ele>
        <time>2024-09-16T11:40:57Z</time>
      </trkpt>
      <trkpt lat="53.932229010388255" lon="14.189381981268525">
        <ele>4.46</ele>
        <time>2024-09-16T11:40:59Z</time>
      </trkpt>
      <trkpt lat="53.932229010388255" lon="14.18917897157371">
        <ele>3.98</ele>
        <time>2024-09-16T11:41:00Z</time>
      </trkpt>
      <trkpt lat="53.932229010388255" lon="14.188843024894595">
        <ele>3.5</ele>
        <time>2024-09-16T11:41:01Z</time>
      </trkpt>
      <trkpt lat="53.932200009003282" lon="14.188703969120979">
        <ele>3.02</ele>
        <time>2024-09-16T11:41:02Z</time>
      </trkpt>
      <trkpt lat="53.932159021496773" lon="14.188500037416816">
        <ele>2.54</ele>
        <time>2024-09-16T11:41:03Z</time>
      </trkpt>
      <trkpt lat="53.932116022333503" lon="14.188289986923337">
        <ele>2.06</ele>
        <time>2024-09-16T11:41:04Z</time>
      </trkpt>
      <trkpt lat="53.9316810015589" lon="14.186610002070665">
        <ele>5.91</ele>
        <time>2024-09-16T11:41:12Z</time>
      </trkpt>
      <trkpt lat="53.931602966040373" lon="14.186400035396218">
        <ele>6.39</ele>
        <time>2024-09-16T11:41:13Z</time>
      </trkpt>
      <trkpt lat="53.931503975763917" lon="14.186245976015925">
        <ele>6.39</ele>
        <time>2024-09-16T11:41:14Z</time>
      </trkpt>
      <trkpt lat="53.931401968002319" lon="14.186085965484381">
        <ele>6.39</ele>
        <time>2024-09-16T11:41:15Z</time>
      </trkpt>
      <trkpt lat="53.931290991604328" lon="14.185912040993571">
        <ele>6.87</ele>
        <time>2024-09-16T11:41:16Z</time>
      </trkpt>
      <trkpt lat="53.931182026863098" lon="14.185741972178221">
        <ele>6.87</ele>
        <time>2024-09-16T11:41:17Z</time>
      </trkpt>
      <trkpt lat="53.930493034422398" lon="14.184845024719834">
        <ele>7.35</ele>
        <time>2024-09-16T11:41:23Z</time>
      </trkpt>
      <trkpt lat="53.930377028882504" lon="14.184752991423011">
        <ele>7.83</ele>
        <time>2024-09-16T11:41:24Z</time>
      </trkpt>
      <trkpt lat="53.930263034999371" lon="14.184660958126187">
        <ele>7.83</ele>
        <time>2024-09-16T11:41:25Z</time>
      </trkpt>
      <trkpt lat="53.929203981533647" lon="14.184261979535222">
        <ele>10.710000000000001</ele>
        <time>2024-09-16T11:41:32Z</time>
      </trkpt>
      <trkpt lat="53.928639963269234" lon="14.184005996212363">
        <ele>13.119999999999999</ele>
        <time>2024-09-16T11:41:36Z</time>
      </trkpt>
      <trkpt lat="53.928365958854556" lon="14.183693015947938">
        <ele>14.56</ele>
        <time>2024-09-16T11:41:38Z</time>
      </trkpt>
      <trkpt lat="53.927756007760763" lon="14.182686014100909">
        <ele>18.399999999999999</ele>
        <time>2024-09-16T11:41:44Z</time>
      </trkpt>
      <trkpt lat="53.927656011655927" lon="14.182519968599081">
        <ele>18.879999999999999</ele>
        <time>2024-09-16T11:41:45Z</time>
      </trkpt>
      <trkpt lat="53.927561966702342" lon="14.18236599303782">
        <ele>19.84</ele>
        <time>2024-09-16T11:41:46Z</time>
      </trkpt>
      <trkpt lat="53.927475968375802" lon="14.182187039405107">
        <ele>19.84</ele>
        <time>2024-09-16T11:41:47Z</time>
      </trkpt>
      <trkpt lat="53.927412014454603" lon="14.182009007781744">
        <ele>20.32</ele>
        <time>2024-09-16T11:41:48Z</time>
      </trkpt>
      <trkpt lat="53.927374966442585" lon="14.181756963953376">
        <ele>20.809999999999999</ele>
        <time>2024-09-16T11:41:49Z</time>
      </trkpt>
      <trkpt lat="53.927359040826559" lon="14.181508021429181">
        <ele>20.809999999999999</ele>
        <time>2024-09-16T11:41:50Z</time>
      </trkpt>
      <trkpt lat="53.92736298032105" lon="14.181258995085955">
        <ele>20.32</ele>
        <time>2024-09-16T11:41:51Z</time>
      </trkpt>
      <trkpt lat="53.927378989756107" lon="14.180280994623899">
        <ele>19.359999999999999</ele>
        <time>2024-09-16T11:41:55Z</time>
      </trkpt>
      <trkpt lat="53.927345965057611" lon="14.18006700463593">
        <ele>19.84</ele>
        <time>2024-09-16T11:41:56Z</time>
      </trkpt>
      <trkpt lat="53.927310006693006" lon="14.179841028526425">
        <ele>19.84</ele>
        <time>2024-09-16T11:41:57Z</time>
      </trkpt>
      <trkpt lat="53.927275976166129" lon="14.179618991911411">
        <ele>20.32</ele>
        <time>2024-09-16T11:41:58Z</time>
      </trkpt>
      <trkpt lat="53.927219985052943" lon="14.179445989429951">
        <ele>19.84</ele>
        <time>2024-09-16T11:41:59Z</time>
      </trkpt>
      <trkpt lat="53.927146978676319" lon="14.179236022755504">
        <ele>19.84</ele>
        <time>2024-09-16T11:42:00Z</time>
      </trkpt>
      <trkpt lat="53.927071038633585" lon="14.179020021110773">
        <ele>19.84</ele>
        <time>2024-09-16T11:42:01Z</time>
      </trkpt>
      <trkpt lat="53.926756968721747" lon="14.178122989833355">
        <ele>18.399999999999999</ele>
        <time>2024-09-16T11:42:05Z</time>
      </trkpt>
      <trkpt lat="53.926668036729097" lon="14.177868012338877">
        <ele>17.440000000000001</ele>
        <time>2024-09-16T11:42:06Z</time>
      </trkpt>
      <trkpt lat="53.926580026745796" lon="14.177616974338889">
        <ele>16.960000000000001</ele>
        <time>2024-09-16T11:42:07Z</time>
      </trkpt>
      <trkpt lat="53.926400989294052" lon="14.177173990756273">
        <ele>15.52</ele>
        <time>2024-09-16T11:42:09Z</time>
      </trkpt>
      <trkpt lat="53.926186999306083" lon="14.176774006336927">
        <ele>13.6</ele>
        <time>2024-09-16T11:42:11Z</time>
      </trkpt>
      <trkpt lat="53.926068982109427" lon="14.176592035219073">
        <ele>13.119999999999999</ele>
        <time>2024-09-16T11:42:12Z</time>
      </trkpt>
      <trkpt lat="53.925950964912772" lon="14.176411991938949">
        <ele>12.15</ele>
        <time>2024-09-16T11:42:13Z</time>
      </trkpt>
      <trkpt lat="53.924767021089792" lon="14.174626981839538">
        <ele>3.02</ele>
        <time>2024-09-16T11:42:22Z</time>
      </trkpt>
      <trkpt lat="53.923939978703856" lon="14.173531970009208">
        <ele>-2.27</ele>
        <time>2024-09-16T11:42:28Z</time>
      </trkpt>
      <trkpt lat="53.922699959948659" lon="14.172025993466377">
        <ele>-11.4</ele>
        <time>2024-09-16T11:42:37Z</time>
      </trkpt>
      <trkpt lat="53.922449005767703" lon="14.171720976009965">
        <ele>-13.32</ele>
        <time>2024-09-16T11:42:39Z</time>
      </trkpt>
      <trkpt lat="53.922328976914287" lon="14.171574041247368">
        <ele>-13.800000000000001</ele>
        <time>2024-09-16T11:42:40Z</time>
      </trkpt>
      <trkpt lat="53.921722965314984" lon="14.170811958611012">
        <ele>-18.129999999999999</ele>
        <time>2024-09-16T11:42:45Z</time>
      </trkpt>
      <trkpt lat="53.921605031937361" lon="14.170638034120202">
        <ele>-19.09</ele>
        <time>2024-09-16T11:42:46Z</time>
      </trkpt>
      <trkpt lat="53.921487014740705" lon="14.170464025810361">
        <ele>-20.050000000000001</ele>
        <time>2024-09-16T11:42:47Z</time>
      </trkpt>
      <trkpt lat="53.921392969787121" lon="14.170324970036745">
        <ele>-21.010000000000002</ele>
        <time>2024-09-16T11:42:48Z</time>
      </trkpt>
      <trkpt lat="53.921336978673935" lon="14.170125983655453">
        <ele>-21.969999999999999</ele>
        <time>2024-09-16T11:42:49Z</time>
      </trkpt>
      <trkpt lat="53.921270007267594" lon="14.169880980625749">
        <ele>-22.449999999999999</ele>
        <time>2024-09-16T11:42:50Z</time>
      </trkpt>
      <trkpt lat="53.921202030032873" lon="14.169636983424425">
        <ele>-23.41</ele>
        <time>2024-09-16T11:42:51Z</time>
      </trkpt>
      <trkpt lat="53.921136986464262" lon="14.169401032850146">
        <ele>-24.379999999999999</ele>
        <time>2024-09-16T11:42:52Z</time>
      </trkpt>
      <trkpt lat="53.921103039756417" lon="14.169172961264849">
        <ele>-24.859999999999999</ele>
        <time>2024-09-16T11:42:53Z</time>
      </trkpt>
      <trkpt lat="53.92104503698647" lon="14.168368969112635">
        <ele>-27.260000000000002</ele>
        <time>2024-09-16T11:42:56Z</time>
      </trkpt>
      <trkpt lat="53.921027015894651" lon="14.16812296025455">
        <ele>-28.219999999999999</ele>
        <time>2024-09-16T11:42:57Z</time>
      </trkpt>
      <trkpt lat="53.921010000631213" lon="14.167882986366749">
        <ele>-29.18</ele>
        <time>2024-09-16T11:42:58Z</time>
      </trkpt>
      <trkpt lat="53.920967001467943" lon="14.167432961985469">
        <ele>-31.109999999999999</ele>
        <time>2024-09-16T11:43:00Z</time>
      </trkpt>
      <trkpt lat="53.920942023396492" lon="14.167171027511358">
        <ele>-31.109999999999999</ele>
        <time>2024-09-16T11:43:01Z</time>
      </trkpt>
      <trkpt lat="53.920899024233222" lon="14.16698201559484">
        <ele>-32.07</ele>
        <time>2024-09-16T11:43:02Z</time>
      </trkpt>
      <trkpt lat="53.92085300758481" lon="14.166780011728406">
        <ele>-33.030000000000001</ele>
        <time>2024-09-16T11:43:03Z</time>
      </trkpt>
      <trkpt lat="53.920782012864947" lon="14.166607009246945">
        <ele>-33.509999999999998</ele>
        <time>2024-09-16T11:43:04Z</time>
      </trkpt>
      <trkpt lat="53.92070397734642" lon="14.166472982615232">
        <ele>-34.469999999999999</ele>
        <time>2024-09-16T11:43:05Z</time>
      </trkpt>
      <trkpt lat="53.920599035918713" lon="14.166291011497378">
        <ele>-34.950000000000003</ele>
        <time>2024-09-16T11:43:06Z</time>
      </trkpt>
      <trkpt lat="53.92050800845027" lon="14.166199984028935">
        <ele>-35.43</ele>
        <time>2024-09-16T11:43:07Z</time>
      </trkpt>
      <trkpt lat="53.920406000688672" lon="14.166097976267338">
        <ele>-35.43</ele>
        <time>2024-09-16T11:43:08Z</time>
      </trkpt>
      <trkpt lat="53.920324025675654" lon="14.166027987375855">
        <ele>-35.43</ele>
        <time>2024-09-16T11:43:09Z</time>
      </trkpt>
      <trkpt lat="53.920235009863973" lon="14.16595003567636">
        <ele>-35.43</ele>
        <time>2024-09-16T11:43:10Z</time>
      </trkpt>
      <trkpt lat="53.920149011537433" lon="14.165876023471355">
        <ele>-35.43</ele>
        <time>2024-09-16T11:43:11Z</time>
      </trkpt>
      <trkpt lat="53.919961005449295" lon="14.16571400128305">
        <ele>-35.43</ele>
        <time>2024-09-16T11:43:13Z</time>
      </trkpt>
      <trkpt lat="53.919770987704396" lon="14.165548961609602">
        <ele>-35.43</ele>
        <time>2024-09-16T11:43:15Z</time>
      </trkpt>
      <trkpt lat="53.919300008565187" lon="14.165128022432327">
        <ele>-35.909999999999997</ele>
        <time>2024-09-16T11:43:21Z</time>
      </trkpt>
      <trkpt lat="53.919219961389899" lon="14.165053004398942">
        <ele>-35.909999999999997</ele>
        <time>2024-09-16T11:43:22Z</time>
      </trkpt>
      <trkpt lat="53.918586038053036" lon="14.164349008351564">
        <ele>-26.300000000000001</ele>
        <time>2024-09-16T11:43:31Z</time>
      </trkpt>
      <trkpt lat="53.918111035600305" lon="14.163777027279139">
        <ele>-17.170000000000002</ele>
        <time>2024-09-16T11:43:40Z</time>
      </trkpt>
      <trkpt lat="53.918066024780273" lon="14.163665967062116">
        <ele>-16.210000000000001</ele>
        <time>2024-09-16T11:43:41Z</time>
      </trkpt>
      <trkpt lat="53.918011961504817" lon="14.163536969572306">
        <ele>-14.76</ele>
        <time>2024-09-16T11:43:42Z</time>
      </trkpt>
      <trkpt lat="53.917956976220012" lon="14.163405038416386">
        <ele>-13.800000000000001</ele>
        <time>2024-09-16T11:43:43Z</time>
      </trkpt>
      <trkpt lat="53.917901990935206" lon="14.163227006793022">
        <ele>-12.84</ele>
        <time>2024-09-16T11:43:44Z</time>
      </trkpt>
      <trkpt lat="53.917872989550233" lon="14.163057021796703">
        <ele>-11.880000000000001</ele>
        <time>2024-09-16T11:43:45Z</time>
      </trkpt>
      <trkpt lat="53.917843988165259" lon="14.162891982123256">
        <ele>-11.4</ele>
        <time>2024-09-16T11:43:46Z</time>
      </trkpt>
      <trkpt lat="53.917810041457415" lon="14.162743035703897">
        <ele>-10.44</ele>
        <time>2024-09-16T11:43:47Z</time>
      </trkpt>
      <trkpt lat="53.917766958475113" lon="14.162591993808746">
        <ele>-10.44</ele>
        <time>2024-09-16T11:43:48Z</time>
      </trkpt>
      <trkpt lat="53.917722031474113" lon="14.162436006590724">
        <ele>-9.48</ele>
        <time>2024-09-16T11:43:49Z</time>
      </trkpt>
      <trkpt lat="53.917182991281152" lon="14.160406999289989">
        <ele>-3.71</ele>
        <time>2024-09-16T11:44:01Z</time>
      </trkpt>
      <trkpt lat="53.916947040706873" lon="14.157983036711812">
        <ele>-1.3</ele>
        <time>2024-09-16T11:44:13Z</time>
      </trkpt>
      <trkpt lat="53.916697008535266" lon="14.155885968357325">
        <ele>0.14</ele>
        <time>2024-09-16T11:44:23Z</time>
      </trkpt>
      <trkpt lat="53.916271962225437" lon="14.154504965990782">
        <ele>2.06</ele>
        <time>2024-09-16T11:44:29Z</time>
      </trkpt>
      <trkpt lat="53.915476016700268" lon="14.152937969192863">
        <ele>2.54</ele>
        <time>2024-09-16T11:44:36Z</time>
      </trkpt>
      <trkpt lat="53.914383016526699" lon="14.151218002662063">
        <ele>2.06</ele>
        <time>2024-09-16T11:44:45Z</time>
      </trkpt>
      <trkpt lat="53.913863003253937" lon="14.150615008547902">
        <ele>1.58</ele>
        <time>2024-09-16T11:44:49Z</time>
      </trkpt>
      <trkpt lat="53.912815013900399" lon="14.149973960593343">
        <ele>1.58</ele>
        <time>2024-09-16T11:44:57Z</time>
      </trkpt>
      <trkpt lat="53.911509029567242" lon="14.149832976981997">
        <ele>7.35</ele>
        <time>2024-09-16T11:45:06Z</time>
      </trkpt>
      <trkpt lat="53.910309998318553" lon="14.149871030822396">
        <ele>8.789999999999999</ele>
        <time>2024-09-16T11:45:15Z</time>
      </trkpt>
      <trkpt lat="53.909045001491904" lon="14.14986097253859">
        <ele>9.75</ele>
        <time>2024-09-16T11:45:24Z</time>
      </trkpt>
      <trkpt lat="53.907239036634564" lon="14.149248003959656">
        <ele>8.310000000000001</ele>
        <time>2024-09-16T11:45:35Z</time>
      </trkpt>
      <trkpt lat="53.904824964702129" lon="14.148394977673888">
        <ele>8.789999999999999</ele>
        <time>2024-09-16T11:45:47Z</time>
      </trkpt>
      <trkpt lat="53.903097035363317" lon="14.147888962179422">
        <ele>9.27</ele>
        <time>2024-09-16T11:45:56Z</time>
      </trkpt>
      <trkpt lat="53.90117397531867" lon="14.147313041612506">
        <ele>11.19</ele>
        <time>2024-09-16T11:46:07Z</time>
      </trkpt>
      <trkpt lat="53.90031399205327" lon="14.146972987800837">
        <ele>10.710000000000001</ele>
        <time>2024-09-16T11:46:12Z</time>
      </trkpt>
      <trkpt lat="53.900148030370474" lon="14.146867040544748">
        <ele>10.710000000000001</ele>
        <time>2024-09-16T11:46:13Z</time>
      </trkpt>
      <trkpt lat="53.899987014010549" lon="14.146741982549429">
        <ele>11.19</ele>
        <time>2024-09-16T11:46:14Z</time>
      </trkpt>
      <trkpt lat="53.899842007085681" lon="14.146557999774814">
        <ele>11.19</ele>
        <time>2024-09-16T11:46:15Z</time>
      </trkpt>
      <trkpt lat="53.899697000160813" lon="14.146374017000198">
        <ele>11.19</ele>
        <time>2024-09-16T11:46:16Z</time>
      </trkpt>
      <trkpt lat="53.899552999064326" lon="14.146190034225583">
        <ele>11.19</ele>
        <time>2024-09-16T11:46:17Z</time>
      </trkpt>
      <trkpt lat="53.898524036630988" lon="14.145020004361868">
        <ele>10.710000000000001</ele>
        <time>2024-09-16T11:46:24Z</time>
      </trkpt>
      <trkpt lat="53.898368971422315" lon="14.144876003265381">
        <ele>10.710000000000001</ele>
        <time>2024-09-16T11:46:25Z</time>
      </trkpt>
      <trkpt lat="53.898216001689434" lon="14.14481196552515">
        <ele>11.19</ele>
        <time>2024-09-16T11:46:26Z</time>
      </trkpt>
      <trkpt lat="53.898050962015986" lon="14.144758991897106">
        <ele>11.19</ele>
        <time>2024-09-16T11:46:27Z</time>
      </trkpt>
      <trkpt lat="53.897882988676429" lon="14.144730996340513">
        <ele>11.19</ele>
        <time>2024-09-16T11:46:28Z</time>
      </trkpt>
      <trkpt lat="53.896275004372001" lon="14.144517006352544">
        <ele>13.6</ele>
        <time>2024-09-16T11:46:38Z</time>
      </trkpt>
      <trkpt lat="53.894985029473901" lon="14.144032029435039">
        <ele>16.48</ele>
        <time>2024-09-16T11:46:46Z</time>
      </trkpt>
      <trkpt lat="53.894244991242886" lon="14.14334898814559">
        <ele>17.440000000000001</ele>
        <time>2024-09-16T11:46:53Z</time>
      </trkpt>
      <trkpt lat="53.893662029877305" lon="14.142784969881177">
        <ele>18.399999999999999</ele>
        <time>2024-09-16T11:47:00Z</time>
      </trkpt>
      <trkpt lat="53.893572008237243" lon="14.142692014575005">
        <ele>18.399999999999999</ele>
        <time>2024-09-16T11:47:01Z</time>
      </trkpt>
      <trkpt lat="53.89268796890974" lon="14.14180101826787">
        <ele>18.399999999999999</ele>
        <time>2024-09-16T11:47:12Z</time>
      </trkpt>
      <trkpt lat="53.891853969544172" lon="14.141275975853205">
        <ele>16.960000000000001</ele>
        <time>2024-09-16T11:47:22Z</time>
      </trkpt>
      <trkpt lat="53.89115902595222" lon="14.140649009495974">
        <ele>13.6</ele>
        <time>2024-09-16T11:47:32Z</time>
      </trkpt>
      <trkpt lat="53.89103296212852" lon="14.14047097787261">
        <ele>13.119999999999999</ele>
        <time>2024-09-16T11:47:34Z</time>
      </trkpt>
      <trkpt lat="53.890971019864082" lon="14.140382967889309">
        <ele>13.119999999999999</ele>
        <time>2024-09-16T11:47:35Z</time>
      </trkpt>
      <trkpt lat="53.890846967697144" lon="14.140198985114694">
        <ele>12.630000000000001</ele>
        <time>2024-09-16T11:47:37Z</time>
      </trkpt>
      <trkpt lat="53.890787037089467" lon="14.14010401815176">
        <ele>12.630000000000001</ele>
        <time>2024-09-16T11:47:38Z</time>
      </trkpt>
      <trkpt lat="53.890604982152581" lon="14.139819033443928">
        <ele>11.67</ele>
        <time>2024-09-16T11:47:41Z</time>
      </trkpt>
      <trkpt lat="53.890346987172961" lon="14.139446038752794">
        <ele>10.710000000000001</ele>
        <time>2024-09-16T11:47:45Z</time>
      </trkpt>
      <trkpt lat="53.890281021595001" lon="14.139361968263984">
        <ele>10.710000000000001</ele>
        <time>2024-09-16T11:47:46Z</time>
      </trkpt>
      <trkpt lat="53.89021597802639" lon="14.139279993250966">
        <ele>10.710000000000001</ele>
        <time>2024-09-16T11:47:47Z</time>
      </trkpt>
      <trkpt lat="53.890151018276811" lon="14.139198018237948">
        <ele>10.710000000000001</ele>
        <time>2024-09-16T11:47:48Z</time>
      </trkpt>
      <trkpt lat="53.890083041042089" lon="14.139112019911408">
        <ele>10.710000000000001</ele>
        <time>2024-09-16T11:47:49Z</time>
      </trkpt>
      <trkpt lat="53.890013974159956" lon="14.139032978564501">
        <ele>10.710000000000001</ele>
        <time>2024-09-16T11:47:50Z</time>
      </trkpt>
      <trkpt lat="53.889940967783332" lon="14.138960978016257">
        <ele>10.710000000000001</ele>
        <time>2024-09-16T11:47:51Z</time>
      </trkpt>
      <trkpt lat="53.889175029471517" lon="14.138212976977229">
        <ele>11.19</ele>
        <time>2024-09-16T11:48:02Z</time>
      </trkpt>
      <trkpt lat="53.888542028144002" lon="14.137544017285109">
        <ele>10.710000000000001</ele>
        <time>2024-09-16T11:48:13Z</time>
      </trkpt>
      <trkpt lat="53.887835014611483" lon="14.136771960183978">
        <ele>12.15</ele>
        <time>2024-09-16T11:48:24Z</time>
      </trkpt>
      <trkpt lat="53.88778799213469" lon="14.136684034019709">
        <ele>12.15</ele>
        <time>2024-09-16T11:48:25Z</time>
      </trkpt>
      <trkpt lat="53.887713979929686" lon="14.136541960760951">
        <ele>12.15</ele>
        <time>2024-09-16T11:48:27Z</time>
      </trkpt>
      <trkpt lat="53.887641979381442" lon="14.136453028768301">
        <ele>12.630000000000001</ele>
        <time>2024-09-16T11:48:28Z</time>
      </trkpt>
      <trkpt lat="53.887532008811831" lon="14.136508014053106">
        <ele>12.630000000000001</ele>
        <time>2024-09-16T11:48:30Z</time>
      </trkpt>
      <trkpt lat="53.887447016313672" lon="14.136551013216376">
        <ele>12.630000000000001</ele>
        <time>2024-09-16T11:48:31Z</time>
      </trkpt>
      <trkpt lat="53.887392031028867" lon="14.136501979082823">
        <ele>12.630000000000001</ele>
        <time>2024-09-16T11:48:32Z</time>
      </trkpt>
      <trkpt lat="53.887318018823862" lon="14.136436013504863">
        <ele>12.630000000000001</ele>
        <time>2024-09-16T11:48:33Z</time>
      </trkpt>
      <trkpt lat="53.887237971648574" lon="14.136365018785">
        <ele>12.630000000000001</ele>
        <time>2024-09-16T11:48:34Z</time>
      </trkpt>
      <trkpt lat="53.887149039655924" lon="14.136285977438092">
        <ele>12.630000000000001</ele>
        <time>2024-09-16T11:48:35Z</time>
      </trkpt>
      <trkpt lat="53.88669197447598" lon="14.135880041867495">
        <ele>12.630000000000001</ele>
        <time>2024-09-16T11:48:40Z</time>
      </trkpt>
      <trkpt lat="53.886409001424909" lon="14.135627998039126">
        <ele>12.15</ele>
        <time>2024-09-16T11:48:43Z</time>
      </trkpt>
      <trkpt lat="53.886318979784846" lon="14.13554803468287">
        <ele>11.67</ele>
        <time>2024-09-16T11:48:44Z</time>
      </trkpt>
      <trkpt lat="53.886243039742112" lon="14.135446026921272">
        <ele>11.19</ele>
        <time>2024-09-16T11:48:45Z</time>
      </trkpt>
      <trkpt lat="53.885945985093713" lon="14.134950991719961">
        <ele>8.310000000000001</ele>
        <time>2024-09-16T11:48:49Z</time>
      </trkpt>
      <trkpt lat="53.885829979553819" lon="14.134662989526987">
        <ele>7.35</ele>
        <time>2024-09-16T11:48:51Z</time>
      </trkpt>
      <trkpt lat="53.885435024276376" lon="14.133237982168794">
        <ele>5.42</ele>
        <time>2024-09-16T11:49:00Z</time>
      </trkpt>
      <trkpt lat="53.885257998481393" lon="14.132366012781858">
        <ele>3.98</ele>
        <time>2024-09-16T11:49:05Z</time>
      </trkpt>
      <trkpt lat="53.885257998481393" lon="14.132313961163163">
        <ele>3.5</ele>
        <time>2024-09-16T11:49:06Z</time>
      </trkpt>
      <trkpt lat="53.885257998481393" lon="14.132031993940473">
        <ele>3.5</ele>
        <time>2024-09-16T11:49:08Z</time>
      </trkpt>
      <trkpt lat="53.885257998481393" lon="14.131933003664017">
        <ele>3.5</ele>
        <time>2024-09-16T11:49:09Z</time>
      </trkpt>
      <trkpt lat="53.885257998481393" lon="14.131863014772534">
        <ele>3.02</ele>
        <time>2024-09-16T11:49:10Z</time>
      </trkpt>
      <trkpt lat="53.885257998481393" lon="14.131760001182556">
        <ele>1.58</ele>
        <time>2024-09-16T11:49:19Z</time>
      </trkpt>
      <trkpt lat="53.885254980996251" lon="14.131679031997919">
        <ele>1.58</ele>
        <time>2024-09-16T11:49:23Z</time>
      </trkpt>
      <trkpt lat="53.885232014581561" lon="14.131667967885733">
        <ele>2.06</ele>
        <time>2024-09-16T11:49:24Z</time>
      </trkpt>
      <trkpt lat="53.885201001539826" lon="14.131652964279056">
        <ele>2.06</ele>
        <time>2024-09-16T11:49:25Z</time>
      </trkpt>
      <trkpt lat="53.885161019861698" lon="14.131634021177888">
        <ele>2.54</ele>
        <time>2024-09-16T11:49:26Z</time>
      </trkpt>
      <trkpt lat="53.885107040405273" lon="14.131608959287405">
        <ele>2.54</ele>
        <time>2024-09-16T11:49:27Z</time>
      </trkpt>
      <trkpt lat="53.885041996836662" lon="14.131578030064702">
        <ele>3.02</ele>
        <time>2024-09-16T11:49:28Z</time>
      </trkpt>
      <trkpt lat="53.88497200794518" lon="14.131545005366206">
        <ele>3.02</ele>
        <time>2024-09-16T11:49:29Z</time>
      </trkpt>
      <trkpt lat="53.884161980822682" lon="14.131215009838343">
        <ele>4.46</ele>
        <time>2024-09-16T11:49:37Z</time>
      </trkpt>
      <trkpt lat="53.883901974186301" lon="14.131121970713139">
        <ele>4.94</ele>
        <time>2024-09-16T11:49:39Z</time>
      </trkpt>
      <trkpt lat="53.883772976696491" lon="14.131014011800289">
        <ele>5.42</ele>
        <time>2024-09-16T11:49:40Z</time>
      </trkpt>
      <trkpt lat="53.883644985035062" lon="14.130893982946873">
        <ele>6.39</ele>
        <time>2024-09-16T11:49:41Z</time>
      </trkpt>
      <trkpt lat="53.883529985323548" lon="14.130735984072089">
        <ele>6.87</ele>
        <time>2024-09-16T11:49:42Z</time>
      </trkpt>
      <trkpt lat="53.883411968126893" lon="14.130572034046054">
        <ele>7.83</ele>
        <time>2024-09-16T11:49:43Z</time>
      </trkpt>
      <trkpt lat="53.882172033190727" lon="14.129011994227767">
        <ele>15.039999999999999</ele>
        <time>2024-09-16T11:49:54Z</time>
      </trkpt>
      <trkpt lat="53.881966006010771" lon="14.12888802587986">
        <ele>15.52</ele>
        <time>2024-09-16T11:49:57Z</time>
      </trkpt>
      <trkpt lat="53.881905991584063" lon="14.128793980926275">
        <ele>15.52</ele>
        <time>2024-09-16T11:49:58Z</time>
      </trkpt>
      <trkpt lat="53.88190096244216" lon="14.128707982599735">
        <ele>15.52</ele>
        <time>2024-09-16T11:49:59Z</time>
      </trkpt>
      <trkpt lat="53.881894005462527" lon="14.128600023686886">
        <ele>15.52</ele>
        <time>2024-09-16T11:50:00Z</time>
      </trkpt>
      <trkpt lat="53.881868021562696" lon="14.128461973741651">
        <ele>15.52</ele>
        <time>2024-09-16T11:50:01Z</time>
      </trkpt>
      <trkpt lat="53.881801972165704" lon="14.128346974030137">
        <ele>15.52</ele>
        <time>2024-09-16T11:50:02Z</time>
      </trkpt>
      <trkpt lat="53.881725026294589" lon="14.128257958218455">
        <ele>15.52</ele>
        <time>2024-09-16T11:50:03Z</time>
      </trkpt>
      <trkpt lat="53.88164003379643" lon="14.128161985427141">
        <ele>16</ele>
        <time>2024-09-16T11:50:04Z</time>
      </trkpt>
      <trkpt lat="53.881546994671226" lon="14.128055032342672">
        <ele>16</ele>
        <time>2024-09-16T11:50:05Z</time>
      </trkpt>
      <trkpt lat="53.880701009184122" lon="14.127091029658914">
        <ele>15.039999999999999</ele>
        <time>2024-09-16T11:50:12Z</time>
      </trkpt>
      <trkpt lat="53.879467025399208" lon="14.125683959573507">
        <ele>12.15</ele>
        <time>2024-09-16T11:50:20Z</time>
      </trkpt>
      <trkpt lat="53.878477960824966" lon="14.124555001035333">
        <ele>10.23</ele>
        <time>2024-09-16T11:50:27Z</time>
      </trkpt>
      <trkpt lat="53.876995034515858" lon="14.12270100787282">
        <ele>5.42</ele>
        <time>2024-09-16T11:50:38Z</time>
      </trkpt>
      <trkpt lat="53.875993983820081" lon="14.121052036061883">
        <ele>5.91</ele>
        <time>2024-09-16T11:50:46Z</time>
      </trkpt>
      <trkpt lat="53.875517975538969" lon="14.120266987010837">
        <ele>4.94</ele>
        <time>2024-09-16T11:50:51Z</time>
      </trkpt>
      <trkpt lat="53.875469025224447" lon="14.120086021721363">
        <ele>4.46</ele>
        <time>2024-09-16T11:50:52Z</time>
      </trkpt>
      <trkpt lat="53.875418985262513" lon="14.119892986491323">
        <ele>3.98</ele>
        <time>2024-09-16T11:50:53Z</time>
      </trkpt>
      <trkpt lat="53.875391995534301" lon="14.119669022038579">
        <ele>3.98</ele>
        <time>2024-09-16T11:50:54Z</time>
      </trkpt>
      <trkpt lat="53.875369029119611" lon="14.119422007352114">
        <ele>3.98</ele>
        <time>2024-09-16T11:50:55Z</time>
      </trkpt>
      <trkpt lat="53.875200971961021" lon="14.117435999214649">
        <ele>3.98</ele>
        <time>2024-09-16T11:51:03Z</time>
      </trkpt>
      <trkpt lat="53.875099970027804" lon="14.114785976707935">
        <ele>6.87</ele>
        <time>2024-09-16T11:51:13Z</time>
      </trkpt>
      <trkpt lat="53.875095024704933" lon="14.114319020882249">
        <ele>7.35</ele>
        <time>2024-09-16T11:51:15Z</time>
      </trkpt>
      <trkpt lat="53.875121008604765" lon="14.114097990095615">
        <ele>7.35</ele>
        <time>2024-09-16T11:51:16Z</time>
      </trkpt>
      <trkpt lat="53.875168031081557" lon="14.113816022872925">
        <ele>7.83</ele>
        <time>2024-09-16T11:51:17Z</time>
      </trkpt>
      <trkpt lat="53.875269033014774" lon="14.113620975986123">
        <ele>8.310000000000001</ele>
        <time>2024-09-16T11:51:18Z</time>
      </trkpt>
      <trkpt lat="53.875376991927624" lon="14.113411009311676">
        <ele>8.789999999999999</ele>
        <time>2024-09-16T11:51:19Z</time>
      </trkpt>
      <trkpt lat="53.875488974153996" lon="14.113194001838565">
        <ele>9.27</ele>
        <time>2024-09-16T11:51:20Z</time>
      </trkpt>
      <trkpt lat="53.875757027417421" lon="14.112433008849621">
        <ele>10.710000000000001</ele>
        <time>2024-09-16T11:51:23Z</time>
      </trkpt>
      <trkpt lat="53.876168997958302" lon="14.110291013494134">
        <ele>11.19</ele>
        <time>2024-09-16T11:51:31Z</time>
      </trkpt>
      <trkpt lat="53.876741984859109" lon="14.107129024341702">
        <ele>11.67</ele>
        <time>2024-09-16T11:51:43Z</time>
      </trkpt>
      <trkpt lat="53.877191003412008" lon="14.103864021599293">
        <ele>15.039999999999999</ele>
        <time>2024-09-16T11:51:55Z</time>
      </trkpt>
      <trkpt lat="53.877448998391628" lon="14.101853035390377">
        <ele>12.630000000000001</ele>
        <time>2024-09-16T11:52:03Z</time>
      </trkpt>
      <trkpt lat="53.877926012501121" lon="14.100070958957076">
        <ele>7.35</ele>
        <time>2024-09-16T11:52:11Z</time>
      </trkpt>
      <trkpt lat="53.878305964171886" lon="14.098634971305728">
        <ele>5.91</ele>
        <time>2024-09-16T11:52:20Z</time>
      </trkpt>
      <trkpt lat="53.878333037719131" lon="14.098545033484697">
        <ele>5.91</ele>
        <time>2024-09-16T11:52:21Z</time>
      </trkpt>
      <trkpt lat="53.878401014953852" lon="14.098397009074688">
        <ele>5.91</ele>
        <time>2024-09-16T11:52:22Z</time>
      </trkpt>
      <trkpt lat="53.878475027158856" lon="14.098343029618263">
        <ele>6.39</ele>
        <time>2024-09-16T11:52:23Z</time>
      </trkpt>
      <trkpt lat="53.878553984686732" lon="14.098284021019936">
        <ele>6.39</ele>
        <time>2024-09-16T11:52:24Z</time>
      </trkpt>
      <trkpt lat="53.879655031487346" lon="14.09752001054585">
        <ele>7.35</ele>
        <time>2024-09-16T11:52:36Z</time>
      </trkpt>
      <trkpt lat="53.879858963191509" lon="14.097418002784252">
        <ele>7.35</ele>
        <time>2024-09-16T11:52:38Z</time>
      </trkpt>
      <trkpt lat="53.881250023841858" lon="14.096883991733193">
        <ele>13.119999999999999</ele>
        <time>2024-09-16T11:52:50Z</time>
      </trkpt>
      <trkpt lat="53.882665978744626" lon="14.096186030656099">
        <ele>12.630000000000001</ele>
        <time>2024-09-16T11:53:02Z</time>
      </trkpt>
      <trkpt lat="53.88368496671319" lon="14.095783028751612">
        <ele>10.710000000000001</ele>
        <time>2024-09-16T11:53:12Z</time>
      </trkpt>
      <trkpt lat="53.884446965530515" lon="14.095483040437102">
        <ele>10.710000000000001</ele>
        <time>2024-09-16T11:53:22Z</time>
      </trkpt>
      <trkpt lat="53.884766986593604" lon="14.095357982441783">
        <ele>10.710000000000001</ele>
        <time>2024-09-16T11:53:28Z</time>
      </trkpt>
      <trkpt lat="53.884804034605622" lon="14.095342978835106">
        <ele>10.710000000000001</ele>
        <time>2024-09-16T11:53:29Z</time>
      </trkpt>
      <trkpt lat="53.885005032643676" lon="14.095265027135611">
        <ele>10.710000000000001</ele>
        <time>2024-09-16T11:53:33Z</time>
      </trkpt>
      <trkpt lat="53.885825034230947" lon="14.09494299441576">
        <ele>10.23</ele>
        <time>2024-09-16T11:53:44Z</time>
      </trkpt>
      <trkpt lat="53.886082023382187" lon="14.094841992482543">
        <ele>10.710000000000001</ele>
        <time>2024-09-16T11:53:47Z</time>
      </trkpt>
      <trkpt lat="53.886165004223585" lon="14.094840986654162">
        <ele>10.710000000000001</ele>
        <time>2024-09-16T11:53:48Z</time>
      </trkpt>
      <trkpt lat="53.886255025863647" lon="14.094847021624446">
        <ele>10.710000000000001</ele>
        <time>2024-09-16T11:53:49Z</time>
      </trkpt>
      <trkpt lat="53.886339012533426" lon="14.094851966947317">
        <ele>11.19</ele>
        <time>2024-09-16T11:53:50Z</time>
      </trkpt>
      <trkpt lat="53.886409001424909" lon="14.09485699608922">
        <ele>11.19</ele>
        <time>2024-09-16T11:53:51Z</time>
      </trkpt>
      <trkpt lat="53.886730028316379" lon="14.094878034666181">
        <ele>12.630000000000001</ele>
        <time>2024-09-16T11:54:00Z</time>
      </trkpt>
      <trkpt lat="53.886763975024223" lon="14.094816008582711">
        <ele>13.119999999999999</ele>
        <time>2024-09-16T11:54:02Z</time>
      </trkpt>
      <trkpt lat="53.886771015822887" lon="14.094716012477875">
        <ele>13.119999999999999</ele>
        <time>2024-09-16T11:54:03Z</time>
      </trkpt>
      <trkpt lat="53.886847961694002" lon="14.093580013141036">
        <ele>12.630000000000001</ele>
        <time>2024-09-16T11:54:09Z</time>
      </trkpt>
      <trkpt lat="53.886996991932392" lon="14.09161202609539">
        <ele>10.23</ele>
        <time>2024-09-16T11:54:17Z</time>
      </trkpt>
      <trkpt lat="53.88724802993238" lon="14.088276028633118">
        <ele>7.35</ele>
        <time>2024-09-16T11:54:29Z</time>
      </trkpt>
      <trkpt lat="53.887266973033547" lon="14.087987020611763">
        <ele>6.87</ele>
        <time>2024-09-16T11:54:30Z</time>
      </trkpt>
      <trkpt lat="53.88755296356976" lon="14.08501697704196">
        <ele>5.91</ele>
        <time>2024-09-16T11:54:39Z</time>
      </trkpt>
      <trkpt lat="53.887613983824849" lon="14.084676001220942">
        <ele>5.91</ele>
        <time>2024-09-16T11:54:40Z</time>
      </trkpt>
      <trkpt lat="53.887712974101305" lon="14.084351034834981">
        <ele>6.39</ele>
        <time>2024-09-16T11:54:41Z</time>
      </trkpt>
      <trkpt lat="53.887813976034522" lon="14.084024978801608">
        <ele>6.39</ele>
        <time>2024-09-16T11:54:42Z</time>
      </trkpt>
      <trkpt lat="53.887929981574416" lon="14.083721973001957">
        <ele>6.87</ele>
        <time>2024-09-16T11:54:43Z</time>
      </trkpt>
      <trkpt lat="53.888061996549368" lon="14.083422990515828">
        <ele>7.35</ele>
        <time>2024-09-16T11:54:44Z</time>
      </trkpt>
      <trkpt lat="53.889589011669159" lon="14.080027984455228">
        <ele>12.15</ele>
        <time>2024-09-16T11:54:56Z</time>
      </trkpt>
      <trkpt lat="53.891057018190622" lon="14.076816039159894">
        <ele>13.119999999999999</ele>
        <time>2024-09-16T11:55:08Z</time>
      </trkpt>
      <trkpt lat="53.892169967293739" lon="14.07436097972095">
        <ele>11.19</ele>
        <time>2024-09-16T11:55:16Z</time>
      </trkpt>
      <trkpt lat="53.893655994907022" lon="14.07109203748405">
        <ele>12.15</ele>
        <time>2024-09-16T11:55:28Z</time>
      </trkpt>
      <trkpt lat="53.894330989569426" lon="14.069764008745551">
        <ele>13.6</ele>
        <time>2024-09-16T11:55:35Z</time>
      </trkpt>
      <trkpt lat="53.894686968997121" lon="14.069081973284483">
        <ele>14.08</ele>
        <time>2024-09-16T11:55:41Z</time>
      </trkpt>
      <trkpt lat="53.8947260286659" lon="14.069007961079478">
        <ele>14.08</ele>
        <time>2024-09-16T11:55:42Z</time>
      </trkpt>
      <trkpt lat="53.89472502283752" lon="14.068840993568301">
        <ele>14.56</ele>
        <time>2024-09-16T11:55:43Z</time>
      </trkpt>
      <trkpt lat="53.894664002582431" lon="14.068787014111876">
        <ele>14.56</ele>
        <time>2024-09-16T11:55:44Z</time>
      </trkpt>
      <trkpt lat="53.894573980942369" lon="14.068706966936588">
        <ele>14.08</ele>
        <time>2024-09-16T11:55:45Z</time>
      </trkpt>
      <trkpt lat="53.894457975402474" lon="14.068604037165642">
        <ele>14.08</ele>
        <time>2024-09-16T11:55:46Z</time>
      </trkpt>
      <trkpt lat="53.894320009276271" lon="14.068480990827084">
        <ele>14.08</ele>
        <time>2024-09-16T11:55:47Z</time>
      </trkpt>
      <trkpt lat="53.893010001629591" lon="14.067473988980055">
        <ele>16</ele>
        <time>2024-09-16T11:55:55Z</time>
      </trkpt>
      <trkpt lat="53.891529003158212" lon="14.067023964598775">
        <ele>16.48</ele>
        <time>2024-09-16T11:56:03Z</time>
      </trkpt>
      <trkpt lat="53.890056973323226" lon="14.06651602126658">
        <ele>16.48</ele>
        <time>2024-09-16T11:56:11Z</time>
      </trkpt>
      <trkpt lat="53.888955004513264" lon="14.065950997173786">
        <ele>14.08</ele>
        <time>2024-09-16T11:56:19Z</time>
      </trkpt>
      <trkpt lat="53.888395009562373" lon="14.065719991922379">
        <ele>11.67</ele>
        <time>2024-09-16T11:56:24Z</time>
      </trkpt>
      <trkpt lat="53.888261988759041" lon="14.065675986930728">
        <ele>11.67</ele>
        <time>2024-09-16T11:56:25Z</time>
      </trkpt>
      <trkpt lat="53.888189988210797" lon="14.065696019679308">
        <ele>11.19</ele>
        <time>2024-09-16T11:56:26Z</time>
      </trkpt>
      <trkpt lat="53.887886982411146" lon="14.06574597582221">
        <ele>9.75</ele>
        <time>2024-09-16T11:56:29Z</time>
      </trkpt>
      <trkpt lat="53.887791009619832" lon="14.065725021064281">
        <ele>8.789999999999999</ele>
        <time>2024-09-16T11:56:30Z</time>
      </trkpt>
      <trkpt lat="53.887661006301641" lon="14.065697025507689">
        <ele>8.310000000000001</ele>
        <time>2024-09-16T11:56:31Z</time>
      </trkpt>
      <trkpt lat="53.887497978284955" lon="14.065574984997511">
        <ele>7.83</ele>
        <time>2024-09-16T11:56:33Z</time>
      </trkpt>
      <trkpt lat="53.887404017150402" lon="14.065503990277648">
        <ele>7.35</ele>
        <time>2024-09-16T11:56:34Z</time>
      </trkpt>
      <trkpt lat="53.887310978025198" lon="14.065495021641254">
        <ele>6.87</ele>
        <time>2024-09-16T11:56:35Z</time>
      </trkpt>
      <trkpt lat="53.887217016890645" lon="14.065485969185829">
        <ele>6.39</ele>
        <time>2024-09-16T11:56:36Z</time>
      </trkpt>
      <trkpt lat="53.887132024392486" lon="14.065503990277648">
        <ele>5.91</ele>
        <time>2024-09-16T11:56:37Z</time>
      </trkpt>
      <trkpt lat="53.887048959732056" lon="14.065533997491002">
        <ele>5.91</ele>
        <time>2024-09-16T11:56:38Z</time>
      </trkpt>
      <trkpt lat="53.886850979179144" lon="14.065607003867626">
        <ele>4.94</ele>
        <time>2024-09-16T11:56:41Z</time>
      </trkpt>
      <trkpt lat="53.886808985844254" lon="14.065623013302684">
        <ele>4.94</ele>
        <time>2024-09-16T11:56:42Z</time>
      </trkpt>
      <trkpt lat="53.886762969195843" lon="14.065506001934409">
        <ele>4.94</ele>
        <time>2024-09-16T11:56:43Z</time>
      </trkpt>
      <trkpt lat="53.886748971417546" lon="14.065402988344431">
        <ele>4.46</ele>
        <time>2024-09-16T11:56:44Z</time>
      </trkpt>
      <trkpt lat="53.886730028316379" lon="14.065269967541099">
        <ele>4.46</ele>
        <time>2024-09-16T11:56:45Z</time>
      </trkpt>
      <trkpt lat="53.886705972254276" lon="14.065108029171824">
        <ele>4.46</ele>
        <time>2024-09-16T11:56:46Z</time>
      </trkpt>
      <trkpt lat="53.886452000588179" lon="14.063645973801613">
        <ele>6.39</ele>
        <time>2024-09-16T11:56:53Z</time>
      </trkpt>
      <trkpt lat="53.885947996750474" lon="14.061175994575024">
        <ele>8.789999999999999</ele>
        <time>2024-09-16T11:57:02Z</time>
      </trkpt>
      <trkpt lat="53.885361012071371" lon="14.058211985975504">
        <ele>9.75</ele>
        <time>2024-09-16T11:57:11Z</time>
      </trkpt>
      <trkpt lat="53.884292989969254" lon="14.054001001641154">
        <ele>13.6</ele>
        <time>2024-09-16T11:57:24Z</time>
      </trkpt>
      <trkpt lat="53.883975986391306" lon="14.051203960552812">
        <ele>12.15</ele>
        <time>2024-09-16T11:57:32Z</time>
      </trkpt>
      <trkpt lat="53.883958971127868" lon="14.048724006861448">
        <ele>11.67</ele>
        <time>2024-09-16T11:57:40Z</time>
      </trkpt>
      <trkpt lat="53.884044969454408" lon="14.047231022268534">
        <ele>14.08</ele>
        <time>2024-09-16T11:57:47Z</time>
      </trkpt>
      <trkpt lat="53.884055027738214" lon="14.04705299064517">
        <ele>14.08</ele>
        <time>2024-09-16T11:57:48Z</time>
      </trkpt>
      <trkpt lat="53.884099032729864" lon="14.046272970736027">
        <ele>11.19</ele>
        <time>2024-09-16T11:57:54Z</time>
      </trkpt>
      <trkpt lat="53.884095009416342" lon="14.04621496796608">
        <ele>10.710000000000001</ele>
        <time>2024-09-16T11:57:55Z</time>
      </trkpt>
      <trkpt lat="53.884085034951568" lon="14.046080019325018">
        <ele>7.35</ele>
        <time>2024-09-16T11:58:00Z</time>
      </trkpt>
      <trkpt lat="53.884082017466426" lon="14.04604003764689">
        <ele>5.91</ele>
        <time>2024-09-16T11:58:12Z</time>
      </trkpt>
      <trkpt lat="53.884076988324523" lon="14.045979017391801">
        <ele>4.94</ele>
        <time>2024-09-16T11:58:13Z</time>
      </trkpt>
      <trkpt lat="53.884013034403324" lon="14.045089026913047">
        <ele>2.06</ele>
        <time>2024-09-16T11:58:19Z</time>
      </trkpt>
      <trkpt lat="53.883909014984965" lon="14.04312196187675">
        <ele>-5.15</ele>
        <time>2024-09-16T11:58:27Z</time>
      </trkpt>
      <trkpt lat="53.88391999527812" lon="14.042367003858089">
        <ele>-5.63</ele>
        <time>2024-09-16T11:58:30Z</time>
      </trkpt>
      <trkpt lat="53.883924018591642" lon="14.042133986949921">
        <ele>-5.15</ele>
        <time>2024-09-16T11:58:31Z</time>
      </trkpt>
      <trkpt lat="53.883927036076784" lon="14.041885966435075">
        <ele>-5.15</ele>
        <time>2024-09-16T11:58:32Z</time>
      </trkpt>
      <trkpt lat="53.883927036076784" lon="14.040591968223453">
        <ele>-7.07</ele>
        <time>2024-09-16T11:58:37Z</time>
      </trkpt>
      <trkpt lat="53.883638028055429" lon="14.038035990670323">
        <ele>-9</ele>
        <time>2024-09-16T11:58:47Z</time>
      </trkpt>
      <trkpt lat="53.88312597759068" lon="14.035930037498474">
        <ele>-7.55</ele>
        <time>2024-09-16T11:58:55Z</time>
      </trkpt>
      <trkpt lat="53.882461963221431" lon="14.032692024484277">
        <ele>-4.67</ele>
        <time>2024-09-16T11:59:07Z</time>
      </trkpt>
      <trkpt lat="53.882040018215775" lon="14.029668001458049">
        <ele>2.06</ele>
        <time>2024-09-16T11:59:18Z</time>
      </trkpt>
      <trkpt lat="53.881709016859531" lon="14.027516031637788">
        <ele>9.27</ele>
        <time>2024-09-16T11:59:26Z</time>
      </trkpt>
      <trkpt lat="53.881184980273247" lon="14.02494303882122">
        <ele>13.119999999999999</ele>
        <time>2024-09-16T11:59:36Z</time>
      </trkpt>
      <trkpt lat="53.8809559866786" lon="14.023744007572532">
        <ele>12.630000000000001</ele>
        <time>2024-09-16T11:59:42Z</time>
      </trkpt>
      <trkpt lat="53.880922039970756" lon="14.023581985384226">
        <ele>12.630000000000001</ele>
        <time>2024-09-16T11:59:43Z</time>
      </trkpt>
      <trkpt lat="53.880877029150724" lon="14.023445025086403">
        <ele>12.630000000000001</ele>
        <time>2024-09-16T11:59:44Z</time>
      </trkpt>
      <trkpt lat="53.880813997238874" lon="14.023329019546509">
        <ele>12.15</ele>
        <time>2024-09-16T11:59:45Z</time>
      </trkpt>
      <trkpt lat="53.880737973377109" lon="14.023212008178234">
        <ele>11.67</ele>
        <time>2024-09-16T11:59:46Z</time>
      </trkpt>
      <trkpt lat="53.880640994757414" lon="14.02309600263834">
        <ele>11.19</ele>
        <time>2024-09-16T11:59:47Z</time>
      </trkpt>
      <trkpt lat="53.879772964864969" lon="14.021961009129882">
        <ele>12.15</ele>
        <time>2024-09-16T11:59:54Z</time>
      </trkpt>
      <trkpt lat="53.878771997988224" lon="14.02028102427721">
        <ele>14.56</ele>
        <time>2024-09-16T12:00:02Z</time>
      </trkpt>
      <trkpt lat="53.878424987196922" lon="14.019587002694607">
        <ele>16.960000000000001</ele>
        <time>2024-09-16T12:00:06Z</time>
      </trkpt>
      <trkpt lat="53.87833203189075" lon="14.019389022141695">
        <ele>16.960000000000001</ele>
        <time>2024-09-16T12:00:07Z</time>
      </trkpt>
      <trkpt lat="53.877519993111491" lon="14.017177037894726">
        <ele>16</ele>
        <time>2024-09-16T12:00:16Z</time>
      </trkpt>
      <trkpt lat="53.876439984887838" lon="14.014009013772011">
        <ele>17.920000000000002</ele>
        <time>2024-09-16T12:00:28Z</time>
      </trkpt>
      <trkpt lat="53.875515963882208" lon="14.011254971846938">
        <ele>16.960000000000001</ele>
        <time>2024-09-16T12:00:39Z</time>
      </trkpt>
      <trkpt lat="53.874900983646512" lon="14.00986198335886">
        <ele>14.56</ele>
        <time>2024-09-16T12:00:47Z</time>
      </trkpt>
      <trkpt lat="53.874305030331016" lon="14.008573014289141">
        <ele>13.6</ele>
        <time>2024-09-16T12:00:54Z</time>
      </trkpt>
      <trkpt lat="53.874262031167746" lon="14.008351983502507">
        <ele>13.6</ele>
        <time>2024-09-16T12:00:55Z</time>
      </trkpt>
      <trkpt lat="53.874217020347714" lon="14.008123995736241">
        <ele>13.119999999999999</ele>
        <time>2024-09-16T12:00:56Z</time>
      </trkpt>
      <trkpt lat="53.873892975971103" lon="14.006021982058883">
        <ele>12.630000000000001</ele>
        <time>2024-09-16T12:01:04Z</time>
      </trkpt>
      <trkpt lat="53.873605979606509" lon="14.003856014460325">
        <ele>12.630000000000001</ele>
        <time>2024-09-16T12:01:13Z</time>
      </trkpt>
      <trkpt lat="53.87332602404058" lon="14.002784974873066">
        <ele>12.15</ele>
        <time>2024-09-16T12:01:19Z</time>
      </trkpt>
      <trkpt lat="53.873204989358783" lon="14.002407034859061">
        <ele>11.19</ele>
        <time>2024-09-16T12:01:22Z</time>
      </trkpt>
      <trkpt lat="53.873140029609203" lon="14.002308966591954">
        <ele>11.19</ele>
        <time>2024-09-16T12:01:23Z</time>
      </trkpt>
      <trkpt lat="53.873065011575818" lon="14.002200001850724">
        <ele>10.710000000000001</ele>
        <time>2024-09-16T12:01:24Z</time>
      </trkpt>
      <trkpt lat="53.872970966622233" lon="14.002116015180945">
        <ele>10.23</ele>
        <time>2024-09-16T12:01:25Z</time>
      </trkpt>
      <trkpt lat="53.872864013537765" lon="14.0020199585706">
        <ele>9.27</ele>
        <time>2024-09-16T12:01:26Z</time>
      </trkpt>
      <trkpt lat="53.872628984972835" lon="14.001777973026037">
        <ele>8.310000000000001</ele>
        <time>2024-09-16T12:01:28Z</time>
      </trkpt>
      <trkpt lat="53.87253301218152" lon="14.001597007736564">
        <ele>7.83</ele>
        <time>2024-09-16T12:01:29Z</time>
      </trkpt>
      <trkpt lat="53.872460005804896" lon="14.001384023576975">
        <ele>7.83</ele>
        <time>2024-09-16T12:01:30Z</time>
      </trkpt>
      <trkpt lat="53.87240300886333" lon="14.001140026375651">
        <ele>7.35</ele>
        <time>2024-09-16T12:01:31Z</time>
      </trkpt>
      <trkpt lat="53.872344000265002" lon="14.000887982547283">
        <ele>7.35</ele>
        <time>2024-09-16T12:01:32Z</time>
      </trkpt>
      <trkpt lat="53.872285997495055" lon="14.000638034194708">
        <ele>7.35</ele>
        <time>2024-09-16T12:01:33Z</time>
      </trkpt>
      <trkpt lat="53.87199598364532" lon="13.999315034598112">
        <ele>8.789999999999999</ele>
        <time>2024-09-16T12:01:40Z</time>
      </trkpt>
      <trkpt lat="53.871627012267709" lon="13.997419970110059">
        <ele>12.630000000000001</ele>
        <time>2024-09-16T12:01:51Z</time>
      </trkpt>
      <trkpt lat="53.871498014777899" lon="13.996620001271367">
        <ele>13.119999999999999</ele>
        <time>2024-09-16T12:01:56Z</time>
      </trkpt>
      <trkpt lat="53.871475970372558" lon="13.996471976861358">
        <ele>13.119999999999999</ele>
        <time>2024-09-16T12:01:57Z</time>
      </trkpt>
      <trkpt lat="53.871415033936501" lon="13.996210964396596">
        <ele>13.119999999999999</ele>
        <time>2024-09-16T12:01:59Z</time>
      </trkpt>
      <trkpt lat="53.871026029810309" lon="13.995303958654404">
        <ele>11.67</ele>
        <time>2024-09-16T12:02:08Z</time>
      </trkpt>
      <trkpt lat="53.870816985145211" lon="13.994964994490147">
        <ele>10.23</ele>
        <time>2024-09-16T12:02:12Z</time>
      </trkpt>
      <trkpt lat="53.870760994032025" lon="13.994874972850084">
        <ele>9.75</ele>
        <time>2024-09-16T12:02:13Z</time>
      </trkpt>
      <trkpt lat="53.870044006034732" lon="13.993753977119923">
        <ele>12.15</ele>
        <time>2024-09-16T12:02:24Z</time>
      </trkpt>
      <trkpt lat="53.869646033272147" lon="13.993083005771041">
        <ele>13.119999999999999</ele>
        <time>2024-09-16T12:02:31Z</time>
      </trkpt>
      <trkpt lat="53.869592975825071" lon="13.992987032979727">
        <ele>13.119999999999999</ele>
        <time>2024-09-16T12:02:32Z</time>
      </trkpt>
      <trkpt lat="53.869540002197027" lon="13.992890976369381">
        <ele>13.119999999999999</ele>
        <time>2024-09-16T12:02:33Z</time>
      </trkpt>
      <trkpt lat="53.869486022740602" lon="13.992795003578067">
        <ele>13.119999999999999</ele>
        <time>2024-09-16T12:02:34Z</time>
      </trkpt>
      <trkpt lat="53.869430031627417" lon="13.992691989988089">
        <ele>13.119999999999999</ele>
        <time>2024-09-16T12:02:35Z</time>
      </trkpt>
      <trkpt lat="53.86937496252358" lon="13.992592999711633">
        <ele>13.119999999999999</ele>
        <time>2024-09-16T12:02:36Z</time>
      </trkpt>
      <trkpt lat="53.869207995012403" lon="13.992290999740362">
        <ele>14.08</ele>
        <time>2024-09-16T12:02:39Z</time>
      </trkpt>
      <trkpt lat="53.869173964485526" lon="13.992212964221835">
        <ele>14.08</ele>
        <time>2024-09-16T12:02:40Z</time>
      </trkpt>
      <trkpt lat="53.869132976979017" lon="13.99211497977376">
        <ele>14.08</ele>
        <time>2024-09-16T12:02:41Z</time>
      </trkpt>
      <trkpt lat="53.869089977815747" lon="13.992013977840543">
        <ele>14.08</ele>
        <time>2024-09-16T12:02:42Z</time>
      </trkpt>
      <trkpt lat="53.869044966995716" lon="13.991909036412835">
        <ele>14.56</ele>
        <time>2024-09-16T12:02:43Z</time>
      </trkpt>
      <trkpt lat="53.868998028337955" lon="13.991799987852573">
        <ele>14.56</ele>
        <time>2024-09-16T12:02:44Z</time>
      </trkpt>
      <trkpt lat="53.868434010073543" lon="13.990486040711403">
        <ele>16</ele>
        <time>2024-09-16T12:02:56Z</time>
      </trkpt>
      <trkpt lat="53.868394028395414" lon="13.990391995757818">
        <ele>16</ele>
        <time>2024-09-16T12:02:57Z</time>
      </trkpt>
      <trkpt lat="53.868249021470547" lon="13.9900510199368">
        <ele>15.52</ele>
        <time>2024-09-16T12:03:00Z</time>
      </trkpt>
      <trkpt lat="53.868055986240506" lon="13.989595966413617">
        <ele>16</ele>
        <time>2024-09-16T12:03:04Z</time>
      </trkpt>
      <trkpt lat="53.868006030097604" lon="13.989478033035994">
        <ele>16</ele>
        <time>2024-09-16T12:03:05Z</time>
      </trkpt>
      <trkpt lat="53.867597999051213" lon="13.988363994285464">
        <ele>16.48</ele>
        <time>2024-09-16T12:03:13Z</time>
      </trkpt>
      <trkpt lat="53.867580983787775" lon="13.988123014569283">
        <ele>16.48</ele>
        <time>2024-09-16T12:03:14Z</time>
      </trkpt>
      <trkpt lat="53.867565980181098" lon="13.987911036238074">
        <ele>16.48</ele>
        <time>2024-09-16T12:03:15Z</time>
      </trkpt>
      <trkpt lat="53.867412004619837" lon="13.986048996448517">
        <ele>16.48</ele>
        <time>2024-09-16T12:03:24Z</time>
      </trkpt>
      <trkpt lat="53.867199020460248" lon="13.984148986637592">
        <ele>18.399999999999999</ele>
        <time>2024-09-16T12:03:32Z</time>
      </trkpt>
      <trkpt lat="53.866938007995486" lon="13.981670960783958">
        <ele>16</ele>
        <time>2024-09-16T12:03:41Z</time>
      </trkpt>
      <trkpt lat="53.86666702106595" lon="13.979173991829157">
        <ele>8.310000000000001</ele>
        <time>2024-09-16T12:03:49Z</time>
      </trkpt>
      <trkpt lat="53.866417994722724" lon="13.976793028414249">
        <ele>2.54</ele>
        <time>2024-09-16T12:03:56Z</time>
      </trkpt>
      <trkpt lat="53.866224959492683" lon="13.974509965628386">
        <ele>-2.75</ele>
        <time>2024-09-16T12:04:04Z</time>
      </trkpt>
      <trkpt lat="53.86623602360487" lon="13.974240990355611">
        <ele>-3.23</ele>
        <time>2024-09-16T12:04:05Z</time>
      </trkpt>
      <trkpt lat="53.86627902276814" lon="13.973976960405707">
        <ele>-3.23</ele>
        <time>2024-09-16T12:04:06Z</time>
      </trkpt>
      <trkpt lat="53.866743966937065" lon="13.971161982044578">
        <ele>-7.55</ele>
        <time>2024-09-16T12:04:16Z</time>
      </trkpt>
      <trkpt lat="53.867145963013172" lon="13.968620002269745">
        <ele>-6.11</ele>
        <time>2024-09-16T12:04:25Z</time>
      </trkpt>
      <trkpt lat="53.867683997377753" lon="13.965251985937357">
        <ele>-0.34</ele>
        <time>2024-09-16T12:04:37Z</time>
      </trkpt>
      <trkpt lat="53.867795979604125" lon="13.964374987408519">
        <ele>1.1</ele>
        <time>2024-09-16T12:04:40Z</time>
      </trkpt>
      <trkpt lat="53.86780796572566" lon="13.964077010750771">
        <ele>1.58</ele>
        <time>2024-09-16T12:04:41Z</time>
      </trkpt>
      <trkpt lat="53.867820035666227" lon="13.963777022436261">
        <ele>2.06</ele>
        <time>2024-09-16T12:04:42Z</time>
      </trkpt>
      <trkpt lat="53.867833027616143" lon="13.963463036343455">
        <ele>3.02</ele>
        <time>2024-09-16T12:04:43Z</time>
      </trkpt>
      <trkpt lat="53.867846019566059" lon="13.963147960603237">
        <ele>3.5</ele>
        <time>2024-09-16T12:04:44Z</time>
      </trkpt>
      <trkpt lat="53.867944004014134" lon="13.960961038246751">
        <ele>6.39</ele>
        <time>2024-09-16T12:04:51Z</time>
      </trkpt>
      <trkpt lat="53.867971999570727" lon="13.960339017212391">
        <ele>7.35</ele>
        <time>2024-09-16T12:04:53Z</time>
      </trkpt>
      <trkpt lat="53.867985997349024" lon="13.960026036947966">
        <ele>7.35</ele>
        <time>2024-09-16T12:04:54Z</time>
      </trkpt>
      <trkpt lat="53.868086999282241" lon="13.95735296420753">
        <ele>3.98</ele>
        <time>2024-09-16T12:05:03Z</time>
      </trkpt>
      <trkpt lat="53.868131004273891" lon="13.956891037523746">
        <ele>3.5</ele>
        <time>2024-09-16T12:05:05Z</time>
      </trkpt>
      <trkpt lat="53.868155982345343" lon="13.956671012565494">
        <ele>3.02</ele>
        <time>2024-09-16T12:05:06Z</time>
      </trkpt>
      <trkpt lat="53.868221025913954" lon="13.956502033397555">
        <ele>3.02</ele>
        <time>2024-09-16T12:05:07Z</time>
      </trkpt>
      <trkpt lat="53.868309035897255" lon="13.956333976238966">
        <ele>2.54</ele>
        <time>2024-09-16T12:05:08Z</time>
      </trkpt>
      <trkpt lat="53.868413977324963" lon="13.956199027597904">
        <ele>2.54</ele>
        <time>2024-09-16T12:05:09Z</time>
      </trkpt>
      <trkpt lat="53.868848998099566" lon="13.955338960513473">
        <ele>1.58</ele>
        <time>2024-09-16T12:05:13Z</time>
      </trkpt>
      <trkpt lat="53.868968021124601" lon="13.955090017989278">
        <ele>1.1</ele>
        <time>2024-09-16T12:05:14Z</time>
      </trkpt>
      <trkpt lat="53.870120029896498" lon="13.952717017382383">
        <ele>-2.75</ele>
        <time>2024-09-16T12:05:24Z</time>
      </trkpt>
      <trkpt lat="53.871004991233349" lon="13.950940975919366">
        <ele>-3.71</ele>
        <time>2024-09-16T12:05:32Z</time>
      </trkpt>
      <trkpt lat="53.872375013306737" lon="13.948354991152883">
        <ele>-1.3</ele>
        <time>2024-09-16T12:05:43Z</time>
      </trkpt>
      <trkpt lat="53.87339198961854" lon="13.946004034951329">
        <ele>0.14</ele>
        <time>2024-09-16T12:05:52Z</time>
      </trkpt>
      <trkpt lat="53.874319028109312" lon="13.944019032642245">
        <ele>1.58</ele>
        <time>2024-09-16T12:06:00Z</time>
      </trkpt>
      <trkpt lat="53.875243971124291" lon="13.942131008952856">
        <ele>1.1</ele>
        <time>2024-09-16T12:06:09Z</time>
      </trkpt>
      <trkpt lat="53.875892981886864" lon="13.940812032669783">
        <ele>-2.27</ele>
        <time>2024-09-16T12:06:18Z</time>
      </trkpt>
      <trkpt lat="53.876696974039078" lon="13.939170017838478">
        <ele>-3.23</ele>
        <time>2024-09-16T12:06:29Z</time>
      </trkpt>
      <trkpt lat="53.877368029206991" lon="13.937788009643555">
        <ele>-3.23</ele>
        <time>2024-09-16T12:06:38Z</time>
      </trkpt>
      <trkpt lat="53.878083005547523" lon="13.936455035582185">
        <ele>-3.23</ele>
        <time>2024-09-16T12:06:47Z</time>
      </trkpt>
      <trkpt lat="53.878181995823979" lon="13.936349004507065">
        <ele>-3.23</ele>
        <time>2024-09-16T12:06:48Z</time>
      </trkpt>
      <trkpt lat="53.878290038555861" lon="13.936263006180525">
        <ele>-3.23</ele>
        <time>2024-09-16T12:06:49Z</time>
      </trkpt>
      <trkpt lat="53.878404032438993" lon="13.936210032552481">
        <ele>-2.75</ele>
        <time>2024-09-16T12:06:50Z</time>
      </trkpt>
      <trkpt lat="53.878520037978888" lon="13.936154963448644">
        <ele>-2.75</ele>
        <time>2024-09-16T12:06:51Z</time>
      </trkpt>
      <trkpt lat="53.87934397906065" lon="13.935767970979214">
        <ele>0.62</ele>
        <time>2024-09-16T12:06:58Z</time>
      </trkpt>
      <trkpt lat="53.879737006500363" lon="13.935541994869709">
        <ele>2.06</ele>
        <time>2024-09-16T12:07:02Z</time>
      </trkpt>
      <trkpt lat="53.879806995391846" lon="13.935471000149846">
        <ele>2.06</ele>
        <time>2024-09-16T12:07:03Z</time>
      </trkpt>
      <trkpt lat="53.879892993718386" lon="13.935385001823306">
        <ele>2.06</ele>
        <time>2024-09-16T12:07:04Z</time>
      </trkpt>
      <trkpt lat="53.879936998710036" lon="13.935296991840005">
        <ele>2.06</ele>
        <time>2024-09-16T12:07:05Z</time>
      </trkpt>
      <trkpt lat="53.880001036450267" lon="13.935169000178576">
        <ele>2.06</ele>
        <time>2024-09-16T12:07:06Z</time>
      </trkpt>
      <trkpt lat="53.880016962066293" lon="13.935017958283424">
        <ele>1.58</ele>
        <time>2024-09-16T12:07:07Z</time>
      </trkpt>
      <trkpt lat="53.88003297150135" lon="13.934859959408641">
        <ele>1.58</ele>
        <time>2024-09-16T12:07:08Z</time>
      </trkpt>
      <trkpt lat="53.880080999806523" lon="13.934158980846405">
        <ele>2.06</ele>
        <time>2024-09-16T12:07:12Z</time>
      </trkpt>
      <trkpt lat="53.880021991208196" lon="13.932616962119937">
        <ele>2.06</ele>
        <time>2024-09-16T12:07:21Z</time>
      </trkpt>
      <trkpt lat="53.879987960681319" lon="13.932501962408423">
        <ele>1.58</ele>
        <time>2024-09-16T12:07:22Z</time>
      </trkpt>
      <trkpt lat="53.87994697317481" lon="13.932367013767362">
        <ele>1.58</ele>
        <time>2024-09-16T12:07:23Z</time>
      </trkpt>
      <trkpt lat="53.879851000383496" lon="13.932046992704272">
        <ele>1.1</ele>
        <time>2024-09-16T12:07:26Z</time>
      </trkpt>
      <trkpt lat="53.879833985120058" lon="13.931988989934325">
        <ele>1.1</ele>
        <time>2024-09-16T12:07:27Z</time>
      </trkpt>
      <trkpt lat="53.879830967634916" lon="13.931960994377732">
        <ele>1.58</ele>
        <time>2024-09-16T12:07:28Z</time>
      </trkpt>
      <trkpt lat="53.879835996776819" lon="13.93193400464952">
        <ele>1.58</ele>
        <time>2024-09-16T12:07:29Z</time>
      </trkpt>
      <trkpt lat="53.879835996776819" lon="13.93193400464952">
        <ele>2.06</ele>
        <time>2024-09-16T12:07:42Z</time>
      </trkpt>
      <trkpt lat="53.879843037575483" lon="13.93189100548625">
        <ele>2.54</ele>
        <time>2024-09-16T12:07:47Z</time>
      </trkpt>
      <trkpt lat="53.87992300093174" lon="13.931810958310962">
        <ele>2.54</ele>
        <time>2024-09-16T12:07:48Z</time>
      </trkpt>
      <trkpt lat="53.879949990659952" lon="13.931860998272896">
        <ele>3.02</ele>
        <time>2024-09-16T12:07:49Z</time>
      </trkpt>
      <trkpt lat="53.879993995651603" lon="13.931942973285913">
        <ele>3.5</ele>
        <time>2024-09-16T12:07:50Z</time>
      </trkpt>
      <trkpt lat="53.880054010078311" lon="13.932055039331317">
        <ele>3.98</ele>
        <time>2024-09-16T12:07:51Z</time>
      </trkpt>
      <trkpt lat="53.880470003932714" lon="13.933022981509566">
        <ele>4.94</ele>
        <time>2024-09-16T12:07:56Z</time>
      </trkpt>
      <trkpt lat="53.880921034142375" lon="13.934745965525508">
        <ele>4.94</ele>
        <time>2024-09-16T12:08:02Z</time>
      </trkpt>
      <trkpt lat="53.881135024130344" lon="13.935410985723138">
        <ele>4.94</ele>
        <time>2024-09-16T12:08:05Z</time>
      </trkpt>
      <trkpt lat="53.881952008232474" lon="13.937577037140727">
        <ele>5.42</ele>
        <time>2024-09-16T12:08:14Z</time>
      </trkpt>
      <trkpt lat="53.882868988439441" lon="13.939958000555634">
        <ele>7.83</ele>
        <time>2024-09-16T12:08:22Z</time>
      </trkpt>
      <trkpt lat="53.883932987228036" lon="13.942178031429648">
        <ele>11.19</ele>
        <time>2024-09-16T12:08:31Z</time>
      </trkpt>
      <trkpt lat="53.88508097268641" lon="13.944435026496649">
        <ele>11.67</ele>
        <time>2024-09-16T12:08:41Z</time>
      </trkpt>
      <trkpt lat="53.886277992278337" lon="13.946789000183344">
        <ele>9.75</ele>
        <time>2024-09-16T12:08:51Z</time>
      </trkpt>
      <trkpt lat="53.887441987171769" lon="13.949414966627955">
        <ele>8.789999999999999</ele>
        <time>2024-09-16T12:09:01Z</time>
      </trkpt>
      <trkpt lat="53.888464998453856" lon="13.952606962993741">
        <ele>12.630000000000001</ele>
        <time>2024-09-16T12:09:12Z</time>
      </trkpt>
      <trkpt lat="53.889498990029097" lon="13.955771969631314">
        <ele>17.920000000000002</ele>
        <time>2024-09-16T12:09:22Z</time>
      </trkpt>
      <trkpt lat="53.890970014035702" lon="13.96027397364378">
        <ele>21.77</ele>
        <time>2024-09-16T12:09:36Z</time>
      </trkpt>
      <trkpt lat="53.891789009794593" lon="13.962793992832303">
        <ele>22.25</ele>
        <time>2024-09-16T12:09:46Z</time>
      </trkpt>
      <trkpt lat="53.892487976700068" lon="13.964843032881618">
        <ele>22.25</ele>
        <time>2024-09-16T12:09:54Z</time>
      </trkpt>
      <trkpt lat="53.8928799983114" lon="13.966057989746332">
        <ele>21.77</ele>
        <time>2024-09-16T12:10:00Z</time>
      </trkpt>
      <trkpt lat="53.892913023009896" lon="13.96616100333631">
        <ele>21.77</ele>
        <time>2024-09-16T12:10:01Z</time>
      </trkpt>
      <trkpt lat="53.892940012738109" lon="13.966248007491231">
        <ele>21.289999999999999</ele>
        <time>2024-09-16T12:10:02Z</time>
      </trkpt>
      <trkpt lat="53.893044032156467" lon="13.966121021658182">
        <ele>21.289999999999999</ele>
        <time>2024-09-16T12:10:03Z</time>
      </trkpt>
      <trkpt lat="53.893121983855963" lon="13.966087996959686">
        <ele>21.77</ele>
        <time>2024-09-16T12:10:04Z</time>
      </trkpt>
      <trkpt lat="53.893213011324406" lon="13.966058995574713">
        <ele>21.77</ele>
        <time>2024-09-16T12:10:05Z</time>
      </trkpt>
      <trkpt lat="53.893320970237255" lon="13.966024965047836">
        <ele>22.25</ele>
        <time>2024-09-16T12:10:06Z</time>
      </trkpt>
      <trkpt lat="53.893828997388482" lon="13.965854980051517">
        <ele>25.129999999999999</ele>
        <time>2024-09-16T12:10:10Z</time>
      </trkpt>
      <trkpt lat="53.894714964553714" lon="13.965525990352035">
        <ele>28.02</ele>
        <time>2024-09-16T12:10:16Z</time>
      </trkpt>
      <trkpt lat="53.896050034090877" lon="13.965031960979104">
        <ele>27.530000000000001</ele>
        <time>2024-09-16T12:10:24Z</time>
      </trkpt>
      <trkpt lat="53.896722011268139" lon="13.964783018454909">
        <ele>28.02</ele>
        <time>2024-09-16T12:10:28Z</time>
      </trkpt>
      <trkpt lat="53.896877998486161" lon="13.964725015684962">
        <ele>28.02</ele>
        <time>2024-09-16T12:10:29Z</time>
      </trkpt>
      <trkpt lat="53.897039014846087" lon="13.964665001258254">
        <ele>28.5</ele>
        <time>2024-09-16T12:10:30Z</time>
      </trkpt>
      <trkpt lat="53.898224970325828" lon="13.964214976876974">
        <ele>30.420000000000002</ele>
        <time>2024-09-16T12:10:37Z</time>
      </trkpt>
      <trkpt lat="53.898898959159851" lon="13.963941978290677">
        <ele>31.379999999999999</ele>
        <time>2024-09-16T12:10:41Z</time>
      </trkpt>
      <trkpt lat="53.900471990928054" lon="13.962972024455667">
        <ele>28.98</ele>
        <time>2024-09-16T12:10:50Z</time>
      </trkpt>
      <trkpt lat="53.901490978896618" lon="13.962354026734829">
        <ele>30.899999999999999</ele>
        <time>2024-09-16T12:10:56Z</time>
      </trkpt>
      <trkpt lat="53.903028974309564" lon="13.961724964901805">
        <ele>32.340000000000003</ele>
        <time>2024-09-16T12:11:04Z</time>
      </trkpt>
      <trkpt lat="53.90317096374929" lon="13.961629997938871">
        <ele>32.340000000000003</ele>
        <time>2024-09-16T12:11:05Z</time>
      </trkpt>
      <trkpt lat="53.903327034786344" lon="13.961471999064088">
        <ele>32.340000000000003</ele>
        <time>2024-09-16T12:11:06Z</time>
      </trkpt>
      <trkpt lat="53.904614998027682" lon="13.960159979760647">
        <ele>31.859999999999999</ele>
        <time>2024-09-16T12:11:14Z</time>
      </trkpt>
      <trkpt lat="53.905600039288402" lon="13.959197988733649">
        <ele>30.899999999999999</ele>
        <time>2024-09-16T12:11:20Z</time>
      </trkpt>
      <trkpt lat="53.907607002183795" lon="13.958114963024855">
        <ele>27.050000000000001</ele>
        <time>2024-09-16T12:11:31Z</time>
      </trkpt>
      <trkpt lat="53.90892799012363" lon="13.957573994994164">
        <ele>25.609999999999999</ele>
        <time>2024-09-16T12:11:39Z</time>
      </trkpt>
      <trkpt lat="53.909071991220117" lon="13.957604002207518">
        <ele>24.649999999999999</ele>
        <time>2024-09-16T12:11:40Z</time>
      </trkpt>
      <trkpt lat="53.909225966781378" lon="13.957637026906013">
        <ele>24.170000000000002</ele>
        <time>2024-09-16T12:11:41Z</time>
      </trkpt>
      <trkpt lat="53.909395029768348" lon="13.957760995253921">
        <ele>23.210000000000001</ele>
        <time>2024-09-16T12:11:42Z</time>
      </trkpt>
      <trkpt lat="53.909555962309241" lon="13.957881024107337">
        <ele>22.25</ele>
        <time>2024-09-16T12:11:43Z</time>
      </trkpt>
      <trkpt lat="53.910340005531907" lon="13.958432972431183">
        <ele>17.920000000000002</ele>
        <time>2024-09-16T12:11:49Z</time>
      </trkpt>
      <trkpt lat="53.911052970215678" lon="13.958934964612126">
        <ele>16.48</ele>
        <time>2024-09-16T12:11:57Z</time>
      </trkpt>
      <trkpt lat="53.91133401542902" lon="13.959137974306941">
        <ele>15.039999999999999</ele>
        <time>2024-09-16T12:12:01Z</time>
      </trkpt>
      <trkpt lat="53.911379026249051" lon="13.959170999005437">
        <ele>15.039999999999999</ele>
        <time>2024-09-16T12:12:02Z</time>
      </trkpt>
      <trkpt lat="53.911419007927179" lon="13.959087012335658">
        <ele>14.56</ele>
        <time>2024-09-16T12:12:03Z</time>
      </trkpt>
      <trkpt lat="53.911441974341869" lon="13.95900403149426">
        <ele>14.08</ele>
        <time>2024-09-16T12:12:04Z</time>
      </trkpt>
      <trkpt lat="53.911468964070082" lon="13.958904035389423">
        <ele>13.6</ele>
        <time>2024-09-16T12:12:05Z</time>
      </trkpt>
      <trkpt lat="53.911500982940197" lon="13.95879004150629">
        <ele>13.119999999999999</ele>
        <time>2024-09-16T12:12:06Z</time>
      </trkpt>
      <trkpt lat="53.911535013467073" lon="13.95866297185421">
        <ele>13.119999999999999</ele>
        <time>2024-09-16T12:12:07Z</time>
      </trkpt>
      <trkpt lat="53.911703992635012" lon="13.958046985790133">
        <ele>12.630000000000001</ele>
        <time>2024-09-16T12:12:11Z</time>
      </trkpt>
      <trkpt lat="53.911797031760216" lon="13.957708021625876">
        <ele>11.67</ele>
        <time>2024-09-16T12:12:13Z</time>
      </trkpt>
      <trkpt lat="53.91189300455153" lon="13.95756796002388">
        <ele>11.19</ele>
        <time>2024-09-16T12:12:14Z</time>
      </trkpt>
      <trkpt lat="53.91200297512114" lon="13.957495037466288">
        <ele>11.19</ele>
        <time>2024-09-16T12:12:15Z</time>
      </trkpt>
      <trkpt lat="53.912125015631318" lon="13.957412978634238">
        <ele>11.19</ele>
        <time>2024-09-16T12:12:16Z</time>
      </trkpt>
      <trkpt lat="53.912248983979225" lon="13.957348018884659">
        <ele>10.710000000000001</ele>
        <time>2024-09-16T12:12:17Z</time>
      </trkpt>
      <trkpt lat="53.912400025874376" lon="13.957312982529402">
        <ele>11.19</ele>
        <time>2024-09-16T12:12:18Z</time>
      </trkpt>
      <trkpt lat="53.912560036405921" lon="13.957276018336415">
        <ele>11.19</ele>
        <time>2024-09-16T12:12:19Z</time>
      </trkpt>
      <trkpt lat="53.912728009745479" lon="13.957236036658287">
        <ele>11.19</ele>
        <time>2024-09-16T12:12:20Z</time>
      </trkpt>
      <trkpt lat="53.913072003051639" lon="13.957155989482999">
        <ele>11.67</ele>
        <time>2024-09-16T12:12:22Z</time>
      </trkpt>
      <trkpt lat="53.913250034675002" lon="13.957096980884671">
        <ele>11.67</ele>
        <time>2024-09-16T12:12:23Z</time>
      </trkpt>
      <trkpt lat="53.913413984701037" lon="13.956977035850286">
        <ele>12.15</ele>
        <time>2024-09-16T12:12:24Z</time>
      </trkpt>
      <trkpt lat="53.914722986519337" lon="13.956014038994908">
        <ele>14.56</ele>
        <time>2024-09-16T12:12:32Z</time>
      </trkpt>
      <trkpt lat="53.915957976132631" lon="13.955107033252716">
        <ele>13.6</ele>
        <time>2024-09-16T12:12:40Z</time>
      </trkpt>
      <trkpt lat="53.916489975526929" lon="13.954682992771268">
        <ele>12.630000000000001</ele>
        <time>2024-09-16T12:12:44Z</time>
      </trkpt>
      <trkpt lat="53.916581002995372" lon="13.954523988068104">
        <ele>12.630000000000001</ele>
        <time>2024-09-16T12:12:45Z</time>
      </trkpt>
      <trkpt lat="53.916658032685518" lon="13.954344028607011">
        <ele>12.15</ele>
        <time>2024-09-16T12:12:46Z</time>
      </trkpt>
      <trkpt lat="53.917196989059448" lon="13.952907035127282">
        <ele>11.67</ele>
        <time>2024-09-16T12:12:52Z</time>
      </trkpt>
      <trkpt lat="53.917294973507524" lon="13.952665971592069">
        <ele>11.67</ele>
        <time>2024-09-16T12:12:53Z</time>
      </trkpt>
      <trkpt lat="53.917401004582644" lon="13.952401019632816">
        <ele>11.19</ele>
        <time>2024-09-16T12:12:54Z</time>
      </trkpt>
      <trkpt lat="53.91754399985075" lon="13.952212007716298">
        <ele>11.19</ele>
        <time>2024-09-16T12:12:55Z</time>
      </trkpt>
      <trkpt lat="53.918637000024319" lon="13.950757998973131">
        <ele>11.67</ele>
        <time>2024-09-16T12:13:03Z</time>
      </trkpt>
      <trkpt lat="53.919266983866692" lon="13.949919976294041">
        <ele>12.630000000000001</ele>
        <time>2024-09-16T12:13:08Z</time>
      </trkpt>
      <trkpt lat="53.919437974691391" lon="13.949859039857984">
        <ele>13.119999999999999</ele>
        <time>2024-09-16T12:13:09Z</time>
      </trkpt>
      <trkpt lat="53.919594967737794" lon="13.949826015159488">
        <ele>12.630000000000001</ele>
        <time>2024-09-16T12:13:10Z</time>
      </trkpt>
      <trkpt lat="53.921021986752748" lon="13.949527032673359">
        <ele>11.19</ele>
        <time>2024-09-16T12:13:18Z</time>
      </trkpt>
      <trkpt lat="53.922253036871552" lon="13.949268031865358">
        <ele>10.23</ele>
        <time>2024-09-16T12:13:26Z</time>
      </trkpt>
      <trkpt lat="53.92310899682343" lon="13.948967959731817">
        <ele>11.19</ele>
        <time>2024-09-16T12:13:34Z</time>
      </trkpt>
      <trkpt lat="53.924002004787326" lon="13.947954000905156">
        <ele>8.310000000000001</ele>
        <time>2024-09-16T12:13:42Z</time>
      </trkpt>
      <trkpt lat="53.925403039902449" lon="13.946423968300223">
        <ele>5.42</ele>
        <time>2024-09-16T12:13:52Z</time>
      </trkpt>
      <trkpt lat="53.927416959777474" lon="13.944223970174789">
        <ele>3.5</ele>
        <time>2024-09-16T12:14:05Z</time>
      </trkpt>
      <trkpt lat="53.929880987852812" lon="13.941532960161567">
        <ele>2.06</ele>
        <time>2024-09-16T12:14:20Z</time>
      </trkpt>
      <trkpt lat="53.931846041232347" lon="13.93939096480608">
        <ele>1.58</ele>
        <time>2024-09-16T12:14:32Z</time>
      </trkpt>
      <trkpt lat="53.933531977236271" lon="13.937505958601832">
        <ele>-0.34</ele>
        <time>2024-09-16T12:14:42Z</time>
      </trkpt>
      <trkpt lat="53.935014987364411" lon="13.935547024011612">
        <ele>-2.27</ele>
        <time>2024-09-16T12:14:52Z</time>
      </trkpt>
      <trkpt lat="53.935490995645523" lon="13.934917962178588">
        <ele>-1.3</ele>
        <time>2024-09-16T12:14:57Z</time>
      </trkpt>
      <trkpt lat="53.935876982286572" lon="13.934471039101481">
        <ele>-2.75</ele>
        <time>2024-09-16T12:15:05Z</time>
      </trkpt>
      <trkpt lat="53.935901038348675" lon="13.934308011084795">
        <ele>-2.75</ele>
        <time>2024-09-16T12:15:07Z</time>
      </trkpt>
      <trkpt lat="53.935890980064869" lon="13.934286972507834">
        <ele>-2.75</ele>
        <time>2024-09-16T12:15:08Z</time>
      </trkpt>
      <trkpt lat="53.935884023085237" lon="13.934270963072777">
        <ele>-2.27</ele>
        <time>2024-09-16T12:15:09Z</time>
      </trkpt>
      <trkpt lat="53.935872036963701" lon="13.934244979172945">
        <ele>-1.79</ele>
        <time>2024-09-16T12:15:10Z</time>
      </trkpt>
      <trkpt lat="53.935872036963701" lon="13.934244979172945">
        <ele>-1.79</ele>
        <time>2024-09-16T12:15:11Z</time>
      </trkpt>
      <trkpt lat="53.935699034482241" lon="13.933857986703515">
        <ele>-0.82</ele>
        <time>2024-09-16T12:15:19Z</time>
      </trkpt>
      <trkpt lat="53.935673972591758" lon="13.933799983933568">
        <ele>-0.82</ele>
        <time>2024-09-16T12:15:20Z</time>
      </trkpt>
      <trkpt lat="53.935651006177068" lon="13.933750027790666">
        <ele>-0.82</ele>
        <time>2024-09-16T12:15:21Z</time>
      </trkpt>
      <trkpt lat="53.935575988143682" lon="13.933581970632076">
        <ele>-0.82</ele>
        <time>2024-09-16T12:15:33Z</time>
      </trkpt>
      <trkpt lat="53.935575988143682" lon="13.933581970632076">
        <ele>-1.3</ele>
        <time>2024-09-16T12:15:46Z</time>
      </trkpt>
      <trkpt lat="53.935575988143682" lon="13.933581970632076">
        <ele>-1.3</ele>
        <time>2024-09-16T12:16:05Z</time>
      </trkpt>
      <trkpt lat="53.935575988143682" lon="13.933581970632076">
        <ele>-1.3</ele>
        <time>2024-09-16T12:16:06Z</time>
      </trkpt>
      <trkpt lat="53.935479009523988" lon="13.93346001394093">
        <ele>-0.82</ele>
        <time>2024-09-16T12:16:16Z</time>
      </trkpt>
      <trkpt lat="53.935498958453536" lon="13.933452973142266">
        <ele>1.58</ele>
        <time>2024-09-16T13:18:02Z</time>
      </trkpt>
      <trkpt lat="53.935502981767058" lon="13.933468982577324">
        <ele>4.46</ele>
        <time>2024-09-16T13:18:40Z</time>
      </trkpt>
      <trkpt lat="53.9355059992522" lon="13.933501001447439">
        <ele>3.02</ele>
        <time>2024-09-16T13:19:33Z</time>
      </trkpt>
      <trkpt lat="53.935510022565722" lon="13.933489015325904">
        <ele>1.1</ele>
        <time>2024-09-16T13:20:20Z</time>
      </trkpt>
      <trkpt lat="53.935509016737342" lon="13.933492032811046">
        <ele>1.58</ele>
        <time>2024-09-16T13:20:48Z</time>
      </trkpt>
      <trkpt lat="53.935575988143682" lon="13.933581970632076">
        <ele>2.06</ele>
        <time>2024-09-16T13:21:00Z</time>
      </trkpt>
      <trkpt lat="53.935575988143682" lon="13.933581970632076">
        <ele>2.06</ele>
        <time>2024-09-16T13:21:45Z</time>
      </trkpt>
      <trkpt lat="53.935662992298603" lon="13.933777017518878">
        <ele>2.06</ele>
        <time>2024-09-16T13:22:24Z</time>
      </trkpt>
      <trkpt lat="53.935914030298591" lon="13.934337012469769">
        <ele>2.06</ele>
        <time>2024-09-16T13:22:35Z</time>
      </trkpt>
      <trkpt lat="53.935968009755015" lon="13.934367019683123">
        <ele>2.06</ele>
        <time>2024-09-16T13:22:37Z</time>
      </trkpt>
      <trkpt lat="53.936011008918285" lon="13.934315973892808">
        <ele>1.58</ele>
        <time>2024-09-16T13:22:38Z</time>
      </trkpt>
      <trkpt lat="53.936736965551972" lon="13.933472000062466">
        <ele>0.62</ele>
        <time>2024-09-16T13:22:45Z</time>
      </trkpt>
      <trkpt lat="53.938059965148568" lon="13.932004999369383">
        <ele>0.62</ele>
        <time>2024-09-16T13:22:57Z</time>
      </trkpt>
      <trkpt lat="53.939606007188559" lon="13.930692980065942">
        <ele>-3.23</ele>
        <time>2024-09-16T13:23:08Z</time>
      </trkpt>
      <trkpt lat="53.941053980961442" lon="13.929610038176179">
        <ele>-3.23</ele>
        <time>2024-09-16T13:23:18Z</time>
      </trkpt>
      <trkpt lat="53.943029008805752" lon="13.928142031654716">
        <ele>0.62</ele>
        <time>2024-09-16T13:23:30Z</time>
      </trkpt>
      <trkpt lat="53.943615993484855" lon="13.927769036963582">
        <ele>2.06</ele>
        <time>2024-09-16T13:23:36Z</time>
      </trkpt>
      <trkpt lat="53.943997034803033" lon="13.927601985633373">
        <ele>3.02</ele>
        <time>2024-09-16T13:23:42Z</time>
      </trkpt>
      <trkpt lat="53.944073980674148" lon="13.927580025047064">
        <ele>3.5</ele>
        <time>2024-09-16T13:23:43Z</time>
      </trkpt>
      <trkpt lat="53.944156961515546" lon="13.927556974813342">
        <ele>3.5</ele>
        <time>2024-09-16T13:23:44Z</time>
      </trkpt>
      <trkpt lat="53.944245977327228" lon="13.92753099091351">
        <ele>3.5</ele>
        <time>2024-09-16T13:23:45Z</time>
      </trkpt>
      <trkpt lat="53.944334993138909" lon="13.927506012842059">
        <ele>3.98</ele>
        <time>2024-09-16T13:23:46Z</time>
      </trkpt>
      <trkpt lat="53.944424008950591" lon="13.927483968436718">
        <ele>3.98</ele>
        <time>2024-09-16T13:23:47Z</time>
      </trkpt>
      <trkpt lat="53.944515036419034" lon="13.927470976486802">
        <ele>3.5</ele>
        <time>2024-09-16T13:23:48Z</time>
      </trkpt>
      <trkpt lat="53.945464035496116" lon="13.927339967340231">
        <ele>1.58</ele>
        <time>2024-09-16T13:23:58Z</time>
      </trkpt>
      <trkpt lat="53.945677019655704" lon="13.927364023402333">
        <ele>1.1</ele>
        <time>2024-09-16T13:24:00Z</time>
      </trkpt>
      <trkpt lat="53.946331981569529" lon="13.92746795900166">
        <ele>1.1</ele>
        <time>2024-09-16T13:24:06Z</time>
      </trkpt>
      <trkpt lat="53.94644002430141" lon="13.927509030327201">
        <ele>1.1</ele>
        <time>2024-09-16T13:24:07Z</time>
      </trkpt>
      <trkpt lat="53.946547983214259" lon="13.927539959549904">
        <ele>1.58</ele>
        <time>2024-09-16T13:24:08Z</time>
      </trkpt>
      <trkpt lat="53.947563031688333" lon="13.927732994779944">
        <ele>3.02</ele>
        <time>2024-09-16T13:24:17Z</time>
      </trkpt>
      <trkpt lat="53.947677025571465" lon="13.927769036963582">
        <ele>3.5</ele>
        <time>2024-09-16T13:24:18Z</time>
      </trkpt>
      <trkpt lat="53.948015989735723" lon="13.927880013361573">
        <ele>3.98</ele>
        <time>2024-09-16T13:24:21Z</time>
      </trkpt>
      <trkpt lat="53.948662988841534" lon="13.928291983902454">
        <ele>4.46</ele>
        <time>2024-09-16T13:24:27Z</time>
      </trkpt>
      <trkpt lat="53.948778994381428" lon="13.92838703468442">
        <ele>4.46</ele>
        <time>2024-09-16T13:24:28Z</time>
      </trkpt>
      <trkpt lat="53.949992023408413" lon="13.929380960762501">
        <ele>3.98</ele>
        <time>2024-09-16T13:24:37Z</time>
      </trkpt>
      <trkpt lat="53.951475033536553" lon="13.930586026981473">
        <ele>2.54</ele>
        <time>2024-09-16T13:24:47Z</time>
      </trkpt>
      <trkpt lat="53.951625991612673" lon="13.930708989500999">
        <ele>2.06</ele>
        <time>2024-09-16T13:24:48Z</time>
      </trkpt>
      <trkpt lat="53.95222102291882" lon="13.931137975305319">
        <ele>1.58</ele>
        <time>2024-09-16T13:24:52Z</time>
      </trkpt>
      <trkpt lat="53.953592972829938" lon="13.931334028020501">
        <ele>0.14</ele>
        <time>2024-09-16T13:25:01Z</time>
      </trkpt>
      <trkpt lat="53.955276980996132" lon="13.930991962552071">
        <ele>-1.3</ele>
        <time>2024-09-16T13:25:12Z</time>
      </trkpt>
      <trkpt lat="53.956224974244833" lon="13.930820971727371">
        <ele>-2.75</ele>
        <time>2024-09-16T13:25:19Z</time>
      </trkpt>
      <trkpt lat="53.956390013918281" lon="13.930835975334048">
        <ele>-3.23</ele>
        <time>2024-09-16T13:25:20Z</time>
      </trkpt>
      <trkpt lat="53.956683967262506" lon="13.930927002802491">
        <ele>-2.75</ele>
        <time>2024-09-16T13:25:22Z</time>
      </trkpt>
      <trkpt lat="53.956955038011074" lon="13.931172005832195">
        <ele>-2.75</ele>
        <time>2024-09-16T13:25:23Z</time>
      </trkpt>
      <trkpt lat="53.957093004137278" lon="13.931296980008483">
        <ele>-2.27</ele>
        <time>2024-09-16T13:25:24Z</time>
      </trkpt>
      <trkpt lat="53.957229964435101" lon="13.931422038003802">
        <ele>-2.27</ele>
        <time>2024-09-16T13:25:25Z</time>
      </trkpt>
      <trkpt lat="53.957348987460136" lon="13.931571990251541">
        <ele>-2.27</ele>
        <time>2024-09-16T13:25:26Z</time>
      </trkpt>
      <trkpt lat="53.957473961636424" lon="13.931753039360046">
        <ele>-1.79</ele>
        <time>2024-09-16T13:25:27Z</time>
      </trkpt>
      <trkpt lat="53.958574002608657" lon="13.933341996744275">
        <ele>-3.23</ele>
        <time>2024-09-16T13:25:36Z</time>
      </trkpt>
      <trkpt lat="53.959387969225645" lon="13.934516971930861">
        <ele>-5.15</ele>
        <time>2024-09-16T13:25:42Z</time>
      </trkpt>
      <trkpt lat="53.959937989711761" lon="13.935162965208292">
        <ele>-6.11</ele>
        <time>2024-09-16T13:25:46Z</time>
      </trkpt>
      <trkpt lat="53.960079979151487" lon="13.935233959928155">
        <ele>-6.11</ele>
        <time>2024-09-16T13:25:47Z</time>
      </trkpt>
      <trkpt lat="53.960218029096723" lon="13.935291962698102">
        <ele>-6.59</ele>
        <time>2024-09-16T13:25:49Z</time>
      </trkpt>
      <trkpt lat="53.961821990087628" lon="13.935751961544156">
        <ele>-6.59</ele>
        <time>2024-09-16T13:25:58Z</time>
      </trkpt>
      <trkpt lat="53.962978022173047" lon="13.936083968728781">
        <ele>-4.19</ele>
        <time>2024-09-16T13:26:05Z</time>
      </trkpt>
      <trkpt lat="53.963297037407756" lon="13.936174996197224">
        <ele>-3.71</ele>
        <time>2024-09-16T13:26:06Z</time>
      </trkpt>
      <trkpt lat="53.96343600936234" lon="13.936267029494047">
        <ele>-3.23</ele>
        <time>2024-09-16T13:26:07Z</time>
      </trkpt>
      <trkpt lat="53.963566012680531" lon="13.936438020318747">
        <ele>-2.75</ele>
        <time>2024-09-16T13:26:08Z</time>
      </trkpt>
      <trkpt lat="53.964272020384669" lon="13.937345026060939">
        <ele>0.14</ele>
        <time>2024-09-16T13:26:15Z</time>
      </trkpt>
      <trkpt lat="53.964350977912545" lon="13.937446027994156">
        <ele>0.14</ele>
        <time>2024-09-16T13:26:16Z</time>
      </trkpt>
      <trkpt lat="53.964495984837413" lon="13.937631016597152">
        <ele>0.62</ele>
        <time>2024-09-16T13:26:17Z</time>
      </trkpt>
      <trkpt lat="53.964697988703847" lon="13.937807036563754">
        <ele>0.14</ele>
        <time>2024-09-16T13:26:20Z</time>
      </trkpt>
      <trkpt lat="53.964764960110188" lon="13.937864033505321">
        <ele>0.14</ele>
        <time>2024-09-16T13:26:21Z</time>
      </trkpt>
      <trkpt lat="53.964836960658431" lon="13.937897980213165">
        <ele>0.14</ele>
        <time>2024-09-16T13:26:22Z</time>
      </trkpt>
      <trkpt lat="53.964997977018356" lon="13.93790896050632">
        <ele>0.14</ele>
        <time>2024-09-16T13:26:24Z</time>
      </trkpt>
      <trkpt lat="53.965075006708503" lon="13.937913989648223">
        <ele>-0.34</ele>
        <time>2024-09-16T13:26:25Z</time>
      </trkpt>
      <trkpt lat="53.965150024741888" lon="13.937919018790126">
        <ele>-0.82</ele>
        <time>2024-09-16T13:26:26Z</time>
      </trkpt>
      <trkpt lat="53.965353034436703" lon="13.937933016568422">
        <ele>-1.79</ele>
        <time>2024-09-16T13:26:29Z</time>
      </trkpt>
      <trkpt lat="53.965409025549889" lon="13.937937039881945">
        <ele>-2.27</ele>
        <time>2024-09-16T13:26:30Z</time>
      </trkpt>
      <trkpt lat="53.965426962822676" lon="13.937914995476604">
        <ele>-3.23</ele>
        <time>2024-09-16T13:26:32Z</time>
      </trkpt>
      <trkpt lat="53.965440960600972" lon="13.937807958573103">
        <ele>-3.23</ele>
        <time>2024-09-16T13:26:33Z</time>
      </trkpt>
      <trkpt lat="53.965594014152884" lon="13.937586005777121">
        <ele>-2.75</ele>
        <time>2024-09-16T13:26:34Z</time>
      </trkpt>
      <trkpt lat="53.965668026357889" lon="13.937576031312346">
        <ele>-2.75</ele>
        <time>2024-09-16T13:26:35Z</time>
      </trkpt>
      <trkpt lat="53.965845974162221" lon="13.937543006613851">
        <ele>-1.79</ele>
        <time>2024-09-16T13:26:37Z</time>
      </trkpt>
      <trkpt lat="53.965921998023987" lon="13.937491960823536">
        <ele>-1.3</ele>
        <time>2024-09-16T13:26:38Z</time>
      </trkpt>
      <trkpt lat="53.96599399857223" lon="13.937443010509014">
        <ele>-0.82</ele>
        <time>2024-09-16T13:26:39Z</time>
      </trkpt>
      <trkpt lat="53.966054012998939" lon="13.937339996919036">
        <ele>-0.34</ele>
        <time>2024-09-16T13:26:40Z</time>
      </trkpt>
      <trkpt lat="53.966098017990589" lon="13.937217034399509">
        <ele>0.14</ele>
        <time>2024-09-16T13:26:41Z</time>
      </trkpt>
      <trkpt lat="53.966206982731819" lon="13.93698301166296">
        <ele>-0.34</ele>
        <time>2024-09-16T13:26:44Z</time>
      </trkpt>
      <trkpt lat="53.967022961005569" lon="13.936078017577529">
        <ele>-2.27</ele>
        <time>2024-09-16T13:26:52Z</time>
      </trkpt>
      <trkpt lat="53.96732303313911" lon="13.935675015673041">
        <ele>-2.27</ele>
        <time>2024-09-16T13:26:55Z</time>
      </trkpt>
      <trkpt lat="53.967419005930424" lon="13.935516010969877">
        <ele>-2.27</ele>
        <time>2024-09-16T13:26:56Z</time>
      </trkpt>
      <trkpt lat="53.96751900203526" lon="13.93535197712481">
        <ele>-2.75</ele>
        <time>2024-09-16T13:26:57Z</time>
      </trkpt>
      <trkpt lat="53.967626038938761" lon="13.935175035148859">
        <ele>-3.23</ele>
        <time>2024-09-16T13:26:58Z</time>
      </trkpt>
      <trkpt lat="53.967737015336752" lon="13.934991974383593">
        <ele>-3.71</ele>
        <time>2024-09-16T13:26:59Z</time>
      </trkpt>
      <trkpt lat="53.969314992427826" lon="13.93238696269691">
        <ele>-6.11</ele>
        <time>2024-09-16T13:27:12Z</time>
      </trkpt>
      <trkpt lat="53.970847958698869" lon="13.929856969043612">
        <ele>-6.59</ele>
        <time>2024-09-16T13:27:24Z</time>
      </trkpt>
      <trkpt lat="53.971912963315845" lon="13.928096015006304">
        <ele>-6.11</ele>
        <time>2024-09-16T13:27:32Z</time>
      </trkpt>
      <trkpt lat="53.973325984552503" lon="13.92574698664248">
        <ele>-6.59</ele>
        <time>2024-09-16T13:27:43Z</time>
      </trkpt>
      <trkpt lat="53.9743070024997" lon="13.92394102178514">
        <ele>-6.11</ele>
        <time>2024-09-16T13:27:51Z</time>
      </trkpt>
      <trkpt lat="53.974921982735395" lon="13.922813991084695">
        <ele>-6.11</ele>
        <time>2024-09-16T13:27:56Z</time>
      </trkpt>
      <trkpt lat="53.97594197653234" lon="13.921680003404617">
        <ele>-3.71</ele>
        <time>2024-09-16T13:28:03Z</time>
      </trkpt>
      <trkpt lat="53.977290960028768" lon="13.920179978013039">
        <ele>-3.71</ele>
        <time>2024-09-16T13:28:12Z</time>
      </trkpt>
      <trkpt lat="53.978092018514872" lon="13.919058982282877">
        <ele>-4.19</ele>
        <time>2024-09-16T13:28:19Z</time>
      </trkpt>
      <trkpt lat="53.97920697927475" lon="13.916663015261292">
        <ele>-4.19</ele>
        <time>2024-09-16T13:28:29Z</time>
      </trkpt>
      <trkpt lat="53.980491003021598" lon="13.914959980174899">
        <ele>-4.19</ele>
        <time>2024-09-16T13:28:38Z</time>
      </trkpt>
      <trkpt lat="53.981922967359424" lon="13.913359036669135">
        <ele>-3.71</ele>
        <time>2024-09-16T13:28:48Z</time>
      </trkpt>
      <trkpt lat="53.982615983113647" lon="13.912465022876859">
        <ele>-3.71</ele>
        <time>2024-09-16T13:28:55Z</time>
      </trkpt>
      <trkpt lat="53.983014039695263" lon="13.911992032080889">
        <ele>-4.19</ele>
        <time>2024-09-16T13:29:01Z</time>
      </trkpt>
      <trkpt lat="53.983715018257499" lon="13.911519041284919">
        <ele>-3.71</ele>
        <time>2024-09-16T13:29:10Z</time>
      </trkpt>
      <trkpt lat="53.983770003542304" lon="13.91148098744452">
        <ele>-3.71</ele>
        <time>2024-09-16T13:29:11Z</time>
      </trkpt>
      <trkpt lat="53.983744019642472" lon="13.911399012431502">
        <ele>-3.71</ele>
        <time>2024-09-16T13:29:13Z</time>
      </trkpt>
      <trkpt lat="53.983725998550653" lon="13.911343021318316">
        <ele>-3.23</ele>
        <time>2024-09-16T13:29:14Z</time>
      </trkpt>
      <trkpt lat="53.983681993559003" lon="13.911204971373081">
        <ele>-3.23</ele>
        <time>2024-09-16T13:29:15Z</time>
      </trkpt>
      <trkpt lat="53.983657015487552" lon="13.911126013845205">
        <ele>-3.23</ele>
        <time>2024-09-16T13:29:16Z</time>
      </trkpt>
      <trkpt lat="53.983601024374366" lon="13.910943958908319">
        <ele>-3.23</ele>
        <time>2024-09-16T13:29:19Z</time>
      </trkpt>
      <trkpt lat="53.983449982479215" lon="13.910432998090982">
        <ele>-3.23</ele>
        <time>2024-09-16T13:29:26Z</time>
      </trkpt>
      <trkpt lat="53.983338000252843" lon="13.91004198230803">
        <ele>-3.23</ele>
        <time>2024-09-16T13:29:31Z</time>
      </trkpt>
      <trkpt lat="53.983292989432812" lon="13.910020021721721">
        <ele>-3.23</ele>
        <time>2024-09-16T13:29:32Z</time>
      </trkpt>
      <trkpt lat="53.983115963637829" lon="13.909920025616884">
        <ele>-2.75</ele>
        <time>2024-09-16T13:29:35Z</time>
      </trkpt>
      <trkpt lat="53.983061984181404" lon="13.909834027290344">
        <ele>-2.75</ele>
        <time>2024-09-16T13:29:36Z</time>
      </trkpt>
      <trkpt lat="53.983010016381741" lon="13.909707963466644">
        <ele>-2.27</ele>
        <time>2024-09-16T13:29:37Z</time>
      </trkpt>
      <trkpt lat="53.982991995289922" lon="13.909590030089021">
        <ele>-2.27</ele>
        <time>2024-09-16T13:29:38Z</time>
      </trkpt>
      <trkpt lat="53.982972968369722" lon="13.90946002677083">
        <ele>-1.79</ele>
        <time>2024-09-16T13:29:40Z</time>
      </trkpt>
      <trkpt lat="53.982911026105285" lon="13.909059958532453">
        <ele>-1.79</ele>
        <time>2024-09-16T13:29:42Z</time>
      </trkpt>
      <trkpt lat="53.982888981699944" lon="13.908915035426617">
        <ele>-1.79</ele>
        <time>2024-09-16T13:29:43Z</time>
      </trkpt>
      <trkpt lat="53.982844976708293" lon="13.908624015748501">
        <ele>-1.3</ele>
        <time>2024-09-16T13:29:45Z</time>
      </trkpt>
      <trkpt lat="53.982556974515319" lon="13.907200014218688">
        <ele>-1.79</ele>
        <time>2024-09-16T13:29:54Z</time>
      </trkpt>
      <trkpt lat="53.982504000887275" lon="13.907043021172285">
        <ele>-1.79</ele>
        <time>2024-09-16T13:29:55Z</time>
      </trkpt>
      <trkpt lat="53.982448009774089" lon="13.906879993155599">
        <ele>-1.3</ele>
        <time>2024-09-16T13:29:56Z</time>
      </trkpt>
      <trkpt lat="53.982390007004142" lon="13.90671000815928">
        <ele>-1.3</ele>
        <time>2024-09-16T13:29:57Z</time>
      </trkpt>
      <trkpt lat="53.982330998405814" lon="13.906535999849439">
        <ele>-1.3</ele>
        <time>2024-09-16T13:29:58Z</time>
      </trkpt>
      <trkpt lat="53.981507979333401" lon="13.905220041051507">
        <ele>-1.79</ele>
        <time>2024-09-16T13:30:06Z</time>
      </trkpt>
      <trkpt lat="53.980728965252638" lon="13.904242962598801">
        <ele>-3.71</ele>
        <time>2024-09-16T13:30:13Z</time>
      </trkpt>
      <trkpt lat="53.98064699023962" lon="13.904158975929022">
        <ele>-3.71</ele>
        <time>2024-09-16T13:30:14Z</time>
      </trkpt>
      <trkpt lat="53.980569960549474" lon="13.904080018401146">
        <ele>-3.71</ele>
        <time>2024-09-16T13:30:15Z</time>
      </trkpt>
      <trkpt lat="53.979905024170876" lon="13.903526980429888">
        <ele>-5.63</ele>
        <time>2024-09-16T13:30:25Z</time>
      </trkpt>
      <trkpt lat="53.979626996442676" lon="13.90327200293541">
        <ele>-5.63</ele>
        <time>2024-09-16T13:30:34Z</time>
      </trkpt>
      <trkpt lat="53.97959103807807" lon="13.903238978236914">
        <ele>-5.63</ele>
        <time>2024-09-16T13:30:35Z</time>
      </trkpt>
      <trkpt lat="53.979384005069733" lon="13.903048960492015">
        <ele>-6.11</ele>
        <time>2024-09-16T13:30:39Z</time>
      </trkpt>
      <trkpt lat="53.979030037298799" lon="13.902724999934435">
        <ele>-5.15</ele>
        <time>2024-09-16T13:30:45Z</time>
      </trkpt>
      <trkpt lat="53.978993995115161" lon="13.902604971081018">
        <ele>-5.15</ele>
        <time>2024-09-16T13:30:46Z</time>
      </trkpt>
      <trkpt lat="53.979003969579935" lon="13.902516961097717">
        <ele>-5.15</ele>
        <time>2024-09-16T13:30:47Z</time>
      </trkpt>
      <trkpt lat="53.979015033692122" lon="13.902415037155151">
        <ele>-5.15</ele>
        <time>2024-09-16T13:30:48Z</time>
      </trkpt>
      <trkpt lat="53.979028025642037" lon="13.902303976938128">
        <ele>-4.67</ele>
        <time>2024-09-16T13:30:49Z</time>
      </trkpt>
      <trkpt lat="53.979041017591953" lon="13.902186965569854">
        <ele>-4.67</ele>
        <time>2024-09-16T13:30:50Z</time>
      </trkpt>
      <trkpt lat="53.979054009541869" lon="13.902074983343482">
        <ele>-4.67</ele>
        <time>2024-09-16T13:30:51Z</time>
      </trkpt>
      <trkpt lat="53.979203961789608" lon="13.900776039808989">
        <ele>-5.15</ele>
        <time>2024-09-16T13:31:03Z</time>
      </trkpt>
      <trkpt lat="53.979219971224666" lon="13.900710996240377">
        <ele>-5.15</ele>
        <time>2024-09-16T13:31:04Z</time>
      </trkpt>
      <trkpt lat="53.9792509842664" lon="13.900581998750567">
        <ele>-5.63</ele>
        <time>2024-09-16T13:31:06Z</time>
      </trkpt>
      <trkpt lat="53.979269005358219" lon="13.900508992373943">
        <ele>-5.63</ele>
        <time>2024-09-16T13:31:07Z</time>
      </trkpt>
      <trkpt lat="53.979318039491773" lon="13.900306988507509">
        <ele>-6.11</ele>
        <time>2024-09-16T13:31:10Z</time>
      </trkpt>
      <trkpt lat="53.979468997567892" lon="13.900038013234735">
        <ele>-5.63</ele>
        <time>2024-09-16T13:31:19Z</time>
      </trkpt>
      <trkpt lat="53.979500010609627" lon="13.900023009628057">
        <ele>-6.11</ele>
        <time>2024-09-16T13:31:28Z</time>
      </trkpt>
      <trkpt lat="53.979500010609627" lon="13.900023009628057">
        <ele>-6.11</ele>
        <time>2024-09-16T13:32:11Z</time>
      </trkpt>
      <trkpt lat="53.979500010609627" lon="13.900023009628057">
        <ele>-6.11</ele>
        <time>2024-09-16T13:33:10Z</time>
      </trkpt>
      <trkpt lat="53.97963697090745" lon="13.900046981871128">
        <ele>-2.27</ele>
        <time>2024-09-16T13:35:58Z</time>
      </trkpt>
      <trkpt lat="53.979576034471393" lon="13.899956960231066">
        <ele>1.58</ele>
        <time>2024-09-16T13:36:30Z</time>
      </trkpt>
      <trkpt lat="53.979537980630994" lon="13.89994396828115">
        <ele>1.58</ele>
        <time>2024-09-16T13:36:53Z</time>
      </trkpt>
      <trkpt lat="53.979564970359206" lon="13.900042958557606">
        <ele>1.58</ele>
        <time>2024-09-16T13:36:55Z</time>
      </trkpt>
      <trkpt lat="53.979600006714463" lon="13.900054022669792">
        <ele>1.58</ele>
        <time>2024-09-16T13:36:56Z</time>
      </trkpt>
      <trkpt lat="53.979632025584579" lon="13.900063997134566">
        <ele>1.1</ele>
        <time>2024-09-16T13:36:57Z</time>
      </trkpt>
      <trkpt lat="53.979668989777565" lon="13.900075983256102">
        <ele>1.1</ele>
        <time>2024-09-16T13:36:58Z</time>
      </trkpt>
      <trkpt lat="53.979708971455693" lon="13.900088975206017">
        <ele>0.62</ele>
        <time>2024-09-16T13:36:59Z</time>
      </trkpt>
      <trkpt lat="53.979877028614283" lon="13.900142032653093">
        <ele>1.1</ele>
        <time>2024-09-16T13:37:03Z</time>
      </trkpt>
      <trkpt lat="53.979908041656017" lon="13.900151001289487">
        <ele>0.62</ele>
        <time>2024-09-16T13:37:04Z</time>
      </trkpt>
      <trkpt lat="53.979933019727468" lon="13.900210009887815">
        <ele>0.62</ele>
        <time>2024-09-16T13:37:05Z</time>
      </trkpt>
      <trkpt lat="53.97995799779892" lon="13.900266001001">
        <ele>0.14</ele>
        <time>2024-09-16T13:37:06Z</time>
      </trkpt>
      <trkpt lat="53.97998197004199" lon="13.900319980457425">
        <ele>0.14</ele>
        <time>2024-09-16T13:37:07Z</time>
      </trkpt>
      <trkpt lat="53.980008037760854" lon="13.900381000712514">
        <ele>-0.34</ele>
        <time>2024-09-16T13:37:08Z</time>
      </trkpt>
      <trkpt lat="53.980037039145827" lon="13.900445960462093">
        <ele>-0.34</ele>
        <time>2024-09-16T13:37:09Z</time>
      </trkpt>
      <trkpt lat="53.980234013870358" lon="13.900915011763573">
        <ele>-0.34</ele>
        <time>2024-09-16T13:37:16Z</time>
      </trkpt>
      <trkpt lat="53.980256980285048" lon="13.900983994826674">
        <ele>-0.82</ele>
        <time>2024-09-16T13:37:17Z</time>
      </trkpt>
      <trkpt lat="53.980336021631956" lon="13.90121198259294">
        <ele>-0.82</ele>
        <time>2024-09-16T13:37:20Z</time>
      </trkpt>
      <trkpt lat="53.98036502301693" lon="13.901293035596609">
        <ele>-0.82</ele>
        <time>2024-09-16T13:37:21Z</time>
      </trkpt>
      <trkpt lat="53.980394024401903" lon="13.901376016438007">
        <ele>-0.82</ele>
        <time>2024-09-16T13:37:22Z</time>
      </trkpt>
      <trkpt lat="53.980493014678359" lon="13.901655972003937">
        <ele>-0.82</ele>
        <time>2024-09-16T13:37:25Z</time>
      </trkpt>
      <trkpt lat="53.980530984699726" lon="13.901783041656017">
        <ele>-1.3</ele>
        <time>2024-09-16T13:37:26Z</time>
      </trkpt>
      <trkpt lat="53.98053802549839" lon="13.901902986690402">
        <ele>-1.3</ele>
        <time>2024-09-16T13:37:27Z</time>
      </trkpt>
      <trkpt lat="53.980545988306403" lon="13.902033995836973">
        <ele>-1.79</ele>
        <time>2024-09-16T13:37:28Z</time>
      </trkpt>
      <trkpt lat="53.980551017448306" lon="13.902126029133797">
        <ele>-1.79</ele>
        <time>2024-09-16T13:37:29Z</time>
      </trkpt>
      <trkpt lat="53.980541964992881" lon="13.902289979159832">
        <ele>-1.79</ele>
        <time>2024-09-16T13:37:30Z</time>
      </trkpt>
      <trkpt lat="53.980484968051314" lon="13.903255993500352">
        <ele>-0.82</ele>
        <time>2024-09-16T13:37:38Z</time>
      </trkpt>
      <trkpt lat="53.980456972494721" lon="13.903737030923367">
        <ele>0.14</ele>
        <time>2024-09-16T13:37:43Z</time>
      </trkpt>
      <trkpt lat="53.98045202717185" lon="13.903813976794481">
        <ele>-0.34</ele>
        <time>2024-09-16T13:37:44Z</time>
      </trkpt>
      <trkpt lat="53.980448003858328" lon="13.903881032019854">
        <ele>0.14</ele>
        <time>2024-09-16T13:37:45Z</time>
      </trkpt>
      <trkpt lat="53.980460995808244" lon="13.903967030346394">
        <ele>-0.34</ele>
        <time>2024-09-16T13:37:46Z</time>
      </trkpt>
      <trkpt lat="53.980491003021598" lon="13.903997959569097">
        <ele>-0.34</ele>
        <time>2024-09-16T13:37:47Z</time>
      </trkpt>
      <trkpt lat="53.980525033548474" lon="13.904032995924354">
        <ele>-0.34</ele>
        <time>2024-09-16T13:37:48Z</time>
      </trkpt>
      <trkpt lat="53.980566021054983" lon="13.904074989259243">
        <ele>-0.34</ele>
        <time>2024-09-16T13:37:49Z</time>
      </trkpt>
      <trkpt lat="53.980611031875014" lon="13.904122011736035">
        <ele>-0.34</ele>
        <time>2024-09-16T13:37:50Z</time>
      </trkpt>
      <trkpt lat="53.980660988017917" lon="13.904172973707318">
        <ele>-0.34</ele>
        <time>2024-09-16T13:37:51Z</time>
      </trkpt>
      <trkpt lat="53.981240009889007" lon="13.904819972813129">
        <ele>-0.34</ele>
        <time>2024-09-16T13:38:00Z</time>
      </trkpt>
      <trkpt lat="53.981982981786132" lon="13.905927976593375">
        <ele>-0.82</ele>
        <time>2024-09-16T13:38:11Z</time>
      </trkpt>
      <trkpt lat="53.982229996472597" lon="13.906296025961637">
        <ele>-1.79</ele>
        <time>2024-09-16T13:38:14Z</time>
      </trkpt>
      <trkpt lat="53.982495032250881" lon="13.907017959281802">
        <ele>-3.71</ele>
        <time>2024-09-16T13:38:18Z</time>
      </trkpt>
      <trkpt lat="53.982554040849209" lon="13.907190961763263">
        <ele>-3.71</ele>
        <time>2024-09-16T13:38:19Z</time>
      </trkpt>
      <trkpt lat="53.982598967850208" lon="13.907374022528529">
        <ele>-3.71</ele>
        <time>2024-09-16T13:38:20Z</time>
      </trkpt>
      <trkpt lat="53.982947990298271" lon="13.909302027896047">
        <ele>-1.79</ele>
        <time>2024-09-16T13:38:31Z</time>
      </trkpt>
      <trkpt lat="53.983011022210121" lon="13.909715004265308">
        <ele>-0.82</ele>
        <time>2024-09-16T13:38:34Z</time>
      </trkpt>
      <trkpt lat="53.983059972524643" lon="13.909830003976822">
        <ele>-0.34</ele>
        <time>2024-09-16T13:38:35Z</time>
      </trkpt>
      <trkpt lat="53.983103977516294" lon="13.909900998696685">
        <ele>-0.34</ele>
        <time>2024-09-16T13:38:36Z</time>
      </trkpt>
      <trkpt lat="53.983167009428144" lon="13.90995598398149">
        <ele>0.14</ele>
        <time>2024-09-16T13:38:37Z</time>
      </trkpt>
      <trkpt lat="53.983232975006104" lon="13.909989008679986">
        <ele>0.14</ele>
        <time>2024-09-16T13:38:38Z</time>
      </trkpt>
      <trkpt lat="53.983293995261192" lon="13.910020021721721">
        <ele>0.62</ele>
        <time>2024-09-16T13:38:39Z</time>
      </trkpt>
      <trkpt lat="53.983351998031139" lon="13.910082969814539">
        <ele>0.62</ele>
        <time>2024-09-16T13:38:40Z</time>
      </trkpt>
      <trkpt lat="53.98339600302279" lon="13.910243986174464">
        <ele>0.62</ele>
        <time>2024-09-16T13:38:42Z</time>
      </trkpt>
      <trkpt lat="53.98348200134933" lon="13.910541040822864">
        <ele>1.1</ele>
        <time>2024-09-16T13:38:45Z</time>
      </trkpt>
      <trkpt lat="53.983515026047826" lon="13.910653023049235">
        <ele>1.58</ele>
        <time>2024-09-16T13:38:46Z</time>
      </trkpt>
      <trkpt lat="53.983706971630454" lon="13.911284012719989">
        <ele>2.06</ele>
        <time>2024-09-16T13:38:52Z</time>
      </trkpt>
      <trkpt lat="53.983724992722273" lon="13.911341009661555">
        <ele>2.06</ele>
        <time>2024-09-16T13:38:53Z</time>
      </trkpt>
      <trkpt lat="53.983741002157331" lon="13.911389037966728">
        <ele>2.54</ele>
        <time>2024-09-16T13:38:54Z</time>
      </trkpt>
      <trkpt lat="53.983612004667521" lon="13.911588024348021">
        <ele>2.06</ele>
        <time>2024-09-16T13:38:56Z</time>
      </trkpt>
      <trkpt lat="53.983479989692569" lon="13.911677040159702">
        <ele>2.06</ele>
        <time>2024-09-16T13:38:57Z</time>
      </trkpt>
      <trkpt lat="53.982965005561709" lon="13.912023967131972">
        <ele>3.02</ele>
        <time>2024-09-16T13:39:03Z</time>
      </trkpt>
      <trkpt lat="53.982875989750028" lon="13.912108959630132">
        <ele>3.02</ele>
        <time>2024-09-16T13:39:04Z</time>
      </trkpt>
      <trkpt lat="53.982797032222152" lon="13.912213984876871">
        <ele>3.02</ele>
        <time>2024-09-16T13:39:05Z</time>
      </trkpt>
      <trkpt lat="53.982254974544048" lon="13.912967015057802">
        <ele>5.42</ele>
        <time>2024-09-16T13:39:12Z</time>
      </trkpt>
      <trkpt lat="53.98217199370265" lon="13.913080003112555">
        <ele>5.42</ele>
        <time>2024-09-16T13:39:13Z</time>
      </trkpt>
      <trkpt lat="53.981159962713718" lon="13.914211979135871">
        <ele>7.83</ele>
        <time>2024-09-16T13:39:23Z</time>
      </trkpt>
      <trkpt lat="53.980039972811937" lon="13.915463984012604">
        <ele>8.310000000000001</ele>
        <time>2024-09-16T13:39:32Z</time>
      </trkpt>
      <trkpt lat="53.979304041713476" lon="13.916451036930084">
        <ele>8.789999999999999</ele>
        <time>2024-09-16T13:39:38Z</time>
      </trkpt>
      <trkpt lat="53.979205973446369" lon="13.916665026918054">
        <ele>9.27</ele>
        <time>2024-09-16T13:39:39Z</time>
      </trkpt>
      <trkpt lat="53.97834800183773" lon="13.918545003980398">
        <ele>9.27</ele>
        <time>2024-09-16T13:39:48Z</time>
      </trkpt>
      <trkpt lat="53.977302024140954" lon="13.920166986063123">
        <ele>8.310000000000001</ele>
        <time>2024-09-16T13:39:57Z</time>
      </trkpt>
      <trkpt lat="53.976020012050867" lon="13.921594005078077">
        <ele>4.46</ele>
        <time>2024-09-16T13:40:06Z</time>
      </trkpt>
      <trkpt lat="53.974761972203851" lon="13.923086989670992">
        <ele>-1.79</ele>
        <time>2024-09-16T13:40:15Z</time>
      </trkpt>
      <trkpt lat="53.973758993670344" lon="13.924969984218478">
        <ele>-9</ele>
        <time>2024-09-16T13:40:24Z</time>
      </trkpt>
      <trkpt lat="53.972645960748196" lon="13.926878040656447">
        <ele>-11.880000000000001</ele>
        <time>2024-09-16T13:40:33Z</time>
      </trkpt>
      <trkpt lat="53.971648011356592" lon="13.928535981103778">
        <ele>-11.4</ele>
        <time>2024-09-16T13:40:41Z</time>
      </trkpt>
      <trkpt lat="53.971523959189653" lon="13.928741002455354">
        <ele>-10.92</ele>
        <time>2024-09-16T13:40:42Z</time>
      </trkpt>
      <trkpt lat="53.970642015337944" lon="13.930197022855282">
        <ele>-9.960000000000001</ele>
        <time>2024-09-16T13:40:49Z</time>
      </trkpt>
      <trkpt lat="53.969514984637499" lon="13.932055961340666">
        <ele>-6.59</ele>
        <time>2024-09-16T13:40:58Z</time>
      </trkpt>
      <trkpt lat="53.96818301640451" lon="13.934255037456751">
        <ele>-4.67</ele>
        <time>2024-09-16T13:41:09Z</time>
      </trkpt>
      <trkpt lat="53.967410959303379" lon="13.935530008748174">
        <ele>-2.27</ele>
        <time>2024-09-16T13:41:16Z</time>
      </trkpt>
      <trkpt lat="53.967319009825587" lon="13.935681972652674">
        <ele>-2.27</ele>
        <time>2024-09-16T13:41:17Z</time>
      </trkpt>
      <trkpt lat="53.967225970700383" lon="13.935828991234303">
        <ele>-1.79</ele>
        <time>2024-09-16T13:41:18Z</time>
      </trkpt>
      <trkpt lat="53.966629011556506" lon="13.936456963419914">
        <ele>-0.82</ele>
        <time>2024-09-16T13:41:25Z</time>
      </trkpt>
      <trkpt lat="53.96635802462697" lon="13.936755023896694">
        <ele>-0.82</ele>
        <time>2024-09-16T13:41:29Z</time>
      </trkpt>
      <trkpt lat="53.966007996350527" lon="13.937434041872621">
        <ele>0.14</ele>
        <time>2024-09-16T13:41:36Z</time>
      </trkpt>
      <trkpt lat="53.965943036600947" lon="13.937477041035891">
        <ele>0.14</ele>
        <time>2024-09-16T13:41:37Z</time>
      </trkpt>
      <trkpt lat="53.965877993032336" lon="13.937520962208509">
        <ele>0.14</ele>
        <time>2024-09-16T13:41:38Z</time>
      </trkpt>
      <trkpt lat="53.965814039111137" lon="13.937553986907005">
        <ele>0.14</ele>
        <time>2024-09-16T13:41:39Z</time>
      </trkpt>
      <trkpt lat="53.965747989714146" lon="13.937563961371779">
        <ele>0.14</ele>
        <time>2024-09-16T13:41:40Z</time>
      </trkpt>
      <trkpt lat="53.965681018307805" lon="13.937574019655585">
        <ele>0.14</ele>
        <time>2024-09-16T13:41:41Z</time>
      </trkpt>
      <trkpt lat="53.965612035244703" lon="13.937582988291979">
        <ele>0.14</ele>
        <time>2024-09-16T13:41:42Z</time>
      </trkpt>
      <trkpt lat="53.965530982241035" lon="13.937594974413514">
        <ele>0.14</ele>
        <time>2024-09-16T13:41:43Z</time>
      </trkpt>
      <trkpt lat="53.965452024713159" lon="13.937727995216846">
        <ele>0.14</ele>
        <time>2024-09-16T13:41:44Z</time>
      </trkpt>
      <trkpt lat="53.965440960600972" lon="13.937811981886625">
        <ele>0.14</ele>
        <time>2024-09-16T13:41:45Z</time>
      </trkpt>
      <trkpt lat="53.965430986136198" lon="13.937888005748391">
        <ele>0.14</ele>
        <time>2024-09-16T13:41:46Z</time>
      </trkpt>
      <trkpt lat="53.965424029156566" lon="13.937937961891294">
        <ele>0.14</ele>
        <time>2024-09-16T13:41:47Z</time>
      </trkpt>
      <trkpt lat="53.965360997244716" lon="13.937934022396803">
        <ele>0.14</ele>
        <time>2024-09-16T13:41:48Z</time>
      </trkpt>
      <trkpt lat="53.965111970901489" lon="13.937917007133365">
        <ele>0.14</ele>
        <time>2024-09-16T13:41:51Z</time>
      </trkpt>
      <trkpt lat="53.965017003938556" lon="13.937909966334701">
        <ele>0.62</ele>
        <time>2024-09-16T13:41:52Z</time>
      </trkpt>
      <trkpt lat="53.96491901949048" lon="13.937904015183449">
        <ele>1.1</ele>
        <time>2024-09-16T13:41:53Z</time>
      </trkpt>
      <trkpt lat="53.96472699008882" lon="13.937832014635205">
        <ele>3.02</ele>
        <time>2024-09-16T13:41:55Z</time>
      </trkpt>
      <trkpt lat="53.964621964842081" lon="13.937740987166762">
        <ele>3.98</ele>
        <time>2024-09-16T13:41:56Z</time>
      </trkpt>
      <trkpt lat="53.963914029300213" lon="13.936902964487672">
        <ele>9.27</ele>
        <time>2024-09-16T13:42:03Z</time>
      </trkpt>
      <trkpt lat="53.963384963572025" lon="13.936199974268675">
        <ele>10.710000000000001</ele>
        <time>2024-09-16T13:42:08Z</time>
      </trkpt>
      <trkpt lat="53.963211961090565" lon="13.936151023954153">
        <ele>10.710000000000001</ele>
        <time>2024-09-16T13:42:09Z</time>
      </trkpt>
      <trkpt lat="53.963055973872542" lon="13.936106013134122">
        <ele>11.19</ele>
        <time>2024-09-16T13:42:10Z</time>
      </trkpt>
      <trkpt lat="53.962886994704604" lon="13.936056979000568">
        <ele>11.19</ele>
        <time>2024-09-16T13:42:11Z</time>
      </trkpt>
      <trkpt lat="53.962698988616467" lon="13.936004005372524">
        <ele>11.19</ele>
        <time>2024-09-16T13:42:12Z</time>
      </trkpt>
      <trkpt lat="53.961690980941057" lon="13.93571499735117">
        <ele>11.19</ele>
        <time>2024-09-16T13:42:17Z</time>
      </trkpt>
      <trkpt lat="53.960034968331456" lon="13.935211999341846">
        <ele>12.15</ele>
        <time>2024-09-16T13:42:25Z</time>
      </trkpt>
      <trkpt lat="53.95987001247704" lon="13.935129018500447">
        <ele>12.630000000000001</ele>
        <time>2024-09-16T13:42:26Z</time>
      </trkpt>
      <trkpt lat="53.959725005552173" lon="13.935003960505128">
        <ele>12.630000000000001</ele>
        <time>2024-09-16T13:42:27Z</time>
      </trkpt>
      <trkpt lat="53.959604976698756" lon="13.934831041842699">
        <ele>13.119999999999999</ele>
        <time>2024-09-16T13:42:28Z</time>
      </trkpt>
      <trkpt lat="53.959481008350849" lon="13.934652004390955">
        <ele>13.6</ele>
        <time>2024-09-16T13:42:29Z</time>
      </trkpt>
      <trkpt lat="53.9593540225178" lon="13.93446902744472">
        <ele>14.56</ele>
        <time>2024-09-16T13:42:30Z</time>
      </trkpt>
      <trkpt lat="53.959227036684752" lon="13.934284960851073">
        <ele>15.039999999999999</ele>
        <time>2024-09-16T13:42:31Z</time>
      </trkpt>
      <trkpt lat="53.957918034866452" lon="13.932394003495574">
        <ele>13.6</ele>
        <time>2024-09-16T13:42:40Z</time>
      </trkpt>
      <trkpt lat="53.957176990807056" lon="13.931374009698629">
        <ele>11.67</ele>
        <time>2024-09-16T13:42:45Z</time>
      </trkpt>
      <trkpt lat="53.957009017467499" lon="13.931221961975098">
        <ele>11.67</ele>
        <time>2024-09-16T13:42:46Z</time>
      </trkpt>
      <trkpt lat="53.95683903247118" lon="13.931067986413836">
        <ele>11.67</ele>
        <time>2024-09-16T13:42:47Z</time>
      </trkpt>
      <trkpt lat="53.956668963655829" lon="13.930914010852575">
        <ele>11.67</ele>
        <time>2024-09-16T13:42:48Z</time>
      </trkpt>
      <trkpt lat="53.95647500641644" lon="13.930835975334048">
        <ele>11.19</ele>
        <time>2024-09-16T13:42:49Z</time>
      </trkpt>
      <trkpt lat="53.956280965358019" lon="13.930826000869274">
        <ele>11.19</ele>
        <time>2024-09-16T13:42:50Z</time>
      </trkpt>
      <trkpt lat="53.956078961491585" lon="13.930830024182796">
        <ele>10.710000000000001</ele>
        <time>2024-09-16T13:42:51Z</time>
      </trkpt>
      <trkpt lat="53.954382967203856" lon="13.931174017488956">
        <ele>10.23</ele>
        <time>2024-09-16T13:42:59Z</time>
      </trkpt>
      <trkpt lat="53.95273701287806" lon="13.931325981393456">
        <ele>10.710000000000001</ele>
        <time>2024-09-16T13:43:07Z</time>
      </trkpt>
      <trkpt lat="53.951433962211013" lon="13.930553002282977">
        <ele>12.15</ele>
        <time>2024-09-16T13:43:14Z</time>
      </trkpt>
      <trkpt lat="53.949830001220107" lon="13.929249029606581">
        <ele>15.039999999999999</ele>
        <time>2024-09-16T13:43:23Z</time>
      </trkpt>
      <trkpt lat="53.948763990774751" lon="13.928374964743853">
        <ele>18.399999999999999</ele>
        <time>2024-09-16T13:43:30Z</time>
      </trkpt>
      <trkpt lat="53.948257975280285" lon="13.92796098254621">
        <ele>18.399999999999999</ele>
        <time>2024-09-16T13:43:35Z</time>
      </trkpt>
      <trkpt lat="53.948140041902661" lon="13.927921000868082">
        <ele>18.399999999999999</ele>
        <time>2024-09-16T13:43:36Z</time>
      </trkpt>
      <trkpt lat="53.948026970028877" lon="13.927884036675096">
        <ele>18.399999999999999</ele>
        <time>2024-09-16T13:43:37Z</time>
      </trkpt>
      <trkpt lat="53.947803005576134" lon="13.927810024470091">
        <ele>18.879999999999999</ele>
        <time>2024-09-16T13:43:39Z</time>
      </trkpt>
      <trkpt lat="53.947560014203191" lon="13.927731988951564">
        <ele>20.809999999999999</ele>
        <time>2024-09-16T13:43:41Z</time>
      </trkpt>
      <trkpt lat="53.947436967864633" lon="13.927693013101816">
        <ele>21.289999999999999</ele>
        <time>2024-09-16T13:43:42Z</time>
      </trkpt>
      <trkpt lat="53.946361988782883" lon="13.927479023113847">
        <ele>21.289999999999999</ele>
        <time>2024-09-16T13:43:52Z</time>
      </trkpt>
      <trkpt lat="53.945461018010974" lon="13.927339967340231">
        <ele>19.359999999999999</ele>
        <time>2024-09-16T13:44:01Z</time>
      </trkpt>
      <trkpt lat="53.945363033562899" lon="13.927350025624037">
        <ele>19.359999999999999</ele>
        <time>2024-09-16T13:44:02Z</time>
      </trkpt>
      <trkpt lat="53.945255996659398" lon="13.927365029230714">
        <ele>19.359999999999999</ele>
        <time>2024-09-16T13:44:03Z</time>
      </trkpt>
      <trkpt lat="53.945145020261407" lon="13.927381038665771">
        <ele>19.359999999999999</ele>
        <time>2024-09-16T13:44:04Z</time>
      </trkpt>
      <trkpt lat="53.945033038035035" lon="13.927396964281797">
        <ele>18.879999999999999</ele>
        <time>2024-09-16T13:44:05Z</time>
      </trkpt>
      <trkpt lat="53.944803960621357" lon="13.927429988980293">
        <ele>18.879999999999999</ele>
        <time>2024-09-16T13:44:07Z</time>
      </trkpt>
      <trkpt lat="53.944689966738224" lon="13.927445998415351">
        <ele>18.879999999999999</ele>
        <time>2024-09-16T13:44:08Z</time>
      </trkpt>
      <trkpt lat="53.943508034572005" lon="13.927836008369923">
        <ele>19.84</ele>
        <time>2024-09-16T13:44:17Z</time>
      </trkpt>
      <trkpt lat="53.942348985001445" lon="13.928647041320801">
        <ele>18.879999999999999</ele>
        <time>2024-09-16T13:44:26Z</time>
      </trkpt>
      <trkpt lat="53.941030008718371" lon="13.929626969620585">
        <ele>15.52</ele>
        <time>2024-09-16T13:44:35Z</time>
      </trkpt>
      <trkpt lat="53.939292021095753" lon="13.930962961167097">
        <ele>13.119999999999999</ele>
        <time>2024-09-16T13:44:45Z</time>
      </trkpt>
      <trkpt lat="53.937785960733891" lon="13.932268023490906">
        <ele>13.119999999999999</ele>
        <time>2024-09-16T13:44:54Z</time>
      </trkpt>
      <trkpt lat="53.936712993308902" lon="13.933498989790678">
        <ele>11.19</ele>
        <time>2024-09-16T13:45:02Z</time>
      </trkpt>
      <trkpt lat="53.935254039242864" lon="13.935232032090425">
        <ele>8.310000000000001</ele>
        <time>2024-09-16T13:45:14Z</time>
      </trkpt>
      <trkpt lat="53.93488297238946" lon="13.935722038149834">
        <ele>7.35</ele>
        <time>2024-09-16T13:45:17Z</time>
      </trkpt>
      <trkpt lat="53.93380799330771" lon="13.937142016366124">
        <ele>4.94</ele>
        <time>2024-09-16T13:45:25Z</time>
      </trkpt>
      <trkpt lat="53.932235967367887" lon="13.938972037285566">
        <ele>1.58</ele>
        <time>2024-09-16T13:45:34Z</time>
      </trkpt>
      <trkpt lat="53.93017896451056" lon="13.941205982118845">
        <ele>-2.27</ele>
        <time>2024-09-16T13:45:44Z</time>
      </trkpt>
      <trkpt lat="53.928465032950044" lon="13.943080008029938">
        <ele>-4.19</ele>
        <time>2024-09-16T13:45:52Z</time>
      </trkpt>
      <trkpt lat="53.925842000171542" lon="13.945944020524621">
        <ele>-2.27</ele>
        <time>2024-09-16T13:46:04Z</time>
      </trkpt>
      <trkpt lat="53.924386985599995" lon="13.947531972080469">
        <ele>-1.3</ele>
        <time>2024-09-16T13:46:12Z</time>
      </trkpt>
      <trkpt lat="53.923711990937591" lon="13.948290031403303">
        <ele>1.1</ele>
        <time>2024-09-16T13:46:18Z</time>
      </trkpt>
      <trkpt lat="53.923176974058151" lon="13.948899982497096">
        <ele>2.54</ele>
        <time>2024-09-16T13:46:23Z</time>
      </trkpt>
      <trkpt lat="53.923034984618425" lon="13.949009031057358">
        <ele>3.02</ele>
        <time>2024-09-16T13:46:24Z</time>
      </trkpt>
      <trkpt lat="53.922888971865177" lon="13.949091006070375">
        <ele>3.02</ele>
        <time>2024-09-16T13:46:25Z</time>
      </trkpt>
      <trkpt lat="53.921760013327003" lon="13.949371967464685">
        <ele>4.46</ele>
        <time>2024-09-16T13:46:31Z</time>
      </trkpt>
      <trkpt lat="53.920231992378831" lon="13.949691988527775">
        <ele>5.42</ele>
        <time>2024-09-16T13:46:38Z</time>
      </trkpt>
      <trkpt lat="53.919290034100413" lon="13.949889969080687">
        <ele>5.91</ele>
        <time>2024-09-16T13:46:43Z</time>
      </trkpt>
      <trkpt lat="53.919153995811939" lon="13.950070012360811">
        <ele>5.91</ele>
        <time>2024-09-16T13:46:44Z</time>
      </trkpt>
      <trkpt lat="53.91902700997889" lon="13.95023999735713">
        <ele>5.91</ele>
        <time>2024-09-16T13:46:45Z</time>
      </trkpt>
      <trkpt lat="53.918893989175558" lon="13.950417023152113">
        <ele>5.91</ele>
        <time>2024-09-16T13:46:46Z</time>
      </trkpt>
      <trkpt lat="53.918753005564213" lon="13.950603017583489">
        <ele>5.42</ele>
        <time>2024-09-16T13:46:47Z</time>
      </trkpt>
      <trkpt lat="53.917348030954599" lon="13.952534040436149">
        <ele>3.5</ele>
        <time>2024-09-16T13:46:57Z</time>
      </trkpt>
      <trkpt lat="53.917264966294169" lon="13.952738977968693">
        <ele>3.5</ele>
        <time>2024-09-16T13:46:58Z</time>
      </trkpt>
      <trkpt lat="53.917181985452771" lon="13.95294601097703">
        <ele>3.02</ele>
        <time>2024-09-16T13:46:59Z</time>
      </trkpt>
      <trkpt lat="53.91709397546947" lon="13.953165030106902">
        <ele>3.02</ele>
        <time>2024-09-16T13:47:00Z</time>
      </trkpt>
      <trkpt lat="53.916457034647465" lon="13.954739989712834">
        <ele>2.06</ele>
        <time>2024-09-16T13:47:07Z</time>
      </trkpt>
      <trkpt lat="53.916313033550978" lon="13.954845014959574">
        <ele>2.54</ele>
        <time>2024-09-16T13:47:08Z</time>
      </trkpt>
      <trkpt lat="53.916157968342304" lon="13.954960014671087">
        <ele>2.54</ele>
        <time>2024-09-16T13:47:09Z</time>
      </trkpt>
      <trkpt lat="53.915989995002747" lon="13.955082977190614">
        <ele>3.02</ele>
        <time>2024-09-16T13:47:10Z</time>
      </trkpt>
      <trkpt lat="53.915814980864525" lon="13.955210968852043">
        <ele>3.98</ele>
        <time>2024-09-16T13:47:11Z</time>
      </trkpt>
      <trkpt lat="53.914441019296646" lon="13.956221994012594">
        <ele>6.39</ele>
        <time>2024-09-16T13:47:18Z</time>
      </trkpt>
      <trkpt lat="53.913259003311396" lon="13.957090023905039">
        <ele>9.27</ele>
        <time>2024-09-16T13:47:24Z</time>
      </trkpt>
      <trkpt lat="53.913060016930103" lon="13.95715800113976">
        <ele>9.27</ele>
        <time>2024-09-16T13:47:25Z</time>
      </trkpt>
      <trkpt lat="53.912885002791882" lon="13.957198988646269">
        <ele>8.789999999999999</ele>
        <time>2024-09-16T13:47:26Z</time>
      </trkpt>
      <trkpt lat="53.912317967042327" lon="13.957332009449601">
        <ele>7.83</ele>
        <time>2024-09-16T13:47:30Z</time>
      </trkpt>
      <trkpt lat="53.912118980661035" lon="13.957417001947761">
        <ele>7.35</ele>
        <time>2024-09-16T13:47:32Z</time>
      </trkpt>
      <trkpt lat="53.911928040906787" lon="13.957543987780809">
        <ele>6.87</ele>
        <time>2024-09-16T13:47:34Z</time>
      </trkpt>
      <trkpt lat="53.911847993731499" lon="13.957597967237234">
        <ele>6.87</ele>
        <time>2024-09-16T13:47:35Z</time>
      </trkpt>
      <trkpt lat="53.911801977083087" lon="13.957690000534058">
        <ele>6.39</ele>
        <time>2024-09-16T13:47:36Z</time>
      </trkpt>
      <trkpt lat="53.9117650128901" lon="13.957826038822532">
        <ele>5.91</ele>
        <time>2024-09-16T13:47:37Z</time>
      </trkpt>
      <trkpt lat="53.911726959049702" lon="13.957962999120355">
        <ele>5.91</ele>
        <time>2024-09-16T13:47:38Z</time>
      </trkpt>
      <trkpt lat="53.911688989028335" lon="13.958102976903319">
        <ele>5.91</ele>
        <time>2024-09-16T13:47:39Z</time>
      </trkpt>
      <trkpt lat="53.911607014015317" lon="13.958401959389448">
        <ele>5.42</ele>
        <time>2024-09-16T13:47:41Z</time>
      </trkpt>
      <trkpt lat="53.911566026508808" lon="13.958551995456219">
        <ele>5.42</ele>
        <time>2024-09-16T13:47:42Z</time>
      </trkpt>
      <trkpt lat="53.911529984325171" lon="13.95868401043117">
        <ele>5.42</ele>
        <time>2024-09-16T13:47:43Z</time>
      </trkpt>
      <trkpt lat="53.911438034847379" lon="13.959019035100937">
        <ele>4.46</ele>
        <time>2024-09-16T13:47:46Z</time>
      </trkpt>
      <trkpt lat="53.911414984613657" lon="13.959103021770716">
        <ele>4.46</ele>
        <time>2024-09-16T13:47:47Z</time>
      </trkpt>
      <trkpt lat="53.911396041512489" lon="13.959173010662198">
        <ele>4.46</ele>
        <time>2024-09-16T13:47:48Z</time>
      </trkpt>
      <trkpt lat="53.911336027085781" lon="13.959139985963702">
        <ele>4.46</ele>
        <time>2024-09-16T13:47:49Z</time>
      </trkpt>
      <trkpt lat="53.911276012659073" lon="13.959096986800432">
        <ele>4.46</ele>
        <time>2024-09-16T13:47:50Z</time>
      </trkpt>
      <trkpt lat="53.911198982968926" lon="13.959040995687246">
        <ele>4.46</ele>
        <time>2024-09-16T13:47:51Z</time>
      </trkpt>
      <trkpt lat="53.911112984642386" lon="13.958977963775396">
        <ele>4.46</ele>
        <time>2024-09-16T13:47:52Z</time>
      </trkpt>
      <trkpt lat="53.910223999992013" lon="13.958352003246546">
        <ele>8.310000000000001</ele>
        <time>2024-09-16T13:48:00Z</time>
      </trkpt>
      <trkpt lat="53.909108033403754" lon="13.957611965015531">
        <ele>14.56</ele>
        <time>2024-09-16T13:48:08Z</time>
      </trkpt>
      <trkpt lat="53.9089709892869" lon="13.957582963630557">
        <ele>15.52</ele>
        <time>2024-09-16T13:48:09Z</time>
      </trkpt>
      <trkpt lat="53.908818019554019" lon="13.957551028579473">
        <ele>16.48</ele>
        <time>2024-09-16T13:48:10Z</time>
      </trkpt>
      <trkpt lat="53.9086929615587" lon="13.957609031349421">
        <ele>17.440000000000001</ele>
        <time>2024-09-16T13:48:11Z</time>
      </trkpt>
      <trkpt lat="53.908545020967722" lon="13.957678014412522">
        <ele>18.399999999999999</ele>
        <time>2024-09-16T13:48:12Z</time>
      </trkpt>
      <trkpt lat="53.90839196741581" lon="13.957749009132385">
        <ele>19.84</ele>
        <time>2024-09-16T13:48:13Z</time>
      </trkpt>
      <trkpt lat="53.906978024169803" lon="13.958446970209479">
        <ele>27.050000000000001</ele>
        <time>2024-09-16T13:48:21Z</time>
      </trkpt>
      <trkpt lat="53.905464000999928" lon="13.959298990666866">
        <ele>30.420000000000002</ele>
        <time>2024-09-16T13:48:30Z</time>
      </trkpt>
      <trkpt lat="53.904375024139881" lon="13.96040397696197">
        <ele>30.420000000000002</ele>
        <time>2024-09-16T13:48:37Z</time>
      </trkpt>
      <trkpt lat="53.90422398224473" lon="13.960558036342263">
        <ele>30.420000000000002</ele>
        <time>2024-09-16T13:48:38Z</time>
      </trkpt>
      <trkpt lat="53.904059026390314" lon="13.960727015510201">
        <ele>30.899999999999999</ele>
        <time>2024-09-16T13:48:39Z</time>
      </trkpt>
      <trkpt lat="53.903891975060105" lon="13.96089700050652">
        <ele>31.379999999999999</ele>
        <time>2024-09-16T13:48:40Z</time>
      </trkpt>
      <trkpt lat="53.903726013377309" lon="13.961064973846078">
        <ele>31.379999999999999</ele>
        <time>2024-09-16T13:48:41Z</time>
      </trkpt>
      <trkpt lat="53.903570026159286" lon="13.961223978549242">
        <ele>31.859999999999999</ele>
        <time>2024-09-16T13:48:42Z</time>
      </trkpt>
      <trkpt lat="53.903414960950613" lon="13.961381977424026">
        <ele>31.859999999999999</ele>
        <time>2024-09-16T13:48:43Z</time>
      </trkpt>
      <trkpt lat="53.90325796790421" lon="13.96154198795557">
        <ele>31.859999999999999</ele>
        <time>2024-09-16T13:48:44Z</time>
      </trkpt>
      <trkpt lat="53.903111033141613" lon="13.961692024022341">
        <ele>32.340000000000003</ele>
        <time>2024-09-16T13:48:45Z</time>
      </trkpt>
      <trkpt lat="53.901895992457867" lon="13.962187981233001">
        <ele>32.82</ele>
        <time>2024-09-16T13:48:51Z</time>
      </trkpt>
      <trkpt lat="53.900913968682289" lon="13.962652003392577">
        <ele>31.859999999999999</ele>
        <time>2024-09-16T13:48:56Z</time>
      </trkpt>
      <trkpt lat="53.900550026446581" lon="13.9629150275141">
        <ele>31.859999999999999</ele>
        <time>2024-09-16T13:48:58Z</time>
      </trkpt>
      <trkpt lat="53.900367971509695" lon="13.96304695867002">
        <ele>31.859999999999999</ele>
        <time>2024-09-16T13:48:59Z</time>
      </trkpt>
      <trkpt lat="53.898872975260019" lon="13.963952036574483">
        <ele>29.940000000000001</ele>
        <time>2024-09-16T13:49:07Z</time>
      </trkpt>
      <trkpt lat="53.89719701372087" lon="13.964605992659926">
        <ele>28.98</ele>
        <time>2024-09-16T13:49:15Z</time>
      </trkpt>
      <trkpt lat="53.895752979442477" lon="13.965141009539366">
        <ele>28.98</ele>
        <time>2024-09-16T13:49:23Z</time>
      </trkpt>
      <trkpt lat="53.894478008151054" lon="13.965614000335336">
        <ele>28.98</ele>
        <time>2024-09-16T13:49:30Z</time>
      </trkpt>
      <trkpt lat="53.893454996868968" lon="13.965983977541327">
        <ele>27.530000000000001</ele>
        <time>2024-09-16T13:49:37Z</time>
      </trkpt>
      <trkpt lat="53.893076973035932" lon="13.966106018051505">
        <ele>25.609999999999999</ele>
        <time>2024-09-16T13:49:42Z</time>
      </trkpt>
      <trkpt lat="53.893005978316069" lon="13.96613703109324">
        <ele>24.649999999999999</ele>
        <time>2024-09-16T13:49:44Z</time>
      </trkpt>
      <trkpt lat="53.892866000533104" lon="13.966013984754682">
        <ele>24.649999999999999</ele>
        <time>2024-09-16T13:49:45Z</time>
      </trkpt>
      <trkpt lat="53.892827024683356" lon="13.965894039720297">
        <ele>24.170000000000002</ele>
        <time>2024-09-16T13:49:46Z</time>
      </trkpt>
      <trkpt lat="53.892481019720435" lon="13.964820988476276">
        <ele>24.170000000000002</ele>
        <time>2024-09-16T13:49:51Z</time>
      </trkpt>
      <trkpt lat="53.892081035301089" lon="13.963662022724748">
        <ele>24.649999999999999</ele>
        <time>2024-09-16T13:49:55Z</time>
      </trkpt>
      <trkpt lat="53.891975004225969" lon="13.963364968076348">
        <ele>25.129999999999999</ele>
        <time>2024-09-16T13:49:56Z</time>
      </trkpt>
      <trkpt lat="53.8909010309726" lon="13.960064006969333">
        <ele>24.170000000000002</ele>
        <time>2024-09-16T13:50:07Z</time>
      </trkpt>
      <trkpt lat="53.889918001368642" lon="13.957054987549782">
        <ele>22.73</ele>
        <time>2024-09-16T13:50:16Z</time>
      </trkpt>
      <trkpt lat="53.888331977650523" lon="13.952198009938002">
        <ele>18.399999999999999</ele>
        <time>2024-09-16T13:50:30Z</time>
      </trkpt>
      <trkpt lat="53.88720796443522" lon="13.948723962530494">
        <ele>16.48</ele>
        <time>2024-09-16T13:50:40Z</time>
      </trkpt>
      <trkpt lat="53.887064969167113" lon="13.948420034721494">
        <ele>16.48</ele>
        <time>2024-09-16T13:50:41Z</time>
      </trkpt>
      <trkpt lat="53.885756973177195" lon="13.945763977244496">
        <ele>11.19</ele>
        <time>2024-09-16T13:50:50Z</time>
      </trkpt>
      <trkpt lat="53.884324003010988" lon="13.942945981398225">
        <ele>9.75</ele>
        <time>2024-09-16T13:51:00Z</time>
      </trkpt>
      <trkpt lat="53.882875023409724" lon="13.939975015819073">
        <ele>8.789999999999999</ele>
        <time>2024-09-16T13:51:10Z</time>
      </trkpt>
      <trkpt lat="53.882278986275196" lon="13.938458980992436">
        <ele>8.789999999999999</ele>
        <time>2024-09-16T13:51:16Z</time>
      </trkpt>
      <trkpt lat="53.881391007453203" lon="13.936090003699064">
        <ele>10.23</ele>
        <time>2024-09-16T13:51:25Z</time>
      </trkpt>
      <trkpt lat="53.880807962268591" lon="13.934283033013344">
        <ele>8.789999999999999</ele>
        <time>2024-09-16T13:51:32Z</time>
      </trkpt>
      <trkpt lat="53.880437985062599" lon="13.932940000668168">
        <ele>8.789999999999999</ele>
        <time>2024-09-16T13:51:38Z</time>
      </trkpt>
      <trkpt lat="53.879771959036589" lon="13.931556986644864">
        <ele>8.310000000000001</ele>
        <time>2024-09-16T13:51:45Z</time>
      </trkpt>
      <trkpt lat="53.879383038729429" lon="13.930893978103995">
        <ele>6.39</ele>
        <time>2024-09-16T13:51:50Z</time>
      </trkpt>
      <trkpt lat="53.879320006817579" lon="13.930744025856256">
        <ele>5.91</ele>
        <time>2024-09-16T13:51:51Z</time>
      </trkpt>
      <trkpt lat="53.878550967201591" lon="13.92877503298223">
        <ele>1.58</ele>
        <time>2024-09-16T13:52:04Z</time>
      </trkpt>
      <trkpt lat="53.878333037719131" lon="13.928170027211308">
        <ele>2.06</ele>
        <time>2024-09-16T13:52:10Z</time>
      </trkpt>
      <trkpt lat="53.878305964171886" lon="13.92808897420764">
        <ele>2.54</ele>
        <time>2024-09-16T13:52:11Z</time>
      </trkpt>
      <trkpt lat="53.87829196639359" lon="13.928036000579596">
        <ele>2.54</ele>
        <time>2024-09-16T13:52:12Z</time>
      </trkpt>
      <trkpt lat="53.878275034949183" lon="13.927967017516494">
        <ele>2.54</ele>
        <time>2024-09-16T13:52:13Z</time>
      </trkpt>
      <trkpt lat="53.878255002200603" lon="13.927886970341206">
        <ele>3.02</ele>
        <time>2024-09-16T13:52:14Z</time>
      </trkpt>
      <trkpt lat="53.878230024129152" lon="13.927799966186285">
        <ele>3.02</ele>
        <time>2024-09-16T13:52:15Z</time>
      </trkpt>
      <trkpt lat="53.878192976117134" lon="13.927696030586958">
        <ele>3.02</ele>
        <time>2024-09-16T13:52:16Z</time>
      </trkpt>
      <trkpt lat="53.877898016944528" lon="13.926624990999699">
        <ele>1.58</ele>
        <time>2024-09-16T13:52:24Z</time>
      </trkpt>
      <trkpt lat="53.877652008086443" lon="13.925151033326983">
        <ele>-0.34</ele>
        <time>2024-09-16T13:52:32Z</time>
      </trkpt>
      <trkpt lat="53.877310026437044" lon="13.923038961365819">
        <ele>0.14</ele>
        <time>2024-09-16T13:52:43Z</time>
      </trkpt>
      <trkpt lat="53.876972990110517" lon="13.921165019273758">
        <ele>0.62</ele>
        <time>2024-09-16T13:52:53Z</time>
      </trkpt>
      <trkpt lat="53.876938037574291" lon="13.920983970165253">
        <ele>1.1</ele>
        <time>2024-09-16T13:52:54Z</time>
      </trkpt>
      <trkpt lat="53.876896966248751" lon="13.920801999047399">
        <ele>1.58</ele>
        <time>2024-09-16T13:52:55Z</time>
      </trkpt>
      <trkpt lat="53.876724969595671" lon="13.920258013531566">
        <ele>2.06</ele>
        <time>2024-09-16T13:52:58Z</time>
      </trkpt>
      <trkpt lat="53.875792985782027" lon="13.918353980407119">
        <ele>0.14</ele>
        <time>2024-09-16T13:53:10Z</time>
      </trkpt>
      <trkpt lat="53.874909030273557" lon="13.916645999997854">
        <ele>0.62</ele>
        <time>2024-09-16T13:53:22Z</time>
      </trkpt>
      <trkpt lat="53.873985009267926" lon="13.91487599350512">
        <ele>2.06</ele>
        <time>2024-09-16T13:53:34Z</time>
      </trkpt>
      <trkpt lat="53.873223010450602" lon="13.91341402195394">
        <ele>1.58</ele>
        <time>2024-09-16T13:53:44Z</time>
      </trkpt>
      <trkpt lat="53.873151009902358" lon="13.913272032514215">
        <ele>1.58</ele>
        <time>2024-09-16T13:53:45Z</time>
      </trkpt>
      <trkpt lat="53.873084038496017" lon="13.913094000890851">
        <ele>1.1</ele>
        <time>2024-09-16T13:53:46Z</time>
      </trkpt>
      <trkpt lat="53.873062999919057" lon="13.912909012287855">
        <ele>1.1</ele>
        <time>2024-09-16T13:53:47Z</time>
      </trkpt>
      <trkpt lat="53.873055959120393" lon="13.912696028128266">
        <ele>0.62</ele>
        <time>2024-09-16T13:53:48Z</time>
      </trkpt>
      <trkpt lat="53.87307196855545" lon="13.912505004554987">
        <ele>0.62</ele>
        <time>2024-09-16T13:53:49Z</time>
      </trkpt>
      <trkpt lat="53.873088983818889" lon="13.912306018173695">
        <ele>0.14</ele>
        <time>2024-09-16T13:53:50Z</time>
      </trkpt>
      <trkpt lat="53.873402969911695" lon="13.909924970939755">
        <ele>-1.3</ele>
        <time>2024-09-16T13:54:01Z</time>
      </trkpt>
      <trkpt lat="53.873605979606509" lon="13.908369038254023">
        <ele>-2.75</ele>
        <time>2024-09-16T13:54:09Z</time>
      </trkpt>
      <trkpt lat="53.873614026233554" lon="13.908308017998934">
        <ele>-2.75</ele>
        <time>2024-09-16T13:54:10Z</time>
      </trkpt>
      <trkpt lat="53.873617965728045" lon="13.908270969986916">
        <ele>-2.75</ele>
        <time>2024-09-16T13:54:19Z</time>
      </trkpt>
      <trkpt lat="53.873617965728045" lon="13.908270969986916">
        <ele>-3.23</ele>
        <time>2024-09-16T13:54:47Z</time>
      </trkpt>
      <trkpt lat="53.873617965728045" lon="13.908270969986916">
        <ele>-3.71</ele>
        <time>2024-09-16T13:55:02Z</time>
      </trkpt>
      <trkpt lat="53.87390898540616" lon="13.908168962225318">
        <ele>-22.449999999999999</ele>
        <time>2024-09-16T13:58:29Z</time>
      </trkpt>
      <trkpt lat="53.873863974586129" lon="13.908062009140849">
        <ele>-29.18</ele>
        <time>2024-09-16T13:59:07Z</time>
      </trkpt>
      <trkpt lat="53.873852994292974" lon="13.908062009140849">
        <ele>-26.300000000000001</ele>
        <time>2024-09-16T13:59:25Z</time>
      </trkpt>
      <trkpt lat="53.873660964891315" lon="13.907920019701123">
        <ele>-22.449999999999999</ele>
        <time>2024-09-16T13:59:27Z</time>
      </trkpt>
      <trkpt lat="53.873666999861598" lon="13.907866040244699">
        <ele>-19.09</ele>
        <time>2024-09-16T13:59:28Z</time>
      </trkpt>
      <trkpt lat="53.873673034831882" lon="13.907820023596287">
        <ele>-16.690000000000001</ele>
        <time>2024-09-16T13:59:29Z</time>
      </trkpt>
      <trkpt lat="53.873678985983133" lon="13.907774006947875">
        <ele>-14.76</ele>
        <time>2024-09-16T13:59:30Z</time>
      </trkpt>
      <trkpt lat="53.873682003468275" lon="13.907745005562901">
        <ele>-13.32</ele>
        <time>2024-09-16T13:59:31Z</time>
      </trkpt>
      <trkpt lat="53.873691977933049" lon="13.907662024721503">
        <ele>-11.880000000000001</ele>
        <time>2024-09-16T13:59:32Z</time>
      </trkpt>
      <trkpt lat="53.873691977933049" lon="13.907662024721503">
        <ele>-4.19</ele>
        <time>2024-09-16T13:59:44Z</time>
      </trkpt>
      <trkpt lat="53.873694995418191" lon="13.907631011679769">
        <ele>-3.71</ele>
        <time>2024-09-16T13:59:45Z</time>
      </trkpt>
      <trkpt lat="53.873705975711346" lon="13.907516011968255">
        <ele>-3.71</ele>
        <time>2024-09-16T13:59:46Z</time>
      </trkpt>
      <trkpt lat="53.873718967661262" lon="13.90737603418529">
        <ele>-3.23</ele>
        <time>2024-09-16T13:59:47Z</time>
      </trkpt>
      <trkpt lat="53.873733971267939" lon="13.907217029482126">
        <ele>-3.23</ele>
        <time>2024-09-16T13:59:48Z</time>
      </trkpt>
      <trkpt lat="53.873768001794815" lon="13.905638968572021">
        <ele>-2.75</ele>
        <time>2024-09-16T13:59:55Z</time>
      </trkpt>
      <trkpt lat="53.87358502484858" lon="13.902633972465992">
        <ele>-1.79</ele>
        <time>2024-09-16T14:00:05Z</time>
      </trkpt>
      <trkpt lat="53.873798009008169" lon="13.900106996297836">
        <ele>-1.3</ele>
        <time>2024-09-16T14:00:13Z</time>
      </trkpt>
      <trkpt lat="53.874388011172414" lon="13.896576035767794">
        <ele>-1.3</ele>
        <time>2024-09-16T14:00:24Z</time>
      </trkpt>
      <trkpt lat="53.874674001708627" lon="13.894948018714786">
        <ele>-0.82</ele>
        <time>2024-09-16T14:00:29Z</time>
      </trkpt>
      <trkpt lat="53.874674001708627" lon="13.894625985994935">
        <ele>-0.82</ele>
        <time>2024-09-16T14:00:30Z</time>
      </trkpt>
      <trkpt lat="53.874666960909963" lon="13.894303031265736">
        <ele>-0.82</ele>
        <time>2024-09-16T14:00:31Z</time>
      </trkpt>
      <trkpt lat="53.874661009758711" lon="13.893980998545885">
        <ele>-1.3</ele>
        <time>2024-09-16T14:00:32Z</time>
      </trkpt>
      <trkpt lat="53.874623039737344" lon="13.893671035766602">
        <ele>-1.3</ele>
        <time>2024-09-16T14:00:33Z</time>
      </trkpt>
      <trkpt lat="53.87455296702683" lon="13.89337096363306">
        <ele>-1.3</ele>
        <time>2024-09-16T14:00:34Z</time>
      </trkpt>
      <trkpt lat="53.874481972306967" lon="13.893064018338919">
        <ele>-1.3</ele>
        <time>2024-09-16T14:00:35Z</time>
      </trkpt>
      <trkpt lat="53.874407960101962" lon="13.892759000882506">
        <ele>-1.79</ele>
        <time>2024-09-16T14:00:36Z</time>
      </trkpt>
      <trkpt lat="53.873990960419178" lon="13.890873994678259">
        <ele>-2.75</ele>
        <time>2024-09-16T14:00:42Z</time>
      </trkpt>
      <trkpt lat="53.873963970690966" lon="13.890565959736705">
        <ele>-3.23</ele>
        <time>2024-09-16T14:00:43Z</time>
      </trkpt>
      <trkpt lat="53.873953996226192" lon="13.890249961987138">
        <ele>-3.71</ele>
        <time>2024-09-16T14:00:44Z</time>
      </trkpt>
      <trkpt lat="53.873953996226192" lon="13.889928013086319">
        <ele>-3.71</ele>
        <time>2024-09-16T14:00:45Z</time>
      </trkpt>
      <trkpt lat="53.873961037024856" lon="13.889596005901694">
        <ele>-3.71</ele>
        <time>2024-09-16T14:00:46Z</time>
      </trkpt>
      <trkpt lat="53.874072013422847" lon="13.886537030339241">
        <ele>-5.15</ele>
        <time>2024-09-16T14:00:56Z</time>
      </trkpt>
      <trkpt lat="53.874024990946054" lon="13.883388033136725">
        <ele>-4.67</ele>
        <time>2024-09-16T14:01:06Z</time>
      </trkpt>
      <trkpt lat="53.873579995706677" lon="13.880071984604001">
        <ele>-4.19</ele>
        <time>2024-09-16T14:01:17Z</time>
      </trkpt>
      <trkpt lat="53.873234996572137" lon="13.87755498290062">
        <ele>-4.19</ele>
        <time>2024-09-16T14:01:25Z</time>
      </trkpt>
      <trkpt lat="53.872950011864305" lon="13.875469984486699">
        <ele>-4.19</ele>
        <time>2024-09-16T14:01:30Z</time>
      </trkpt>
      <trkpt lat="53.872593026608229" lon="13.872913001105189">
        <ele>-4.67</ele>
        <time>2024-09-16T14:01:38Z</time>
      </trkpt>
      <trkpt lat="53.872158005833626" lon="13.869788981974125">
        <ele>-4.19</ele>
        <time>2024-09-16T14:01:46Z</time>
      </trkpt>
      <trkpt lat="53.871796997264028" lon="13.867205008864403">
        <ele>-4.19</ele>
        <time>2024-09-16T14:01:51Z</time>
      </trkpt>
      <trkpt lat="53.871333980932832" lon="13.863885020837188">
        <ele>-3.71</ele>
        <time>2024-09-16T14:01:59Z</time>
      </trkpt>
      <trkpt lat="53.870664015412331" lon="13.859080011025071">
        <ele>-5.63</ele>
        <time>2024-09-16T14:02:12Z</time>
      </trkpt>
      <trkpt lat="53.870033025741577" lon="13.854644978418946">
        <ele>-2.75</ele>
        <time>2024-09-16T14:02:24Z</time>
      </trkpt>
      <trkpt lat="53.869546037167311" lon="13.851190963760018">
        <ele>-3.71</ele>
        <time>2024-09-16T14:02:33Z</time>
      </trkpt>
      <trkpt lat="53.868733998388052" lon="13.846849976107478">
        <ele>-0.82</ele>
        <time>2024-09-16T14:02:44Z</time>
      </trkpt>
      <trkpt lat="53.867515018209815" lon="13.841347005218267">
        <ele>-2.27</ele>
        <time>2024-09-16T14:02:58Z</time>
      </trkpt>
      <trkpt lat="53.86651698499918" lon="13.836792027577758">
        <ele>-1.3</ele>
        <time>2024-09-16T14:03:11Z</time>
      </trkpt>
      <trkpt lat="53.866078024730086" lon="13.83484298363328">
        <ele>-6.11</ele>
        <time>2024-09-16T14:03:19Z</time>
      </trkpt>
      <trkpt lat="53.865865040570498" lon="13.833759035915136">
        <ele>-5.63</ele>
        <time>2024-09-16T14:03:24Z</time>
      </trkpt>
      <trkpt lat="53.865836961194873" lon="13.833498023450375">
        <ele>-5.15</ele>
        <time>2024-09-16T14:03:25Z</time>
      </trkpt>
      <trkpt lat="53.865825980901718" lon="13.833218989893794">
        <ele>-5.15</ele>
        <time>2024-09-16T14:03:26Z</time>
      </trkpt>
      <trkpt lat="53.865777030587196" lon="13.83078102953732">
        <ele>-2.27</ele>
        <time>2024-09-16T14:03:35Z</time>
      </trkpt>
      <trkpt lat="53.865745011717081" lon="13.829239010810852">
        <ele>-0.34</ele>
        <time>2024-09-16T14:03:43Z</time>
      </trkpt>
      <trkpt lat="53.865725984796882" lon="13.827721970155835">
        <ele>-2.27</ele>
        <time>2024-09-16T14:03:54Z</time>
      </trkpt>
      <trkpt lat="53.865708969533443" lon="13.82646300829947">
        <ele>-4.19</ele>
        <time>2024-09-16T14:04:03Z</time>
      </trkpt>
      <trkpt lat="53.865673011168838" lon="13.824369041249156">
        <ele>-3.71</ele>
        <time>2024-09-16T14:04:14Z</time>
      </trkpt>
      <trkpt lat="53.865719027817249" lon="13.822014983743429">
        <ele>-6.59</ele>
        <time>2024-09-16T14:04:23Z</time>
      </trkpt>
      <trkpt lat="53.865813994780183" lon="13.821398997679353">
        <ele>-6.59</ele>
        <time>2024-09-16T14:04:25Z</time>
      </trkpt>
      <trkpt lat="53.865868980064988" lon="13.821094986051321">
        <ele>-6.11</ele>
        <time>2024-09-16T14:04:26Z</time>
      </trkpt>
      <trkpt lat="53.865947015583515" lon="13.820805978029966">
        <ele>-6.11</ele>
        <time>2024-09-16T14:04:27Z</time>
      </trkpt>
      <trkpt lat="53.866055980324745" lon="13.82055502384901">
        <ele>-6.11</ele>
        <time>2024-09-16T14:04:28Z</time>
      </trkpt>
      <trkpt lat="53.866167040541768" lon="13.820299962535501">
        <ele>-5.63</ele>
        <time>2024-09-16T14:04:29Z</time>
      </trkpt>
      <trkpt lat="53.866285979747772" lon="13.820057976990938">
        <ele>-5.63</ele>
        <time>2024-09-16T14:04:30Z</time>
      </trkpt>
      <trkpt lat="53.866407014429569" lon="13.819813979789615">
        <ele>-5.63</ele>
        <time>2024-09-16T14:04:31Z</time>
      </trkpt>
      <trkpt lat="53.868003012612462" lon="13.817133028060198">
        <ele>-5.15</ele>
        <time>2024-09-16T14:04:44Z</time>
      </trkpt>
      <trkpt lat="53.869005991145968" lon="13.815440973266959">
        <ele>-5.15</ele>
        <time>2024-09-16T14:04:51Z</time>
      </trkpt>
      <trkpt lat="53.870352040976286" lon="13.813184984028339">
        <ele>-5.15</ele>
        <time>2024-09-16T14:05:02Z</time>
      </trkpt>
      <trkpt lat="53.871108004823327" lon="13.811904983595014">
        <ele>-4.67</ele>
        <time>2024-09-16T14:05:07Z</time>
      </trkpt>
      <trkpt lat="53.872266970574856" lon="13.809944037348032">
        <ele>-4.19</ele>
        <time>2024-09-16T14:05:13Z</time>
      </trkpt>
      <trkpt lat="53.873417973518372" lon="13.808000022545457">
        <ele>-4.67</ele>
        <time>2024-09-16T14:05:21Z</time>
      </trkpt>
      <trkpt lat="53.874727981165051" lon="13.805790971964598">
        <ele>-5.15</ele>
        <time>2024-09-16T14:05:32Z</time>
      </trkpt>
      <trkpt lat="53.876028014346957" lon="13.803599020466208">
        <ele>-3.71</ele>
        <time>2024-09-16T14:05:43Z</time>
      </trkpt>
      <trkpt lat="53.877706993371248" lon="13.800769960507751">
        <ele>-3.23</ele>
        <time>2024-09-16T14:05:57Z</time>
      </trkpt>
      <trkpt lat="53.878989005461335" lon="13.798608016222715">
        <ele>-3.71</ele>
        <time>2024-09-16T14:06:06Z</time>
      </trkpt>
      <trkpt lat="53.880088962614536" lon="13.796742036938667">
        <ele>-3.71</ele>
        <time>2024-09-16T14:06:13Z</time>
      </trkpt>
      <trkpt lat="53.88131900690496" lon="13.79468603990972">
        <ele>-4.67</ele>
        <time>2024-09-16T14:06:23Z</time>
      </trkpt>
      <trkpt lat="53.882469004020095" lon="13.792733978480101">
        <ele>-4.67</ele>
        <time>2024-09-16T14:06:33Z</time>
      </trkpt>
      <trkpt lat="53.883303003385663" lon="13.79144299775362">
        <ele>-3.23</ele>
        <time>2024-09-16T14:06:40Z</time>
      </trkpt>
      <trkpt lat="53.883429989218712" lon="13.791281981393695">
        <ele>-3.23</ele>
        <time>2024-09-16T14:06:41Z</time>
      </trkpt>
      <trkpt lat="53.883572984486818" lon="13.79116103053093">
        <ele>-2.75</ele>
        <time>2024-09-16T14:06:42Z</time>
      </trkpt>
      <trkpt lat="53.883714973926544" lon="13.791050976142287">
        <ele>-2.27</ele>
        <time>2024-09-16T14:06:43Z</time>
      </trkpt>
      <trkpt lat="53.883868027478456" lon="13.79098903387785">
        <ele>-2.27</ele>
        <time>2024-09-16T14:06:44Z</time>
      </trkpt>
      <trkpt lat="53.884025020524859" lon="13.790924996137619">
        <ele>-1.79</ele>
        <time>2024-09-16T14:06:45Z</time>
      </trkpt>
      <trkpt lat="53.885588999837637" lon="13.790361983701587">
        <ele>1.58</ele>
        <time>2024-09-16T14:06:54Z</time>
      </trkpt>
      <trkpt lat="53.886767998337746" lon="13.789958981797099">
        <ele>2.54</ele>
        <time>2024-09-16T14:07:00Z</time>
      </trkpt>
      <trkpt lat="53.887983961030841" lon="13.789576012641191">
        <ele>3.98</ele>
        <time>2024-09-16T14:07:07Z</time>
      </trkpt>
      <trkpt lat="53.889138987287879" lon="13.789220033213496">
        <ele>4.46</ele>
        <time>2024-09-16T14:07:13Z</time>
      </trkpt>
      <trkpt lat="53.890845039859414" lon="13.78869398497045">
        <ele>3.02</ele>
        <time>2024-09-16T14:07:21Z</time>
      </trkpt>
      <trkpt lat="53.891033967956901" lon="13.788635982200503">
        <ele>3.02</ele>
        <time>2024-09-16T14:07:22Z</time>
      </trkpt>
      <trkpt lat="53.891213005408645" lon="13.788579991087317">
        <ele>2.54</ele>
        <time>2024-09-16T14:07:23Z</time>
      </trkpt>
      <trkpt lat="53.892380017787218" lon="13.7882199883461">
        <ele>1.1</ele>
        <time>2024-09-16T14:07:30Z</time>
      </trkpt>
      <trkpt lat="53.893546024337411" lon="13.787860991433263">
        <ele>-0.82</ele>
        <time>2024-09-16T14:07:37Z</time>
      </trkpt>
      <trkpt lat="53.895041020587087" lon="13.787399986758828">
        <ele>-2.27</ele>
        <time>2024-09-16T14:07:46Z</time>
      </trkpt>
      <trkpt lat="53.895361041650176" lon="13.787300996482372">
        <ele>-2.75</ele>
        <time>2024-09-16T14:07:48Z</time>
      </trkpt>
      <trkpt lat="53.89551904052496" lon="13.787251962348819">
        <ele>-3.23</ele>
        <time>2024-09-16T14:07:49Z</time>
      </trkpt>
      <trkpt lat="53.897378984838724" lon="13.786677969619632">
        <ele>1.1</ele>
        <time>2024-09-16T14:08:01Z</time>
      </trkpt>
      <trkpt lat="53.898515990003943" lon="13.786330036818981">
        <ele>4.94</ele>
        <time>2024-09-16T14:08:08Z</time>
      </trkpt>
      <trkpt lat="53.900113999843597" lon="13.785838019102812">
        <ele>6.87</ele>
        <time>2024-09-16T14:08:18Z</time>
      </trkpt>
      <trkpt lat="53.901076996698976" lon="13.785498971119523">
        <ele>7.83</ele>
        <time>2024-09-16T14:08:26Z</time>
      </trkpt>
      <trkpt lat="53.901329962536693" lon="13.785352958366275">
        <ele>8.789999999999999</ele>
        <time>2024-09-16T14:08:28Z</time>
      </trkpt>
      <trkpt lat="53.90143197029829" lon="13.785251034423709">
        <ele>8.789999999999999</ele>
        <time>2024-09-16T14:08:29Z</time>
      </trkpt>
      <trkpt lat="53.901539007201791" lon="13.785142991691828">
        <ele>9.27</ele>
        <time>2024-09-16T14:08:30Z</time>
      </trkpt>
      <trkpt lat="53.901642020791769" lon="13.785034026950598">
        <ele>9.27</ele>
        <time>2024-09-16T14:08:31Z</time>
      </trkpt>
      <trkpt lat="53.90172902494669" lon="13.784892037510872">
        <ele>9.75</ele>
        <time>2024-09-16T14:08:32Z</time>
      </trkpt>
      <trkpt lat="53.901813011616468" lon="13.784746024757624">
        <ele>9.75</ele>
        <time>2024-09-16T14:08:33Z</time>
      </trkpt>
      <trkpt lat="53.902724040672183" lon="13.782649040222168">
        <ele>10.23</ele>
        <time>2024-09-16T14:08:45Z</time>
      </trkpt>
      <trkpt lat="53.903655018657446" lon="13.780466979369521">
        <ele>7.35</ele>
        <time>2024-09-16T14:08:54Z</time>
      </trkpt>
      <trkpt lat="53.903930028900504" lon="13.779621999710798">
        <ele>6.39</ele>
        <time>2024-09-16T14:08:57Z</time>
      </trkpt>
      <trkpt lat="53.903993982821703" lon="13.779314970597625">
        <ele>6.39</ele>
        <time>2024-09-16T14:08:58Z</time>
      </trkpt>
      <trkpt lat="53.904032958671451" lon="13.778997967019677">
        <ele>5.91</ele>
        <time>2024-09-16T14:08:59Z</time>
      </trkpt>
      <trkpt lat="53.903999011963606" lon="13.776130015030503">
        <ele>5.42</ele>
        <time>2024-09-16T14:09:07Z</time>
      </trkpt>
      <trkpt lat="53.903792984783649" lon="13.773772018030286">
        <ele>5.91</ele>
        <time>2024-09-16T14:09:15Z</time>
      </trkpt>
      <trkpt lat="53.903863979503512" lon="13.771326011046767">
        <ele>8.310000000000001</ele>
        <time>2024-09-16T14:09:23Z</time>
      </trkpt>
      <trkpt lat="53.903992976993322" lon="13.768457975238562">
        <ele>13.119999999999999</ele>
        <time>2024-09-16T14:09:33Z</time>
      </trkpt>
      <trkpt lat="53.904032958671451" lon="13.765301015228033">
        <ele>16.48</ele>
        <time>2024-09-16T14:09:44Z</time>
      </trkpt>
      <trkpt lat="53.904076041653752" lon="13.761868961155415">
        <ele>19.359999999999999</ele>
        <time>2024-09-16T14:09:56Z</time>
      </trkpt>
      <trkpt lat="53.904114011675119" lon="13.758518965914845">
        <ele>22.25</ele>
        <time>2024-09-16T14:10:06Z</time>
      </trkpt>
      <trkpt lat="53.904164973646402" lon="13.754211002960801">
        <ele>19.359999999999999</ele>
        <time>2024-09-16T14:10:18Z</time>
      </trkpt>
      <trkpt lat="53.904225993901491" lon="13.749663988128304">
        <ele>21.77</ele>
        <time>2024-09-16T14:10:31Z</time>
      </trkpt>
      <trkpt lat="53.90445901080966" lon="13.746723029762506">
        <ele>22.25</ele>
        <time>2024-09-16T14:10:40Z</time>
      </trkpt>
      <trkpt lat="53.90495203435421" lon="13.74505796469748">
        <ele>21.77</ele>
        <time>2024-09-16T14:10:47Z</time>
      </trkpt>
      <trkpt lat="53.90538495965302" lon="13.743661036714911">
        <ele>22.25</ele>
        <time>2024-09-16T14:10:55Z</time>
      </trkpt>
      <trkpt lat="53.905482022091746" lon="13.7433179654181">
        <ele>22.25</ele>
        <time>2024-09-16T14:10:57Z</time>
      </trkpt>
      <trkpt lat="53.905529966577888" lon="13.743147980421782">
        <ele>22.25</ele>
        <time>2024-09-16T14:10:58Z</time>
      </trkpt>
      <trkpt lat="53.905571959912777" lon="13.742999034002423">
        <ele>22.25</ele>
        <time>2024-09-16T14:10:59Z</time>
      </trkpt>
      <trkpt lat="53.905606996268034" lon="13.742873976007104">
        <ele>22.25</ele>
        <time>2024-09-16T14:11:00Z</time>
      </trkpt>
      <trkpt lat="53.905552010983229" lon="13.74271203763783">
        <ele>22.25</ele>
        <time>2024-09-16T14:11:01Z</time>
      </trkpt>
      <trkpt lat="53.90549099072814" lon="13.742612963542342">
        <ele>22.25</ele>
        <time>2024-09-16T14:11:02Z</time>
      </trkpt>
      <trkpt lat="53.905423013493419" lon="13.742501987144351">
        <ele>21.77</ele>
        <time>2024-09-16T14:11:03Z</time>
      </trkpt>
      <trkpt lat="53.905350007116795" lon="13.742383969947696">
        <ele>21.77</ele>
        <time>2024-09-16T14:11:04Z</time>
      </trkpt>
      <trkpt lat="53.905272977426648" lon="13.742258995771408">
        <ele>21.289999999999999</ele>
        <time>2024-09-16T14:11:05Z</time>
      </trkpt>
      <trkpt lat="53.905192008242011" lon="13.742127986624837">
        <ele>21.289999999999999</ele>
        <time>2024-09-16T14:11:06Z</time>
      </trkpt>
      <trkpt lat="53.904159022495151" lon="13.740766011178493">
        <ele>15.52</ele>
        <time>2024-09-16T14:11:17Z</time>
      </trkpt>
      <trkpt lat="53.903768006712198" lon="13.740313975140452">
        <ele>13.119999999999999</ele>
        <time>2024-09-16T14:11:21Z</time>
      </trkpt>
      <trkpt lat="53.902795035392046" lon="13.739179987460375">
        <ele>15.039999999999999</ele>
        <time>2024-09-16T14:11:29Z</time>
      </trkpt>
      <trkpt lat="53.901210017502308" lon="13.737266985699534">
        <ele>21.289999999999999</ele>
        <time>2024-09-16T14:11:39Z</time>
      </trkpt>
      <trkpt lat="53.8991329818964" lon="13.73476498760283">
        <ele>23.210000000000001</ele>
        <time>2024-09-16T14:11:51Z</time>
      </trkpt>
      <trkpt lat="53.897243030369282" lon="13.732515033334494">
        <ele>20.32</ele>
        <time>2024-09-16T14:12:01Z</time>
      </trkpt>
      <trkpt lat="53.895920030772686" lon="13.730909982696176">
        <ele>16.960000000000001</ele>
        <time>2024-09-16T14:12:08Z</time>
      </trkpt>
      <trkpt lat="53.89466299675405" lon="13.728776033967733">
        <ele>13.119999999999999</ele>
        <time>2024-09-16T14:12:16Z</time>
      </trkpt>
      <trkpt lat="53.893495984375477" lon="13.726705033332109">
        <ele>9.75</ele>
        <time>2024-09-16T14:12:25Z</time>
      </trkpt>
      <trkpt lat="53.892029989510775" lon="13.724060961976647">
        <ele>10.710000000000001</ele>
        <time>2024-09-16T14:12:36Z</time>
      </trkpt>
      <trkpt lat="53.890276998281479" lon="13.720904001966119">
        <ele>11.19</ele>
        <time>2024-09-16T14:12:49Z</time>
      </trkpt>
      <trkpt lat="53.889794033020735" lon="13.719893982633948">
        <ele>11.19</ele>
        <time>2024-09-16T14:12:53Z</time>
      </trkpt>
      <trkpt lat="53.889696970582008" lon="13.719611009582877">
        <ele>11.19</ele>
        <time>2024-09-16T14:12:54Z</time>
      </trkpt>
      <trkpt lat="53.889592029154301" lon="13.719305992126465">
        <ele>11.19</ele>
        <time>2024-09-16T14:12:55Z</time>
      </trkpt>
      <trkpt lat="53.88873296789825" lon="13.715784000232816">
        <ele>9.27</ele>
        <time>2024-09-16T14:13:07Z</time>
      </trkpt>
      <trkpt lat="53.888139026239514" lon="13.713403958827257">
        <ele>8.310000000000001</ele>
        <time>2024-09-16T14:13:16Z</time>
      </trkpt>
      <trkpt lat="53.887907015159726" lon="13.712100991979241">
        <ele>9.75</ele>
        <time>2024-09-16T14:13:21Z</time>
      </trkpt>
      <trkpt lat="53.887897040694952" lon="13.711848026141524">
        <ele>10.23</ele>
        <time>2024-09-16T14:13:22Z</time>
      </trkpt>
      <trkpt lat="53.887897040694952" lon="13.711609980091453">
        <ele>10.23</ele>
        <time>2024-09-16T14:13:23Z</time>
      </trkpt>
      <trkpt lat="53.88798002153635" lon="13.708672039210796">
        <ele>11.67</ele>
        <time>2024-09-16T14:13:36Z</time>
      </trkpt>
      <trkpt lat="53.887940961867571" lon="13.707480970770121">
        <ele>12.630000000000001</ele>
        <time>2024-09-16T14:13:41Z</time>
      </trkpt>
      <trkpt lat="53.887919001281261" lon="13.707224987447262">
        <ele>13.119999999999999</ele>
        <time>2024-09-16T14:13:42Z</time>
      </trkpt>
      <trkpt lat="53.887862004339695" lon="13.707009991630912">
        <ele>12.630000000000001</ele>
        <time>2024-09-16T14:13:43Z</time>
      </trkpt>
      <trkpt lat="53.887804001569748" lon="13.706785021349788">
        <ele>12.630000000000001</ele>
        <time>2024-09-16T14:13:44Z</time>
      </trkpt>
      <trkpt lat="53.887733006849885" lon="13.706572037190199">
        <ele>12.630000000000001</ele>
        <time>2024-09-16T14:13:45Z</time>
      </trkpt>
      <trkpt lat="53.887654971331358" lon="13.706357041373849">
        <ele>12.630000000000001</ele>
        <time>2024-09-16T14:13:46Z</time>
      </trkpt>
      <trkpt lat="53.887551035732031" lon="13.706172974780202">
        <ele>12.15</ele>
        <time>2024-09-16T14:13:47Z</time>
      </trkpt>
      <trkpt lat="53.886243961751461" lon="13.703845990821719">
        <ele>10.710000000000001</ele>
        <time>2024-09-16T14:13:59Z</time>
      </trkpt>
      <trkpt lat="53.8849519751966" lon="13.701551025733352">
        <ele>12.15</ele>
        <time>2024-09-16T14:14:09Z</time>
      </trkpt>
      <trkpt lat="53.883803989738226" lon="13.698850963264704">
        <ele>11.19</ele>
        <time>2024-09-16T14:14:19Z</time>
      </trkpt>
      <trkpt lat="53.883734000846744" lon="13.698547035455704">
        <ele>11.19</ele>
        <time>2024-09-16T14:14:20Z</time>
      </trkpt>
      <trkpt lat="53.883688990026712" lon="13.698230031877756">
        <ele>11.19</ele>
        <time>2024-09-16T14:14:21Z</time>
      </trkpt>
      <trkpt lat="53.883683038875461" lon="13.697909004986286">
        <ele>11.19</ele>
        <time>2024-09-16T14:14:22Z</time>
      </trkpt>
      <trkpt lat="53.883675998076797" lon="13.697583032771945">
        <ele>11.19</ele>
        <time>2024-09-16T14:14:23Z</time>
      </trkpt>
      <trkpt lat="53.883669963106513" lon="13.697261000052094">
        <ele>11.19</ele>
        <time>2024-09-16T14:14:24Z</time>
      </trkpt>
      <trkpt lat="53.883715979754925" lon="13.694420959800482">
        <ele>13.119999999999999</ele>
        <time>2024-09-16T14:14:33Z</time>
      </trkpt>
      <trkpt lat="53.883292023092508" lon="13.692771987989545">
        <ele>14.08</ele>
        <time>2024-09-16T14:14:39Z</time>
      </trkpt>
      <trkpt lat="53.883184986189008" lon="13.692522961646318">
        <ele>14.08</ele>
        <time>2024-09-16T14:14:40Z</time>
      </trkpt>
      <trkpt lat="53.883076021447778" lon="13.692271001636982">
        <ele>14.08</ele>
        <time>2024-09-16T14:14:41Z</time>
      </trkpt>
      <trkpt lat="53.882941994816065" lon="13.692057011649013">
        <ele>13.6</ele>
        <time>2024-09-16T14:14:42Z</time>
      </trkpt>
      <trkpt lat="53.882797993719578" lon="13.691852996125817">
        <ele>13.6</ele>
        <time>2024-09-16T14:14:43Z</time>
      </trkpt>
      <trkpt lat="53.882648963481188" lon="13.691656021401286">
        <ele>13.119999999999999</ele>
        <time>2024-09-16T14:14:44Z</time>
      </trkpt>
      <trkpt lat="53.882483001798391" lon="13.691490981727839">
        <ele>12.630000000000001</ele>
        <time>2024-09-16T14:14:45Z</time>
      </trkpt>
      <trkpt lat="53.882315028458834" lon="13.6913220025599">
        <ele>12.15</ele>
        <time>2024-09-16T14:14:46Z</time>
      </trkpt>
      <trkpt lat="53.882127022370696" lon="13.691222006455064">
        <ele>11.67</ele>
        <time>2024-09-16T14:14:47Z</time>
      </trkpt>
      <trkpt lat="53.881938010454178" lon="13.691130978986621">
        <ele>11.19</ele>
        <time>2024-09-16T14:14:48Z</time>
      </trkpt>
      <trkpt lat="53.88174899853766" lon="13.691039029508829">
        <ele>10.710000000000001</ele>
        <time>2024-09-16T14:14:49Z</time>
      </trkpt>
      <trkpt lat="53.88155797496438" lon="13.690970968455076">
        <ele>10.23</ele>
        <time>2024-09-16T14:14:50Z</time>
      </trkpt>
      <trkpt lat="53.88136301189661" lon="13.690940039232373">
        <ele>9.27</ele>
        <time>2024-09-16T14:14:51Z</time>
      </trkpt>
      <trkpt lat="53.881172994151711" lon="13.690926041454077">
        <ele>8.789999999999999</ele>
        <time>2024-09-16T14:14:52Z</time>
      </trkpt>
      <trkpt lat="53.880984988063574" lon="13.690958982333541">
        <ele>8.310000000000001</ele>
        <time>2024-09-16T14:14:53Z</time>
      </trkpt>
      <trkpt lat="53.880796981975436" lon="13.690991001203656">
        <ele>7.83</ele>
        <time>2024-09-16T14:14:54Z</time>
      </trkpt>
      <trkpt lat="53.880600007250905" lon="13.691026037558913">
        <ele>6.87</ele>
        <time>2024-09-16T14:14:55Z</time>
      </trkpt>
      <trkpt lat="53.880415018647909" lon="13.691136008128524">
        <ele>6.39</ele>
        <time>2024-09-16T14:14:56Z</time>
      </trkpt>
      <trkpt lat="53.880229024216533" lon="13.691246984526515">
        <ele>5.91</ele>
        <time>2024-09-16T14:14:57Z</time>
      </trkpt>
      <trkpt lat="53.879280025139451" lon="13.691701032221317">
        <ele>3.02</ele>
        <time>2024-09-16T14:15:02Z</time>
      </trkpt>
      <trkpt lat="53.87908698990941" lon="13.691712012514472">
        <ele>3.02</ele>
        <time>2024-09-16T14:15:03Z</time>
      </trkpt>
      <trkpt lat="53.878895966336131" lon="13.691722992807627">
        <ele>3.02</ele>
        <time>2024-09-16T14:15:04Z</time>
      </trkpt>
      <trkpt lat="53.878704020753503" lon="13.691730033606291">
        <ele>3.02</ele>
        <time>2024-09-16T14:15:05Z</time>
      </trkpt>
      <trkpt lat="53.878516014665365" lon="13.691651998087764">
        <ele>3.02</ele>
        <time>2024-09-16T14:15:06Z</time>
      </trkpt>
      <trkpt lat="53.875730959698558" lon="13.690447015687823">
        <ele>3.5</ele>
        <time>2024-09-16T14:15:20Z</time>
      </trkpt>
      <trkpt lat="53.873011032119393" lon="13.689524000510573">
        <ele>3.98</ele>
        <time>2024-09-16T14:15:33Z</time>
      </trkpt>
      <trkpt lat="53.870288003236055" lon="13.688593022525311">
        <ele>4.94</ele>
        <time>2024-09-16T14:15:46Z</time>
      </trkpt>
      <trkpt lat="53.867878960445523" lon="13.687595995143056">
        <ele>10.710000000000001</ele>
        <time>2024-09-16T14:15:59Z</time>
      </trkpt>
      <trkpt lat="53.865844001993537" lon="13.686840031296015">
        <ele>7.35</ele>
        <time>2024-09-16T14:16:11Z</time>
      </trkpt>
      <trkpt lat="53.864230988547206" lon="13.686449015513062">
        <ele>2.54</ele>
        <time>2024-09-16T14:16:22Z</time>
      </trkpt>
      <trkpt lat="53.862475985661149" lon="13.686065040528774">
        <ele>0.62</ele>
        <time>2024-09-16T14:16:34Z</time>
      </trkpt>
      <trkpt lat="53.860511016100645" lon="13.685663966462016">
        <ele>0.14</ele>
        <time>2024-09-16T14:16:47Z</time>
      </trkpt>
      <trkpt lat="53.859347021207213" lon="13.685404965654016">
        <ele>3.5</ele>
        <time>2024-09-16T14:16:56Z</time>
      </trkpt>
      <trkpt lat="53.857868034392595" lon="13.685033982619643">
        <ele>5.42</ele>
        <time>2024-09-16T14:17:10Z</time>
      </trkpt>
      <trkpt lat="53.857764014974236" lon="13.684968017041683">
        <ele>5.42</ele>
        <time>2024-09-16T14:17:11Z</time>
      </trkpt>
      <trkpt lat="53.857661001384258" lon="13.684868020936847">
        <ele>4.94</ele>
        <time>2024-09-16T14:17:12Z</time>
      </trkpt>
      <trkpt lat="53.857575003057718" lon="13.684739023447037">
        <ele>4.46</ele>
        <time>2024-09-16T14:17:13Z</time>
      </trkpt>
      <trkpt lat="53.857495039701462" lon="13.684600973501801">
        <ele>4.46</ele>
        <time>2024-09-16T14:17:14Z</time>
      </trkpt>
      <trkpt lat="53.857480036094785" lon="13.684371979907155">
        <ele>3.98</ele>
        <time>2024-09-16T14:17:15Z</time>
      </trkpt>
      <trkpt lat="53.857424966990948" lon="13.684181962162256">
        <ele>3.5</ele>
        <time>2024-09-16T14:17:16Z</time>
      </trkpt>
      <trkpt lat="53.857379034161568" lon="13.683983981609344">
        <ele>3.02</ele>
        <time>2024-09-16T14:17:17Z</time>
      </trkpt>
      <trkpt lat="53.857032023370266" lon="13.682205006480217">
        <ele>1.1</ele>
        <time>2024-09-16T14:17:26Z</time>
      </trkpt>
      <trkpt lat="53.856959016993642" lon="13.68208397179842">
        <ele>1.1</ele>
        <time>2024-09-16T14:17:27Z</time>
      </trkpt>
      <trkpt lat="53.856878969818354" lon="13.681980036199093">
        <ele>1.1</ele>
        <time>2024-09-16T14:17:28Z</time>
      </trkpt>
      <trkpt lat="53.856805041432381" lon="13.681883979588747">
        <ele>1.1</ele>
        <time>2024-09-16T14:17:29Z</time>
      </trkpt>
      <trkpt lat="53.856713008135557" lon="13.681890014559031">
        <ele>1.1</ele>
        <time>2024-09-16T14:17:30Z</time>
      </trkpt>
      <trkpt lat="53.85661200620234" lon="13.681896971538663">
        <ele>1.58</ele>
        <time>2024-09-16T14:17:31Z</time>
      </trkpt>
      <trkpt lat="53.856511004269123" lon="13.681903006508946">
        <ele>2.06</ele>
        <time>2024-09-16T14:17:32Z</time>
      </trkpt>
      <trkpt lat="53.85643900372088" lon="13.681953968480229">
        <ele>2.54</ele>
        <time>2024-09-16T14:17:33Z</time>
      </trkpt>
      <trkpt lat="53.856356022879481" lon="13.682046001777053">
        <ele>2.54</ele>
        <time>2024-09-16T14:17:34Z</time>
      </trkpt>
      <trkpt lat="53.856284022331238" lon="13.682128982618451">
        <ele>3.02</ele>
        <time>2024-09-16T14:17:35Z</time>
      </trkpt>
      <trkpt lat="53.856215961277485" lon="13.682234007865191">
        <ele>3.5</ele>
        <time>2024-09-16T14:17:36Z</time>
      </trkpt>
      <trkpt lat="53.856146978214383" lon="13.682340960949659">
        <ele>3.98</ele>
        <time>2024-09-16T14:17:37Z</time>
      </trkpt>
      <trkpt lat="53.856082018464804" lon="13.682440035045147">
        <ele>3.98</ele>
        <time>2024-09-16T14:17:38Z</time>
      </trkpt>
      <trkpt lat="53.856011023744941" lon="13.682548999786377">
        <ele>4.46</ele>
        <time>2024-09-16T14:17:39Z</time>
      </trkpt>
      <trkpt lat="53.85594598017633" lon="13.682596022263169">
        <ele>4.46</ele>
        <time>2024-09-16T14:17:40Z</time>
      </trkpt>
      <trkpt lat="53.855824023485184" lon="13.682685038074851">
        <ele>4.94</ele>
        <time>2024-09-16T14:17:42Z</time>
      </trkpt>
      <trkpt lat="53.855745987966657" lon="13.682715967297554">
        <ele>4.94</ele>
        <time>2024-09-16T14:17:43Z</time>
      </trkpt>
      <trkpt lat="53.85564599186182" lon="13.682699035853148">
        <ele>5.42</ele>
        <time>2024-09-16T14:17:45Z</time>
      </trkpt>
      <trkpt lat="53.855629982426763" lon="13.682747986167669">
        <ele>5.91</ele>
        <time>2024-09-16T14:17:46Z</time>
      </trkpt>
      <trkpt lat="53.855606010183692" lon="13.682819986715913">
        <ele>5.91</ele>
        <time>2024-09-16T14:17:47Z</time>
      </trkpt>
      <trkpt lat="53.855616990476847" lon="13.682863991707563">
        <ele>6.39</ele>
        <time>2024-09-16T14:17:48Z</time>
      </trkpt>
      <trkpt lat="53.855668036267161" lon="13.683000029996037">
        <ele>6.39</ele>
        <time>2024-09-16T14:17:49Z</time>
      </trkpt>
      <trkpt lat="53.855668036267161" lon="13.683104971423745">
        <ele>6.39</ele>
        <time>2024-09-16T14:17:50Z</time>
      </trkpt>
      <trkpt lat="53.855668036267161" lon="13.683227011933923">
        <ele>6.39</ele>
        <time>2024-09-16T14:17:51Z</time>
      </trkpt>
      <trkpt lat="53.855659989640117" lon="13.683367995545268">
        <ele>6.87</ele>
        <time>2024-09-16T14:17:52Z</time>
      </trkpt>
      <trkpt lat="53.855648003518581" lon="13.683507973328233">
        <ele>6.87</ele>
        <time>2024-09-16T14:17:53Z</time>
      </trkpt>
      <trkpt lat="53.855635011568666" lon="13.683657003566623">
        <ele>7.35</ele>
        <time>2024-09-16T14:17:54Z</time>
      </trkpt>
      <trkpt lat="53.85562201961875" lon="13.683808967471123">
        <ele>7.83</ele>
        <time>2024-09-16T14:17:55Z</time>
      </trkpt>
      <trkpt lat="53.85560299269855" lon="13.684029998257756">
        <ele>7.83</ele>
        <time>2024-09-16T14:17:56Z</time>
      </trkpt>
      <trkpt lat="53.855597041547298" lon="13.68412303738296">
        <ele>7.83</ele>
        <time>2024-09-16T14:17:57Z</time>
      </trkpt>
      <trkpt lat="53.855582037940621" lon="13.684329986572266">
        <ele>8.310000000000001</ele>
        <time>2024-09-16T14:17:58Z</time>
      </trkpt>
      <trkpt lat="53.855522023513913" lon="13.685336988419294">
        <ele>8.310000000000001</ele>
        <time>2024-09-16T14:18:07Z</time>
      </trkpt>
      <trkpt lat="53.85551699437201" lon="13.68543597869575">
        <ele>8.310000000000001</ele>
        <time>2024-09-16T14:18:08Z</time>
      </trkpt>
      <trkpt lat="53.855514982715249" lon="13.685680981725454">
        <ele>8.310000000000001</ele>
        <time>2024-09-16T14:18:10Z</time>
      </trkpt>
      <trkpt lat="53.855510037392378" lon="13.686141986399889">
        <ele>8.789999999999999</ele>
        <time>2024-09-16T14:18:14Z</time>
      </trkpt>
      <trkpt lat="53.855508025735617" lon="13.68633602745831">
        <ele>8.789999999999999</ele>
        <time>2024-09-16T14:18:16Z</time>
      </trkpt>
      <trkpt lat="53.855507019907236" lon="13.686482962220907">
        <ele>9.27</ele>
        <time>2024-09-16T14:18:18Z</time>
      </trkpt>
      <trkpt lat="53.855497967451811" lon="13.687388962134719">
        <ele>10.710000000000001</ele>
        <time>2024-09-16T14:18:30Z</time>
      </trkpt>
      <trkpt lat="53.85549696162343" lon="13.687466997653246">
        <ele>10.710000000000001</ele>
        <time>2024-09-16T14:18:31Z</time>
      </trkpt>
      <trkpt lat="53.855495033785701" lon="13.687630025669932">
        <ele>11.19</ele>
        <time>2024-09-16T14:18:33Z</time>
      </trkpt>
      <trkpt lat="53.855491010472178" lon="13.687856001779437">
        <ele>11.67</ele>
        <time>2024-09-16T14:18:36Z</time>
      </trkpt>
      <trkpt lat="53.855487992987037" lon="13.688014000654221">
        <ele>11.67</ele>
        <time>2024-09-16T14:18:38Z</time>
      </trkpt>
      <trkpt lat="53.855485981330276" lon="13.688101004809141">
        <ele>12.15</ele>
        <time>2024-09-16T14:18:39Z</time>
      </trkpt>
      <trkpt lat="53.855484975501895" lon="13.688189014792442">
        <ele>12.630000000000001</ele>
        <time>2024-09-16T14:18:40Z</time>
      </trkpt>
      <trkpt lat="53.855481036007404" lon="13.688389007002115">
        <ele>13.119999999999999</ele>
        <time>2024-09-16T14:18:48Z</time>
      </trkpt>
      <trkpt lat="53.855476006865501" lon="13.688672985881567">
        <ele>13.6</ele>
        <time>2024-09-16T14:18:56Z</time>
      </trkpt>
      <trkpt lat="53.855469971895218" lon="13.688924023881555">
        <ele>13.6</ele>
        <time>2024-09-16T14:18:59Z</time>
      </trkpt>
      <trkpt lat="53.855467038229108" lon="13.689014967530966">
        <ele>13.6</ele>
        <time>2024-09-16T14:19:00Z</time>
      </trkpt>
      <trkpt lat="53.855463014915586" lon="13.689113035798073">
        <ele>13.6</ele>
        <time>2024-09-16T14:19:01Z</time>
      </trkpt>
      <trkpt lat="53.8554070238024" lon="13.690339978784323">
        <ele>13.119999999999999</ele>
        <time>2024-09-16T14:19:12Z</time>
      </trkpt>
      <trkpt lat="53.855348015204072" lon="13.691029977053404">
        <ele>11.67</ele>
        <time>2024-09-16T14:19:18Z</time>
      </trkpt>
      <trkpt lat="53.855338962748647" lon="13.691137013956904">
        <ele>11.67</ele>
        <time>2024-09-16T14:19:19Z</time>
      </trkpt>
      <trkpt lat="53.855282971635461" lon="13.691777978092432">
        <ele>9.27</ele>
        <time>2024-09-16T14:19:27Z</time>
      </trkpt>
      <trkpt lat="53.85528196580708" lon="13.692292962223291">
        <ele>8.789999999999999</ele>
        <time>2024-09-16T14:19:33Z</time>
      </trkpt>
      <trkpt lat="53.85528196580708" lon="13.692386001348495">
        <ele>8.789999999999999</ele>
        <time>2024-09-16T14:19:34Z</time>
      </trkpt>
      <trkpt lat="53.85528196580708" lon="13.692455990239978">
        <ele>9.27</ele>
        <time>2024-09-16T14:19:35Z</time>
      </trkpt>
      <trkpt lat="53.85528196580708" lon="13.692499995231628">
        <ele>9.75</ele>
        <time>2024-09-16T14:19:43Z</time>
      </trkpt>
      <trkpt lat="53.855174006894231" lon="13.692852035164833">
        <ele>10.710000000000001</ele>
        <time>2024-09-16T14:19:56Z</time>
      </trkpt>
      <trkpt lat="53.855190016329288" lon="13.69293199852109">
        <ele>10.710000000000001</ele>
        <time>2024-09-16T14:19:57Z</time>
      </trkpt>
      <trkpt lat="53.855212982743979" lon="13.692987989634275">
        <ele>10.710000000000001</ele>
        <time>2024-09-16T14:19:58Z</time>
      </trkpt>
      <trkpt lat="53.855466032400727" lon="13.693481013178825">
        <ele>10.23</ele>
        <time>2024-09-16T14:20:06Z</time>
      </trkpt>
      <trkpt lat="53.855485981330276" lon="13.693558964878321">
        <ele>9.75</ele>
        <time>2024-09-16T14:20:07Z</time>
      </trkpt>
      <trkpt lat="53.855507019907236" lon="13.693643035367131">
        <ele>9.75</ele>
        <time>2024-09-16T14:20:08Z</time>
      </trkpt>
      <trkpt lat="53.855767026543617" lon="13.694884981960058">
        <ele>8.310000000000001</ele>
        <time>2024-09-16T14:20:18Z</time>
      </trkpt>
      <trkpt lat="53.855857970193028" lon="13.695524018257856">
        <ele>7.35</ele>
        <time>2024-09-16T14:20:22Z</time>
      </trkpt>
      <trkpt lat="53.855853024870157" lon="13.695671036839485">
        <ele>7.35</ele>
        <time>2024-09-16T14:20:23Z</time>
      </trkpt>
      <trkpt lat="53.855847995728254" lon="13.695823000743985">
        <ele>6.87</ele>
        <time>2024-09-16T14:20:24Z</time>
      </trkpt>
      <trkpt lat="53.855842966586351" lon="13.695973958820105">
        <ele>6.87</ele>
        <time>2024-09-16T14:20:25Z</time>
      </trkpt>
      <trkpt lat="53.855827962979674" lon="13.696125000715256">
        <ele>6.39</ele>
        <time>2024-09-16T14:20:26Z</time>
      </trkpt>
      <trkpt lat="53.855740958824754" lon="13.69656496681273">
        <ele>5.42</ele>
        <time>2024-09-16T14:20:29Z</time>
      </trkpt>
      <trkpt lat="53.855710029602051" lon="13.696722965687513">
        <ele>4.94</ele>
        <time>2024-09-16T14:20:30Z</time>
      </trkpt>
      <trkpt lat="53.855646997690201" lon="13.697041980922222">
        <ele>4.46</ele>
        <time>2024-09-16T14:20:32Z</time>
      </trkpt>
      <trkpt lat="53.855614978820086" lon="13.697202997282147">
        <ele>3.98</ele>
        <time>2024-09-16T14:20:33Z</time>
      </trkpt>
      <trkpt lat="53.855454968288541" lon="13.69800103828311">
        <ele>3.5</ele>
        <time>2024-09-16T14:20:38Z</time>
      </trkpt>
      <trkpt lat="53.8553879968822" lon="13.698293985798955">
        <ele>3.02</ele>
        <time>2024-09-16T14:20:40Z</time>
      </trkpt>
      <trkpt lat="53.855354972183704" lon="13.698435975238681">
        <ele>3.02</ele>
        <time>2024-09-16T14:20:41Z</time>
      </trkpt>
      <trkpt lat="53.85523896664381" lon="13.69894802570343">
        <ele>3.02</ele>
        <time>2024-09-16T14:20:45Z</time>
      </trkpt>
      <trkpt lat="53.855181969702244" lon="13.69918598793447">
        <ele>3.02</ele>
        <time>2024-09-16T14:20:47Z</time>
      </trkpt>
      <trkpt lat="53.85514902882278" lon="13.699310962110758">
        <ele>3.02</ele>
        <time>2024-09-16T14:20:48Z</time>
      </trkpt>
      <trkpt lat="53.855109969154" lon="13.699457980692387">
        <ele>3.5</ele>
        <time>2024-09-16T14:20:49Z</time>
      </trkpt>
      <trkpt lat="53.854947024956346" lon="13.700385019183159">
        <ele>5.42</ele>
        <time>2024-09-16T14:20:56Z</time>
      </trkpt>
      <trkpt lat="53.854907965287566" lon="13.700518039986491">
        <ele>5.91</ele>
        <time>2024-09-16T14:20:57Z</time>
      </trkpt>
      <trkpt lat="53.854868989437819" lon="13.700646031647921">
        <ele>6.39</ele>
        <time>2024-09-16T14:20:58Z</time>
      </trkpt>
      <trkpt lat="53.854835964739323" lon="13.700758013874292">
        <ele>6.39</ele>
        <time>2024-09-16T14:20:59Z</time>
      </trkpt>
      <trkpt lat="53.85480503551662" lon="13.700861027464271">
        <ele>6.39</ele>
        <time>2024-09-16T14:21:00Z</time>
      </trkpt>
      <trkpt lat="53.854696992784739" lon="13.701261011883616">
        <ele>7.35</ele>
        <time>2024-09-16T14:21:04Z</time>
      </trkpt>
      <trkpt lat="53.854686012491584" lon="13.701364025473595">
        <ele>7.83</ele>
        <time>2024-09-16T14:21:05Z</time>
      </trkpt>
      <trkpt lat="53.854719959199429" lon="13.701449017971754">
        <ele>8.789999999999999</ele>
        <time>2024-09-16T14:21:06Z</time>
      </trkpt>
      <trkpt lat="53.854781985282898" lon="13.701585978269577">
        <ele>8.789999999999999</ele>
        <time>2024-09-16T14:21:07Z</time>
      </trkpt>
      <trkpt lat="53.854772010818124" lon="13.701709024608135">
        <ele>9.27</ele>
        <time>2024-09-16T14:21:08Z</time>
      </trkpt>
      <trkpt lat="53.854754995554686" lon="13.701851014047861">
        <ele>8.789999999999999</ele>
        <time>2024-09-16T14:21:09Z</time>
      </trkpt>
      <trkpt lat="53.854734962806106" lon="13.701987974345684">
        <ele>8.789999999999999</ele>
        <time>2024-09-16T14:21:10Z</time>
      </trkpt>
      <trkpt lat="53.854716019704938" lon="13.702111020684242">
        <ele>8.310000000000001</ele>
        <time>2024-09-16T14:21:11Z</time>
      </trkpt>
      <trkpt lat="53.854702021926641" lon="13.702201964333653">
        <ele>8.310000000000001</ele>
        <time>2024-09-16T14:21:12Z</time>
      </trkpt>
      <trkpt lat="53.8546990044415" lon="13.702252004295588">
        <ele>7.35</ele>
        <time>2024-09-16T14:21:15Z</time>
      </trkpt>
      <trkpt lat="53.8546990044415" lon="13.702252004295588">
        <ele>6.87</ele>
        <time>2024-09-16T14:21:33Z</time>
      </trkpt>
      <trkpt lat="53.8546990044415" lon="13.702252004295588">
        <ele>7.35</ele>
        <time>2024-09-16T14:22:22Z</time>
      </trkpt>
      <trkpt lat="53.8546990044415" lon="13.702252004295588">
        <ele>7.35</ele>
        <time>2024-09-16T14:22:24Z</time>
      </trkpt>
      <trkpt lat="53.854691963642836" lon="13.702339008450508">
        <ele>8.310000000000001</ele>
        <time>2024-09-16T14:22:25Z</time>
      </trkpt>
      <trkpt lat="53.854690035805106" lon="13.70236599817872">
        <ele>9.27</ele>
        <time>2024-09-16T14:22:26Z</time>
      </trkpt>
      <trkpt lat="53.854691963642836" lon="13.70234202593565">
        <ele>9.75</ele>
        <time>2024-09-16T14:22:28Z</time>
      </trkpt>
      <trkpt lat="53.854695986956358" lon="13.7022789940238">
        <ele>9.27</ele>
        <time>2024-09-16T14:22:29Z</time>
      </trkpt>
      <trkpt lat="53.854705961421132" lon="13.702180003747344">
        <ele>8.789999999999999</ele>
        <time>2024-09-16T14:22:30Z</time>
      </trkpt>
      <trkpt lat="53.854779973626137" lon="13.70161397382617">
        <ele>5.91</ele>
        <time>2024-09-16T14:22:39Z</time>
      </trkpt>
      <trkpt lat="53.854874018579721" lon="13.701346004381776">
        <ele>5.42</ele>
        <time>2024-09-16T14:22:42Z</time>
      </trkpt>
      <trkpt lat="53.854874018579721" lon="13.701324965804815">
        <ele>5.42</ele>
        <time>2024-09-16T14:22:43Z</time>
      </trkpt>
      <trkpt lat="53.854840993881226" lon="13.701251037418842">
        <ele>5.42</ele>
        <time>2024-09-16T14:22:44Z</time>
      </trkpt>
      <trkpt lat="53.854812998324633" lon="13.701186999678612">
        <ele>5.42</ele>
        <time>2024-09-16T14:22:45Z</time>
      </trkpt>
      <trkpt lat="53.854779973626137" lon="13.701139977201819">
        <ele>4.94</ele>
        <time>2024-09-16T14:22:46Z</time>
      </trkpt>
      <trkpt lat="53.854737980291247" lon="13.701180964708328">
        <ele>4.46</ele>
        <time>2024-09-16T14:22:47Z</time>
      </trkpt>
      <trkpt lat="53.854702021926641" lon="13.701217006891966">
        <ele>4.46</ele>
        <time>2024-09-16T14:22:48Z</time>
      </trkpt>
      <trkpt lat="53.854691041633487" lon="13.701313985511661">
        <ele>3.98</ele>
        <time>2024-09-16T14:22:49Z</time>
      </trkpt>
      <trkpt lat="53.854652987793088" lon="13.701457986608148">
        <ele>3.98</ele>
        <time>2024-09-16T14:22:50Z</time>
      </trkpt>
      <trkpt lat="53.854487026110291" lon="13.701755041256547">
        <ele>3.02</ele>
        <time>2024-09-16T14:22:53Z</time>
      </trkpt>
      <trkpt lat="53.854425000026822" lon="13.701878003776073">
        <ele>3.02</ele>
        <time>2024-09-16T14:22:54Z</time>
      </trkpt>
      <trkpt lat="53.854362973943353" lon="13.702002977952361">
        <ele>2.54</ele>
        <time>2024-09-16T14:22:55Z</time>
      </trkpt>
      <trkpt lat="53.854293990880251" lon="13.702125018462539">
        <ele>2.54</ele>
        <time>2024-09-16T14:22:56Z</time>
      </trkpt>
      <trkpt lat="53.85420698672533" lon="13.702238006517291">
        <ele>2.06</ele>
        <time>2024-09-16T14:22:57Z</time>
      </trkpt>
      <trkpt lat="53.854115037247539" lon="13.702357029542327">
        <ele>1.58</ele>
        <time>2024-09-16T14:22:58Z</time>
      </trkpt>
      <trkpt lat="53.854020992293954" lon="13.702477980405092">
        <ele>1.1</ele>
        <time>2024-09-16T14:22:59Z</time>
      </trkpt>
      <trkpt lat="53.853728966787457" lon="13.702825997024775">
        <ele>0.62</ele>
        <time>2024-09-16T14:23:02Z</time>
      </trkpt>
      <trkpt lat="53.853623019531369" lon="13.702919958159328">
        <ele>0.14</ele>
        <time>2024-09-16T14:23:03Z</time>
      </trkpt>
      <trkpt lat="53.852075971662998" lon="13.704209011048079">
        <ele>-0.82</ele>
        <time>2024-09-16T14:23:17Z</time>
      </trkpt>
      <trkpt lat="53.85035902261734" lon="13.70565002784133">
        <ele>0.14</ele>
        <time>2024-09-16T14:23:33Z</time>
      </trkpt>
      <trkpt lat="53.849061001092196" lon="13.706743028014898">
        <ele>0.62</ele>
        <time>2024-09-16T14:23:45Z</time>
      </trkpt>
      <trkpt lat="53.848508968949318" lon="13.707208978012204">
        <ele>2.54</ele>
        <time>2024-09-16T14:23:50Z</time>
      </trkpt>
      <trkpt lat="53.848396986722946" lon="13.707304028794169">
        <ele>2.54</ele>
        <time>2024-09-16T14:23:51Z</time>
      </trkpt>
      <trkpt lat="53.847948973998427" lon="13.707670988515019">
        <ele>5.42</ele>
        <time>2024-09-16T14:23:56Z</time>
      </trkpt>
      <trkpt lat="53.847816037014127" lon="13.707803003489971">
        <ele>6.87</ele>
        <time>2024-09-16T14:23:59Z</time>
      </trkpt>
      <trkpt lat="53.847678992897272" lon="13.707924960181117">
        <ele>9.75</ele>
        <time>2024-09-16T14:24:08Z</time>
      </trkpt>
      <trkpt lat="53.847467014566064" lon="13.70807901956141">
        <ele>11.19</ele>
        <time>2024-09-16T14:24:18Z</time>
      </trkpt>
      <trkpt lat="53.846734017133713" lon="13.708669021725655">
        <ele>11.67</ele>
        <time>2024-09-16T14:24:25Z</time>
      </trkpt>
      <trkpt lat="53.845601035282016" lon="13.709607040509582">
        <ele>12.15</ele>
        <time>2024-09-16T14:24:34Z</time>
      </trkpt>
      <trkpt lat="53.844606019556522" lon="13.710426958277822">
        <ele>13.119999999999999</ele>
        <time>2024-09-16T14:24:43Z</time>
      </trkpt>
      <trkpt lat="53.844511974602938" lon="13.710503987967968">
        <ele>12.630000000000001</ele>
        <time>2024-09-16T14:24:44Z</time>
      </trkpt>
      <trkpt lat="53.844420025125146" lon="13.710584035143256">
        <ele>12.15</ele>
        <time>2024-09-16T14:24:45Z</time>
      </trkpt>
      <trkpt lat="53.843122003600001" lon="13.711672006174922">
        <ele>11.19</ele>
        <time>2024-09-16T14:24:57Z</time>
      </trkpt>
      <trkpt lat="53.841285025700927" lon="13.713216036558151">
        <ele>9.27</ele>
        <time>2024-09-16T14:25:14Z</time>
      </trkpt>
      <trkpt lat="53.83978801779449" lon="13.714495031163096">
        <ele>9.75</ele>
        <time>2024-09-16T14:25:28Z</time>
      </trkpt>
      <trkpt lat="53.838709015399218" lon="13.715401031076908">
        <ele>9.75</ele>
        <time>2024-09-16T14:25:38Z</time>
      </trkpt>
      <trkpt lat="53.837195998057723" lon="13.716654041782022">
        <ele>9.75</ele>
        <time>2024-09-16T14:25:52Z</time>
      </trkpt>
      <trkpt lat="53.835865035653114" lon="13.717570016160607">
        <ele>9.27</ele>
        <time>2024-09-16T14:26:04Z</time>
      </trkpt>
      <trkpt lat="53.835747018456459" lon="13.717574961483479">
        <ele>9.27</ele>
        <time>2024-09-16T14:26:05Z</time>
      </trkpt>
      <trkpt lat="53.835629001259804" lon="13.717579990625381">
        <ele>9.27</ele>
        <time>2024-09-16T14:26:06Z</time>
      </trkpt>
      <trkpt lat="53.835507966578007" lon="13.717585019767284">
        <ele>9.27</ele>
        <time>2024-09-16T14:26:07Z</time>
      </trkpt>
      <trkpt lat="53.835380980744958" lon="13.717586025595665">
        <ele>9.27</ele>
        <time>2024-09-16T14:26:08Z</time>
      </trkpt>
      <trkpt lat="53.835263969376683" lon="13.71753397397697">
        <ele>9.75</ele>
        <time>2024-09-16T14:26:09Z</time>
      </trkpt>
      <trkpt lat="53.83514896966517" lon="13.717484017834067">
        <ele>9.75</ele>
        <time>2024-09-16T14:26:10Z</time>
      </trkpt>
      <trkpt lat="53.8340749964118" lon="13.717047991231084">
        <ele>12.15</ele>
        <time>2024-09-16T14:26:19Z</time>
      </trkpt>
      <trkpt lat="53.83383996784687" lon="13.717088978737593">
        <ele>12.630000000000001</ele>
        <time>2024-09-16T14:26:21Z</time>
      </trkpt>
      <trkpt lat="53.83372999727726" lon="13.717129966244102">
        <ele>12.630000000000001</ele>
        <time>2024-09-16T14:26:22Z</time>
      </trkpt>
      <trkpt lat="53.833614997565746" lon="13.717185035347939">
        <ele>12.15</ele>
        <time>2024-09-16T14:26:23Z</time>
      </trkpt>
      <trkpt lat="53.83349496871233" lon="13.717242032289505">
        <ele>12.15</ele>
        <time>2024-09-16T14:26:24Z</time>
      </trkpt>
      <trkpt lat="53.833377035334706" lon="13.717298023402691">
        <ele>12.15</ele>
        <time>2024-09-16T14:26:25Z</time>
      </trkpt>
      <trkpt lat="53.833275027573109" lon="13.717396007850766">
        <ele>11.67</ele>
        <time>2024-09-16T14:26:26Z</time>
      </trkpt>
      <trkpt lat="53.833176037296653" lon="13.717505978420377">
        <ele>11.67</ele>
        <time>2024-09-16T14:26:27Z</time>
      </trkpt>
      <trkpt lat="53.833076963201165" lon="13.717616032809019">
        <ele>11.19</ele>
        <time>2024-09-16T14:26:28Z</time>
      </trkpt>
      <trkpt lat="53.832977972924709" lon="13.717724997550249">
        <ele>10.710000000000001</ele>
        <time>2024-09-16T14:26:29Z</time>
      </trkpt>
      <trkpt lat="53.832919970154762" lon="13.717896994203329">
        <ele>10.710000000000001</ele>
        <time>2024-09-16T14:26:30Z</time>
      </trkpt>
      <trkpt lat="53.832866996526718" lon="13.718077959492803">
        <ele>10.23</ele>
        <time>2024-09-16T14:26:31Z</time>
      </trkpt>
      <trkpt lat="53.832815028727055" lon="13.718254985287786">
        <ele>9.75</ele>
        <time>2024-09-16T14:26:32Z</time>
      </trkpt>
      <trkpt lat="53.832831960171461" lon="13.718460006639361">
        <ele>9.75</ele>
        <time>2024-09-16T14:26:33Z</time>
      </trkpt>
      <trkpt lat="53.832848975434899" lon="13.718663016334176">
        <ele>9.75</ele>
        <time>2024-09-16T14:26:34Z</time>
      </trkpt>
      <trkpt lat="53.832860961556435" lon="13.718870971351862">
        <ele>9.27</ele>
        <time>2024-09-16T14:26:35Z</time>
      </trkpt>
      <trkpt lat="53.832873031497002" lon="13.719291994348168">
        <ele>8.789999999999999</ele>
        <time>2024-09-16T14:26:37Z</time>
      </trkpt>
      <trkpt lat="53.832878982648253" lon="13.719520987942815">
        <ele>8.789999999999999</ele>
        <time>2024-09-16T14:26:38Z</time>
      </trkpt>
      <trkpt lat="53.832830032333732" lon="13.719733972102404">
        <ele>8.310000000000001</ele>
        <time>2024-09-16T14:26:39Z</time>
      </trkpt>
      <trkpt lat="53.832773035392165" lon="13.719950979575515">
        <ele>8.310000000000001</ele>
        <time>2024-09-16T14:26:40Z</time>
      </trkpt>
      <trkpt lat="53.832716960459948" lon="13.720166981220245">
        <ele>8.310000000000001</ele>
        <time>2024-09-16T14:26:41Z</time>
      </trkpt>
      <trkpt lat="53.832659963518381" lon="13.720383988693357">
        <ele>8.310000000000001</ele>
        <time>2024-09-16T14:26:42Z</time>
      </trkpt>
      <trkpt lat="53.832542030140758" lon="13.720593033358455">
        <ele>8.310000000000001</ele>
        <time>2024-09-16T14:26:43Z</time>
      </trkpt>
      <trkpt lat="53.832400040701032" lon="13.720694035291672">
        <ele>8.310000000000001</ele>
        <time>2024-09-16T14:26:44Z</time>
      </trkpt>
      <trkpt lat="53.832253022119403" lon="13.720795959234238">
        <ele>7.83</ele>
        <time>2024-09-16T14:26:45Z</time>
      </trkpt>
      <trkpt lat="53.830976961180568" lon="13.721677986904979">
        <ele>8.310000000000001</ele>
        <time>2024-09-16T14:26:52Z</time>
      </trkpt>
      <trkpt lat="53.8285300321877" lon="13.72335696592927">
        <ele>7.83</ele>
        <time>2024-09-16T14:27:03Z</time>
      </trkpt>
      <trkpt lat="53.826032979413867" lon="13.72511800378561">
        <ele>6.39</ele>
        <time>2024-09-16T14:27:14Z</time>
      </trkpt>
      <trkpt lat="53.82395301014185" lon="13.726572012528777">
        <ele>4.94</ele>
        <time>2024-09-16T14:27:24Z</time>
      </trkpt>
      <trkpt lat="53.821709007024765" lon="13.728001965209842">
        <ele>5.42</ele>
        <time>2024-09-16T14:27:36Z</time>
      </trkpt>
      <trkpt lat="53.819645969197154" lon="13.728923974558711">
        <ele>8.789999999999999</ele>
        <time>2024-09-16T14:27:47Z</time>
      </trkpt>
      <trkpt lat="53.817427027970552" lon="13.729889988899231">
        <ele>9.27</ele>
        <time>2024-09-16T14:27:59Z</time>
      </trkpt>
      <trkpt lat="53.814851017668843" lon="13.731017019599676">
        <ele>6.87</ele>
        <time>2024-09-16T14:28:12Z</time>
      </trkpt>
      <trkpt lat="53.811925984919071" lon="13.732281010597944">
        <ele>6.87</ele>
        <time>2024-09-16T14:28:26Z</time>
      </trkpt>
      <trkpt lat="53.809905024245381" lon="13.73317401856184">
        <ele>7.35</ele>
        <time>2024-09-16T14:28:37Z</time>
      </trkpt>
      <trkpt lat="53.809044035151601" lon="13.733633011579514">
        <ele>7.83</ele>
        <time>2024-09-16T14:28:42Z</time>
      </trkpt>
      <trkpt lat="53.808899028226733" lon="13.733770977705717">
        <ele>8.310000000000001</ele>
        <time>2024-09-16T14:28:43Z</time>
      </trkpt>
      <trkpt lat="53.807330019772053" lon="13.735589012503624">
        <ele>9.27</ele>
        <time>2024-09-16T14:28:54Z</time>
      </trkpt>
      <trkpt lat="53.806083966046572" lon="13.736905977129936">
        <ele>10.23</ele>
        <time>2024-09-16T14:29:03Z</time>
      </trkpt>
      <trkpt lat="53.805421041324735" lon="13.737391037866473">
        <ele>9.75</ele>
        <time>2024-09-16T14:29:08Z</time>
      </trkpt>
      <trkpt lat="53.80433801561594" lon="13.738080030307174">
        <ele>9.27</ele>
        <time>2024-09-16T14:29:16Z</time>
      </trkpt>
      <trkpt lat="53.802639003843069" lon="13.739159032702446">
        <ele>9.27</ele>
        <time>2024-09-16T14:29:26Z</time>
      </trkpt>
      <trkpt lat="53.800632040947676" lon="13.740431992337108">
        <ele>9.27</ele>
        <time>2024-09-16T14:29:36Z</time>
      </trkpt>
      <trkpt lat="53.798565985634923" lon="13.741740994155407">
        <ele>6.39</ele>
        <time>2024-09-16T14:29:46Z</time>
      </trkpt>
      <trkpt lat="53.79641099832952" lon="13.743091989308596">
        <ele>5.91</ele>
        <time>2024-09-16T14:29:57Z</time>
      </trkpt>
      <trkpt lat="53.795277010649443" lon="13.744052974507213">
        <ele>7.83</ele>
        <time>2024-09-16T14:30:04Z</time>
      </trkpt>
      <trkpt lat="53.795161005109549" lon="13.744241986423731">
        <ele>7.83</ele>
        <time>2024-09-16T14:30:05Z</time>
      </trkpt>
      <trkpt lat="53.795062014833093" lon="13.744450025260448">
        <ele>7.83</ele>
        <time>2024-09-16T14:30:06Z</time>
      </trkpt>
      <trkpt lat="53.794965036213398" lon="13.744666026905179">
        <ele>8.310000000000001</ele>
        <time>2024-09-16T14:30:07Z</time>
      </trkpt>
      <trkpt lat="53.794894963502884" lon="13.744900971651077">
        <ele>8.310000000000001</ele>
        <time>2024-09-16T14:30:08Z</time>
      </trkpt>
      <trkpt lat="53.794827992096543" lon="13.745128959417343">
        <ele>7.83</ele>
        <time>2024-09-16T14:30:09Z</time>
      </trkpt>
      <trkpt lat="53.794360030442476" lon="13.746883040294051">
        <ele>6.39</ele>
        <time>2024-09-16T14:30:18Z</time>
      </trkpt>
      <trkpt lat="53.793858038261533" lon="13.748798975721002">
        <ele>4.94</ele>
        <time>2024-09-16T14:30:29Z</time>
      </trkpt>
      <trkpt lat="53.793565006926656" lon="13.749888958409429">
        <ele>4.46</ele>
        <time>2024-09-16T14:30:35Z</time>
      </trkpt>
      <trkpt lat="53.793468028306961" lon="13.750155000016093">
        <ele>4.94</ele>
        <time>2024-09-16T14:30:37Z</time>
      </trkpt>
      <trkpt lat="53.793427962809801" lon="13.750265976414084">
        <ele>5.42</ele>
        <time>2024-09-16T14:30:38Z</time>
      </trkpt>
      <trkpt lat="53.793454030528665" lon="13.750430010259151">
        <ele>5.91</ele>
        <time>2024-09-16T14:30:39Z</time>
      </trkpt>
      <trkpt lat="53.793461993336678" lon="13.750655986368656">
        <ele>6.39</ele>
        <time>2024-09-16T14:30:40Z</time>
      </trkpt>
      <trkpt lat="53.793432991951704" lon="13.750809961929917">
        <ele>6.39</ele>
        <time>2024-09-16T14:30:41Z</time>
      </trkpt>
      <trkpt lat="53.793398039415479" lon="13.750993022695184">
        <ele>6.87</ele>
        <time>2024-09-16T14:30:42Z</time>
      </trkpt>
      <trkpt lat="53.793168962001801" lon="13.752204040065408">
        <ele>8.310000000000001</ele>
        <time>2024-09-16T14:30:50Z</time>
      </trkpt>
      <trkpt lat="53.792995037510991" lon="13.752945000305772">
        <ele>11.19</ele>
        <time>2024-09-16T14:30:55Z</time>
      </trkpt>
      <trkpt lat="53.79295002669096" lon="13.753087995573878">
        <ele>11.67</ele>
        <time>2024-09-16T14:30:56Z</time>
      </trkpt>
      <trkpt lat="53.792906021699309" lon="13.753223028033972">
        <ele>11.67</ele>
        <time>2024-09-16T14:30:57Z</time>
      </trkpt>
      <trkpt lat="53.792837960645556" lon="13.753312965855002">
        <ele>11.67</ele>
        <time>2024-09-16T14:30:58Z</time>
      </trkpt>
      <trkpt lat="53.792759003117681" lon="13.75341203995049">
        <ele>11.67</ele>
        <time>2024-09-16T14:30:59Z</time>
      </trkpt>
      <trkpt lat="53.792679961770773" lon="13.753511030226946">
        <ele>12.15</ele>
        <time>2024-09-16T14:31:00Z</time>
      </trkpt>
      <trkpt lat="53.792532021179795" lon="13.753700964152813">
        <ele>12.15</ele>
        <time>2024-09-16T14:31:02Z</time>
      </trkpt>
      <trkpt lat="53.792462032288313" lon="13.753802971914411">
        <ele>11.67</ele>
        <time>2024-09-16T14:31:03Z</time>
      </trkpt>
      <trkpt lat="53.792316019535065" lon="13.75401402823627">
        <ele>11.67</ele>
        <time>2024-09-16T14:31:05Z</time>
      </trkpt>
      <trkpt lat="53.792238989844918" lon="13.754123998805881">
        <ele>11.67</ele>
        <time>2024-09-16T14:31:06Z</time>
      </trkpt>
      <trkpt lat="53.792161960154772" lon="13.754234975203872">
        <ele>12.15</ele>
        <time>2024-09-16T14:31:07Z</time>
      </trkpt>
      <trkpt lat="53.791859960183501" lon="13.754672007635236">
        <ele>13.119999999999999</ele>
        <time>2024-09-16T14:31:11Z</time>
      </trkpt>
      <trkpt lat="53.791588973253965" lon="13.75506998039782">
        <ele>14.08</ele>
        <time>2024-09-16T14:31:15Z</time>
      </trkpt>
      <trkpt lat="53.791545974090695" lon="13.755182968452573">
        <ele>14.56</ele>
        <time>2024-09-16T14:31:16Z</time>
      </trkpt>
      <trkpt lat="53.791501969099045" lon="13.755296962335706">
        <ele>15.039999999999999</ele>
        <time>2024-09-16T14:31:17Z</time>
      </trkpt>
      <trkpt lat="53.791487971320748" lon="13.755437023937702">
        <ele>15.52</ele>
        <time>2024-09-16T14:31:18Z</time>
      </trkpt>
      <trkpt lat="53.791518984362483" lon="13.755551017820835">
        <ele>15.52</ele>
        <time>2024-09-16T14:31:19Z</time>
      </trkpt>
      <trkpt lat="53.791569024324417" lon="13.755658976733685">
        <ele>16</ele>
        <time>2024-09-16T14:31:20Z</time>
      </trkpt>
      <trkpt lat="53.791638007387519" lon="13.755805995315313">
        <ele>16</ele>
        <time>2024-09-16T14:31:21Z</time>
      </trkpt>
      <trkpt lat="53.791685029864311" lon="13.755854023620486">
        <ele>16</ele>
        <time>2024-09-16T14:31:22Z</time>
      </trkpt>
      <trkpt lat="53.791767004877329" lon="13.755939016118646">
        <ele>16</ele>
        <time>2024-09-16T14:31:23Z</time>
      </trkpt>
      <trkpt lat="53.791857026517391" lon="13.756031971424818">
        <ele>16</ele>
        <time>2024-09-16T14:31:24Z</time>
      </trkpt>
      <trkpt lat="53.791945036500692" lon="13.756122998893261">
        <ele>16</ele>
        <time>2024-09-16T14:31:25Z</time>
      </trkpt>
      <trkpt lat="53.792032040655613" lon="13.756213020533323">
        <ele>16</ele>
        <time>2024-09-16T14:31:26Z</time>
      </trkpt>
      <trkpt lat="53.792293975129724" lon="13.756492976099253">
        <ele>15.52</ele>
        <time>2024-09-16T14:31:29Z</time>
      </trkpt>
      <trkpt lat="53.792861010879278" lon="13.757629981264472">
        <ele>13.119999999999999</ele>
        <time>2024-09-16T14:31:37Z</time>
      </trkpt>
      <trkpt lat="53.79292999394238" lon="13.757681027054787">
        <ele>12.630000000000001</ele>
        <time>2024-09-16T14:31:38Z</time>
      </trkpt>
      <trkpt lat="53.793014986440539" lon="13.757744980975986">
        <ele>12.15</ele>
        <time>2024-09-16T14:31:39Z</time>
      </trkpt>
      <trkpt lat="53.793104002252221" lon="13.757812036201358">
        <ele>11.67</ele>
        <time>2024-09-16T14:31:40Z</time>
      </trkpt>
      <trkpt lat="53.793183965608478" lon="13.75781798735261">
        <ele>10.710000000000001</ele>
        <time>2024-09-16T14:31:41Z</time>
      </trkpt>
      <trkpt lat="53.793286979198456" lon="13.757811030372977">
        <ele>10.23</ele>
        <time>2024-09-16T14:31:42Z</time>
      </trkpt>
      <trkpt lat="53.793393010273576" lon="13.757803989574313">
        <ele>10.23</ele>
        <time>2024-09-16T14:31:43Z</time>
      </trkpt>
      <trkpt lat="53.793700039386749" lon="13.757783034816384">
        <ele>10.23</ele>
        <time>2024-09-16T14:31:46Z</time>
      </trkpt>
      <trkpt lat="53.793785031884909" lon="13.757835002616048">
        <ele>10.23</ele>
        <time>2024-09-16T14:31:47Z</time>
      </trkpt>
      <trkpt lat="53.793856026604772" lon="13.757923012599349">
        <ele>10.23</ele>
        <time>2024-09-16T14:31:48Z</time>
      </trkpt>
      <trkpt lat="53.794652977958322" lon="13.758923979476094">
        <ele>10.710000000000001</ele>
        <time>2024-09-16T14:31:57Z</time>
      </trkpt>
      <trkpt lat="53.79510099068284" lon="13.759490009397268">
        <ele>10.710000000000001</ele>
        <time>2024-09-16T14:32:02Z</time>
      </trkpt>
      <trkpt lat="53.795741032809019" lon="13.760677976533771">
        <ele>11.67</ele>
        <time>2024-09-16T14:32:10Z</time>
      </trkpt>
      <trkpt lat="53.795818984508514" lon="13.760822983458638">
        <ele>12.15</ele>
        <time>2024-09-16T14:32:11Z</time>
      </trkpt>
      <trkpt lat="53.796524992212653" lon="13.762217983603477">
        <ele>13.119999999999999</ele>
        <time>2024-09-16T14:32:20Z</time>
      </trkpt>
      <trkpt lat="53.79681701771915" lon="13.763346020132303">
        <ele>11.67</ele>
        <time>2024-09-16T14:32:26Z</time>
      </trkpt>
      <trkpt lat="53.796851970255375" lon="13.763537965714931">
        <ele>11.67</ele>
        <time>2024-09-16T14:32:27Z</time>
      </trkpt>
      <trkpt lat="53.796865968033671" lon="13.763738963752985">
        <ele>11.19</ele>
        <time>2024-09-16T14:32:28Z</time>
      </trkpt>
      <trkpt lat="53.796841995790601" lon="13.763931998983026">
        <ele>11.19</ele>
        <time>2024-09-16T14:32:29Z</time>
      </trkpt>
      <trkpt lat="53.796806959435344" lon="13.764123022556305">
        <ele>11.19</ele>
        <time>2024-09-16T14:32:30Z</time>
      </trkpt>
      <trkpt lat="53.796769995242357" lon="13.764318991452456">
        <ele>10.710000000000001</ele>
        <time>2024-09-16T14:32:31Z</time>
      </trkpt>
      <trkpt lat="53.796695983037353" lon="13.764724005013704">
        <ele>10.710000000000001</ele>
        <time>2024-09-16T14:32:33Z</time>
      </trkpt>
      <trkpt lat="53.796657007187605" lon="13.764943024143577">
        <ele>10.710000000000001</ele>
        <time>2024-09-16T14:32:34Z</time>
      </trkpt>
      <trkpt lat="53.796504959464073" lon="13.767218040302396">
        <ele>10.23</ele>
        <time>2024-09-16T14:32:42Z</time>
      </trkpt>
      <trkpt lat="53.796289963647723" lon="13.771996982395649">
        <ele>7.83</ele>
        <time>2024-09-16T14:32:56Z</time>
      </trkpt>
      <trkpt lat="53.796207988634706" lon="13.774115005508065">
        <ele>7.35</ele>
        <time>2024-09-16T14:33:03Z</time>
      </trkpt>
      <trkpt lat="53.796117966994643" lon="13.7759730219841">
        <ele>6.39</ele>
        <time>2024-09-16T14:33:12Z</time>
      </trkpt>
      <trkpt lat="53.795955022796988" lon="13.778209984302521">
        <ele>3.98</ele>
        <time>2024-09-16T14:33:21Z</time>
      </trkpt>
      <trkpt lat="53.795618992298841" lon="13.782059960067272">
        <ele>2.54</ele>
        <time>2024-09-16T14:33:34Z</time>
      </trkpt>
      <trkpt lat="53.795413970947266" lon="13.78450496122241">
        <ele>3.98</ele>
        <time>2024-09-16T14:33:42Z</time>
      </trkpt>
      <trkpt lat="53.795182965695858" lon="13.787316000089049">
        <ele>3.02</ele>
        <time>2024-09-16T14:33:50Z</time>
      </trkpt>
      <trkpt lat="53.794986996799707" lon="13.789727976545691">
        <ele>2.06</ele>
        <time>2024-09-16T14:33:56Z</time>
      </trkpt>
      <trkpt lat="53.794832015410066" lon="13.791586998850107">
        <ele>2.06</ele>
        <time>2024-09-16T14:34:02Z</time>
      </trkpt>
      <trkpt lat="53.794612996280193" lon="13.794152028858662">
        <ele>3.98</ele>
        <time>2024-09-16T14:34:11Z</time>
      </trkpt>
      <trkpt lat="53.794364975765347" lon="13.797063985839486">
        <ele>4.94</ele>
        <time>2024-09-16T14:34:21Z</time>
      </trkpt>
      <trkpt lat="53.794120978564024" lon="13.799918023869395">
        <ele>3.98</ele>
        <time>2024-09-16T14:34:30Z</time>
      </trkpt>
      <trkpt lat="53.793902965262532" lon="13.802480958402157">
        <ele>3.98</ele>
        <time>2024-09-16T14:34:38Z</time>
      </trkpt>
      <trkpt lat="53.793756030499935" lon="13.80420302040875">
        <ele>6.87</ele>
        <time>2024-09-16T14:34:44Z</time>
      </trkpt>
      <trkpt lat="53.793555032461882" lon="13.806106969714165">
        <ele>10.23</ele>
        <time>2024-09-16T14:34:52Z</time>
      </trkpt>
      <trkpt lat="53.793508009985089" lon="13.806247031316161">
        <ele>10.23</ele>
        <time>2024-09-16T14:34:53Z</time>
      </trkpt>
      <trkpt lat="53.793428968638182" lon="13.806405030190945">
        <ele>10.710000000000001</ele>
        <time>2024-09-16T14:34:54Z</time>
      </trkpt>
      <trkpt lat="53.792665963992476" lon="13.808091972023249">
        <ele>13.6</ele>
        <time>2024-09-16T14:35:02Z</time>
      </trkpt>
      <trkpt lat="53.791442960500717" lon="13.810759009793401">
        <ele>11.67</ele>
        <time>2024-09-16T14:35:14Z</time>
      </trkpt>
      <trkpt lat="53.790116021409631" lon="13.813665015622973">
        <ele>9.27</ele>
        <time>2024-09-16T14:35:26Z</time>
      </trkpt>
      <trkpt lat="53.789530964568257" lon="13.815737022086978">
        <ele>8.310000000000001</ele>
        <time>2024-09-16T14:35:34Z</time>
      </trkpt>
      <trkpt lat="53.788660001009703" lon="13.819175027310848">
        <ele>7.83</ele>
        <time>2024-09-16T14:35:47Z</time>
      </trkpt>
      <trkpt lat="53.78779599443078" lon="13.822586964815855">
        <ele>7.83</ele>
        <time>2024-09-16T14:36:00Z</time>
      </trkpt>
      <trkpt lat="53.786822017282248" lon="13.826437024399638">
        <ele>8.310000000000001</ele>
        <time>2024-09-16T14:36:15Z</time>
      </trkpt>
      <trkpt lat="53.786155991256237" lon="13.828873978927732">
        <ele>8.310000000000001</ele>
        <time>2024-09-16T14:36:26Z</time>
      </trkpt>
      <trkpt lat="53.786149034276605" lon="13.829044969752431">
        <ele>8.310000000000001</ele>
        <time>2024-09-16T14:36:27Z</time>
      </trkpt>
      <trkpt lat="53.786153979599476" lon="13.829207997769117">
        <ele>8.310000000000001</ele>
        <time>2024-09-16T14:36:28Z</time>
      </trkpt>
      <trkpt lat="53.786159008741379" lon="13.829367002472281">
        <ele>8.310000000000001</ele>
        <time>2024-09-16T14:36:29Z</time>
      </trkpt>
      <trkpt lat="53.786164037883282" lon="13.829522989690304">
        <ele>8.310000000000001</ele>
        <time>2024-09-16T14:36:30Z</time>
      </trkpt>
      <trkpt lat="53.786230003461242" lon="13.830320024862885">
        <ele>7.35</ele>
        <time>2024-09-16T14:36:35Z</time>
      </trkpt>
      <trkpt lat="53.786248024553061" lon="13.830469977110624">
        <ele>7.83</ele>
        <time>2024-09-16T14:36:36Z</time>
      </trkpt>
      <trkpt lat="53.786414992064238" lon="13.831932032480836">
        <ele>8.789999999999999</ele>
        <time>2024-09-16T14:36:46Z</time>
      </trkpt>
      <trkpt lat="53.786425972357392" lon="13.832022976130247">
        <ele>8.310000000000001</ele>
        <time>2024-09-16T14:36:47Z</time>
      </trkpt>
      <trkpt lat="53.786354977637529" lon="13.832198996096849">
        <ele>8.310000000000001</ele>
        <time>2024-09-16T14:36:48Z</time>
      </trkpt>
      <trkpt lat="53.786302004009485" lon="13.832201007753611">
        <ele>7.83</ele>
        <time>2024-09-16T14:36:49Z</time>
      </trkpt>
      <trkpt lat="53.786232015118003" lon="13.832204025238752">
        <ele>7.83</ele>
        <time>2024-09-16T14:36:50Z</time>
      </trkpt>
      <trkpt lat="53.786150040104985" lon="13.832207964733243">
        <ele>7.83</ele>
        <time>2024-09-16T14:36:51Z</time>
      </trkpt>
      <trkpt lat="53.785134991630912" lon="13.832251969724894">
        <ele>9.27</ele>
        <time>2024-09-16T14:37:00Z</time>
      </trkpt>
      <trkpt lat="53.783726999536157" lon="13.832277031615376">
        <ele>12.630000000000001</ele>
        <time>2024-09-16T14:37:11Z</time>
      </trkpt>
      <trkpt lat="53.782658977434039" lon="13.832280971109867">
        <ele>13.119999999999999</ele>
        <time>2024-09-16T14:37:19Z</time>
      </trkpt>
      <trkpt lat="53.782541966065764" lon="13.832255993038416">
        <ele>13.6</ele>
        <time>2024-09-16T14:37:20Z</time>
      </trkpt>
      <trkpt lat="53.782430989667773" lon="13.83222296833992">
        <ele>13.6</ele>
        <time>2024-09-16T14:37:21Z</time>
      </trkpt>
      <trkpt lat="53.78233602270484" lon="13.832143004983664">
        <ele>13.6</ele>
        <time>2024-09-16T14:37:22Z</time>
      </trkpt>
      <trkpt lat="53.782246001064777" lon="13.832054995000362">
        <ele>13.6</ele>
        <time>2024-09-16T14:37:23Z</time>
      </trkpt>
      <trkpt lat="53.782152039930224" lon="13.831963967531919">
        <ele>13.6</ele>
        <time>2024-09-16T14:37:24Z</time>
      </trkpt>
      <trkpt lat="53.782060006633401" lon="13.831875035539269">
        <ele>13.6</ele>
        <time>2024-09-16T14:37:25Z</time>
      </trkpt>
      <trkpt lat="53.780932975932956" lon="13.830785974860191">
        <ele>14.08</ele>
        <time>2024-09-16T14:37:36Z</time>
      </trkpt>
      <trkpt lat="53.779538981616497" lon="13.829640001058578">
        <ele>13.119999999999999</ele>
        <time>2024-09-16T14:37:46Z</time>
      </trkpt>
      <trkpt lat="53.777149971574545" lon="13.827748959884048">
        <ele>9.75</ele>
        <time>2024-09-16T14:38:00Z</time>
      </trkpt>
      <trkpt lat="53.776024030521512" lon="13.826462002471089">
        <ele>6.39</ele>
        <time>2024-09-16T14:38:08Z</time>
      </trkpt>
      <trkpt lat="53.774937987327576" lon="13.82508996874094">
        <ele>4.94</ele>
        <time>2024-09-16T14:38:18Z</time>
      </trkpt>
      <trkpt lat="53.773985970765352" lon="13.824036028236151">
        <ele>3.98</ele>
        <time>2024-09-16T14:38:27Z</time>
      </trkpt>
      <trkpt lat="53.772695995867252" lon="13.823256008327007">
        <ele>1.1</ele>
        <time>2024-09-16T14:38:37Z</time>
      </trkpt>
      <trkpt lat="53.772541014477611" lon="13.823204040527344">
        <ele>1.1</ele>
        <time>2024-09-16T14:38:38Z</time>
      </trkpt>
      <trkpt lat="53.772383015602827" lon="13.823227006942034">
        <ele>0.62</ele>
        <time>2024-09-16T14:38:39Z</time>
      </trkpt>
      <trkpt lat="53.772210013121367" lon="13.823251985013485">
        <ele>0.62</ele>
        <time>2024-09-16T14:38:40Z</time>
      </trkpt>
      <trkpt lat="53.772028964012861" lon="13.823278974741697">
        <ele>1.1</ele>
        <time>2024-09-16T14:38:41Z</time>
      </trkpt>
      <trkpt lat="53.769913958385587" lon="13.823489025235176">
        <ele>1.58</ele>
        <time>2024-09-16T14:38:52Z</time>
      </trkpt>
      <trkpt lat="53.768519964069128" lon="13.823537975549698">
        <ele>-0.34</ele>
        <time>2024-09-16T14:39:00Z</time>
      </trkpt>
      <trkpt lat="53.767740027979016" lon="13.823428004980087">
        <ele>-1.3</ele>
        <time>2024-09-16T14:39:05Z</time>
      </trkpt>
      <trkpt lat="53.767588986083865" lon="13.823362961411476">
        <ele>-1.3</ele>
        <time>2024-09-16T14:39:06Z</time>
      </trkpt>
      <trkpt lat="53.767442973330617" lon="13.82326296530664">
        <ele>-1.3</ele>
        <time>2024-09-16T14:39:07Z</time>
      </trkpt>
      <trkpt lat="53.76729997806251" lon="13.823132961988449">
        <ele>-1.3</ele>
        <time>2024-09-16T14:39:08Z</time>
      </trkpt>
      <trkpt lat="53.767152037471533" lon="13.822999019175768">
        <ele>-0.82</ele>
        <time>2024-09-16T14:39:09Z</time>
      </trkpt>
      <trkpt lat="53.767008036375046" lon="13.822869015857577">
        <ele>-0.34</ele>
        <time>2024-09-16T14:39:10Z</time>
      </trkpt>
      <trkpt lat="53.766865041106939" lon="13.822740018367767">
        <ele>0.14</ele>
        <time>2024-09-16T14:39:11Z</time>
      </trkpt>
      <trkpt lat="53.766718022525311" lon="13.822608003392816">
        <ele>0.62</ele>
        <time>2024-09-16T14:39:12Z</time>
      </trkpt>
      <trkpt lat="53.766415016725659" lon="13.822341039776802">
        <ele>1.58</ele>
        <time>2024-09-16T14:39:14Z</time>
      </trkpt>
      <trkpt lat="53.76624695956707" lon="13.822256969287992">
        <ele>1.58</ele>
        <time>2024-09-16T14:39:15Z</time>
      </trkpt>
      <trkpt lat="53.764866963028908" lon="13.821814991533756">
        <ele>-2.27</ele>
        <time>2024-09-16T14:39:23Z</time>
      </trkpt>
      <trkpt lat="53.763988958671689" lon="13.821570994332433">
        <ele>-5.63</ele>
        <time>2024-09-16T14:39:28Z</time>
      </trkpt>
      <trkpt lat="53.763821991160512" lon="13.82152397185564">
        <ele>-6.11</ele>
        <time>2024-09-16T14:39:29Z</time>
      </trkpt>
      <trkpt lat="53.762550037354231" lon="13.821315011009574">
        <ele>-10.44</ele>
        <time>2024-09-16T14:39:37Z</time>
      </trkpt>
      <trkpt lat="53.761786026880145" lon="13.82126597687602">
        <ele>-13.800000000000001</ele>
        <time>2024-09-16T14:39:43Z</time>
      </trkpt>
      <trkpt lat="53.761418983340263" lon="13.82124200463295">
        <ele>-15.720000000000001</ele>
        <time>2024-09-16T14:39:47Z</time>
      </trkpt>
      <trkpt lat="53.761366009712219" lon="13.821238987147808">
        <ele>-16.210000000000001</ele>
        <time>2024-09-16T14:39:48Z</time>
      </trkpt>
      <trkpt lat="53.76132502220571" lon="13.821235969662666">
        <ele>-16.690000000000001</ele>
        <time>2024-09-16T14:39:49Z</time>
      </trkpt>
      <trkpt lat="53.761227959766984" lon="13.821287015452981">
        <ele>-16.690000000000001</ele>
        <time>2024-09-16T14:39:50Z</time>
      </trkpt>
      <trkpt lat="53.761286968365312" lon="13.821234041824937">
        <ele>-16.690000000000001</ele>
        <time>2024-09-16T14:39:51Z</time>
      </trkpt>
      <trkpt lat="53.761274982243776" lon="13.821233035996556">
        <ele>-16.210000000000001</ele>
        <time>2024-09-16T14:39:52Z</time>
      </trkpt>
      <trkpt lat="53.761267019435763" lon="13.821232030168176">
        <ele>-16.210000000000001</ele>
        <time>2024-09-16T14:39:53Z</time>
      </trkpt>
      <trkpt lat="53.761242963373661" lon="13.821231024339795">
        <ele>-15.720000000000001</ele>
        <time>2024-09-16T14:39:54Z</time>
      </trkpt>
      <trkpt lat="53.761226031929255" lon="13.8213050365448">
        <ele>-15.720000000000001</ele>
        <time>2024-09-16T14:39:55Z</time>
      </trkpt>
      <trkpt lat="53.76121798530221" lon="13.821402015164495">
        <ele>-14.76</ele>
        <time>2024-09-16T14:39:56Z</time>
      </trkpt>
      <trkpt lat="53.761093011125922" lon="13.822668017819524">
        <ele>-12.359999999999999</ele>
        <time>2024-09-16T14:40:03Z</time>
      </trkpt>
      <trkpt lat="53.761053029447794" lon="13.823190964758396">
        <ele>-11.4</ele>
        <time>2024-09-16T14:40:05Z</time>
      </trkpt>
      <trkpt lat="53.760964013636112" lon="13.825446031987667">
        <ele>-9.960000000000001</ele>
        <time>2024-09-16T14:40:12Z</time>
      </trkpt>
      <trkpt lat="53.76087499782443" lon="13.828600980341434">
        <ele>-9.48</ele>
        <time>2024-09-16T14:40:21Z</time>
      </trkpt>
      <trkpt lat="53.76070300117135" lon="13.831669008359313">
        <ele>-9.960000000000001</ele>
        <time>2024-09-16T14:40:31Z</time>
      </trkpt>
      <trkpt lat="53.760657990351319" lon="13.831957010552287">
        <ele>-9.48</ele>
        <time>2024-09-16T14:40:32Z</time>
      </trkpt>
      <trkpt lat="53.760590013116598" lon="13.832249036058784">
        <ele>-9.48</ele>
        <time>2024-09-16T14:40:33Z</time>
      </trkpt>
      <trkpt lat="53.760494962334633" lon="13.832520022988319">
        <ele>-9</ele>
        <time>2024-09-16T14:40:34Z</time>
      </trkpt>
      <trkpt lat="53.760398989543319" lon="13.832796039059758">
        <ele>-9</ele>
        <time>2024-09-16T14:40:35Z</time>
      </trkpt>
      <trkpt lat="53.76029497012496" lon="13.833061996847391">
        <ele>-8.51</ele>
        <time>2024-09-16T14:40:36Z</time>
      </trkpt>
      <trkpt lat="53.760169995948672" lon="13.833296019583941">
        <ele>-8.51</ele>
        <time>2024-09-16T14:40:37Z</time>
      </trkpt>
      <trkpt lat="53.760045021772385" lon="13.833512021228671">
        <ele>-8.029999999999999</ele>
        <time>2024-09-16T14:40:38Z</time>
      </trkpt>
      <trkpt lat="53.75992801040411" lon="13.833717964589596">
        <ele>-8.029999999999999</ele>
        <time>2024-09-16T14:40:39Z</time>
      </trkpt>
      <trkpt lat="53.759712008759379" lon="13.834100011736155">
        <ele>-7.07</ele>
        <time>2024-09-16T14:40:41Z</time>
      </trkpt>
      <trkpt lat="53.759640008211136" lon="13.834325987845659">
        <ele>-6.59</ele>
        <time>2024-09-16T14:40:42Z</time>
      </trkpt>
      <trkpt lat="53.759565996006131" lon="13.834565039724112">
        <ele>-6.11</ele>
        <time>2024-09-16T14:40:43Z</time>
      </trkpt>
      <trkpt lat="53.759507993236184" lon="13.834809036925435">
        <ele>-5.63</ele>
        <time>2024-09-16T14:40:44Z</time>
      </trkpt>
      <trkpt lat="53.759478991851211" lon="13.835086980834603">
        <ele>-4.19</ele>
        <time>2024-09-16T14:40:45Z</time>
      </trkpt>
      <trkpt lat="53.759452002122998" lon="13.835365008562803">
        <ele>-3.23</ele>
        <time>2024-09-16T14:40:46Z</time>
      </trkpt>
      <trkpt lat="53.759452002122998" lon="13.835652004927397">
        <ele>-2.75</ele>
        <time>2024-09-16T14:40:47Z</time>
      </trkpt>
      <trkpt lat="53.759482009336352" lon="13.835926009342074">
        <ele>-2.27</ele>
        <time>2024-09-16T14:40:48Z</time>
      </trkpt>
      <trkpt lat="53.759530959650874" lon="13.836204037070274">
        <ele>-1.79</ele>
        <time>2024-09-16T14:40:49Z</time>
      </trkpt>
      <trkpt lat="53.759588040411472" lon="13.836490027606487">
        <ele>-1.79</ele>
        <time>2024-09-16T14:40:50Z</time>
      </trkpt>
      <trkpt lat="53.759650988504291" lon="13.836782975122333">
        <ele>-1.3</ele>
        <time>2024-09-16T14:40:51Z</time>
      </trkpt>
      <trkpt lat="53.759700022637844" lon="13.837078018113971">
        <ele>-0.82</ele>
        <time>2024-09-16T14:40:52Z</time>
      </trkpt>
      <trkpt lat="53.759732963517308" lon="13.837387980893254">
        <ele>-0.82</ele>
        <time>2024-09-16T14:40:53Z</time>
      </trkpt>
      <trkpt lat="53.759738998487592" lon="13.83769802749157">
        <ele>-0.34</ele>
        <time>2024-09-16T14:40:54Z</time>
      </trkpt>
      <trkpt lat="53.759746039286256" lon="13.838013019412756">
        <ele>0.14</ele>
        <time>2024-09-16T14:40:55Z</time>
      </trkpt>
      <trkpt lat="53.759749978780746" lon="13.838331028819084">
        <ele>0.62</ele>
        <time>2024-09-16T14:40:56Z</time>
      </trkpt>
      <trkpt lat="53.759631039574742" lon="13.839838011190295">
        <ele>1.1</ele>
        <time>2024-09-16T14:41:01Z</time>
      </trkpt>
      <trkpt lat="53.759648976847529" lon="13.840119978412986">
        <ele>1.1</ele>
        <time>2024-09-16T14:41:02Z</time>
      </trkpt>
      <trkpt lat="53.759698010981083" lon="13.840378979220986">
        <ele>1.1</ele>
        <time>2024-09-16T14:41:03Z</time>
      </trkpt>
      <trkpt lat="53.759755007922649" lon="13.840629011392593">
        <ele>0.62</ele>
        <time>2024-09-16T14:41:04Z</time>
      </trkpt>
      <trkpt lat="53.759828014299273" lon="13.840888012200594">
        <ele>0.62</ele>
        <time>2024-09-16T14:41:05Z</time>
      </trkpt>
      <trkpt lat="53.759919041767716" lon="13.841125974431634">
        <ele>0.62</ele>
        <time>2024-09-16T14:41:06Z</time>
      </trkpt>
      <trkpt lat="53.760134037584066" lon="13.841602988541126">
        <ele>0.62</ele>
        <time>2024-09-16T14:41:08Z</time>
      </trkpt>
      <trkpt lat="53.760263035073876" lon="13.841831982135773">
        <ele>0.62</ele>
        <time>2024-09-16T14:41:09Z</time>
      </trkpt>
      <trkpt lat="53.760395972058177" lon="13.842063993215561">
        <ele>1.1</ele>
        <time>2024-09-16T14:41:10Z</time>
      </trkpt>
      <trkpt lat="53.761360980570316" lon="13.843610035255551">
        <ele>0.62</ele>
        <time>2024-09-16T14:41:17Z</time>
      </trkpt>
      <trkpt lat="53.762666964903474" lon="13.846121001988649">
        <ele>-2.27</ele>
        <time>2024-09-16T14:41:27Z</time>
      </trkpt>
      <trkpt lat="53.76375200226903" lon="13.84820600040257">
        <ele>-0.34</ele>
        <time>2024-09-16T14:41:35Z</time>
      </trkpt>
      <trkpt lat="53.76504197716713" lon="13.850703975185752">
        <ele>1.1</ele>
        <time>2024-09-16T14:41:44Z</time>
      </trkpt>
      <trkpt lat="53.765994999557734" lon="13.852578001096845">
        <ele>-0.82</ele>
        <time>2024-09-16T14:41:51Z</time>
      </trkpt>
      <trkpt lat="53.76624402590096" lon="13.85299701243639">
        <ele>-1.79</ele>
        <time>2024-09-16T14:41:53Z</time>
      </trkpt>
      <trkpt lat="53.766386015340686" lon="13.853132966905832">
        <ele>-1.79</ele>
        <time>2024-09-16T14:41:54Z</time>
      </trkpt>
      <trkpt lat="53.766528004780412" lon="13.853267999365926">
        <ele>-2.27</ele>
        <time>2024-09-16T14:41:55Z</time>
      </trkpt>
      <trkpt lat="53.766680974513292" lon="13.853404959663749">
        <ele>-2.27</ele>
        <time>2024-09-16T14:41:56Z</time>
      </trkpt>
      <trkpt lat="53.766847020015121" lon="13.853488024324179">
        <ele>-2.27</ele>
        <time>2024-09-16T14:41:57Z</time>
      </trkpt>
      <trkpt lat="53.7670190166682" lon="13.853569999337196">
        <ele>-2.27</ele>
        <time>2024-09-16T14:41:58Z</time>
      </trkpt>
      <trkpt lat="53.767180033028126" lon="13.853606963530183">
        <ele>-2.27</ele>
        <time>2024-09-16T14:41:59Z</time>
      </trkpt>
      <trkpt lat="53.76845701597631" lon="13.853903012350202">
        <ele>-3.71</ele>
        <time>2024-09-16T14:42:06Z</time>
      </trkpt>
      <trkpt lat="53.768638987094164" lon="13.854011977091432">
        <ele>-3.71</ele>
        <time>2024-09-16T14:42:07Z</time>
      </trkpt>
      <trkpt lat="53.769163023680449" lon="13.85445898398757">
        <ele>-4.67</ele>
        <time>2024-09-16T14:42:10Z</time>
      </trkpt>
      <trkpt lat="53.769323034211993" lon="13.854650007560849">
        <ele>-5.63</ele>
        <time>2024-09-16T14:42:11Z</time>
      </trkpt>
      <trkpt lat="53.769930973649025" lon="13.855506973341107">
        <ele>-6.11</ele>
        <time>2024-09-16T14:42:15Z</time>
      </trkpt>
      <trkpt lat="53.770092995837331" lon="13.855743007734418">
        <ele>-6.11</ele>
        <time>2024-09-16T14:42:16Z</time>
      </trkpt>
      <trkpt lat="53.77024102024734" lon="13.85600502602756">
        <ele>-6.59</ele>
        <time>2024-09-16T14:42:17Z</time>
      </trkpt>
      <trkpt lat="53.77086597494781" lon="13.857061984017491">
        <ele>-6.59</ele>
        <time>2024-09-16T14:42:22Z</time>
      </trkpt>
      <trkpt lat="53.770953984931111" lon="13.857191987335682">
        <ele>-6.59</ele>
        <time>2024-09-16T14:42:23Z</time>
      </trkpt>
      <trkpt lat="53.771060016006231" lon="13.857287960126996">
        <ele>-6.59</ele>
        <time>2024-09-16T14:42:24Z</time>
      </trkpt>
      <trkpt lat="53.771181972697377" lon="13.857390973716974">
        <ele>-6.11</ele>
        <time>2024-09-16T14:42:25Z</time>
      </trkpt>
      <trkpt lat="53.7713379599154" lon="13.85744696483016">
        <ele>-6.11</ele>
        <time>2024-09-16T14:42:26Z</time>
      </trkpt>
      <trkpt lat="53.772293999791145" lon="13.857760028913617">
        <ele>-5.63</ele>
        <time>2024-09-16T14:42:31Z</time>
      </trkpt>
      <trkpt lat="53.774024024605751" lon="13.858298985287547">
        <ele>-7.07</ele>
        <time>2024-09-16T14:42:39Z</time>
      </trkpt>
      <trkpt lat="53.776209019124508" lon="13.858847999945283">
        <ele>-3.23</ele>
        <time>2024-09-16T14:42:50Z</time>
      </trkpt>
      <trkpt lat="53.777663027867675" lon="13.859277991577983">
        <ele>1.1</ele>
        <time>2024-09-16T14:42:58Z</time>
      </trkpt>
      <trkpt lat="53.777950024232268" lon="13.859598012641072">
        <ele>2.06</ele>
        <time>2024-09-16T14:43:00Z</time>
      </trkpt>
      <trkpt lat="53.778081033378839" lon="13.859784007072449">
        <ele>2.54</ele>
        <time>2024-09-16T14:43:01Z</time>
      </trkpt>
      <trkpt lat="53.778208019211888" lon="13.859966984018683">
        <ele>2.54</ele>
        <time>2024-09-16T14:43:02Z</time>
      </trkpt>
      <trkpt lat="53.778294017538428" lon="13.86021701619029">
        <ele>3.02</ele>
        <time>2024-09-16T14:43:03Z</time>
      </trkpt>
      <trkpt lat="53.778381021693349" lon="13.860468976199627">
        <ele>3.02</ele>
        <time>2024-09-16T14:43:04Z</time>
      </trkpt>
      <trkpt lat="53.778447993099689" lon="13.860734011977911">
        <ele>3.02</ele>
        <time>2024-09-16T14:43:05Z</time>
      </trkpt>
      <trkpt lat="53.778500966727734" lon="13.861017990857363">
        <ele>3.02</ele>
        <time>2024-09-16T14:43:06Z</time>
      </trkpt>
      <trkpt lat="53.778531979769468" lon="13.86131202802062">
        <ele>3.02</ele>
        <time>2024-09-16T14:43:07Z</time>
      </trkpt>
      <trkpt lat="53.778540026396513" lon="13.86161302216351">
        <ele>3.02</ele>
        <time>2024-09-16T14:43:08Z</time>
      </trkpt>
      <trkpt lat="53.778548995032907" lon="13.861927008256316">
        <ele>3.02</ele>
        <time>2024-09-16T14:43:09Z</time>
      </trkpt>
      <trkpt lat="53.778618983924389" lon="13.864584993571043">
        <ele>4.94</ele>
        <time>2024-09-16T14:43:17Z</time>
      </trkpt>
      <trkpt lat="53.778709005564451" lon="13.866553986445069">
        <ele>3.02</ele>
        <time>2024-09-16T14:43:24Z</time>
      </trkpt>
      <trkpt lat="53.778773965314031" lon="13.867168966680765">
        <ele>0.62</ele>
        <time>2024-09-16T14:43:29Z</time>
      </trkpt>
      <trkpt lat="53.778782011941075" lon="13.867240967229009">
        <ele>0.14</ele>
        <time>2024-09-16T14:43:30Z</time>
      </trkpt>
      <trkpt lat="53.778790980577469" lon="13.867323026061058">
        <ele>-0.34</ele>
        <time>2024-09-16T14:43:31Z</time>
      </trkpt>
      <trkpt lat="53.778801038861275" lon="13.867421010509133">
        <ele>-1.3</ele>
        <time>2024-09-16T14:43:32Z</time>
      </trkpt>
      <trkpt lat="53.778811013326049" lon="13.867531986907125">
        <ele>-1.79</ele>
        <time>2024-09-16T14:43:33Z</time>
      </trkpt>
      <trkpt lat="53.778913021087646" lon="13.868859009817243">
        <ele>-3.23</ele>
        <time>2024-09-16T14:43:41Z</time>
      </trkpt>
      <trkpt lat="53.779039001092315" lon="13.870541006326675">
        <ele>-3.71</ele>
        <time>2024-09-16T14:43:49Z</time>
      </trkpt>
      <trkpt lat="53.779079988598824" lon="13.871304010972381">
        <ele>-4.19</ele>
        <time>2024-09-16T14:43:53Z</time>
      </trkpt>
      <trkpt lat="53.77907101996243" lon="13.871519006788731">
        <ele>-4.19</ele>
        <time>2024-09-16T14:43:54Z</time>
      </trkpt>
      <trkpt lat="53.779059033840895" lon="13.871735008433461">
        <ele>-4.19</ele>
        <time>2024-09-16T14:43:55Z</time>
      </trkpt>
      <trkpt lat="53.778852000832558" lon="13.873561006039381">
        <ele>-6.59</ele>
        <time>2024-09-16T14:44:04Z</time>
      </trkpt>
      <trkpt lat="53.778701964765787" lon="13.876205999404192">
        <ele>-4.19</ele>
        <time>2024-09-16T14:44:16Z</time>
      </trkpt>
      <trkpt lat="53.778600040823221" lon="13.878643959760666">
        <ele>-2.27</ele>
        <time>2024-09-16T14:44:28Z</time>
      </trkpt>
      <trkpt lat="53.778593000024557" lon="13.878870019689202">
        <ele>-0.82</ele>
        <time>2024-09-16T14:44:36Z</time>
      </trkpt>
      <trkpt lat="53.778588976711035" lon="13.879030030220747">
        <ele>-0.82</ele>
        <time>2024-09-16T14:44:52Z</time>
      </trkpt>
      <trkpt lat="53.778585037216544" lon="13.879147041589022">
        <ele>-0.34</ele>
        <time>2024-09-16T14:44:53Z</time>
      </trkpt>
      <trkpt lat="53.778423015028238" lon="13.880582023411989">
        <ele>0.14</ele>
        <time>2024-09-16T14:45:01Z</time>
      </trkpt>
      <trkpt lat="53.777855979278684" lon="13.882623016834259">
        <ele>0.62</ele>
        <time>2024-09-16T14:45:10Z</time>
      </trkpt>
      <trkpt lat="53.777333032339811" lon="13.884407021105289">
        <ele>0.62</ele>
        <time>2024-09-16T14:45:19Z</time>
      </trkpt>
      <trkpt lat="53.776744036003947" lon="13.886484978720546">
        <ele>1.1</ele>
        <time>2024-09-16T14:45:30Z</time>
      </trkpt>
      <trkpt lat="53.776357965543866" lon="13.888187007978559">
        <ele>1.58</ele>
        <time>2024-09-16T14:45:40Z</time>
      </trkpt>
      <trkpt lat="53.776203989982605" lon="13.888923022896051">
        <ele>1.1</ele>
        <time>2024-09-16T14:45:47Z</time>
      </trkpt>
      <trkpt lat="53.776183035224676" lon="13.88902603648603">
        <ele>1.1</ele>
        <time>2024-09-16T14:45:50Z</time>
      </trkpt>
      <trkpt lat="53.7761490046978" lon="13.889171965420246">
        <ele>0.62</ele>
        <time>2024-09-16T14:45:54Z</time>
      </trkpt>
      <trkpt lat="53.776142969727516" lon="13.88919903896749">
        <ele>0.62</ele>
        <time>2024-09-16T14:45:55Z</time>
      </trkpt>
      <trkpt lat="53.776142969727516" lon="13.88919903896749">
        <ele>0.14</ele>
        <time>2024-09-16T14:46:11Z</time>
      </trkpt>
      <trkpt lat="53.776142969727516" lon="13.88919903896749">
        <ele>0.62</ele>
        <time>2024-09-16T14:46:56Z</time>
      </trkpt>
      <trkpt lat="53.776142969727516" lon="13.88919903896749">
        <ele>0.62</ele>
        <time>2024-09-16T14:48:02Z</time>
      </trkpt>
      <trkpt lat="53.776142969727516" lon="13.88919903896749">
        <ele>1.1</ele>
        <time>2024-09-16T14:49:00Z</time>
      </trkpt>
      <trkpt lat="53.776142969727516" lon="13.88919903896749">
        <ele>1.58</ele>
        <time>2024-09-16T14:50:04Z</time>
      </trkpt>
      <trkpt lat="53.776142969727516" lon="13.88919903896749">
        <ele>2.06</ele>
        <time>2024-09-16T14:50:56Z</time>
      </trkpt>
      <trkpt lat="53.776142969727516" lon="13.88919903896749">
        <ele>2.06</ele>
        <time>2024-09-16T14:52:04Z</time>
      </trkpt>
      <trkpt lat="53.776142969727516" lon="13.88919903896749">
        <ele>2.54</ele>
        <time>2024-09-16T14:53:00Z</time>
      </trkpt>
      <trkpt lat="53.776142969727516" lon="13.88919903896749">
        <ele>2.54</ele>
        <time>2024-09-16T14:53:55Z</time>
      </trkpt>
      <trkpt lat="53.776142969727516" lon="13.88919903896749">
        <ele>2.54</ele>
        <time>2024-09-16T14:54:55Z</time>
      </trkpt>
      <trkpt lat="53.776142969727516" lon="13.88919903896749">
        <ele>3.02</ele>
        <time>2024-09-16T14:55:53Z</time>
      </trkpt>
      <trkpt lat="53.776142969727516" lon="13.88919903896749">
        <ele>2.54</ele>
        <time>2024-09-16T14:56:45Z</time>
      </trkpt>
      <trkpt lat="53.776142969727516" lon="13.88919903896749">
        <ele>3.02</ele>
        <time>2024-09-16T14:57:47Z</time>
      </trkpt>
      <trkpt lat="53.776142969727516" lon="13.88919903896749">
        <ele>3.02</ele>
        <time>2024-09-16T14:58:44Z</time>
      </trkpt>
      <trkpt lat="53.776142969727516" lon="13.88919903896749">
        <ele>3.02</ele>
        <time>2024-09-16T14:59:41Z</time>
      </trkpt>
      <trkpt lat="53.776142969727516" lon="13.88919903896749">
        <ele>3.5</ele>
        <time>2024-09-16T15:00:37Z</time>
      </trkpt>
      <trkpt lat="53.776142969727516" lon="13.88919903896749">
        <ele>3.5</ele>
        <time>2024-09-16T15:01:44Z</time>
      </trkpt>
      <trkpt lat="53.776111034676433" lon="13.889326024800539">
        <ele>3.5</ele>
        <time>2024-09-16T15:01:58Z</time>
      </trkpt>
      <trkpt lat="53.776111034676433" lon="13.889326024800539">
        <ele>3.5</ele>
        <time>2024-09-16T15:01:59Z</time>
      </trkpt>
      <trkpt lat="53.776112962514162" lon="13.889316972345114">
        <ele>3.5</ele>
        <time>2024-09-16T15:02:02Z</time>
      </trkpt>
      <trkpt lat="53.776126960292459" lon="13.889262992888689">
        <ele>3.5</ele>
        <time>2024-09-16T15:02:03Z</time>
      </trkpt>
      <trkpt lat="53.776147998869419" lon="13.88917800039053">
        <ele>3.02</ele>
        <time>2024-09-16T15:02:04Z</time>
      </trkpt>
      <trkpt lat="53.776173982769251" lon="13.8890690356493">
        <ele>3.02</ele>
        <time>2024-09-16T15:02:05Z</time>
      </trkpt>
      <trkpt lat="53.776438012719154" lon="13.88780596666038">
        <ele>1.1</ele>
        <time>2024-09-16T15:02:12Z</time>
      </trkpt>
      <trkpt lat="53.777130022644997" lon="13.88509601354599">
        <ele>-1.3</ele>
        <time>2024-09-16T15:02:26Z</time>
      </trkpt>
      <trkpt lat="53.777753971517086" lon="13.882972961291671">
        <ele>-0.82</ele>
        <time>2024-09-16T15:02:36Z</time>
      </trkpt>
      <trkpt lat="53.778440030291677" lon="13.880508011206985">
        <ele>-0.34</ele>
        <time>2024-09-16T15:02:45Z</time>
      </trkpt>
      <trkpt lat="53.778499038890004" lon="13.880187990143895">
        <ele>-0.34</ele>
        <time>2024-09-16T15:02:46Z</time>
      </trkpt>
      <trkpt lat="53.778541032224894" lon="13.879852965474129">
        <ele>-0.34</ele>
        <time>2024-09-16T15:02:47Z</time>
      </trkpt>
      <trkpt lat="53.778661983087659" lon="13.876991970464587">
        <ele>-1.3</ele>
        <time>2024-09-16T15:02:55Z</time>
      </trkpt>
      <trkpt lat="53.778874967247248" lon="13.873313991352916">
        <ele>-2.75</ele>
        <time>2024-09-16T15:03:08Z</time>
      </trkpt>
      <trkpt lat="53.779084011912346" lon="13.871204014867544">
        <ele>-2.75</ele>
        <time>2024-09-16T15:03:16Z</time>
      </trkpt>
      <trkpt lat="53.779068002477288" lon="13.870935961604118">
        <ele>-2.75</ele>
        <time>2024-09-16T15:03:17Z</time>
      </trkpt>
      <trkpt lat="53.778811013326049" lon="13.867535004392266">
        <ele>-4.19</ele>
        <time>2024-09-16T15:03:29Z</time>
      </trkpt>
      <trkpt lat="53.778778994455934" lon="13.867210038006306">
        <ele>-3.71</ele>
        <time>2024-09-16T15:03:30Z</time>
      </trkpt>
      <trkpt lat="53.778608003631234" lon="13.864316018298268">
        <ele>-1.3</ele>
        <time>2024-09-16T15:03:38Z</time>
      </trkpt>
      <trkpt lat="53.778530973941088" lon="13.861294006928802">
        <ele>0.62</ele>
        <time>2024-09-16T15:03:46Z</time>
      </trkpt>
      <trkpt lat="53.778493003919721" lon="13.860979015007615">
        <ele>0.62</ele>
        <time>2024-09-16T15:03:47Z</time>
      </trkpt>
      <trkpt lat="53.778438018634915" lon="13.860678020864725">
        <ele>0.14</ele>
        <time>2024-09-16T15:03:48Z</time>
      </trkpt>
      <trkpt lat="53.778360988944769" lon="13.86041097342968">
        <ele>0.14</ele>
        <time>2024-09-16T15:03:49Z</time>
      </trkpt>
      <trkpt lat="53.778270967304707" lon="13.860151972621679">
        <ele>0.14</ele>
        <time>2024-09-16T15:03:50Z</time>
      </trkpt>
      <trkpt lat="53.778172982856631" lon="13.859914010390639">
        <ele>0.14</ele>
        <time>2024-09-16T15:03:51Z</time>
      </trkpt>
      <trkpt lat="53.778038034215569" lon="13.85972298681736">
        <ele>0.14</ele>
        <time>2024-09-16T15:03:52Z</time>
      </trkpt>
      <trkpt lat="53.777901995927095" lon="13.859530035406351">
        <ele>-0.34</ele>
        <time>2024-09-16T15:03:53Z</time>
      </trkpt>
      <trkpt lat="53.777762018144131" lon="13.859354015439749">
        <ele>-0.34</ele>
        <time>2024-09-16T15:03:54Z</time>
      </trkpt>
      <trkpt lat="53.777595972642303" lon="13.8592270296067">
        <ele>-0.34</ele>
        <time>2024-09-16T15:03:55Z</time>
      </trkpt>
      <trkpt lat="53.777418024837971" lon="13.859133990481496">
        <ele>-0.82</ele>
        <time>2024-09-16T15:03:56Z</time>
      </trkpt>
      <trkpt lat="53.777222977951169" lon="13.859069030731916">
        <ele>-0.82</ele>
        <time>2024-09-16T15:03:57Z</time>
      </trkpt>
      <trkpt lat="53.777018962427974" lon="13.859000969678164">
        <ele>-0.82</ele>
        <time>2024-09-16T15:03:58Z</time>
      </trkpt>
      <trkpt lat="53.774958020076156" lon="13.858595034107566">
        <ele>-0.34</ele>
        <time>2024-09-16T15:04:07Z</time>
      </trkpt>
      <trkpt lat="53.773311981931329" lon="13.858074015006423">
        <ele>2.06</ele>
        <time>2024-09-16T15:04:14Z</time>
      </trkpt>
      <trkpt lat="53.772882996127009" lon="13.857937976717949">
        <ele>2.54</ele>
        <time>2024-09-16T15:04:16Z</time>
      </trkpt>
      <trkpt lat="53.772678980603814" lon="13.85787402279675">
        <ele>2.54</ele>
        <time>2024-09-16T15:04:17Z</time>
      </trkpt>
      <trkpt lat="53.771182978525758" lon="13.857391979545355">
        <ele>-0.82</ele>
        <time>2024-09-16T15:04:25Z</time>
      </trkpt>
      <trkpt lat="53.771050963550806" lon="13.857281003147364">
        <ele>-0.82</ele>
        <time>2024-09-16T15:04:26Z</time>
      </trkpt>
      <trkpt lat="53.770931018516421" lon="13.857172038406134">
        <ele>-0.82</ele>
        <time>2024-09-16T15:04:27Z</time>
      </trkpt>
      <trkpt lat="53.770829010754824" lon="13.857000963762403">
        <ele>-0.82</ele>
        <time>2024-09-16T15:04:28Z</time>
      </trkpt>
      <trkpt lat="53.770719040185213" lon="13.856817986816168">
        <ele>-0.34</ele>
        <time>2024-09-16T15:04:29Z</time>
      </trkpt>
      <trkpt lat="53.770601022988558" lon="13.856622017920017">
        <ele>0.14</ele>
        <time>2024-09-16T15:04:30Z</time>
      </trkpt>
      <trkpt lat="53.769503999501467" lon="13.854895010590553">
        <ele>0.62</ele>
        <time>2024-09-16T15:04:38Z</time>
      </trkpt>
      <trkpt lat="53.768649967387319" lon="13.854020023718476">
        <ele>-0.34</ele>
        <time>2024-09-16T15:04:43Z</time>
      </trkpt>
      <trkpt lat="53.768485011532903" lon="13.853909969329834">
        <ele>-0.82</ele>
        <time>2024-09-16T15:04:44Z</time>
      </trkpt>
      <trkpt lat="53.768282001838088" lon="13.853863030672073">
        <ele>-0.82</ele>
        <time>2024-09-16T15:04:45Z</time>
      </trkpt>
      <trkpt lat="53.768085027113557" lon="13.853817014023662">
        <ele>-1.3</ele>
        <time>2024-09-16T15:04:46Z</time>
      </trkpt>
      <trkpt lat="53.767884029075503" lon="13.85377099737525">
        <ele>-1.3</ele>
        <time>2024-09-16T15:04:47Z</time>
      </trkpt>
      <trkpt lat="53.766361959278584" lon="13.853108994662762">
        <ele>-3.23</ele>
        <time>2024-09-16T15:04:55Z</time>
      </trkpt>
      <trkpt lat="53.766206977888942" lon="13.852961976081133">
        <ele>-3.23</ele>
        <time>2024-09-16T15:04:56Z</time>
      </trkpt>
      <trkpt lat="53.766189040616155" lon="13.852944960817695">
        <ele>-3.71</ele>
        <time>2024-09-16T15:04:57Z</time>
      </trkpt>
      <trkpt lat="53.765990976244211" lon="13.852570038288832">
        <ele>-3.71</ele>
        <time>2024-09-16T15:04:58Z</time>
      </trkpt>
      <trkpt lat="53.765861978754401" lon="13.852326041087508">
        <ele>-4.19</ele>
        <time>2024-09-16T15:04:59Z</time>
      </trkpt>
      <trkpt lat="53.765723006799817" lon="13.852063016965985">
        <ele>-4.19</ele>
        <time>2024-09-16T15:05:00Z</time>
      </trkpt>
      <trkpt lat="53.765572970733047" lon="13.851784989237785">
        <ele>-4.19</ele>
        <time>2024-09-16T15:05:01Z</time>
      </trkpt>
      <trkpt lat="53.76390103250742" lon="13.848492996767163">
        <ele>-5.15</ele>
        <time>2024-09-16T15:05:12Z</time>
      </trkpt>
      <trkpt lat="53.762559005990624" lon="13.845912041142583">
        <ele>-3.71</ele>
        <time>2024-09-16T15:05:21Z</time>
      </trkpt>
      <trkpt lat="53.761542029678822" lon="13.843958973884583">
        <ele>-2.75</ele>
        <time>2024-09-16T15:05:28Z</time>
      </trkpt>
      <trkpt lat="53.761108014732599" lon="13.843204015865922">
        <ele>-4.67</ele>
        <time>2024-09-16T15:05:31Z</time>
      </trkpt>
      <trkpt lat="53.760952027514577" lon="13.842952977865934">
        <ele>-5.15</ele>
        <time>2024-09-16T15:05:32Z</time>
      </trkpt>
      <trkpt lat="53.760794028639793" lon="13.842699006199837">
        <ele>-5.15</ele>
        <time>2024-09-16T15:05:33Z</time>
      </trkpt>
      <trkpt lat="53.760638041421771" lon="13.84244997985661">
        <ele>-5.15</ele>
        <time>2024-09-16T15:05:34Z</time>
      </trkpt>
      <trkpt lat="53.760481970384717" lon="13.842216040939093">
        <ele>-5.15</ele>
        <time>2024-09-16T15:05:35Z</time>
      </trkpt>
      <trkpt lat="53.760049967095256" lon="13.841455969959497">
        <ele>-4.67</ele>
        <time>2024-09-16T15:05:38Z</time>
      </trkpt>
      <trkpt lat="53.759931027889252" lon="13.84116000495851">
        <ele>-4.67</ele>
        <time>2024-09-16T15:05:39Z</time>
      </trkpt>
      <trkpt lat="53.759738998487592" lon="13.84055701084435">
        <ele>-3.71</ele>
        <time>2024-09-16T15:05:41Z</time>
      </trkpt>
      <trkpt lat="53.759665992110968" lon="13.840242018923163">
        <ele>-3.71</ele>
        <time>2024-09-16T15:05:42Z</time>
      </trkpt>
      <trkpt lat="53.759628022089601" lon="13.83997798897326">
        <ele>-3.71</ele>
        <time>2024-09-16T15:05:43Z</time>
      </trkpt>
      <trkpt lat="53.759643025696278" lon="13.839689986780286">
        <ele>-3.71</ele>
        <time>2024-09-16T15:05:44Z</time>
      </trkpt>
      <trkpt lat="53.759666997939348" lon="13.839381029829383">
        <ele>-3.71</ele>
        <time>2024-09-16T15:05:45Z</time>
      </trkpt>
      <trkpt lat="53.759693987667561" lon="13.839049022644758">
        <ele>-3.71</ele>
        <time>2024-09-16T15:05:46Z</time>
      </trkpt>
      <trkpt lat="53.759721983224154" lon="13.838694971054792">
        <ele>-3.71</ele>
        <time>2024-09-16T15:05:47Z</time>
      </trkpt>
      <trkpt lat="53.759661968797445" lon="13.836846007034183">
        <ele>-5.63</ele>
        <time>2024-09-16T15:05:53Z</time>
      </trkpt>
      <trkpt lat="53.759508999064565" lon="13.836076967418194">
        <ele>-7.55</ele>
        <time>2024-09-16T15:05:56Z</time>
      </trkpt>
      <trkpt lat="53.759461976587772" lon="13.835813021287322">
        <ele>-7.55</ele>
        <time>2024-09-16T15:05:57Z</time>
      </trkpt>
      <trkpt lat="53.759452002122998" lon="13.835517978295684">
        <ele>-7.55</ele>
        <time>2024-09-16T15:05:58Z</time>
      </trkpt>
      <trkpt lat="53.759491983801126" lon="13.834962006658316">
        <ele>-8.029999999999999</ele>
        <time>2024-09-16T15:06:00Z</time>
      </trkpt>
      <trkpt lat="53.759528025984764" lon="13.834689008072019">
        <ele>-7.55</ele>
        <time>2024-09-16T15:06:01Z</time>
      </trkpt>
      <trkpt lat="53.759598014876246" lon="13.834462026134133">
        <ele>-7.55</ele>
        <time>2024-09-16T15:06:02Z</time>
      </trkpt>
      <trkpt lat="53.759664986282587" lon="13.834246024489403">
        <ele>-7.07</ele>
        <time>2024-09-16T15:06:03Z</time>
      </trkpt>
      <trkpt lat="53.759740004315972" lon="13.83404896594584">
        <ele>-7.07</ele>
        <time>2024-09-16T15:06:04Z</time>
      </trkpt>
      <trkpt lat="53.759838994592428" lon="13.833875963464379">
        <ele>-6.59</ele>
        <time>2024-09-16T15:06:05Z</time>
      </trkpt>
      <trkpt lat="53.759937984868884" lon="13.833701033145189">
        <ele>-6.59</ele>
        <time>2024-09-16T15:06:06Z</time>
      </trkpt>
      <trkpt lat="53.760654972866178" lon="13.831980982795358">
        <ele>-4.67</ele>
        <time>2024-09-16T15:06:14Z</time>
      </trkpt>
      <trkpt lat="53.760825963690877" lon="13.829985000193119">
        <ele>-2.75</ele>
        <time>2024-09-16T15:06:21Z</time>
      </trkpt>
      <trkpt lat="53.760834010317922" lon="13.829690963029861">
        <ele>-2.27</ele>
        <time>2024-09-16T15:06:22Z</time>
      </trkpt>
      <trkpt lat="53.760919002816081" lon="13.827045969665051">
        <ele>-1.3</ele>
        <time>2024-09-16T15:06:30Z</time>
      </trkpt>
      <trkpt lat="53.76100399531424" lon="13.824154967442155">
        <ele>-1.3</ele>
        <time>2024-09-16T15:06:39Z</time>
      </trkpt>
      <trkpt lat="53.761138021945953" lon="13.82221195846796">
        <ele>0.62</ele>
        <time>2024-09-16T15:06:46Z</time>
      </trkpt>
      <trkpt lat="53.761200970038772" lon="13.821612987667322">
        <ele>3.5</ele>
        <time>2024-09-16T15:06:49Z</time>
      </trkpt>
      <trkpt lat="53.761212034150958" lon="13.821478961035609">
        <ele>4.46</ele>
        <time>2024-09-16T15:06:50Z</time>
      </trkpt>
      <trkpt lat="53.761226031929255" lon="13.821312999352813">
        <ele>5.91</ele>
        <time>2024-09-16T15:06:52Z</time>
      </trkpt>
      <trkpt lat="53.761229971423745" lon="13.821259019896388">
        <ele>6.87</ele>
        <time>2024-09-16T15:06:53Z</time>
      </trkpt>
      <trkpt lat="53.76119501888752" lon="13.821227001026273">
        <ele>7.35</ele>
        <time>2024-09-16T15:06:54Z</time>
      </trkpt>
      <trkpt lat="53.761169034987688" lon="13.821224989369512">
        <ele>7.35</ele>
        <time>2024-09-16T15:06:55Z</time>
      </trkpt>
      <trkpt lat="53.76113299280405" lon="13.82122197188437">
        <ele>7.83</ele>
        <time>2024-09-16T15:06:56Z</time>
      </trkpt>
      <trkpt lat="53.761092005297542" lon="13.82121903821826">
        <ele>7.83</ele>
        <time>2024-09-16T15:06:57Z</time>
      </trkpt>
      <trkpt lat="53.761032996699214" lon="13.821215014904737">
        <ele>7.83</ele>
        <time>2024-09-16T15:06:58Z</time>
      </trkpt>
      <trkpt lat="53.760955967009068" lon="13.821208979934454">
        <ele>8.310000000000001</ele>
        <time>2024-09-16T15:06:59Z</time>
      </trkpt>
      <trkpt lat="53.760135965421796" lon="13.821145026013255">
        <ele>8.310000000000001</ele>
        <time>2024-09-16T15:07:06Z</time>
      </trkpt>
      <trkpt lat="53.759057968854904" lon="13.821061039343476">
        <ele>11.67</ele>
        <time>2024-09-16T15:07:13Z</time>
      </trkpt>
      <trkpt lat="53.757634973153472" lon="13.820950984954834">
        <ele>16.48</ele>
        <time>2024-09-16T15:07:21Z</time>
      </trkpt>
      <trkpt lat="53.75619001686573" lon="13.820839002728462">
        <ele>18.879999999999999</ele>
        <time>2024-09-16T15:07:29Z</time>
      </trkpt>
      <trkpt lat="53.754520006477833" lon="13.820708999410272">
        <ele>19.84</ele>
        <time>2024-09-16T15:07:37Z</time>
      </trkpt>
      <trkpt lat="53.753028027713299" lon="13.820596011355519">
        <ele>20.809999999999999</ele>
        <time>2024-09-16T15:07:44Z</time>
      </trkpt>
      <trkpt lat="53.75148399733007" lon="13.820478999987245">
        <ele>19.359999999999999</ele>
        <time>2024-09-16T15:07:52Z</time>
      </trkpt>
      <trkpt lat="53.749968968331814" lon="13.820365006104112">
        <ele>18.399999999999999</ele>
        <time>2024-09-16T15:08:00Z</time>
      </trkpt>
      <trkpt lat="53.748225029557943" lon="13.820224022492766">
        <ele>13.119999999999999</ele>
        <time>2024-09-16T15:08:09Z</time>
      </trkpt>
      <trkpt lat="53.745908020064235" lon="13.820035010576248">
        <ele>10.23</ele>
        <time>2024-09-16T15:08:21Z</time>
      </trkpt>
      <trkpt lat="53.743723025545478" lon="13.819535030052066">
        <ele>7.35</ele>
        <time>2024-09-16T15:08:32Z</time>
      </trkpt>
      <trkpt lat="53.74224697239697" lon="13.819807022809982">
        <ele>6.39</ele>
        <time>2024-09-16T15:08:41Z</time>
      </trkpt>
      <trkpt lat="53.741366034373641" lon="13.819722030311823">
        <ele>5.91</ele>
        <time>2024-09-16T15:08:47Z</time>
      </trkpt>
      <trkpt lat="53.739969022572041" lon="13.819606024771929">
        <ele>7.35</ele>
        <time>2024-09-16T15:08:57Z</time>
      </trkpt>
      <trkpt lat="53.739688983187079" lon="13.819578029215336">
        <ele>7.35</ele>
        <time>2024-09-16T15:09:00Z</time>
      </trkpt>
      <trkpt lat="53.739584963768721" lon="13.819652041420341">
        <ele>7.35</ele>
        <time>2024-09-16T15:09:01Z</time>
      </trkpt>
      <trkpt lat="53.739521009847522" lon="13.819712977856398">
        <ele>7.35</ele>
        <time>2024-09-16T15:09:02Z</time>
      </trkpt>
      <trkpt lat="53.73945202678442" lon="13.819819008931518">
        <ele>7.35</ele>
        <time>2024-09-16T15:09:03Z</time>
      </trkpt>
      <trkpt lat="53.739379020407796" lon="13.81993199698627">
        <ele>7.35</ele>
        <time>2024-09-16T15:09:04Z</time>
      </trkpt>
      <trkpt lat="53.738781977444887" lon="13.82085501216352">
        <ele>7.83</ele>
        <time>2024-09-16T15:09:10Z</time>
      </trkpt>
      <trkpt lat="53.737609013915062" lon="13.822669023647904">
        <ele>8.310000000000001</ele>
        <time>2024-09-16T15:09:18Z</time>
      </trkpt>
      <trkpt lat="53.73509201221168" lon="13.826558981090784">
        <ele>6.87</ele>
        <time>2024-09-16T15:09:34Z</time>
      </trkpt>
      <trkpt lat="53.733744034543633" lon="13.828641967847943">
        <ele>4.46</ele>
        <time>2024-09-16T15:09:44Z</time>
      </trkpt>
      <trkpt lat="53.732861001044512" lon="13.830014001578093">
        <ele>3.98</ele>
        <time>2024-09-16T15:09:52Z</time>
      </trkpt>
      <trkpt lat="53.732532011345029" lon="13.830542983487248">
        <ele>3.5</ele>
        <time>2024-09-16T15:09:56Z</time>
      </trkpt>
      <trkpt lat="53.731913007795811" lon="13.831537999212742">
        <ele>2.54</ele>
        <time>2024-09-16T15:10:04Z</time>
      </trkpt>
      <trkpt lat="53.73176196590066" lon="13.831780990585685">
        <ele>3.02</ele>
        <time>2024-09-16T15:10:06Z</time>
      </trkpt>
      <trkpt lat="53.731018994003534" lon="13.833012962713838">
        <ele>4.46</ele>
        <time>2024-09-16T15:10:16Z</time>
      </trkpt>
      <trkpt lat="53.730873987078667" lon="13.833342036232352">
        <ele>4.94</ele>
        <time>2024-09-16T15:10:18Z</time>
      </trkpt>
      <trkpt lat="53.730812966823578" lon="13.833524007350206">
        <ele>5.42</ele>
        <time>2024-09-16T15:10:19Z</time>
      </trkpt>
      <trkpt lat="53.730693021789193" lon="13.833884010091424">
        <ele>5.91</ele>
        <time>2024-09-16T15:10:21Z</time>
      </trkpt>
      <trkpt lat="53.730609035119414" lon="13.834032034501433">
        <ele>6.39</ele>
        <time>2024-09-16T15:10:22Z</time>
      </trkpt>
      <trkpt lat="53.730187006294727" lon="13.834706023335457">
        <ele>7.83</ele>
        <time>2024-09-16T15:10:27Z</time>
      </trkpt>
      <trkpt lat="53.730136966332793" lon="13.834833009168506">
        <ele>8.310000000000001</ele>
        <time>2024-09-16T15:10:28Z</time>
      </trkpt>
      <trkpt lat="53.730119029060006" lon="13.834951026365161">
        <ele>8.310000000000001</ele>
        <time>2024-09-16T15:10:29Z</time>
      </trkpt>
      <trkpt lat="53.730119029060006" lon="13.835087986662984">
        <ele>8.310000000000001</ele>
        <time>2024-09-16T15:10:30Z</time>
      </trkpt>
      <trkpt lat="53.730120034888387" lon="13.835225030779839">
        <ele>8.310000000000001</ele>
        <time>2024-09-16T15:10:31Z</time>
      </trkpt>
      <trkpt lat="53.730154987424612" lon="13.835346987470984">
        <ele>8.310000000000001</ele>
        <time>2024-09-16T15:10:32Z</time>
      </trkpt>
      <trkpt lat="53.730188012123108" lon="13.835460981354117">
        <ele>8.310000000000001</ele>
        <time>2024-09-16T15:10:33Z</time>
      </trkpt>
      <trkpt lat="53.730217013508081" lon="13.835562989115715">
        <ele>7.83</ele>
        <time>2024-09-16T15:10:34Z</time>
      </trkpt>
      <trkpt lat="53.730241991579533" lon="13.835653010755777">
        <ele>7.83</ele>
        <time>2024-09-16T15:10:35Z</time>
      </trkpt>
      <trkpt lat="53.730265963822603" lon="13.835734985768795">
        <ele>7.83</ele>
        <time>2024-09-16T15:10:36Z</time>
      </trkpt>
      <trkpt lat="53.730240985751152" lon="13.835908994078636">
        <ele>7.83</ele>
        <time>2024-09-16T15:10:37Z</time>
      </trkpt>
      <trkpt lat="53.730195974931121" lon="13.835989041253924">
        <ele>7.83</ele>
        <time>2024-09-16T15:10:38Z</time>
      </trkpt>
      <trkpt lat="53.73015196993947" lon="13.8360679987818">
        <ele>7.83</ele>
        <time>2024-09-16T15:10:39Z</time>
      </trkpt>
      <trkpt lat="53.730096984654665" lon="13.836164977401495">
        <ele>7.83</ele>
        <time>2024-09-16T15:10:40Z</time>
      </trkpt>
      <trkpt lat="53.73004300519824" lon="13.83619599044323">
        <ele>7.83</ele>
        <time>2024-09-16T15:10:41Z</time>
      </trkpt>
      <trkpt lat="53.729989025741816" lon="13.836225997656584">
        <ele>7.83</ele>
        <time>2024-09-16T15:10:42Z</time>
      </trkpt>
      <trkpt lat="53.729938985779881" lon="13.836272014304996">
        <ele>7.35</ele>
        <time>2024-09-16T15:10:43Z</time>
      </trkpt>
      <trkpt lat="53.729907972738147" lon="13.836358012631536">
        <ele>7.35</ele>
        <time>2024-09-16T15:10:44Z</time>
      </trkpt>
      <trkpt lat="53.729874026030302" lon="13.836449962109327">
        <ele>7.35</ele>
        <time>2024-09-16T15:10:45Z</time>
      </trkpt>
      <trkpt lat="53.729837983846664" lon="13.836548030376434">
        <ele>7.35</ele>
        <time>2024-09-16T15:10:46Z</time>
      </trkpt>
      <trkpt lat="53.729271031916142" lon="13.837752006947994">
        <ele>8.310000000000001</ele>
        <time>2024-09-16T15:10:56Z</time>
      </trkpt>
      <trkpt lat="53.728433009237051" lon="13.839222025126219">
        <ele>8.310000000000001</ele>
        <time>2024-09-16T15:11:07Z</time>
      </trkpt>
      <trkpt lat="53.727668998762965" lon="13.840562961995602">
        <ele>7.35</ele>
        <time>2024-09-16T15:11:17Z</time>
      </trkpt>
      <trkpt lat="53.727594986557961" lon="13.840691959485412">
        <ele>7.35</ele>
        <time>2024-09-16T15:11:18Z</time>
      </trkpt>
      <trkpt lat="53.726544985547662" lon="13.842606972903013">
        <ele>4.46</ele>
        <time>2024-09-16T15:11:31Z</time>
      </trkpt>
      <trkpt lat="53.725696988403797" lon="13.844177993014455">
        <ele>3.5</ele>
        <time>2024-09-16T15:11:43Z</time>
      </trkpt>
      <trkpt lat="53.724839016795158" lon="13.845768962055445">
        <ele>4.94</ele>
        <time>2024-09-16T15:11:53Z</time>
      </trkpt>
      <trkpt lat="53.724340964108706" lon="13.846692983061075">
        <ele>4.46</ele>
        <time>2024-09-16T15:12:00Z</time>
      </trkpt>
      <trkpt lat="53.724322021007538" lon="13.846728019416332">
        <ele>4.46</ele>
        <time>2024-09-16T15:12:01Z</time>
      </trkpt>
      <trkpt lat="53.724322021007538" lon="13.846728019416332">
        <ele>3.98</ele>
        <time>2024-09-16T15:12:14Z</time>
      </trkpt>
      <trkpt lat="53.724293019622564" lon="13.846781998872757">
        <ele>4.46</ele>
        <time>2024-09-16T15:12:32Z</time>
      </trkpt>
      <trkpt lat="53.723970986902714" lon="13.847358003258705">
        <ele>4.94</ele>
        <time>2024-09-16T15:12:37Z</time>
      </trkpt>
      <trkpt lat="53.722862983122468" lon="13.849292965605855">
        <ele>3.98</ele>
        <time>2024-09-16T15:12:47Z</time>
      </trkpt>
      <trkpt lat="53.721909038722515" lon="13.850959958508611">
        <ele>-1.79</ele>
        <time>2024-09-16T15:12:55Z</time>
      </trkpt>
      <trkpt lat="53.720980994403362" lon="13.852582024410367">
        <ele>-3.23</ele>
        <time>2024-09-16T15:13:03Z</time>
      </trkpt>
      <trkpt lat="53.720256965607405" lon="13.853847021237016">
        <ele>-9</ele>
        <time>2024-09-16T15:13:10Z</time>
      </trkpt>
      <trkpt lat="53.719892017543316" lon="13.854296961799264">
        <ele>-10.44</ele>
        <time>2024-09-16T15:13:14Z</time>
      </trkpt>
      <trkpt lat="53.719804007560015" lon="13.854369968175888">
        <ele>-10.44</ele>
        <time>2024-09-16T15:13:15Z</time>
      </trkpt>
      <trkpt lat="53.719696970656514" lon="13.85445998981595">
        <ele>-10.44</ele>
        <time>2024-09-16T15:13:16Z</time>
      </trkpt>
      <trkpt lat="53.719255998730659" lon="13.854828039184213">
        <ele>-9.48</ele>
        <time>2024-09-16T15:13:20Z</time>
      </trkpt>
      <trkpt lat="53.718931032344699" lon="13.855099026113749">
        <ele>-8.51</ele>
        <time>2024-09-16T15:13:23Z</time>
      </trkpt>
      <trkpt lat="53.717799978330731" lon="13.856044001877308">
        <ele>-4.19</ele>
        <time>2024-09-16T15:13:31Z</time>
      </trkpt>
      <trkpt lat="53.71667998842895" lon="13.856980009004474">
        <ele>-3.71</ele>
        <time>2024-09-16T15:13:40Z</time>
      </trkpt>
      <trkpt lat="53.715184992179275" lon="13.858228996396065">
        <ele>-2.75</ele>
        <time>2024-09-16T15:13:54Z</time>
      </trkpt>
      <trkpt lat="53.713973974809051" lon="13.859246978536248">
        <ele>0.14</ele>
        <time>2024-09-16T15:14:07Z</time>
      </trkpt>
      <trkpt lat="53.713730983436108" lon="13.859451999887824">
        <ele>1.1</ele>
        <time>2024-09-16T15:14:14Z</time>
      </trkpt>
      <trkpt lat="53.71369200758636" lon="13.859484018757939">
        <ele>1.1</ele>
        <time>2024-09-16T15:14:16Z</time>
      </trkpt>
      <trkpt lat="53.713629981502891" lon="13.859342029318213">
        <ele>1.58</ele>
        <time>2024-09-16T15:14:18Z</time>
      </trkpt>
      <trkpt lat="53.713614977896214" lon="13.859264999628067">
        <ele>1.58</ele>
        <time>2024-09-16T15:14:19Z</time>
      </trkpt>
      <trkpt lat="53.713595028966665" lon="13.859153017401695">
        <ele>2.06</ele>
        <time>2024-09-16T15:14:20Z</time>
      </trkpt>
      <trkpt lat="53.713569967076182" lon="13.859017984941602">
        <ele>2.06</ele>
        <time>2024-09-16T15:14:21Z</time>
      </trkpt>
      <trkpt lat="53.713347008451819" lon="13.857523994520307">
        <ele>3.98</ele>
        <time>2024-09-16T15:14:28Z</time>
      </trkpt>
      <trkpt lat="53.713252963498235" lon="13.85697104036808">
        <ele>3.98</ele>
        <time>2024-09-16T15:14:30Z</time>
      </trkpt>
      <trkpt lat="53.713190015405416" lon="13.856674991548061">
        <ele>3.98</ele>
        <time>2024-09-16T15:14:31Z</time>
      </trkpt>
      <trkpt lat="53.713075015693903" lon="13.856422025710344">
        <ele>3.98</ele>
        <time>2024-09-16T15:14:32Z</time>
      </trkpt>
      <trkpt lat="53.712954986840487" lon="13.85615698993206">
        <ele>3.98</ele>
        <time>2024-09-16T15:14:33Z</time>
      </trkpt>
      <trkpt lat="53.71283202432096" lon="13.855884997174144">
        <ele>3.98</ele>
        <time>2024-09-16T15:14:34Z</time>
      </trkpt>
      <trkpt lat="53.711294028908014" lon="13.852572971954942">
        <ele>3.02</ele>
        <time>2024-09-16T15:14:45Z</time>
      </trkpt>
      <trkpt lat="53.709977986291051" lon="13.849756987765431">
        <ele>3.5</ele>
        <time>2024-09-16T15:14:55Z</time>
      </trkpt>
      <trkpt lat="53.709176005795598" lon="13.848030986264348">
        <ele>3.5</ele>
        <time>2024-09-16T15:15:04Z</time>
      </trkpt>
      <trkpt lat="53.708910970017314" lon="13.847450958564878">
        <ele>2.06</ele>
        <time>2024-09-16T15:15:10Z</time>
      </trkpt>
      <trkpt lat="53.70887903496623" lon="13.847382981330156">
        <ele>1.58</ele>
        <time>2024-09-16T15:15:18Z</time>
      </trkpt>
      <trkpt lat="53.708790019154549" lon="13.847193969413638">
        <ele>1.1</ele>
        <time>2024-09-16T15:15:25Z</time>
      </trkpt>
      <trkpt lat="53.708748025819659" lon="13.847278039902449">
        <ele>1.1</ele>
        <time>2024-09-16T15:15:26Z</time>
      </trkpt>
      <trkpt lat="53.708703014999628" lon="13.847366971895099">
        <ele>1.1</ele>
        <time>2024-09-16T15:15:27Z</time>
      </trkpt>
      <trkpt lat="53.708647023886442" lon="13.847479037940502">
        <ele>1.1</ele>
        <time>2024-09-16T15:15:28Z</time>
      </trkpt>
      <trkpt lat="53.708575023338199" lon="13.847623961046338">
        <ele>1.1</ele>
        <time>2024-09-16T15:15:29Z</time>
      </trkpt>
      <trkpt lat="53.707936992868781" lon="13.848814023658633">
        <ele>1.1</ele>
        <time>2024-09-16T15:15:35Z</time>
      </trkpt>
      <trkpt lat="53.707207012921572" lon="13.850197037681937">
        <ele>0.62</ele>
        <time>2024-09-16T15:15:40Z</time>
      </trkpt>
      <trkpt lat="53.705576984211802" lon="13.853331031277776">
        <ele>0.62</ele>
        <time>2024-09-16T15:15:49Z</time>
      </trkpt>
      <trkpt lat="53.703123014420271" lon="13.858016012236476">
        <ele>2.06</ele>
        <time>2024-09-16T15:16:04Z</time>
      </trkpt>
      <trkpt lat="53.702336959540844" lon="13.859541015699506">
        <ele>1.1</ele>
        <time>2024-09-16T15:16:11Z</time>
      </trkpt>
      <trkpt lat="53.701154021546245" lon="13.861778983846307">
        <ele>-0.34</ele>
        <time>2024-09-16T15:16:20Z</time>
      </trkpt>
      <trkpt lat="53.699733037501574" lon="13.864793032407761">
        <ele>0.14</ele>
        <time>2024-09-16T15:16:31Z</time>
      </trkpt>
      <trkpt lat="53.698785966262221" lon="13.86700501665473">
        <ele>1.58</ele>
        <time>2024-09-16T15:16:39Z</time>
      </trkpt>
      <trkpt lat="53.697559023275971" lon="13.869832986965775">
        <ele>2.54</ele>
        <time>2024-09-16T15:16:48Z</time>
      </trkpt>
      <trkpt lat="53.695927988737822" lon="13.873594030737877">
        <ele>4.46</ele>
        <time>2024-09-16T15:17:00Z</time>
      </trkpt>
      <trkpt lat="53.694552015513182" lon="13.876506993547082">
        <ele>0.62</ele>
        <time>2024-09-16T15:17:10Z</time>
      </trkpt>
      <trkpt lat="53.693387014791369" lon="13.877478037029505">
        <ele>-0.34</ele>
        <time>2024-09-16T15:17:16Z</time>
      </trkpt>
      <trkpt lat="53.691262034699321" lon="13.878664998337626">
        <ele>-0.82</ele>
        <time>2024-09-16T15:17:26Z</time>
      </trkpt>
      <trkpt lat="53.68904996663332" lon="13.879872998222709">
        <ele>-2.27</ele>
        <time>2024-09-16T15:17:36Z</time>
      </trkpt>
      <trkpt lat="53.686854997649789" lon="13.881088038906455">
        <ele>-4.67</ele>
        <time>2024-09-16T15:17:46Z</time>
      </trkpt>
      <trkpt lat="53.684633038938046" lon="13.882191013544798">
        <ele>-5.63</ele>
        <time>2024-09-16T15:17:56Z</time>
      </trkpt>
      <trkpt lat="53.681111969053745" lon="13.883496997877955">
        <ele>-3.23</ele>
        <time>2024-09-16T15:18:11Z</time>
      </trkpt>
      <trkpt lat="53.679051026701927" lon="13.884228989481926">
        <ele>-2.27</ele>
        <time>2024-09-16T15:18:19Z</time>
      </trkpt>
      <trkpt lat="53.676919005811214" lon="13.885028036311269">
        <ele>0.62</ele>
        <time>2024-09-16T15:18:28Z</time>
      </trkpt>
      <trkpt lat="53.674479033797979" lon="13.885953985154629">
        <ele>3.02</ele>
        <time>2024-09-16T15:18:39Z</time>
      </trkpt>
      <trkpt lat="53.672363022342324" lon="13.886703997850418">
        <ele>2.54</ele>
        <time>2024-09-16T15:18:49Z</time>
      </trkpt>
      <trkpt lat="53.670289004221559" lon="13.887451998889446">
        <ele>3.98</ele>
        <time>2024-09-16T15:19:00Z</time>
      </trkpt>
      <trkpt lat="53.669016966596246" lon="13.888198994100094">
        <ele>6.87</ele>
        <time>2024-09-16T15:19:09Z</time>
      </trkpt>
      <trkpt lat="53.668409027159214" lon="13.888817997649312">
        <ele>8.789999999999999</ele>
        <time>2024-09-16T15:19:15Z</time>
      </trkpt>
      <trkpt lat="53.668114989995956" lon="13.889231979846954">
        <ele>9.27</ele>
        <time>2024-09-16T15:19:19Z</time>
      </trkpt>
      <trkpt lat="53.668069979175925" lon="13.889297023415565">
        <ele>9.75</ele>
        <time>2024-09-16T15:19:20Z</time>
      </trkpt>
      <trkpt lat="53.667927989736199" lon="13.889233991503716">
        <ele>9.75</ele>
        <time>2024-09-16T15:19:21Z</time>
      </trkpt>
      <trkpt lat="53.667898988351226" lon="13.889167020097375">
        <ele>9.75</ele>
        <time>2024-09-16T15:19:22Z</time>
      </trkpt>
      <trkpt lat="53.667869986966252" lon="13.889100970700383">
        <ele>10.23</ele>
        <time>2024-09-16T15:19:23Z</time>
      </trkpt>
      <trkpt lat="53.667849032208323" lon="13.88896401040256">
        <ele>10.23</ele>
        <time>2024-09-16T15:19:24Z</time>
      </trkpt>
      <trkpt lat="53.667828999459743" lon="13.888839036226273">
        <ele>10.23</ele>
        <time>2024-09-16T15:19:25Z</time>
      </trkpt>
      <trkpt lat="53.667806033045053" lon="13.888693023473024">
        <ele>10.23</ele>
        <time>2024-09-16T15:19:26Z</time>
      </trkpt>
      <trkpt lat="53.66779999807477" lon="13.888567965477705">
        <ele>9.75</ele>
        <time>2024-09-16T15:19:27Z</time>
      </trkpt>
      <trkpt lat="53.667793963104486" lon="13.888435028493404">
        <ele>9.75</ele>
        <time>2024-09-16T15:19:28Z</time>
      </trkpt>
      <trkpt lat="53.667788011953235" lon="13.888309970498085">
        <ele>9.27</ele>
        <time>2024-09-16T15:19:29Z</time>
      </trkpt>
      <trkpt lat="53.667769990861416" lon="13.888199999928474">
        <ele>9.27</ele>
        <time>2024-09-16T15:19:30Z</time>
      </trkpt>
      <trkpt lat="53.66771399974823" lon="13.888121964409947">
        <ele>8.789999999999999</ele>
        <time>2024-09-16T15:19:31Z</time>
      </trkpt>
      <trkpt lat="53.667637975886464" lon="13.888048036023974">
        <ele>8.310000000000001</ele>
        <time>2024-09-16T15:19:32Z</time>
      </trkpt>
      <trkpt lat="53.667552983388305" lon="13.887999001890421">
        <ele>7.83</ele>
        <time>2024-09-16T15:19:33Z</time>
      </trkpt>
      <trkpt lat="53.666558973491192" lon="13.887464990839362">
        <ele>4.46</ele>
        <time>2024-09-16T15:19:43Z</time>
      </trkpt>
      <trkpt lat="53.666385971009731" lon="13.887411011382937">
        <ele>3.98</ele>
        <time>2024-09-16T15:19:45Z</time>
      </trkpt>
      <trkpt lat="53.666287986561656" lon="13.88745903968811">
        <ele>3.5</ele>
        <time>2024-09-16T15:19:47Z</time>
      </trkpt>
      <trkpt lat="53.666196037083864" lon="13.887404976412654">
        <ele>3.5</ele>
        <time>2024-09-16T15:19:48Z</time>
      </trkpt>
      <trkpt lat="53.66616896353662" lon="13.887349991127849">
        <ele>3.5</ele>
        <time>2024-09-16T15:19:49Z</time>
      </trkpt>
      <trkpt lat="53.665660014376044" lon="13.886783039197326">
        <ele>2.06</ele>
        <time>2024-09-16T15:20:00Z</time>
      </trkpt>
      <trkpt lat="53.665631012991071" lon="13.886706009507179">
        <ele>2.06</ele>
        <time>2024-09-16T15:20:01Z</time>
      </trkpt>
      <trkpt lat="53.665601005777717" lon="13.886627973988652">
        <ele>2.06</ele>
        <time>2024-09-16T15:20:02Z</time>
      </trkpt>
      <trkpt lat="53.665568986907601" lon="13.886543987318873">
        <ele>2.06</ele>
        <time>2024-09-16T15:20:03Z</time>
      </trkpt>
      <trkpt lat="53.665538979694247" lon="13.886463018134236">
        <ele>2.06</ele>
        <time>2024-09-16T15:20:04Z</time>
      </trkpt>
      <trkpt lat="53.665508972480893" lon="13.886384982615709">
        <ele>2.06</ele>
        <time>2024-09-16T15:20:05Z</time>
      </trkpt>
      <trkpt lat="53.665478965267539" lon="13.886305019259453">
        <ele>2.06</ele>
        <time>2024-09-16T15:20:06Z</time>
      </trkpt>
      <trkpt lat="53.665423979982734" lon="13.886161018162966">
        <ele>1.58</ele>
        <time>2024-09-16T15:20:08Z</time>
      </trkpt>
      <trkpt lat="53.665423979982734" lon="13.886161018162966">
        <ele>2.06</ele>
        <time>2024-09-16T15:20:09Z</time>
      </trkpt>
      <trkpt lat="53.665423979982734" lon="13.886161018162966">
        <ele>2.06</ele>
        <time>2024-09-16T15:20:10Z</time>
      </trkpt>
      <trkpt lat="53.665260029956698" lon="13.885944010689855">
        <ele>2.06</ele>
        <time>2024-09-16T15:20:11Z</time>
      </trkpt>
      <trkpt lat="53.66522298194468" lon="13.885982986539602">
        <ele>1.58</ele>
        <time>2024-09-16T15:20:12Z</time>
      </trkpt>
      <trkpt lat="53.665180988609791" lon="13.886026991531253">
        <ele>1.58</ele>
        <time>2024-09-16T15:20:13Z</time>
      </trkpt>
      <trkpt lat="53.66513698361814" lon="13.886073008179665">
        <ele>1.58</ele>
        <time>2024-09-16T15:20:14Z</time>
      </trkpt>
      <trkpt lat="53.665090966969728" lon="13.886121036484838">
        <ele>1.1</ele>
        <time>2024-09-16T15:20:15Z</time>
      </trkpt>
      <trkpt lat="53.664798019453883" lon="13.886326979845762">
        <ele>0.14</ele>
        <time>2024-09-16T15:20:21Z</time>
      </trkpt>
      <trkpt lat="53.664742028340697" lon="13.886310970410705">
        <ele>0.14</ele>
        <time>2024-09-16T15:20:22Z</time>
      </trkpt>
      <trkpt lat="53.664616970345378" lon="13.886241987347603">
        <ele>0.14</ele>
        <time>2024-09-16T15:20:24Z</time>
      </trkpt>
      <trkpt lat="53.66449199616909" lon="13.88617099262774">
        <ele>0.62</ele>
        <time>2024-09-16T15:20:26Z</time>
      </trkpt>
      <trkpt lat="53.664434999227524" lon="13.886139979586005">
        <ele>0.62</ele>
        <time>2024-09-16T15:20:27Z</time>
      </trkpt>
      <trkpt lat="53.664376996457577" lon="13.88610796071589">
        <ele>0.62</ele>
        <time>2024-09-16T15:20:28Z</time>
      </trkpt>
      <trkpt lat="53.663698984310031" lon="13.885727003216743">
        <ele>2.54</ele>
        <time>2024-09-16T15:20:39Z</time>
      </trkpt>
      <trkpt lat="53.663274021819234" lon="13.885487029328942">
        <ele>3.98</ele>
        <time>2024-09-16T15:20:46Z</time>
      </trkpt>
      <trkpt lat="53.663228005170822" lon="13.88546003960073">
        <ele>3.98</ele>
        <time>2024-09-16T15:20:47Z</time>
      </trkpt>
      <trkpt lat="53.663167990744114" lon="13.885425003245473">
        <ele>3.98</ele>
        <time>2024-09-16T15:20:48Z</time>
      </trkpt>
      <trkpt lat="53.663093978539109" lon="13.885383009910583">
        <ele>3.98</ele>
        <time>2024-09-16T15:20:49Z</time>
      </trkpt>
      <trkpt lat="53.663013009354472" lon="13.885334981605411">
        <ele>3.98</ele>
        <time>2024-09-16T15:20:50Z</time>
      </trkpt>
      <trkpt lat="53.662940002977848" lon="13.885292988270521">
        <ele>3.98</ele>
        <time>2024-09-16T15:20:51Z</time>
      </trkpt>
      <trkpt lat="53.662874959409237" lon="13.885256024077535">
        <ele>3.98</ele>
        <time>2024-09-16T15:20:52Z</time>
      </trkpt>
      <trkpt lat="53.662575976923108" lon="13.885082015767694">
        <ele>3.02</ele>
        <time>2024-09-16T15:20:57Z</time>
      </trkpt>
      <trkpt lat="53.662523003295064" lon="13.885052008554339">
        <ele>2.54</ele>
        <time>2024-09-16T15:20:58Z</time>
      </trkpt>
      <trkpt lat="53.662247993052006" lon="13.884893003851175">
        <ele>1.58</ele>
        <time>2024-09-16T15:21:03Z</time>
      </trkpt>
      <trkpt lat="53.662194013595581" lon="13.884861990809441">
        <ele>1.1</ele>
        <time>2024-09-16T15:21:04Z</time>
      </trkpt>
      <trkpt lat="53.662091000005603" lon="13.884799964725971">
        <ele>0.62</ele>
        <time>2024-09-16T15:21:06Z</time>
      </trkpt>
      <trkpt lat="53.662034003064036" lon="13.884765012189746">
        <ele>0.14</ele>
        <time>2024-09-16T15:21:07Z</time>
      </trkpt>
      <trkpt lat="53.661348028108478" lon="13.884343989193439">
        <ele>0.14</ele>
        <time>2024-09-16T15:21:18Z</time>
      </trkpt>
      <trkpt lat="53.661101013422012" lon="13.88419303111732">
        <ele>1.1</ele>
        <time>2024-09-16T15:21:22Z</time>
      </trkpt>
      <trkpt lat="53.660959023982286" lon="13.884105021134019">
        <ele>0.62</ele>
        <time>2024-09-16T15:21:24Z</time>
      </trkpt>
      <trkpt lat="53.660735981538892" lon="13.883968982845545">
        <ele>0.62</ele>
        <time>2024-09-16T15:21:28Z</time>
      </trkpt>
      <trkpt lat="53.660180009901524" lon="13.883640998974442">
        <ele>0.14</ele>
        <time>2024-09-16T15:21:38Z</time>
      </trkpt>
      <trkpt lat="53.659897036850452" lon="13.883476965129375">
        <ele>0.14</ele>
        <time>2024-09-16T15:21:43Z</time>
      </trkpt>
      <trkpt lat="53.659848002716899" lon="13.883448969572783">
        <ele>0.14</ele>
        <time>2024-09-16T15:21:44Z</time>
      </trkpt>
      <trkpt lat="53.659801986068487" lon="13.883422985672951">
        <ele>0.62</ele>
        <time>2024-09-16T15:21:45Z</time>
      </trkpt>
      <trkpt lat="53.659501997753978" lon="13.88324897736311">
        <ele>0.62</ele>
        <time>2024-09-16T15:21:50Z</time>
      </trkpt>
      <trkpt lat="53.659449024125934" lon="13.883218970149755">
        <ele>1.1</ele>
        <time>2024-09-16T15:21:51Z</time>
      </trkpt>
      <trkpt lat="53.659319020807743" lon="13.883191980421543">
        <ele>1.1</ele>
        <time>2024-09-16T15:21:53Z</time>
      </trkpt>
      <trkpt lat="53.659188011661172" lon="13.883181000128388">
        <ele>0.62</ele>
        <time>2024-09-16T15:21:55Z</time>
      </trkpt>
      <trkpt lat="53.659126991406083" lon="13.883210001513362">
        <ele>0.62</ele>
        <time>2024-09-16T15:21:56Z</time>
      </trkpt>
      <trkpt lat="53.659071000292897" lon="13.883265992626548">
        <ele>0.14</ele>
        <time>2024-09-16T15:21:57Z</time>
      </trkpt>
      <trkpt lat="53.658805964514613" lon="13.883531028404832">
        <ele>-0.82</ele>
        <time>2024-09-16T15:22:06Z</time>
      </trkpt>
      <trkpt lat="53.65877402946353" lon="13.883562963455915">
        <ele>-0.82</ele>
        <time>2024-09-16T15:22:08Z</time>
      </trkpt>
      <trkpt lat="53.658659029752016" lon="13.883577967062593">
        <ele>-0.82</ele>
        <time>2024-09-16T15:22:09Z</time>
      </trkpt>
      <trkpt lat="53.658636985346675" lon="13.883518036454916">
        <ele>-0.82</ele>
        <time>2024-09-16T15:22:10Z</time>
      </trkpt>
      <trkpt lat="53.658606978133321" lon="13.883440000936389">
        <ele>-0.82</ele>
        <time>2024-09-16T15:22:11Z</time>
      </trkpt>
      <trkpt lat="53.658575965091586" lon="13.883357020094991">
        <ele>-0.82</ele>
        <time>2024-09-16T15:22:12Z</time>
      </trkpt>
      <trkpt lat="53.658546041697264" lon="13.883259035646915">
        <ele>-0.82</ele>
        <time>2024-09-16T15:22:13Z</time>
      </trkpt>
      <trkpt lat="53.658429030328989" lon="13.88277699239552">
        <ele>0.62</ele>
        <time>2024-09-16T15:22:17Z</time>
      </trkpt>
      <trkpt lat="53.658374967053533" lon="13.882655035704374">
        <ele>1.1</ele>
        <time>2024-09-16T15:22:18Z</time>
      </trkpt>
      <trkpt lat="53.658293997868896" lon="13.882580017670989">
        <ele>1.58</ele>
        <time>2024-09-16T15:22:19Z</time>
      </trkpt>
      <trkpt lat="53.658213028684258" lon="13.882504999637604">
        <ele>2.06</ele>
        <time>2024-09-16T15:22:20Z</time>
      </trkpt>
      <trkpt lat="53.65813298150897" lon="13.882429981604218">
        <ele>2.06</ele>
        <time>2024-09-16T15:22:21Z</time>
      </trkpt>
      <trkpt lat="53.658047989010811" lon="13.882373990491033">
        <ele>2.54</ele>
        <time>2024-09-16T15:22:22Z</time>
      </trkpt>
      <trkpt lat="53.657961990684271" lon="13.88232596218586">
        <ele>3.02</ele>
        <time>2024-09-16T15:22:23Z</time>
      </trkpt>
      <trkpt lat="53.656792966648936" lon="13.881682986393571">
        <ele>3.02</ele>
        <time>2024-09-16T15:22:36Z</time>
      </trkpt>
      <trkpt lat="53.656533965840936" lon="13.881540996953845">
        <ele>2.54</ele>
        <time>2024-09-16T15:22:39Z</time>
      </trkpt>
      <trkpt lat="53.655608016997576" lon="13.881000028923154">
        <ele>1.58</ele>
        <time>2024-09-16T15:22:50Z</time>
      </trkpt>
      <trkpt lat="53.655364019796252" lon="13.880857033655047">
        <ele>2.06</ele>
        <time>2024-09-16T15:22:53Z</time>
      </trkpt>
      <trkpt lat="53.654792038723826" lon="13.880518991500139">
        <ele>2.06</ele>
        <time>2024-09-16T15:23:00Z</time>
      </trkpt>
      <trkpt lat="53.654724983498454" lon="13.880479009822011">
        <ele>2.06</ele>
        <time>2024-09-16T15:23:01Z</time>
      </trkpt>
      <trkpt lat="53.654690030962229" lon="13.880339032039046">
        <ele>2.06</ele>
        <time>2024-09-16T15:23:02Z</time>
      </trkpt>
      <trkpt lat="53.654666980728507" lon="13.88022000901401">
        <ele>2.06</ele>
        <time>2024-09-16T15:23:03Z</time>
      </trkpt>
      <trkpt lat="53.654638985171914" lon="13.880077013745904">
        <ele>2.06</ele>
        <time>2024-09-16T15:23:04Z</time>
      </trkpt>
      <trkpt lat="53.654607972130179" lon="13.87991901487112">
        <ele>2.06</ele>
        <time>2024-09-16T15:23:05Z</time>
      </trkpt>
      <trkpt lat="53.654237994924188" lon="13.878251016139984">
        <ele>2.06</ele>
        <time>2024-09-16T15:23:14Z</time>
      </trkpt>
      <trkpt lat="53.653976982459426" lon="13.877072017639875">
        <ele>0.14</ele>
        <time>2024-09-16T15:23:20Z</time>
      </trkpt>
      <trkpt lat="53.653702978044748" lon="13.874789960682392">
        <ele>-1.3</ele>
        <time>2024-09-16T15:23:29Z</time>
      </trkpt>
      <trkpt lat="53.653477001935244" lon="13.872801018878818">
        <ele>-3.71</ele>
        <time>2024-09-16T15:23:36Z</time>
      </trkpt>
      <trkpt lat="53.653430985286832" lon="13.872580993920565">
        <ele>-4.19</ele>
        <time>2024-09-16T15:23:37Z</time>
      </trkpt>
      <trkpt lat="53.653336018323898" lon="13.872391982004046">
        <ele>-4.19</ele>
        <time>2024-09-16T15:23:38Z</time>
      </trkpt>
      <trkpt lat="53.653239039704204" lon="13.872198024764657">
        <ele>-4.19</ele>
        <time>2024-09-16T15:23:39Z</time>
      </trkpt>
      <trkpt lat="53.653122028335929" lon="13.872022004798055">
        <ele>-4.67</ele>
        <time>2024-09-16T15:23:40Z</time>
      </trkpt>
      <trkpt lat="53.652985990047455" lon="13.871858976781368">
        <ele>-4.19</ele>
        <time>2024-09-16T15:23:41Z</time>
      </trkpt>
      <trkpt lat="53.652838971465826" lon="13.871684968471527">
        <ele>-4.19</ele>
        <time>2024-09-16T15:23:42Z</time>
      </trkpt>
      <trkpt lat="53.652687007561326" lon="13.87149796821177">
        <ele>-4.19</ele>
        <time>2024-09-16T15:23:43Z</time>
      </trkpt>
      <trkpt lat="53.65076201967895" lon="13.869036035612226">
        <ele>-1.79</ele>
        <time>2024-09-16T15:23:55Z</time>
      </trkpt>
      <trkpt lat="53.648576019331813" lon="13.86627403087914">
        <ele>0.14</ele>
        <time>2024-09-16T15:24:08Z</time>
      </trkpt>
      <trkpt lat="53.646897040307522" lon="13.864151984453201">
        <ele>1.1</ele>
        <time>2024-09-16T15:24:18Z</time>
      </trkpt>
      <trkpt lat="53.645359966903925" lon="13.862223979085684">
        <ele>1.1</ele>
        <time>2024-09-16T15:24:28Z</time>
      </trkpt>
      <trkpt lat="53.644479028880596" lon="13.861223012208939">
        <ele>2.54</ele>
        <time>2024-09-16T15:24:36Z</time>
      </trkpt>
      <trkpt lat="53.643535980954766" lon="13.860481968149543">
        <ele>1.58</ele>
        <time>2024-09-16T15:24:45Z</time>
      </trkpt>
      <trkpt lat="53.642564015462995" lon="13.859752994030714">
        <ele>-1.79</ele>
        <time>2024-09-16T15:24:54Z</time>
      </trkpt>
      <trkpt lat="53.641777038574219" lon="13.859153017401695">
        <ele>0.14</ele>
        <time>2024-09-16T15:25:01Z</time>
      </trkpt>
      <trkpt lat="53.640569038689137" lon="13.85821801610291">
        <ele>0.62</ele>
        <time>2024-09-16T15:25:12Z</time>
      </trkpt>
      <trkpt lat="53.639254001900554" lon="13.857186958193779">
        <ele>1.1</ele>
        <time>2024-09-16T15:25:24Z</time>
      </trkpt>
      <trkpt lat="53.638104004785419" lon="13.855911986902356">
        <ele>0.62</ele>
        <time>2024-09-16T15:25:35Z</time>
      </trkpt>
      <trkpt lat="53.637893032282591" lon="13.855527006089687">
        <ele>0.62</ele>
        <time>2024-09-16T15:25:37Z</time>
      </trkpt>
      <trkpt lat="53.637202028185129" lon="13.853369001299143">
        <ele>2.06</ele>
        <time>2024-09-16T15:25:45Z</time>
      </trkpt>
      <trkpt lat="53.636893993243575" lon="13.850787039846182">
        <ele>1.58</ele>
        <time>2024-09-16T15:25:53Z</time>
      </trkpt>
      <trkpt lat="53.636639015749097" lon="13.848933968693018">
        <ele>1.58</ele>
        <time>2024-09-16T15:26:00Z</time>
      </trkpt>
      <trkpt lat="53.635933008044958" lon="13.846127036958933">
        <ele>1.1</ele>
        <time>2024-09-16T15:26:10Z</time>
      </trkpt>
      <trkpt lat="53.635128010064363" lon="13.842765977606177">
        <ele>3.98</ele>
        <time>2024-09-16T15:26:21Z</time>
      </trkpt>
      <trkpt lat="53.634788962081075" lon="13.840217040851712">
        <ele>4.94</ele>
        <time>2024-09-16T15:26:29Z</time>
      </trkpt>
      <trkpt lat="53.634570026770234" lon="13.837331989780068">
        <ele>5.42</ele>
        <time>2024-09-16T15:26:38Z</time>
      </trkpt>
      <trkpt lat="53.634150009602308" lon="13.831774033606052">
        <ele>5.42</ele>
        <time>2024-09-16T15:26:55Z</time>
      </trkpt>
      <trkpt lat="53.633838035166264" lon="13.827524995431304">
        <ele>6.39</ele>
        <time>2024-09-16T15:27:08Z</time>
      </trkpt>
      <trkpt lat="53.633588002994657" lon="13.824113979935646">
        <ele>6.39</ele>
        <time>2024-09-16T15:27:19Z</time>
      </trkpt>
      <trkpt lat="53.633478032425046" lon="13.822785029187799">
        <ele>7.35</ele>
        <time>2024-09-16T15:27:26Z</time>
      </trkpt>
      <trkpt lat="53.633114006370306" lon="13.820868004113436">
        <ele>6.39</ele>
        <time>2024-09-16T15:27:36Z</time>
      </trkpt>
      <trkpt lat="53.632589969784021" lon="13.818209012970328">
        <ele>7.35</ele>
        <time>2024-09-16T15:27:49Z</time>
      </trkpt>
      <trkpt lat="53.631999967619777" lon="13.815206028521061">
        <ele>7.35</ele>
        <time>2024-09-16T15:27:59Z</time>
      </trkpt>
      <trkpt lat="53.631133027374744" lon="13.810720033943653">
        <ele>8.310000000000001</ele>
        <time>2024-09-16T15:28:12Z</time>
      </trkpt>
      <trkpt lat="53.63088701851666" lon="13.808103036135435">
        <ele>7.35</ele>
        <time>2024-09-16T15:28:19Z</time>
      </trkpt>
      <trkpt lat="53.630536990240216" lon="13.805891973897815">
        <ele>5.42</ele>
        <time>2024-09-16T15:28:25Z</time>
      </trkpt>
      <trkpt lat="53.62953401170671" lon="13.803007006645203">
        <ele>3.5</ele>
        <time>2024-09-16T15:28:34Z</time>
      </trkpt>
      <trkpt lat="53.627952011302114" lon="13.798974975943565">
        <ele>3.02</ele>
        <time>2024-09-16T15:28:47Z</time>
      </trkpt>
      <trkpt lat="53.62657000310719" lon="13.797003971412778">
        <ele>3.5</ele>
        <time>2024-09-16T15:28:55Z</time>
      </trkpt>
      <trkpt lat="53.624063981696963" lon="13.79365598782897">
        <ele>4.46</ele>
        <time>2024-09-16T15:29:09Z</time>
      </trkpt>
      <trkpt lat="53.622011002153158" lon="13.790809996426105">
        <ele>5.91</ele>
        <time>2024-09-16T15:29:21Z</time>
      </trkpt>
      <trkpt lat="53.620619019493461" lon="13.788160979747772">
        <ele>8.310000000000001</ele>
        <time>2024-09-16T15:29:31Z</time>
      </trkpt>
      <trkpt lat="53.618995025753975" lon="13.785281041637063">
        <ele>9.75</ele>
        <time>2024-09-16T15:29:42Z</time>
      </trkpt>
      <trkpt lat="53.616678016260266" lon="13.781675985082984">
        <ele>8.789999999999999</ele>
        <time>2024-09-16T15:29:57Z</time>
      </trkpt>
      <trkpt lat="53.615610999986529" lon="13.780050985515118">
        <ele>10.23</ele>
        <time>2024-09-16T15:30:06Z</time>
      </trkpt>
      <trkpt lat="53.614890994504094" lon="13.77898002974689">
        <ele>8.789999999999999</ele>
        <time>2024-09-16T15:30:15Z</time>
      </trkpt>
      <trkpt lat="53.614317001774907" lon="13.778103031218052">
        <ele>7.83</ele>
        <time>2024-09-16T15:30:25Z</time>
      </trkpt>
      <trkpt lat="53.61359397880733" lon="13.777001984417439">
        <ele>8.789999999999999</ele>
        <time>2024-09-16T15:30:39Z</time>
      </trkpt>
      <trkpt lat="53.613565983250737" lon="13.776958985254169">
        <ele>8.789999999999999</ele>
        <time>2024-09-16T15:30:41Z</time>
      </trkpt>
      <trkpt lat="53.613565983250737" lon="13.776958985254169">
        <ele>8.789999999999999</ele>
        <time>2024-09-16T15:30:42Z</time>
      </trkpt>
      <trkpt lat="53.613541005179286" lon="13.776923026889563">
        <ele>8.310000000000001</ele>
        <time>2024-09-16T15:30:43Z</time>
      </trkpt>
      <trkpt lat="53.613475039601326" lon="13.776839962229133">
        <ele>8.789999999999999</ele>
        <time>2024-09-16T15:30:45Z</time>
      </trkpt>
      <trkpt lat="53.613411001861095" lon="13.776759998872876">
        <ele>8.789999999999999</ele>
        <time>2024-09-16T15:30:46Z</time>
      </trkpt>
      <trkpt lat="53.612655038014054" lon="13.776153987273574">
        <ele>11.67</ele>
        <time>2024-09-16T15:30:53Z</time>
      </trkpt>
      <trkpt lat="53.611160963773727" lon="13.775301966816187">
        <ele>11.19</ele>
        <time>2024-09-16T15:31:02Z</time>
      </trkpt>
      <trkpt lat="53.608959037810564" lon="13.773949965834618">
        <ele>9.75</ele>
        <time>2024-09-16T15:31:13Z</time>
      </trkpt>
      <trkpt lat="53.608782012015581" lon="13.773791966959834">
        <ele>9.75</ele>
        <time>2024-09-16T15:31:14Z</time>
      </trkpt>
      <trkpt lat="53.608643040060997" lon="13.773547969758511">
        <ele>9.27</ele>
        <time>2024-09-16T15:31:15Z</time>
      </trkpt>
      <trkpt lat="53.608519993722439" lon="13.773301960900426">
        <ele>8.789999999999999</ele>
        <time>2024-09-16T15:31:16Z</time>
      </trkpt>
      <trkpt lat="53.608405999839306" lon="13.77303097397089">
        <ele>8.789999999999999</ele>
        <time>2024-09-16T15:31:17Z</time>
      </trkpt>
      <trkpt lat="53.608291000127792" lon="13.772755963727832">
        <ele>8.310000000000001</ele>
        <time>2024-09-16T15:31:18Z</time>
      </trkpt>
      <trkpt lat="53.608176000416279" lon="13.772479025647044">
        <ele>7.83</ele>
        <time>2024-09-16T15:31:19Z</time>
      </trkpt>
      <trkpt lat="53.607262959703803" lon="13.770051039755344">
        <ele>4.94</ele>
        <time>2024-09-16T15:31:28Z</time>
      </trkpt>
      <trkpt lat="53.607205962762237" lon="13.76976597122848">
        <ele>4.94</ele>
        <time>2024-09-16T15:31:29Z</time>
      </trkpt>
      <trkpt lat="53.607184002175927" lon="13.769471012055874">
        <ele>4.46</ele>
        <time>2024-09-16T15:31:30Z</time>
      </trkpt>
      <trkpt lat="53.607176961377263" lon="13.7691639829427">
        <ele>3.98</ele>
        <time>2024-09-16T15:31:31Z</time>
      </trkpt>
      <trkpt lat="53.607170004397631" lon="13.768849996849895">
        <ele>3.5</ele>
        <time>2024-09-16T15:31:32Z</time>
      </trkpt>
      <trkpt lat="53.607242004945874" lon="13.766202991828322">
        <ele>1.1</ele>
        <time>2024-09-16T15:31:40Z</time>
      </trkpt>
      <trkpt lat="53.60733998939395" lon="13.762871017679572">
        <ele>1.1</ele>
        <time>2024-09-16T15:31:49Z</time>
      </trkpt>
      <trkpt lat="53.607350969687104" lon="13.759505013003945">
        <ele>1.1</ele>
        <time>2024-09-16T15:31:59Z</time>
      </trkpt>
      <trkpt lat="53.606876973062754" lon="13.75732203014195">
        <ele>1.58</ele>
        <time>2024-09-16T15:32:06Z</time>
      </trkpt>
      <trkpt lat="53.605783972889185" lon="13.753931969404221">
        <ele>1.1</ele>
        <time>2024-09-16T15:32:17Z</time>
      </trkpt>
      <trkpt lat="53.604297023266554" lon="13.751098969951272">
        <ele>1.58</ele>
        <time>2024-09-16T15:32:28Z</time>
      </trkpt>
      <trkpt lat="53.60308600589633" lon="13.74821400269866">
        <ele>1.58</ele>
        <time>2024-09-16T15:32:38Z</time>
      </trkpt>
      <trkpt lat="53.601636020466685" lon="13.743461966514587">
        <ele>3.02</ele>
        <time>2024-09-16T15:32:53Z</time>
      </trkpt>
      <trkpt lat="53.600322995334864" lon="13.738484038040042">
        <ele>3.98</ele>
        <time>2024-09-16T15:33:08Z</time>
      </trkpt>
      <trkpt lat="53.599596032872796" lon="13.735654978081584">
        <ele>4.94</ele>
        <time>2024-09-16T15:33:16Z</time>
      </trkpt>
      <trkpt lat="53.598866974934936" lon="13.732820972800255">
        <ele>6.87</ele>
        <time>2024-09-16T15:33:25Z</time>
      </trkpt>
      <trkpt lat="53.598579978570342" lon="13.731700982898474">
        <ele>8.310000000000001</ele>
        <time>2024-09-16T15:33:31Z</time>
      </trkpt>
      <trkpt lat="53.59853002242744" lon="13.731508031487465">
        <ele>8.310000000000001</ele>
        <time>2024-09-16T15:33:33Z</time>
      </trkpt>
      <trkpt lat="53.598514012992382" lon="13.731448017060757">
        <ele>8.310000000000001</ele>
        <time>2024-09-16T15:33:34Z</time>
      </trkpt>
      <trkpt lat="53.598503032699227" lon="13.731405017897487">
        <ele>8.789999999999999</ele>
        <time>2024-09-16T15:33:35Z</time>
      </trkpt>
      <trkpt lat="53.598494986072183" lon="13.731372999027371">
        <ele>8.789999999999999</ele>
        <time>2024-09-16T15:33:36Z</time>
      </trkpt>
      <trkpt lat="53.59848702326417" lon="13.731340980157256">
        <ele>8.789999999999999</ele>
        <time>2024-09-16T15:33:37Z</time>
      </trkpt>
      <trkpt lat="53.598480988293886" lon="13.731316002085805">
        <ele>8.789999999999999</ele>
        <time>2024-09-16T15:33:38Z</time>
      </trkpt>
      <trkpt lat="53.598429020494223" lon="13.731298986822367">
        <ele>9.27</ele>
        <time>2024-09-16T15:33:39Z</time>
      </trkpt>
      <trkpt lat="53.598407981917262" lon="13.731365036219358">
        <ele>9.27</ele>
        <time>2024-09-16T15:33:40Z</time>
      </trkpt>
      <trkpt lat="53.598373029381037" lon="13.731478024274111">
        <ele>9.27</ele>
        <time>2024-09-16T15:33:41Z</time>
      </trkpt>
      <trkpt lat="53.598331036046147" lon="13.731615990400314">
        <ele>9.75</ele>
        <time>2024-09-16T15:33:42Z</time>
      </trkpt>
      <trkpt lat="53.597932979464531" lon="13.732900014147162">
        <ele>12.630000000000001</ele>
        <time>2024-09-16T15:33:48Z</time>
      </trkpt>
      <trkpt lat="53.597136028110981" lon="13.735491028055549">
        <ele>17.440000000000001</ele>
        <time>2024-09-16T15:33:57Z</time>
      </trkpt>
      <trkpt lat="53.59653202816844" lon="13.737461026757956">
        <ele>17.920000000000002</ele>
        <time>2024-09-16T15:34:05Z</time>
      </trkpt>
      <trkpt lat="53.596365982666612" lon="13.738003000617027">
        <ele>19.359999999999999</ele>
        <time>2024-09-16T15:34:09Z</time>
      </trkpt>
      <trkpt lat="53.596347961574793" lon="13.738059997558594">
        <ele>19.359999999999999</ele>
        <time>2024-09-16T15:34:10Z</time>
      </trkpt>
      <trkpt lat="53.596224999055266" lon="13.738069972023368">
        <ele>19.359999999999999</ele>
        <time>2024-09-16T15:34:11Z</time>
      </trkpt>
      <trkpt lat="53.596175964921713" lon="13.737998977303505">
        <ele>19.359999999999999</ele>
        <time>2024-09-16T15:34:12Z</time>
      </trkpt>
      <trkpt lat="53.596113016828895" lon="13.737909961491823">
        <ele>19.359999999999999</ele>
        <time>2024-09-16T15:34:13Z</time>
      </trkpt>
      <trkpt lat="53.596043027937412" lon="13.737810971215367">
        <ele>19.359999999999999</ele>
        <time>2024-09-16T15:34:14Z</time>
      </trkpt>
      <trkpt lat="53.595418995246291" lon="13.736960040405393">
        <ele>21.289999999999999</ele>
        <time>2024-09-16T15:34:20Z</time>
      </trkpt>
      <trkpt lat="53.594472007825971" lon="13.73583703301847">
        <ele>25.609999999999999</ele>
        <time>2024-09-16T15:34:27Z</time>
      </trkpt>
      <trkpt lat="53.593645971268415" lon="13.735010996460915">
        <ele>29.940000000000001</ele>
        <time>2024-09-16T15:34:35Z</time>
      </trkpt>
      <trkpt lat="53.593135010451078" lon="13.734732968732715">
        <ele>31.859999999999999</ele>
        <time>2024-09-16T15:34:40Z</time>
      </trkpt>
      <trkpt lat="53.592704012989998" lon="13.734562983736396">
        <ele>34.259999999999998</ele>
        <time>2024-09-16T15:34:44Z</time>
      </trkpt>
      <trkpt lat="53.59257803298533" lon="13.734446978196502">
        <ele>34.259999999999998</ele>
        <time>2024-09-16T15:34:45Z</time>
      </trkpt>
      <trkpt lat="53.592475019395351" lon="13.734353017061949">
        <ele>34.740000000000002</ele>
        <time>2024-09-16T15:34:46Z</time>
      </trkpt>
      <trkpt lat="53.59178401529789" lon="13.733358001336455">
        <ele>36.189999999999998</ele>
        <time>2024-09-16T15:34:55Z</time>
      </trkpt>
      <trkpt lat="53.591610006988049" lon="13.733104029670358">
        <ele>36.189999999999998</ele>
        <time>2024-09-16T15:34:59Z</time>
      </trkpt>
      <trkpt lat="53.591538006439805" lon="13.733193967491388">
        <ele>36.189999999999998</ele>
        <time>2024-09-16T15:35:00Z</time>
      </trkpt>
      <trkpt lat="53.591488972306252" lon="13.733255993574858">
        <ele>36.189999999999998</ele>
        <time>2024-09-16T15:35:01Z</time>
      </trkpt>
      <trkpt lat="53.591431975364685" lon="13.733330005779862">
        <ele>36.189999999999998</ele>
        <time>2024-09-16T15:35:02Z</time>
      </trkpt>
      <trkpt lat="53.591371960937977" lon="13.733412986621261">
        <ele>36.189999999999998</ele>
        <time>2024-09-16T15:35:03Z</time>
      </trkpt>
      <trkpt lat="53.591346982866526" lon="13.733570985496044">
        <ele>36.189999999999998</ele>
        <time>2024-09-16T15:35:04Z</time>
      </trkpt>
      <trkpt lat="53.591316975653172" lon="13.733765026554465">
        <ele>36.189999999999998</ele>
        <time>2024-09-16T15:35:05Z</time>
      </trkpt>
      <trkpt lat="53.591284034773707" lon="13.733973987400532">
        <ele>36.189999999999998</ele>
        <time>2024-09-16T15:35:06Z</time>
      </trkpt>
      <trkpt lat="53.591128969565034" lon="13.734736992046237">
        <ele>34.259999999999998</ele>
        <time>2024-09-16T15:35:10Z</time>
      </trkpt>
      <trkpt lat="53.591057974845171" lon="13.734887028113008">
        <ele>33.780000000000001</ele>
        <time>2024-09-16T15:35:11Z</time>
      </trkpt>
      <trkpt lat="53.590465039014816" lon="13.73614196665585">
        <ele>33.780000000000001</ele>
        <time>2024-09-16T15:35:19Z</time>
      </trkpt>
      <trkpt lat="53.5896369908005" lon="13.737538978457451">
        <ele>33.299999999999997</ele>
        <time>2024-09-16T15:35:29Z</time>
      </trkpt>
      <trkpt lat="53.589255027472973" lon="13.738207016140223">
        <ele>32.340000000000003</ele>
        <time>2024-09-16T15:35:34Z</time>
      </trkpt>
      <trkpt lat="53.589187972247601" lon="13.738380018621683">
        <ele>32.340000000000003</ele>
        <time>2024-09-16T15:35:35Z</time>
      </trkpt>
      <trkpt lat="53.589144973084331" lon="13.738570958375931">
        <ele>32.340000000000003</ele>
        <time>2024-09-16T15:35:36Z</time>
      </trkpt>
      <trkpt lat="53.589102979749441" lon="13.738763993605971">
        <ele>32.340000000000003</ele>
        <time>2024-09-16T15:35:37Z</time>
      </trkpt>
      <trkpt lat="53.589060986414552" lon="13.738949988037348">
        <ele>32.340000000000003</ele>
        <time>2024-09-16T15:35:38Z</time>
      </trkpt>
      <trkpt lat="53.589010024443269" lon="13.739120978862047">
        <ele>32.340000000000003</ele>
        <time>2024-09-16T15:35:39Z</time>
      </trkpt>
      <trkpt lat="53.588945986703038" lon="13.739261040464044">
        <ele>32.340000000000003</ele>
        <time>2024-09-16T15:35:40Z</time>
      </trkpt>
      <trkpt lat="53.588879015296698" lon="13.739356007426977">
        <ele>32.340000000000003</ele>
        <time>2024-09-16T15:35:41Z</time>
      </trkpt>
      <trkpt lat="53.588817995041609" lon="13.739376040175557">
        <ele>31.859999999999999</ele>
        <time>2024-09-16T15:35:42Z</time>
      </trkpt>
      <trkpt lat="53.588763009756804" lon="13.739392971619964">
        <ele>31.859999999999999</ele>
        <time>2024-09-16T15:35:43Z</time>
      </trkpt>
      <trkpt lat="53.588529992848635" lon="13.739467989653349">
        <ele>31.379999999999999</ele>
        <time>2024-09-16T15:35:47Z</time>
      </trkpt>
      <trkpt lat="53.588465033099055" lon="13.739489028230309">
        <ele>31.379999999999999</ele>
        <time>2024-09-16T15:35:48Z</time>
      </trkpt>
      <trkpt lat="53.587531037628651" lon="13.739763032644987">
        <ele>31.379999999999999</ele>
        <time>2024-09-16T15:36:00Z</time>
      </trkpt>
      <trkpt lat="53.586481036618352" lon="13.739989008754492">
        <ele>36.189999999999998</ele>
        <time>2024-09-16T15:36:08Z</time>
      </trkpt>
      <trkpt lat="53.585493983700871" lon="13.7402009870857">
        <ele>40.030000000000001</ele>
        <time>2024-09-16T15:36:14Z</time>
      </trkpt>
      <trkpt lat="53.585346965119243" lon="13.740175003185868">
        <ele>40.990000000000002</ele>
        <time>2024-09-16T15:36:15Z</time>
      </trkpt>
      <trkpt lat="53.58519097790122" lon="13.740136027336121">
        <ele>41.469999999999999</ele>
        <time>2024-09-16T15:36:16Z</time>
      </trkpt>
      <trkpt lat="53.583975015208125" lon="13.739707041531801">
        <ele>47.240000000000002</ele>
        <time>2024-09-16T15:36:24Z</time>
      </trkpt>
      <trkpt lat="53.583726994693279" lon="13.739606961607933">
        <ele>48.68</ele>
        <time>2024-09-16T15:36:27Z</time>
      </trkpt>
      <trkpt lat="53.582742959260941" lon="13.738858960568905">
        <ele>47.240000000000002</ele>
        <time>2024-09-16T15:36:38Z</time>
      </trkpt>
      <trkpt lat="53.582655033096671" lon="13.738786038011312">
        <ele>46.759999999999998</ele>
        <time>2024-09-16T15:36:39Z</time>
      </trkpt>
      <trkpt lat="53.582353033125401" lon="13.738535000011325">
        <ele>46.759999999999998</ele>
        <time>2024-09-16T15:36:42Z</time>
      </trkpt>
      <trkpt lat="53.5822459962219" lon="13.738445984199643">
        <ele>46.759999999999998</ele>
        <time>2024-09-16T15:36:43Z</time>
      </trkpt>
      <trkpt lat="53.58213703148067" lon="13.738355962559581">
        <ele>46.759999999999998</ele>
        <time>2024-09-16T15:36:44Z</time>
      </trkpt>
      <trkpt lat="53.582029994577169" lon="13.738260995596647">
        <ele>46.759999999999998</ele>
        <time>2024-09-16T15:36:45Z</time>
      </trkpt>
      <trkpt lat="53.581933015957475" lon="13.738126968964934">
        <ele>46.759999999999998</ele>
        <time>2024-09-16T15:36:46Z</time>
      </trkpt>
      <trkpt lat="53.581578964367509" lon="13.737636040896177">
        <ele>46.280000000000001</ele>
        <time>2024-09-16T15:36:51Z</time>
      </trkpt>
      <trkpt lat="53.581496989354491" lon="13.737523974850774">
        <ele>45.799999999999997</ele>
        <time>2024-09-16T15:36:53Z</time>
      </trkpt>
      <trkpt lat="53.581415014341474" lon="13.737543001770973">
        <ele>45.799999999999997</ele>
        <time>2024-09-16T15:36:54Z</time>
      </trkpt>
      <trkpt lat="53.581374026834965" lon="13.737568985670805">
        <ele>45.799999999999997</ele>
        <time>2024-09-16T15:36:55Z</time>
      </trkpt>
      <trkpt lat="53.581328010186553" lon="13.737596981227398">
        <ele>45.799999999999997</ele>
        <time>2024-09-16T15:36:56Z</time>
      </trkpt>
      <trkpt lat="53.581285011023283" lon="13.73762296512723">
        <ele>45.799999999999997</ele>
        <time>2024-09-16T15:36:57Z</time>
      </trkpt>
      <trkpt lat="53.581203036010265" lon="13.737674010917544">
        <ele>45.32</ele>
        <time>2024-09-16T15:36:58Z</time>
      </trkpt>
      <trkpt lat="53.581186020746827" lon="13.737694965675473">
        <ele>45.32</ele>
        <time>2024-09-16T15:36:59Z</time>
      </trkpt>
      <trkpt lat="53.581140004098415" lon="13.73775296844542">
        <ele>45.32</ele>
        <time>2024-09-16T15:37:00Z</time>
      </trkpt>
      <trkpt lat="53.581094993278384" lon="13.737810971215367">
        <ele>45.32</ele>
        <time>2024-09-16T15:37:01Z</time>
      </trkpt>
      <trkpt lat="53.581049982458353" lon="13.737866962328553">
        <ele>45.32</ele>
        <time>2024-09-16T15:37:02Z</time>
      </trkpt>
      <trkpt lat="53.581004971638322" lon="13.73792395927012">
        <ele>45.32</ele>
        <time>2024-09-16T15:37:03Z</time>
      </trkpt>
      <trkpt lat="53.580960966646671" lon="13.737980034202337">
        <ele>44.840000000000003</ele>
        <time>2024-09-16T15:37:04Z</time>
      </trkpt>
      <trkpt lat="53.580920984968543" lon="13.73802999034524">
        <ele>44.840000000000003</ele>
        <time>2024-09-16T15:37:05Z</time>
      </trkpt>
      <trkpt lat="53.580881003290415" lon="13.738081958144903">
        <ele>44.840000000000003</ele>
        <time>2024-09-16T15:37:06Z</time>
      </trkpt>
      <trkpt lat="53.580830963328481" lon="13.73809302225709">
        <ele>44.359999999999999</ele>
        <time>2024-09-16T15:37:07Z</time>
      </trkpt>
      <trkpt lat="53.580772038549185" lon="13.738107020035386">
        <ele>44.359999999999999</ele>
        <time>2024-09-16T15:37:08Z</time>
      </trkpt>
      <trkpt lat="53.580710012465715" lon="13.738121017813683">
        <ele>43.880000000000003</ele>
        <time>2024-09-16T15:37:09Z</time>
      </trkpt>
      <trkpt lat="53.580479007214308" lon="13.738058991730213">
        <ele>42.920000000000002</ele>
        <time>2024-09-16T15:37:12Z</time>
      </trkpt>
      <trkpt lat="53.580386973917484" lon="13.737992020323873">
        <ele>43.399999999999999</ele>
        <time>2024-09-16T15:37:13Z</time>
      </trkpt>
      <trkpt lat="53.580000987276435" lon="13.737717010080814">
        <ele>44.359999999999999</ele>
        <time>2024-09-16T15:37:16Z</time>
      </trkpt>
      <trkpt lat="53.579975003376603" lon="13.737720027565956">
        <ele>44.840000000000003</ele>
        <time>2024-09-16T15:37:17Z</time>
      </trkpt>
      <trkpt lat="53.579889005050063" lon="13.737733019515872">
        <ele>45.32</ele>
        <time>2024-09-16T15:37:18Z</time>
      </trkpt>
      <trkpt lat="53.579804012551904" lon="13.737745005637407">
        <ele>45.799999999999997</ele>
        <time>2024-09-16T15:37:19Z</time>
      </trkpt>
      <trkpt lat="53.579654982313514" lon="13.737824968993664">
        <ele>46.759999999999998</ele>
        <time>2024-09-16T15:37:20Z</time>
      </trkpt>
      <trkpt lat="53.579593040049076" lon="13.737915996462107">
        <ele>47.240000000000002</ele>
        <time>2024-09-16T15:37:21Z</time>
      </trkpt>
      <trkpt lat="53.579535959288478" lon="13.737999983131886">
        <ele>47.240000000000002</ele>
        <time>2024-09-16T15:37:22Z</time>
      </trkpt>
      <trkpt lat="53.579482985660434" lon="13.738077012822032">
        <ele>47.719999999999999</ele>
        <time>2024-09-16T15:37:23Z</time>
      </trkpt>
      <trkpt lat="53.579331021755934" lon="13.738297959789634">
        <ele>48.68</ele>
        <time>2024-09-16T15:37:26Z</time>
      </trkpt>
      <trkpt lat="53.579234965145588" lon="13.73843802139163">
        <ele>49.159999999999997</ele>
        <time>2024-09-16T15:37:28Z</time>
      </trkpt>
      <trkpt lat="53.579179979860783" lon="13.738629966974258">
        <ele>49.649999999999999</ele>
        <time>2024-09-16T15:37:29Z</time>
      </trkpt>
      <trkpt lat="53.579171011224389" lon="13.738834988325834">
        <ele>50.130000000000003</ele>
        <time>2024-09-16T15:37:31Z</time>
      </trkpt>
      <trkpt lat="53.579155001789331" lon="13.739209994673729">
        <ele>51.57</ele>
        <time>2024-09-16T15:37:34Z</time>
      </trkpt>
      <trkpt lat="53.579147038981318" lon="13.739370005205274">
        <ele>51.57</ele>
        <time>2024-09-16T15:37:35Z</time>
      </trkpt>
      <trkpt lat="53.578981999307871" lon="13.740785960108042">
        <ele>51.090000000000003</ele>
        <time>2024-09-16T15:37:43Z</time>
      </trkpt>
      <trkpt lat="53.57898099347949" lon="13.741102963685989">
        <ele>51.090000000000003</ele>
        <time>2024-09-16T15:37:45Z</time>
      </trkpt>
      <trkpt lat="53.57900002039969" lon="13.74125299975276">
        <ele>51.090000000000003</ele>
        <time>2024-09-16T15:37:46Z</time>
      </trkpt>
      <trkpt lat="53.579019969329238" lon="13.741416027769446">
        <ele>51.090000000000003</ele>
        <time>2024-09-16T15:37:47Z</time>
      </trkpt>
      <trkpt lat="53.579079983755946" lon="13.741907039657235">
        <ele>52.049999999999997</ele>
        <time>2024-09-16T15:37:50Z</time>
      </trkpt>
      <trkpt lat="53.579099010676146" lon="13.742065038532019">
        <ele>52.530000000000001</ele>
        <time>2024-09-16T15:37:51Z</time>
      </trkpt>
      <trkpt lat="53.579118959605694" lon="13.742225971072912">
        <ele>53.009999999999998</ele>
        <time>2024-09-16T15:37:52Z</time>
      </trkpt>
      <trkpt lat="53.579143015667796" lon="13.742415988817811">
        <ele>53.490000000000002</ele>
        <time>2024-09-16T15:37:53Z</time>
      </trkpt>
      <trkpt lat="53.579133963212371" lon="13.742528976872563">
        <ele>53.969999999999999</ele>
        <time>2024-09-16T15:37:54Z</time>
      </trkpt>
      <trkpt lat="53.579120971262455" lon="13.742694016546011">
        <ele>54.450000000000003</ele>
        <time>2024-09-16T15:37:55Z</time>
      </trkpt>
      <trkpt lat="53.579093981534243" lon="13.743030969053507">
        <ele>54.93</ele>
        <time>2024-09-16T15:37:57Z</time>
      </trkpt>
      <trkpt lat="53.578990967944264" lon="13.743501026183367">
        <ele>55.890000000000001</ele>
        <time>2024-09-16T15:38:00Z</time>
      </trkpt>
      <trkpt lat="53.578949980437756" lon="13.743630023673177">
        <ele>56.369999999999997</ele>
        <time>2024-09-16T15:38:01Z</time>
      </trkpt>
      <trkpt lat="53.578802039846778" lon="13.744023973122239">
        <ele>57.340000000000003</ele>
        <time>2024-09-16T15:38:04Z</time>
      </trkpt>
      <trkpt lat="53.578682010993361" lon="13.744275011122227">
        <ele>57.82</ele>
        <time>2024-09-16T15:38:06Z</time>
      </trkpt>
      <trkpt lat="53.578556030988693" lon="13.744536023586988">
        <ele>57.82</ele>
        <time>2024-09-16T15:38:08Z</time>
      </trkpt>
      <trkpt lat="53.57818697579205" lon="13.745301039889455">
        <ele>58.780000000000001</ele>
        <time>2024-09-16T15:38:13Z</time>
      </trkpt>
      <trkpt lat="53.578112041577697" lon="13.745457027107477">
        <ele>58.780000000000001</ele>
        <time>2024-09-16T15:38:14Z</time>
      </trkpt>
      <trkpt lat="53.578038029372692" lon="13.745609996840358">
        <ele>58.780000000000001</ele>
        <time>2024-09-16T15:38:15Z</time>
      </trkpt>
      <trkpt lat="53.577837031334639" lon="13.746026996523142">
        <ele>57.82</ele>
        <time>2024-09-16T15:38:18Z</time>
      </trkpt>
      <trkpt lat="53.577594961971045" lon="13.746395967900753">
        <ele>58.780000000000001</ele>
        <time>2024-09-16T15:38:21Z</time>
      </trkpt>
      <trkpt lat="53.577509969472885" lon="13.746469980105758">
        <ele>58.780000000000001</ele>
        <time>2024-09-16T15:38:22Z</time>
      </trkpt>
      <trkpt lat="53.577425982803106" lon="13.746543992310762">
        <ele>59.259999999999998</ele>
        <time>2024-09-16T15:38:23Z</time>
      </trkpt>
      <trkpt lat="53.577362028881907" lon="13.746599983423948">
        <ele>59.259999999999998</ele>
        <time>2024-09-16T15:38:24Z</time>
      </trkpt>
      <trkpt lat="53.577259015291929" lon="13.746639965102077">
        <ele>59.259999999999998</ele>
        <time>2024-09-16T15:38:25Z</time>
      </trkpt>
      <trkpt lat="53.577159019187093" lon="13.746678018942475">
        <ele>59.740000000000002</ele>
        <time>2024-09-16T15:38:26Z</time>
      </trkpt>
      <trkpt lat="53.577041001990438" lon="13.746725963428617">
        <ele>59.740000000000002</ele>
        <time>2024-09-16T15:38:27Z</time>
      </trkpt>
      <trkpt lat="53.576912004500628" lon="13.746782038360834">
        <ele>60.219999999999999</ele>
        <time>2024-09-16T15:38:28Z</time>
      </trkpt>
      <trkpt lat="53.575911959633231" lon="13.747219992801547">
        <ele>65.030000000000001</ele>
        <time>2024-09-16T15:38:35Z</time>
      </trkpt>
      <trkpt lat="53.574813008308411" lon="13.747701030224562">
        <ele>75.120000000000005</ele>
        <time>2024-09-16T15:38:43Z</time>
      </trkpt>
      <trkpt lat="53.574675964191556" lon="13.747760038822889">
        <ele>77.040000000000006</ele>
        <time>2024-09-16T15:38:44Z</time>
      </trkpt>
      <trkpt lat="53.574541015550494" lon="13.747818963602185">
        <ele>78.480000000000004</ele>
        <time>2024-09-16T15:38:45Z</time>
      </trkpt>
      <trkpt lat="53.574005998671055" lon="13.748053992167115">
        <ele>84.25</ele>
        <time>2024-09-16T15:38:49Z</time>
      </trkpt>
      <trkpt lat="53.573869038373232" lon="13.748113000765443">
        <ele>85.209999999999994</ele>
        <time>2024-09-16T15:38:50Z</time>
      </trkpt>
      <trkpt lat="53.573721013963223" lon="13.748177960515022">
        <ele>85.689999999999998</ele>
        <time>2024-09-16T15:38:51Z</time>
      </trkpt>
      <trkpt lat="53.572652991861105" lon="13.748360015451908">
        <ele>86.180000000000007</ele>
        <time>2024-09-16T15:38:58Z</time>
      </trkpt>
      <trkpt lat="53.572523994371295" lon="13.748360015451908">
        <ele>85.689999999999998</ele>
        <time>2024-09-16T15:38:59Z</time>
      </trkpt>
      <trkpt lat="53.571429988369346" lon="13.748553972691298">
        <ele>82.810000000000002</ele>
        <time>2024-09-16T15:39:07Z</time>
      </trkpt>
      <trkpt lat="53.570431033149362" lon="13.748532012104988">
        <ele>81.370000000000005</ele>
        <time>2024-09-16T15:39:14Z</time>
      </trkpt>
      <trkpt lat="53.570304969325662" lon="13.74857903458178">
        <ele>80.890000000000001</ele>
        <time>2024-09-16T15:39:15Z</time>
      </trkpt>
      <trkpt lat="53.570259036496282" lon="13.748595966026187">
        <ele>80.890000000000001</ele>
        <time>2024-09-16T15:39:16Z</time>
      </trkpt>
      <trkpt lat="53.570176977664232" lon="13.748739967122674">
        <ele>80.409999999999997</ele>
        <time>2024-09-16T15:39:17Z</time>
      </trkpt>
      <trkpt lat="53.570110006257892" lon="13.748856978490949">
        <ele>79.930000000000007</ele>
        <time>2024-09-16T15:39:18Z</time>
      </trkpt>
      <trkpt lat="53.570032976567745" lon="13.748991005122662">
        <ele>79.930000000000007</ele>
        <time>2024-09-16T15:39:19Z</time>
      </trkpt>
      <trkpt lat="53.569947984069586" lon="13.749141041189432">
        <ele>79.930000000000007</ele>
        <time>2024-09-16T15:39:20Z</time>
      </trkpt>
      <trkpt lat="53.569860979914665" lon="13.749293005093932">
        <ele>79.450000000000003</ele>
        <time>2024-09-16T15:39:21Z</time>
      </trkpt>
      <trkpt lat="53.569775987416506" lon="13.749441029503942">
        <ele>79.450000000000003</ele>
        <time>2024-09-16T15:39:22Z</time>
      </trkpt>
      <trkpt lat="53.569660987704992" lon="13.749559968709946">
        <ele>79.450000000000003</ele>
        <time>2024-09-16T15:39:23Z</time>
      </trkpt>
      <trkpt lat="53.569540958851576" lon="13.74965300783515">
        <ele>79.450000000000003</ele>
        <time>2024-09-16T15:39:24Z</time>
      </trkpt>
      <trkpt lat="53.569414978846908" lon="13.749748980626464">
        <ele>79.450000000000003</ele>
        <time>2024-09-16T15:39:25Z</time>
      </trkpt>
      <trkpt lat="53.568040011450648" lon="13.750837035477161">
        <ele>85.209999999999994</ele>
        <time>2024-09-16T15:39:35Z</time>
      </trkpt>
      <trkpt lat="53.567949989810586" lon="13.750965027138591">
        <ele>85.689999999999998</ele>
        <time>2024-09-16T15:39:36Z</time>
      </trkpt>
      <trkpt lat="53.567877989262342" lon="13.751105004921556">
        <ele>86.659999999999997</ele>
        <time>2024-09-16T15:39:37Z</time>
      </trkpt>
      <trkpt lat="53.567813029512763" lon="13.751235008239746">
        <ele>86.659999999999997</ele>
        <time>2024-09-16T15:39:38Z</time>
      </trkpt>
      <trkpt lat="53.567758966237307" lon="13.751442963257432">
        <ele>87.140000000000001</ele>
        <time>2024-09-16T15:39:39Z</time>
      </trkpt>
      <trkpt lat="53.567704986780882" lon="13.751649996265769">
        <ele>87.140000000000001</ele>
        <time>2024-09-16T15:39:40Z</time>
      </trkpt>
      <trkpt lat="53.567453026771545" lon="13.752454994246364">
        <ele>86.180000000000007</ele>
        <time>2024-09-16T15:39:44Z</time>
      </trkpt>
      <trkpt lat="53.567348001524806" lon="13.752544010058045">
        <ele>85.689999999999998</ele>
        <time>2024-09-16T15:39:45Z</time>
      </trkpt>
      <trkpt lat="53.567240964621305" lon="13.752602012827992">
        <ele>86.180000000000007</ele>
        <time>2024-09-16T15:39:46Z</time>
      </trkpt>
      <trkpt lat="53.567125964909792" lon="13.752664038911462">
        <ele>86.180000000000007</ele>
        <time>2024-09-16T15:39:47Z</time>
      </trkpt>
      <trkpt lat="53.567005014047027" lon="13.752731010317802">
        <ele>86.180000000000007</ele>
        <time>2024-09-16T15:39:48Z</time>
      </trkpt>
      <trkpt lat="53.566417023539543" lon="13.753063017502427">
        <ele>87.620000000000005</ele>
        <time>2024-09-16T15:39:53Z</time>
      </trkpt>
      <trkpt lat="53.56632499024272" lon="13.753166031092405">
        <ele>87.620000000000005</ele>
        <time>2024-09-16T15:39:54Z</time>
      </trkpt>
      <trkpt lat="53.566267993301153" lon="13.753230990841985">
        <ele>87.140000000000001</ele>
        <time>2024-09-16T15:39:55Z</time>
      </trkpt>
      <trkpt lat="53.566204039379954" lon="13.753424026072025">
        <ele>86.659999999999997</ele>
        <time>2024-09-16T15:39:56Z</time>
      </trkpt>
      <trkpt lat="53.566156011074781" lon="13.753567021340132">
        <ele>86.180000000000007</ele>
        <time>2024-09-16T15:39:57Z</time>
      </trkpt>
      <trkpt lat="53.566118041053414" lon="13.753682021051645">
        <ele>85.209999999999994</ele>
        <time>2024-09-16T15:39:58Z</time>
      </trkpt>
      <trkpt lat="53.56611100025475" lon="13.753853011876345">
        <ele>84.730000000000004</ele>
        <time>2024-09-16T15:39:59Z</time>
      </trkpt>
      <trkpt lat="53.566103037446737" lon="13.754034982994199">
        <ele>83.769999999999996</ele>
        <time>2024-09-16T15:40:00Z</time>
      </trkpt>
      <trkpt lat="53.566095996648073" lon="13.754228018224239">
        <ele>83.769999999999996</ele>
        <time>2024-09-16T15:40:01Z</time>
      </trkpt>
      <trkpt lat="53.566079987213016" lon="13.754604030400515">
        <ele>83.290000000000006</ele>
        <time>2024-09-16T15:40:03Z</time>
      </trkpt>
      <trkpt lat="53.566075041890144" lon="13.754733027890325">
        <ele>82.810000000000002</ele>
        <time>2024-09-16T15:40:04Z</time>
      </trkpt>
      <trkpt lat="53.566015027463436" lon="13.754864959046245">
        <ele>82.329999999999998</ele>
        <time>2024-09-16T15:40:05Z</time>
      </trkpt>
      <trkpt lat="53.565974961966276" lon="13.754951963201165">
        <ele>81.849999999999994</ele>
        <time>2024-09-16T15:40:06Z</time>
      </trkpt>
      <trkpt lat="53.565930034965277" lon="13.754988005384803">
        <ele>81.849999999999994</ele>
        <time>2024-09-16T15:40:07Z</time>
      </trkpt>
      <trkpt lat="53.56587303802371" lon="13.755016000941396">
        <ele>81.370000000000005</ele>
        <time>2024-09-16T15:40:08Z</time>
      </trkpt>
      <trkpt lat="53.565811011940241" lon="13.755043996497989">
        <ele>80.890000000000001</ele>
        <time>2024-09-16T15:40:09Z</time>
      </trkpt>
      <trkpt lat="53.565739011391997" lon="13.755072997882962">
        <ele>80.890000000000001</ele>
        <time>2024-09-16T15:40:10Z</time>
      </trkpt>
      <trkpt lat="53.564706025645137" lon="13.755483040586114">
        <ele>83.290000000000006</ele>
        <time>2024-09-16T15:40:25Z</time>
      </trkpt>
      <trkpt lat="53.564106971025467" lon="13.755717985332012">
        <ele>82.810000000000002</ele>
        <time>2024-09-16T15:40:33Z</time>
      </trkpt>
      <trkpt lat="53.56402700766921" lon="13.755745980888605">
        <ele>82.329999999999998</ele>
        <time>2024-09-16T15:40:34Z</time>
      </trkpt>
      <trkpt lat="53.563045989722013" lon="13.75601202249527">
        <ele>82.329999999999998</ele>
        <time>2024-09-16T15:40:46Z</time>
      </trkpt>
      <trkpt lat="53.562267981469631" lon="13.75616398639977">
        <ele>86.659999999999997</ele>
        <time>2024-09-16T15:40:53Z</time>
      </trkpt>
      <trkpt lat="53.561631962656975" lon="13.756405971944332">
        <ele>91.459999999999994</ele>
        <time>2024-09-16T15:41:01Z</time>
      </trkpt>
      <trkpt lat="53.560878010466695" lon="13.756702020764351">
        <ele>94.349999999999994</ele>
        <time>2024-09-16T15:41:10Z</time>
      </trkpt>
      <trkpt lat="53.560575004667044" lon="13.756863959133625">
        <ele>96.269999999999996</ele>
        <time>2024-09-16T15:41:13Z</time>
      </trkpt>
      <trkpt lat="53.560493029654026" lon="13.756945012137294">
        <ele>97.230000000000004</ele>
        <time>2024-09-16T15:41:14Z</time>
      </trkpt>
      <trkpt lat="53.560432009398937" lon="13.757114997133613">
        <ele>97.709999999999994</ele>
        <time>2024-09-16T15:41:15Z</time>
      </trkpt>
      <trkpt lat="53.560380041599274" lon="13.757243994623423">
        <ele>98.189999999999998</ele>
        <time>2024-09-16T15:41:16Z</time>
      </trkpt>
      <trkpt lat="53.560313992202282" lon="13.7574109621346">
        <ele>99.150000000000006</ele>
        <time>2024-09-16T15:41:17Z</time>
      </trkpt>
      <trkpt lat="53.560081981122494" lon="13.757999036461115">
        <ele>101.08</ele>
        <time>2024-09-16T15:41:21Z</time>
      </trkpt>
      <trkpt lat="53.559994976967573" lon="13.75816298648715">
        <ele>102.04000000000001</ele>
        <time>2024-09-16T15:41:23Z</time>
      </trkpt>
      <trkpt lat="53.559765983372927" lon="13.758306987583637">
        <ele>102.52</ele>
        <time>2024-09-16T15:41:26Z</time>
      </trkpt>
      <trkpt lat="53.559144968166947" lon="13.758704960346222">
        <ele>103</ele>
        <time>2024-09-16T15:41:31Z</time>
      </trkpt>
      <trkpt lat="53.558453964069486" lon="13.759275013580918">
        <ele>101.56</ele>
        <time>2024-09-16T15:41:37Z</time>
      </trkpt>
      <trkpt lat="53.558104019612074" lon="13.759623030200601">
        <ele>100.11</ele>
        <time>2024-09-16T15:41:40Z</time>
      </trkpt>
      <trkpt lat="53.557757008820772" lon="13.759855041280389">
        <ele>99.150000000000006</ele>
        <time>2024-09-16T15:41:43Z</time>
      </trkpt>
      <trkpt lat="53.557641003280878" lon="13.759929975494742">
        <ele>99.150000000000006</ele>
        <time>2024-09-16T15:41:44Z</time>
      </trkpt>
      <trkpt lat="53.557273959740996" lon="13.760165004059672">
        <ele>98.189999999999998</ele>
        <time>2024-09-16T15:41:47Z</time>
      </trkpt>
      <trkpt lat="53.556773979216814" lon="13.760485025122762">
        <ele>97.230000000000004</ele>
        <time>2024-09-16T15:41:51Z</time>
      </trkpt>
      <trkpt lat="53.556665014475584" lon="13.760554008185863">
        <ele>96.75</ele>
        <time>2024-09-16T15:41:52Z</time>
      </trkpt>
      <trkpt lat="53.556278022006154" lon="13.760802028700709">
        <ele>95.310000000000002</ele>
        <time>2024-09-16T15:41:56Z</time>
      </trkpt>
      <trkpt lat="53.556195963174105" lon="13.760853996500373">
        <ele>95.310000000000002</ele>
        <time>2024-09-16T15:41:57Z</time>
      </trkpt>
      <trkpt lat="53.556108959019184" lon="13.760909987613559">
        <ele>94.829999999999998</ele>
        <time>2024-09-16T15:41:58Z</time>
      </trkpt>
      <trkpt lat="53.556018015369773" lon="13.760967990383506">
        <ele>94.829999999999998</ele>
        <time>2024-09-16T15:41:59Z</time>
      </trkpt>
      <trkpt lat="53.555912990123034" lon="13.761034961789846">
        <ele>94.829999999999998</ele>
        <time>2024-09-16T15:42:00Z</time>
      </trkpt>
      <trkpt lat="53.555135987699032" lon="13.761609960347414">
        <ele>95.310000000000002</ele>
        <time>2024-09-16T15:42:06Z</time>
      </trkpt>
      <trkpt lat="53.554889978840947" lon="13.761848006397486">
        <ele>96.269999999999996</ele>
        <time>2024-09-16T15:42:08Z</time>
      </trkpt>
      <trkpt lat="53.554763998836279" lon="13.761969041079283">
        <ele>96.269999999999996</ele>
        <time>2024-09-16T15:42:09Z</time>
      </trkpt>
      <trkpt lat="53.554648999124765" lon="13.762081023305655">
        <ele>96.75</ele>
        <time>2024-09-16T15:42:10Z</time>
      </trkpt>
      <trkpt lat="53.554552020505071" lon="13.762174984440207">
        <ele>97.230000000000004</ele>
        <time>2024-09-16T15:42:11Z</time>
      </trkpt>
      <trkpt lat="53.554468033835292" lon="13.762256959453225">
        <ele>97.230000000000004</ele>
        <time>2024-09-16T15:42:12Z</time>
      </trkpt>
      <trkpt lat="53.554388992488384" lon="13.762332983314991">
        <ele>97.230000000000004</ele>
        <time>2024-09-16T15:42:13Z</time>
      </trkpt>
      <trkpt lat="53.554300982505083" lon="13.76241797581315">
        <ele>97.230000000000004</ele>
        <time>2024-09-16T15:42:14Z</time>
      </trkpt>
      <trkpt lat="53.554090010002255" lon="13.762622997164726">
        <ele>97.230000000000004</ele>
        <time>2024-09-16T15:42:16Z</time>
      </trkpt>
      <trkpt lat="53.553000027313828" lon="13.763612983748317">
        <ele>95.790000000000006</ele>
        <time>2024-09-16T15:42:24Z</time>
      </trkpt>
      <trkpt lat="53.552741026505828" lon="13.763799984008074">
        <ele>94.349999999999994</ele>
        <time>2024-09-16T15:42:26Z</time>
      </trkpt>
      <trkpt lat="53.552614040672779" lon="13.763892017304897">
        <ele>93.870000000000005</ele>
        <time>2024-09-16T15:42:27Z</time>
      </trkpt>
      <trkpt lat="53.55158700607717" lon="13.764530969783664">
        <ele>87.140000000000001</ele>
        <time>2024-09-16T15:42:35Z</time>
      </trkpt>
      <trkpt lat="53.550268029794097" lon="13.765264973044395">
        <ele>78.480000000000004</ele>
        <time>2024-09-16T15:42:44Z</time>
      </trkpt>
      <trkpt lat="53.549277037382126" lon="13.765808958560228">
        <ele>73.680000000000007</ele>
        <time>2024-09-16T15:42:51Z</time>
      </trkpt>
      <trkpt lat="53.549142004922032" lon="13.765838965773582">
        <ele>72.719999999999999</ele>
        <time>2024-09-16T15:42:52Z</time>
      </trkpt>
      <trkpt lat="53.549007978290319" lon="13.765831002965569">
        <ele>72.239999999999995</ele>
        <time>2024-09-16T15:42:53Z</time>
      </trkpt>
      <trkpt lat="53.548870012164116" lon="13.765805019065738">
        <ele>71.760000000000005</ele>
        <time>2024-09-16T15:42:54Z</time>
      </trkpt>
      <trkpt lat="53.548731962218881" lon="13.765780040994287">
        <ele>71.269999999999996</ele>
        <time>2024-09-16T15:42:55Z</time>
      </trkpt>
      <trkpt lat="53.547704005613923" lon="13.765632016584277">
        <ele>65.510000000000005</ele>
        <time>2024-09-16T15:43:04Z</time>
      </trkpt>
      <trkpt lat="53.547537960112095" lon="13.765621036291122">
        <ele>64.549999999999997</ele>
        <time>2024-09-16T15:43:06Z</time>
      </trkpt>
      <trkpt lat="53.547451961785555" lon="13.765615001320839">
        <ele>64.069999999999993</ele>
        <time>2024-09-16T15:43:07Z</time>
      </trkpt>
      <trkpt lat="53.547371998429298" lon="13.765609972178936">
        <ele>64.069999999999993</ele>
        <time>2024-09-16T15:43:08Z</time>
      </trkpt>
      <trkpt lat="53.547221040353179" lon="13.765598991885781">
        <ele>63.100000000000001</ele>
        <time>2024-09-16T15:43:10Z</time>
      </trkpt>
      <trkpt lat="53.547019958496094" lon="13.765613995492458">
        <ele>61.659999999999997</ele>
        <time>2024-09-16T15:43:13Z</time>
      </trkpt>
      <trkpt lat="53.546684011816978" lon="13.765736036002636">
        <ele>59.740000000000002</ele>
        <time>2024-09-16T15:43:18Z</time>
      </trkpt>
      <trkpt lat="53.546615028753877" lon="13.765761014074087">
        <ele>59.259999999999998</ele>
        <time>2024-09-16T15:43:19Z</time>
      </trkpt>
      <trkpt lat="53.546548979356885" lon="13.765784986317158">
        <ele>58.780000000000001</ele>
        <time>2024-09-16T15:43:20Z</time>
      </trkpt>
      <trkpt lat="53.546484019607306" lon="13.765808958560228">
        <ele>58.780000000000001</ele>
        <time>2024-09-16T15:43:21Z</time>
      </trkpt>
      <trkpt lat="53.546422999352217" lon="13.765831002965569">
        <ele>58.299999999999997</ele>
        <time>2024-09-16T15:43:22Z</time>
      </trkpt>
      <trkpt lat="53.54557097889483" lon="13.766140965744853">
        <ele>56.369999999999997</ele>
        <time>2024-09-16T15:43:34Z</time>
      </trkpt>
      <trkpt lat="53.54499002918601" lon="13.766352022066712">
        <ele>56.859999999999999</ele>
        <time>2024-09-16T15:43:42Z</time>
      </trkpt>
      <trkpt lat="53.544923979789019" lon="13.766375994309783">
        <ele>57.340000000000003</ele>
        <time>2024-09-16T15:43:43Z</time>
      </trkpt>
      <trkpt lat="53.544788025319576" lon="13.766425028443336">
        <ele>57.340000000000003</ele>
        <time>2024-09-16T15:43:45Z</time>
      </trkpt>
      <trkpt lat="53.544488959014416" lon="13.766449000686407">
        <ele>57.82</ele>
        <time>2024-09-16T15:43:50Z</time>
      </trkpt>
      <trkpt lat="53.544423999264836" lon="13.766449000686407">
        <ele>57.82</ele>
        <time>2024-09-16T15:43:51Z</time>
      </trkpt>
      <trkpt lat="53.544365996494889" lon="13.766437014564872">
        <ele>57.82</ele>
        <time>2024-09-16T15:43:52Z</time>
      </trkpt>
      <trkpt lat="53.5443049762398" lon="13.766425028443336">
        <ele>58.299999999999997</ele>
        <time>2024-09-16T15:43:53Z</time>
      </trkpt>
      <trkpt lat="53.54423800483346" lon="13.766412036493421">
        <ele>58.299999999999997</ele>
        <time>2024-09-16T15:43:54Z</time>
      </trkpt>
      <trkpt lat="53.544167010113597" lon="13.766398038715124">
        <ele>58.299999999999997</ele>
        <time>2024-09-16T15:43:55Z</time>
      </trkpt>
      <trkpt lat="53.543458990752697" lon="13.766256971284747">
        <ele>59.740000000000002</ele>
        <time>2024-09-16T15:44:05Z</time>
      </trkpt>
      <trkpt lat="53.543333010748029" lon="13.766231993213296">
        <ele>60.219999999999999</ele>
        <time>2024-09-16T15:44:07Z</time>
      </trkpt>
      <trkpt lat="53.543275007978082" lon="13.766221012920141">
        <ele>60.700000000000003</ele>
        <time>2024-09-16T15:44:08Z</time>
      </trkpt>
      <trkpt lat="53.542384011670947" lon="13.766043987125158">
        <ele>63.579999999999998</ele>
        <time>2024-09-16T15:44:21Z</time>
      </trkpt>
      <trkpt lat="53.541612960398197" lon="13.765891017392278">
        <ele>64.069999999999993</ele>
        <time>2024-09-16T15:44:33Z</time>
      </trkpt>
      <trkpt lat="53.541527967900038" lon="13.765938961878419">
        <ele>64.069999999999993</ele>
        <time>2024-09-16T15:44:34Z</time>
      </trkpt>
      <trkpt lat="53.541468037292361" lon="13.765971986576915">
        <ele>64.069999999999993</ele>
        <time>2024-09-16T15:44:35Z</time>
      </trkpt>
      <trkpt lat="53.541407017037272" lon="13.766006017103791">
        <ele>63.579999999999998</ele>
        <time>2024-09-16T15:44:36Z</time>
      </trkpt>
      <trkpt lat="53.541343985125422" lon="13.766041975468397">
        <ele>63.579999999999998</ele>
        <time>2024-09-16T15:44:37Z</time>
      </trkpt>
      <trkpt lat="53.541281037032604" lon="13.766077011823654">
        <ele>63.579999999999998</ele>
        <time>2024-09-16T15:44:38Z</time>
      </trkpt>
      <trkpt lat="53.541223034262657" lon="13.766109030693769">
        <ele>63.100000000000001</ele>
        <time>2024-09-16T15:44:39Z</time>
      </trkpt>
      <trkpt lat="53.54116695933044" lon="13.766139959916472">
        <ele>63.100000000000001</ele>
        <time>2024-09-16T15:44:40Z</time>
      </trkpt>
      <trkpt lat="53.54097199626267" lon="13.766306005418301">
        <ele>62.140000000000001</ele>
        <time>2024-09-16T15:44:44Z</time>
      </trkpt>
      <trkpt lat="53.540920028463006" lon="13.766361996531487">
        <ele>62.140000000000001</ele>
        <time>2024-09-16T15:44:45Z</time>
      </trkpt>
      <trkpt lat="53.540829000994563" lon="13.766471967101097">
        <ele>62.140000000000001</ele>
        <time>2024-09-16T15:44:47Z</time>
      </trkpt>
      <trkpt lat="53.540749037638307" lon="13.766627032309771">
        <ele>62.140000000000001</ele>
        <time>2024-09-16T15:44:49Z</time>
      </trkpt>
      <trkpt lat="53.540705032646656" lon="13.76671202480793">
        <ele>61.659999999999997</ele>
        <time>2024-09-16T15:44:50Z</time>
      </trkpt>
      <trkpt lat="53.540663961321115" lon="13.766791988164186">
        <ele>61.659999999999997</ele>
        <time>2024-09-16T15:44:51Z</time>
      </trkpt>
      <trkpt lat="53.54054200462997" lon="13.767029028385878">
        <ele>61.659999999999997</ele>
        <time>2024-09-16T15:44:54Z</time>
      </trkpt>
      <trkpt lat="53.54050001129508" lon="13.767112009227276">
        <ele>62.140000000000001</ele>
        <time>2024-09-16T15:44:55Z</time>
      </trkpt>
      <trkpt lat="53.540384005755186" lon="13.7673369795084">
        <ele>62.619999999999997</ele>
        <time>2024-09-16T15:44:58Z</time>
      </trkpt>
      <trkpt lat="53.540295995771885" lon="13.76750897616148">
        <ele>62.619999999999997</ele>
        <time>2024-09-16T15:45:00Z</time>
      </trkpt>
      <trkpt lat="53.540252996608615" lon="13.76759204082191">
        <ele>62.140000000000001</ele>
        <time>2024-09-16T15:45:01Z</time>
      </trkpt>
      <trkpt lat="53.540218966081738" lon="13.767659012228251">
        <ele>62.140000000000001</ele>
        <time>2024-09-16T15:45:02Z</time>
      </trkpt>
      <trkpt lat="53.54017898440361" lon="13.767735958099365">
        <ele>61.659999999999997</ele>
        <time>2024-09-16T15:45:03Z</time>
      </trkpt>
      <trkpt lat="53.54013497941196" lon="13.767821034416556">
        <ele>61.18</ele>
        <time>2024-09-16T15:45:04Z</time>
      </trkpt>
      <trkpt lat="53.540088040754199" lon="13.767912983894348">
        <ele>61.18</ele>
        <time>2024-09-16T15:45:05Z</time>
      </trkpt>
      <trkpt lat="53.539599040523171" lon="13.768866006284952">
        <ele>60.219999999999999</ele>
        <time>2024-09-16T15:45:15Z</time>
      </trkpt>
      <trkpt lat="53.539559980854392" lon="13.768941024318337">
        <ele>60.219999999999999</ele>
        <time>2024-09-16T15:45:16Z</time>
      </trkpt>
      <trkpt lat="53.539517987519503" lon="13.769021993502975">
        <ele>60.219999999999999</ele>
        <time>2024-09-16T15:45:17Z</time>
      </trkpt>
      <trkpt lat="53.539394019171596" lon="13.769264984875917">
        <ele>60.219999999999999</ele>
        <time>2024-09-16T15:45:20Z</time>
      </trkpt>
      <trkpt lat="53.539348002523184" lon="13.769354000687599">
        <ele>60.700000000000003</ele>
        <time>2024-09-16T15:45:21Z</time>
      </trkpt>
      <trkpt lat="53.539303997531533" lon="13.769438993185759">
        <ele>60.700000000000003</ele>
        <time>2024-09-16T15:45:22Z</time>
      </trkpt>
      <trkpt lat="53.539139963686466" lon="13.769759014248848">
        <ele>60.219999999999999</ele>
        <time>2024-09-16T15:45:26Z</time>
      </trkpt>
      <trkpt lat="53.539101993665099" lon="13.769833026453853">
        <ele>60.219999999999999</ele>
        <time>2024-09-16T15:45:27Z</time>
      </trkpt>
      <trkpt lat="53.539062011986971" lon="13.769909972324967">
        <ele>60.219999999999999</ele>
        <time>2024-09-16T15:45:28Z</time>
      </trkpt>
      <trkpt lat="53.539020018652081" lon="13.769991025328636">
        <ele>60.219999999999999</ele>
        <time>2024-09-16T15:45:29Z</time>
      </trkpt>
      <trkpt lat="53.538978025317192" lon="13.770071994513273">
        <ele>60.219999999999999</ele>
        <time>2024-09-16T15:45:30Z</time>
      </trkpt>
      <trkpt lat="53.538937959820032" lon="13.770151035860181">
        <ele>59.740000000000002</ele>
        <time>2024-09-16T15:45:31Z</time>
      </trkpt>
      <trkpt lat="53.538899989798665" lon="13.770225970074534">
        <ele>59.740000000000002</ele>
        <time>2024-09-16T15:45:32Z</time>
      </trkpt>
      <trkpt lat="53.538859002292156" lon="13.770306017249823">
        <ele>59.740000000000002</ele>
        <time>2024-09-16T15:45:33Z</time>
      </trkpt>
      <trkpt lat="53.538586003705859" lon="13.77083701081574">
        <ele>59.259999999999998</ele>
        <time>2024-09-16T15:45:39Z</time>
      </trkpt>
      <trkpt lat="53.538537975400686" lon="13.770929966121912">
        <ele>58.780000000000001</ele>
        <time>2024-09-16T15:45:40Z</time>
      </trkpt>
      <trkpt lat="53.538401015102863" lon="13.771196007728577">
        <ele>58.299999999999997</ele>
        <time>2024-09-16T15:45:43Z</time>
      </trkpt>
      <trkpt lat="53.538359021767974" lon="13.771278988569975">
        <ele>58.299999999999997</ele>
        <time>2024-09-16T15:45:44Z</time>
      </trkpt>
      <trkpt lat="53.538269000127912" lon="13.771452996879816">
        <ele>57.82</ele>
        <time>2024-09-16T15:45:46Z</time>
      </trkpt>
      <trkpt lat="53.537998013198376" lon="13.771980972960591">
        <ele>57.340000000000003</ele>
        <time>2024-09-16T15:45:52Z</time>
      </trkpt>
      <trkpt lat="53.537954008206725" lon="13.772066971287131">
        <ele>57.340000000000003</ele>
        <time>2024-09-16T15:45:53Z</time>
      </trkpt>
      <trkpt lat="53.537774970754981" lon="13.772413982078433">
        <ele>56.859999999999999</ele>
        <time>2024-09-16T15:45:57Z</time>
      </trkpt>
      <trkpt lat="53.53772995993495" lon="13.772500986233354">
        <ele>56.859999999999999</ele>
        <time>2024-09-16T15:45:58Z</time>
      </trkpt>
      <trkpt lat="53.537683021277189" lon="13.772594025358558">
        <ele>56.859999999999999</ele>
        <time>2024-09-16T15:45:59Z</time>
      </trkpt>
      <trkpt lat="53.537196032702923" lon="13.773541012778878">
        <ele>56.369999999999997</ele>
        <time>2024-09-16T15:46:09Z</time>
      </trkpt>
      <trkpt lat="53.537013977766037" lon="13.773893974721432">
        <ele>55.890000000000001</ele>
        <time>2024-09-16T15:46:17Z</time>
      </trkpt>
      <trkpt lat="53.537013977766037" lon="13.773893974721432">
        <ele>55.890000000000001</ele>
        <time>2024-09-16T15:46:47Z</time>
      </trkpt>
      <trkpt lat="53.537013977766037" lon="13.773893974721432">
        <ele>55.890000000000001</ele>
        <time>2024-09-16T15:47:21Z</time>
      </trkpt>
      <trkpt lat="53.537013977766037" lon="13.773893974721432">
        <ele>55.409999999999997</ele>
        <time>2024-09-16T15:48:15Z</time>
      </trkpt>
      <trkpt lat="53.537005009129643" lon="13.77391098998487">
        <ele>55.890000000000001</ele>
        <time>2024-09-16T15:49:21Z</time>
      </trkpt>
      <trkpt lat="53.537016995251179" lon="13.773913001641631">
        <ele>59.740000000000002</ele>
        <time>2024-09-16T15:50:12Z</time>
      </trkpt>
      <trkpt lat="53.537002997472882" lon="13.773908978328109">
        <ele>58.780000000000001</ele>
        <time>2024-09-16T15:50:54Z</time>
      </trkpt>
      <trkpt lat="53.536947006359696" lon="13.774025989696383">
        <ele>58.780000000000001</ele>
        <time>2024-09-16T15:51:23Z</time>
      </trkpt>
      <trkpt lat="53.53680401109159" lon="13.774078963324428">
        <ele>58.299999999999997</ele>
        <time>2024-09-16T15:51:26Z</time>
      </trkpt>
      <trkpt lat="53.536751959472895" lon="13.774006962776184">
        <ele>57.82</ele>
        <time>2024-09-16T15:51:27Z</time>
      </trkpt>
      <trkpt lat="53.536682976409793" lon="13.77391098998487">
        <ele>57.82</ele>
        <time>2024-09-16T15:51:28Z</time>
      </trkpt>
      <trkpt lat="53.536019967868924" lon="13.772985963150859">
        <ele>56.859999999999999</ele>
        <time>2024-09-16T15:51:34Z</time>
      </trkpt>
      <trkpt lat="53.5350869782269" lon="13.771684002131224">
        <ele>56.859999999999999</ele>
        <time>2024-09-16T15:51:40Z</time>
      </trkpt>
      <trkpt lat="53.533202977851033" lon="13.76905501820147">
        <ele>58.780000000000001</ele>
        <time>2024-09-16T15:51:50Z</time>
      </trkpt>
      <trkpt lat="53.531635981053114" lon="13.766867006197572">
        <ele>62.619999999999997</ele>
        <time>2024-09-16T15:51:59Z</time>
      </trkpt>
      <trkpt lat="53.529676040634513" lon="13.764131991192698">
        <ele>65.030000000000001</ele>
        <time>2024-09-16T15:52:10Z</time>
      </trkpt>
      <trkpt lat="53.527686009183526" lon="13.761315001174808">
        <ele>68.390000000000001</ele>
        <time>2024-09-16T15:52:22Z</time>
      </trkpt>
      <trkpt lat="53.525906028226018" lon="13.758444031700492">
        <ele>64.549999999999997</ele>
        <time>2024-09-16T15:52:34Z</time>
      </trkpt>
      <trkpt lat="53.524275999516249" lon="13.75573399476707">
        <ele>59.259999999999998</ele>
        <time>2024-09-16T15:52:45Z</time>
      </trkpt>
      <trkpt lat="53.522541029378772" lon="13.753420002758503">
        <ele>53.969999999999999</ele>
        <time>2024-09-16T15:52:55Z</time>
      </trkpt>
      <trkpt lat="53.521058019250631" lon="13.751906985417008">
        <ele>55.409999999999997</ele>
        <time>2024-09-16T15:53:03Z</time>
      </trkpt>
      <trkpt lat="53.51946696639061" lon="13.750737961381674">
        <ele>58.299999999999997</ele>
        <time>2024-09-16T15:53:11Z</time>
      </trkpt>
      <trkpt lat="53.518324010074139" lon="13.749960958957672">
        <ele>60.700000000000003</ele>
        <time>2024-09-16T15:53:19Z</time>
      </trkpt>
      <trkpt lat="53.51766100153327" lon="13.749444968998432">
        <ele>61.18</ele>
        <time>2024-09-16T15:53:25Z</time>
      </trkpt>
      <trkpt lat="53.516504969447851" lon="13.748335959389806">
        <ele>63.579999999999998</ele>
        <time>2024-09-16T15:53:36Z</time>
      </trkpt>
      <trkpt lat="53.515569968149066" lon="13.747385032474995">
        <ele>67.430000000000007</ele>
        <time>2024-09-16T15:53:46Z</time>
      </trkpt>
      <trkpt lat="53.515436025336385" lon="13.747308002784848">
        <ele>67.909999999999997</ele>
        <time>2024-09-16T15:53:48Z</time>
      </trkpt>
      <trkpt lat="53.515358995646238" lon="13.747308002784848">
        <ele>68.390000000000001</ele>
        <time>2024-09-16T15:53:49Z</time>
      </trkpt>
      <trkpt lat="53.514532037079334" lon="13.747277995571494">
        <ele>68.870000000000005</ele>
        <time>2024-09-16T15:53:57Z</time>
      </trkpt>
      <trkpt lat="53.513569962233305" lon="13.747203983366489">
        <ele>65.510000000000005</ele>
        <time>2024-09-16T15:54:06Z</time>
      </trkpt>
      <trkpt lat="53.513276008889079" lon="13.747155033051968">
        <ele>64.549999999999997</ele>
        <time>2024-09-16T15:54:09Z</time>
      </trkpt>
      <trkpt lat="53.513080039992929" lon="13.747090995311737">
        <ele>65.030000000000001</ele>
        <time>2024-09-16T15:54:11Z</time>
      </trkpt>
      <trkpt lat="53.512701010331511" lon="13.746968032792211">
        <ele>65.989999999999995</ele>
        <time>2024-09-16T15:54:15Z</time>
      </trkpt>
      <trkpt lat="53.512326003983617" lon="13.746801987290382">
        <ele>66.469999999999999</ele>
        <time>2024-09-16T15:54:19Z</time>
      </trkpt>
      <trkpt lat="53.512229025363922" lon="13.746743984520435">
        <ele>65.989999999999995</ele>
        <time>2024-09-16T15:54:20Z</time>
      </trkpt>
      <trkpt lat="53.512133974581957" lon="13.746669972315431">
        <ele>66.469999999999999</ele>
        <time>2024-09-16T15:54:21Z</time>
      </trkpt>
      <trkpt lat="53.511673975735903" lon="13.746303012594581">
        <ele>66.950000000000003</ele>
        <time>2024-09-16T15:54:26Z</time>
      </trkpt>
      <trkpt lat="53.511578002944589" lon="13.746222965419292">
        <ele>66.950000000000003</ele>
        <time>2024-09-16T15:54:27Z</time>
      </trkpt>
      <trkpt lat="53.510598996654153" lon="13.745412016287446">
        <ele>65.989999999999995</ele>
        <time>2024-09-16T15:54:36Z</time>
      </trkpt>
      <trkpt lat="53.510054005309939" lon="13.744944976642728">
        <ele>63.579999999999998</ele>
        <time>2024-09-16T15:54:41Z</time>
      </trkpt>
      <trkpt lat="53.509985022246838" lon="13.744884040206671">
        <ele>63.100000000000001</ele>
        <time>2024-09-16T15:54:42Z</time>
      </trkpt>
      <trkpt lat="53.509833980351686" lon="13.744823019951582">
        <ele>62.619999999999997</ele>
        <time>2024-09-16T15:54:43Z</time>
      </trkpt>
      <trkpt lat="53.509715041145682" lon="13.74477599747479">
        <ele>62.140000000000001</ele>
        <time>2024-09-16T15:54:44Z</time>
      </trkpt>
      <trkpt lat="53.509599035605788" lon="13.744744984433055">
        <ele>61.18</ele>
        <time>2024-09-16T15:54:45Z</time>
      </trkpt>
      <trkpt lat="53.508412996307015" lon="13.744601989164948">
        <ele>58.299999999999997</ele>
        <time>2024-09-16T15:54:55Z</time>
      </trkpt>
      <trkpt lat="53.507800027728081" lon="13.744559995830059">
        <ele>62.140000000000001</ele>
        <time>2024-09-16T15:55:02Z</time>
      </trkpt>
      <trkpt lat="53.507484029978514" lon="13.744545998051763">
        <ele>65.989999999999995</ele>
        <time>2024-09-16T15:55:10Z</time>
      </trkpt>
      <trkpt lat="53.507468020543456" lon="13.744545998051763">
        <ele>66.469999999999999</ele>
        <time>2024-09-16T15:55:11Z</time>
      </trkpt>
      <trkpt lat="53.507856018841267" lon="13.744837017729878">
        <ele>67.909999999999997</ele>
        <time>2024-09-16T15:55:15Z</time>
      </trkpt>
      <trkpt lat="53.507861969992518" lon="13.74492603354156">
        <ele>68.390000000000001</ele>
        <time>2024-09-16T15:55:16Z</time>
      </trkpt>
      <trkpt lat="53.507865993306041" lon="13.744998034089804">
        <ele>68.870000000000005</ele>
        <time>2024-09-16T15:55:17Z</time>
      </trkpt>
      <trkpt lat="53.507389985024929" lon="13.745261980220675">
        <ele>68.870000000000005</ele>
        <time>2024-09-16T15:55:21Z</time>
      </trkpt>
      <trkpt lat="53.50693803280592" lon="13.745419979095459">
        <ele>69.829999999999998</ele>
        <time>2024-09-16T15:55:30Z</time>
      </trkpt>
      <trkpt lat="53.50693803280592" lon="13.745419979095459">
        <ele>69.829999999999998</ele>
        <time>2024-09-16T15:55:31Z</time>
      </trkpt>
      <trkpt lat="53.50693803280592" lon="13.745419979095459">
        <ele>70.310000000000002</ele>
        <time>2024-09-16T15:55:32Z</time>
      </trkpt>
      <trkpt lat="53.507032999768853" lon="13.745358036831021">
        <ele>69.829999999999998</ele>
        <time>2024-09-16T15:55:40Z</time>
      </trkpt>
      <trkpt lat="53.507040040567517" lon="13.745397012680769">
        <ele>65.989999999999995</ele>
        <time>2024-09-16T16:00:25Z</time>
      </trkpt>
      <trkpt lat="53.50706703029573" lon="13.745391983538866">
        <ele>65.989999999999995</ele>
        <time>2024-09-16T16:01:14Z</time>
      </trkpt>
      <trkpt lat="53.507065018638968" lon="13.745389971882105">
        <ele>65.989999999999995</ele>
        <time>2024-09-16T16:02:05Z</time>
      </trkpt>
      <trkpt lat="53.507059989497066" lon="13.745388966053724">
        <ele>66.469999999999999</ele>
        <time>2024-09-16T16:02:52Z</time>
      </trkpt>
      <trkpt lat="53.50704800337553" lon="13.745389971882105">
        <ele>65.989999999999995</ele>
        <time>2024-09-16T16:03:43Z</time>
      </trkpt>
      <trkpt lat="53.507043980062008" lon="13.745386032387614">
        <ele>66.469999999999999</ele>
        <time>2024-09-16T16:04:39Z</time>
      </trkpt>
      <trkpt lat="53.507042974233627" lon="13.745379997417331">
        <ele>66.469999999999999</ele>
        <time>2024-09-16T16:05:31Z</time>
      </trkpt>
      <trkpt lat="53.507035011425614" lon="13.745376979932189">
        <ele>66.950000000000003</ele>
        <time>2024-09-16T16:06:23Z</time>
      </trkpt>
      <trkpt lat="53.507035011425614" lon="13.745376979932189">
        <ele>66.950000000000003</ele>
        <time>2024-09-16T16:06:42Z</time>
      </trkpt>
      <trkpt lat="53.507035011425614" lon="13.745362982153893">
        <ele>67.430000000000007</ele>
        <time>2024-09-16T16:07:06Z</time>
      </trkpt>
      <trkpt lat="53.50693803280592" lon="13.745419979095459">
        <ele>67.430000000000007</ele>
        <time>2024-09-16T16:07:08Z</time>
      </trkpt>
      <trkpt lat="53.506913976743817" lon="13.74542098492384">
        <ele>66.950000000000003</ele>
        <time>2024-09-16T16:07:16Z</time>
      </trkpt>
      <trkpt lat="53.506871983408928" lon="13.745422996580601">
        <ele>66.950000000000003</ele>
        <time>2024-09-16T16:07:17Z</time>
      </trkpt>
      <trkpt lat="53.506924035027623" lon="13.745272038504481">
        <ele>66.950000000000003</ele>
        <time>2024-09-16T16:07:18Z</time>
      </trkpt>
      <trkpt lat="53.50691900588572" lon="13.745219986885786">
        <ele>66.469999999999999</ele>
        <time>2024-09-16T16:07:19Z</time>
      </trkpt>
      <trkpt lat="53.506911965087056" lon="13.745154021307826">
        <ele>66.469999999999999</ele>
        <time>2024-09-16T16:07:20Z</time>
      </trkpt>
      <trkpt lat="53.506906013935804" lon="13.745082020759583">
        <ele>66.469999999999999</ele>
        <time>2024-09-16T16:07:21Z</time>
      </trkpt>
      <trkpt lat="53.50689897313714" lon="13.745010020211339">
        <ele>65.989999999999995</ele>
        <time>2024-09-16T16:07:22Z</time>
      </trkpt>
      <trkpt lat="53.506884975358844" lon="13.74486300162971">
        <ele>65.989999999999995</ele>
        <time>2024-09-16T16:07:24Z</time>
      </trkpt>
      <trkpt lat="53.506867960095406" lon="13.744687987491488">
        <ele>65.989999999999995</ele>
        <time>2024-09-16T16:07:32Z</time>
      </trkpt>
      <trkpt lat="53.506865026429296" lon="13.744658986106515">
        <ele>65.989999999999995</ele>
        <time>2024-09-16T16:07:44Z</time>
      </trkpt>
      <trkpt lat="53.50685597397387" lon="13.744565024971962">
        <ele>67.430000000000007</ele>
        <time>2024-09-16T16:07:45Z</time>
      </trkpt>
      <trkpt lat="53.506804006174207" lon="13.744515990838408">
        <ele>67.909999999999997</ele>
        <time>2024-09-16T16:07:46Z</time>
      </trkpt>
      <trkpt lat="53.506736028939486" lon="13.744510961696506">
        <ele>68.390000000000001</ele>
        <time>2024-09-16T16:07:47Z</time>
      </trkpt>
      <trkpt lat="53.506665034219623" lon="13.744506016373634">
        <ele>68.390000000000001</ele>
        <time>2024-09-16T16:07:48Z</time>
      </trkpt>
      <trkpt lat="53.50659797899425" lon="13.744500987231731">
        <ele>67.909999999999997</ele>
        <time>2024-09-16T16:07:49Z</time>
      </trkpt>
      <trkpt lat="53.506536036729813" lon="13.744496963918209">
        <ele>67.430000000000007</ele>
        <time>2024-09-16T16:07:50Z</time>
      </trkpt>
      <trkpt lat="53.506099004298449" lon="13.744477014988661">
        <ele>67.430000000000007</ele>
        <time>2024-09-16T16:07:58Z</time>
      </trkpt>
      <trkpt lat="53.506078971549869" lon="13.74447600916028">
        <ele>67.430000000000007</ele>
        <time>2024-09-16T16:08:00Z</time>
      </trkpt>
      <trkpt lat="53.506086012348533" lon="13.744619004428387">
        <ele>67.909999999999997</ele>
        <time>2024-09-16T16:08:01Z</time>
      </trkpt>
      <trkpt lat="53.506091041490436" lon="13.744745990261436">
        <ele>67.909999999999997</ele>
        <time>2024-09-16T16:08:02Z</time>
      </trkpt>
      <trkpt lat="53.506096992641687" lon="13.74488303437829">
        <ele>67.909999999999997</ele>
        <time>2024-09-16T16:08:03Z</time>
      </trkpt>
      <trkpt lat="53.506103027611971" lon="13.745026029646397">
        <ele>67.909999999999997</ele>
        <time>2024-09-16T16:08:04Z</time>
      </trkpt>
      <trkpt lat="53.506164969876409" lon="13.746522031724453">
        <ele>68.390000000000001</ele>
        <time>2024-09-16T16:08:13Z</time>
      </trkpt>
      <trkpt lat="53.506128005683422" lon="13.748259013518691">
        <ele>69.349999999999994</ele>
        <time>2024-09-16T16:08:22Z</time>
      </trkpt>
      <trkpt lat="53.505846038460732" lon="13.74999800696969">
        <ele>68.870000000000005</ele>
        <time>2024-09-16T16:08:32Z</time>
      </trkpt>
      <trkpt lat="53.505205996334553" lon="13.751869015395641">
        <ele>64.549999999999997</ele>
        <time>2024-09-16T16:08:44Z</time>
      </trkpt>
      <trkpt lat="53.504719007760286" lon="13.752908958122134">
        <ele>64.549999999999997</ele>
        <time>2024-09-16T16:08:51Z</time>
      </trkpt>
      <trkpt lat="53.504639966413379" lon="13.753055976703763">
        <ele>64.069999999999993</ele>
        <time>2024-09-16T16:08:52Z</time>
      </trkpt>
      <trkpt lat="53.503504972904921" lon="13.754233969375491">
        <ele>60.700000000000003</ele>
        <time>2024-09-16T16:09:03Z</time>
      </trkpt>
      <trkpt lat="53.502847999334335" lon="13.755302997305989">
        <ele>58.299999999999997</ele>
        <time>2024-09-16T16:09:10Z</time>
      </trkpt>
      <trkpt lat="53.502211980521679" lon="13.757065963000059">
        <ele>54.450000000000003</ele>
        <time>2024-09-16T16:09:19Z</time>
      </trkpt>
      <trkpt lat="53.502050964161754" lon="13.757942961528897">
        <ele>54.450000000000003</ele>
        <time>2024-09-16T16:09:24Z</time>
      </trkpt>
      <trkpt lat="53.502032021060586" lon="13.758045975118876">
        <ele>53.969999999999999</ele>
        <time>2024-09-16T16:09:25Z</time>
      </trkpt>
      <trkpt lat="53.501872010529041" lon="13.758126022294164">
        <ele>53.490000000000002</ele>
        <time>2024-09-16T16:09:26Z</time>
      </trkpt>
      <trkpt lat="53.501797998324037" lon="13.758078999817371">
        <ele>53.490000000000002</ele>
        <time>2024-09-16T16:09:27Z</time>
      </trkpt>
      <trkpt lat="53.501707976683974" lon="13.758024014532566">
        <ele>53.009999999999998</ele>
        <time>2024-09-16T16:09:28Z</time>
      </trkpt>
      <trkpt lat="53.501602029427886" lon="13.757960982620716">
        <ele>52.530000000000001</ele>
        <time>2024-09-16T16:09:29Z</time>
      </trkpt>
      <trkpt lat="53.501478983089328" lon="13.757887976244092">
        <ele>52.049999999999997</ele>
        <time>2024-09-16T16:09:30Z</time>
      </trkpt>
      <trkpt lat="53.500404004007578" lon="13.75730300322175">
        <ele>51.57</ele>
        <time>2024-09-16T16:09:37Z</time>
      </trkpt>
      <trkpt lat="53.499551983550191" lon="13.756838981062174">
        <ele>51.57</ele>
        <time>2024-09-16T16:09:42Z</time>
      </trkpt>
      <trkpt lat="53.499385016039014" lon="13.756793970242143">
        <ele>52.049999999999997</ele>
        <time>2024-09-16T16:09:43Z</time>
      </trkpt>
      <trkpt lat="53.499216036871076" lon="13.756776032969356">
        <ele>52.049999999999997</ele>
        <time>2024-09-16T16:09:44Z</time>
      </trkpt>
      <trkpt lat="53.499048985540867" lon="13.75678701326251">
        <ele>52.049999999999997</ele>
        <time>2024-09-16T16:09:45Z</time>
      </trkpt>
      <trkpt lat="53.498874977231026" lon="13.756847027689219">
        <ele>52.530000000000001</ele>
        <time>2024-09-16T16:09:46Z</time>
      </trkpt>
      <trkpt lat="53.498705998063087" lon="13.75695800408721">
        <ele>52.530000000000001</ele>
        <time>2024-09-16T16:09:47Z</time>
      </trkpt>
      <trkpt lat="53.498529978096485" lon="13.757073003798723">
        <ele>53.009999999999998</ele>
        <time>2024-09-16T16:09:48Z</time>
      </trkpt>
      <trkpt lat="53.497178982943296" lon="13.757851012051105">
        <ele>53.969999999999999</ele>
        <time>2024-09-16T16:09:55Z</time>
      </trkpt>
      <trkpt lat="53.496986031532288" lon="13.757857969030738">
        <ele>54.450000000000003</ele>
        <time>2024-09-16T16:09:56Z</time>
      </trkpt>
      <trkpt lat="53.496787967160344" lon="13.757850006222725">
        <ele>54.93</ele>
        <time>2024-09-16T16:09:57Z</time>
      </trkpt>
      <trkpt lat="53.4950150270015" lon="13.757472988218069">
        <ele>58.299999999999997</ele>
        <time>2024-09-16T16:10:05Z</time>
      </trkpt>
      <trkpt lat="53.493070006370544" lon="13.756754994392395">
        <ele>60.700000000000003</ele>
        <time>2024-09-16T16:10:14Z</time>
      </trkpt>
      <trkpt lat="53.491130014881492" lon="13.756102966144681">
        <ele>62.619999999999997</ele>
        <time>2024-09-16T16:10:23Z</time>
      </trkpt>
      <trkpt lat="53.490575971081853" lon="13.755983021110296">
        <ele>62.140000000000001</ele>
        <time>2024-09-16T16:10:28Z</time>
      </trkpt>
      <trkpt lat="53.490520985797048" lon="13.755971034988761">
        <ele>61.659999999999997</ele>
        <time>2024-09-16T16:10:34Z</time>
      </trkpt>
      <trkpt lat="53.490441022440791" lon="13.755954019725323">
        <ele>60.700000000000003</ele>
        <time>2024-09-16T16:11:11Z</time>
      </trkpt>
      <trkpt lat="53.489911034703255" lon="13.755871960893273">
        <ele>61.18</ele>
        <time>2024-09-16T16:11:16Z</time>
      </trkpt>
      <trkpt lat="53.488537995144725" lon="13.755920995026827">
        <ele>61.659999999999997</ele>
        <time>2024-09-16T16:11:24Z</time>
      </trkpt>
      <trkpt lat="53.486776035279036" lon="13.756093997508287">
        <ele>61.659999999999997</ele>
        <time>2024-09-16T16:11:32Z</time>
      </trkpt>
      <trkpt lat="53.484074966982007" lon="13.756563970819116">
        <ele>59.740000000000002</ele>
        <time>2024-09-16T16:11:43Z</time>
      </trkpt>
      <trkpt lat="53.481947975233197" lon="13.757349019870162">
        <ele>64.549999999999997</ele>
        <time>2024-09-16T16:11:53Z</time>
      </trkpt>
      <trkpt lat="53.480287017300725" lon="13.757940027862787">
        <ele>68.870000000000005</ele>
        <time>2024-09-16T16:12:04Z</time>
      </trkpt>
      <trkpt lat="53.478541988879442" lon="13.758606975898147">
        <ele>69.349999999999994</ele>
        <time>2024-09-16T16:12:14Z</time>
      </trkpt>
      <trkpt lat="53.476737029850483" lon="13.759505013003945">
        <ele>72.239999999999995</ele>
        <time>2024-09-16T16:12:22Z</time>
      </trkpt>
      <trkpt lat="53.475415036082268" lon="13.759787986055017">
        <ele>79.930000000000007</ele>
        <time>2024-09-16T16:12:28Z</time>
      </trkpt>
      <trkpt lat="53.473900007084012" lon="13.75945002771914">
        <ele>89.540000000000006</ele>
        <time>2024-09-16T16:12:35Z</time>
      </trkpt>
      <trkpt lat="53.47368098795414" lon="13.759410968050361">
        <ele>89.540000000000006</ele>
        <time>2024-09-16T16:12:36Z</time>
      </trkpt>
      <trkpt lat="53.473459035158157" lon="13.759461008012295">
        <ele>90.019999999999996</ele>
        <time>2024-09-16T16:12:37Z</time>
      </trkpt>
      <trkpt lat="53.473236998543143" lon="13.759511969983578">
        <ele>90.019999999999996</ele>
        <time>2024-09-16T16:12:38Z</time>
      </trkpt>
      <trkpt lat="53.471389962360263" lon="13.759957971051335">
        <ele>92.420000000000002</ele>
        <time>2024-09-16T16:12:46Z</time>
      </trkpt>
      <trkpt lat="53.470435012131929" lon="13.760255025699735">
        <ele>92.900000000000006</ele>
        <time>2024-09-16T16:12:52Z</time>
      </trkpt>
      <trkpt lat="53.469835035502911" lon="13.760444037616253">
        <ele>91.939999999999998</ele>
        <time>2024-09-16T16:12:57Z</time>
      </trkpt>
      <trkpt lat="53.468881007283926" lon="13.760551996529102">
        <ele>88.099999999999994</ele>
        <time>2024-09-16T16:13:05Z</time>
      </trkpt>
      <trkpt lat="53.468561992049217" lon="13.760493993759155">
        <ele>87.140000000000001</ele>
        <time>2024-09-16T16:13:09Z</time>
      </trkpt>
      <trkpt lat="53.468470964580774" lon="13.760436996817589">
        <ele>87.140000000000001</ele>
        <time>2024-09-16T16:13:10Z</time>
      </trkpt>
      <trkpt lat="53.468256974592805" lon="13.760302970185876">
        <ele>87.140000000000001</ele>
        <time>2024-09-16T16:13:12Z</time>
      </trkpt>
      <trkpt lat="53.468138035386801" lon="13.760228035971522">
        <ele>87.140000000000001</ele>
        <time>2024-09-16T16:13:13Z</time>
      </trkpt>
      <trkpt lat="53.467004969716072" lon="13.759519010782242">
        <ele>88.099999999999994</ele>
        <time>2024-09-16T16:13:23Z</time>
      </trkpt>
      <trkpt lat="53.465663027018309" lon="13.758680988103151">
        <ele>90.019999999999996</ele>
        <time>2024-09-16T16:13:35Z</time>
      </trkpt>
      <trkpt lat="53.464562986046076" lon="13.757890993729234">
        <ele>89.060000000000002</ele>
        <time>2024-09-16T16:13:43Z</time>
      </trkpt>
      <trkpt lat="53.464428037405014" lon="13.757734000682831">
        <ele>89.060000000000002</ele>
        <time>2024-09-16T16:13:44Z</time>
      </trkpt>
      <trkpt lat="53.464322006329894" lon="13.757520010694861">
        <ele>89.060000000000002</ele>
        <time>2024-09-16T16:13:45Z</time>
      </trkpt>
      <trkpt lat="53.464227961376309" lon="13.757307026535273">
        <ele>88.579999999999998</ele>
        <time>2024-09-16T16:13:46Z</time>
      </trkpt>
      <trkpt lat="53.464174987748265" lon="13.757031010463834">
        <ele>88.579999999999998</ele>
        <time>2024-09-16T16:13:47Z</time>
      </trkpt>
      <trkpt lat="53.464118996635079" lon="13.756746025756001">
        <ele>88.099999999999994</ele>
        <time>2024-09-16T16:13:48Z</time>
      </trkpt>
      <trkpt lat="53.464053031057119" lon="13.756441008299589">
        <ele>87.620000000000005</ele>
        <time>2024-09-16T16:13:49Z</time>
      </trkpt>
      <trkpt lat="53.463957980275154" lon="13.756213020533323">
        <ele>87.620000000000005</ele>
        <time>2024-09-16T16:13:50Z</time>
      </trkpt>
      <trkpt lat="53.463786989450455" lon="13.755971034988761">
        <ele>87.620000000000005</ele>
        <time>2024-09-16T16:13:51Z</time>
      </trkpt>
      <trkpt lat="53.463628990575671" lon="13.755746986716986">
        <ele>87.140000000000001</ele>
        <time>2024-09-16T16:13:52Z</time>
      </trkpt>
      <trkpt lat="53.463463028892875" lon="13.755512963980436">
        <ele>87.140000000000001</ele>
        <time>2024-09-16T16:13:53Z</time>
      </trkpt>
      <trkpt lat="53.461779020726681" lon="13.753152033314109">
        <ele>88.099999999999994</ele>
        <time>2024-09-16T16:14:02Z</time>
      </trkpt>
      <trkpt lat="53.460152009502053" lon="13.751410022377968">
        <ele>92.900000000000006</ele>
        <time>2024-09-16T16:14:10Z</time>
      </trkpt>
      <trkpt lat="53.458526004105806" lon="13.750550961121917">
        <ele>88.579999999999998</ele>
        <time>2024-09-16T16:14:17Z</time>
      </trkpt>
      <trkpt lat="53.457854026928544" lon="13.750228006392717">
        <ele>89.060000000000002</ele>
        <time>2024-09-16T16:14:22Z</time>
      </trkpt>
      <trkpt lat="53.457540962845087" lon="13.750064978376031">
        <ele>89.540000000000006</ele>
        <time>2024-09-16T16:14:26Z</time>
      </trkpt>
      <trkpt lat="53.457367038354278" lon="13.750019967556">
        <ele>89.540000000000006</ele>
        <time>2024-09-16T16:14:28Z</time>
      </trkpt>
      <trkpt lat="53.45726503059268" lon="13.750031031668186">
        <ele>89.060000000000002</ele>
        <time>2024-09-16T16:14:29Z</time>
      </trkpt>
      <trkpt lat="53.457163022831082" lon="13.750131027773023">
        <ele>89.060000000000002</ele>
        <time>2024-09-16T16:14:30Z</time>
      </trkpt>
      <trkpt lat="53.457059003412724" lon="13.750259019434452">
        <ele>89.060000000000002</ele>
        <time>2024-09-16T16:14:31Z</time>
      </trkpt>
      <trkpt lat="53.456947021186352" lon="13.750395979732275">
        <ele>89.060000000000002</ele>
        <time>2024-09-16T16:14:32Z</time>
      </trkpt>
      <trkpt lat="53.456052001565695" lon="13.751499960198998">
        <ele>89.540000000000006</ele>
        <time>2024-09-16T16:14:41Z</time>
      </trkpt>
      <trkpt lat="53.455062014982104" lon="13.752720030024648">
        <ele>90.5</ele>
        <time>2024-09-16T16:14:50Z</time>
      </trkpt>
      <trkpt lat="53.453933978453279" lon="13.75414595939219">
        <ele>89.060000000000002</ele>
        <time>2024-09-16T16:14:57Z</time>
      </trkpt>
      <trkpt lat="53.452464966103435" lon="13.756115958094597">
        <ele>90.980000000000004</ele>
        <time>2024-09-16T16:15:05Z</time>
      </trkpt>
      <trkpt lat="53.452262962237" lon="13.756263982504606">
        <ele>90.980000000000004</ele>
        <time>2024-09-16T16:15:06Z</time>
      </trkpt>
      <trkpt lat="53.452063975855708" lon="13.756389962509274">
        <ele>90.980000000000004</ele>
        <time>2024-09-16T16:15:07Z</time>
      </trkpt>
      <trkpt lat="53.451849985867739" lon="13.756431033834815">
        <ele>90.980000000000004</ele>
        <time>2024-09-16T16:15:08Z</time>
      </trkpt>
      <trkpt lat="53.450135970488191" lon="13.757018018513918">
        <ele>90.019999999999996</ele>
        <time>2024-09-16T16:15:15Z</time>
      </trkpt>
      <trkpt lat="53.447775961831212" lon="13.758191987872124">
        <ele>88.579999999999998</ele>
        <time>2024-09-16T16:15:24Z</time>
      </trkpt>
      <trkpt lat="53.444721009582281" lon="13.759740963578224">
        <ele>89.060000000000002</ele>
        <time>2024-09-16T16:15:36Z</time>
      </trkpt>
      <trkpt lat="53.442578008398414" lon="13.760979976505041">
        <ele>82.810000000000002</ele>
        <time>2024-09-16T16:15:45Z</time>
      </trkpt>
      <trkpt lat="53.439709972590208" lon="13.763094982132316">
        <ele>73.200000000000003</ele>
        <time>2024-09-16T16:15:57Z</time>
      </trkpt>
      <trkpt lat="53.437754977494478" lon="13.764452012255788">
        <ele>70.310000000000002</ele>
        <time>2024-09-16T16:16:06Z</time>
      </trkpt>
      <trkpt lat="53.435859996825457" lon="13.765383996069431">
        <ele>70.310000000000002</ele>
        <time>2024-09-16T16:16:15Z</time>
      </trkpt>
      <trkpt lat="53.434543032199144" lon="13.766523012891412">
        <ele>69.829999999999998</ele>
        <time>2024-09-16T16:16:22Z</time>
      </trkpt>
      <trkpt lat="53.432680992409587" lon="13.768308022990823">
        <ele>67.430000000000007</ele>
        <time>2024-09-16T16:16:31Z</time>
      </trkpt>
      <trkpt lat="53.43249399214983" lon="13.768556965515018">
        <ele>67.430000000000007</ele>
        <time>2024-09-16T16:16:32Z</time>
      </trkpt>
      <trkpt lat="53.43189200386405" lon="13.769517028704286">
        <ele>66.950000000000003</ele>
        <time>2024-09-16T16:16:36Z</time>
      </trkpt>
      <trkpt lat="53.431760994717479" lon="13.769562961533666">
        <ele>66.469999999999999</ele>
        <time>2024-09-16T16:16:37Z</time>
      </trkpt>
      <trkpt lat="53.431615987792611" lon="13.7695939745754">
        <ele>66.469999999999999</ele>
        <time>2024-09-16T16:16:38Z</time>
      </trkpt>
      <trkpt lat="53.431454971432686" lon="13.769628005102277">
        <ele>66.469999999999999</ele>
        <time>2024-09-16T16:16:39Z</time>
      </trkpt>
      <trkpt lat="53.431277023628354" lon="13.769665975123644">
        <ele>66.469999999999999</ele>
        <time>2024-09-16T16:16:40Z</time>
      </trkpt>
      <trkpt lat="53.430895982310176" lon="13.769746022298932">
        <ele>66.950000000000003</ele>
        <time>2024-09-16T16:16:42Z</time>
      </trkpt>
      <trkpt lat="53.430693978443742" lon="13.769815005362034">
        <ele>66.950000000000003</ele>
        <time>2024-09-16T16:16:43Z</time>
      </trkpt>
      <trkpt lat="53.430489040911198" lon="13.76993503421545">
        <ele>66.950000000000003</ele>
        <time>2024-09-16T16:16:44Z</time>
      </trkpt>
      <trkpt lat="53.428389960899949" lon="13.771168012171984">
        <ele>64.549999999999997</ele>
        <time>2024-09-16T16:16:53Z</time>
      </trkpt>
      <trkpt lat="53.425494013354182" lon="13.772938018664718">
        <ele>62.140000000000001</ele>
        <time>2024-09-16T16:17:05Z</time>
      </trkpt>
      <trkpt lat="53.423730041831732" lon="13.774604005739093">
        <ele>57.82</ele>
        <time>2024-09-16T16:17:13Z</time>
      </trkpt>
      <trkpt lat="53.422358008101583" lon="13.77608098089695">
        <ele>50.130000000000003</ele>
        <time>2024-09-16T16:17:20Z</time>
      </trkpt>
      <trkpt lat="53.421874037012458" lon="13.776753041893244">
        <ele>45.799999999999997</ele>
        <time>2024-09-16T16:17:24Z</time>
      </trkpt>
      <trkpt lat="53.421272970736027" lon="13.777465000748634">
        <ele>40.509999999999998</ele>
        <time>2024-09-16T16:17:30Z</time>
      </trkpt>
      <trkpt lat="53.421158976852894" lon="13.777556028217077">
        <ele>39.549999999999997</ele>
        <time>2024-09-16T16:17:31Z</time>
      </trkpt>
      <trkpt lat="53.421042971313" lon="13.777585029602051">
        <ele>38.590000000000003</ele>
        <time>2024-09-16T16:17:32Z</time>
      </trkpt>
      <trkpt lat="53.42052798718214" lon="13.77782098017633">
        <ele>36.189999999999998</ele>
        <time>2024-09-16T16:17:36Z</time>
      </trkpt>
      <trkpt lat="53.420425979420543" lon="13.777940003201365">
        <ele>35.710000000000001</ele>
        <time>2024-09-16T16:17:37Z</time>
      </trkpt>
      <trkpt lat="53.420218024402857" lon="13.778181988745928">
        <ele>34.259999999999998</ele>
        <time>2024-09-16T16:17:39Z</time>
      </trkpt>
      <trkpt lat="53.419970003888011" lon="13.778470996767282">
        <ele>31.859999999999999</ele>
        <time>2024-09-16T16:17:42Z</time>
      </trkpt>
      <trkpt lat="53.419887023046613" lon="13.778568981215358">
        <ele>31.379999999999999</ele>
        <time>2024-09-16T16:17:43Z</time>
      </trkpt>
      <trkpt lat="53.419813010841608" lon="13.778568981215358">
        <ele>30.899999999999999</ele>
        <time>2024-09-16T16:17:44Z</time>
      </trkpt>
      <trkpt lat="53.419727012515068" lon="13.778565963730216">
        <ele>30.420000000000002</ele>
        <time>2024-09-16T16:17:45Z</time>
      </trkpt>
      <trkpt lat="53.419637996703386" lon="13.778562024235725">
        <ele>29.940000000000001</ele>
        <time>2024-09-16T16:17:46Z</time>
      </trkpt>
      <trkpt lat="53.419442027807236" lon="13.778553977608681">
        <ele>29.460000000000001</ele>
        <time>2024-09-16T16:17:48Z</time>
      </trkpt>
      <trkpt lat="53.41936600394547" lon="13.778547020629048">
        <ele>28.98</ele>
        <time>2024-09-16T16:17:49Z</time>
      </trkpt>
      <trkpt lat="53.419295009225607" lon="13.778454987332225">
        <ele>29.460000000000001</ele>
        <time>2024-09-16T16:17:50Z</time>
      </trkpt>
      <trkpt lat="53.419234994798899" lon="13.77837703563273">
        <ele>29.460000000000001</ele>
        <time>2024-09-16T16:17:51Z</time>
      </trkpt>
      <trkpt lat="53.419185960665345" lon="13.778312997892499">
        <ele>29.460000000000001</ele>
        <time>2024-09-16T16:17:52Z</time>
      </trkpt>
      <trkpt lat="53.419154025614262" lon="13.778263963758945">
        <ele>29.940000000000001</ele>
        <time>2024-09-16T16:17:53Z</time>
      </trkpt>
      <trkpt lat="53.419145978987217" lon="13.778162961825728">
        <ele>29.940000000000001</ele>
        <time>2024-09-16T16:17:54Z</time>
      </trkpt>
      <trkpt lat="53.419136004522443" lon="13.778047040104866">
        <ele>30.420000000000002</ele>
        <time>2024-09-16T16:17:55Z</time>
      </trkpt>
      <trkpt lat="53.419099040329456" lon="13.777576982975006">
        <ele>29.460000000000001</ele>
        <time>2024-09-16T16:17:58Z</time>
      </trkpt>
      <trkpt lat="53.419046988710761" lon="13.777118995785713">
        <ele>28.98</ele>
        <time>2024-09-16T16:18:01Z</time>
      </trkpt>
      <trkpt lat="53.419017987325788" lon="13.777013970538974">
        <ele>28.98</ele>
        <time>2024-09-16T16:18:02Z</time>
      </trkpt>
      <trkpt lat="53.418945986777544" lon="13.776911962777376">
        <ele>28.98</ele>
        <time>2024-09-16T16:18:03Z</time>
      </trkpt>
      <trkpt lat="53.418871974572539" lon="13.776847003027797">
        <ele>28.98</ele>
        <time>2024-09-16T16:18:04Z</time>
      </trkpt>
      <trkpt lat="53.418772984296083" lon="13.776791011914611">
        <ele>28.98</ele>
        <time>2024-09-16T16:18:05Z</time>
      </trkpt>
      <trkpt lat="53.417704962193966" lon="13.776269992813468">
        <ele>25.609999999999999</ele>
        <time>2024-09-16T16:18:14Z</time>
      </trkpt>
      <trkpt lat="53.417574958875775" lon="13.776171002537012">
        <ele>25.129999999999999</ele>
        <time>2024-09-16T16:18:15Z</time>
      </trkpt>
      <trkpt lat="53.41745400801301" lon="13.775991965085268">
        <ele>25.129999999999999</ele>
        <time>2024-09-16T16:18:16Z</time>
      </trkpt>
      <trkpt lat="53.417330039665103" lon="13.775807982310653">
        <ele>25.129999999999999</ele>
        <time>2024-09-16T16:18:17Z</time>
      </trkpt>
      <trkpt lat="53.417204981669784" lon="13.775621987879276">
        <ele>25.129999999999999</ele>
        <time>2024-09-16T16:18:18Z</time>
      </trkpt>
      <trkpt lat="53.417077995836735" lon="13.775432975962758">
        <ele>25.129999999999999</ele>
        <time>2024-09-16T16:18:19Z</time>
      </trkpt>
      <trkpt lat="53.416175013408065" lon="13.774269986897707">
        <ele>26.09</ele>
        <time>2024-09-16T16:18:26Z</time>
      </trkpt>
      <trkpt lat="53.416111981496215" lon="13.774064965546131">
        <ele>26.09</ele>
        <time>2024-09-16T16:18:27Z</time>
      </trkpt>
      <trkpt lat="53.416050039231777" lon="13.773823985829949">
        <ele>26.09</ele>
        <time>2024-09-16T16:18:28Z</time>
      </trkpt>
      <trkpt lat="53.415858009830117" lon="13.773068021982908">
        <ele>27.050000000000001</ele>
        <time>2024-09-16T16:18:31Z</time>
      </trkpt>
      <trkpt lat="53.4157570078969" lon="13.772866018116474">
        <ele>27.050000000000001</ele>
        <time>2024-09-16T16:18:32Z</time>
      </trkpt>
      <trkpt lat="53.41565097682178" lon="13.772671977058053">
        <ele>27.530000000000001</ele>
        <time>2024-09-16T16:18:33Z</time>
      </trkpt>
      <trkpt lat="53.415452996268868" lon="13.772337958216667">
        <ele>28.02</ele>
        <time>2024-09-16T16:18:35Z</time>
      </trkpt>
      <trkpt lat="53.415214028209448" lon="13.771951971575618">
        <ele>28.02</ele>
        <time>2024-09-16T16:18:38Z</time>
      </trkpt>
      <trkpt lat="53.415140016004443" lon="13.771834038197994">
        <ele>28.02</ele>
        <time>2024-09-16T16:18:39Z</time>
      </trkpt>
      <trkpt lat="53.414482958614826" lon="13.770771967247128">
        <ele>33.780000000000001</ele>
        <time>2024-09-16T16:18:48Z</time>
      </trkpt>
      <trkpt lat="53.41436100192368" lon="13.770501986145973">
        <ele>35.710000000000001</ele>
        <time>2024-09-16T16:18:50Z</time>
      </trkpt>
      <trkpt lat="53.414305010810494" lon="13.770375000312924">
        <ele>36.670000000000002</ele>
        <time>2024-09-16T16:18:51Z</time>
      </trkpt>
      <trkpt lat="53.41429696418345" lon="13.770180959254503">
        <ele>37.630000000000003</ele>
        <time>2024-09-16T16:18:52Z</time>
      </trkpt>
      <trkpt lat="53.414290007203817" lon="13.770007034763694">
        <ele>38.590000000000003</ele>
        <time>2024-09-16T16:18:53Z</time>
      </trkpt>
      <trkpt lat="53.414287995547056" lon="13.769832020625472">
        <ele>39.549999999999997</ele>
        <time>2024-09-16T16:18:54Z</time>
      </trkpt>
      <trkpt lat="53.414312973618507" lon="13.769658012315631">
        <ele>40.509999999999998</ele>
        <time>2024-09-16T16:18:55Z</time>
      </trkpt>
      <trkpt lat="53.414339041337371" lon="13.76948400400579">
        <ele>40.990000000000002</ele>
        <time>2024-09-16T16:18:56Z</time>
      </trkpt>
      <trkpt lat="53.414438031613827" lon="13.768814960494637">
        <ele>42.920000000000002</ele>
        <time>2024-09-16T16:19:00Z</time>
      </trkpt>
      <trkpt lat="53.414462003856897" lon="13.768653022125363">
        <ele>42.920000000000002</ele>
        <time>2024-09-16T16:19:01Z</time>
      </trkpt>
      <trkpt lat="53.414521012455225" lon="13.768134014680982">
        <ele>43.399999999999999</ele>
        <time>2024-09-16T16:19:04Z</time>
      </trkpt>
      <trkpt lat="53.414540961384773" lon="13.767948020249605">
        <ele>43.399999999999999</ele>
        <time>2024-09-16T16:19:05Z</time>
      </trkpt>
      <trkpt lat="53.414515983313322" lon="13.767753979191184">
        <ele>42.920000000000002</ele>
        <time>2024-09-16T16:19:06Z</time>
      </trkpt>
      <trkpt lat="53.414212977513671" lon="13.766249008476734">
        <ele>41.469999999999999</ele>
        <time>2024-09-16T16:19:14Z</time>
      </trkpt>
      <trkpt lat="53.41414500027895" lon="13.766082962974906">
        <ele>40.990000000000002</ele>
        <time>2024-09-16T16:19:15Z</time>
      </trkpt>
      <trkpt lat="53.413359029218554" lon="13.76443499699235">
        <ele>38.109999999999999</ele>
        <time>2024-09-16T16:19:26Z</time>
      </trkpt>
      <trkpt lat="53.412648998200893" lon="13.763327999040484">
        <ele>38.109999999999999</ele>
        <time>2024-09-16T16:19:34Z</time>
      </trkpt>
      <trkpt lat="53.412537015974522" lon="13.763252981007099">
        <ele>38.590000000000003</ele>
        <time>2024-09-16T16:19:35Z</time>
      </trkpt>
      <trkpt lat="53.412430984899402" lon="13.763244012370706">
        <ele>38.590000000000003</ele>
        <time>2024-09-16T16:19:36Z</time>
      </trkpt>
      <trkpt lat="53.412313973531127" lon="13.763267984613776">
        <ele>38.590000000000003</ele>
        <time>2024-09-16T16:19:37Z</time>
      </trkpt>
      <trkpt lat="53.412199979647994" lon="13.763306038454175">
        <ele>38.590000000000003</ele>
        <time>2024-09-16T16:19:38Z</time>
      </trkpt>
      <trkpt lat="53.411996969953179" lon="13.763353982940316">
        <ele>38.590000000000003</ele>
        <time>2024-09-16T16:19:40Z</time>
      </trkpt>
      <trkpt lat="53.411879958584905" lon="13.763465965166688">
        <ele>38.590000000000003</ele>
        <time>2024-09-16T16:19:42Z</time>
      </trkpt>
      <trkpt lat="53.411879958584905" lon="13.763465965166688">
        <ele>38.590000000000003</ele>
        <time>2024-09-16T16:19:43Z</time>
      </trkpt>
      <trkpt lat="53.411820027977228" lon="13.763487003743649">
        <ele>38.590000000000003</ele>
        <time>2024-09-16T16:19:44Z</time>
      </trkpt>
      <trkpt lat="53.411601008847356" lon="13.763566967099905">
        <ele>38.109999999999999</ele>
        <time>2024-09-16T16:19:51Z</time>
      </trkpt>
      <trkpt lat="53.411444015800953" lon="13.763622958213091">
        <ele>39.07</ele>
        <time>2024-09-16T16:19:54Z</time>
      </trkpt>
      <trkpt lat="53.411381989717484" lon="13.763645002618432">
        <ele>39.07</ele>
        <time>2024-09-16T16:19:55Z</time>
      </trkpt>
      <trkpt lat="53.411020981147885" lon="13.763775005936623">
        <ele>38.590000000000003</ele>
        <time>2024-09-16T16:20:00Z</time>
      </trkpt>
      <trkpt lat="53.41049300506711" lon="13.763865027576685">
        <ele>38.590000000000003</ele>
        <time>2024-09-16T16:20:06Z</time>
      </trkpt>
      <trkpt lat="53.410104000940919" lon="13.763824040070176">
        <ele>37.630000000000003</ele>
        <time>2024-09-16T16:20:10Z</time>
      </trkpt>
      <trkpt lat="53.410001993179321" lon="13.763795960694551">
        <ele>37.149999999999999</ele>
        <time>2024-09-16T16:20:11Z</time>
      </trkpt>
      <trkpt lat="53.409112002700567" lon="13.763530002906919">
        <ele>35.710000000000001</ele>
        <time>2024-09-16T16:20:19Z</time>
      </trkpt>
      <trkpt lat="53.408255036920309" lon="13.763399999588728">
        <ele>36.670000000000002</ele>
        <time>2024-09-16T16:20:28Z</time>
      </trkpt>
      <trkpt lat="53.407354988157749" lon="13.763389019295573">
        <ele>39.549999999999997</ele>
        <time>2024-09-16T16:20:35Z</time>
      </trkpt>
      <trkpt lat="53.406710000708699" lon="13.763381978496909">
        <ele>41.950000000000003</ele>
        <time>2024-09-16T16:20:41Z</time>
      </trkpt>
      <trkpt lat="53.40662601403892" lon="13.763380972668529">
        <ele>42.439999999999998</ele>
        <time>2024-09-16T16:20:42Z</time>
      </trkpt>
      <trkpt lat="53.406524006277323" lon="13.763277037069201">
        <ele>42.920000000000002</ele>
        <time>2024-09-16T16:20:43Z</time>
      </trkpt>
      <trkpt lat="53.406450999900699" lon="13.763179974630475">
        <ele>43.399999999999999</ele>
        <time>2024-09-16T16:20:44Z</time>
      </trkpt>
      <trkpt lat="53.406369024887681" lon="13.763070004060864">
        <ele>43.399999999999999</ele>
        <time>2024-09-16T16:20:45Z</time>
      </trkpt>
      <trkpt lat="53.40628101490438" lon="13.76295299269259">
        <ele>43.399999999999999</ele>
        <time>2024-09-16T16:20:46Z</time>
      </trkpt>
      <trkpt lat="53.405391024425626" lon="13.761662011966109">
        <ele>44.840000000000003</ele>
        <time>2024-09-16T16:20:56Z</time>
      </trkpt>
      <trkpt lat="53.404123010113835" lon="13.759707016870379">
        <ele>51.090000000000003</ele>
        <time>2024-09-16T16:21:11Z</time>
      </trkpt>
      <trkpt lat="53.403850011527538" lon="13.759285993874073">
        <ele>51.57</ele>
        <time>2024-09-16T16:21:15Z</time>
      </trkpt>
      <trkpt lat="53.403834002092481" lon="13.759260009974241">
        <ele>51.57</ele>
        <time>2024-09-16T16:21:16Z</time>
      </trkpt>
      <trkpt lat="53.40290604159236" lon="13.758153012022376">
        <ele>50.609999999999999</ele>
        <time>2024-09-16T16:21:27Z</time>
      </trkpt>
      <trkpt lat="53.402115041390061" lon="13.757394030690193">
        <ele>52.530000000000001</ele>
        <time>2024-09-16T16:21:38Z</time>
      </trkpt>
      <trkpt lat="53.401952013373375" lon="13.757272996008396">
        <ele>54.93</ele>
        <time>2024-09-16T16:21:46Z</time>
      </trkpt>
      <trkpt lat="53.401726959273219" lon="13.757073003798723">
        <ele>55.409999999999997</ele>
        <time>2024-09-16T16:21:58Z</time>
      </trkpt>
      <trkpt lat="53.401449015364051" lon="13.756868988275528">
        <ele>54.93</ele>
        <time>2024-09-16T16:22:04Z</time>
      </trkpt>
      <trkpt lat="53.401346001774073" lon="13.756825989112258">
        <ele>54.93</ele>
        <time>2024-09-16T16:22:06Z</time>
      </trkpt>
      <trkpt lat="53.400850966572762" lon="13.756518959999084">
        <ele>57.82</ele>
        <time>2024-09-16T16:22:18Z</time>
      </trkpt>
      <trkpt lat="53.400323996320367" lon="13.755995007231832">
        <ele>56.859999999999999</ele>
        <time>2024-09-16T16:22:30Z</time>
      </trkpt>
      <trkpt lat="53.400216037407517" lon="13.7558429595083">
        <ele>55.890000000000001</ele>
        <time>2024-09-16T16:22:39Z</time>
      </trkpt>
      <trkpt lat="53.400216037407517" lon="13.7558429595083">
        <ele>55.890000000000001</ele>
        <time>2024-09-16T16:22:44Z</time>
      </trkpt>
      <trkpt lat="53.400164991617203" lon="13.755808006972075">
        <ele>56.369999999999997</ele>
        <time>2024-09-16T16:22:57Z</time>
      </trkpt>
      <trkpt lat="53.400322990491986" lon="13.755932981148362">
        <ele>54.450000000000003</ele>
        <time>2024-09-16T16:23:04Z</time>
      </trkpt>
      <trkpt lat="53.400611998513341" lon="13.756199022755027">
        <ele>53.490000000000002</ele>
        <time>2024-09-16T16:23:10Z</time>
      </trkpt>
      <trkpt lat="53.400810984894633" lon="13.756373031064868">
        <ele>53.009999999999998</ele>
        <time>2024-09-16T16:23:14Z</time>
      </trkpt>
      <trkpt lat="53.401097981259227" lon="13.756607975810766">
        <ele>52.049999999999997</ele>
        <time>2024-09-16T16:23:19Z</time>
      </trkpt>
      <trkpt lat="53.401691000908613" lon="13.75710996799171">
        <ele>50.130000000000003</ele>
        <time>2024-09-16T16:23:30Z</time>
      </trkpt>
      <trkpt lat="53.4018350020051" lon="13.757202001288533">
        <ele>51.57</ele>
        <time>2024-09-16T16:23:34Z</time>
      </trkpt>
      <trkpt lat="53.401944972574711" lon="13.757254974916577">
        <ele>51.57</ele>
        <time>2024-09-16T16:23:47Z</time>
      </trkpt>
      <trkpt lat="53.402555007487535" lon="13.757827961817384">
        <ele>53.009999999999998</ele>
        <time>2024-09-16T16:23:58Z</time>
      </trkpt>
      <trkpt lat="53.402646034955978" lon="13.75792502425611">
        <ele>53.490000000000002</ele>
        <time>2024-09-16T16:24:01Z</time>
      </trkpt>
      <trkpt lat="53.402753993868828" lon="13.757907003164291">
        <ele>53.969999999999999</ele>
        <time>2024-09-16T16:24:07Z</time>
      </trkpt>
      <trkpt lat="53.403165964409709" lon="13.756993040442467">
        <ele>53.490000000000002</ele>
        <time>2024-09-16T16:24:15Z</time>
      </trkpt>
      <trkpt lat="53.403674997389317" lon="13.755799038335681">
        <ele>56.859999999999999</ele>
        <time>2024-09-16T16:24:25Z</time>
      </trkpt>
      <trkpt lat="53.403933998197317" lon="13.755250023677945">
        <ele>61.18</ele>
        <time>2024-09-16T16:24:33Z</time>
      </trkpt>
      <trkpt lat="53.403954030945897" lon="13.75519797205925">
        <ele>62.619999999999997</ele>
        <time>2024-09-16T16:24:43Z</time>
      </trkpt>
      <trkpt lat="53.404181012883782" lon="13.754736967384815">
        <ele>64.549999999999997</ele>
        <time>2024-09-16T16:24:52Z</time>
      </trkpt>
      <trkpt lat="53.404301963746548" lon="13.754473021253943">
        <ele>64.549999999999997</ele>
        <time>2024-09-16T16:24:55Z</time>
      </trkpt>
      <trkpt lat="53.404699014499784" lon="13.753615971654654">
        <ele>65.510000000000005</ele>
        <time>2024-09-16T16:25:06Z</time>
      </trkpt>
      <trkpt lat="53.404943011701107" lon="13.753064023330808">
        <ele>65.030000000000001</ele>
        <time>2024-09-16T16:25:15Z</time>
      </trkpt>
      <trkpt lat="53.404921973124146" lon="13.752706032246351">
        <ele>63.579999999999998</ele>
        <time>2024-09-16T16:25:20Z</time>
      </trkpt>
      <trkpt lat="53.404798004776239" lon="13.752426998689771">
        <ele>62.140000000000001</ele>
        <time>2024-09-16T16:25:25Z</time>
      </trkpt>
      <trkpt lat="53.404637994244695" lon="13.752208985388279">
        <ele>61.659999999999997</ele>
        <time>2024-09-16T16:25:29Z</time>
      </trkpt>
      <trkpt lat="53.404224012047052" lon="13.751347996294498">
        <ele>60.219999999999999</ele>
        <time>2024-09-16T16:25:40Z</time>
      </trkpt>
      <trkpt lat="53.404085962101817" lon="13.751183040440083">
        <ele>60.219999999999999</ele>
        <time>2024-09-16T16:25:47Z</time>
      </trkpt>
      <trkpt lat="53.404085962101817" lon="13.751183040440083">
        <ele>60.219999999999999</ele>
        <time>2024-09-16T16:26:11Z</time>
      </trkpt>
      <trkpt lat="53.403940033167601" lon="13.751160996034741">
        <ele>60.700000000000003</ele>
        <time>2024-09-16T16:26:19Z</time>
      </trkpt>
      <trkpt lat="53.403940033167601" lon="13.751160996034741">
        <ele>60.700000000000003</ele>
        <time>2024-09-16T16:26:32Z</time>
      </trkpt>
      <trkpt lat="53.403953025117517" lon="13.751145992428064">
        <ele>60.219999999999999</ele>
        <time>2024-09-16T16:26:34Z</time>
      </trkpt>
      <trkpt lat="53.404040029272437" lon="13.751150015741587">
        <ele>60.219999999999999</ele>
        <time>2024-09-16T16:26:38Z</time>
      </trkpt>
      <trkpt lat="53.404286038130522" lon="13.751474982127547">
        <ele>59.259999999999998</ele>
        <time>2024-09-16T16:26:44Z</time>
      </trkpt>
      <trkpt lat="53.404542021453381" lon="13.752047969028354">
        <ele>58.780000000000001</ele>
        <time>2024-09-16T16:26:50Z</time>
      </trkpt>
      <trkpt lat="53.404740002006292" lon="13.75233999453485">
        <ele>58.299999999999997</ele>
        <time>2024-09-16T16:26:54Z</time>
      </trkpt>
      <trkpt lat="53.404856007546186" lon="13.753194026648998">
        <ele>58.780000000000001</ele>
        <time>2024-09-16T16:27:03Z</time>
      </trkpt>
      <trkpt lat="53.404818037524819" lon="13.753284970298409">
        <ele>58.780000000000001</ele>
        <time>2024-09-16T16:27:04Z</time>
      </trkpt>
      <trkpt lat="53.404220994561911" lon="13.754556002095342">
        <ele>62.619999999999997</ele>
        <time>2024-09-16T16:27:17Z</time>
      </trkpt>
      <trkpt lat="53.4035739954561" lon="13.755998024716973">
        <ele>62.140000000000001</ele>
        <time>2024-09-16T16:27:30Z</time>
      </trkpt>
      <trkpt lat="53.402873016893864" lon="13.757616989314556">
        <ele>58.780000000000001</ele>
        <time>2024-09-16T16:27:44Z</time>
      </trkpt>
      <trkpt lat="53.402807973325253" lon="13.757770964875817">
        <ele>58.780000000000001</ele>
        <time>2024-09-16T16:27:46Z</time>
      </trkpt>
      <trkpt lat="53.40290998108685" lon="13.758230041712523">
        <ele>59.259999999999998</ele>
        <time>2024-09-16T16:27:52Z</time>
      </trkpt>
      <trkpt lat="53.403307031840086" lon="13.758676964789629">
        <ele>57.82</ele>
        <time>2024-09-16T16:27:59Z</time>
      </trkpt>
      <trkpt lat="53.403834002092481" lon="13.759260009974241">
        <ele>56.859999999999999</ele>
        <time>2024-09-16T16:28:08Z</time>
      </trkpt>
      <trkpt lat="53.403834002092481" lon="13.759260009974241">
        <ele>56.859999999999999</ele>
        <time>2024-09-16T16:28:09Z</time>
      </trkpt>
      <trkpt lat="53.403871972113848" lon="13.759178034961224">
        <ele>56.369999999999997</ele>
        <time>2024-09-16T16:28:10Z</time>
      </trkpt>
      <trkpt lat="53.403897034004331" lon="13.759122965857387">
        <ele>56.369999999999997</ele>
        <time>2024-09-16T16:28:11Z</time>
      </trkpt>
      <trkpt lat="53.403931986540556" lon="13.759049037471414">
        <ele>56.369999999999997</ele>
        <time>2024-09-16T16:28:12Z</time>
      </trkpt>
      <trkpt lat="53.403962999582291" lon="13.758980976417661">
        <ele>55.890000000000001</ele>
        <time>2024-09-16T16:28:13Z</time>
      </trkpt>
      <trkpt lat="53.404032988473773" lon="13.758830018341541">
        <ele>55.409999999999997</ele>
        <time>2024-09-16T16:28:15Z</time>
      </trkpt>
      <trkpt lat="53.404071964323521" lon="13.758746031671762">
        <ele>54.93</ele>
        <time>2024-09-16T16:28:16Z</time>
      </trkpt>
      <trkpt lat="53.404409000650048" lon="13.75770902261138">
        <ele>55.409999999999997</ele>
        <time>2024-09-16T16:28:26Z</time>
      </trkpt>
      <trkpt lat="53.405011994764209" lon="13.756229029968381">
        <ele>57.82</ele>
        <time>2024-09-16T16:28:38Z</time>
      </trkpt>
      <trkpt lat="53.405815986916423" lon="13.754398003220558">
        <ele>57.340000000000003</ele>
        <time>2024-09-16T16:28:50Z</time>
      </trkpt>
      <trkpt lat="53.406813014298677" lon="13.752128016203642">
        <ele>58.780000000000001</ele>
        <time>2024-09-16T16:29:04Z</time>
      </trkpt>
      <trkpt lat="53.407114008441567" lon="13.751442041248083">
        <ele>61.659999999999997</ele>
        <time>2024-09-16T16:29:11Z</time>
      </trkpt>
      <trkpt lat="53.407223979011178" lon="13.751192009076476">
        <ele>63.100000000000001</ele>
        <time>2024-09-16T16:29:16Z</time>
      </trkpt>
      <trkpt lat="53.407201012596488" lon="13.751140963286161">
        <ele>63.100000000000001</ele>
        <time>2024-09-16T16:29:17Z</time>
      </trkpt>
      <trkpt lat="53.407154995948076" lon="13.751039039343596">
        <ele>63.100000000000001</ele>
        <time>2024-09-16T16:29:18Z</time>
      </trkpt>
      <trkpt lat="53.406608998775482" lon="13.749816035851836">
        <ele>63.579999999999998</ele>
        <time>2024-09-16T16:29:26Z</time>
      </trkpt>
      <trkpt lat="53.405718002468348" lon="13.747717039659619">
        <ele>64.069999999999993</ele>
        <time>2024-09-16T16:29:36Z</time>
      </trkpt>
      <trkpt lat="53.405235959216952" lon="13.745651990175247">
        <ele>65.510000000000005</ele>
        <time>2024-09-16T16:29:44Z</time>
      </trkpt>
      <trkpt lat="53.404951980337501" lon="13.743847031146288">
        <ele>68.390000000000001</ele>
        <time>2024-09-16T16:29:52Z</time>
      </trkpt>
      <trkpt lat="53.404873022809625" lon="13.743524998426437">
        <ele>69.349999999999994</ele>
        <time>2024-09-16T16:29:57Z</time>
      </trkpt>
      <trkpt lat="53.404798004776239" lon="13.743505971506238">
        <ele>69.349999999999994</ele>
        <time>2024-09-16T16:29:58Z</time>
      </trkpt>
      <trkpt lat="53.404769003391266" lon="13.743574032559991">
        <ele>69.829999999999998</ele>
        <time>2024-09-16T16:29:59Z</time>
      </trkpt>
      <trkpt lat="53.404727010056376" lon="13.743672017008066">
        <ele>70.310000000000002</ele>
        <time>2024-09-16T16:30:00Z</time>
      </trkpt>
      <trkpt lat="53.404677975922823" lon="13.74378802254796">
        <ele>70.790000000000006</ele>
        <time>2024-09-16T16:30:01Z</time>
      </trkpt>
      <trkpt lat="53.404618967324495" lon="13.743925988674164">
        <ele>71.269999999999996</ele>
        <time>2024-09-16T16:30:02Z</time>
      </trkpt>
      <trkpt lat="53.404018990695477" lon="13.7453349865973">
        <ele>71.269999999999996</ele>
        <time>2024-09-16T16:30:09Z</time>
      </trkpt>
      <trkpt lat="53.402857007458806" lon="13.748031025752425">
        <ele>67.909999999999997</ele>
        <time>2024-09-16T16:30:19Z</time>
      </trkpt>
      <trkpt lat="53.401041990146041" lon="13.752226000651717">
        <ele>61.659999999999997</ele>
        <time>2024-09-16T16:30:32Z</time>
      </trkpt>
      <trkpt lat="53.399384971708059" lon="13.75605602748692">
        <ele>56.859999999999999</ele>
        <time>2024-09-16T16:30:43Z</time>
      </trkpt>
      <trkpt lat="53.397428970783949" lon="13.760594995692372">
        <ele>56.859999999999999</ele>
        <time>2024-09-16T16:30:56Z</time>
      </trkpt>
      <trkpt lat="53.395786033943295" lon="13.764400966465473">
        <ele>56.369999999999997</ele>
        <time>2024-09-16T16:31:07Z</time>
      </trkpt>
      <trkpt lat="53.394403019919991" lon="13.767554992809892">
        <ele>57.340000000000003</ele>
        <time>2024-09-16T16:31:17Z</time>
      </trkpt>
      <trkpt lat="53.393500037491322" lon="13.769403034821153">
        <ele>58.299999999999997</ele>
        <time>2024-09-16T16:31:23Z</time>
      </trkpt>
      <trkpt lat="53.393313959240913" lon="13.769648037850857">
        <ele>58.299999999999997</ele>
        <time>2024-09-16T16:31:24Z</time>
      </trkpt>
      <trkpt lat="53.39311103336513" lon="13.769855992868543">
        <ele>58.299999999999997</ele>
        <time>2024-09-16T16:31:25Z</time>
      </trkpt>
      <trkpt lat="53.390940958634019" lon="13.771692970767617">
        <ele>60.219999999999999</ele>
        <time>2024-09-16T16:31:35Z</time>
      </trkpt>
      <trkpt lat="53.388864006847143" lon="13.773440010845661">
        <ele>59.740000000000002</ele>
        <time>2024-09-16T16:31:46Z</time>
      </trkpt>
      <trkpt lat="53.387003978714347" lon="13.774999966844916">
        <ele>58.780000000000001</ele>
        <time>2024-09-16T16:31:57Z</time>
      </trkpt>
      <trkpt lat="53.385422984138131" lon="13.776319026947021">
        <ele>55.890000000000001</ele>
        <time>2024-09-16T16:32:07Z</time>
      </trkpt>
      <trkpt lat="53.383626993745565" lon="13.777819974347949">
        <ele>53.969999999999999</ele>
        <time>2024-09-16T16:32:16Z</time>
      </trkpt>
      <trkpt lat="53.380991974845529" lon="13.780026007443666">
        <ele>51.090000000000003</ele>
        <time>2024-09-16T16:32:28Z</time>
      </trkpt>
      <trkpt lat="53.378460975363851" lon="13.782143024727702">
        <ele>52.530000000000001</ele>
        <time>2024-09-16T16:32:39Z</time>
      </trkpt>
      <trkpt lat="53.375091031193733" lon="13.784906035289168">
        <ele>55.409999999999997</ele>
        <time>2024-09-16T16:32:53Z</time>
      </trkpt>
      <trkpt lat="53.37184002622962" lon="13.787635015323758">
        <ele>56.369999999999997</ele>
        <time>2024-09-16T16:33:06Z</time>
      </trkpt>
      <trkpt lat="53.368966039270163" lon="13.7900660187006">
        <ele>57.82</ele>
        <time>2024-09-16T16:33:18Z</time>
      </trkpt>
      <trkpt lat="53.366305036470294" lon="13.792290994897485">
        <ele>53.009999999999998</ele>
        <time>2024-09-16T16:33:30Z</time>
      </trkpt>
      <trkpt lat="53.364953035488725" lon="13.793605025857687">
        <ele>47.240000000000002</ele>
        <time>2024-09-16T16:33:38Z</time>
      </trkpt>
      <trkpt lat="53.364000013098121" lon="13.795214015990496">
        <ele>39.549999999999997</ele>
        <time>2024-09-16T16:33:47Z</time>
      </trkpt>
      <trkpt lat="53.363324012607336" lon="13.79627600312233">
        <ele>35.710000000000001</ele>
        <time>2024-09-16T16:33:55Z</time>
      </trkpt>
      <trkpt lat="53.363239020109177" lon="13.796411035582423">
        <ele>35.229999999999997</ele>
        <time>2024-09-16T16:33:56Z</time>
      </trkpt>
      <trkpt lat="53.363150004297495" lon="13.796550007537007">
        <ele>35.229999999999997</ele>
        <time>2024-09-16T16:33:57Z</time>
      </trkpt>
      <trkpt lat="53.362261019647121" lon="13.797527002170682">
        <ele>33.780000000000001</ele>
        <time>2024-09-16T16:34:06Z</time>
      </trkpt>
      <trkpt lat="53.361582001671195" lon="13.798293024301529">
        <ele>33.780000000000001</ele>
        <time>2024-09-16T16:34:13Z</time>
      </trkpt>
      <trkpt lat="53.361498015001416" lon="13.798421015962958">
        <ele>33.780000000000001</ele>
        <time>2024-09-16T16:34:14Z</time>
      </trkpt>
      <trkpt lat="53.361447975039482" lon="13.798563005402684">
        <ele>33.299999999999997</ele>
        <time>2024-09-16T16:34:15Z</time>
      </trkpt>
      <trkpt lat="53.361403970047832" lon="13.798688985407352">
        <ele>33.299999999999997</ele>
        <time>2024-09-16T16:34:16Z</time>
      </trkpt>
      <trkpt lat="53.361368011683226" lon="13.79879099316895">
        <ele>33.299999999999997</ele>
        <time>2024-09-16T16:34:17Z</time>
      </trkpt>
      <trkpt lat="53.361260974779725" lon="13.798802979290485">
        <ele>33.299999999999997</ele>
        <time>2024-09-16T16:34:18Z</time>
      </trkpt>
      <trkpt lat="53.361200960353017" lon="13.798771966248751">
        <ele>33.299999999999997</ele>
        <time>2024-09-16T16:34:19Z</time>
      </trkpt>
      <trkpt lat="53.361127031967044" lon="13.798731984570622">
        <ele>32.82</ele>
        <time>2024-09-16T16:34:20Z</time>
      </trkpt>
      <trkpt lat="53.36103399284184" lon="13.798683034256101">
        <ele>32.340000000000003</ele>
        <time>2024-09-16T16:34:21Z</time>
      </trkpt>
      <trkpt lat="53.360951012000442" lon="13.798581026494503">
        <ele>32.340000000000003</ele>
        <time>2024-09-16T16:34:22Z</time>
      </trkpt>
      <trkpt lat="53.36086300201714" lon="13.79846703261137">
        <ele>31.859999999999999</ele>
        <time>2024-09-16T16:34:23Z</time>
      </trkpt>
      <trkpt lat="53.360783960670233" lon="13.798352032899857">
        <ele>31.859999999999999</ele>
        <time>2024-09-16T16:34:24Z</time>
      </trkpt>
      <trkpt lat="53.359931018203497" lon="13.796946974471211">
        <ele>33.780000000000001</ele>
        <time>2024-09-16T16:34:35Z</time>
      </trkpt>
      <trkpt lat="53.359017977491021" lon="13.795630009844899">
        <ele>39.07</ele>
        <time>2024-09-16T16:34:46Z</time>
      </trkpt>
      <trkpt lat="53.35828498005867" lon="13.794717974960804">
        <ele>43.880000000000003</ele>
        <time>2024-09-16T16:34:54Z</time>
      </trkpt>
      <trkpt lat="53.357217041775584" lon="13.793967040255666">
        <ele>47.240000000000002</ele>
        <time>2024-09-16T16:35:04Z</time>
      </trkpt>
      <trkpt lat="53.356132004410028" lon="13.793722037225962">
        <ele>46.280000000000001</ele>
        <time>2024-09-16T16:35:13Z</time>
      </trkpt>
      <trkpt lat="53.354858960956335" lon="13.793570995330811">
        <ele>44.840000000000003</ele>
        <time>2024-09-16T16:35:20Z</time>
      </trkpt>
      <trkpt lat="53.353316020220518" lon="13.793716002255678">
        <ele>43.880000000000003</ele>
        <time>2024-09-16T16:35:27Z</time>
      </trkpt>
      <trkpt lat="53.353098006919026" lon="13.793651964515448">
        <ele>44.359999999999999</ele>
        <time>2024-09-16T16:35:28Z</time>
      </trkpt>
      <trkpt lat="53.350688964128494" lon="13.792889965698123">
        <ele>44.359999999999999</ele>
        <time>2024-09-16T16:35:38Z</time>
      </trkpt>
      <trkpt lat="53.350111031904817" lon="13.792488975450397">
        <ele>43.880000000000003</ele>
        <time>2024-09-16T16:35:41Z</time>
      </trkpt>
      <trkpt lat="53.349440982565284" lon="13.791884975507855">
        <ele>43.399999999999999</ele>
        <time>2024-09-16T16:35:45Z</time>
      </trkpt>
      <trkpt lat="53.349309973418713" lon="13.791811969131231">
        <ele>42.920000000000002</ele>
        <time>2024-09-16T16:35:46Z</time>
      </trkpt>
      <trkpt lat="53.349106963723898" lon="13.791825966909528">
        <ele>42.920000000000002</ele>
        <time>2024-09-16T16:35:47Z</time>
      </trkpt>
      <trkpt lat="53.348927004262805" lon="13.791862009093165">
        <ele>42.920000000000002</ele>
        <time>2024-09-16T16:35:48Z</time>
      </trkpt>
      <trkpt lat="53.348728017881513" lon="13.791931997984648">
        <ele>42.920000000000002</ele>
        <time>2024-09-16T16:35:49Z</time>
      </trkpt>
      <trkpt lat="53.347054990008473" lon="13.792514959350228">
        <ele>43.399999999999999</ele>
        <time>2024-09-16T16:35:56Z</time>
      </trkpt>
      <trkpt lat="53.344738986343145" lon="13.793027009814978">
        <ele>45.799999999999997</ele>
        <time>2024-09-16T16:36:05Z</time>
      </trkpt>
      <trkpt lat="53.342840988188982" lon="13.793045030906796">
        <ele>49.159999999999997</ele>
        <time>2024-09-16T16:36:13Z</time>
      </trkpt>
      <trkpt lat="53.341854019090533" lon="13.792864987626672">
        <ele>48.200000000000003</ele>
        <time>2024-09-16T16:36:17Z</time>
      </trkpt>
      <trkpt lat="53.33991402760148" lon="13.79298803396523">
        <ele>47.240000000000002</ele>
        <time>2024-09-16T16:36:25Z</time>
      </trkpt>
      <trkpt lat="53.338450966402888" lon="13.7930310331285">
        <ele>45.799999999999997</ele>
        <time>2024-09-16T16:36:33Z</time>
      </trkpt>
      <trkpt lat="53.337453017011285" lon="13.79286197014153">
        <ele>44.359999999999999</ele>
        <time>2024-09-16T16:36:41Z</time>
      </trkpt>
      <trkpt lat="53.336631003767252" lon="13.792702965438366">
        <ele>42.439999999999998</ele>
        <time>2024-09-16T16:36:48Z</time>
      </trkpt>
      <trkpt lat="53.336521033197641" lon="13.792647980153561">
        <ele>42.439999999999998</ele>
        <time>2024-09-16T16:36:49Z</time>
      </trkpt>
      <trkpt lat="53.336416007950902" lon="13.792559970170259">
        <ele>42.439999999999998</ele>
        <time>2024-09-16T16:36:50Z</time>
      </trkpt>
      <trkpt lat="53.335071969777346" lon="13.791638966649771">
        <ele>41.950000000000003</ele>
        <time>2024-09-16T16:37:01Z</time>
      </trkpt>
      <trkpt lat="53.334748009219766" lon="13.791456995531917">
        <ele>41.469999999999999</ele>
        <time>2024-09-16T16:37:03Z</time>
      </trkpt>
      <trkpt lat="53.334575006738305" lon="13.791397986933589">
        <ele>40.990000000000002</ele>
        <time>2024-09-16T16:37:04Z</time>
      </trkpt>
      <trkpt lat="53.33439496345818" lon="13.791384994983673">
        <ele>40.990000000000002</ele>
        <time>2024-09-16T16:37:05Z</time>
      </trkpt>
      <trkpt lat="53.333628019317985" lon="13.791383989155293">
        <ele>40.509999999999998</ele>
        <time>2024-09-16T16:37:09Z</time>
      </trkpt>
      <trkpt lat="53.331721974536777" lon="13.791094981133938">
        <ele>36.670000000000002</ele>
        <time>2024-09-16T16:37:18Z</time>
      </trkpt>
      <trkpt lat="53.331512007862329" lon="13.791157007217407">
        <ele>35.710000000000001</ele>
        <time>2024-09-16T16:37:19Z</time>
      </trkpt>
      <trkpt lat="53.330683037638664" lon="13.791606025770307">
        <ele>33.299999999999997</ele>
        <time>2024-09-16T16:37:23Z</time>
      </trkpt>
      <trkpt lat="53.330488996580243" lon="13.791781961917877">
        <ele>32.82</ele>
        <time>2024-09-16T16:37:24Z</time>
      </trkpt>
      <trkpt lat="53.329743007197976" lon="13.792348997667432">
        <ele>30.420000000000002</ele>
        <time>2024-09-16T16:37:28Z</time>
      </trkpt>
      <trkpt lat="53.329543014988303" lon="13.792400965467095">
        <ele>29.940000000000001</ele>
        <time>2024-09-16T16:37:29Z</time>
      </trkpt>
      <trkpt lat="53.329347968101501" lon="13.792428039014339">
        <ele>29.460000000000001</ele>
        <time>2024-09-16T16:37:30Z</time>
      </trkpt>
      <trkpt lat="53.329142024740577" lon="13.79240901209414">
        <ele>28.98</ele>
        <time>2024-09-16T16:37:31Z</time>
      </trkpt>
      <trkpt lat="53.328945972025394" lon="13.792390991002321">
        <ele>28.02</ele>
        <time>2024-09-16T16:37:32Z</time>
      </trkpt>
      <trkpt lat="53.328758971765637" lon="13.792274985462427">
        <ele>27.530000000000001</ele>
        <time>2024-09-16T16:37:33Z</time>
      </trkpt>
      <trkpt lat="53.32854799926281" lon="13.792143976315856">
        <ele>27.050000000000001</ele>
        <time>2024-09-16T16:37:34Z</time>
      </trkpt>
      <trkpt lat="53.326542964205146" lon="13.790918039157987">
        <ele>27.050000000000001</ele>
        <time>2024-09-16T16:37:43Z</time>
      </trkpt>
      <trkpt lat="53.325613997876644" lon="13.790343962609768">
        <ele>27.530000000000001</ele>
        <time>2024-09-16T16:37:49Z</time>
      </trkpt>
      <trkpt lat="53.325401013717055" lon="13.790187975391746">
        <ele>27.530000000000001</ele>
        <time>2024-09-16T16:37:51Z</time>
      </trkpt>
      <trkpt lat="53.325295988470316" lon="13.790096025913954">
        <ele>27.530000000000001</ele>
        <time>2024-09-16T16:37:52Z</time>
      </trkpt>
      <trkpt lat="53.325189035385847" lon="13.790001980960369">
        <ele>28.02</ele>
        <time>2024-09-16T16:37:53Z</time>
      </trkpt>
      <trkpt lat="53.32390702329576" lon="13.788881991058588">
        <ele>31.379999999999999</ele>
        <time>2024-09-16T16:38:05Z</time>
      </trkpt>
      <trkpt lat="53.322950983420014" lon="13.78826298750937">
        <ele>30.899999999999999</ele>
        <time>2024-09-16T16:38:14Z</time>
      </trkpt>
      <trkpt lat="53.322772029787302" lon="13.788062995299697">
        <ele>30.899999999999999</ele>
        <time>2024-09-16T16:38:16Z</time>
      </trkpt>
      <trkpt lat="53.322700029239058" lon="13.787968028336763">
        <ele>30.899999999999999</ele>
        <time>2024-09-16T16:38:17Z</time>
      </trkpt>
      <trkpt lat="53.322628028690815" lon="13.787859985604882">
        <ele>30.899999999999999</ele>
        <time>2024-09-16T16:38:18Z</time>
      </trkpt>
      <trkpt lat="53.322583017870784" lon="13.787738028913736">
        <ele>31.379999999999999</ele>
        <time>2024-09-16T16:38:19Z</time>
      </trkpt>
      <trkpt lat="53.322543036192656" lon="13.787631997838616">
        <ele>31.379999999999999</ele>
        <time>2024-09-16T16:38:20Z</time>
      </trkpt>
      <trkpt lat="53.32251001149416" lon="13.787543987855315">
        <ele>31.379999999999999</ele>
        <time>2024-09-16T16:38:21Z</time>
      </trkpt>
      <trkpt lat="53.322454020380974" lon="13.787394035607576">
        <ele>31.379999999999999</ele>
        <time>2024-09-16T16:38:24Z</time>
      </trkpt>
      <trkpt lat="53.322442034259439" lon="13.787363022565842">
        <ele>31.859999999999999</ele>
        <time>2024-09-16T16:38:25Z</time>
      </trkpt>
      <trkpt lat="53.322432981804013" lon="13.787338966503739">
        <ele>32.340000000000003</ele>
        <time>2024-09-16T16:38:26Z</time>
      </trkpt>
      <trkpt lat="53.32233902066946" lon="13.787332009524107">
        <ele>32.340000000000003</ele>
        <time>2024-09-16T16:38:30Z</time>
      </trkpt>
      <trkpt lat="53.322315970435739" lon="13.787406021729112">
        <ele>32.82</ele>
        <time>2024-09-16T16:38:31Z</time>
      </trkpt>
      <trkpt lat="53.322284035384655" lon="13.787519009783864">
        <ele>32.82</ele>
        <time>2024-09-16T16:38:32Z</time>
      </trkpt>
      <trkpt lat="53.322245981544256" lon="13.787670973688364">
        <ele>32.82</ele>
        <time>2024-09-16T16:38:33Z</time>
      </trkpt>
      <trkpt lat="53.322199964895844" lon="13.787855040282011">
        <ele>32.340000000000003</ele>
        <time>2024-09-16T16:38:34Z</time>
      </trkpt>
      <trkpt lat="53.321853037923574" lon="13.78946796990931">
        <ele>29.460000000000001</ele>
        <time>2024-09-16T16:38:40Z</time>
      </trkpt>
      <trkpt lat="53.321284996345639" lon="13.79240901209414">
        <ele>26.57</ele>
        <time>2024-09-16T16:38:48Z</time>
      </trkpt>
      <trkpt lat="53.320430964231491" lon="13.795100022107363">
        <ele>29.940000000000001</ele>
        <time>2024-09-16T16:38:55Z</time>
      </trkpt>
      <trkpt lat="53.318720972165465" lon="13.799489960074425">
        <ele>25.609999999999999</ele>
        <time>2024-09-16T16:39:07Z</time>
      </trkpt>
      <trkpt lat="53.31761003471911" lon="13.802328994497657">
        <ele>24.170000000000002</ele>
        <time>2024-09-16T16:39:16Z</time>
      </trkpt>
      <trkpt lat="53.315957961603999" lon="13.806552970781922">
        <ele>26.57</ele>
        <time>2024-09-16T16:39:29Z</time>
      </trkpt>
      <trkpt lat="53.315135026350617" lon="13.808639980852604">
        <ele>26.57</ele>
        <time>2024-09-16T16:39:36Z</time>
      </trkpt>
      <trkpt lat="53.314678966999054" lon="13.810640992596745">
        <ele>27.050000000000001</ele>
        <time>2024-09-16T16:39:43Z</time>
      </trkpt>
      <trkpt lat="53.314316030591726" lon="13.814084026962519">
        <ele>26.09</ele>
        <time>2024-09-16T16:39:53Z</time>
      </trkpt>
      <trkpt lat="53.314055018126965" lon="13.815972972661257">
        <ele>22.25</ele>
        <time>2024-09-16T16:39:59Z</time>
      </trkpt>
      <trkpt lat="53.313909005373716" lon="13.816273966804147">
        <ele>21.289999999999999</ele>
        <time>2024-09-16T16:40:00Z</time>
      </trkpt>
      <trkpt lat="53.313775984570384" lon="13.816546965390444">
        <ele>20.32</ele>
        <time>2024-09-16T16:40:01Z</time>
      </trkpt>
      <trkpt lat="53.3136370126158" lon="13.816785011440516">
        <ele>19.84</ele>
        <time>2024-09-16T16:40:02Z</time>
      </trkpt>
      <trkpt lat="53.313472978770733" lon="13.817035965621471">
        <ele>19.359999999999999</ele>
        <time>2024-09-16T16:40:03Z</time>
      </trkpt>
      <trkpt lat="53.311700038611889" lon="13.819951023906469">
        <ele>19.359999999999999</ele>
        <time>2024-09-16T16:40:14Z</time>
      </trkpt>
      <trkpt lat="53.31041500903666" lon="13.822585958987474">
        <ele>21.289999999999999</ele>
        <time>2024-09-16T16:40:24Z</time>
      </trkpt>
      <trkpt lat="53.309739008545876" lon="13.824858963489532">
        <ele>21.289999999999999</ele>
        <time>2024-09-16T16:40:34Z</time>
      </trkpt>
      <trkpt lat="53.309011962264776" lon="13.826599968597293">
        <ele>22.73</ele>
        <time>2024-09-16T16:40:43Z</time>
      </trkpt>
      <trkpt lat="53.308600997552276" lon="13.82751502096653">
        <ele>25.129999999999999</ele>
        <time>2024-09-16T16:40:50Z</time>
      </trkpt>
      <trkpt lat="53.30848197452724" lon="13.827767986804247">
        <ele>26.09</ele>
        <time>2024-09-16T16:40:53Z</time>
      </trkpt>
      <trkpt lat="53.30790102481842" lon="13.829097021371126">
        <ele>26.57</ele>
        <time>2024-09-16T16:41:04Z</time>
      </trkpt>
      <trkpt lat="53.307840004563332" lon="13.829245967790484">
        <ele>26.57</ele>
        <time>2024-09-16T16:41:05Z</time>
      </trkpt>
      <trkpt lat="53.307486036792397" lon="13.830010984092951">
        <ele>25.129999999999999</ele>
        <time>2024-09-16T16:41:13Z</time>
      </trkpt>
      <trkpt lat="53.307418981567025" lon="13.830146016553044">
        <ele>24.170000000000002</ele>
        <time>2024-09-16T16:41:23Z</time>
      </trkpt>
      <trkpt lat="53.307413030415773" lon="13.830155991017818">
        <ele>24.170000000000002</ele>
        <time>2024-09-16T16:41:49Z</time>
      </trkpt>
      <trkpt lat="53.307392997667193" lon="13.830197984352708">
        <ele>23.690000000000001</ele>
        <time>2024-09-16T16:41:50Z</time>
      </trkpt>
      <trkpt lat="53.307362990453839" lon="13.830257998779416">
        <ele>23.210000000000001</ele>
        <time>2024-09-16T16:41:51Z</time>
      </trkpt>
      <trkpt lat="53.30716903321445" lon="13.830513982102275">
        <ele>21.77</ele>
        <time>2024-09-16T16:41:56Z</time>
      </trkpt>
      <trkpt lat="53.307138020172715" lon="13.830477017909288">
        <ele>21.289999999999999</ele>
        <time>2024-09-16T16:41:57Z</time>
      </trkpt>
      <trkpt lat="53.307098038494587" lon="13.830426977947354">
        <ele>20.809999999999999</ele>
        <time>2024-09-16T16:41:58Z</time>
      </trkpt>
      <trkpt lat="53.306580958887935" lon="13.829799005761743">
        <ele>19.84</ele>
        <time>2024-09-16T16:42:07Z</time>
      </trkpt>
      <trkpt lat="53.306525973603129" lon="13.829673025757074">
        <ele>19.84</ele>
        <time>2024-09-16T16:42:08Z</time>
      </trkpt>
      <trkpt lat="53.306465037167072" lon="13.829534975811839">
        <ele>20.32</ele>
        <time>2024-09-16T16:42:09Z</time>
      </trkpt>
      <trkpt lat="53.306402005255222" lon="13.829391980543733">
        <ele>20.809999999999999</ele>
        <time>2024-09-16T16:42:10Z</time>
      </trkpt>
      <trkpt lat="53.306342996656895" lon="13.82923498749733">
        <ele>20.809999999999999</ele>
        <time>2024-09-16T16:42:11Z</time>
      </trkpt>
      <trkpt lat="53.306309971958399" lon="13.82906299084425">
        <ele>21.289999999999999</ele>
        <time>2024-09-16T16:42:12Z</time>
      </trkpt>
      <trkpt lat="53.305990034714341" lon="13.827421981841326">
        <ele>22.73</ele>
        <time>2024-09-16T16:42:21Z</time>
      </trkpt>
      <trkpt lat="53.30564696341753" lon="13.825719030573964">
        <ele>22.73</ele>
        <time>2024-09-16T16:42:30Z</time>
      </trkpt>
      <trkpt lat="53.30560396425426" lon="13.825532030314207">
        <ele>23.210000000000001</ele>
        <time>2024-09-16T16:42:31Z</time>
      </trkpt>
      <trkpt lat="53.305557025596499" lon="13.825329020619392">
        <ele>23.210000000000001</ele>
        <time>2024-09-16T16:42:32Z</time>
      </trkpt>
      <trkpt lat="53.305484019219875" lon="13.825202034786344">
        <ele>23.210000000000001</ele>
        <time>2024-09-16T16:42:33Z</time>
      </trkpt>
      <trkpt lat="53.305404977872968" lon="13.825063984841108">
        <ele>23.210000000000001</ele>
        <time>2024-09-16T16:42:34Z</time>
      </trkpt>
      <trkpt lat="53.305320991203189" lon="13.824920989573002">
        <ele>23.210000000000001</ele>
        <time>2024-09-16T16:42:35Z</time>
      </trkpt>
      <trkpt lat="53.305246978998184" lon="13.824860975146294">
        <ele>23.690000000000001</ele>
        <time>2024-09-16T16:42:36Z</time>
      </trkpt>
      <trkpt lat="53.305161986500025" lon="13.824792997911572">
        <ele>23.690000000000001</ele>
        <time>2024-09-16T16:42:37Z</time>
      </trkpt>
      <trkpt lat="53.305074982345104" lon="13.824724014848471">
        <ele>24.170000000000002</ele>
        <time>2024-09-16T16:42:38Z</time>
      </trkpt>
      <trkpt lat="53.304982027038932" lon="13.824650002643466">
        <ele>23.690000000000001</ele>
        <time>2024-09-16T16:42:39Z</time>
      </trkpt>
      <trkpt lat="53.303827000781894" lon="13.823705026879907">
        <ele>23.690000000000001</ele>
        <time>2024-09-16T16:42:50Z</time>
      </trkpt>
      <trkpt lat="53.302807006984949" lon="13.822906985878944">
        <ele>24.170000000000002</ele>
        <time>2024-09-16T16:43:00Z</time>
      </trkpt>
      <trkpt lat="53.302559992298484" lon="13.822691990062594">
        <ele>25.129999999999999</ele>
        <time>2024-09-16T16:43:04Z</time>
      </trkpt>
      <trkpt lat="53.302473993971944" lon="13.82276700809598">
        <ele>25.129999999999999</ele>
        <time>2024-09-16T16:43:05Z</time>
      </trkpt>
      <trkpt lat="53.302427977323532" lon="13.822844959795475">
        <ele>24.649999999999999</ele>
        <time>2024-09-16T16:43:06Z</time>
      </trkpt>
      <trkpt lat="53.30181903205812" lon="13.823791025206447">
        <ele>26.09</ele>
        <time>2024-09-16T16:43:14Z</time>
      </trkpt>
      <trkpt lat="53.300880007445812" lon="13.824952002614737">
        <ele>28.5</ele>
        <time>2024-09-16T16:43:24Z</time>
      </trkpt>
      <trkpt lat="53.299772003665566" lon="13.826127983629704">
        <ele>30.899999999999999</ele>
        <time>2024-09-16T16:43:35Z</time>
      </trkpt>
      <trkpt lat="53.298837002366781" lon="13.827052004635334">
        <ele>30.899999999999999</ele>
        <time>2024-09-16T16:43:41Z</time>
      </trkpt>
      <trkpt lat="53.297290038317442" lon="13.828394031152129">
        <ele>30.420000000000002</ele>
        <time>2024-09-16T16:43:48Z</time>
      </trkpt>
      <trkpt lat="53.294482016935945" lon="13.830794021487236">
        <ele>30.420000000000002</ele>
        <time>2024-09-16T16:43:59Z</time>
      </trkpt>
      <trkpt lat="53.292799014598131" lon="13.832312989979982">
        <ele>30.899999999999999</ele>
        <time>2024-09-16T16:44:06Z</time>
      </trkpt>
      <trkpt lat="53.292607991024852" lon="13.832548018544912">
        <ele>30.899999999999999</ele>
        <time>2024-09-16T16:44:07Z</time>
      </trkpt>
      <trkpt lat="53.292439011856914" lon="13.832828979939222">
        <ele>30.899999999999999</ele>
        <time>2024-09-16T16:44:08Z</time>
      </trkpt>
      <trkpt lat="53.292279001325369" lon="13.833135003224015">
        <ele>31.379999999999999</ele>
        <time>2024-09-16T16:44:09Z</time>
      </trkpt>
      <trkpt lat="53.292144974693656" lon="13.833490982651711">
        <ele>31.379999999999999</ele>
        <time>2024-09-16T16:44:10Z</time>
      </trkpt>
      <trkpt lat="53.29155296087265" lon="13.834904003888369">
        <ele>31.379999999999999</ele>
        <time>2024-09-16T16:44:14Z</time>
      </trkpt>
      <trkpt lat="53.291390016674995" lon="13.835212038829923">
        <ele>31.379999999999999</ele>
        <time>2024-09-16T16:44:15Z</time>
      </trkpt>
      <trkpt lat="53.29120603390038" lon="13.835463998839259">
        <ele>30.899999999999999</ele>
        <time>2024-09-16T16:44:16Z</time>
      </trkpt>
      <trkpt lat="53.291017021983862" lon="13.835713025182486">
        <ele>30.420000000000002</ele>
        <time>2024-09-16T16:44:17Z</time>
      </trkpt>
      <trkpt lat="53.290825998410583" lon="13.835965991020203">
        <ele>30.420000000000002</ele>
        <time>2024-09-16T16:44:18Z</time>
      </trkpt>
      <trkpt lat="53.289500987157226" lon="13.837107019498944">
        <ele>28.02</ele>
        <time>2024-09-16T16:44:24Z</time>
      </trkpt>
      <trkpt lat="53.28753400593996" lon="13.838718021288514">
        <ele>28.98</ele>
        <time>2024-09-16T16:44:33Z</time>
      </trkpt>
      <trkpt lat="53.286464978009462" lon="13.840293986722827">
        <ele>29.460000000000001</ele>
        <time>2024-09-16T16:44:39Z</time>
      </trkpt>
      <trkpt lat="53.286331035196781" lon="13.840586012229323">
        <ele>29.460000000000001</ele>
        <time>2024-09-16T16:44:40Z</time>
      </trkpt>
      <trkpt lat="53.286225004121661" lon="13.840905027464032">
        <ele>29.460000000000001</ele>
        <time>2024-09-16T16:44:41Z</time>
      </trkpt>
      <trkpt lat="53.285740027204156" lon="13.842421984300017">
        <ele>28.98</ele>
        <time>2024-09-16T16:44:47Z</time>
      </trkpt>
      <trkpt lat="53.285334007814527" lon="13.843527976423502">
        <ele>28.98</ele>
        <time>2024-09-16T16:44:54Z</time>
      </trkpt>
      <trkpt lat="53.285121023654938" lon="13.84401798248291">
        <ele>28.5</ele>
        <time>2024-09-16T16:44:57Z</time>
      </trkpt>
      <trkpt lat="53.285031002014875" lon="13.844143962487578">
        <ele>28.5</ele>
        <time>2024-09-16T16:44:58Z</time>
      </trkpt>
      <trkpt lat="53.284939974546432" lon="13.844271032139659">
        <ele>28.02</ele>
        <time>2024-09-16T16:44:59Z</time>
      </trkpt>
      <trkpt lat="53.284827992320061" lon="13.844365999102592">
        <ele>27.530000000000001</ele>
        <time>2024-09-16T16:45:00Z</time>
      </trkpt>
      <trkpt lat="53.284721961244941" lon="13.844454009085894">
        <ele>27.050000000000001</ele>
        <time>2024-09-16T16:45:01Z</time>
      </trkpt>
      <trkpt lat="53.284614002332091" lon="13.844522992148995">
        <ele>27.050000000000001</ele>
        <time>2024-09-16T16:45:02Z</time>
      </trkpt>
      <trkpt lat="53.283700961619616" lon="13.844956001266837">
        <ele>22.73</ele>
        <time>2024-09-16T16:45:10Z</time>
      </trkpt>
      <trkpt lat="53.283469034358859" lon="13.845063038170338">
        <ele>21.289999999999999</ele>
        <time>2024-09-16T16:45:12Z</time>
      </trkpt>
      <trkpt lat="53.283349005505443" lon="13.845083992928267">
        <ele>20.809999999999999</ele>
        <time>2024-09-16T16:45:13Z</time>
      </trkpt>
      <trkpt lat="53.283136021345854" lon="13.845111988484859">
        <ele>19.84</ele>
        <time>2024-09-16T16:45:15Z</time>
      </trkpt>
      <trkpt lat="53.283018004149199" lon="13.845076030120254">
        <ele>19.359999999999999</ele>
        <time>2024-09-16T16:45:16Z</time>
      </trkpt>
      <trkpt lat="53.282901998609304" lon="13.845037976279855">
        <ele>19.359999999999999</ele>
        <time>2024-09-16T16:45:17Z</time>
      </trkpt>
      <trkpt lat="53.281509010121226" lon="13.844818035140634">
        <ele>18.399999999999999</ele>
        <time>2024-09-16T16:45:29Z</time>
      </trkpt>
      <trkpt lat="53.279872024431825" lon="13.844555011019111">
        <ele>20.809999999999999</ele>
        <time>2024-09-16T16:45:43Z</time>
      </trkpt>
      <trkpt lat="53.279639007523656" lon="13.844478987157345">
        <ele>20.809999999999999</ele>
        <time>2024-09-16T16:45:45Z</time>
      </trkpt>
      <trkpt lat="53.279533982276917" lon="13.844391983002424">
        <ele>20.809999999999999</ele>
        <time>2024-09-16T16:45:46Z</time>
      </trkpt>
      <trkpt lat="53.279429040849209" lon="13.844300033524632">
        <ele>20.809999999999999</ele>
        <time>2024-09-16T16:45:47Z</time>
      </trkpt>
      <trkpt lat="53.279334995895624" lon="13.844178998842835">
        <ele>20.809999999999999</ele>
        <time>2024-09-16T16:45:48Z</time>
      </trkpt>
      <trkpt lat="53.279257966205478" lon="13.844028040766716">
        <ele>20.809999999999999</ele>
        <time>2024-09-16T16:45:49Z</time>
      </trkpt>
      <trkpt lat="53.279199963435531" lon="13.843867024406791">
        <ele>21.289999999999999</ele>
        <time>2024-09-16T16:45:50Z</time>
      </trkpt>
      <trkpt lat="53.279145983979106" lon="13.843717994168401">
        <ele>21.289999999999999</ele>
        <time>2024-09-16T16:45:51Z</time>
      </trkpt>
      <trkpt lat="53.279098961502314" lon="13.843566030263901">
        <ele>21.289999999999999</ele>
        <time>2024-09-16T16:45:52Z</time>
      </trkpt>
      <trkpt lat="53.279093010351062" lon="13.843397973105311">
        <ele>21.289999999999999</ele>
        <time>2024-09-16T16:45:53Z</time>
      </trkpt>
      <trkpt lat="53.279085969552398" lon="13.843219019472599">
        <ele>21.77</ele>
        <time>2024-09-16T16:45:54Z</time>
      </trkpt>
      <trkpt lat="53.279079012572765" lon="13.843031013384461">
        <ele>21.77</ele>
        <time>2024-09-16T16:45:55Z</time>
      </trkpt>
      <trkpt lat="53.279079012572765" lon="13.842845018953085">
        <ele>22.25</ele>
        <time>2024-09-16T16:45:56Z</time>
      </trkpt>
      <trkpt lat="53.279042970389128" lon="13.84210598655045">
        <ele>23.210000000000001</ele>
        <time>2024-09-16T16:46:00Z</time>
      </trkpt>
      <trkpt lat="53.279006006196141" lon="13.841929966583848">
        <ele>23.210000000000001</ele>
        <time>2024-09-16T16:46:01Z</time>
      </trkpt>
      <trkpt lat="53.278931993991137" lon="13.841802980750799">
        <ele>23.210000000000001</ele>
        <time>2024-09-16T16:46:02Z</time>
      </trkpt>
      <trkpt lat="53.278851024806499" lon="13.841666020452976">
        <ele>23.210000000000001</ele>
        <time>2024-09-16T16:46:03Z</time>
      </trkpt>
      <trkpt lat="53.278729990124702" lon="13.841587984934449">
        <ele>23.690000000000001</ele>
        <time>2024-09-16T16:46:04Z</time>
      </trkpt>
      <trkpt lat="53.27859302982688" lon="13.841548003256321">
        <ele>23.690000000000001</ele>
        <time>2024-09-16T16:46:05Z</time>
      </trkpt>
      <trkpt lat="53.278441987931728" lon="13.84150399826467">
        <ele>24.170000000000002</ele>
        <time>2024-09-16T16:46:06Z</time>
      </trkpt>
      <trkpt lat="53.278278959915042" lon="13.8414609991014">
        <ele>24.649999999999999</ele>
        <time>2024-09-16T16:46:07Z</time>
      </trkpt>
      <trkpt lat="53.276671981438994" lon="13.841172996908426">
        <ele>26.57</ele>
        <time>2024-09-16T16:46:15Z</time>
      </trkpt>
      <trkpt lat="53.27556598931551" lon="13.840459026396275">
        <ele>28.02</ele>
        <time>2024-09-16T16:46:20Z</time>
      </trkpt>
      <trkpt lat="53.273024009540677" lon="13.838033974170685">
        <ele>28.5</ele>
        <time>2024-09-16T16:46:31Z</time>
      </trkpt>
      <trkpt lat="53.270027982071042" lon="13.835196029394865">
        <ele>26.09</ele>
        <time>2024-09-16T16:46:44Z</time>
      </trkpt>
      <trkpt lat="53.268321007490158" lon="13.834424978122115">
        <ele>28.98</ele>
        <time>2024-09-16T16:46:51Z</time>
      </trkpt>
      <trkpt lat="53.266229974105954" lon="13.833746965974569">
        <ele>32.82</ele>
        <time>2024-09-16T16:47:00Z</time>
      </trkpt>
      <trkpt lat="53.266015984117985" lon="13.833753000944853">
        <ele>32.82</ele>
        <time>2024-09-16T16:47:01Z</time>
      </trkpt>
      <trkpt lat="53.265797970816493" lon="13.833825001493096">
        <ele>33.299999999999997</ele>
        <time>2024-09-16T16:47:02Z</time>
      </trkpt>
      <trkpt lat="53.265570988878608" lon="13.833901025354862">
        <ele>33.299999999999997</ele>
        <time>2024-09-16T16:47:03Z</time>
      </trkpt>
      <trkpt lat="53.265341995283961" lon="13.834007978439331">
        <ele>33.780000000000001</ele>
        <time>2024-09-16T16:47:04Z</time>
      </trkpt>
      <trkpt lat="53.262993972748518" lon="13.835413036867976">
        <ele>33.299999999999997</ele>
        <time>2024-09-16T16:47:14Z</time>
      </trkpt>
      <trkpt lat="53.261099997907877" lon="13.836900992318988">
        <ele>33.299999999999997</ele>
        <time>2024-09-16T16:47:23Z</time>
      </trkpt>
      <trkpt lat="53.259146008640528" lon="13.838451979681849">
        <ele>35.710000000000001</ele>
        <time>2024-09-16T16:47:32Z</time>
      </trkpt>
      <trkpt lat="53.256799997761846" lon="13.840298010036349">
        <ele>38.109999999999999</ele>
        <time>2024-09-16T16:47:42Z</time>
      </trkpt>
      <trkpt lat="53.255227971822023" lon="13.840813999995589">
        <ele>38.590000000000003</ele>
        <time>2024-09-16T16:47:48Z</time>
      </trkpt>
      <trkpt lat="53.252207972109318" lon="13.841472985222936">
        <ele>34.740000000000002</ele>
        <time>2024-09-16T16:47:59Z</time>
      </trkpt>
      <trkpt lat="53.248337963595986" lon="13.842317964881659">
        <ele>31.859999999999999</ele>
        <time>2024-09-16T16:48:13Z</time>
      </trkpt>
      <trkpt lat="53.245650976896286" lon="13.842679979279637">
        <ele>28.5</ele>
        <time>2024-09-16T16:48:23Z</time>
      </trkpt>
      <trkpt lat="53.243000032380223" lon="13.842903021723032">
        <ele>23.210000000000001</ele>
        <time>2024-09-16T16:48:33Z</time>
      </trkpt>
      <trkpt lat="53.240346992388368" lon="13.843107959255576">
        <ele>20.32</ele>
        <time>2024-09-16T16:48:43Z</time>
      </trkpt>
      <trkpt lat="53.237738041207194" lon="13.843309041112661">
        <ele>20.32</ele>
        <time>2024-09-16T16:48:53Z</time>
      </trkpt>
      <trkpt lat="53.235054994001985" lon="13.843417000025511">
        <ele>19.84</ele>
        <time>2024-09-16T16:49:03Z</time>
      </trkpt>
      <trkpt lat="53.233600985258818" lon="13.843315998092294">
        <ele>19.84</ele>
        <time>2024-09-16T16:49:09Z</time>
      </trkpt>
      <trkpt lat="53.232833035290241" lon="13.843238968402147">
        <ele>18.879999999999999</ele>
        <time>2024-09-16T16:49:15Z</time>
      </trkpt>
      <trkpt lat="53.231688989326358" lon="13.843148024752736">
        <ele>21.77</ele>
        <time>2024-09-16T16:49:25Z</time>
      </trkpt>
      <trkpt lat="53.230035994201899" lon="13.842974016442895">
        <ele>19.359999999999999</ele>
        <time>2024-09-16T16:49:39Z</time>
      </trkpt>
      <trkpt lat="53.229325041174889" lon="13.842906961217523">
        <ele>18.399999999999999</ele>
        <time>2024-09-16T16:49:45Z</time>
      </trkpt>
      <trkpt lat="53.228617021813989" lon="13.842948032543063">
        <ele>19.84</ele>
        <time>2024-09-16T16:49:51Z</time>
      </trkpt>
      <trkpt lat="53.227436011657119" lon="13.843002011999488">
        <ele>21.77</ele>
        <time>2024-09-16T16:50:01Z</time>
      </trkpt>
      <trkpt lat="53.22604201734066" lon="13.843064038082957">
        <ele>24.170000000000002</ele>
        <time>2024-09-16T16:50:13Z</time>
      </trkpt>
      <trkpt lat="53.224269999191165" lon="13.843146013095975">
        <ele>26.09</ele>
        <time>2024-09-16T16:50:28Z</time>
      </trkpt>
      <trkpt lat="53.222752958536148" lon="13.843198986724019">
        <ele>20.32</ele>
        <time>2024-09-16T16:50:41Z</time>
      </trkpt>
      <trkpt lat="53.221245976164937" lon="13.84309203363955">
        <ele>19.84</ele>
        <time>2024-09-16T16:50:54Z</time>
      </trkpt>
      <trkpt lat="53.221024023368955" lon="13.843002011999488">
        <ele>20.809999999999999</ele>
        <time>2024-09-16T16:50:56Z</time>
      </trkpt>
      <trkpt lat="53.220912041142583" lon="13.842926993966103">
        <ele>20.809999999999999</ele>
        <time>2024-09-16T16:50:57Z</time>
      </trkpt>
      <trkpt lat="53.220801986753941" lon="13.842853987589478">
        <ele>20.809999999999999</ele>
        <time>2024-09-16T16:50:58Z</time>
      </trkpt>
      <trkpt lat="53.220729986205697" lon="13.842718033120036">
        <ele>21.289999999999999</ele>
        <time>2024-09-16T16:50:59Z</time>
      </trkpt>
      <trkpt lat="53.220665026456118" lon="13.842560034245253">
        <ele>21.77</ele>
        <time>2024-09-16T16:51:00Z</time>
      </trkpt>
      <trkpt lat="53.220600988715887" lon="13.842402035370469">
        <ele>21.77</ele>
        <time>2024-09-16T16:51:01Z</time>
      </trkpt>
      <trkpt lat="53.220537034794688" lon="13.842244036495686">
        <ele>22.25</ele>
        <time>2024-09-16T16:51:02Z</time>
      </trkpt>
      <trkpt lat="53.220470985397696" lon="13.842112021520734">
        <ele>22.73</ele>
        <time>2024-09-16T16:51:03Z</time>
      </trkpt>
      <trkpt lat="53.220403008162975" lon="13.842016970738769">
        <ele>23.210000000000001</ele>
        <time>2024-09-16T16:51:04Z</time>
      </trkpt>
      <trkpt lat="53.220328995957971" lon="13.841961985453963">
        <ele>23.210000000000001</ele>
        <time>2024-09-16T16:51:05Z</time>
      </trkpt>
      <trkpt lat="53.220250038430095" lon="13.841913035139441">
        <ele>23.690000000000001</ele>
        <time>2024-09-16T16:51:06Z</time>
      </trkpt>
      <trkpt lat="53.220166973769665" lon="13.841859977692366">
        <ele>23.690000000000001</ele>
        <time>2024-09-16T16:51:07Z</time>
      </trkpt>
      <trkpt lat="53.220076030120254" lon="13.84180398657918">
        <ele>23.690000000000001</ele>
        <time>2024-09-16T16:51:08Z</time>
      </trkpt>
      <trkpt lat="53.219981985166669" lon="13.841744977980852">
        <ele>24.170000000000002</ele>
        <time>2024-09-16T16:51:09Z</time>
      </trkpt>
      <trkpt lat="53.219786016270518" lon="13.841622015461326">
        <ele>24.170000000000002</ele>
        <time>2024-09-16T16:51:11Z</time>
      </trkpt>
      <trkpt lat="53.218584973365068" lon="13.841077024117112">
        <ele>23.690000000000001</ele>
        <time>2024-09-16T16:51:22Z</time>
      </trkpt>
      <trkpt lat="53.21847902610898" lon="13.841035030782223">
        <ele>23.210000000000001</ele>
        <time>2024-09-16T16:51:23Z</time>
      </trkpt>
      <trkpt lat="53.218376012519002" lon="13.840993037447333">
        <ele>22.73</ele>
        <time>2024-09-16T16:51:24Z</time>
      </trkpt>
      <trkpt lat="53.218274004757404" lon="13.840951966121793">
        <ele>22.73</ele>
        <time>2024-09-16T16:51:25Z</time>
      </trkpt>
      <trkpt lat="53.217310002073646" lon="13.840566985309124">
        <ele>21.289999999999999</ele>
        <time>2024-09-16T16:51:35Z</time>
      </trkpt>
      <trkpt lat="53.217121995985508" lon="13.840491967275739">
        <ele>21.289999999999999</ele>
        <time>2024-09-16T16:51:38Z</time>
      </trkpt>
      <trkpt lat="53.217086959630251" lon="13.840477969497442">
        <ele>21.289999999999999</ele>
        <time>2024-09-16T16:51:39Z</time>
      </trkpt>
      <trkpt lat="53.217057958245277" lon="13.840543013066053">
        <ele>21.289999999999999</ele>
        <time>2024-09-16T16:51:40Z</time>
      </trkpt>
      <trkpt lat="53.21701898239553" lon="13.840631023049355">
        <ele>21.289999999999999</ele>
        <time>2024-09-16T16:51:41Z</time>
      </trkpt>
      <trkpt lat="53.216988975182176" lon="13.840747028589249">
        <ele>21.289999999999999</ele>
        <time>2024-09-16T16:51:42Z</time>
      </trkpt>
      <trkpt lat="53.21676098741591" lon="13.842157032340765">
        <ele>21.77</ele>
        <time>2024-09-16T16:51:50Z</time>
      </trkpt>
      <trkpt lat="53.21637399494648" lon="13.844112027436495">
        <ele>21.289999999999999</ele>
        <time>2024-09-16T16:52:00Z</time>
      </trkpt>
      <trkpt lat="53.21577301248908" lon="13.847082993015647">
        <ele>18.879999999999999</ele>
        <time>2024-09-16T16:52:16Z</time>
      </trkpt>
      <trkpt lat="53.215346038341522" lon="13.849056009203196">
        <ele>19.84</ele>
        <time>2024-09-16T16:52:25Z</time>
      </trkpt>
      <trkpt lat="53.21476299315691" lon="13.851770991459489">
        <ele>20.32</ele>
        <time>2024-09-16T16:52:34Z</time>
      </trkpt>
      <trkpt lat="53.214356973767281" lon="13.853458017110825">
        <ele>21.77</ele>
        <time>2024-09-16T16:52:39Z</time>
      </trkpt>
      <trkpt lat="53.214244991540909" lon="13.853774014860392">
        <ele>22.25</ele>
        <time>2024-09-16T16:52:40Z</time>
      </trkpt>
      <trkpt lat="53.214100990444422" lon="13.854057993739843">
        <ele>22.73</ele>
        <time>2024-09-16T16:52:41Z</time>
      </trkpt>
      <trkpt lat="53.212685035541654" lon="13.856487991288304">
        <ele>28.98</ele>
        <time>2024-09-16T16:52:49Z</time>
      </trkpt>
      <trkpt lat="53.21184097789228" lon="13.858703998848796">
        <ele>33.299999999999997</ele>
        <time>2024-09-16T16:52:55Z</time>
      </trkpt>
      <trkpt lat="53.21081000380218" lon="13.862306037917733">
        <ele>32.82</ele>
        <time>2024-09-16T16:53:04Z</time>
      </trkpt>
      <trkpt lat="53.210308011621237" lon="13.864924963563681">
        <ele>26.57</ele>
        <time>2024-09-16T16:53:11Z</time>
      </trkpt>
      <trkpt lat="53.210034007206559" lon="13.866017963737249">
        <ele>22.25</ele>
        <time>2024-09-16T16:53:15Z</time>
      </trkpt>
      <trkpt lat="53.210027972236276" lon="13.86627403087914">
        <ele>21.289999999999999</ele>
        <time>2024-09-16T16:53:16Z</time>
      </trkpt>
      <trkpt lat="53.210044987499714" lon="13.866528002545238">
        <ele>20.809999999999999</ele>
        <time>2024-09-16T16:53:17Z</time>
      </trkpt>
      <trkpt lat="53.210110031068325" lon="13.866773005574942">
        <ele>19.84</ele>
        <time>2024-09-16T16:53:18Z</time>
      </trkpt>
      <trkpt lat="53.210180019959807" lon="13.867037035524845">
        <ele>19.359999999999999</ele>
        <time>2024-09-16T16:53:19Z</time>
      </trkpt>
      <trkpt lat="53.210253026336432" lon="13.867312967777252">
        <ele>18.879999999999999</ele>
        <time>2024-09-16T16:53:20Z</time>
      </trkpt>
      <trkpt lat="53.210826013237238" lon="13.869076017290354">
        <ele>16</ele>
        <time>2024-09-16T16:53:27Z</time>
      </trkpt>
      <trkpt lat="53.211050983518362" lon="13.869938012212515">
        <ele>14.08</ele>
        <time>2024-09-16T16:53:31Z</time>
      </trkpt>
      <trkpt lat="53.21136798709631" lon="13.871983028948307">
        <ele>5.91</ele>
        <time>2024-09-16T16:53:38Z</time>
      </trkpt>
      <trkpt lat="53.21158298291266" lon="13.874689964577556">
        <ele>-1.3</ele>
        <time>2024-09-16T16:53:46Z</time>
      </trkpt>
      <trkpt lat="53.211692031472921" lon="13.875914979726076">
        <ele>-3.23</ele>
        <time>2024-09-16T16:53:52Z</time>
      </trkpt>
      <trkpt lat="53.211756991222501" lon="13.876425018534064">
        <ele>-4.19</ele>
        <time>2024-09-16T16:53:56Z</time>
      </trkpt>
      <trkpt lat="53.211786998435855" lon="13.876655017957091">
        <ele>-3.71</ele>
        <time>2024-09-16T16:53:57Z</time>
      </trkpt>
      <trkpt lat="53.211866961792111" lon="13.876786027103662">
        <ele>-3.71</ele>
        <time>2024-09-16T16:53:58Z</time>
      </trkpt>
      <trkpt lat="53.21194801479578" lon="13.876796001568437">
        <ele>-3.71</ele>
        <time>2024-09-16T16:53:59Z</time>
      </trkpt>
      <trkpt lat="53.212049016728997" lon="13.87680203653872">
        <ele>-3.23</ele>
        <time>2024-09-16T16:54:00Z</time>
      </trkpt>
      <trkpt lat="53.212131997570395" lon="13.876791978254914">
        <ele>-2.27</ele>
        <time>2024-09-16T16:54:01Z</time>
      </trkpt>
      <trkpt lat="53.212441960349679" lon="13.876753002405167">
        <ele>-0.34</ele>
        <time>2024-09-16T16:54:05Z</time>
      </trkpt>
      <trkpt lat="53.212538016960025" lon="13.876741016283631">
        <ele>0.14</ele>
        <time>2024-09-16T16:54:06Z</time>
      </trkpt>
      <trkpt lat="53.212714036926627" lon="13.876811005175114">
        <ele>0.62</ele>
        <time>2024-09-16T16:54:08Z</time>
      </trkpt>
      <trkpt lat="53.2128069922328" lon="13.8768479693681">
        <ele>1.58</ele>
        <time>2024-09-16T16:54:09Z</time>
      </trkpt>
      <trkpt lat="53.212891984730959" lon="13.87691100127995">
        <ele>2.06</ele>
        <time>2024-09-16T16:54:10Z</time>
      </trkpt>
      <trkpt lat="53.212970020249486" lon="13.877015020698309">
        <ele>3.02</ele>
        <time>2024-09-16T16:54:11Z</time>
      </trkpt>
      <trkpt lat="53.213051995262504" lon="13.877122979611158">
        <ele>3.5</ele>
        <time>2024-09-16T16:54:12Z</time>
      </trkpt>
      <trkpt lat="53.214096967130899" lon="13.878467017784715">
        <ele>5.91</ele>
        <time>2024-09-16T16:54:24Z</time>
      </trkpt>
      <trkpt lat="53.215022999793291" lon="13.879287019371986">
        <ele>5.91</ele>
        <time>2024-09-16T16:54:33Z</time>
      </trkpt>
      <trkpt lat="53.216033019125462" lon="13.879578039050102">
        <ele>8.789999999999999</ele>
        <time>2024-09-16T16:54:42Z</time>
      </trkpt>
      <trkpt lat="53.217198019847274" lon="13.879831004887819">
        <ele>10.710000000000001</ele>
        <time>2024-09-16T16:54:52Z</time>
      </trkpt>
      <trkpt lat="53.217307990416884" lon="13.879831004887819">
        <ele>11.19</ele>
        <time>2024-09-16T16:54:53Z</time>
      </trkpt>
      <trkpt lat="53.217632034793496" lon="13.879763027653098">
        <ele>11.67</ele>
        <time>2024-09-16T16:54:56Z</time>
      </trkpt>
      <trkpt lat="53.217740999534726" lon="13.879733020439744">
        <ele>11.67</ele>
        <time>2024-09-16T16:54:57Z</time>
      </trkpt>
      <trkpt lat="53.218289008364081" lon="13.879702007398009">
        <ele>10.23</ele>
        <time>2024-09-16T16:55:02Z</time>
      </trkpt>
      <trkpt lat="53.218369977548718" lon="13.879647022113204">
        <ele>9.27</ele>
        <time>2024-09-16T16:55:03Z</time>
      </trkpt>
      <trkpt lat="53.218668038025498" lon="13.87944501824677">
        <ele>6.87</ele>
        <time>2024-09-16T16:55:06Z</time>
      </trkpt>
      <trkpt lat="53.218771973624825" lon="13.879374023526907">
        <ele>6.39</ele>
        <time>2024-09-16T16:55:07Z</time>
      </trkpt>
      <trkpt lat="53.218893008306623" lon="13.879336975514889">
        <ele>5.91</ele>
        <time>2024-09-16T16:55:08Z</time>
      </trkpt>
      <trkpt lat="53.219007002189755" lon="13.879336975514889">
        <ele>5.91</ele>
        <time>2024-09-16T16:55:09Z</time>
      </trkpt>
      <trkpt lat="53.219116972759366" lon="13.879336975514889">
        <ele>5.42</ele>
        <time>2024-09-16T16:55:10Z</time>
      </trkpt>
      <trkpt lat="53.219243958592415" lon="13.879394978284836">
        <ele>5.91</ele>
        <time>2024-09-16T16:55:11Z</time>
      </trkpt>
      <trkpt lat="53.219340015202761" lon="13.879496986046433">
        <ele>6.39</ele>
        <time>2024-09-16T16:55:12Z</time>
      </trkpt>
      <trkpt lat="53.219440011307597" lon="13.879604022949934">
        <ele>6.87</ele>
        <time>2024-09-16T16:55:13Z</time>
      </trkpt>
      <trkpt lat="53.219545036554337" lon="13.879724973812699">
        <ele>7.35</ele>
        <time>2024-09-16T16:55:14Z</time>
      </trkpt>
      <trkpt lat="53.220567964017391" lon="13.881107987836003">
        <ele>8.789999999999999</ele>
        <time>2024-09-16T16:55:25Z</time>
      </trkpt>
      <trkpt lat="53.220835011452436" lon="13.88150897808373">
        <ele>8.789999999999999</ele>
        <time>2024-09-16T16:55:28Z</time>
      </trkpt>
      <trkpt lat="53.221440017223358" lon="13.883069017902017">
        <ele>13.6</ele>
        <time>2024-09-16T16:55:37Z</time>
      </trkpt>
      <trkpt lat="53.22183002717793" lon="13.88410703279078">
        <ele>16.48</ele>
        <time>2024-09-16T16:55:44Z</time>
      </trkpt>
      <trkpt lat="53.221865985542536" lon="13.884280035272241">
        <ele>16.960000000000001</ele>
        <time>2024-09-16T16:55:45Z</time>
      </trkpt>
      <trkpt lat="53.221890041604638" lon="13.884468963369727">
        <ele>16.960000000000001</ele>
        <time>2024-09-16T16:55:46Z</time>
      </trkpt>
      <trkpt lat="53.222222970798612" lon="13.88612799346447">
        <ele>18.879999999999999</ele>
        <time>2024-09-16T16:55:53Z</time>
      </trkpt>
      <trkpt lat="53.222834011539817" lon="13.888846999034286">
        <ele>21.289999999999999</ele>
        <time>2024-09-16T16:56:02Z</time>
      </trkpt>
      <trkpt lat="53.223181022331119" lon="13.891673041507602">
        <ele>18.879999999999999</ele>
        <time>2024-09-16T16:56:10Z</time>
      </trkpt>
      <trkpt lat="53.223149003461003" lon="13.891983004286885">
        <ele>18.879999999999999</ele>
        <time>2024-09-16T16:56:11Z</time>
      </trkpt>
      <trkpt lat="53.223096029832959" lon="13.892276035621762">
        <ele>18.879999999999999</ele>
        <time>2024-09-16T16:56:12Z</time>
      </trkpt>
      <trkpt lat="53.222988992929459" lon="13.892594967037439">
        <ele>18.879999999999999</ele>
        <time>2024-09-16T16:56:13Z</time>
      </trkpt>
      <trkpt lat="53.222883967682719" lon="13.892910964787006">
        <ele>18.879999999999999</ele>
        <time>2024-09-16T16:56:14Z</time>
      </trkpt>
      <trkpt lat="53.222740972414613" lon="13.893197039142251">
        <ele>18.399999999999999</ele>
        <time>2024-09-16T16:56:15Z</time>
      </trkpt>
      <trkpt lat="53.222592025995255" lon="13.893489986658096">
        <ele>17.920000000000002</ele>
        <time>2024-09-16T16:56:16Z</time>
      </trkpt>
      <trkpt lat="53.222193969413638" lon="13.894272018224001">
        <ele>17.440000000000001</ele>
        <time>2024-09-16T16:56:19Z</time>
      </trkpt>
      <trkpt lat="53.222125992178917" lon="13.894603019580245">
        <ele>17.440000000000001</ele>
        <time>2024-09-16T16:56:20Z</time>
      </trkpt>
      <trkpt lat="53.22206899523735" lon="13.894882975146174">
        <ele>16.960000000000001</ele>
        <time>2024-09-16T16:56:21Z</time>
      </trkpt>
      <trkpt lat="53.222051979973912" lon="13.8951510284096">
        <ele>16.960000000000001</ele>
        <time>2024-09-16T16:56:22Z</time>
      </trkpt>
      <trkpt lat="53.222071006894112" lon="13.895443975925446">
        <ele>16.960000000000001</ele>
        <time>2024-09-16T16:56:23Z</time>
      </trkpt>
      <trkpt lat="53.222119035199285" lon="13.895747987553477">
        <ele>16.48</ele>
        <time>2024-09-16T16:56:24Z</time>
      </trkpt>
      <trkpt lat="53.222194975242019" lon="13.896029032766819">
        <ele>16</ele>
        <time>2024-09-16T16:56:25Z</time>
      </trkpt>
      <trkpt lat="53.222287008538842" lon="13.896330026909709">
        <ele>16</ele>
        <time>2024-09-16T16:56:26Z</time>
      </trkpt>
      <trkpt lat="53.222714988514781" lon="13.897882020100951">
        <ele>15.039999999999999</ele>
        <time>2024-09-16T16:56:31Z</time>
      </trkpt>
      <trkpt lat="53.222752036526799" lon="13.898199023678899">
        <ele>15.039999999999999</ele>
        <time>2024-09-16T16:56:32Z</time>
      </trkpt>
      <trkpt lat="53.222752036526799" lon="13.898506974801421">
        <ele>15.039999999999999</ele>
        <time>2024-09-16T16:56:33Z</time>
      </trkpt>
      <trkpt lat="53.222722029313445" lon="13.898807968944311">
        <ele>15.039999999999999</ele>
        <time>2024-09-16T16:56:34Z</time>
      </trkpt>
      <trkpt lat="53.222692022100091" lon="13.899099994450808">
        <ele>15.039999999999999</ele>
        <time>2024-09-16T16:56:35Z</time>
      </trkpt>
      <trkpt lat="53.222623039036989" lon="13.899756968021393">
        <ele>15.039999999999999</ele>
        <time>2024-09-16T16:56:38Z</time>
      </trkpt>
      <trkpt lat="53.222602000460029" lon="13.899957966059446">
        <ele>15.52</ele>
        <time>2024-09-16T16:56:39Z</time>
      </trkpt>
      <trkpt lat="53.22258397936821" lon="13.899975987151265">
        <ele>15.52</ele>
        <time>2024-09-16T16:56:40Z</time>
      </trkpt>
      <trkpt lat="53.222553972154856" lon="13.900002976879478">
        <ele>16</ele>
        <time>2024-09-16T16:56:41Z</time>
      </trkpt>
      <trkpt lat="53.222532011568546" lon="13.900024015456438">
        <ele>16.48</ele>
        <time>2024-09-16T16:56:42Z</time>
      </trkpt>
      <trkpt lat="53.222532011568546" lon="13.900024015456438">
        <ele>17.920000000000002</ele>
        <time>2024-09-16T16:56:51Z</time>
      </trkpt>
      <trkpt lat="53.222490018233657" lon="13.900063997134566">
        <ele>18.879999999999999</ele>
        <time>2024-09-16T16:57:03Z</time>
      </trkpt>
      <trkpt lat="53.222117023542523" lon="13.90041503123939">
        <ele>20.32</ele>
        <time>2024-09-16T16:57:08Z</time>
      </trkpt>
      <trkpt lat="53.2220059633255" lon="13.900518966838717">
        <ele>20.32</ele>
        <time>2024-09-16T16:57:09Z</time>
      </trkpt>
      <trkpt lat="53.221887024119496" lon="13.900631032884121">
        <ele>20.32</ele>
        <time>2024-09-16T16:57:10Z</time>
      </trkpt>
      <trkpt lat="53.221759032458067" lon="13.900702027603984">
        <ele>20.809999999999999</ele>
        <time>2024-09-16T16:57:11Z</time>
      </trkpt>
      <trkpt lat="53.22165803052485" lon="13.900751983746886">
        <ele>20.809999999999999</ele>
        <time>2024-09-16T16:57:12Z</time>
      </trkpt>
      <trkpt lat="53.221485028043389" lon="13.900757012888789">
        <ele>20.809999999999999</ele>
        <time>2024-09-16T16:57:13Z</time>
      </trkpt>
      <trkpt lat="53.221328034996986" lon="13.900761036202312">
        <ele>20.809999999999999</ele>
        <time>2024-09-16T16:57:14Z</time>
      </trkpt>
      <trkpt lat="53.221169030293822" lon="13.900764975696802">
        <ele>20.32</ele>
        <time>2024-09-16T16:57:15Z</time>
      </trkpt>
      <trkpt lat="53.220872981473804" lon="13.900773022323847">
        <ele>20.32</ele>
        <time>2024-09-16T16:57:17Z</time>
      </trkpt>
      <trkpt lat="53.220725040882826" lon="13.90071602538228">
        <ele>20.32</ele>
        <time>2024-09-16T16:57:18Z</time>
      </trkpt>
      <trkpt lat="53.220581039786339" lon="13.900656010955572">
        <ele>20.809999999999999</ele>
        <time>2024-09-16T16:57:19Z</time>
      </trkpt>
      <trkpt lat="53.220180971547961" lon="13.900488959625363">
        <ele>22.25</ele>
        <time>2024-09-16T16:57:22Z</time>
      </trkpt>
      <trkpt lat="53.220051974058151" lon="13.900408996269107">
        <ele>22.73</ele>
        <time>2024-09-16T16:57:23Z</time>
      </trkpt>
      <trkpt lat="53.219085037708282" lon="13.899421021342278">
        <ele>20.809999999999999</ele>
        <time>2024-09-16T16:57:30Z</time>
      </trkpt>
      <trkpt lat="53.21871698834002" lon="13.899066969752312">
        <ele>20.32</ele>
        <time>2024-09-16T16:57:33Z</time>
      </trkpt>
      <trkpt lat="53.218620009720325" lon="13.898902013897896">
        <ele>20.32</ele>
        <time>2024-09-16T16:57:34Z</time>
      </trkpt>
      <trkpt lat="53.218516996130347" lon="13.898728005588055">
        <ele>20.32</ele>
        <time>2024-09-16T16:57:35Z</time>
      </trkpt>
      <trkpt lat="53.217667993158102" lon="13.897466026246548">
        <ele>20.32</ele>
        <time>2024-09-16T16:57:42Z</time>
      </trkpt>
      <trkpt lat="53.216955028474331" lon="13.896650969982147">
        <ele>20.809999999999999</ele>
        <time>2024-09-16T16:57:48Z</time>
      </trkpt>
      <trkpt lat="53.216128991916776" lon="13.896002965047956">
        <ele>20.809999999999999</ele>
        <time>2024-09-16T16:57:54Z</time>
      </trkpt>
      <trkpt lat="53.216003011912107" lon="13.895821999758482">
        <ele>20.809999999999999</ele>
        <time>2024-09-16T16:57:55Z</time>
      </trkpt>
      <trkpt lat="53.215867979452014" lon="13.895627036690712">
        <ele>20.809999999999999</ele>
        <time>2024-09-16T16:57:56Z</time>
      </trkpt>
      <trkpt lat="53.215734958648682" lon="13.895434001460671">
        <ele>21.289999999999999</ele>
        <time>2024-09-16T16:57:57Z</time>
      </trkpt>
      <trkpt lat="53.215611996129155" lon="13.895256975665689">
        <ele>21.77</ele>
        <time>2024-09-16T16:57:58Z</time>
      </trkpt>
      <trkpt lat="53.215217962861061" lon="13.894635960459709">
        <ele>22.25</ele>
        <time>2024-09-16T16:58:02Z</time>
      </trkpt>
      <trkpt lat="53.215161971747875" lon="13.894435968250036">
        <ele>22.25</ele>
        <time>2024-09-16T16:58:03Z</time>
      </trkpt>
      <trkpt lat="53.215100029483438" lon="13.894218038767576">
        <ele>22.25</ele>
        <time>2024-09-16T16:58:04Z</time>
      </trkpt>
      <trkpt lat="53.214900959283113" lon="13.893508007749915">
        <ele>22.73</ele>
        <time>2024-09-16T16:58:07Z</time>
      </trkpt>
      <trkpt lat="53.214228982105851" lon="13.891668012365699">
        <ele>23.210000000000001</ele>
        <time>2024-09-16T16:58:15Z</time>
      </trkpt>
      <trkpt lat="53.213479975238442" lon="13.890366973355412">
        <ele>24.170000000000002</ele>
        <time>2024-09-16T16:58:22Z</time>
      </trkpt>
      <trkpt lat="53.213189039379358" lon="13.889961037784815">
        <ele>25.129999999999999</ele>
        <time>2024-09-16T16:58:25Z</time>
      </trkpt>
      <trkpt lat="53.213096000254154" lon="13.889894988387823">
        <ele>25.129999999999999</ele>
        <time>2024-09-16T16:58:26Z</time>
      </trkpt>
      <trkpt lat="53.212971026077867" lon="13.889897000044584">
        <ele>25.129999999999999</ele>
        <time>2024-09-16T16:58:27Z</time>
      </trkpt>
      <trkpt lat="53.212838005274534" lon="13.889899011701345">
        <ele>25.609999999999999</ele>
        <time>2024-09-16T16:58:28Z</time>
      </trkpt>
      <trkpt lat="53.212688975036144" lon="13.889901023358107">
        <ele>25.609999999999999</ele>
        <time>2024-09-16T16:58:29Z</time>
      </trkpt>
      <trkpt lat="53.211478041484952" lon="13.890034966170788">
        <ele>23.690000000000001</ele>
        <time>2024-09-16T16:58:37Z</time>
      </trkpt>
      <trkpt lat="53.211335968226194" lon="13.890086011961102">
        <ele>23.210000000000001</ele>
        <time>2024-09-16T16:58:38Z</time>
      </trkpt>
      <trkpt lat="53.211179981008172" lon="13.890094980597496">
        <ele>22.73</ele>
        <time>2024-09-16T16:58:39Z</time>
      </trkpt>
      <trkpt lat="53.210397027432919" lon="13.889970006421208">
        <ele>20.32</ele>
        <time>2024-09-16T16:58:44Z</time>
      </trkpt>
      <trkpt lat="53.210255037993193" lon="13.889977969229221">
        <ele>19.84</ele>
        <time>2024-09-16T16:58:45Z</time>
      </trkpt>
      <trkpt lat="53.210111036896706" lon="13.89001501724124">
        <ele>19.359999999999999</ele>
        <time>2024-09-16T16:58:46Z</time>
      </trkpt>
      <trkpt lat="53.209964018315077" lon="13.890052987262607">
        <ele>19.359999999999999</ele>
        <time>2024-09-16T16:58:47Z</time>
      </trkpt>
      <trkpt lat="53.209812976419926" lon="13.890091963112354">
        <ele>19.359999999999999</ele>
        <time>2024-09-16T16:58:48Z</time>
      </trkpt>
      <trkpt lat="53.208458963781595" lon="13.890151977539062">
        <ele>20.809999999999999</ele>
        <time>2024-09-16T16:58:57Z</time>
      </trkpt>
      <trkpt lat="53.207582971081138" lon="13.890151977539062">
        <ele>20.32</ele>
        <time>2024-09-16T16:59:04Z</time>
      </trkpt>
      <trkpt lat="53.207374010235071" lon="13.890103027224541">
        <ele>19.84</ele>
        <time>2024-09-16T16:59:07Z</time>
      </trkpt>
      <trkpt lat="53.207317013293505" lon="13.8900809828192">
        <ele>19.359999999999999</ele>
        <time>2024-09-16T16:59:08Z</time>
      </trkpt>
      <trkpt lat="53.207270996645093" lon="13.890007976442575">
        <ele>19.359999999999999</ele>
        <time>2024-09-16T16:59:09Z</time>
      </trkpt>
      <trkpt lat="53.207253981381655" lon="13.889918038621545">
        <ele>18.879999999999999</ele>
        <time>2024-09-16T16:59:10Z</time>
      </trkpt>
      <trkpt lat="53.207237971946597" lon="13.889830028638244">
        <ele>18.399999999999999</ele>
        <time>2024-09-16T16:59:11Z</time>
      </trkpt>
      <trkpt lat="53.207231014966965" lon="13.889735983684659">
        <ele>18.399999999999999</ele>
        <time>2024-09-16T16:59:12Z</time>
      </trkpt>
      <trkpt lat="53.207217017188668" lon="13.889550995081663">
        <ele>17.920000000000002</ele>
        <time>2024-09-16T16:59:13Z</time>
      </trkpt>
      <trkpt lat="53.207149961963296" lon="13.889563987031579">
        <ele>17.440000000000001</ele>
        <time>2024-09-16T16:59:14Z</time>
      </trkpt>
      <trkpt lat="53.207086008042097" lon="13.889575973153114">
        <ele>16.960000000000001</ele>
        <time>2024-09-16T16:59:15Z</time>
      </trkpt>
      <trkpt lat="53.207000009715557" lon="13.889591982588172">
        <ele>16.960000000000001</ele>
        <time>2024-09-16T16:59:16Z</time>
      </trkpt>
      <trkpt lat="53.206142960116267" lon="13.88956599868834">
        <ele>15.52</ele>
        <time>2024-09-16T16:59:22Z</time>
      </trkpt>
      <trkpt lat="53.204710995778441" lon="13.889290988445282">
        <ele>16.960000000000001</ele>
        <time>2024-09-16T16:59:30Z</time>
      </trkpt>
      <trkpt lat="53.202939983457327" lon="13.88855597935617">
        <ele>18.399999999999999</ele>
        <time>2024-09-16T16:59:39Z</time>
      </trkpt>
      <trkpt lat="53.201218005269766" lon="13.887358959764242">
        <ele>21.289999999999999</ele>
        <time>2024-09-16T16:59:48Z</time>
      </trkpt>
      <trkpt lat="53.199397036805749" lon="13.885877961292863">
        <ele>23.690000000000001</ele>
        <time>2024-09-16T16:59:57Z</time>
      </trkpt>
      <trkpt lat="53.196981959044933" lon="13.88391500338912">
        <ele>23.210000000000001</ele>
        <time>2024-09-16T17:00:09Z</time>
      </trkpt>
      <trkpt lat="53.195214970037341" lon="13.882355969399214">
        <ele>23.690000000000001</ele>
        <time>2024-09-16T17:00:18Z</time>
      </trkpt>
      <trkpt lat="53.194101015105844" lon="13.881463967263699">
        <ele>24.170000000000002</ele>
        <time>2024-09-16T17:00:24Z</time>
      </trkpt>
      <trkpt lat="53.192229000851512" lon="13.880420001223683">
        <ele>28.5</ele>
        <time>2024-09-16T17:00:34Z</time>
      </trkpt>
      <trkpt lat="53.191401958465576" lon="13.879823964089155">
        <ele>28.5</ele>
        <time>2024-09-16T17:00:42Z</time>
      </trkpt>
      <trkpt lat="53.190557984635234" lon="13.879247959703207">
        <ele>27.530000000000001</ele>
        <time>2024-09-16T17:00:50Z</time>
      </trkpt>
      <trkpt lat="53.189541008323431" lon="13.878898015245795">
        <ele>27.530000000000001</ele>
        <time>2024-09-16T17:00:59Z</time>
      </trkpt>
      <trkpt lat="53.188045006245375" lon="13.878234000876546">
        <ele>28.02</ele>
        <time>2024-09-16T17:01:12Z</time>
      </trkpt>
      <trkpt lat="53.18760403431952" lon="13.877981035038829">
        <ele>28.5</ele>
        <time>2024-09-16T17:01:16Z</time>
      </trkpt>
      <trkpt lat="53.18638002499938" lon="13.877256000414491">
        <ele>30.899999999999999</ele>
        <time>2024-09-16T17:01:27Z</time>
      </trkpt>
      <trkpt lat="53.186268964782357" lon="13.877176037058234">
        <ele>30.899999999999999</ele>
        <time>2024-09-16T17:01:28Z</time>
      </trkpt>
      <trkpt lat="53.18607802502811" lon="13.877036981284618">
        <ele>31.379999999999999</ele>
        <time>2024-09-16T17:01:30Z</time>
      </trkpt>
      <trkpt lat="53.185965958982706" lon="13.876983001828194">
        <ele>31.379999999999999</ele>
        <time>2024-09-16T17:01:32Z</time>
      </trkpt>
      <trkpt lat="53.185883983969688" lon="13.876998005434871">
        <ele>31.859999999999999</ele>
        <time>2024-09-16T17:01:34Z</time>
      </trkpt>
      <trkpt lat="53.185841990634799" lon="13.877005968242884">
        <ele>31.379999999999999</ele>
        <time>2024-09-16T17:01:35Z</time>
      </trkpt>
      <trkpt lat="53.185796979814768" lon="13.877015020698309">
        <ele>31.379999999999999</ele>
        <time>2024-09-16T17:01:36Z</time>
      </trkpt>
      <trkpt lat="53.185744006186724" lon="13.877024995163083">
        <ele>31.379999999999999</ele>
        <time>2024-09-16T17:01:37Z</time>
      </trkpt>
      <trkpt lat="53.185679968446493" lon="13.877036981284618">
        <ele>31.379999999999999</ele>
        <time>2024-09-16T17:01:38Z</time>
      </trkpt>
      <trkpt lat="53.185533033683896" lon="13.877064976841211">
        <ele>31.859999999999999</ele>
        <time>2024-09-16T17:01:40Z</time>
      </trkpt>
      <trkpt lat="53.18545700982213" lon="13.877078974619508">
        <ele>32.340000000000003</ele>
        <time>2024-09-16T17:01:41Z</time>
      </trkpt>
      <trkpt lat="53.184801964089274" lon="13.877203026786447">
        <ele>37.630000000000003</ele>
        <time>2024-09-16T17:01:48Z</time>
      </trkpt>
      <trkpt lat="53.184706997126341" lon="13.877191040664911">
        <ele>38.109999999999999</ele>
        <time>2024-09-16T17:01:49Z</time>
      </trkpt>
      <trkpt lat="53.184528965502977" lon="13.87710303068161">
        <ele>38.590000000000003</ele>
        <time>2024-09-16T17:01:52Z</time>
      </trkpt>
      <trkpt lat="53.184535000473261" lon="13.877357002347708">
        <ele>38.590000000000003</ele>
        <time>2024-09-16T17:01:53Z</time>
      </trkpt>
      <trkpt lat="53.184493007138371" lon="13.877384997904301">
        <ele>38.590000000000003</ele>
        <time>2024-09-16T17:01:54Z</time>
      </trkpt>
      <trkpt lat="53.184394016861916" lon="13.877483988180757">
        <ele>38.590000000000003</ele>
        <time>2024-09-16T17:01:56Z</time>
      </trkpt>
      <trkpt lat="53.184299971908331" lon="13.877578033134341">
        <ele>38.590000000000003</ele>
        <time>2024-09-16T17:01:57Z</time>
      </trkpt>
      <trkpt lat="53.183388020843267" lon="13.878637002781034">
        <ele>40.030000000000001</ele>
        <time>2024-09-16T17:02:06Z</time>
      </trkpt>
      <trkpt lat="53.182242969051003" lon="13.87996201403439">
        <ele>42.920000000000002</ele>
        <time>2024-09-16T17:02:13Z</time>
      </trkpt>
      <trkpt lat="53.181255999952555" lon="13.881318960338831">
        <ele>46.759999999999998</ele>
        <time>2024-09-16T17:02:19Z</time>
      </trkpt>
      <trkpt lat="53.180340025573969" lon="13.883028030395508">
        <ele>49.159999999999997</ele>
        <time>2024-09-16T17:02:26Z</time>
      </trkpt>
      <trkpt lat="53.180178003385663" lon="13.883207989856601">
        <ele>49.159999999999997</ele>
        <time>2024-09-16T17:02:27Z</time>
      </trkpt>
      <trkpt lat="53.180024027824402" lon="13.883369006216526">
        <ele>49.159999999999997</ele>
        <time>2024-09-16T17:02:28Z</time>
      </trkpt>
      <trkpt lat="53.179878015071154" lon="13.883520970121026">
        <ele>48.68</ele>
        <time>2024-09-16T17:02:29Z</time>
      </trkpt>
      <trkpt lat="53.179755974560976" lon="13.88371903449297">
        <ele>48.68</ele>
        <time>2024-09-16T17:02:30Z</time>
      </trkpt>
      <trkpt lat="53.179640974849463" lon="13.883939981460571">
        <ele>49.159999999999997</ele>
        <time>2024-09-16T17:02:31Z</time>
      </trkpt>
      <trkpt lat="53.179536033421755" lon="13.884191019460559">
        <ele>49.649999999999999</ele>
        <time>2024-09-16T17:02:32Z</time>
      </trkpt>
      <trkpt lat="53.179446011781693" lon="13.884471980854869">
        <ele>49.649999999999999</ele>
        <time>2024-09-16T17:02:33Z</time>
      </trkpt>
      <trkpt lat="53.179351966828108" lon="13.884760988876224">
        <ele>50.130000000000003</ele>
        <time>2024-09-16T17:02:34Z</time>
      </trkpt>
      <trkpt lat="53.178865984082222" lon="13.88627802953124">
        <ele>49.159999999999997</ele>
        <time>2024-09-16T17:02:39Z</time>
      </trkpt>
      <trkpt lat="53.178805969655514" lon="13.886624034494162">
        <ele>48.68</ele>
        <time>2024-09-16T17:02:40Z</time>
      </trkpt>
      <trkpt lat="53.178287968039513" lon="13.888960992917418">
        <ele>48.200000000000003</ele>
        <time>2024-09-16T17:02:47Z</time>
      </trkpt>
      <trkpt lat="53.178179003298283" lon="13.889247989282012">
        <ele>48.200000000000003</ele>
        <time>2024-09-16T17:02:48Z</time>
      </trkpt>
      <trkpt lat="53.177612973377109" lon="13.890549028292298">
        <ele>50.130000000000003</ele>
        <time>2024-09-16T17:02:53Z</time>
      </trkpt>
      <trkpt lat="53.177460003644228" lon="13.89072697609663">
        <ele>50.609999999999999</ele>
        <time>2024-09-16T17:02:54Z</time>
      </trkpt>
      <trkpt lat="53.177288006991148" lon="13.89089897274971">
        <ele>51.090000000000003</ele>
        <time>2024-09-16T17:02:55Z</time>
      </trkpt>
      <trkpt lat="53.176762964576483" lon="13.891423009335995">
        <ele>51.090000000000003</ele>
        <time>2024-09-16T17:02:58Z</time>
      </trkpt>
      <trkpt lat="53.176613012328744" lon="13.891660971567035">
        <ele>51.090000000000003</ele>
        <time>2024-09-16T17:02:59Z</time>
      </trkpt>
      <trkpt lat="53.17591798491776" lon="13.892790013924241">
        <ele>52.049999999999997</ele>
        <time>2024-09-16T17:03:05Z</time>
      </trkpt>
      <trkpt lat="53.17555203102529" lon="13.893310027197003">
        <ele>53.009999999999998</ele>
        <time>2024-09-16T17:03:09Z</time>
      </trkpt>
      <trkpt lat="53.174799000844359" lon="13.894564965739846">
        <ele>57.340000000000003</ele>
        <time>2024-09-16T17:03:18Z</time>
      </trkpt>
      <trkpt lat="53.174717025831342" lon="13.894633026793599">
        <ele>57.82</ele>
        <time>2024-09-16T17:03:19Z</time>
      </trkpt>
      <trkpt lat="53.17462801001966" lon="13.89465800486505">
        <ele>57.82</ele>
        <time>2024-09-16T17:03:20Z</time>
      </trkpt>
      <trkpt lat="53.174515021964908" lon="13.89459396712482">
        <ele>58.299999999999997</ele>
        <time>2024-09-16T17:03:21Z</time>
      </trkpt>
      <trkpt lat="53.174436986446381" lon="13.894602013751864">
        <ele>58.780000000000001</ele>
        <time>2024-09-16T17:03:22Z</time>
      </trkpt>
      <trkpt lat="53.174301031976938" lon="13.89461500570178">
        <ele>59.259999999999998</ele>
        <time>2024-09-16T17:03:23Z</time>
      </trkpt>
      <trkpt lat="53.174244035035372" lon="13.894589021801949">
        <ele>59.259999999999998</ele>
        <time>2024-09-16T17:03:24Z</time>
      </trkpt>
      <trkpt lat="53.174047982320189" lon="13.894499000161886">
        <ele>59.740000000000002</ele>
        <time>2024-09-16T17:03:26Z</time>
      </trkpt>
      <trkpt lat="53.173946980386972" lon="13.894411996006966">
        <ele>59.740000000000002</ele>
        <time>2024-09-16T17:03:27Z</time>
      </trkpt>
      <trkpt lat="53.173848995938897" lon="13.89431401155889">
        <ele>59.740000000000002</ele>
        <time>2024-09-16T17:03:28Z</time>
      </trkpt>
      <trkpt lat="53.17346703261137" lon="13.893940011039376">
        <ele>60.700000000000003</ele>
        <time>2024-09-16T17:03:32Z</time>
      </trkpt>
      <trkpt lat="53.173370976001024" lon="13.893887959420681">
        <ele>60.700000000000003</ele>
        <time>2024-09-16T17:03:33Z</time>
      </trkpt>
      <trkpt lat="53.172597996890545" lon="13.893372975289822">
        <ele>61.659999999999997</ele>
        <time>2024-09-16T17:03:41Z</time>
      </trkpt>
      <trkpt lat="53.171817976981401" lon="13.892286010086536">
        <ele>60.700000000000003</ele>
        <time>2024-09-16T17:03:49Z</time>
      </trkpt>
      <trkpt lat="53.170867972075939" lon="13.891139030456543">
        <ele>61.18</ele>
        <time>2024-09-16T17:03:59Z</time>
      </trkpt>
      <trkpt lat="53.170232037082314" lon="13.890134962275624">
        <ele>62.140000000000001</ele>
        <time>2024-09-16T17:04:07Z</time>
      </trkpt>
      <trkpt lat="53.170054005458951" lon="13.889945028349757">
        <ele>62.140000000000001</ele>
        <time>2024-09-16T17:04:09Z</time>
      </trkpt>
      <trkpt lat="53.169959038496017" lon="13.889846038073301">
        <ele>62.140000000000001</ele>
        <time>2024-09-16T17:04:10Z</time>
      </trkpt>
      <trkpt lat="53.16985703073442" lon="13.889764985069633">
        <ele>61.659999999999997</ele>
        <time>2024-09-16T17:04:11Z</time>
      </trkpt>
      <trkpt lat="53.16934397444129" lon="13.889443958178163">
        <ele>61.659999999999997</ele>
        <time>2024-09-16T17:04:17Z</time>
      </trkpt>
      <trkpt lat="53.169259987771511" lon="13.889443958178163">
        <ele>62.140000000000001</ele>
        <time>2024-09-16T17:04:18Z</time>
      </trkpt>
      <trkpt lat="53.169182036072016" lon="13.889462985098362">
        <ele>62.619999999999997</ele>
        <time>2024-09-16T17:04:19Z</time>
      </trkpt>
      <trkpt lat="53.169099977239966" lon="13.889490980654955">
        <ele>63.100000000000001</ele>
        <time>2024-09-16T17:04:20Z</time>
      </trkpt>
      <trkpt lat="53.169015990570188" lon="13.889518976211548">
        <ele>63.579999999999998</ele>
        <time>2024-09-16T17:04:21Z</time>
      </trkpt>
      <trkpt lat="53.168423976749182" lon="13.889721985906363">
        <ele>64.549999999999997</ele>
        <time>2024-09-16T17:04:29Z</time>
      </trkpt>
      <trkpt lat="53.168398998677731" lon="13.889774959534407">
        <ele>64.549999999999997</ele>
        <time>2024-09-16T17:04:30Z</time>
      </trkpt>
      <trkpt lat="53.168365973979235" lon="13.889849977567792">
        <ele>64.549999999999997</ele>
        <time>2024-09-16T17:04:31Z</time>
      </trkpt>
      <trkpt lat="53.168329009786248" lon="13.88993295840919">
        <ele>64.549999999999997</ele>
        <time>2024-09-16T17:04:32Z</time>
      </trkpt>
      <trkpt lat="53.168293973430991" lon="13.89001501724124">
        <ele>65.030000000000001</ele>
        <time>2024-09-16T17:04:33Z</time>
      </trkpt>
      <trkpt lat="53.168175034224987" lon="13.890278963372111">
        <ele>65.510000000000005</ele>
        <time>2024-09-16T17:04:36Z</time>
      </trkpt>
      <trkpt lat="53.168107978999615" lon="13.890427993610501">
        <ele>65.510000000000005</ele>
        <time>2024-09-16T17:04:38Z</time>
      </trkpt>
      <trkpt lat="53.16807696595788" lon="13.890495970845222">
        <ele>65.510000000000005</ele>
        <time>2024-09-16T17:04:39Z</time>
      </trkpt>
      <trkpt lat="53.168044025078416" lon="13.890569983050227">
        <ele>65.989999999999995</ele>
        <time>2024-09-16T17:04:40Z</time>
      </trkpt>
      <trkpt lat="53.168006977066398" lon="13.890652041882277">
        <ele>65.989999999999995</ele>
        <time>2024-09-16T17:04:41Z</time>
      </trkpt>
      <trkpt lat="53.167970012873411" lon="13.89076704159379">
        <ele>65.989999999999995</ele>
        <time>2024-09-16T17:04:42Z</time>
      </trkpt>
      <trkpt lat="53.167965989559889" lon="13.890878017991781">
        <ele>65.989999999999995</ele>
        <time>2024-09-16T17:04:43Z</time>
      </trkpt>
      <trkpt lat="53.167961966246367" lon="13.890998968854547">
        <ele>65.989999999999995</ele>
        <time>2024-09-16T17:04:44Z</time>
      </trkpt>
      <trkpt lat="53.167958026751876" lon="13.891127966344357">
        <ele>65.989999999999995</ele>
        <time>2024-09-16T17:04:45Z</time>
      </trkpt>
      <trkpt lat="53.16794503480196" lon="13.891533985733986">
        <ele>66.469999999999999</ele>
        <time>2024-09-16T17:04:48Z</time>
      </trkpt>
      <trkpt lat="53.167941011488438" lon="13.891656026244164">
        <ele>66.950000000000003</ele>
        <time>2024-09-16T17:04:49Z</time>
      </trkpt>
      <trkpt lat="53.167933970689774" lon="13.891845960170031">
        <ele>67.430000000000007</ele>
        <time>2024-09-16T17:04:51Z</time>
      </trkpt>
      <trkpt lat="53.167931959033012" lon="13.89192801900208">
        <ele>67.909999999999997</ele>
        <time>2024-09-16T17:04:52Z</time>
      </trkpt>
      <trkpt lat="53.167928019538522" lon="13.892040001228452">
        <ele>68.390000000000001</ele>
        <time>2024-09-16T17:04:53Z</time>
      </trkpt>
      <trkpt lat="53.168151983991265" lon="13.89298003166914">
        <ele>69.829999999999998</ele>
        <time>2024-09-16T17:05:00Z</time>
      </trkpt>
      <trkpt lat="53.168238988146186" lon="13.893574979156256">
        <ele>70.790000000000006</ele>
        <time>2024-09-16T17:05:04Z</time>
      </trkpt>
      <trkpt lat="53.168278969824314" lon="13.89369098469615">
        <ele>70.790000000000006</ele>
        <time>2024-09-16T17:05:05Z</time>
      </trkpt>
      <trkpt lat="53.168318029493093" lon="13.893805984407663">
        <ele>71.269999999999996</ele>
        <time>2024-09-16T17:05:06Z</time>
      </trkpt>
      <trkpt lat="53.168360022827983" lon="13.893928024917841">
        <ele>71.760000000000005</ele>
        <time>2024-09-16T17:05:07Z</time>
      </trkpt>
      <trkpt lat="53.168404027819633" lon="13.894060039892793">
        <ele>71.760000000000005</ele>
        <time>2024-09-16T17:05:08Z</time>
      </trkpt>
      <trkpt lat="53.168449038639665" lon="13.894191971048713">
        <ele>72.239999999999995</ele>
        <time>2024-09-16T17:05:09Z</time>
      </trkpt>
      <trkpt lat="53.168492959812284" lon="13.894320968538523">
        <ele>73.200000000000003</ele>
        <time>2024-09-16T17:05:10Z</time>
      </trkpt>
      <trkpt lat="53.168538976460695" lon="13.894454995170236">
        <ele>74.159999999999997</ele>
        <time>2024-09-16T17:05:11Z</time>
      </trkpt>
      <trkpt lat="53.168572001159191" lon="13.89455096796155">
        <ele>74.640000000000001</ele>
        <time>2024-09-16T17:05:12Z</time>
      </trkpt>
      <trkpt lat="53.168602008372545" lon="13.894702009856701">
        <ele>75.599999999999994</ele>
        <time>2024-09-16T17:05:13Z</time>
      </trkpt>
      <trkpt lat="53.168624974787235" lon="13.894810974597931">
        <ele>76.079999999999998</ele>
        <time>2024-09-16T17:05:14Z</time>
      </trkpt>
      <trkpt lat="53.168652970343828" lon="13.894947012886405">
        <ele>76.560000000000002</ele>
        <time>2024-09-16T17:05:15Z</time>
      </trkpt>
      <trkpt lat="53.168682977557182" lon="13.895098976790905">
        <ele>77.519999999999996</ele>
        <time>2024-09-16T17:05:16Z</time>
      </trkpt>
      <trkpt lat="53.168714996427298" lon="13.895253036171198">
        <ele>78</ele>
        <time>2024-09-16T17:05:17Z</time>
      </trkpt>
      <trkpt lat="53.168746009469032" lon="13.895405000075698">
        <ele>78.480000000000004</ele>
        <time>2024-09-16T17:05:18Z</time>
      </trkpt>
      <trkpt lat="53.16893502138555" lon="13.89667896553874">
        <ele>78.969999999999999</ele>
        <time>2024-09-16T17:05:27Z</time>
      </trkpt>
      <trkpt lat="53.169012973085046" lon="13.897009966894984">
        <ele>78.480000000000004</ele>
        <time>2024-09-16T17:05:31Z</time>
      </trkpt>
      <trkpt lat="53.169054966419935" lon="13.897026982158422">
        <ele>78.480000000000004</ele>
        <time>2024-09-16T17:05:32Z</time>
      </trkpt>
      <trkpt lat="53.169154962524772" lon="13.897066963836551">
        <ele>78.480000000000004</ele>
        <time>2024-09-16T17:05:34Z</time>
      </trkpt>
      <trkpt lat="53.169206008315086" lon="13.897082973271608">
        <ele>78.480000000000004</ele>
        <time>2024-09-16T17:05:35Z</time>
      </trkpt>
      <trkpt lat="53.16925797611475" lon="13.89708599075675">
        <ele>78.480000000000004</ele>
        <time>2024-09-16T17:05:36Z</time>
      </trkpt>
      <trkpt lat="53.169315978884697" lon="13.897089008241892">
        <ele>78</ele>
        <time>2024-09-16T17:05:37Z</time>
      </trkpt>
      <trkpt lat="53.169372975826263" lon="13.897092025727034">
        <ele>78</ele>
        <time>2024-09-16T17:05:38Z</time>
      </trkpt>
      <trkpt lat="53.16942997276783" lon="13.897095965221524">
        <ele>78</ele>
        <time>2024-09-16T17:05:39Z</time>
      </trkpt>
      <trkpt lat="53.169495016336441" lon="13.897098982706666">
        <ele>78</ele>
        <time>2024-09-16T17:05:40Z</time>
      </trkpt>
      <trkpt lat="53.169561987742782" lon="13.897102000191808">
        <ele>78</ele>
        <time>2024-09-16T17:05:41Z</time>
      </trkpt>
      <trkpt lat="53.169615967199206" lon="13.89710501767695">
        <ele>78</ele>
        <time>2024-09-16T17:05:42Z</time>
      </trkpt>
      <trkpt lat="53.169656032696366" lon="13.897108035162091">
        <ele>78</ele>
        <time>2024-09-16T17:05:43Z</time>
      </trkpt>
      <trkpt lat="53.16968796774745" lon="13.897109040990472">
        <ele>77.519999999999996</ele>
        <time>2024-09-16T17:05:44Z</time>
      </trkpt>
      <trkpt lat="53.169961972162127" lon="13.897123960778117">
        <ele>77.040000000000006</ele>
        <time>2024-09-16T17:05:52Z</time>
      </trkpt>
      <trkpt lat="53.169996002689004" lon="13.897125972434878">
        <ele>77.040000000000006</ele>
        <time>2024-09-16T17:05:53Z</time>
      </trkpt>
      <trkpt lat="53.170018969103694" lon="13.897126978263259">
        <ele>77.040000000000006</ele>
        <time>2024-09-16T17:05:54Z</time>
      </trkpt>
      <trkpt lat="53.170039001852274" lon="13.89712798409164">
        <ele>77.040000000000006</ele>
        <time>2024-09-16T17:05:55Z</time>
      </trkpt>
      <trkpt lat="53.170057022944093" lon="13.89712898992002">
        <ele>77.040000000000006</ele>
        <time>2024-09-16T17:05:56Z</time>
      </trkpt>
      <trkpt lat="53.170076971873641" lon="13.897129995748401">
        <ele>77.040000000000006</ele>
        <time>2024-09-16T17:05:57Z</time>
      </trkpt>
    </trkseg>
  </trk>

</gpx>